<?xml version="1.0" encoding="UTF-8" standalone="no" ?>
<gpx xmlns="http://www.topografix.com/GPX/1/1" xmlns:xsi="http://www.w3.org/2001/XMLSchema-instance" xsi:schemaLocation="http://www.topografix.com/GPX/1/1 http://www.topografix.com/GPX/1/1/gpx.xsd" version="1.1" creator="VisuGPX - https://www.visugpx.com">
  <metadata>
    <name>2021-06-26 08:56:17 [Garmin]</name>
  </metadata>
  <trk>
    <name><![CDATA[2021-06-26 08:56:17 [Garmin]_1]]></name>
    <trkseg>
      <trkpt lat="44.68527" lon="6.0766">
        <ele>1029.6</ele>
        <time>2021-06-26T06:56:17Z</time>
      </trkpt>
      <trkpt lat="44.68527" lon="6.0766">
        <ele>1025</ele>
        <time>2021-06-26T06:56:18Z</time>
      </trkpt>
      <trkpt lat="44.6853" lon="6.07677">
        <ele>1024.8</ele>
        <time>2021-06-26T07:05:25Z</time>
      </trkpt>
      <trkpt lat="44.68533" lon="6.07679">
        <ele>1024.8</ele>
        <time>2021-06-26T07:05:27Z</time>
      </trkpt>
      <trkpt lat="44.68538" lon="6.07677">
        <ele>1024.8</ele>
        <time>2021-06-26T07:05:30Z</time>
      </trkpt>
      <trkpt lat="44.6854" lon="6.07674">
        <ele>1024.8</ele>
        <time>2021-06-26T07:05:31Z</time>
      </trkpt>
      <trkpt lat="44.68541" lon="6.07655">
        <ele>1024.8</ele>
        <time>2021-06-26T07:05:35Z</time>
      </trkpt>
      <trkpt lat="44.68534" lon="6.07633">
        <ele>1022.8</ele>
        <time>2021-06-26T07:05:40Z</time>
      </trkpt>
      <trkpt lat="44.68527" lon="6.0762">
        <ele>1021.4</ele>
        <time>2021-06-26T07:05:43Z</time>
      </trkpt>
      <trkpt lat="44.68519" lon="6.0761">
        <ele>1020.4</ele>
        <time>2021-06-26T07:05:45Z</time>
      </trkpt>
      <trkpt lat="44.68515" lon="6.07604">
        <ele>1020</ele>
        <time>2021-06-26T07:05:46Z</time>
      </trkpt>
      <trkpt lat="44.685" lon="6.07587">
        <ele>1019</ele>
        <time>2021-06-26T07:05:49Z</time>
      </trkpt>
      <trkpt lat="44.68489" lon="6.07574">
        <ele>1018.4</ele>
        <time>2021-06-26T07:05:51Z</time>
      </trkpt>
      <trkpt lat="44.68477" lon="6.07561">
        <ele>1018</ele>
        <time>2021-06-26T07:05:53Z</time>
      </trkpt>
      <trkpt lat="44.68458" lon="6.07539">
        <ele>1016.6</ele>
        <time>2021-06-26T07:05:57Z</time>
      </trkpt>
      <trkpt lat="44.68447" lon="6.07527">
        <ele>1015.6</ele>
        <time>2021-06-26T07:06:01Z</time>
      </trkpt>
      <trkpt lat="44.68445" lon="6.07525">
        <ele>1015.2</ele>
        <time>2021-06-26T07:06:02Z</time>
      </trkpt>
      <trkpt lat="44.68432" lon="6.07511">
        <ele>1014.4</ele>
        <time>2021-06-26T07:06:08Z</time>
      </trkpt>
      <trkpt lat="44.68414" lon="6.07492">
        <ele>1013.4</ele>
        <time>2021-06-26T07:06:14Z</time>
      </trkpt>
      <trkpt lat="44.68407" lon="6.07485">
        <ele>1013</ele>
        <time>2021-06-26T07:06:16Z</time>
      </trkpt>
      <trkpt lat="44.68392" lon="6.07467">
        <ele>1012.2</ele>
        <time>2021-06-26T07:06:20Z</time>
      </trkpt>
      <trkpt lat="44.68381" lon="6.0745">
        <ele>1011.4</ele>
        <time>2021-06-26T07:06:23Z</time>
      </trkpt>
      <trkpt lat="44.68377" lon="6.07444">
        <ele>1011</ele>
        <time>2021-06-26T07:06:24Z</time>
      </trkpt>
      <trkpt lat="44.68361" lon="6.07419">
        <ele>1009.6</ele>
        <time>2021-06-26T07:06:29Z</time>
      </trkpt>
      <trkpt lat="44.68352" lon="6.07407">
        <ele>1008.4</ele>
        <time>2021-06-26T07:06:32Z</time>
      </trkpt>
      <trkpt lat="44.68346" lon="6.07397">
        <ele>1007.6</ele>
        <time>2021-06-26T07:06:34Z</time>
      </trkpt>
      <trkpt lat="44.68339" lon="6.07386">
        <ele>1007.4</ele>
        <time>2021-06-26T07:06:36Z</time>
      </trkpt>
      <trkpt lat="44.6833" lon="6.07372">
        <ele>1006.8</ele>
        <time>2021-06-26T07:06:38Z</time>
      </trkpt>
      <trkpt lat="44.6832" lon="6.07358">
        <ele>1005.8</ele>
        <time>2021-06-26T07:06:40Z</time>
      </trkpt>
      <trkpt lat="44.68306" lon="6.07332">
        <ele>1004.8</ele>
        <time>2021-06-26T07:06:43Z</time>
      </trkpt>
      <trkpt lat="44.68286" lon="6.07303">
        <ele>1003.8</ele>
        <time>2021-06-26T07:06:47Z</time>
      </trkpt>
      <trkpt lat="44.68275" lon="6.07289">
        <ele>1003.2</ele>
        <time>2021-06-26T07:06:49Z</time>
      </trkpt>
      <trkpt lat="44.68261" lon="6.07278">
        <ele>1002.8</ele>
        <time>2021-06-26T07:06:51Z</time>
      </trkpt>
      <trkpt lat="44.68246" lon="6.07272">
        <ele>1001.8</ele>
        <time>2021-06-26T07:06:53Z</time>
      </trkpt>
      <trkpt lat="44.68238" lon="6.07272">
        <ele>1001.4</ele>
        <time>2021-06-26T07:06:54Z</time>
      </trkpt>
      <trkpt lat="44.6823" lon="6.07272">
        <ele>1001.2</ele>
        <time>2021-06-26T07:06:55Z</time>
      </trkpt>
      <trkpt lat="44.68222" lon="6.07275">
        <ele>1000.6</ele>
        <time>2021-06-26T07:06:56Z</time>
      </trkpt>
      <trkpt lat="44.68214" lon="6.07279">
        <ele>1000.4</ele>
        <time>2021-06-26T07:06:57Z</time>
      </trkpt>
      <trkpt lat="44.68208" lon="6.07285">
        <ele>1000.2</ele>
        <time>2021-06-26T07:06:58Z</time>
      </trkpt>
      <trkpt lat="44.68202" lon="6.07292">
        <ele>999.8</ele>
        <time>2021-06-26T07:06:59Z</time>
      </trkpt>
      <trkpt lat="44.68183" lon="6.07321">
        <ele>999.4</ele>
        <time>2021-06-26T07:07:03Z</time>
      </trkpt>
      <trkpt lat="44.68179" lon="6.07328">
        <ele>999.2</ele>
        <time>2021-06-26T07:07:04Z</time>
      </trkpt>
      <trkpt lat="44.68162" lon="6.07353">
        <ele>999</ele>
        <time>2021-06-26T07:07:08Z</time>
      </trkpt>
      <trkpt lat="44.68157" lon="6.07356">
        <ele>999</ele>
        <time>2021-06-26T07:07:09Z</time>
      </trkpt>
      <trkpt lat="44.68151" lon="6.07357">
        <ele>999</ele>
        <time>2021-06-26T07:07:10Z</time>
      </trkpt>
      <trkpt lat="44.6813" lon="6.07357">
        <ele>998.6</ele>
        <time>2021-06-26T07:07:13Z</time>
      </trkpt>
      <trkpt lat="44.68105" lon="6.07354">
        <ele>998.2</ele>
        <time>2021-06-26T07:07:16Z</time>
      </trkpt>
      <trkpt lat="44.68079" lon="6.07352">
        <ele>996.8</ele>
        <time>2021-06-26T07:07:19Z</time>
      </trkpt>
      <trkpt lat="44.68069" lon="6.07351">
        <ele>996.2</ele>
        <time>2021-06-26T07:07:20Z</time>
      </trkpt>
      <trkpt lat="44.68058" lon="6.07349">
        <ele>995.8</ele>
        <time>2021-06-26T07:07:21Z</time>
      </trkpt>
      <trkpt lat="44.68039" lon="6.07346">
        <ele>994.6</ele>
        <time>2021-06-26T07:07:23Z</time>
      </trkpt>
      <trkpt lat="44.68017" lon="6.07345">
        <ele>993.6</ele>
        <time>2021-06-26T07:07:25Z</time>
      </trkpt>
      <trkpt lat="44.67996" lon="6.07347">
        <ele>991.8</ele>
        <time>2021-06-26T07:07:27Z</time>
      </trkpt>
      <trkpt lat="44.67974" lon="6.07353">
        <ele>990</ele>
        <time>2021-06-26T07:07:29Z</time>
      </trkpt>
      <trkpt lat="44.67951" lon="6.07361">
        <ele>988.8</ele>
        <time>2021-06-26T07:07:31Z</time>
      </trkpt>
      <trkpt lat="44.67926" lon="6.07372">
        <ele>987.8</ele>
        <time>2021-06-26T07:07:33Z</time>
      </trkpt>
      <trkpt lat="44.67917" lon="6.07376">
        <ele>986.8</ele>
        <time>2021-06-26T07:07:34Z</time>
      </trkpt>
      <trkpt lat="44.67904" lon="6.07382">
        <ele>986.4</ele>
        <time>2021-06-26T07:07:35Z</time>
      </trkpt>
      <trkpt lat="44.67893" lon="6.07389">
        <ele>985.6</ele>
        <time>2021-06-26T07:07:36Z</time>
      </trkpt>
      <trkpt lat="44.67884" lon="6.07395">
        <ele>984.8</ele>
        <time>2021-06-26T07:07:37Z</time>
      </trkpt>
      <trkpt lat="44.67863" lon="6.07408">
        <ele>983.4</ele>
        <time>2021-06-26T07:07:39Z</time>
      </trkpt>
      <trkpt lat="44.67839" lon="6.07421">
        <ele>980.8</ele>
        <time>2021-06-26T07:07:41Z</time>
      </trkpt>
      <trkpt lat="44.67819" lon="6.07428">
        <ele>979.6</ele>
        <time>2021-06-26T07:07:43Z</time>
      </trkpt>
      <trkpt lat="44.67807" lon="6.07431">
        <ele>979.2</ele>
        <time>2021-06-26T07:07:44Z</time>
      </trkpt>
      <trkpt lat="44.67796" lon="6.07433">
        <ele>978.4</ele>
        <time>2021-06-26T07:07:45Z</time>
      </trkpt>
      <trkpt lat="44.67772" lon="6.07436">
        <ele>977.4</ele>
        <time>2021-06-26T07:07:47Z</time>
      </trkpt>
      <trkpt lat="44.6775" lon="6.07439">
        <ele>976</ele>
        <time>2021-06-26T07:07:49Z</time>
      </trkpt>
      <trkpt lat="44.67739" lon="6.07441">
        <ele>974.6</ele>
        <time>2021-06-26T07:07:50Z</time>
      </trkpt>
      <trkpt lat="44.67722" lon="6.07445">
        <ele>973.2</ele>
        <time>2021-06-26T07:07:52Z</time>
      </trkpt>
      <trkpt lat="44.67715" lon="6.07447">
        <ele>972.8</ele>
        <time>2021-06-26T07:07:53Z</time>
      </trkpt>
      <trkpt lat="44.677" lon="6.0745">
        <ele>972</ele>
        <time>2021-06-26T07:07:55Z</time>
      </trkpt>
      <trkpt lat="44.67691" lon="6.07451">
        <ele>971</ele>
        <time>2021-06-26T07:07:57Z</time>
      </trkpt>
      <trkpt lat="44.67682" lon="6.07449">
        <ele>970.2</ele>
        <time>2021-06-26T07:08:00Z</time>
      </trkpt>
      <trkpt lat="44.67679" lon="6.07447">
        <ele>969.8</ele>
        <time>2021-06-26T07:08:01Z</time>
      </trkpt>
      <trkpt lat="44.67668" lon="6.0744">
        <ele>969.2</ele>
        <time>2021-06-26T07:08:04Z</time>
      </trkpt>
      <trkpt lat="44.67663" lon="6.07438">
        <ele>969</ele>
        <time>2021-06-26T07:08:05Z</time>
      </trkpt>
      <trkpt lat="44.67658" lon="6.07436">
        <ele>968.8</ele>
        <time>2021-06-26T07:08:06Z</time>
      </trkpt>
      <trkpt lat="44.67654" lon="6.07433">
        <ele>968.6</ele>
        <time>2021-06-26T07:08:07Z</time>
      </trkpt>
      <trkpt lat="44.67642" lon="6.07423">
        <ele>968.2</ele>
        <time>2021-06-26T07:08:09Z</time>
      </trkpt>
      <trkpt lat="44.6762" lon="6.074">
        <ele>967.6</ele>
        <time>2021-06-26T07:08:13Z</time>
      </trkpt>
      <trkpt lat="44.67606" lon="6.07384">
        <ele>967.2</ele>
        <time>2021-06-26T07:08:16Z</time>
      </trkpt>
      <trkpt lat="44.67562" lon="6.07331">
        <ele>967</ele>
        <time>2021-06-26T07:08:25Z</time>
      </trkpt>
      <trkpt lat="44.67538" lon="6.07304">
        <ele>967.4</ele>
        <time>2021-06-26T07:08:31Z</time>
      </trkpt>
      <trkpt lat="44.67514" lon="6.07275">
        <ele>968.6</ele>
        <time>2021-06-26T07:08:38Z</time>
      </trkpt>
      <trkpt lat="44.67508" lon="6.07259">
        <ele>969.6</ele>
        <time>2021-06-26T07:08:41Z</time>
      </trkpt>
      <trkpt lat="44.67506" lon="6.07247">
        <ele>970</ele>
        <time>2021-06-26T07:08:43Z</time>
      </trkpt>
      <trkpt lat="44.67502" lon="6.07234">
        <ele>970.2</ele>
        <time>2021-06-26T07:08:45Z</time>
      </trkpt>
      <trkpt lat="44.67495" lon="6.07225">
        <ele>970.4</ele>
        <time>2021-06-26T07:08:47Z</time>
      </trkpt>
      <trkpt lat="44.6749" lon="6.07214">
        <ele>970.8</ele>
        <time>2021-06-26T07:08:49Z</time>
      </trkpt>
      <trkpt lat="44.67491" lon="6.07202">
        <ele>971</ele>
        <time>2021-06-26T07:08:51Z</time>
      </trkpt>
      <trkpt lat="44.67501" lon="6.07176">
        <ele>971.8</ele>
        <time>2021-06-26T07:08:56Z</time>
      </trkpt>
      <trkpt lat="44.67504" lon="6.07171">
        <ele>972.2</ele>
        <time>2021-06-26T07:08:57Z</time>
      </trkpt>
      <trkpt lat="44.67512" lon="6.07153">
        <ele>973</ele>
        <time>2021-06-26T07:09:01Z</time>
      </trkpt>
      <trkpt lat="44.67517" lon="6.07139">
        <ele>973.4</ele>
        <time>2021-06-26T07:09:04Z</time>
      </trkpt>
      <trkpt lat="44.67522" lon="6.07121">
        <ele>974</ele>
        <time>2021-06-26T07:09:08Z</time>
      </trkpt>
      <trkpt lat="44.67525" lon="6.07113">
        <ele>974.4</ele>
        <time>2021-06-26T07:09:10Z</time>
      </trkpt>
      <trkpt lat="44.67532" lon="6.07094">
        <ele>975.2</ele>
        <time>2021-06-26T07:09:15Z</time>
      </trkpt>
      <trkpt lat="44.67534" lon="6.07091">
        <ele>975.4</ele>
        <time>2021-06-26T07:09:16Z</time>
      </trkpt>
      <trkpt lat="44.67538" lon="6.07075">
        <ele>976.2</ele>
        <time>2021-06-26T07:09:20Z</time>
      </trkpt>
      <trkpt lat="44.67541" lon="6.07063">
        <ele>976.8</ele>
        <time>2021-06-26T07:09:23Z</time>
      </trkpt>
      <trkpt lat="44.67547" lon="6.07039">
        <ele>977.4</ele>
        <time>2021-06-26T07:09:29Z</time>
      </trkpt>
      <trkpt lat="44.67554" lon="6.07011">
        <ele>978.4</ele>
        <time>2021-06-26T07:09:36Z</time>
      </trkpt>
      <trkpt lat="44.67561" lon="6.06986">
        <ele>979.6</ele>
        <time>2021-06-26T07:09:43Z</time>
      </trkpt>
      <trkpt lat="44.67569" lon="6.06959">
        <ele>980.6</ele>
        <time>2021-06-26T07:09:50Z</time>
      </trkpt>
      <trkpt lat="44.67571" lon="6.06952">
        <ele>981</ele>
        <time>2021-06-26T07:09:52Z</time>
      </trkpt>
      <trkpt lat="44.67577" lon="6.06929">
        <ele>981.8</ele>
        <time>2021-06-26T07:09:58Z</time>
      </trkpt>
      <trkpt lat="44.6758" lon="6.06922">
        <ele>982</ele>
        <time>2021-06-26T07:10:00Z</time>
      </trkpt>
      <trkpt lat="44.67585" lon="6.06904">
        <ele>982.8</ele>
        <time>2021-06-26T07:10:05Z</time>
      </trkpt>
      <trkpt lat="44.67586" lon="6.069">
        <ele>983</ele>
        <time>2021-06-26T07:10:06Z</time>
      </trkpt>
      <trkpt lat="44.67588" lon="6.0688">
        <ele>983.8</ele>
        <time>2021-06-26T07:10:11Z</time>
      </trkpt>
      <trkpt lat="44.67589" lon="6.06868">
        <ele>984</ele>
        <time>2021-06-26T07:10:14Z</time>
      </trkpt>
      <trkpt lat="44.67592" lon="6.06843">
        <ele>985.2</ele>
        <time>2021-06-26T07:10:20Z</time>
      </trkpt>
      <trkpt lat="44.67595" lon="6.06814">
        <ele>986.4</ele>
        <time>2021-06-26T07:10:27Z</time>
      </trkpt>
      <trkpt lat="44.67595" lon="6.0681">
        <ele>986.4</ele>
        <time>2021-06-26T07:10:28Z</time>
      </trkpt>
      <trkpt lat="44.67599" lon="6.06793">
        <ele>987.2</ele>
        <time>2021-06-26T07:10:33Z</time>
      </trkpt>
      <trkpt lat="44.67603" lon="6.06784">
        <ele>987.8</ele>
        <time>2021-06-26T07:10:36Z</time>
      </trkpt>
      <trkpt lat="44.67607" lon="6.06769">
        <ele>988.4</ele>
        <time>2021-06-26T07:10:40Z</time>
      </trkpt>
      <trkpt lat="44.67612" lon="6.06755">
        <ele>989.2</ele>
        <time>2021-06-26T07:10:44Z</time>
      </trkpt>
      <trkpt lat="44.67617" lon="6.06745">
        <ele>989.6</ele>
        <time>2021-06-26T07:10:47Z</time>
      </trkpt>
      <trkpt lat="44.67623" lon="6.06731">
        <ele>990.2</ele>
        <time>2021-06-26T07:10:51Z</time>
      </trkpt>
      <trkpt lat="44.67626" lon="6.06725">
        <ele>990.6</ele>
        <time>2021-06-26T07:10:53Z</time>
      </trkpt>
      <trkpt lat="44.67636" lon="6.06705">
        <ele>991.6</ele>
        <time>2021-06-26T07:10:59Z</time>
      </trkpt>
      <trkpt lat="44.67639" lon="6.06699">
        <ele>992.4</ele>
        <time>2021-06-26T07:11:01Z</time>
      </trkpt>
      <trkpt lat="44.67643" lon="6.06693">
        <ele>992.8</ele>
        <time>2021-06-26T07:11:03Z</time>
      </trkpt>
      <trkpt lat="44.67659" lon="6.0667">
        <ele>993.8</ele>
        <time>2021-06-26T07:11:11Z</time>
      </trkpt>
      <trkpt lat="44.67671" lon="6.06656">
        <ele>994.8</ele>
        <time>2021-06-26T07:11:17Z</time>
      </trkpt>
      <trkpt lat="44.67675" lon="6.06651">
        <ele>995.4</ele>
        <time>2021-06-26T07:11:19Z</time>
      </trkpt>
      <trkpt lat="44.67679" lon="6.06645">
        <ele>995.6</ele>
        <time>2021-06-26T07:11:21Z</time>
      </trkpt>
      <trkpt lat="44.67686" lon="6.06637">
        <ele>996</ele>
        <time>2021-06-26T07:11:24Z</time>
      </trkpt>
      <trkpt lat="44.67697" lon="6.06625">
        <ele>996.8</ele>
        <time>2021-06-26T07:11:29Z</time>
      </trkpt>
      <trkpt lat="44.67702" lon="6.06621">
        <ele>997</ele>
        <time>2021-06-26T07:11:31Z</time>
      </trkpt>
      <trkpt lat="44.67713" lon="6.06608">
        <ele>998.2</ele>
        <time>2021-06-26T07:11:36Z</time>
      </trkpt>
      <trkpt lat="44.67717" lon="6.06602">
        <ele>998.4</ele>
        <time>2021-06-26T07:11:38Z</time>
      </trkpt>
      <trkpt lat="44.67731" lon="6.06586">
        <ele>999.2</ele>
        <time>2021-06-26T07:11:44Z</time>
      </trkpt>
      <trkpt lat="44.67741" lon="6.06577">
        <ele>999.6</ele>
        <time>2021-06-26T07:11:48Z</time>
      </trkpt>
      <trkpt lat="44.67754" lon="6.06561">
        <ele>1000.4</ele>
        <time>2021-06-26T07:11:54Z</time>
      </trkpt>
      <trkpt lat="44.67756" lon="6.06553">
        <ele>1000.8</ele>
        <time>2021-06-26T07:11:56Z</time>
      </trkpt>
      <trkpt lat="44.67758" lon="6.06541">
        <ele>1001.6</ele>
        <time>2021-06-26T07:11:59Z</time>
      </trkpt>
      <trkpt lat="44.67757" lon="6.06534">
        <ele>1001.8</ele>
        <time>2021-06-26T07:12:01Z</time>
      </trkpt>
      <trkpt lat="44.67755" lon="6.06519">
        <ele>1002.6</ele>
        <time>2021-06-26T07:12:06Z</time>
      </trkpt>
      <trkpt lat="44.67754" lon="6.06513">
        <ele>1003</ele>
        <time>2021-06-26T07:12:08Z</time>
      </trkpt>
      <trkpt lat="44.67754" lon="6.06501">
        <ele>1004</ele>
        <time>2021-06-26T07:12:12Z</time>
      </trkpt>
      <trkpt lat="44.67753" lon="6.0649">
        <ele>1005</ele>
        <time>2021-06-26T07:12:15Z</time>
      </trkpt>
      <trkpt lat="44.67754" lon="6.06486">
        <ele>1005</ele>
        <time>2021-06-26T07:12:16Z</time>
      </trkpt>
      <trkpt lat="44.67754" lon="6.06473">
        <ele>1006.2</ele>
        <time>2021-06-26T07:12:20Z</time>
      </trkpt>
      <trkpt lat="44.67754" lon="6.06464">
        <ele>1006.8</ele>
        <time>2021-06-26T07:12:24Z</time>
      </trkpt>
      <trkpt lat="44.67754" lon="6.06458">
        <ele>1007.4</ele>
        <time>2021-06-26T07:12:26Z</time>
      </trkpt>
      <trkpt lat="44.67757" lon="6.06449">
        <ele>1008.4</ele>
        <time>2021-06-26T07:12:30Z</time>
      </trkpt>
      <trkpt lat="44.67764" lon="6.06433">
        <ele>1010</ele>
        <time>2021-06-26T07:12:36Z</time>
      </trkpt>
      <trkpt lat="44.67765" lon="6.06431">
        <ele>1010.6</ele>
        <time>2021-06-26T07:12:37Z</time>
      </trkpt>
      <trkpt lat="44.67768" lon="6.06423">
        <ele>1011</ele>
        <time>2021-06-26T07:12:40Z</time>
      </trkpt>
      <trkpt lat="44.67775" lon="6.06414">
        <ele>1012.2</ele>
        <time>2021-06-26T07:12:44Z</time>
      </trkpt>
      <trkpt lat="44.67782" lon="6.06402">
        <ele>1013.2</ele>
        <time>2021-06-26T07:12:49Z</time>
      </trkpt>
      <trkpt lat="44.67787" lon="6.06394">
        <ele>1014</ele>
        <time>2021-06-26T07:12:53Z</time>
      </trkpt>
      <trkpt lat="44.6779" lon="6.0639">
        <ele>1014.6</ele>
        <time>2021-06-26T07:12:55Z</time>
      </trkpt>
      <trkpt lat="44.67797" lon="6.06381">
        <ele>1015.8</ele>
        <time>2021-06-26T07:13:00Z</time>
      </trkpt>
      <trkpt lat="44.67798" lon="6.06379">
        <ele>1015.8</ele>
        <time>2021-06-26T07:13:01Z</time>
      </trkpt>
      <trkpt lat="44.67806" lon="6.0637">
        <ele>1016.8</ele>
        <time>2021-06-26T07:13:06Z</time>
      </trkpt>
      <trkpt lat="44.67815" lon="6.06364">
        <ele>1018.2</ele>
        <time>2021-06-26T07:13:11Z</time>
      </trkpt>
      <trkpt lat="44.67824" lon="6.06359">
        <ele>1019.4</ele>
        <time>2021-06-26T07:13:16Z</time>
      </trkpt>
      <trkpt lat="44.67832" lon="6.06354">
        <ele>1020.4</ele>
        <time>2021-06-26T07:13:20Z</time>
      </trkpt>
      <trkpt lat="44.67833" lon="6.06353">
        <ele>1020.6</ele>
        <time>2021-06-26T07:13:21Z</time>
      </trkpt>
      <trkpt lat="44.6784" lon="6.06349">
        <ele>1021.8</ele>
        <time>2021-06-26T07:13:25Z</time>
      </trkpt>
      <trkpt lat="44.67847" lon="6.06344">
        <ele>1022.6</ele>
        <time>2021-06-26T07:13:29Z</time>
      </trkpt>
      <trkpt lat="44.67849" lon="6.06342">
        <ele>1023</ele>
        <time>2021-06-26T07:13:30Z</time>
      </trkpt>
      <trkpt lat="44.67857" lon="6.06336">
        <ele>1024</ele>
        <time>2021-06-26T07:13:35Z</time>
      </trkpt>
      <trkpt lat="44.6786" lon="6.06332">
        <ele>1024.8</ele>
        <time>2021-06-26T07:13:37Z</time>
      </trkpt>
      <trkpt lat="44.67863" lon="6.06328">
        <ele>1025.4</ele>
        <time>2021-06-26T07:13:39Z</time>
      </trkpt>
      <trkpt lat="44.6787" lon="6.0632">
        <ele>1026.4</ele>
        <time>2021-06-26T07:13:43Z</time>
      </trkpt>
      <trkpt lat="44.67876" lon="6.06311">
        <ele>1027.2</ele>
        <time>2021-06-26T07:13:47Z</time>
      </trkpt>
      <trkpt lat="44.67879" lon="6.06306">
        <ele>1027.6</ele>
        <time>2021-06-26T07:13:49Z</time>
      </trkpt>
      <trkpt lat="44.67886" lon="6.0629">
        <ele>1029</ele>
        <time>2021-06-26T07:13:55Z</time>
      </trkpt>
      <trkpt lat="44.67888" lon="6.06285">
        <ele>1029.6</ele>
        <time>2021-06-26T07:13:57Z</time>
      </trkpt>
      <trkpt lat="44.67891" lon="6.06273">
        <ele>1030</ele>
        <time>2021-06-26T07:14:01Z</time>
      </trkpt>
      <trkpt lat="44.67896" lon="6.06254">
        <ele>1031.4</ele>
        <time>2021-06-26T07:14:07Z</time>
      </trkpt>
      <trkpt lat="44.67897" lon="6.06251">
        <ele>1031.4</ele>
        <time>2021-06-26T07:14:08Z</time>
      </trkpt>
      <trkpt lat="44.67904" lon="6.06232">
        <ele>1032.2</ele>
        <time>2021-06-26T07:14:15Z</time>
      </trkpt>
      <trkpt lat="44.67906" lon="6.06231">
        <ele>1032.4</ele>
        <time>2021-06-26T07:14:16Z</time>
      </trkpt>
      <trkpt lat="44.6792" lon="6.06226">
        <ele>1032.8</ele>
        <time>2021-06-26T07:14:21Z</time>
      </trkpt>
      <trkpt lat="44.67948" lon="6.06221">
        <ele>1033</ele>
        <time>2021-06-26T07:14:29Z</time>
      </trkpt>
      <trkpt lat="44.67979" lon="6.06214">
        <ele>1032.4</ele>
        <time>2021-06-26T07:14:37Z</time>
      </trkpt>
      <trkpt lat="44.68014" lon="6.06206">
        <ele>1032.2</ele>
        <time>2021-06-26T07:14:45Z</time>
      </trkpt>
      <trkpt lat="44.68051" lon="6.06199">
        <ele>1031.2</ele>
        <time>2021-06-26T07:14:52Z</time>
      </trkpt>
      <trkpt lat="44.68056" lon="6.06198">
        <ele>1031.2</ele>
        <time>2021-06-26T07:14:53Z</time>
      </trkpt>
      <trkpt lat="44.68097" lon="6.06197">
        <ele>1030.6</ele>
        <time>2021-06-26T07:15:00Z</time>
      </trkpt>
      <trkpt lat="44.68115" lon="6.062">
        <ele>1030</ele>
        <time>2021-06-26T07:15:03Z</time>
      </trkpt>
      <trkpt lat="44.68151" lon="6.06209">
        <ele>1029.6</ele>
        <time>2021-06-26T07:15:09Z</time>
      </trkpt>
      <trkpt lat="44.68209" lon="6.06222">
        <ele>1029.2</ele>
        <time>2021-06-26T07:15:19Z</time>
      </trkpt>
      <trkpt lat="44.68215" lon="6.06222">
        <ele>1029.2</ele>
        <time>2021-06-26T07:15:20Z</time>
      </trkpt>
      <trkpt lat="44.68233" lon="6.06223">
        <ele>1029</ele>
        <time>2021-06-26T07:15:23Z</time>
      </trkpt>
      <trkpt lat="44.68245" lon="6.06222">
        <ele>1029</ele>
        <time>2021-06-26T07:15:25Z</time>
      </trkpt>
      <trkpt lat="44.68257" lon="6.06218">
        <ele>1028.8</ele>
        <time>2021-06-26T07:15:27Z</time>
      </trkpt>
      <trkpt lat="44.68263" lon="6.06216">
        <ele>1028.8</ele>
        <time>2021-06-26T07:15:28Z</time>
      </trkpt>
      <trkpt lat="44.68273" lon="6.06208">
        <ele>1028.6</ele>
        <time>2021-06-26T07:15:30Z</time>
      </trkpt>
      <trkpt lat="44.68277" lon="6.06204">
        <ele>1028.2</ele>
        <time>2021-06-26T07:15:31Z</time>
      </trkpt>
      <trkpt lat="44.68287" lon="6.06194">
        <ele>1028.2</ele>
        <time>2021-06-26T07:15:33Z</time>
      </trkpt>
      <trkpt lat="44.68298" lon="6.06178">
        <ele>1028.2</ele>
        <time>2021-06-26T07:15:36Z</time>
      </trkpt>
      <trkpt lat="44.68334" lon="6.06118">
        <ele>1029.2</ele>
        <time>2021-06-26T07:15:46Z</time>
      </trkpt>
      <trkpt lat="44.68369" lon="6.06059">
        <ele>1029.2</ele>
        <time>2021-06-26T07:15:56Z</time>
      </trkpt>
      <trkpt lat="44.68372" lon="6.06052">
        <ele>1029.2</ele>
        <time>2021-06-26T07:15:57Z</time>
      </trkpt>
      <trkpt lat="44.68397" lon="6.0601">
        <ele>1029.2</ele>
        <time>2021-06-26T07:16:04Z</time>
      </trkpt>
      <trkpt lat="44.68423" lon="6.05965">
        <ele>1029.2</ele>
        <time>2021-06-26T07:16:12Z</time>
      </trkpt>
      <trkpt lat="44.68454" lon="6.05916">
        <ele>1030</ele>
        <time>2021-06-26T07:16:21Z</time>
      </trkpt>
      <trkpt lat="44.68458" lon="6.05911">
        <ele>1030.2</ele>
        <time>2021-06-26T07:16:22Z</time>
      </trkpt>
      <trkpt lat="44.68487" lon="6.05879">
        <ele>1030.2</ele>
        <time>2021-06-26T07:16:29Z</time>
      </trkpt>
      <trkpt lat="44.68525" lon="6.05842">
        <ele>1030.8</ele>
        <time>2021-06-26T07:16:38Z</time>
      </trkpt>
      <trkpt lat="44.68529" lon="6.05838">
        <ele>1031</ele>
        <time>2021-06-26T07:16:39Z</time>
      </trkpt>
      <trkpt lat="44.68556" lon="6.05812">
        <ele>1031.4</ele>
        <time>2021-06-26T07:16:46Z</time>
      </trkpt>
      <trkpt lat="44.68574" lon="6.05794">
        <ele>1032.2</ele>
        <time>2021-06-26T07:16:51Z</time>
      </trkpt>
      <trkpt lat="44.68589" lon="6.0578">
        <ele>1032.4</ele>
        <time>2021-06-26T07:16:55Z</time>
      </trkpt>
      <trkpt lat="44.68603" lon="6.05766">
        <ele>1033.2</ele>
        <time>2021-06-26T07:16:59Z</time>
      </trkpt>
      <trkpt lat="44.68619" lon="6.05749">
        <ele>1034</ele>
        <time>2021-06-26T07:17:04Z</time>
      </trkpt>
      <trkpt lat="44.68626" lon="6.05743">
        <ele>1034.4</ele>
        <time>2021-06-26T07:17:06Z</time>
      </trkpt>
      <trkpt lat="44.68644" lon="6.05725">
        <ele>1035.4</ele>
        <time>2021-06-26T07:17:11Z</time>
      </trkpt>
      <trkpt lat="44.68658" lon="6.0571">
        <ele>1035.6</ele>
        <time>2021-06-26T07:17:15Z</time>
      </trkpt>
      <trkpt lat="44.68687" lon="6.05683">
        <ele>1036.4</ele>
        <time>2021-06-26T07:17:23Z</time>
      </trkpt>
      <trkpt lat="44.68691" lon="6.0568">
        <ele>1036.4</ele>
        <time>2021-06-26T07:17:24Z</time>
      </trkpt>
      <trkpt lat="44.68727" lon="6.05651">
        <ele>1037.4</ele>
        <time>2021-06-26T07:17:33Z</time>
      </trkpt>
      <trkpt lat="44.68731" lon="6.05649">
        <ele>1037.6</ele>
        <time>2021-06-26T07:17:34Z</time>
      </trkpt>
      <trkpt lat="44.68756" lon="6.05639">
        <ele>1038</ele>
        <time>2021-06-26T07:17:40Z</time>
      </trkpt>
      <trkpt lat="44.68779" lon="6.05629">
        <ele>1038.8</ele>
        <time>2021-06-26T07:17:46Z</time>
      </trkpt>
      <trkpt lat="44.68783" lon="6.05627">
        <ele>1038.8</ele>
        <time>2021-06-26T07:17:47Z</time>
      </trkpt>
      <trkpt lat="44.68794" lon="6.0562">
        <ele>1039.2</ele>
        <time>2021-06-26T07:17:50Z</time>
      </trkpt>
      <trkpt lat="44.68804" lon="6.05613">
        <ele>1040</ele>
        <time>2021-06-26T07:17:53Z</time>
      </trkpt>
      <trkpt lat="44.68815" lon="6.05605">
        <ele>1040.6</ele>
        <time>2021-06-26T07:17:56Z</time>
      </trkpt>
      <trkpt lat="44.68822" lon="6.056">
        <ele>1041.2</ele>
        <time>2021-06-26T07:17:58Z</time>
      </trkpt>
      <trkpt lat="44.68841" lon="6.05582">
        <ele>1042.4</ele>
        <time>2021-06-26T07:18:04Z</time>
      </trkpt>
      <trkpt lat="44.68867" lon="6.05558">
        <ele>1043.8</ele>
        <time>2021-06-26T07:18:13Z</time>
      </trkpt>
      <trkpt lat="44.68886" lon="6.05536">
        <ele>1044.6</ele>
        <time>2021-06-26T07:18:20Z</time>
      </trkpt>
      <trkpt lat="44.68889" lon="6.05533">
        <ele>1044.8</ele>
        <time>2021-06-26T07:18:21Z</time>
      </trkpt>
      <trkpt lat="44.68903" lon="6.05517">
        <ele>1045.8</ele>
        <time>2021-06-26T07:18:26Z</time>
      </trkpt>
      <trkpt lat="44.68913" lon="6.05509">
        <ele>1046.2</ele>
        <time>2021-06-26T07:18:29Z</time>
      </trkpt>
      <trkpt lat="44.68927" lon="6.05499">
        <ele>1046.8</ele>
        <time>2021-06-26T07:18:33Z</time>
      </trkpt>
      <trkpt lat="44.6894" lon="6.05493">
        <ele>1047.4</ele>
        <time>2021-06-26T07:18:36Z</time>
      </trkpt>
      <trkpt lat="44.68948" lon="6.05485">
        <ele>1047.8</ele>
        <time>2021-06-26T07:18:39Z</time>
      </trkpt>
      <trkpt lat="44.68955" lon="6.05479">
        <ele>1048.2</ele>
        <time>2021-06-26T07:18:41Z</time>
      </trkpt>
      <trkpt lat="44.68972" lon="6.05467">
        <ele>1049</ele>
        <time>2021-06-26T07:18:46Z</time>
      </trkpt>
      <trkpt lat="44.68977" lon="6.05462">
        <ele>1049.4</ele>
        <time>2021-06-26T07:18:48Z</time>
      </trkpt>
      <trkpt lat="44.68984" lon="6.05455">
        <ele>1050</ele>
        <time>2021-06-26T07:18:51Z</time>
      </trkpt>
      <trkpt lat="44.68999" lon="6.05443">
        <ele>1050.8</ele>
        <time>2021-06-26T07:18:56Z</time>
      </trkpt>
      <trkpt lat="44.69001" lon="6.05441">
        <ele>1051.4</ele>
        <time>2021-06-26T07:18:57Z</time>
      </trkpt>
      <trkpt lat="44.69017" lon="6.05427">
        <ele>1052.4</ele>
        <time>2021-06-26T07:19:02Z</time>
      </trkpt>
      <trkpt lat="44.6903" lon="6.05416">
        <ele>1052.8</ele>
        <time>2021-06-26T07:19:06Z</time>
      </trkpt>
      <trkpt lat="44.69053" lon="6.05396">
        <ele>1053.4</ele>
        <time>2021-06-26T07:19:13Z</time>
      </trkpt>
      <trkpt lat="44.69057" lon="6.05392">
        <ele>1053.4</ele>
        <time>2021-06-26T07:19:14Z</time>
      </trkpt>
      <trkpt lat="44.69083" lon="6.05368">
        <ele>1053.6</ele>
        <time>2021-06-26T07:19:21Z</time>
      </trkpt>
      <trkpt lat="44.69113" lon="6.05337">
        <ele>1053.2</ele>
        <time>2021-06-26T07:19:28Z</time>
      </trkpt>
      <trkpt lat="44.69135" lon="6.05301">
        <ele>1052.8</ele>
        <time>2021-06-26T07:19:35Z</time>
      </trkpt>
      <trkpt lat="44.69148" lon="6.05275">
        <ele>1054</ele>
        <time>2021-06-26T07:19:41Z</time>
      </trkpt>
      <trkpt lat="44.69154" lon="6.05259">
        <ele>1054.6</ele>
        <time>2021-06-26T07:19:44Z</time>
      </trkpt>
      <trkpt lat="44.69159" lon="6.05239">
        <ele>1055.2</ele>
        <time>2021-06-26T07:19:48Z</time>
      </trkpt>
      <trkpt lat="44.69163" lon="6.05223">
        <ele>1055.8</ele>
        <time>2021-06-26T07:19:51Z</time>
      </trkpt>
      <trkpt lat="44.69165" lon="6.05206">
        <ele>1056.4</ele>
        <time>2021-06-26T07:19:54Z</time>
      </trkpt>
      <trkpt lat="44.69165" lon="6.05195">
        <ele>1056.8</ele>
        <time>2021-06-26T07:19:56Z</time>
      </trkpt>
      <trkpt lat="44.69163" lon="6.05175">
        <ele>1057.2</ele>
        <time>2021-06-26T07:19:59Z</time>
      </trkpt>
      <trkpt lat="44.69159" lon="6.05132">
        <ele>1057.2</ele>
        <time>2021-06-26T07:20:04Z</time>
      </trkpt>
      <trkpt lat="44.69161" lon="6.05064">
        <ele>1055.6</ele>
        <time>2021-06-26T07:20:11Z</time>
      </trkpt>
      <trkpt lat="44.69165" lon="6.05003">
        <ele>1054.8</ele>
        <time>2021-06-26T07:20:18Z</time>
      </trkpt>
      <trkpt lat="44.69171" lon="6.04937">
        <ele>1054.8</ele>
        <time>2021-06-26T07:20:26Z</time>
      </trkpt>
      <trkpt lat="44.69172" lon="6.04908">
        <ele>1055.4</ele>
        <time>2021-06-26T07:20:31Z</time>
      </trkpt>
      <trkpt lat="44.69173" lon="6.04891">
        <ele>1055.6</ele>
        <time>2021-06-26T07:20:35Z</time>
      </trkpt>
      <trkpt lat="44.69174" lon="6.04868">
        <ele>1055.8</ele>
        <time>2021-06-26T07:20:39Z</time>
      </trkpt>
      <trkpt lat="44.69175" lon="6.04862">
        <ele>1055.8</ele>
        <time>2021-06-26T07:20:40Z</time>
      </trkpt>
      <trkpt lat="44.69179" lon="6.04836">
        <ele>1056.2</ele>
        <time>2021-06-26T07:20:44Z</time>
      </trkpt>
      <trkpt lat="44.6918" lon="6.0483">
        <ele>1056.4</ele>
        <time>2021-06-26T07:20:45Z</time>
      </trkpt>
      <trkpt lat="44.69182" lon="6.04819">
        <ele>1056.6</ele>
        <time>2021-06-26T07:20:47Z</time>
      </trkpt>
      <trkpt lat="44.69184" lon="6.04806">
        <ele>1056.8</ele>
        <time>2021-06-26T07:20:49Z</time>
      </trkpt>
      <trkpt lat="44.69185" lon="6.04783">
        <ele>1057</ele>
        <time>2021-06-26T07:20:52Z</time>
      </trkpt>
      <trkpt lat="44.69188" lon="6.04733">
        <ele>1056.6</ele>
        <time>2021-06-26T07:20:58Z</time>
      </trkpt>
      <trkpt lat="44.69191" lon="6.04681">
        <ele>1055.4</ele>
        <time>2021-06-26T07:21:04Z</time>
      </trkpt>
      <trkpt lat="44.69192" lon="6.04654">
        <ele>1054.8</ele>
        <time>2021-06-26T07:21:07Z</time>
      </trkpt>
      <trkpt lat="44.69192" lon="6.04595">
        <ele>1054.4</ele>
        <time>2021-06-26T07:21:14Z</time>
      </trkpt>
      <trkpt lat="44.69185" lon="6.04534">
        <ele>1054.2</ele>
        <time>2021-06-26T07:21:21Z</time>
      </trkpt>
      <trkpt lat="44.69183" lon="6.04515">
        <ele>1054</ele>
        <time>2021-06-26T07:21:23Z</time>
      </trkpt>
      <trkpt lat="44.69185" lon="6.04497">
        <ele>1053.8</ele>
        <time>2021-06-26T07:21:25Z</time>
      </trkpt>
      <trkpt lat="44.69186" lon="6.04488">
        <ele>1053.6</ele>
        <time>2021-06-26T07:21:26Z</time>
      </trkpt>
      <trkpt lat="44.6919" lon="6.04468">
        <ele>1053.4</ele>
        <time>2021-06-26T07:21:28Z</time>
      </trkpt>
      <trkpt lat="44.69193" lon="6.04459">
        <ele>1053.2</ele>
        <time>2021-06-26T07:21:29Z</time>
      </trkpt>
      <trkpt lat="44.69199" lon="6.0444">
        <ele>1052.8</ele>
        <time>2021-06-26T07:21:31Z</time>
      </trkpt>
      <trkpt lat="44.69209" lon="6.04414">
        <ele>1052.2</ele>
        <time>2021-06-26T07:21:34Z</time>
      </trkpt>
      <trkpt lat="44.69218" lon="6.04382">
        <ele>1051.2</ele>
        <time>2021-06-26T07:21:38Z</time>
      </trkpt>
      <trkpt lat="44.69219" lon="6.04374">
        <ele>1051.2</ele>
        <time>2021-06-26T07:21:39Z</time>
      </trkpt>
      <trkpt lat="44.6922" lon="6.04367">
        <ele>1051.2</ele>
        <time>2021-06-26T07:21:40Z</time>
      </trkpt>
      <trkpt lat="44.6922" lon="6.04357">
        <ele>1051.2</ele>
        <time>2021-06-26T07:21:42Z</time>
      </trkpt>
      <trkpt lat="44.6922" lon="6.0434">
        <ele>1051.8</ele>
        <time>2021-06-26T07:21:47Z</time>
      </trkpt>
      <trkpt lat="44.69219" lon="6.0433">
        <ele>1052.2</ele>
        <time>2021-06-26T07:21:50Z</time>
      </trkpt>
      <trkpt lat="44.69218" lon="6.04316">
        <ele>1052.8</ele>
        <time>2021-06-26T07:21:53Z</time>
      </trkpt>
      <trkpt lat="44.69216" lon="6.04306">
        <ele>1053.2</ele>
        <time>2021-06-26T07:21:55Z</time>
      </trkpt>
      <trkpt lat="44.69212" lon="6.04281">
        <ele>1054</ele>
        <time>2021-06-26T07:22:00Z</time>
      </trkpt>
      <trkpt lat="44.6921" lon="6.04271">
        <ele>1054.4</ele>
        <time>2021-06-26T07:22:02Z</time>
      </trkpt>
      <trkpt lat="44.69202" lon="6.04246">
        <ele>1055</ele>
        <time>2021-06-26T07:22:07Z</time>
      </trkpt>
      <trkpt lat="44.69195" lon="6.04231">
        <ele>1055.6</ele>
        <time>2021-06-26T07:22:10Z</time>
      </trkpt>
      <trkpt lat="44.69189" lon="6.04217">
        <ele>1056.4</ele>
        <time>2021-06-26T07:22:13Z</time>
      </trkpt>
      <trkpt lat="44.69184" lon="6.04209">
        <ele>1056.6</ele>
        <time>2021-06-26T07:22:15Z</time>
      </trkpt>
      <trkpt lat="44.69176" lon="6.04191">
        <ele>1058</ele>
        <time>2021-06-26T07:22:19Z</time>
      </trkpt>
      <trkpt lat="44.69165" lon="6.04167">
        <ele>1059</ele>
        <time>2021-06-26T07:22:25Z</time>
      </trkpt>
      <trkpt lat="44.69163" lon="6.04163">
        <ele>1059.2</ele>
        <time>2021-06-26T07:22:26Z</time>
      </trkpt>
      <trkpt lat="44.69155" lon="6.04144">
        <ele>1060</ele>
        <time>2021-06-26T07:22:31Z</time>
      </trkpt>
      <trkpt lat="44.69149" lon="6.04133">
        <ele>1061</ele>
        <time>2021-06-26T07:22:34Z</time>
      </trkpt>
      <trkpt lat="44.69141" lon="6.04116">
        <ele>1062.2</ele>
        <time>2021-06-26T07:22:39Z</time>
      </trkpt>
      <trkpt lat="44.69134" lon="6.04098">
        <ele>1063.2</ele>
        <time>2021-06-26T07:22:44Z</time>
      </trkpt>
      <trkpt lat="44.69133" lon="6.04094">
        <ele>1063.4</ele>
        <time>2021-06-26T07:22:45Z</time>
      </trkpt>
      <trkpt lat="44.69128" lon="6.04083">
        <ele>1064.4</ele>
        <time>2021-06-26T07:22:48Z</time>
      </trkpt>
      <trkpt lat="44.69118" lon="6.04058">
        <ele>1065.4</ele>
        <time>2021-06-26T07:22:55Z</time>
      </trkpt>
      <trkpt lat="44.69116" lon="6.04053">
        <ele>1065.6</ele>
        <time>2021-06-26T07:22:56Z</time>
      </trkpt>
      <trkpt lat="44.69106" lon="6.04033">
        <ele>1066.8</ele>
        <time>2021-06-26T07:23:02Z</time>
      </trkpt>
      <trkpt lat="44.69104" lon="6.0403">
        <ele>1067</ele>
        <time>2021-06-26T07:23:03Z</time>
      </trkpt>
      <trkpt lat="44.69096" lon="6.04012">
        <ele>1067.8</ele>
        <time>2021-06-26T07:23:08Z</time>
      </trkpt>
      <trkpt lat="44.69088" lon="6.03998">
        <ele>1068.4</ele>
        <time>2021-06-26T07:23:12Z</time>
      </trkpt>
      <trkpt lat="44.69084" lon="6.03991">
        <ele>1069</ele>
        <time>2021-06-26T07:23:14Z</time>
      </trkpt>
      <trkpt lat="44.69075" lon="6.03975">
        <ele>1070.2</ele>
        <time>2021-06-26T07:23:19Z</time>
      </trkpt>
      <trkpt lat="44.69066" lon="6.03958">
        <ele>1071</ele>
        <time>2021-06-26T07:23:24Z</time>
      </trkpt>
      <trkpt lat="44.6906" lon="6.03948">
        <ele>1071.4</ele>
        <time>2021-06-26T07:23:27Z</time>
      </trkpt>
      <trkpt lat="44.69048" lon="6.0393">
        <ele>1072.6</ele>
        <time>2021-06-26T07:23:33Z</time>
      </trkpt>
      <trkpt lat="44.69031" lon="6.03917">
        <ele>1073.8</ele>
        <time>2021-06-26T07:23:40Z</time>
      </trkpt>
      <trkpt lat="44.69025" lon="6.03914">
        <ele>1074.4</ele>
        <time>2021-06-26T07:23:42Z</time>
      </trkpt>
      <trkpt lat="44.6902" lon="6.03912">
        <ele>1075</ele>
        <time>2021-06-26T07:23:44Z</time>
      </trkpt>
      <trkpt lat="44.69007" lon="6.03902">
        <ele>1076</ele>
        <time>2021-06-26T07:23:49Z</time>
      </trkpt>
      <trkpt lat="44.69004" lon="6.039">
        <ele>1076.2</ele>
        <time>2021-06-26T07:23:50Z</time>
      </trkpt>
      <trkpt lat="44.68997" lon="6.03889">
        <ele>1077.4</ele>
        <time>2021-06-26T07:23:54Z</time>
      </trkpt>
      <trkpt lat="44.6899" lon="6.03876">
        <ele>1078</ele>
        <time>2021-06-26T07:23:58Z</time>
      </trkpt>
      <trkpt lat="44.68986" lon="6.03865">
        <ele>1078.6</ele>
        <time>2021-06-26T07:24:01Z</time>
      </trkpt>
      <trkpt lat="44.6898" lon="6.03842">
        <ele>1079.8</ele>
        <time>2021-06-26T07:24:07Z</time>
      </trkpt>
      <trkpt lat="44.68978" lon="6.03835">
        <ele>1080</ele>
        <time>2021-06-26T07:24:09Z</time>
      </trkpt>
      <trkpt lat="44.68974" lon="6.03818">
        <ele>1081</ele>
        <time>2021-06-26T07:24:14Z</time>
      </trkpt>
      <trkpt lat="44.68971" lon="6.03801">
        <ele>1082.6</ele>
        <time>2021-06-26T07:24:19Z</time>
      </trkpt>
      <trkpt lat="44.68968" lon="6.03786">
        <ele>1083.6</ele>
        <time>2021-06-26T07:24:23Z</time>
      </trkpt>
      <trkpt lat="44.68963" lon="6.03767">
        <ele>1084.8</ele>
        <time>2021-06-26T07:24:28Z</time>
      </trkpt>
      <trkpt lat="44.68959" lon="6.03753">
        <ele>1085.8</ele>
        <time>2021-06-26T07:24:32Z</time>
      </trkpt>
      <trkpt lat="44.68957" lon="6.03735">
        <ele>1086.8</ele>
        <time>2021-06-26T07:24:37Z</time>
      </trkpt>
      <trkpt lat="44.68956" lon="6.03731">
        <ele>1086.8</ele>
        <time>2021-06-26T07:24:38Z</time>
      </trkpt>
      <trkpt lat="44.68954" lon="6.03709">
        <ele>1088</ele>
        <time>2021-06-26T07:24:44Z</time>
      </trkpt>
      <trkpt lat="44.68954" lon="6.03695">
        <ele>1089</ele>
        <time>2021-06-26T07:24:48Z</time>
      </trkpt>
      <trkpt lat="44.68954" lon="6.03692">
        <ele>1089.4</ele>
        <time>2021-06-26T07:24:49Z</time>
      </trkpt>
      <trkpt lat="44.68952" lon="6.03673">
        <ele>1090.4</ele>
        <time>2021-06-26T07:24:54Z</time>
      </trkpt>
      <trkpt lat="44.68949" lon="6.03662">
        <ele>1091.4</ele>
        <time>2021-06-26T07:24:57Z</time>
      </trkpt>
      <trkpt lat="44.68947" lon="6.03659">
        <ele>1091.6</ele>
        <time>2021-06-26T07:24:58Z</time>
      </trkpt>
      <trkpt lat="44.68939" lon="6.03648">
        <ele>1092.4</ele>
        <time>2021-06-26T07:25:02Z</time>
      </trkpt>
      <trkpt lat="44.68934" lon="6.03644">
        <ele>1092.6</ele>
        <time>2021-06-26T07:25:04Z</time>
      </trkpt>
      <trkpt lat="44.68917" lon="6.03637">
        <ele>1093.4</ele>
        <time>2021-06-26T07:25:10Z</time>
      </trkpt>
      <trkpt lat="44.68912" lon="6.03635">
        <ele>1093.8</ele>
        <time>2021-06-26T07:25:12Z</time>
      </trkpt>
      <trkpt lat="44.6891" lon="6.03634">
        <ele>1094</ele>
        <time>2021-06-26T07:25:13Z</time>
      </trkpt>
      <trkpt lat="44.68905" lon="6.03632">
        <ele>1094.8</ele>
        <time>2021-06-26T07:25:15Z</time>
      </trkpt>
      <trkpt lat="44.68889" lon="6.03627">
        <ele>1096</ele>
        <time>2021-06-26T07:25:21Z</time>
      </trkpt>
      <trkpt lat="44.68884" lon="6.03624">
        <ele>1096.6</ele>
        <time>2021-06-26T07:25:23Z</time>
      </trkpt>
      <trkpt lat="44.68876" lon="6.03619">
        <ele>1097.2</ele>
        <time>2021-06-26T07:25:26Z</time>
      </trkpt>
      <trkpt lat="44.68862" lon="6.03609">
        <ele>1098.4</ele>
        <time>2021-06-26T07:25:32Z</time>
      </trkpt>
      <trkpt lat="44.68854" lon="6.03603">
        <ele>1099.6</ele>
        <time>2021-06-26T07:25:36Z</time>
      </trkpt>
      <trkpt lat="44.68846" lon="6.03594">
        <ele>1100.6</ele>
        <time>2021-06-26T07:25:40Z</time>
      </trkpt>
      <trkpt lat="44.68838" lon="6.03584">
        <ele>1101.2</ele>
        <time>2021-06-26T07:25:44Z</time>
      </trkpt>
      <trkpt lat="44.68836" lon="6.03582">
        <ele>1101.6</ele>
        <time>2021-06-26T07:25:45Z</time>
      </trkpt>
      <trkpt lat="44.68829" lon="6.0357">
        <ele>1102.8</ele>
        <time>2021-06-26T07:25:49Z</time>
      </trkpt>
      <trkpt lat="44.68824" lon="6.03561">
        <ele>1103.2</ele>
        <time>2021-06-26T07:25:52Z</time>
      </trkpt>
      <trkpt lat="44.68821" lon="6.0355">
        <ele>1103.8</ele>
        <time>2021-06-26T07:25:55Z</time>
      </trkpt>
      <trkpt lat="44.6882" lon="6.03537">
        <ele>1104.4</ele>
        <time>2021-06-26T07:25:58Z</time>
      </trkpt>
      <trkpt lat="44.68822" lon="6.03507">
        <ele>1104.6</ele>
        <time>2021-06-26T07:26:04Z</time>
      </trkpt>
      <trkpt lat="44.68828" lon="6.0347">
        <ele>1104.4</ele>
        <time>2021-06-26T07:26:10Z</time>
      </trkpt>
      <trkpt lat="44.68829" lon="6.03462">
        <ele>1104.2</ele>
        <time>2021-06-26T07:26:11Z</time>
      </trkpt>
      <trkpt lat="44.68837" lon="6.03436">
        <ele>1103.8</ele>
        <time>2021-06-26T07:26:14Z</time>
      </trkpt>
      <trkpt lat="44.68845" lon="6.03418">
        <ele>1102.6</ele>
        <time>2021-06-26T07:26:16Z</time>
      </trkpt>
      <trkpt lat="44.68855" lon="6.0339">
        <ele>1104.2</ele>
        <time>2021-06-26T07:26:19Z</time>
      </trkpt>
      <trkpt lat="44.68863" lon="6.03377">
        <ele>1101.6</ele>
        <time>2021-06-26T07:26:21Z</time>
      </trkpt>
      <trkpt lat="44.6887" lon="6.03366">
        <ele>1101.4</ele>
        <time>2021-06-26T07:26:23Z</time>
      </trkpt>
      <trkpt lat="44.68876" lon="6.03357">
        <ele>1101.4</ele>
        <time>2021-06-26T07:26:25Z</time>
      </trkpt>
      <trkpt lat="44.68883" lon="6.03343">
        <ele>1101.4</ele>
        <time>2021-06-26T07:26:28Z</time>
      </trkpt>
      <trkpt lat="44.68884" lon="6.03338">
        <ele>1102.2</ele>
        <time>2021-06-26T07:26:29Z</time>
      </trkpt>
      <trkpt lat="44.68887" lon="6.03328">
        <ele>1103</ele>
        <time>2021-06-26T07:26:31Z</time>
      </trkpt>
      <trkpt lat="44.68888" lon="6.03322">
        <ele>1103.2</ele>
        <time>2021-06-26T07:26:32Z</time>
      </trkpt>
      <trkpt lat="44.68894" lon="6.03312">
        <ele>1104.2</ele>
        <time>2021-06-26T07:26:35Z</time>
      </trkpt>
      <trkpt lat="44.68896" lon="6.03296">
        <ele>1105</ele>
        <time>2021-06-26T07:26:38Z</time>
      </trkpt>
      <trkpt lat="44.68898" lon="6.0329">
        <ele>1105.2</ele>
        <time>2021-06-26T07:26:39Z</time>
      </trkpt>
      <trkpt lat="44.68905" lon="6.03265">
        <ele>1105.6</ele>
        <time>2021-06-26T07:26:43Z</time>
      </trkpt>
      <trkpt lat="44.68917" lon="6.03227">
        <ele>1105.4</ele>
        <time>2021-06-26T07:26:48Z</time>
      </trkpt>
      <trkpt lat="44.6892" lon="6.03221">
        <ele>1105</ele>
        <time>2021-06-26T07:26:49Z</time>
      </trkpt>
      <trkpt lat="44.68934" lon="6.03184">
        <ele>1103.6</ele>
        <time>2021-06-26T07:26:54Z</time>
      </trkpt>
      <trkpt lat="44.68936" lon="6.03176">
        <ele>1103</ele>
        <time>2021-06-26T07:26:55Z</time>
      </trkpt>
      <trkpt lat="44.68939" lon="6.03166">
        <ele>1102.2</ele>
        <time>2021-06-26T07:26:56Z</time>
      </trkpt>
      <trkpt lat="44.68945" lon="6.03139">
        <ele>1101.2</ele>
        <time>2021-06-26T07:26:59Z</time>
      </trkpt>
      <trkpt lat="44.68948" lon="6.0313">
        <ele>1101.2</ele>
        <time>2021-06-26T07:27:00Z</time>
      </trkpt>
      <trkpt lat="44.68954" lon="6.031">
        <ele>1099.6</ele>
        <time>2021-06-26T07:27:03Z</time>
      </trkpt>
      <trkpt lat="44.68955" lon="6.03084">
        <ele>1099.2</ele>
        <time>2021-06-26T07:27:05Z</time>
      </trkpt>
      <trkpt lat="44.6896" lon="6.03043">
        <ele>1099.2</ele>
        <time>2021-06-26T07:27:10Z</time>
      </trkpt>
      <trkpt lat="44.68964" lon="6.03022">
        <ele>1099.8</ele>
        <time>2021-06-26T07:27:13Z</time>
      </trkpt>
      <trkpt lat="44.68966" lon="6.03008">
        <ele>1100</ele>
        <time>2021-06-26T07:27:15Z</time>
      </trkpt>
      <trkpt lat="44.68968" lon="6.02988">
        <ele>1100.2</ele>
        <time>2021-06-26T07:27:18Z</time>
      </trkpt>
      <trkpt lat="44.68968" lon="6.02982">
        <ele>1100.6</ele>
        <time>2021-06-26T07:27:19Z</time>
      </trkpt>
      <trkpt lat="44.68968" lon="6.02948">
        <ele>1102</ele>
        <time>2021-06-26T07:27:26Z</time>
      </trkpt>
      <trkpt lat="44.68965" lon="6.02922">
        <ele>1102.6</ele>
        <time>2021-06-26T07:27:32Z</time>
      </trkpt>
      <trkpt lat="44.68967" lon="6.0291">
        <ele>1102.8</ele>
        <time>2021-06-26T07:27:34Z</time>
      </trkpt>
      <trkpt lat="44.68971" lon="6.02888">
        <ele>1103</ele>
        <time>2021-06-26T07:27:38Z</time>
      </trkpt>
      <trkpt lat="44.68981" lon="6.02832">
        <ele>1103.6</ele>
        <time>2021-06-26T07:27:47Z</time>
      </trkpt>
      <trkpt lat="44.68982" lon="6.02824">
        <ele>1103.6</ele>
        <time>2021-06-26T07:27:48Z</time>
      </trkpt>
      <trkpt lat="44.68984" lon="6.02812">
        <ele>1103.6</ele>
        <time>2021-06-26T07:27:50Z</time>
      </trkpt>
      <trkpt lat="44.68986" lon="6.02798">
        <ele>1103.6</ele>
        <time>2021-06-26T07:27:52Z</time>
      </trkpt>
      <trkpt lat="44.68993" lon="6.02733">
        <ele>1103.6</ele>
        <time>2021-06-26T07:28:01Z</time>
      </trkpt>
      <trkpt lat="44.69002" lon="6.02686">
        <ele>1103.8</ele>
        <time>2021-06-26T07:28:08Z</time>
      </trkpt>
      <trkpt lat="44.69004" lon="6.02678">
        <ele>1103.8</ele>
        <time>2021-06-26T07:28:09Z</time>
      </trkpt>
      <trkpt lat="44.69013" lon="6.02624">
        <ele>1104</ele>
        <time>2021-06-26T07:28:17Z</time>
      </trkpt>
      <trkpt lat="44.69013" lon="6.02592">
        <ele>1104.4</ele>
        <time>2021-06-26T07:28:22Z</time>
      </trkpt>
      <trkpt lat="44.69013" lon="6.02586">
        <ele>1104.4</ele>
        <time>2021-06-26T07:28:23Z</time>
      </trkpt>
      <trkpt lat="44.69012" lon="6.02561">
        <ele>1104.8</ele>
        <time>2021-06-26T07:28:27Z</time>
      </trkpt>
      <trkpt lat="44.69011" lon="6.02536">
        <ele>1105.4</ele>
        <time>2021-06-26T07:28:31Z</time>
      </trkpt>
      <trkpt lat="44.69011" lon="6.02529">
        <ele>1105.6</ele>
        <time>2021-06-26T07:28:32Z</time>
      </trkpt>
      <trkpt lat="44.6901" lon="6.02518">
        <ele>1105.8</ele>
        <time>2021-06-26T07:28:34Z</time>
      </trkpt>
      <trkpt lat="44.69011" lon="6.02512">
        <ele>1106</ele>
        <time>2021-06-26T07:28:35Z</time>
      </trkpt>
      <trkpt lat="44.6901" lon="6.02506">
        <ele>1106.2</ele>
        <time>2021-06-26T07:28:36Z</time>
      </trkpt>
      <trkpt lat="44.69008" lon="6.02501">
        <ele>1106.2</ele>
        <time>2021-06-26T07:28:37Z</time>
      </trkpt>
      <trkpt lat="44.69004" lon="6.02473">
        <ele>1107</ele>
        <time>2021-06-26T07:28:42Z</time>
      </trkpt>
      <trkpt lat="44.69002" lon="6.02456">
        <ele>1107.6</ele>
        <time>2021-06-26T07:28:45Z</time>
      </trkpt>
      <trkpt lat="44.69001" lon="6.02444">
        <ele>1108.2</ele>
        <time>2021-06-26T07:28:47Z</time>
      </trkpt>
      <trkpt lat="44.68997" lon="6.02412">
        <ele>1109.4</ele>
        <time>2021-06-26T07:28:52Z</time>
      </trkpt>
      <trkpt lat="44.68996" lon="6.024">
        <ele>1109.6</ele>
        <time>2021-06-26T07:28:54Z</time>
      </trkpt>
      <trkpt lat="44.68992" lon="6.02368">
        <ele>1110.2</ele>
        <time>2021-06-26T07:28:59Z</time>
      </trkpt>
      <trkpt lat="44.68992" lon="6.02362">
        <ele>1110.4</ele>
        <time>2021-06-26T07:29:00Z</time>
      </trkpt>
      <trkpt lat="44.68989" lon="6.02351">
        <ele>1110.8</ele>
        <time>2021-06-26T07:29:02Z</time>
      </trkpt>
      <trkpt lat="44.68985" lon="6.0234">
        <ele>1111.4</ele>
        <time>2021-06-26T07:29:04Z</time>
      </trkpt>
      <trkpt lat="44.68981" lon="6.02334">
        <ele>1111.4</ele>
        <time>2021-06-26T07:29:05Z</time>
      </trkpt>
      <trkpt lat="44.68976" lon="6.02325">
        <ele>1111.6</ele>
        <time>2021-06-26T07:29:07Z</time>
      </trkpt>
      <trkpt lat="44.68942" lon="6.02272">
        <ele>1111.8</ele>
        <time>2021-06-26T07:29:18Z</time>
      </trkpt>
      <trkpt lat="44.68933" lon="6.02256">
        <ele>1112.6</ele>
        <time>2021-06-26T07:29:22Z</time>
      </trkpt>
      <trkpt lat="44.68919" lon="6.02229">
        <ele>1113.6</ele>
        <time>2021-06-26T07:29:28Z</time>
      </trkpt>
      <trkpt lat="44.68917" lon="6.02225">
        <ele>1113.8</ele>
        <time>2021-06-26T07:29:29Z</time>
      </trkpt>
      <trkpt lat="44.68906" lon="6.02198">
        <ele>1115</ele>
        <time>2021-06-26T07:29:35Z</time>
      </trkpt>
      <trkpt lat="44.68899" lon="6.0218">
        <ele>1116</ele>
        <time>2021-06-26T07:29:39Z</time>
      </trkpt>
      <trkpt lat="44.68895" lon="6.02171">
        <ele>1117.2</ele>
        <time>2021-06-26T07:29:41Z</time>
      </trkpt>
      <trkpt lat="44.68888" lon="6.02159">
        <ele>1118</ele>
        <time>2021-06-26T07:29:44Z</time>
      </trkpt>
      <trkpt lat="44.68875" lon="6.02144">
        <ele>1118.4</ele>
        <time>2021-06-26T07:29:48Z</time>
      </trkpt>
      <trkpt lat="44.68868" lon="6.02139">
        <ele>1118.6</ele>
        <time>2021-06-26T07:29:50Z</time>
      </trkpt>
      <trkpt lat="44.68848" lon="6.02132">
        <ele>1119.6</ele>
        <time>2021-06-26T07:29:55Z</time>
      </trkpt>
      <trkpt lat="44.68839" lon="6.02132">
        <ele>1119.8</ele>
        <time>2021-06-26T07:29:57Z</time>
      </trkpt>
      <trkpt lat="44.68798" lon="6.02135">
        <ele>1120.2</ele>
        <time>2021-06-26T07:30:06Z</time>
      </trkpt>
      <trkpt lat="44.68761" lon="6.02135">
        <ele>1120.6</ele>
        <time>2021-06-26T07:30:14Z</time>
      </trkpt>
      <trkpt lat="44.68756" lon="6.02135">
        <ele>1120.4</ele>
        <time>2021-06-26T07:30:15Z</time>
      </trkpt>
      <trkpt lat="44.68708" lon="6.02131">
        <ele>1121.2</ele>
        <time>2021-06-26T07:30:25Z</time>
      </trkpt>
      <trkpt lat="44.68699" lon="6.0213">
        <ele>1121.4</ele>
        <time>2021-06-26T07:30:27Z</time>
      </trkpt>
      <trkpt lat="44.6867" lon="6.02127">
        <ele>1122</ele>
        <time>2021-06-26T07:30:33Z</time>
      </trkpt>
      <trkpt lat="44.6865" lon="6.02123">
        <ele>1122.4</ele>
        <time>2021-06-26T07:30:37Z</time>
      </trkpt>
      <trkpt lat="44.68627" lon="6.02118">
        <ele>1123.4</ele>
        <time>2021-06-26T07:30:42Z</time>
      </trkpt>
      <trkpt lat="44.68606" lon="6.02112">
        <ele>1123.8</ele>
        <time>2021-06-26T07:30:46Z</time>
      </trkpt>
      <trkpt lat="44.68554" lon="6.02101">
        <ele>1124.4</ele>
        <time>2021-06-26T07:30:56Z</time>
      </trkpt>
      <trkpt lat="44.68548" lon="6.021">
        <ele>1124.2</ele>
        <time>2021-06-26T07:30:57Z</time>
      </trkpt>
      <trkpt lat="44.68508" lon="6.02107">
        <ele>1124.2</ele>
        <time>2021-06-26T07:31:04Z</time>
      </trkpt>
      <trkpt lat="44.68461" lon="6.02127">
        <ele>1124.4</ele>
        <time>2021-06-26T07:31:13Z</time>
      </trkpt>
      <trkpt lat="44.6845" lon="6.02131">
        <ele>1124.6</ele>
        <time>2021-06-26T07:31:15Z</time>
      </trkpt>
      <trkpt lat="44.68433" lon="6.02132">
        <ele>1124.8</ele>
        <time>2021-06-26T07:31:18Z</time>
      </trkpt>
      <trkpt lat="44.68424" lon="6.0213">
        <ele>1124.8</ele>
        <time>2021-06-26T07:31:20Z</time>
      </trkpt>
      <trkpt lat="44.68415" lon="6.02125">
        <ele>1125.2</ele>
        <time>2021-06-26T07:31:22Z</time>
      </trkpt>
      <trkpt lat="44.68411" lon="6.02121">
        <ele>1125.4</ele>
        <time>2021-06-26T07:31:23Z</time>
      </trkpt>
      <trkpt lat="44.68407" lon="6.02116">
        <ele>1125.8</ele>
        <time>2021-06-26T07:31:24Z</time>
      </trkpt>
      <trkpt lat="44.684" lon="6.02106">
        <ele>1126.4</ele>
        <time>2021-06-26T07:31:26Z</time>
      </trkpt>
      <trkpt lat="44.68398" lon="6.021">
        <ele>1126.6</ele>
        <time>2021-06-26T07:31:27Z</time>
      </trkpt>
      <trkpt lat="44.68396" lon="6.02094">
        <ele>1126.8</ele>
        <time>2021-06-26T07:31:28Z</time>
      </trkpt>
      <trkpt lat="44.6839" lon="6.0206">
        <ele>1127.6</ele>
        <time>2021-06-26T07:31:33Z</time>
      </trkpt>
      <trkpt lat="44.68387" lon="6.02041">
        <ele>1128</ele>
        <time>2021-06-26T07:31:36Z</time>
      </trkpt>
      <trkpt lat="44.68384" lon="6.02025">
        <ele>1128.4</ele>
        <time>2021-06-26T07:31:38Z</time>
      </trkpt>
      <trkpt lat="44.68379" lon="6.02005">
        <ele>1128.8</ele>
        <time>2021-06-26T07:31:41Z</time>
      </trkpt>
      <trkpt lat="44.68366" lon="6.01957">
        <ele>1128.6</ele>
        <time>2021-06-26T07:31:47Z</time>
      </trkpt>
      <trkpt lat="44.68362" lon="6.01907">
        <ele>1127.2</ele>
        <time>2021-06-26T07:31:52Z</time>
      </trkpt>
      <trkpt lat="44.68363" lon="6.01898">
        <ele>1126.8</ele>
        <time>2021-06-26T07:31:53Z</time>
      </trkpt>
      <trkpt lat="44.6837" lon="6.01853">
        <ele>1126.2</ele>
        <time>2021-06-26T07:31:58Z</time>
      </trkpt>
      <trkpt lat="44.6838" lon="6.01811">
        <ele>1126.6</ele>
        <time>2021-06-26T07:32:04Z</time>
      </trkpt>
      <trkpt lat="44.68392" lon="6.0175">
        <ele>1127.6</ele>
        <time>2021-06-26T07:32:13Z</time>
      </trkpt>
      <trkpt lat="44.68393" lon="6.01744">
        <ele>1127.8</ele>
        <time>2021-06-26T07:32:14Z</time>
      </trkpt>
      <trkpt lat="44.68404" lon="6.01697">
        <ele>1128.6</ele>
        <time>2021-06-26T07:32:21Z</time>
      </trkpt>
      <trkpt lat="44.68406" lon="6.01683">
        <ele>1128.8</ele>
        <time>2021-06-26T07:32:23Z</time>
      </trkpt>
      <trkpt lat="44.68421" lon="6.01607">
        <ele>1129.6</ele>
        <time>2021-06-26T07:32:34Z</time>
      </trkpt>
      <trkpt lat="44.68429" lon="6.01545">
        <ele>1129.6</ele>
        <time>2021-06-26T07:32:42Z</time>
      </trkpt>
      <trkpt lat="44.68426" lon="6.0148">
        <ele>1129</ele>
        <time>2021-06-26T07:32:50Z</time>
      </trkpt>
      <trkpt lat="44.68424" lon="6.01462">
        <ele>1128.6</ele>
        <time>2021-06-26T07:32:52Z</time>
      </trkpt>
      <trkpt lat="44.68415" lon="6.01422">
        <ele>1127.6</ele>
        <time>2021-06-26T07:32:56Z</time>
      </trkpt>
      <trkpt lat="44.68399" lon="6.01371">
        <ele>1126.4</ele>
        <time>2021-06-26T07:33:01Z</time>
      </trkpt>
      <trkpt lat="44.68389" lon="6.01339">
        <ele>1125</ele>
        <time>2021-06-26T07:33:04Z</time>
      </trkpt>
      <trkpt lat="44.68384" lon="6.01319">
        <ele>1124.2</ele>
        <time>2021-06-26T07:33:06Z</time>
      </trkpt>
      <trkpt lat="44.68383" lon="6.01307">
        <ele>1123.8</ele>
        <time>2021-06-26T07:33:07Z</time>
      </trkpt>
      <trkpt lat="44.68384" lon="6.01299">
        <ele>1123.6</ele>
        <time>2021-06-26T07:33:08Z</time>
      </trkpt>
      <trkpt lat="44.68389" lon="6.01282">
        <ele>1123.4</ele>
        <time>2021-06-26T07:33:10Z</time>
      </trkpt>
      <trkpt lat="44.68402" lon="6.01257">
        <ele>1123.6</ele>
        <time>2021-06-26T07:33:14Z</time>
      </trkpt>
      <trkpt lat="44.68406" lon="6.01252">
        <ele>1123.8</ele>
        <time>2021-06-26T07:33:15Z</time>
      </trkpt>
      <trkpt lat="44.68409" lon="6.01248">
        <ele>1124</ele>
        <time>2021-06-26T07:33:16Z</time>
      </trkpt>
      <trkpt lat="44.6842" lon="6.01241">
        <ele>1124.8</ele>
        <time>2021-06-26T07:33:19Z</time>
      </trkpt>
      <trkpt lat="44.68436" lon="6.01235">
        <ele>1126.2</ele>
        <time>2021-06-26T07:33:23Z</time>
      </trkpt>
      <trkpt lat="44.68441" lon="6.01233">
        <ele>1126.8</ele>
        <time>2021-06-26T07:33:25Z</time>
      </trkpt>
      <trkpt lat="44.68448" lon="6.01231">
        <ele>1127.4</ele>
        <time>2021-06-26T07:33:27Z</time>
      </trkpt>
      <trkpt lat="44.6846" lon="6.0123">
        <ele>1128.6</ele>
        <time>2021-06-26T07:33:30Z</time>
      </trkpt>
      <trkpt lat="44.68486" lon="6.01233">
        <ele>1129.8</ele>
        <time>2021-06-26T07:33:36Z</time>
      </trkpt>
      <trkpt lat="44.6849" lon="6.01233">
        <ele>1130</ele>
        <time>2021-06-26T07:33:37Z</time>
      </trkpt>
      <trkpt lat="44.68506" lon="6.01237">
        <ele>1130.8</ele>
        <time>2021-06-26T07:33:41Z</time>
      </trkpt>
      <trkpt lat="44.68518" lon="6.01242">
        <ele>1131</ele>
        <time>2021-06-26T07:33:44Z</time>
      </trkpt>
      <trkpt lat="44.68552" lon="6.01256">
        <ele>1130.6</ele>
        <time>2021-06-26T07:33:51Z</time>
      </trkpt>
      <trkpt lat="44.68578" lon="6.01266">
        <ele>1129.4</ele>
        <time>2021-06-26T07:33:55Z</time>
      </trkpt>
      <trkpt lat="44.68592" lon="6.01271">
        <ele>1129</ele>
        <time>2021-06-26T07:33:57Z</time>
      </trkpt>
      <trkpt lat="44.68608" lon="6.01275">
        <ele>1128.4</ele>
        <time>2021-06-26T07:33:59Z</time>
      </trkpt>
      <trkpt lat="44.68616" lon="6.01276">
        <ele>1127.4</ele>
        <time>2021-06-26T07:34:00Z</time>
      </trkpt>
      <trkpt lat="44.68633" lon="6.01277">
        <ele>1126.8</ele>
        <time>2021-06-26T07:34:02Z</time>
      </trkpt>
      <trkpt lat="44.68651" lon="6.01276">
        <ele>1126.2</ele>
        <time>2021-06-26T07:34:04Z</time>
      </trkpt>
      <trkpt lat="44.68669" lon="6.0127">
        <ele>1125.6</ele>
        <time>2021-06-26T07:34:06Z</time>
      </trkpt>
      <trkpt lat="44.68678" lon="6.01266">
        <ele>1125.2</ele>
        <time>2021-06-26T07:34:07Z</time>
      </trkpt>
      <trkpt lat="44.68703" lon="6.0125">
        <ele>1123.8</ele>
        <time>2021-06-26T07:34:10Z</time>
      </trkpt>
      <trkpt lat="44.68719" lon="6.01238">
        <ele>1123</ele>
        <time>2021-06-26T07:34:12Z</time>
      </trkpt>
      <trkpt lat="44.68733" lon="6.01227">
        <ele>1122.8</ele>
        <time>2021-06-26T07:34:14Z</time>
      </trkpt>
      <trkpt lat="44.68745" lon="6.01214">
        <ele>1122.8</ele>
        <time>2021-06-26T07:34:16Z</time>
      </trkpt>
      <trkpt lat="44.68765" lon="6.01185">
        <ele>1123.2</ele>
        <time>2021-06-26T07:34:21Z</time>
      </trkpt>
      <trkpt lat="44.68775" lon="6.01165">
        <ele>1124.2</ele>
        <time>2021-06-26T07:34:25Z</time>
      </trkpt>
      <trkpt lat="44.68777" lon="6.01161">
        <ele>1124.8</ele>
        <time>2021-06-26T07:34:26Z</time>
      </trkpt>
      <trkpt lat="44.68779" lon="6.01156">
        <ele>1125.2</ele>
        <time>2021-06-26T07:34:27Z</time>
      </trkpt>
      <trkpt lat="44.6878" lon="6.01152">
        <ele>1126</ele>
        <time>2021-06-26T07:34:28Z</time>
      </trkpt>
      <trkpt lat="44.68783" lon="6.01143">
        <ele>1126.6</ele>
        <time>2021-06-26T07:34:30Z</time>
      </trkpt>
      <trkpt lat="44.68786" lon="6.01135">
        <ele>1127</ele>
        <time>2021-06-26T07:34:32Z</time>
      </trkpt>
      <trkpt lat="44.68787" lon="6.0113">
        <ele>1127.6</ele>
        <time>2021-06-26T07:34:33Z</time>
      </trkpt>
      <trkpt lat="44.68792" lon="6.01109">
        <ele>1128.8</ele>
        <time>2021-06-26T07:34:38Z</time>
      </trkpt>
      <trkpt lat="44.68795" lon="6.01096">
        <ele>1130.2</ele>
        <time>2021-06-26T07:34:41Z</time>
      </trkpt>
      <trkpt lat="44.68798" lon="6.01075">
        <ele>1131.2</ele>
        <time>2021-06-26T07:34:46Z</time>
      </trkpt>
      <trkpt lat="44.68798" lon="6.01071">
        <ele>1131.2</ele>
        <time>2021-06-26T07:34:47Z</time>
      </trkpt>
      <trkpt lat="44.688" lon="6.01054">
        <ele>1132.6</ele>
        <time>2021-06-26T07:34:51Z</time>
      </trkpt>
      <trkpt lat="44.68803" lon="6.01042">
        <ele>1133.2</ele>
        <time>2021-06-26T07:34:54Z</time>
      </trkpt>
      <trkpt lat="44.68803" lon="6.01038">
        <ele>1133.8</ele>
        <time>2021-06-26T07:34:55Z</time>
      </trkpt>
      <trkpt lat="44.68807" lon="6.01017">
        <ele>1135</ele>
        <time>2021-06-26T07:35:00Z</time>
      </trkpt>
      <trkpt lat="44.6881" lon="6.01006">
        <ele>1135.6</ele>
        <time>2021-06-26T07:35:03Z</time>
      </trkpt>
      <trkpt lat="44.68811" lon="6.01001">
        <ele>1135.8</ele>
        <time>2021-06-26T07:35:04Z</time>
      </trkpt>
      <trkpt lat="44.68818" lon="6.00986">
        <ele>1136.8</ele>
        <time>2021-06-26T07:35:08Z</time>
      </trkpt>
      <trkpt lat="44.68826" lon="6.00979">
        <ele>1137.4</ele>
        <time>2021-06-26T07:35:11Z</time>
      </trkpt>
      <trkpt lat="44.68832" lon="6.00976">
        <ele>1137.8</ele>
        <time>2021-06-26T07:35:13Z</time>
      </trkpt>
      <trkpt lat="44.68851" lon="6.0097">
        <ele>1138.8</ele>
        <time>2021-06-26T07:35:19Z</time>
      </trkpt>
      <trkpt lat="44.68858" lon="6.00968">
        <ele>1139</ele>
        <time>2021-06-26T07:35:21Z</time>
      </trkpt>
      <trkpt lat="44.68882" lon="6.00959">
        <ele>1140</ele>
        <time>2021-06-26T07:35:28Z</time>
      </trkpt>
      <trkpt lat="44.6889" lon="6.00957">
        <ele>1140.4</ele>
        <time>2021-06-26T07:35:30Z</time>
      </trkpt>
      <trkpt lat="44.68908" lon="6.00955">
        <ele>1141.2</ele>
        <time>2021-06-26T07:35:35Z</time>
      </trkpt>
      <trkpt lat="44.68916" lon="6.00956">
        <ele>1141.2</ele>
        <time>2021-06-26T07:35:37Z</time>
      </trkpt>
      <trkpt lat="44.68937" lon="6.00962">
        <ele>1141.8</ele>
        <time>2021-06-26T07:35:42Z</time>
      </trkpt>
      <trkpt lat="44.68946" lon="6.00966">
        <ele>1141.8</ele>
        <time>2021-06-26T07:35:44Z</time>
      </trkpt>
      <trkpt lat="44.68978" lon="6.00987">
        <ele>1141.4</ele>
        <time>2021-06-26T07:35:51Z</time>
      </trkpt>
      <trkpt lat="44.6901" lon="6.01007">
        <ele>1140</ele>
        <time>2021-06-26T07:35:56Z</time>
      </trkpt>
      <trkpt lat="44.69017" lon="6.01013">
        <ele>1139.8</ele>
        <time>2021-06-26T07:35:57Z</time>
      </trkpt>
      <trkpt lat="44.69031" lon="6.01029">
        <ele>1138.8</ele>
        <time>2021-06-26T07:35:59Z</time>
      </trkpt>
      <trkpt lat="44.69036" lon="6.01041">
        <ele>1138.6</ele>
        <time>2021-06-26T07:36:00Z</time>
      </trkpt>
      <trkpt lat="44.69046" lon="6.01066">
        <ele>1137.2</ele>
        <time>2021-06-26T07:36:02Z</time>
      </trkpt>
      <trkpt lat="44.6905" lon="6.01079">
        <ele>1135.6</ele>
        <time>2021-06-26T07:36:03Z</time>
      </trkpt>
      <trkpt lat="44.6906" lon="6.01103">
        <ele>1133.6</ele>
        <time>2021-06-26T07:36:05Z</time>
      </trkpt>
      <trkpt lat="44.69072" lon="6.01126">
        <ele>1132.2</ele>
        <time>2021-06-26T07:36:07Z</time>
      </trkpt>
      <trkpt lat="44.6909" lon="6.01161">
        <ele>1130.8</ele>
        <time>2021-06-26T07:36:10Z</time>
      </trkpt>
      <trkpt lat="44.69098" lon="6.01188">
        <ele>1130</ele>
        <time>2021-06-26T07:36:12Z</time>
      </trkpt>
      <trkpt lat="44.69101" lon="6.01202">
        <ele>1129.6</ele>
        <time>2021-06-26T07:36:13Z</time>
      </trkpt>
      <trkpt lat="44.69105" lon="6.01246">
        <ele>1128.2</ele>
        <time>2021-06-26T07:36:16Z</time>
      </trkpt>
      <trkpt lat="44.69109" lon="6.01291">
        <ele>1126.6</ele>
        <time>2021-06-26T07:36:19Z</time>
      </trkpt>
      <trkpt lat="44.69113" lon="6.01322">
        <ele>1125.2</ele>
        <time>2021-06-26T07:36:21Z</time>
      </trkpt>
      <trkpt lat="44.69122" lon="6.01367">
        <ele>1123.6</ele>
        <time>2021-06-26T07:36:24Z</time>
      </trkpt>
      <trkpt lat="44.69129" lon="6.01395">
        <ele>1122.4</ele>
        <time>2021-06-26T07:36:26Z</time>
      </trkpt>
      <trkpt lat="44.69142" lon="6.01432">
        <ele>1121.6</ele>
        <time>2021-06-26T07:36:29Z</time>
      </trkpt>
      <trkpt lat="44.69147" lon="6.01443">
        <ele>1121</ele>
        <time>2021-06-26T07:36:30Z</time>
      </trkpt>
      <trkpt lat="44.69163" lon="6.01473">
        <ele>1120.6</ele>
        <time>2021-06-26T07:36:33Z</time>
      </trkpt>
      <trkpt lat="44.69169" lon="6.01481">
        <ele>1120.6</ele>
        <time>2021-06-26T07:36:34Z</time>
      </trkpt>
      <trkpt lat="44.69194" lon="6.01509">
        <ele>1120.8</ele>
        <time>2021-06-26T07:36:38Z</time>
      </trkpt>
      <trkpt lat="44.69221" lon="6.01529">
        <ele>1121</ele>
        <time>2021-06-26T07:36:43Z</time>
      </trkpt>
      <trkpt lat="44.69244" lon="6.01539">
        <ele>1122.2</ele>
        <time>2021-06-26T07:36:48Z</time>
      </trkpt>
      <trkpt lat="44.69259" lon="6.01541">
        <ele>1123.4</ele>
        <time>2021-06-26T07:36:51Z</time>
      </trkpt>
      <trkpt lat="44.69268" lon="6.01542">
        <ele>1124</ele>
        <time>2021-06-26T07:36:53Z</time>
      </trkpt>
      <trkpt lat="44.69278" lon="6.01541">
        <ele>1124.2</ele>
        <time>2021-06-26T07:36:55Z</time>
      </trkpt>
      <trkpt lat="44.69308" lon="6.01538">
        <ele>1124</ele>
        <time>2021-06-26T07:37:01Z</time>
      </trkpt>
      <trkpt lat="44.69313" lon="6.01536">
        <ele>1124</ele>
        <time>2021-06-26T07:37:02Z</time>
      </trkpt>
      <trkpt lat="44.69353" lon="6.01519">
        <ele>1123.4</ele>
        <time>2021-06-26T07:37:10Z</time>
      </trkpt>
      <trkpt lat="44.69386" lon="6.01502">
        <ele>1122.6</ele>
        <time>2021-06-26T07:37:16Z</time>
      </trkpt>
      <trkpt lat="44.69392" lon="6.01499">
        <ele>1122.4</ele>
        <time>2021-06-26T07:37:17Z</time>
      </trkpt>
      <trkpt lat="44.69419" lon="6.01481">
        <ele>1122</ele>
        <time>2021-06-26T07:37:22Z</time>
      </trkpt>
      <trkpt lat="44.69429" lon="6.01472">
        <ele>1122</ele>
        <time>2021-06-26T07:37:24Z</time>
      </trkpt>
      <trkpt lat="44.69451" lon="6.01451">
        <ele>1121.6</ele>
        <time>2021-06-26T07:37:28Z</time>
      </trkpt>
      <trkpt lat="44.69458" lon="6.01442">
        <ele>1121.2</ele>
        <time>2021-06-26T07:37:29Z</time>
      </trkpt>
      <trkpt lat="44.69461" lon="6.01436">
        <ele>1121</ele>
        <time>2021-06-26T07:37:30Z</time>
      </trkpt>
      <trkpt lat="44.69467" lon="6.01418">
        <ele>1120.6</ele>
        <time>2021-06-26T07:37:32Z</time>
      </trkpt>
      <trkpt lat="44.6947" lon="6.01398">
        <ele>1120.2</ele>
        <time>2021-06-26T07:37:34Z</time>
      </trkpt>
      <trkpt lat="44.69471" lon="6.01378">
        <ele>1119.8</ele>
        <time>2021-06-26T07:37:36Z</time>
      </trkpt>
      <trkpt lat="44.69474" lon="6.01358">
        <ele>1119.6</ele>
        <time>2021-06-26T07:37:38Z</time>
      </trkpt>
      <trkpt lat="44.69479" lon="6.01343">
        <ele>1119.4</ele>
        <time>2021-06-26T07:37:40Z</time>
      </trkpt>
      <trkpt lat="44.69488" lon="6.01327">
        <ele>1119.4</ele>
        <time>2021-06-26T07:37:42Z</time>
      </trkpt>
      <trkpt lat="44.69496" lon="6.01317">
        <ele>1119.6</ele>
        <time>2021-06-26T07:37:44Z</time>
      </trkpt>
      <trkpt lat="44.69523" lon="6.01288">
        <ele>1120.4</ele>
        <time>2021-06-26T07:37:50Z</time>
      </trkpt>
      <trkpt lat="44.69549" lon="6.01259">
        <ele>1121.4</ele>
        <time>2021-06-26T07:37:57Z</time>
      </trkpt>
      <trkpt lat="44.69552" lon="6.01255">
        <ele>1121.4</ele>
        <time>2021-06-26T07:37:58Z</time>
      </trkpt>
      <trkpt lat="44.69572" lon="6.01235">
        <ele>1122.4</ele>
        <time>2021-06-26T07:38:04Z</time>
      </trkpt>
      <trkpt lat="44.69574" lon="6.01231">
        <ele>1122.6</ele>
        <time>2021-06-26T07:38:05Z</time>
      </trkpt>
      <trkpt lat="44.69576" lon="6.01218">
        <ele>1123.2</ele>
        <time>2021-06-26T07:38:08Z</time>
      </trkpt>
      <trkpt lat="44.69573" lon="6.01203">
        <ele>1123.6</ele>
        <time>2021-06-26T07:38:11Z</time>
      </trkpt>
      <trkpt lat="44.69569" lon="6.01192">
        <ele>1124.2</ele>
        <time>2021-06-26T07:38:14Z</time>
      </trkpt>
      <trkpt lat="44.69567" lon="6.01188">
        <ele>1124.6</ele>
        <time>2021-06-26T07:38:15Z</time>
      </trkpt>
      <trkpt lat="44.69563" lon="6.01175">
        <ele>1126</ele>
        <time>2021-06-26T07:38:19Z</time>
      </trkpt>
      <trkpt lat="44.69562" lon="6.01171">
        <ele>1126.2</ele>
        <time>2021-06-26T07:38:20Z</time>
      </trkpt>
      <trkpt lat="44.69557" lon="6.01158">
        <ele>1127.2</ele>
        <time>2021-06-26T07:38:24Z</time>
      </trkpt>
      <trkpt lat="44.69553" lon="6.01147">
        <ele>1128.2</ele>
        <time>2021-06-26T07:38:28Z</time>
      </trkpt>
      <trkpt lat="44.69552" lon="6.01144">
        <ele>1128.6</ele>
        <time>2021-06-26T07:38:29Z</time>
      </trkpt>
      <trkpt lat="44.69545" lon="6.01128">
        <ele>1129.6</ele>
        <time>2021-06-26T07:38:35Z</time>
      </trkpt>
      <trkpt lat="44.69543" lon="6.01122">
        <ele>1130.4</ele>
        <time>2021-06-26T07:38:37Z</time>
      </trkpt>
      <trkpt lat="44.69542" lon="6.01118">
        <ele>1130.8</ele>
        <time>2021-06-26T07:38:38Z</time>
      </trkpt>
      <trkpt lat="44.69542" lon="6.01105">
        <ele>1131.8</ele>
        <time>2021-06-26T07:38:42Z</time>
      </trkpt>
      <trkpt lat="44.69539" lon="6.01094">
        <ele>1132.8</ele>
        <time>2021-06-26T07:38:46Z</time>
      </trkpt>
      <trkpt lat="44.69535" lon="6.01088">
        <ele>1134</ele>
        <time>2021-06-26T07:38:48Z</time>
      </trkpt>
      <trkpt lat="44.69525" lon="6.01082">
        <ele>1135.2</ele>
        <time>2021-06-26T07:38:52Z</time>
      </trkpt>
      <trkpt lat="44.6952" lon="6.01083">
        <ele>1136</ele>
        <time>2021-06-26T07:38:54Z</time>
      </trkpt>
      <trkpt lat="44.69517" lon="6.01085">
        <ele>1136.2</ele>
        <time>2021-06-26T07:38:55Z</time>
      </trkpt>
      <trkpt lat="44.69509" lon="6.01089">
        <ele>1137.4</ele>
        <time>2021-06-26T07:38:58Z</time>
      </trkpt>
      <trkpt lat="44.69501" lon="6.01094">
        <ele>1137.8</ele>
        <time>2021-06-26T07:39:01Z</time>
      </trkpt>
      <trkpt lat="44.69494" lon="6.01096">
        <ele>1138.4</ele>
        <time>2021-06-26T07:39:04Z</time>
      </trkpt>
      <trkpt lat="44.69477" lon="6.01101">
        <ele>1139.4</ele>
        <time>2021-06-26T07:39:10Z</time>
      </trkpt>
      <trkpt lat="44.69475" lon="6.01102">
        <ele>1139.6</ele>
        <time>2021-06-26T07:39:11Z</time>
      </trkpt>
      <trkpt lat="44.69462" lon="6.011">
        <ele>1140.6</ele>
        <time>2021-06-26T07:39:16Z</time>
      </trkpt>
      <trkpt lat="44.69453" lon="6.01097">
        <ele>1141.6</ele>
        <time>2021-06-26T07:39:20Z</time>
      </trkpt>
      <trkpt lat="44.69445" lon="6.01093">
        <ele>1142.2</ele>
        <time>2021-06-26T07:39:23Z</time>
      </trkpt>
      <trkpt lat="44.69442" lon="6.01091">
        <ele>1142.6</ele>
        <time>2021-06-26T07:39:24Z</time>
      </trkpt>
      <trkpt lat="44.69431" lon="6.01083">
        <ele>1144</ele>
        <time>2021-06-26T07:39:29Z</time>
      </trkpt>
      <trkpt lat="44.69425" lon="6.01079">
        <ele>1144.8</ele>
        <time>2021-06-26T07:39:32Z</time>
      </trkpt>
      <trkpt lat="44.6942" lon="6.01077">
        <ele>1145.2</ele>
        <time>2021-06-26T07:39:34Z</time>
      </trkpt>
      <trkpt lat="44.69412" lon="6.01075">
        <ele>1145.6</ele>
        <time>2021-06-26T07:39:37Z</time>
      </trkpt>
      <trkpt lat="44.6941" lon="6.01075">
        <ele>1145.8</ele>
        <time>2021-06-26T07:39:38Z</time>
      </trkpt>
      <trkpt lat="44.69408" lon="6.01075">
        <ele>1146.4</ele>
        <time>2021-06-26T07:39:39Z</time>
      </trkpt>
      <trkpt lat="44.69389" lon="6.01082">
        <ele>1147.6</ele>
        <time>2021-06-26T07:39:46Z</time>
      </trkpt>
      <trkpt lat="44.69386" lon="6.01083">
        <ele>1147.6</ele>
        <time>2021-06-26T07:39:47Z</time>
      </trkpt>
      <trkpt lat="44.69373" lon="6.01089">
        <ele>1148.6</ele>
        <time>2021-06-26T07:39:52Z</time>
      </trkpt>
      <trkpt lat="44.69365" lon="6.01096">
        <ele>1149.4</ele>
        <time>2021-06-26T07:39:56Z</time>
      </trkpt>
      <trkpt lat="44.69362" lon="6.01098">
        <ele>1149.8</ele>
        <time>2021-06-26T07:39:57Z</time>
      </trkpt>
      <trkpt lat="44.69349" lon="6.01113">
        <ele>1150.8</ele>
        <time>2021-06-26T07:40:03Z</time>
      </trkpt>
      <trkpt lat="44.69345" lon="6.01119">
        <ele>1151.4</ele>
        <time>2021-06-26T07:40:05Z</time>
      </trkpt>
      <trkpt lat="44.69338" lon="6.01126">
        <ele>1152</ele>
        <time>2021-06-26T07:40:08Z</time>
      </trkpt>
      <trkpt lat="44.69327" lon="6.01143">
        <ele>1153</ele>
        <time>2021-06-26T07:40:14Z</time>
      </trkpt>
      <trkpt lat="44.69322" lon="6.01154">
        <ele>1153.8</ele>
        <time>2021-06-26T07:40:18Z</time>
      </trkpt>
      <trkpt lat="44.69318" lon="6.01159">
        <ele>1154.4</ele>
        <time>2021-06-26T07:40:20Z</time>
      </trkpt>
      <trkpt lat="44.69311" lon="6.0117">
        <ele>1155.4</ele>
        <time>2021-06-26T07:40:24Z</time>
      </trkpt>
      <trkpt lat="44.69305" lon="6.01179">
        <ele>1156.4</ele>
        <time>2021-06-26T07:40:27Z</time>
      </trkpt>
      <trkpt lat="44.69298" lon="6.01189">
        <ele>1157.6</ele>
        <time>2021-06-26T07:40:31Z</time>
      </trkpt>
      <trkpt lat="44.6929" lon="6.012">
        <ele>1158.4</ele>
        <time>2021-06-26T07:40:35Z</time>
      </trkpt>
      <trkpt lat="44.69288" lon="6.01202">
        <ele>1158.8</ele>
        <time>2021-06-26T07:40:36Z</time>
      </trkpt>
      <trkpt lat="44.69275" lon="6.01206">
        <ele>1159.8</ele>
        <time>2021-06-26T07:40:41Z</time>
      </trkpt>
      <trkpt lat="44.69263" lon="6.01203">
        <ele>1161.2</ele>
        <time>2021-06-26T07:40:46Z</time>
      </trkpt>
      <trkpt lat="44.69255" lon="6.01199">
        <ele>1161.8</ele>
        <time>2021-06-26T07:40:49Z</time>
      </trkpt>
      <trkpt lat="44.69249" lon="6.01196">
        <ele>1162.6</ele>
        <time>2021-06-26T07:40:51Z</time>
      </trkpt>
      <trkpt lat="44.69236" lon="6.01189">
        <ele>1163.6</ele>
        <time>2021-06-26T07:40:56Z</time>
      </trkpt>
      <trkpt lat="44.69232" lon="6.01185">
        <ele>1164.6</ele>
        <time>2021-06-26T07:40:58Z</time>
      </trkpt>
      <trkpt lat="44.6923" lon="6.01182">
        <ele>1164.8</ele>
        <time>2021-06-26T07:40:59Z</time>
      </trkpt>
      <trkpt lat="44.69218" lon="6.01166">
        <ele>1165.8</ele>
        <time>2021-06-26T07:41:05Z</time>
      </trkpt>
      <trkpt lat="44.69216" lon="6.01163">
        <ele>1166</ele>
        <time>2021-06-26T07:41:06Z</time>
      </trkpt>
      <trkpt lat="44.69215" lon="6.0116">
        <ele>1166.2</ele>
        <time>2021-06-26T07:41:07Z</time>
      </trkpt>
      <trkpt lat="44.69209" lon="6.01151">
        <ele>1166.8</ele>
        <time>2021-06-26T07:41:10Z</time>
      </trkpt>
      <trkpt lat="44.69201" lon="6.01136">
        <ele>1168</ele>
        <time>2021-06-26T07:41:15Z</time>
      </trkpt>
      <trkpt lat="44.69197" lon="6.01126">
        <ele>1168.6</ele>
        <time>2021-06-26T07:41:18Z</time>
      </trkpt>
      <trkpt lat="44.69194" lon="6.01119">
        <ele>1169</ele>
        <time>2021-06-26T07:41:20Z</time>
      </trkpt>
      <trkpt lat="44.6919" lon="6.01102">
        <ele>1170.4</ele>
        <time>2021-06-26T07:41:25Z</time>
      </trkpt>
      <trkpt lat="44.69188" lon="6.01095">
        <ele>1171</ele>
        <time>2021-06-26T07:41:27Z</time>
      </trkpt>
      <trkpt lat="44.69186" lon="6.01084">
        <ele>1171.6</ele>
        <time>2021-06-26T07:41:30Z</time>
      </trkpt>
      <trkpt lat="44.69183" lon="6.01069">
        <ele>1173</ele>
        <time>2021-06-26T07:41:34Z</time>
      </trkpt>
      <trkpt lat="44.69183" lon="6.01057">
        <ele>1173.8</ele>
        <time>2021-06-26T07:41:37Z</time>
      </trkpt>
      <trkpt lat="44.69183" lon="6.01053">
        <ele>1174.2</ele>
        <time>2021-06-26T07:41:38Z</time>
      </trkpt>
      <trkpt lat="44.69184" lon="6.01037">
        <ele>1175.4</ele>
        <time>2021-06-26T07:41:42Z</time>
      </trkpt>
      <trkpt lat="44.69186" lon="6.01017">
        <ele>1176.2</ele>
        <time>2021-06-26T07:41:47Z</time>
      </trkpt>
      <trkpt lat="44.69187" lon="6.01014">
        <ele>1176.4</ele>
        <time>2021-06-26T07:41:48Z</time>
      </trkpt>
      <trkpt lat="44.69189" lon="6.00995">
        <ele>1177.6</ele>
        <time>2021-06-26T07:41:53Z</time>
      </trkpt>
      <trkpt lat="44.6919" lon="6.00983">
        <ele>1178</ele>
        <time>2021-06-26T07:41:56Z</time>
      </trkpt>
      <trkpt lat="44.69189" lon="6.00976">
        <ele>1178.6</ele>
        <time>2021-06-26T07:41:58Z</time>
      </trkpt>
      <trkpt lat="44.69185" lon="6.00958">
        <ele>1179.6</ele>
        <time>2021-06-26T07:42:03Z</time>
      </trkpt>
      <trkpt lat="44.69184" lon="6.00955">
        <ele>1180</ele>
        <time>2021-06-26T07:42:04Z</time>
      </trkpt>
      <trkpt lat="44.6918" lon="6.00944">
        <ele>1181</ele>
        <time>2021-06-26T07:42:07Z</time>
      </trkpt>
      <trkpt lat="44.69177" lon="6.00927">
        <ele>1182</ele>
        <time>2021-06-26T07:42:12Z</time>
      </trkpt>
      <trkpt lat="44.69178" lon="6.00913">
        <ele>1183.2</ele>
        <time>2021-06-26T07:42:16Z</time>
      </trkpt>
      <trkpt lat="44.69181" lon="6.00903">
        <ele>1184</ele>
        <time>2021-06-26T07:42:19Z</time>
      </trkpt>
      <trkpt lat="44.69183" lon="6.00896">
        <ele>1184.6</ele>
        <time>2021-06-26T07:42:21Z</time>
      </trkpt>
      <trkpt lat="44.6919" lon="6.00886">
        <ele>1185.8</ele>
        <time>2021-06-26T07:42:25Z</time>
      </trkpt>
      <trkpt lat="44.69192" lon="6.00884">
        <ele>1186</ele>
        <time>2021-06-26T07:42:26Z</time>
      </trkpt>
      <trkpt lat="44.69204" lon="6.00875">
        <ele>1186.8</ele>
        <time>2021-06-26T07:42:31Z</time>
      </trkpt>
      <trkpt lat="44.69211" lon="6.0087">
        <ele>1187.2</ele>
        <time>2021-06-26T07:42:34Z</time>
      </trkpt>
      <trkpt lat="44.69217" lon="6.00864">
        <ele>1187.8</ele>
        <time>2021-06-26T07:42:37Z</time>
      </trkpt>
      <trkpt lat="44.69223" lon="6.00853">
        <ele>1189</ele>
        <time>2021-06-26T07:42:41Z</time>
      </trkpt>
      <trkpt lat="44.69226" lon="6.00844">
        <ele>1190</ele>
        <time>2021-06-26T07:42:44Z</time>
      </trkpt>
      <trkpt lat="44.69231" lon="6.00831">
        <ele>1191.2</ele>
        <time>2021-06-26T07:42:49Z</time>
      </trkpt>
      <trkpt lat="44.69233" lon="6.00828">
        <ele>1191.4</ele>
        <time>2021-06-26T07:42:50Z</time>
      </trkpt>
      <trkpt lat="44.69238" lon="6.00818">
        <ele>1192.2</ele>
        <time>2021-06-26T07:42:54Z</time>
      </trkpt>
      <trkpt lat="44.69242" lon="6.00813">
        <ele>1193</ele>
        <time>2021-06-26T07:42:56Z</time>
      </trkpt>
      <trkpt lat="44.69246" lon="6.00809">
        <ele>1193.6</ele>
        <time>2021-06-26T07:42:58Z</time>
      </trkpt>
      <trkpt lat="44.69252" lon="6.00802">
        <ele>1194.6</ele>
        <time>2021-06-26T07:43:02Z</time>
      </trkpt>
      <trkpt lat="44.69255" lon="6.00799">
        <ele>1195.2</ele>
        <time>2021-06-26T07:43:04Z</time>
      </trkpt>
      <trkpt lat="44.69257" lon="6.00797">
        <ele>1195.6</ele>
        <time>2021-06-26T07:43:05Z</time>
      </trkpt>
      <trkpt lat="44.69262" lon="6.0079">
        <ele>1196.8</ele>
        <time>2021-06-26T07:43:09Z</time>
      </trkpt>
      <trkpt lat="44.69268" lon="6.00786">
        <ele>1197.6</ele>
        <time>2021-06-26T07:43:12Z</time>
      </trkpt>
      <trkpt lat="44.6927" lon="6.00783">
        <ele>1197.8</ele>
        <time>2021-06-26T07:43:14Z</time>
      </trkpt>
      <trkpt lat="44.69275" lon="6.00777">
        <ele>1198.8</ele>
        <time>2021-06-26T07:43:18Z</time>
      </trkpt>
      <trkpt lat="44.69277" lon="6.00775">
        <ele>1199.2</ele>
        <time>2021-06-26T07:43:19Z</time>
      </trkpt>
      <trkpt lat="44.69281" lon="6.00771">
        <ele>1200</ele>
        <time>2021-06-26T07:43:22Z</time>
      </trkpt>
      <trkpt lat="44.69288" lon="6.00766">
        <ele>1201</ele>
        <time>2021-06-26T07:43:26Z</time>
      </trkpt>
      <trkpt lat="44.69291" lon="6.00764">
        <ele>1201.4</ele>
        <time>2021-06-26T07:43:28Z</time>
      </trkpt>
      <trkpt lat="44.69299" lon="6.00759">
        <ele>1202.2</ele>
        <time>2021-06-26T07:43:32Z</time>
      </trkpt>
      <trkpt lat="44.6931" lon="6.00754">
        <ele>1203.4</ele>
        <time>2021-06-26T07:43:37Z</time>
      </trkpt>
      <trkpt lat="44.69316" lon="6.00752">
        <ele>1204</ele>
        <time>2021-06-26T07:43:40Z</time>
      </trkpt>
      <trkpt lat="44.69321" lon="6.0075">
        <ele>1204.4</ele>
        <time>2021-06-26T07:43:42Z</time>
      </trkpt>
      <trkpt lat="44.69331" lon="6.00742">
        <ele>1205.6</ele>
        <time>2021-06-26T07:43:47Z</time>
      </trkpt>
      <trkpt lat="44.69336" lon="6.00736">
        <ele>1206</ele>
        <time>2021-06-26T07:43:50Z</time>
      </trkpt>
      <trkpt lat="44.6934" lon="6.00728">
        <ele>1206.8</ele>
        <time>2021-06-26T07:43:53Z</time>
      </trkpt>
      <trkpt lat="44.69345" lon="6.00717">
        <ele>1207.8</ele>
        <time>2021-06-26T07:43:57Z</time>
      </trkpt>
      <trkpt lat="44.69346" lon="6.00715">
        <ele>1208</ele>
        <time>2021-06-26T07:43:58Z</time>
      </trkpt>
      <trkpt lat="44.69351" lon="6.00702">
        <ele>1209</ele>
        <time>2021-06-26T07:44:03Z</time>
      </trkpt>
      <trkpt lat="44.69353" lon="6.00695">
        <ele>1209.6</ele>
        <time>2021-06-26T07:44:06Z</time>
      </trkpt>
      <trkpt lat="44.69355" lon="6.0069">
        <ele>1210.2</ele>
        <time>2021-06-26T07:44:08Z</time>
      </trkpt>
      <trkpt lat="44.69358" lon="6.00682">
        <ele>1211</ele>
        <time>2021-06-26T07:44:11Z</time>
      </trkpt>
      <trkpt lat="44.69359" lon="6.00679">
        <ele>1211.2</ele>
        <time>2021-06-26T07:44:12Z</time>
      </trkpt>
      <trkpt lat="44.6936" lon="6.00676">
        <ele>1211.4</ele>
        <time>2021-06-26T07:44:13Z</time>
      </trkpt>
      <trkpt lat="44.69369" lon="6.00667">
        <ele>1212.6</ele>
        <time>2021-06-26T07:44:17Z</time>
      </trkpt>
      <trkpt lat="44.69371" lon="6.00664">
        <ele>1212.8</ele>
        <time>2021-06-26T07:44:18Z</time>
      </trkpt>
      <trkpt lat="44.69378" lon="6.00651">
        <ele>1213.8</ele>
        <time>2021-06-26T07:44:23Z</time>
      </trkpt>
      <trkpt lat="44.69383" lon="6.00645">
        <ele>1214.2</ele>
        <time>2021-06-26T07:44:25Z</time>
      </trkpt>
      <trkpt lat="44.69389" lon="6.00639">
        <ele>1214.8</ele>
        <time>2021-06-26T07:44:28Z</time>
      </trkpt>
      <trkpt lat="44.69397" lon="6.00629">
        <ele>1215.6</ele>
        <time>2021-06-26T07:44:32Z</time>
      </trkpt>
      <trkpt lat="44.69399" lon="6.00627">
        <ele>1216</ele>
        <time>2021-06-26T07:44:33Z</time>
      </trkpt>
      <trkpt lat="44.69409" lon="6.00615">
        <ele>1217.2</ele>
        <time>2021-06-26T07:44:38Z</time>
      </trkpt>
      <trkpt lat="44.69411" lon="6.00612">
        <ele>1217.4</ele>
        <time>2021-06-26T07:44:39Z</time>
      </trkpt>
      <trkpt lat="44.69416" lon="6.00609">
        <ele>1218.2</ele>
        <time>2021-06-26T07:44:42Z</time>
      </trkpt>
      <trkpt lat="44.69421" lon="6.00605">
        <ele>1219</ele>
        <time>2021-06-26T07:44:45Z</time>
      </trkpt>
      <trkpt lat="44.69427" lon="6.00603">
        <ele>1219.4</ele>
        <time>2021-06-26T07:44:47Z</time>
      </trkpt>
      <trkpt lat="44.6944" lon="6.00596">
        <ele>1220.4</ele>
        <time>2021-06-26T07:44:52Z</time>
      </trkpt>
      <trkpt lat="44.69448" lon="6.00585">
        <ele>1221</ele>
        <time>2021-06-26T07:44:57Z</time>
      </trkpt>
      <trkpt lat="44.69453" lon="6.00572">
        <ele>1221.8</ele>
        <time>2021-06-26T07:45:01Z</time>
      </trkpt>
      <trkpt lat="44.69454" lon="6.00569">
        <ele>1222</ele>
        <time>2021-06-26T07:45:02Z</time>
      </trkpt>
      <trkpt lat="44.6946" lon="6.00557">
        <ele>1223</ele>
        <time>2021-06-26T07:45:06Z</time>
      </trkpt>
      <trkpt lat="44.69463" lon="6.00546">
        <ele>1223.8</ele>
        <time>2021-06-26T07:45:09Z</time>
      </trkpt>
      <trkpt lat="44.69464" lon="6.00543">
        <ele>1224</ele>
        <time>2021-06-26T07:45:10Z</time>
      </trkpt>
      <trkpt lat="44.69465" lon="6.00541">
        <ele>1224.2</ele>
        <time>2021-06-26T07:45:11Z</time>
      </trkpt>
      <trkpt lat="44.69472" lon="6.00529">
        <ele>1225.4</ele>
        <time>2021-06-26T07:45:15Z</time>
      </trkpt>
      <trkpt lat="44.69477" lon="6.00523">
        <ele>1225.8</ele>
        <time>2021-06-26T07:45:17Z</time>
      </trkpt>
      <trkpt lat="44.69485" lon="6.00513">
        <ele>1226.2</ele>
        <time>2021-06-26T07:45:20Z</time>
      </trkpt>
      <trkpt lat="44.6949" lon="6.00503">
        <ele>1227.4</ele>
        <time>2021-06-26T07:45:24Z</time>
      </trkpt>
      <trkpt lat="44.69493" lon="6.00498">
        <ele>1228</ele>
        <time>2021-06-26T07:45:27Z</time>
      </trkpt>
      <trkpt lat="44.69496" lon="6.00495">
        <ele>1228.8</ele>
        <time>2021-06-26T07:45:29Z</time>
      </trkpt>
      <trkpt lat="44.69498" lon="6.00493">
        <ele>1229</ele>
        <time>2021-06-26T07:45:30Z</time>
      </trkpt>
      <trkpt lat="44.69501" lon="6.0049">
        <ele>1229.4</ele>
        <time>2021-06-26T07:45:32Z</time>
      </trkpt>
      <trkpt lat="44.69504" lon="6.00489">
        <ele>1229.6</ele>
        <time>2021-06-26T07:45:33Z</time>
      </trkpt>
      <trkpt lat="44.69508" lon="6.0049">
        <ele>1230</ele>
        <time>2021-06-26T07:45:35Z</time>
      </trkpt>
      <trkpt lat="44.69514" lon="6.00494">
        <ele>1230.6</ele>
        <time>2021-06-26T07:45:37Z</time>
      </trkpt>
      <trkpt lat="44.69528" lon="6.00506">
        <ele>1231.2</ele>
        <time>2021-06-26T07:45:42Z</time>
      </trkpt>
      <trkpt lat="44.69531" lon="6.00509">
        <ele>1231.6</ele>
        <time>2021-06-26T07:45:43Z</time>
      </trkpt>
      <trkpt lat="44.69549" lon="6.0052">
        <ele>1232.4</ele>
        <time>2021-06-26T07:45:50Z</time>
      </trkpt>
      <trkpt lat="44.69551" lon="6.00521">
        <ele>1232.6</ele>
        <time>2021-06-26T07:45:51Z</time>
      </trkpt>
      <trkpt lat="44.69554" lon="6.00522">
        <ele>1233</ele>
        <time>2021-06-26T07:45:52Z</time>
      </trkpt>
      <trkpt lat="44.69558" lon="6.00523">
        <ele>1233.4</ele>
        <time>2021-06-26T07:45:54Z</time>
      </trkpt>
      <trkpt lat="44.69561" lon="6.00524">
        <ele>1233.4</ele>
        <time>2021-06-26T07:45:55Z</time>
      </trkpt>
      <trkpt lat="44.69571" lon="6.0053">
        <ele>1234.4</ele>
        <time>2021-06-26T07:45:59Z</time>
      </trkpt>
      <trkpt lat="44.69581" lon="6.00539">
        <ele>1235.6</ele>
        <time>2021-06-26T07:46:03Z</time>
      </trkpt>
      <trkpt lat="44.69596" lon="6.00551">
        <ele>1236.8</ele>
        <time>2021-06-26T07:46:08Z</time>
      </trkpt>
      <trkpt lat="44.69603" lon="6.00558">
        <ele>1237.4</ele>
        <time>2021-06-26T07:46:11Z</time>
      </trkpt>
      <trkpt lat="44.69613" lon="6.00572">
        <ele>1238</ele>
        <time>2021-06-26T07:46:15Z</time>
      </trkpt>
      <trkpt lat="44.69623" lon="6.00585">
        <ele>1238.6</ele>
        <time>2021-06-26T07:46:19Z</time>
      </trkpt>
      <trkpt lat="44.69633" lon="6.00595">
        <ele>1239.2</ele>
        <time>2021-06-26T07:46:23Z</time>
      </trkpt>
      <trkpt lat="44.69638" lon="6.00597">
        <ele>1239.4</ele>
        <time>2021-06-26T07:46:25Z</time>
      </trkpt>
      <trkpt lat="44.69649" lon="6.00596">
        <ele>1240.2</ele>
        <time>2021-06-26T07:46:28Z</time>
      </trkpt>
      <trkpt lat="44.69652" lon="6.00594">
        <ele>1240.6</ele>
        <time>2021-06-26T07:46:29Z</time>
      </trkpt>
      <trkpt lat="44.69671" lon="6.00581">
        <ele>1241.2</ele>
        <time>2021-06-26T07:46:35Z</time>
      </trkpt>
      <trkpt lat="44.69674" lon="6.00579">
        <ele>1241.4</ele>
        <time>2021-06-26T07:46:36Z</time>
      </trkpt>
      <trkpt lat="44.69685" lon="6.00567">
        <ele>1242.6</ele>
        <time>2021-06-26T07:46:41Z</time>
      </trkpt>
      <trkpt lat="44.69686" lon="6.00565">
        <ele>1243</ele>
        <time>2021-06-26T07:46:42Z</time>
      </trkpt>
      <trkpt lat="44.69691" lon="6.00557">
        <ele>1243.8</ele>
        <time>2021-06-26T07:46:45Z</time>
      </trkpt>
      <trkpt lat="44.69696" lon="6.00545">
        <ele>1245</ele>
        <time>2021-06-26T07:46:49Z</time>
      </trkpt>
      <trkpt lat="44.69703" lon="6.00534">
        <ele>1246.2</ele>
        <time>2021-06-26T07:46:53Z</time>
      </trkpt>
      <trkpt lat="44.69713" lon="6.00519">
        <ele>1247.2</ele>
        <time>2021-06-26T07:46:59Z</time>
      </trkpt>
      <trkpt lat="44.69715" lon="6.00517">
        <ele>1247.6</ele>
        <time>2021-06-26T07:47:00Z</time>
      </trkpt>
      <trkpt lat="44.69722" lon="6.00509">
        <ele>1248.4</ele>
        <time>2021-06-26T07:47:04Z</time>
      </trkpt>
      <trkpt lat="44.69728" lon="6.005">
        <ele>1249.8</ele>
        <time>2021-06-26T07:47:08Z</time>
      </trkpt>
      <trkpt lat="44.6973" lon="6.00498">
        <ele>1250</ele>
        <time>2021-06-26T07:47:09Z</time>
      </trkpt>
      <trkpt lat="44.69734" lon="6.00491">
        <ele>1250.8</ele>
        <time>2021-06-26T07:47:12Z</time>
      </trkpt>
      <trkpt lat="44.69741" lon="6.00479">
        <ele>1252</ele>
        <time>2021-06-26T07:47:17Z</time>
      </trkpt>
      <trkpt lat="44.69746" lon="6.0047">
        <ele>1253.2</ele>
        <time>2021-06-26T07:47:21Z</time>
      </trkpt>
      <trkpt lat="44.69753" lon="6.00457">
        <ele>1254.2</ele>
        <time>2021-06-26T07:47:25Z</time>
      </trkpt>
      <trkpt lat="44.69754" lon="6.00454">
        <ele>1254.2</ele>
        <time>2021-06-26T07:47:26Z</time>
      </trkpt>
      <trkpt lat="44.69767" lon="6.00438">
        <ele>1255.2</ele>
        <time>2021-06-26T07:47:31Z</time>
      </trkpt>
      <trkpt lat="44.69769" lon="6.00435">
        <ele>1255.4</ele>
        <time>2021-06-26T07:47:32Z</time>
      </trkpt>
      <trkpt lat="44.69783" lon="6.00424">
        <ele>1256.2</ele>
        <time>2021-06-26T07:47:37Z</time>
      </trkpt>
      <trkpt lat="44.69789" lon="6.0042">
        <ele>1256.6</ele>
        <time>2021-06-26T07:47:39Z</time>
      </trkpt>
      <trkpt lat="44.69801" lon="6.00407">
        <ele>1257.6</ele>
        <time>2021-06-26T07:47:45Z</time>
      </trkpt>
      <trkpt lat="44.69803" lon="6.00405">
        <ele>1258</ele>
        <time>2021-06-26T07:47:46Z</time>
      </trkpt>
      <trkpt lat="44.69808" lon="6.00395">
        <ele>1259</ele>
        <time>2021-06-26T07:47:50Z</time>
      </trkpt>
      <trkpt lat="44.6981" lon="6.00386">
        <ele>1260</ele>
        <time>2021-06-26T07:47:53Z</time>
      </trkpt>
      <trkpt lat="44.6981" lon="6.00383">
        <ele>1260.4</ele>
        <time>2021-06-26T07:47:54Z</time>
      </trkpt>
      <trkpt lat="44.69812" lon="6.00366">
        <ele>1261.4</ele>
        <time>2021-06-26T07:47:59Z</time>
      </trkpt>
      <trkpt lat="44.69813" lon="6.00359">
        <ele>1262</ele>
        <time>2021-06-26T07:48:01Z</time>
      </trkpt>
      <trkpt lat="44.69814" lon="6.00353">
        <ele>1262.6</ele>
        <time>2021-06-26T07:48:03Z</time>
      </trkpt>
      <trkpt lat="44.6982" lon="6.00335">
        <ele>1264</ele>
        <time>2021-06-26T07:48:09Z</time>
      </trkpt>
      <trkpt lat="44.6983" lon="6.00323">
        <ele>1265.2</ele>
        <time>2021-06-26T07:48:14Z</time>
      </trkpt>
      <trkpt lat="44.69835" lon="6.00318">
        <ele>1265.4</ele>
        <time>2021-06-26T07:48:16Z</time>
      </trkpt>
      <trkpt lat="44.69844" lon="6.00315">
        <ele>1266</ele>
        <time>2021-06-26T07:48:19Z</time>
      </trkpt>
      <trkpt lat="44.69856" lon="6.00315">
        <ele>1266.8</ele>
        <time>2021-06-26T07:48:23Z</time>
      </trkpt>
      <trkpt lat="44.69862" lon="6.00315">
        <ele>1267.2</ele>
        <time>2021-06-26T07:48:25Z</time>
      </trkpt>
      <trkpt lat="44.69882" lon="6.00319">
        <ele>1268.2</ele>
        <time>2021-06-26T07:48:32Z</time>
      </trkpt>
      <trkpt lat="44.69885" lon="6.0032">
        <ele>1268.4</ele>
        <time>2021-06-26T07:48:33Z</time>
      </trkpt>
      <trkpt lat="44.699" lon="6.00324">
        <ele>1269</ele>
        <time>2021-06-26T07:48:38Z</time>
      </trkpt>
      <trkpt lat="44.69916" lon="6.00329">
        <ele>1270</ele>
        <time>2021-06-26T07:48:44Z</time>
      </trkpt>
      <trkpt lat="44.69919" lon="6.00329">
        <ele>1270.2</ele>
        <time>2021-06-26T07:48:45Z</time>
      </trkpt>
      <trkpt lat="44.69929" lon="6.0033">
        <ele>1271.4</ele>
        <time>2021-06-26T07:48:49Z</time>
      </trkpt>
      <trkpt lat="44.69941" lon="6.00331">
        <ele>1272.4</ele>
        <time>2021-06-26T07:48:54Z</time>
      </trkpt>
      <trkpt lat="44.69953" lon="6.00336">
        <ele>1273.8</ele>
        <time>2021-06-26T07:48:59Z</time>
      </trkpt>
      <trkpt lat="44.69955" lon="6.00337">
        <ele>1274.2</ele>
        <time>2021-06-26T07:49:00Z</time>
      </trkpt>
      <trkpt lat="44.69958" lon="6.00339">
        <ele>1274.4</ele>
        <time>2021-06-26T07:49:01Z</time>
      </trkpt>
      <trkpt lat="44.69962" lon="6.00344">
        <ele>1274.8</ele>
        <time>2021-06-26T07:49:03Z</time>
      </trkpt>
      <trkpt lat="44.6997" lon="6.00358">
        <ele>1275.8</ele>
        <time>2021-06-26T07:49:08Z</time>
      </trkpt>
      <trkpt lat="44.69972" lon="6.0036">
        <ele>1276</ele>
        <time>2021-06-26T07:49:09Z</time>
      </trkpt>
      <trkpt lat="44.69985" lon="6.00367">
        <ele>1277.2</ele>
        <time>2021-06-26T07:49:14Z</time>
      </trkpt>
      <trkpt lat="44.69996" lon="6.00362">
        <ele>1278.2</ele>
        <time>2021-06-26T07:49:19Z</time>
      </trkpt>
      <trkpt lat="44.69998" lon="6.00359">
        <ele>1278.4</ele>
        <time>2021-06-26T07:49:20Z</time>
      </trkpt>
      <trkpt lat="44.70002" lon="6.0035">
        <ele>1279.6</ele>
        <time>2021-06-26T07:49:23Z</time>
      </trkpt>
      <trkpt lat="44.70008" lon="6.00336">
        <ele>1280.6</ele>
        <time>2021-06-26T07:49:27Z</time>
      </trkpt>
      <trkpt lat="44.7001" lon="6.00332">
        <ele>1281</ele>
        <time>2021-06-26T07:49:28Z</time>
      </trkpt>
      <trkpt lat="44.70022" lon="6.00315">
        <ele>1281.8</ele>
        <time>2021-06-26T07:49:34Z</time>
      </trkpt>
      <trkpt lat="44.70025" lon="6.00313">
        <ele>1282.4</ele>
        <time>2021-06-26T07:49:36Z</time>
      </trkpt>
      <trkpt lat="44.70033" lon="6.00307">
        <ele>1283.2</ele>
        <time>2021-06-26T07:49:40Z</time>
      </trkpt>
      <trkpt lat="44.70037" lon="6.00306">
        <ele>1283.8</ele>
        <time>2021-06-26T07:49:42Z</time>
      </trkpt>
      <trkpt lat="44.70042" lon="6.00302">
        <ele>1284.8</ele>
        <time>2021-06-26T07:49:45Z</time>
      </trkpt>
      <trkpt lat="44.70045" lon="6.003">
        <ele>1285.6</ele>
        <time>2021-06-26T07:49:46Z</time>
      </trkpt>
      <trkpt lat="44.70049" lon="6.00297">
        <ele>1286</ele>
        <time>2021-06-26T07:49:48Z</time>
      </trkpt>
      <trkpt lat="44.70061" lon="6.0029">
        <ele>1287</ele>
        <time>2021-06-26T07:49:53Z</time>
      </trkpt>
      <trkpt lat="44.70076" lon="6.00288">
        <ele>1288</ele>
        <time>2021-06-26T07:49:59Z</time>
      </trkpt>
      <trkpt lat="44.70079" lon="6.00289">
        <ele>1288.2</ele>
        <time>2021-06-26T07:50:00Z</time>
      </trkpt>
      <trkpt lat="44.70088" lon="6.00298">
        <ele>1289.6</ele>
        <time>2021-06-26T07:50:05Z</time>
      </trkpt>
      <trkpt lat="44.7009" lon="6.003">
        <ele>1289.6</ele>
        <time>2021-06-26T07:50:06Z</time>
      </trkpt>
      <trkpt lat="44.70095" lon="6.00307">
        <ele>1290.8</ele>
        <time>2021-06-26T07:50:09Z</time>
      </trkpt>
      <trkpt lat="44.70101" lon="6.00319">
        <ele>1291.6</ele>
        <time>2021-06-26T07:50:13Z</time>
      </trkpt>
      <trkpt lat="44.70107" lon="6.0033">
        <ele>1292.2</ele>
        <time>2021-06-26T07:50:17Z</time>
      </trkpt>
      <trkpt lat="44.70111" lon="6.00337">
        <ele>1292.8</ele>
        <time>2021-06-26T07:50:19Z</time>
      </trkpt>
      <trkpt lat="44.7012" lon="6.00344">
        <ele>1293.4</ele>
        <time>2021-06-26T07:50:23Z</time>
      </trkpt>
      <trkpt lat="44.70123" lon="6.00345">
        <ele>1293.6</ele>
        <time>2021-06-26T07:50:24Z</time>
      </trkpt>
      <trkpt lat="44.70128" lon="6.00345">
        <ele>1294.2</ele>
        <time>2021-06-26T07:50:26Z</time>
      </trkpt>
      <trkpt lat="44.7014" lon="6.00339">
        <ele>1295.2</ele>
        <time>2021-06-26T07:50:31Z</time>
      </trkpt>
      <trkpt lat="44.70149" lon="6.00333">
        <ele>1296.4</ele>
        <time>2021-06-26T07:50:35Z</time>
      </trkpt>
      <trkpt lat="44.70158" lon="6.00326">
        <ele>1297.4</ele>
        <time>2021-06-26T07:50:39Z</time>
      </trkpt>
      <trkpt lat="44.70161" lon="6.00324">
        <ele>1297.6</ele>
        <time>2021-06-26T07:50:40Z</time>
      </trkpt>
      <trkpt lat="44.70169" lon="6.00317">
        <ele>1298.8</ele>
        <time>2021-06-26T07:50:44Z</time>
      </trkpt>
      <trkpt lat="44.70181" lon="6.00308">
        <ele>1300</ele>
        <time>2021-06-26T07:50:49Z</time>
      </trkpt>
      <trkpt lat="44.70183" lon="6.00306">
        <ele>1300</ele>
        <time>2021-06-26T07:50:50Z</time>
      </trkpt>
      <trkpt lat="44.70194" lon="6.00298">
        <ele>1301.2</ele>
        <time>2021-06-26T07:50:55Z</time>
      </trkpt>
      <trkpt lat="44.70204" lon="6.00289">
        <ele>1302.4</ele>
        <time>2021-06-26T07:51:00Z</time>
      </trkpt>
      <trkpt lat="44.70206" lon="6.00288">
        <ele>1302.8</ele>
        <time>2021-06-26T07:51:01Z</time>
      </trkpt>
      <trkpt lat="44.70212" lon="6.00284">
        <ele>1303.6</ele>
        <time>2021-06-26T07:51:04Z</time>
      </trkpt>
      <trkpt lat="44.70221" lon="6.00276">
        <ele>1304.4</ele>
        <time>2021-06-26T07:51:09Z</time>
      </trkpt>
      <trkpt lat="44.70229" lon="6.00269">
        <ele>1305.6</ele>
        <time>2021-06-26T07:51:13Z</time>
      </trkpt>
      <trkpt lat="44.70233" lon="6.00266">
        <ele>1306.2</ele>
        <time>2021-06-26T07:51:15Z</time>
      </trkpt>
      <trkpt lat="44.70238" lon="6.00263">
        <ele>1306.8</ele>
        <time>2021-06-26T07:51:17Z</time>
      </trkpt>
      <trkpt lat="44.70248" lon="6.00258">
        <ele>1307.8</ele>
        <time>2021-06-26T07:51:21Z</time>
      </trkpt>
      <trkpt lat="44.70258" lon="6.00253">
        <ele>1308.8</ele>
        <time>2021-06-26T07:51:25Z</time>
      </trkpt>
      <trkpt lat="44.70261" lon="6.00252">
        <ele>1309</ele>
        <time>2021-06-26T07:51:26Z</time>
      </trkpt>
      <trkpt lat="44.70274" lon="6.0025">
        <ele>1310</ele>
        <time>2021-06-26T07:51:31Z</time>
      </trkpt>
      <trkpt lat="44.70281" lon="6.00247">
        <ele>1310.6</ele>
        <time>2021-06-26T07:51:34Z</time>
      </trkpt>
      <trkpt lat="44.70286" lon="6.00246">
        <ele>1311.2</ele>
        <time>2021-06-26T07:51:36Z</time>
      </trkpt>
      <trkpt lat="44.70296" lon="6.00243">
        <ele>1312.4</ele>
        <time>2021-06-26T07:51:40Z</time>
      </trkpt>
      <trkpt lat="44.70298" lon="6.00242">
        <ele>1312.6</ele>
        <time>2021-06-26T07:51:41Z</time>
      </trkpt>
      <trkpt lat="44.70307" lon="6.00234">
        <ele>1313.6</ele>
        <time>2021-06-26T07:51:46Z</time>
      </trkpt>
      <trkpt lat="44.70311" lon="6.00231">
        <ele>1314</ele>
        <time>2021-06-26T07:51:48Z</time>
      </trkpt>
      <trkpt lat="44.70317" lon="6.00225">
        <ele>1314.8</ele>
        <time>2021-06-26T07:51:51Z</time>
      </trkpt>
      <trkpt lat="44.70326" lon="6.00217">
        <ele>1315.8</ele>
        <time>2021-06-26T07:51:56Z</time>
      </trkpt>
      <trkpt lat="44.70328" lon="6.00214">
        <ele>1316</ele>
        <time>2021-06-26T07:51:57Z</time>
      </trkpt>
      <trkpt lat="44.7033" lon="6.00203">
        <ele>1317</ele>
        <time>2021-06-26T07:52:01Z</time>
      </trkpt>
      <trkpt lat="44.7033" lon="6.002">
        <ele>1317.2</ele>
        <time>2021-06-26T07:52:02Z</time>
      </trkpt>
      <trkpt lat="44.70328" lon="6.00197">
        <ele>1318</ele>
        <time>2021-06-26T07:52:03Z</time>
      </trkpt>
      <trkpt lat="44.70326" lon="6.00196">
        <ele>1318.2</ele>
        <time>2021-06-26T07:52:04Z</time>
      </trkpt>
      <trkpt lat="44.70316" lon="6.00198">
        <ele>1318.8</ele>
        <time>2021-06-26T07:52:07Z</time>
      </trkpt>
      <trkpt lat="44.70311" lon="6.00201">
        <ele>1319</ele>
        <time>2021-06-26T07:52:09Z</time>
      </trkpt>
      <trkpt lat="44.70298" lon="6.00208">
        <ele>1320.2</ele>
        <time>2021-06-26T07:52:14Z</time>
      </trkpt>
      <trkpt lat="44.70295" lon="6.00209">
        <ele>1320.4</ele>
        <time>2021-06-26T07:52:15Z</time>
      </trkpt>
      <trkpt lat="44.70276" lon="6.00212">
        <ele>1321.2</ele>
        <time>2021-06-26T07:52:22Z</time>
      </trkpt>
      <trkpt lat="44.7026" lon="6.0021">
        <ele>1322.4</ele>
        <time>2021-06-26T07:52:28Z</time>
      </trkpt>
      <trkpt lat="44.7025" lon="6.00209">
        <ele>1322.8</ele>
        <time>2021-06-26T07:52:31Z</time>
      </trkpt>
      <trkpt lat="44.70241" lon="6.00208">
        <ele>1323.4</ele>
        <time>2021-06-26T07:52:34Z</time>
      </trkpt>
      <trkpt lat="44.70224" lon="6.00209">
        <ele>1324</ele>
        <time>2021-06-26T07:52:40Z</time>
      </trkpt>
      <trkpt lat="44.70218" lon="6.00209">
        <ele>1324.6</ele>
        <time>2021-06-26T07:52:42Z</time>
      </trkpt>
      <trkpt lat="44.70202" lon="6.00212">
        <ele>1325.4</ele>
        <time>2021-06-26T07:52:48Z</time>
      </trkpt>
      <trkpt lat="44.70194" lon="6.00213">
        <ele>1326.2</ele>
        <time>2021-06-26T07:52:51Z</time>
      </trkpt>
      <trkpt lat="44.70185" lon="6.00213">
        <ele>1326.6</ele>
        <time>2021-06-26T07:52:54Z</time>
      </trkpt>
      <trkpt lat="44.70175" lon="6.00214">
        <ele>1327.8</ele>
        <time>2021-06-26T07:52:58Z</time>
      </trkpt>
      <trkpt lat="44.7017" lon="6.00214">
        <ele>1328.4</ele>
        <time>2021-06-26T07:53:00Z</time>
      </trkpt>
      <trkpt lat="44.70162" lon="6.00215">
        <ele>1329</ele>
        <time>2021-06-26T07:53:03Z</time>
      </trkpt>
      <trkpt lat="44.70149" lon="6.00212">
        <ele>1330.2</ele>
        <time>2021-06-26T07:53:08Z</time>
      </trkpt>
      <trkpt lat="44.70135" lon="6.00203">
        <ele>1331.2</ele>
        <time>2021-06-26T07:53:14Z</time>
      </trkpt>
      <trkpt lat="44.70131" lon="6.002">
        <ele>1331.6</ele>
        <time>2021-06-26T07:53:16Z</time>
      </trkpt>
      <trkpt lat="44.70126" lon="6.00191">
        <ele>1332.4</ele>
        <time>2021-06-26T07:53:19Z</time>
      </trkpt>
      <trkpt lat="44.70124" lon="6.00182">
        <ele>1333.4</ele>
        <time>2021-06-26T07:53:22Z</time>
      </trkpt>
      <trkpt lat="44.70123" lon="6.00178">
        <ele>1333.6</ele>
        <time>2021-06-26T07:53:23Z</time>
      </trkpt>
      <trkpt lat="44.70119" lon="6.00166">
        <ele>1334.4</ele>
        <time>2021-06-26T07:53:27Z</time>
      </trkpt>
      <trkpt lat="44.70116" lon="6.00154">
        <ele>1335.8</ele>
        <time>2021-06-26T07:53:31Z</time>
      </trkpt>
      <trkpt lat="44.70111" lon="6.00144">
        <ele>1336.6</ele>
        <time>2021-06-26T07:53:34Z</time>
      </trkpt>
      <trkpt lat="44.7011" lon="6.00142">
        <ele>1336.8</ele>
        <time>2021-06-26T07:53:35Z</time>
      </trkpt>
      <trkpt lat="44.70095" lon="6.00128">
        <ele>1337.4</ele>
        <time>2021-06-26T07:53:41Z</time>
      </trkpt>
      <trkpt lat="44.70091" lon="6.00123">
        <ele>1337.6</ele>
        <time>2021-06-26T07:53:43Z</time>
      </trkpt>
      <trkpt lat="44.70078" lon="6.00109">
        <ele>1338.6</ele>
        <time>2021-06-26T07:53:49Z</time>
      </trkpt>
      <trkpt lat="44.70066" lon="6.00095">
        <ele>1340</ele>
        <time>2021-06-26T07:53:55Z</time>
      </trkpt>
      <trkpt lat="44.70059" lon="6.0009">
        <ele>1340.6</ele>
        <time>2021-06-26T07:53:58Z</time>
      </trkpt>
      <trkpt lat="44.70057" lon="6.00088">
        <ele>1341</ele>
        <time>2021-06-26T07:53:59Z</time>
      </trkpt>
      <trkpt lat="44.70038" lon="6.0008">
        <ele>1342</ele>
        <time>2021-06-26T07:54:06Z</time>
      </trkpt>
      <trkpt lat="44.70035" lon="6.00079">
        <ele>1342</ele>
        <time>2021-06-26T07:54:07Z</time>
      </trkpt>
      <trkpt lat="44.70025" lon="6.00078">
        <ele>1343.2</ele>
        <time>2021-06-26T07:54:11Z</time>
      </trkpt>
      <trkpt lat="44.70015" lon="6.00076">
        <ele>1344</ele>
        <time>2021-06-26T07:54:15Z</time>
      </trkpt>
      <trkpt lat="44.70007" lon="6.00075">
        <ele>1344.6</ele>
        <time>2021-06-26T07:54:18Z</time>
      </trkpt>
      <trkpt lat="44.69993" lon="6.00069">
        <ele>1345.6</ele>
        <time>2021-06-26T07:54:24Z</time>
      </trkpt>
      <trkpt lat="44.69981" lon="6.00064">
        <ele>1346.8</ele>
        <time>2021-06-26T07:54:29Z</time>
      </trkpt>
      <trkpt lat="44.69975" lon="6.00061">
        <ele>1347.8</ele>
        <time>2021-06-26T07:54:32Z</time>
      </trkpt>
      <trkpt lat="44.69972" lon="6.00061">
        <ele>1348</ele>
        <time>2021-06-26T07:54:33Z</time>
      </trkpt>
      <trkpt lat="44.69965" lon="6.00058">
        <ele>1349.2</ele>
        <time>2021-06-26T07:54:36Z</time>
      </trkpt>
      <trkpt lat="44.69952" lon="6.00055">
        <ele>1350.2</ele>
        <time>2021-06-26T07:54:41Z</time>
      </trkpt>
      <trkpt lat="44.69949" lon="6.00055">
        <ele>1350.6</ele>
        <time>2021-06-26T07:54:42Z</time>
      </trkpt>
      <trkpt lat="44.69936" lon="6.00053">
        <ele>1351.4</ele>
        <time>2021-06-26T07:54:47Z</time>
      </trkpt>
      <trkpt lat="44.69932" lon="6.00052">
        <ele>1351.8</ele>
        <time>2021-06-26T07:54:49Z</time>
      </trkpt>
      <trkpt lat="44.69929" lon="6.00051">
        <ele>1352.2</ele>
        <time>2021-06-26T07:54:50Z</time>
      </trkpt>
      <trkpt lat="44.69926" lon="6.00051">
        <ele>1352.4</ele>
        <time>2021-06-26T07:54:51Z</time>
      </trkpt>
      <trkpt lat="44.6991" lon="6.00048">
        <ele>1353.2</ele>
        <time>2021-06-26T07:54:57Z</time>
      </trkpt>
      <trkpt lat="44.69906" lon="6.00047">
        <ele>1353.4</ele>
        <time>2021-06-26T07:54:59Z</time>
      </trkpt>
      <trkpt lat="44.69898" lon="6.00047">
        <ele>1354.4</ele>
        <time>2021-06-26T07:55:02Z</time>
      </trkpt>
      <trkpt lat="44.69889" lon="6.00048">
        <ele>1355.6</ele>
        <time>2021-06-26T07:55:06Z</time>
      </trkpt>
      <trkpt lat="44.6988" lon="6.00049">
        <ele>1356.4</ele>
        <time>2021-06-26T07:55:10Z</time>
      </trkpt>
      <trkpt lat="44.69877" lon="6.00049">
        <ele>1356.6</ele>
        <time>2021-06-26T07:55:11Z</time>
      </trkpt>
      <trkpt lat="44.69864" lon="6.00048">
        <ele>1358</ele>
        <time>2021-06-26T07:55:16Z</time>
      </trkpt>
      <trkpt lat="44.69856" lon="6.00046">
        <ele>1358.8</ele>
        <time>2021-06-26T07:55:19Z</time>
      </trkpt>
      <trkpt lat="44.69853" lon="6.00046">
        <ele>1359.2</ele>
        <time>2021-06-26T07:55:20Z</time>
      </trkpt>
      <trkpt lat="44.69851" lon="6.00046">
        <ele>1359.4</ele>
        <time>2021-06-26T07:55:21Z</time>
      </trkpt>
      <trkpt lat="44.69839" lon="6.00047">
        <ele>1360.2</ele>
        <time>2021-06-26T07:55:25Z</time>
      </trkpt>
      <trkpt lat="44.69829" lon="6.00049">
        <ele>1360.8</ele>
        <time>2021-06-26T07:55:29Z</time>
      </trkpt>
      <trkpt lat="44.69823" lon="6.00049">
        <ele>1361.2</ele>
        <time>2021-06-26T07:55:32Z</time>
      </trkpt>
      <trkpt lat="44.69813" lon="6.0005">
        <ele>1361.8</ele>
        <time>2021-06-26T07:55:36Z</time>
      </trkpt>
      <trkpt lat="44.69808" lon="6.0005">
        <ele>1362.4</ele>
        <time>2021-06-26T07:55:38Z</time>
      </trkpt>
      <trkpt lat="44.69801" lon="6.00051">
        <ele>1363.6</ele>
        <time>2021-06-26T07:55:41Z</time>
      </trkpt>
      <trkpt lat="44.69787" lon="6.00051">
        <ele>1364.2</ele>
        <time>2021-06-26T07:55:46Z</time>
      </trkpt>
      <trkpt lat="44.69783" lon="6.0005">
        <ele>1364.8</ele>
        <time>2021-06-26T07:55:48Z</time>
      </trkpt>
      <trkpt lat="44.69778" lon="6.00049">
        <ele>1365</ele>
        <time>2021-06-26T07:55:50Z</time>
      </trkpt>
      <trkpt lat="44.69771" lon="6.00048">
        <ele>1365.8</ele>
        <time>2021-06-26T07:55:53Z</time>
      </trkpt>
      <trkpt lat="44.69769" lon="6.00047">
        <ele>1366</ele>
        <time>2021-06-26T07:55:54Z</time>
      </trkpt>
      <trkpt lat="44.69759" lon="6.00044">
        <ele>1367.2</ele>
        <time>2021-06-26T07:55:58Z</time>
      </trkpt>
      <trkpt lat="44.69749" lon="6.00041">
        <ele>1368</ele>
        <time>2021-06-26T07:56:02Z</time>
      </trkpt>
      <trkpt lat="44.69747" lon="6.00041">
        <ele>1368.4</ele>
        <time>2021-06-26T07:56:03Z</time>
      </trkpt>
      <trkpt lat="44.69732" lon="6.00029">
        <ele>1369.6</ele>
        <time>2021-06-26T07:56:10Z</time>
      </trkpt>
      <trkpt lat="44.69721" lon="6.00016">
        <ele>1370.8</ele>
        <time>2021-06-26T07:56:16Z</time>
      </trkpt>
      <trkpt lat="44.69719" lon="6.00014">
        <ele>1371</ele>
        <time>2021-06-26T07:56:17Z</time>
      </trkpt>
      <trkpt lat="44.69714" lon="6.00007">
        <ele>1371.8</ele>
        <time>2021-06-26T07:56:20Z</time>
      </trkpt>
      <trkpt lat="44.6971" lon="6.00003">
        <ele>1372.2</ele>
        <time>2021-06-26T07:56:22Z</time>
      </trkpt>
      <trkpt lat="44.69704" lon="5.99996">
        <ele>1373</ele>
        <time>2021-06-26T07:56:25Z</time>
      </trkpt>
      <trkpt lat="44.69697" lon="5.99987">
        <ele>1374</ele>
        <time>2021-06-26T07:56:29Z</time>
      </trkpt>
      <trkpt lat="44.69687" lon="5.99974">
        <ele>1375</ele>
        <time>2021-06-26T07:56:34Z</time>
      </trkpt>
      <trkpt lat="44.69681" lon="5.99964">
        <ele>1376.4</ele>
        <time>2021-06-26T07:56:38Z</time>
      </trkpt>
      <trkpt lat="44.69669" lon="5.9995">
        <ele>1377.4</ele>
        <time>2021-06-26T07:56:44Z</time>
      </trkpt>
      <trkpt lat="44.69667" lon="5.99948">
        <ele>1377.6</ele>
        <time>2021-06-26T07:56:45Z</time>
      </trkpt>
      <trkpt lat="44.69665" lon="5.99947">
        <ele>1377.8</ele>
        <time>2021-06-26T07:56:46Z</time>
      </trkpt>
      <trkpt lat="44.69657" lon="5.99944">
        <ele>1378.6</ele>
        <time>2021-06-26T07:56:49Z</time>
      </trkpt>
      <trkpt lat="44.69647" lon="5.99944">
        <ele>1379.4</ele>
        <time>2021-06-26T07:56:53Z</time>
      </trkpt>
      <trkpt lat="44.69642" lon="5.99945">
        <ele>1379.6</ele>
        <time>2021-06-26T07:56:55Z</time>
      </trkpt>
      <trkpt lat="44.69629" lon="5.99947">
        <ele>1380.6</ele>
        <time>2021-06-26T07:57:00Z</time>
      </trkpt>
      <trkpt lat="44.69624" lon="5.99948">
        <ele>1381</ele>
        <time>2021-06-26T07:57:02Z</time>
      </trkpt>
      <trkpt lat="44.69616" lon="5.9995">
        <ele>1381.8</ele>
        <time>2021-06-26T07:57:05Z</time>
      </trkpt>
      <trkpt lat="44.696" lon="5.99952">
        <ele>1382.6</ele>
        <time>2021-06-26T07:57:10Z</time>
      </trkpt>
      <trkpt lat="44.69598" lon="5.99951">
        <ele>1382.8</ele>
        <time>2021-06-26T07:57:11Z</time>
      </trkpt>
      <trkpt lat="44.69579" lon="5.99945">
        <ele>1383.8</ele>
        <time>2021-06-26T07:57:18Z</time>
      </trkpt>
      <trkpt lat="44.6957" lon="5.99941">
        <ele>1384.8</ele>
        <time>2021-06-26T07:57:22Z</time>
      </trkpt>
      <trkpt lat="44.69564" lon="5.99938">
        <ele>1385.4</ele>
        <time>2021-06-26T07:57:24Z</time>
      </trkpt>
      <trkpt lat="44.6956" lon="5.99936">
        <ele>1385.6</ele>
        <time>2021-06-26T07:57:26Z</time>
      </trkpt>
      <trkpt lat="44.69555" lon="5.99932">
        <ele>1386</ele>
        <time>2021-06-26T07:57:28Z</time>
      </trkpt>
      <trkpt lat="44.69544" lon="5.99922">
        <ele>1387.2</ele>
        <time>2021-06-26T07:57:33Z</time>
      </trkpt>
      <trkpt lat="44.69539" lon="5.99916">
        <ele>1387.8</ele>
        <time>2021-06-26T07:57:36Z</time>
      </trkpt>
      <trkpt lat="44.69533" lon="5.9991">
        <ele>1388.4</ele>
        <time>2021-06-26T07:57:39Z</time>
      </trkpt>
      <trkpt lat="44.69526" lon="5.999">
        <ele>1389.6</ele>
        <time>2021-06-26T07:57:43Z</time>
      </trkpt>
      <trkpt lat="44.69524" lon="5.99895">
        <ele>1390</ele>
        <time>2021-06-26T07:57:45Z</time>
      </trkpt>
      <trkpt lat="44.69522" lon="5.9989">
        <ele>1390.6</ele>
        <time>2021-06-26T07:57:47Z</time>
      </trkpt>
      <trkpt lat="44.69516" lon="5.99875">
        <ele>1392</ele>
        <time>2021-06-26T07:57:52Z</time>
      </trkpt>
      <trkpt lat="44.69514" lon="5.9987">
        <ele>1392.6</ele>
        <time>2021-06-26T07:57:54Z</time>
      </trkpt>
      <trkpt lat="44.69509" lon="5.99861">
        <ele>1393.2</ele>
        <time>2021-06-26T07:57:57Z</time>
      </trkpt>
      <trkpt lat="44.69506" lon="5.99856">
        <ele>1393.8</ele>
        <time>2021-06-26T07:57:59Z</time>
      </trkpt>
      <trkpt lat="44.69503" lon="5.9985">
        <ele>1394.2</ele>
        <time>2021-06-26T07:58:01Z</time>
      </trkpt>
      <trkpt lat="44.69501" lon="5.99844">
        <ele>1394.6</ele>
        <time>2021-06-26T07:58:03Z</time>
      </trkpt>
      <trkpt lat="44.69498" lon="5.99835">
        <ele>1395.2</ele>
        <time>2021-06-26T07:58:06Z</time>
      </trkpt>
      <trkpt lat="44.69495" lon="5.99824">
        <ele>1396.4</ele>
        <time>2021-06-26T07:58:10Z</time>
      </trkpt>
      <trkpt lat="44.69493" lon="5.99815">
        <ele>1397</ele>
        <time>2021-06-26T07:58:13Z</time>
      </trkpt>
      <trkpt lat="44.69492" lon="5.99809">
        <ele>1397.6</ele>
        <time>2021-06-26T07:58:15Z</time>
      </trkpt>
      <trkpt lat="44.69492" lon="5.99799">
        <ele>1398.8</ele>
        <time>2021-06-26T07:58:18Z</time>
      </trkpt>
      <trkpt lat="44.69491" lon="5.99786">
        <ele>1399.8</ele>
        <time>2021-06-26T07:58:22Z</time>
      </trkpt>
      <trkpt lat="44.69489" lon="5.99777">
        <ele>1400.4</ele>
        <time>2021-06-26T07:58:25Z</time>
      </trkpt>
      <trkpt lat="44.69487" lon="5.99767">
        <ele>1401</ele>
        <time>2021-06-26T07:58:28Z</time>
      </trkpt>
      <trkpt lat="44.69483" lon="5.99757">
        <ele>1402.2</ele>
        <time>2021-06-26T07:58:32Z</time>
      </trkpt>
      <trkpt lat="44.69481" lon="5.99752">
        <ele>1402.6</ele>
        <time>2021-06-26T07:58:34Z</time>
      </trkpt>
      <trkpt lat="44.69476" lon="5.99739">
        <ele>1403.4</ele>
        <time>2021-06-26T07:58:39Z</time>
      </trkpt>
      <trkpt lat="44.69473" lon="5.99731">
        <ele>1403.8</ele>
        <time>2021-06-26T07:58:42Z</time>
      </trkpt>
      <trkpt lat="44.69472" lon="5.99725">
        <ele>1404.2</ele>
        <time>2021-06-26T07:58:44Z</time>
      </trkpt>
      <trkpt lat="44.69467" lon="5.99713">
        <ele>1405.6</ele>
        <time>2021-06-26T07:58:48Z</time>
      </trkpt>
      <trkpt lat="44.69466" lon="5.9971">
        <ele>1405.6</ele>
        <time>2021-06-26T07:58:49Z</time>
      </trkpt>
      <trkpt lat="44.69459" lon="5.99697">
        <ele>1406.6</ele>
        <time>2021-06-26T07:58:54Z</time>
      </trkpt>
      <trkpt lat="44.69452" lon="5.99685">
        <ele>1407.8</ele>
        <time>2021-06-26T07:58:59Z</time>
      </trkpt>
      <trkpt lat="44.69448" lon="5.99674">
        <ele>1408.8</ele>
        <time>2021-06-26T07:59:03Z</time>
      </trkpt>
      <trkpt lat="44.69444" lon="5.9966">
        <ele>1409.8</ele>
        <time>2021-06-26T07:59:08Z</time>
      </trkpt>
      <trkpt lat="44.69442" lon="5.99655">
        <ele>1410.2</ele>
        <time>2021-06-26T07:59:10Z</time>
      </trkpt>
      <trkpt lat="44.69439" lon="5.99647">
        <ele>1411.2</ele>
        <time>2021-06-26T07:59:13Z</time>
      </trkpt>
      <trkpt lat="44.69435" lon="5.99636">
        <ele>1412.2</ele>
        <time>2021-06-26T07:59:17Z</time>
      </trkpt>
      <trkpt lat="44.69433" lon="5.99634">
        <ele>1412.4</ele>
        <time>2021-06-26T07:59:18Z</time>
      </trkpt>
      <trkpt lat="44.69429" lon="5.99625">
        <ele>1413.2</ele>
        <time>2021-06-26T07:59:22Z</time>
      </trkpt>
      <trkpt lat="44.69424" lon="5.99616">
        <ele>1414</ele>
        <time>2021-06-26T07:59:26Z</time>
      </trkpt>
      <trkpt lat="44.69422" lon="5.99611">
        <ele>1414.4</ele>
        <time>2021-06-26T07:59:28Z</time>
      </trkpt>
      <trkpt lat="44.69418" lon="5.996">
        <ele>1415.4</ele>
        <time>2021-06-26T07:59:32Z</time>
      </trkpt>
      <trkpt lat="44.69414" lon="5.9959">
        <ele>1416</ele>
        <time>2021-06-26T07:59:36Z</time>
      </trkpt>
      <trkpt lat="44.69413" lon="5.99587">
        <ele>1416.4</ele>
        <time>2021-06-26T07:59:37Z</time>
      </trkpt>
      <trkpt lat="44.69416" lon="5.99576">
        <ele>1417.8</ele>
        <time>2021-06-26T07:59:41Z</time>
      </trkpt>
      <trkpt lat="44.69419" lon="5.99576">
        <ele>1418.4</ele>
        <time>2021-06-26T07:59:43Z</time>
      </trkpt>
      <trkpt lat="44.69422" lon="5.9958">
        <ele>1418.8</ele>
        <time>2021-06-26T07:59:44Z</time>
      </trkpt>
      <trkpt lat="44.69428" lon="5.99592">
        <ele>1420</ele>
        <time>2021-06-26T07:59:48Z</time>
      </trkpt>
      <trkpt lat="44.69439" lon="5.99611">
        <ele>1421</ele>
        <time>2021-06-26T07:59:54Z</time>
      </trkpt>
      <trkpt lat="44.69441" lon="5.99613">
        <ele>1421.2</ele>
        <time>2021-06-26T07:59:55Z</time>
      </trkpt>
      <trkpt lat="44.69451" lon="5.99626">
        <ele>1422.4</ele>
        <time>2021-06-26T08:00:00Z</time>
      </trkpt>
      <trkpt lat="44.69455" lon="5.99632">
        <ele>1422.8</ele>
        <time>2021-06-26T08:00:02Z</time>
      </trkpt>
      <trkpt lat="44.69461" lon="5.99639">
        <ele>1423.6</ele>
        <time>2021-06-26T08:00:05Z</time>
      </trkpt>
      <trkpt lat="44.69476" lon="5.99656">
        <ele>1424.6</ele>
        <time>2021-06-26T08:00:12Z</time>
      </trkpt>
      <trkpt lat="44.69478" lon="5.99659">
        <ele>1424.6</ele>
        <time>2021-06-26T08:00:13Z</time>
      </trkpt>
      <trkpt lat="44.69487" lon="5.9967">
        <ele>1425.8</ele>
        <time>2021-06-26T08:00:18Z</time>
      </trkpt>
      <trkpt lat="44.69492" lon="5.99678">
        <ele>1426.8</ele>
        <time>2021-06-26T08:00:21Z</time>
      </trkpt>
      <trkpt lat="44.69495" lon="5.99683">
        <ele>1427.4</ele>
        <time>2021-06-26T08:00:23Z</time>
      </trkpt>
      <trkpt lat="44.69499" lon="5.99688">
        <ele>1428</ele>
        <time>2021-06-26T08:00:25Z</time>
      </trkpt>
      <trkpt lat="44.69506" lon="5.99701">
        <ele>1429</ele>
        <time>2021-06-26T08:00:29Z</time>
      </trkpt>
      <trkpt lat="44.69508" lon="5.99705">
        <ele>1429.2</ele>
        <time>2021-06-26T08:00:30Z</time>
      </trkpt>
      <trkpt lat="44.69522" lon="5.99721">
        <ele>1430</ele>
        <time>2021-06-26T08:00:36Z</time>
      </trkpt>
      <trkpt lat="44.69524" lon="5.99723">
        <ele>1430.2</ele>
        <time>2021-06-26T08:00:37Z</time>
      </trkpt>
      <trkpt lat="44.69543" lon="5.99731">
        <ele>1431.2</ele>
        <time>2021-06-26T08:00:43Z</time>
      </trkpt>
      <trkpt lat="44.69546" lon="5.99733">
        <ele>1431.6</ele>
        <time>2021-06-26T08:00:44Z</time>
      </trkpt>
      <trkpt lat="44.69554" lon="5.99744">
        <ele>1432.2</ele>
        <time>2021-06-26T08:00:48Z</time>
      </trkpt>
      <trkpt lat="44.69556" lon="5.99748">
        <ele>1432.6</ele>
        <time>2021-06-26T08:00:49Z</time>
      </trkpt>
      <trkpt lat="44.69564" lon="5.9976">
        <ele>1433.4</ele>
        <time>2021-06-26T08:00:53Z</time>
      </trkpt>
      <trkpt lat="44.69575" lon="5.9977">
        <ele>1434.2</ele>
        <time>2021-06-26T08:00:57Z</time>
      </trkpt>
      <trkpt lat="44.69578" lon="5.99772">
        <ele>1434.4</ele>
        <time>2021-06-26T08:00:58Z</time>
      </trkpt>
      <trkpt lat="44.69592" lon="5.99776">
        <ele>1435.2</ele>
        <time>2021-06-26T08:01:03Z</time>
      </trkpt>
      <trkpt lat="44.69598" lon="5.99776">
        <ele>1435.8</ele>
        <time>2021-06-26T08:01:05Z</time>
      </trkpt>
      <trkpt lat="44.69614" lon="5.99777">
        <ele>1436.8</ele>
        <time>2021-06-26T08:01:10Z</time>
      </trkpt>
      <trkpt lat="44.6962" lon="5.99779">
        <ele>1437.2</ele>
        <time>2021-06-26T08:01:12Z</time>
      </trkpt>
      <trkpt lat="44.69629" lon="5.99783">
        <ele>1438</ele>
        <time>2021-06-26T08:01:15Z</time>
      </trkpt>
      <trkpt lat="44.69643" lon="5.99786">
        <ele>1438.6</ele>
        <time>2021-06-26T08:01:20Z</time>
      </trkpt>
      <trkpt lat="44.69649" lon="5.99787">
        <ele>1439</ele>
        <time>2021-06-26T08:01:22Z</time>
      </trkpt>
      <trkpt lat="44.69666" lon="5.99789">
        <ele>1440.2</ele>
        <time>2021-06-26T08:01:28Z</time>
      </trkpt>
      <trkpt lat="44.69677" lon="5.99789">
        <ele>1441.4</ele>
        <time>2021-06-26T08:01:32Z</time>
      </trkpt>
      <trkpt lat="44.6968" lon="5.99789">
        <ele>1441.8</ele>
        <time>2021-06-26T08:01:33Z</time>
      </trkpt>
      <trkpt lat="44.69685" lon="5.99789">
        <ele>1442.4</ele>
        <time>2021-06-26T08:01:35Z</time>
      </trkpt>
      <trkpt lat="44.69691" lon="5.99789">
        <ele>1442.8</ele>
        <time>2021-06-26T08:01:37Z</time>
      </trkpt>
      <trkpt lat="44.697" lon="5.99789">
        <ele>1443.6</ele>
        <time>2021-06-26T08:01:40Z</time>
      </trkpt>
      <trkpt lat="44.69713" lon="5.99792">
        <ele>1444</ele>
        <time>2021-06-26T08:01:44Z</time>
      </trkpt>
      <trkpt lat="44.69719" lon="5.99794">
        <ele>1444.4</ele>
        <time>2021-06-26T08:01:46Z</time>
      </trkpt>
      <trkpt lat="44.69731" lon="5.998">
        <ele>1445.4</ele>
        <time>2021-06-26T08:01:50Z</time>
      </trkpt>
      <trkpt lat="44.69738" lon="5.99804">
        <ele>1445.8</ele>
        <time>2021-06-26T08:01:53Z</time>
      </trkpt>
      <trkpt lat="44.69748" lon="5.99808">
        <ele>1446.4</ele>
        <time>2021-06-26T08:01:57Z</time>
      </trkpt>
      <trkpt lat="44.69758" lon="5.99811">
        <ele>1447.6</ele>
        <time>2021-06-26T08:02:01Z</time>
      </trkpt>
      <trkpt lat="44.69761" lon="5.99811">
        <ele>1447.6</ele>
        <time>2021-06-26T08:02:02Z</time>
      </trkpt>
      <trkpt lat="44.69768" lon="5.99813">
        <ele>1448</ele>
        <time>2021-06-26T08:02:05Z</time>
      </trkpt>
      <trkpt lat="44.69773" lon="5.99814">
        <ele>1448.4</ele>
        <time>2021-06-26T08:02:07Z</time>
      </trkpt>
      <trkpt lat="44.69789" lon="5.99818">
        <ele>1449.6</ele>
        <time>2021-06-26T08:02:13Z</time>
      </trkpt>
      <trkpt lat="44.69791" lon="5.99818">
        <ele>1449.8</ele>
        <time>2021-06-26T08:02:14Z</time>
      </trkpt>
      <trkpt lat="44.69804" lon="5.99819">
        <ele>1450.6</ele>
        <time>2021-06-26T08:02:19Z</time>
      </trkpt>
      <trkpt lat="44.69814" lon="5.9982">
        <ele>1451.8</ele>
        <time>2021-06-26T08:02:23Z</time>
      </trkpt>
      <trkpt lat="44.69822" lon="5.9982">
        <ele>1452.4</ele>
        <time>2021-06-26T08:02:26Z</time>
      </trkpt>
      <trkpt lat="44.69827" lon="5.99819">
        <ele>1452.8</ele>
        <time>2021-06-26T08:02:28Z</time>
      </trkpt>
      <trkpt lat="44.6984" lon="5.99812">
        <ele>1454.2</ele>
        <time>2021-06-26T08:02:33Z</time>
      </trkpt>
      <trkpt lat="44.69845" lon="5.99809">
        <ele>1454.4</ele>
        <time>2021-06-26T08:02:35Z</time>
      </trkpt>
      <trkpt lat="44.69852" lon="5.99802">
        <ele>1455.2</ele>
        <time>2021-06-26T08:02:38Z</time>
      </trkpt>
      <trkpt lat="44.69864" lon="5.99794">
        <ele>1456.2</ele>
        <time>2021-06-26T08:02:43Z</time>
      </trkpt>
      <trkpt lat="44.6988" lon="5.99795">
        <ele>1457.2</ele>
        <time>2021-06-26T08:02:49Z</time>
      </trkpt>
      <trkpt lat="44.69887" lon="5.99799">
        <ele>1458</ele>
        <time>2021-06-26T08:02:52Z</time>
      </trkpt>
      <trkpt lat="44.69889" lon="5.998">
        <ele>1458.2</ele>
        <time>2021-06-26T08:02:53Z</time>
      </trkpt>
      <trkpt lat="44.69901" lon="5.99806">
        <ele>1459.4</ele>
        <time>2021-06-26T08:02:58Z</time>
      </trkpt>
      <trkpt lat="44.69903" lon="5.99807">
        <ele>1459.6</ele>
        <time>2021-06-26T08:02:59Z</time>
      </trkpt>
      <trkpt lat="44.69905" lon="5.99807">
        <ele>1459.8</ele>
        <time>2021-06-26T08:03:00Z</time>
      </trkpt>
      <trkpt lat="44.69909" lon="5.99804">
        <ele>1460.4</ele>
        <time>2021-06-26T08:03:02Z</time>
      </trkpt>
      <trkpt lat="44.6991" lon="5.99801">
        <ele>1460.6</ele>
        <time>2021-06-26T08:03:03Z</time>
      </trkpt>
      <trkpt lat="44.6991" lon="5.99797">
        <ele>1461.2</ele>
        <time>2021-06-26T08:03:04Z</time>
      </trkpt>
      <trkpt lat="44.69907" lon="5.99792">
        <ele>1461.4</ele>
        <time>2021-06-26T08:03:06Z</time>
      </trkpt>
      <trkpt lat="44.69905" lon="5.99789">
        <ele>1461.6</ele>
        <time>2021-06-26T08:03:07Z</time>
      </trkpt>
      <trkpt lat="44.69889" lon="5.99776">
        <ele>1462.4</ele>
        <time>2021-06-26T08:03:15Z</time>
      </trkpt>
      <trkpt lat="44.69881" lon="5.99772">
        <ele>1463.6</ele>
        <time>2021-06-26T08:03:19Z</time>
      </trkpt>
      <trkpt lat="44.69873" lon="5.99769">
        <ele>1464.8</ele>
        <time>2021-06-26T08:03:23Z</time>
      </trkpt>
      <trkpt lat="44.69871" lon="5.99768">
        <ele>1465</ele>
        <time>2021-06-26T08:03:24Z</time>
      </trkpt>
      <trkpt lat="44.69865" lon="5.99767">
        <ele>1465.8</ele>
        <time>2021-06-26T08:03:27Z</time>
      </trkpt>
      <trkpt lat="44.69856" lon="5.99766">
        <ele>1467</ele>
        <time>2021-06-26T08:03:32Z</time>
      </trkpt>
      <trkpt lat="44.69846" lon="5.99766">
        <ele>1468.2</ele>
        <time>2021-06-26T08:03:37Z</time>
      </trkpt>
      <trkpt lat="44.69839" lon="5.99767">
        <ele>1469.2</ele>
        <time>2021-06-26T08:03:41Z</time>
      </trkpt>
      <trkpt lat="44.69837" lon="5.99767">
        <ele>1469.2</ele>
        <time>2021-06-26T08:03:42Z</time>
      </trkpt>
      <trkpt lat="44.6983" lon="5.99767">
        <ele>1470.4</ele>
        <time>2021-06-26T08:03:46Z</time>
      </trkpt>
      <trkpt lat="44.69823" lon="5.99766">
        <ele>1471.2</ele>
        <time>2021-06-26T08:03:50Z</time>
      </trkpt>
      <trkpt lat="44.69821" lon="5.99766">
        <ele>1471.6</ele>
        <time>2021-06-26T08:03:51Z</time>
      </trkpt>
      <trkpt lat="44.69808" lon="5.99761">
        <ele>1472.6</ele>
        <time>2021-06-26T08:03:58Z</time>
      </trkpt>
      <trkpt lat="44.69801" lon="5.99755">
        <ele>1473.6</ele>
        <time>2021-06-26T08:04:03Z</time>
      </trkpt>
      <trkpt lat="44.69796" lon="5.99749">
        <ele>1475</ele>
        <time>2021-06-26T08:04:07Z</time>
      </trkpt>
      <trkpt lat="44.6979" lon="5.99742">
        <ele>1476.2</ele>
        <time>2021-06-26T08:04:12Z</time>
      </trkpt>
      <trkpt lat="44.69784" lon="5.99734">
        <ele>1477.4</ele>
        <time>2021-06-26T08:04:17Z</time>
      </trkpt>
      <trkpt lat="44.69783" lon="5.99733">
        <ele>1477.6</ele>
        <time>2021-06-26T08:04:18Z</time>
      </trkpt>
      <trkpt lat="44.69779" lon="5.99726">
        <ele>1478.4</ele>
        <time>2021-06-26T08:04:22Z</time>
      </trkpt>
      <trkpt lat="44.69778" lon="5.99724">
        <ele>1478.8</ele>
        <time>2021-06-26T08:04:23Z</time>
      </trkpt>
      <trkpt lat="44.69774" lon="5.99719">
        <ele>1479.6</ele>
        <time>2021-06-26T08:04:26Z</time>
      </trkpt>
      <trkpt lat="44.69767" lon="5.9971">
        <ele>1480.6</ele>
        <time>2021-06-26T08:04:31Z</time>
      </trkpt>
      <trkpt lat="44.69763" lon="5.99702">
        <ele>1482.2</ele>
        <time>2021-06-26T08:04:35Z</time>
      </trkpt>
      <trkpt lat="44.69758" lon="5.99698">
        <ele>1482.6</ele>
        <time>2021-06-26T08:04:38Z</time>
      </trkpt>
      <trkpt lat="44.69755" lon="5.99695">
        <ele>1483</ele>
        <time>2021-06-26T08:04:40Z</time>
      </trkpt>
      <trkpt lat="44.69746" lon="5.99689">
        <ele>1484</ele>
        <time>2021-06-26T08:04:45Z</time>
      </trkpt>
      <trkpt lat="44.69738" lon="5.99684">
        <ele>1485.6</ele>
        <time>2021-06-26T08:04:49Z</time>
      </trkpt>
      <trkpt lat="44.69737" lon="5.99683">
        <ele>1485.8</ele>
        <time>2021-06-26T08:04:50Z</time>
      </trkpt>
      <trkpt lat="44.69734" lon="5.99682">
        <ele>1486</ele>
        <time>2021-06-26T08:04:51Z</time>
      </trkpt>
      <trkpt lat="44.69729" lon="5.99679">
        <ele>1486.8</ele>
        <time>2021-06-26T08:04:54Z</time>
      </trkpt>
      <trkpt lat="44.69722" lon="5.99675">
        <ele>1487.6</ele>
        <time>2021-06-26T08:04:58Z</time>
      </trkpt>
      <trkpt lat="44.6972" lon="5.99674">
        <ele>1487.8</ele>
        <time>2021-06-26T08:04:59Z</time>
      </trkpt>
      <trkpt lat="44.69715" lon="5.99671">
        <ele>1488.8</ele>
        <time>2021-06-26T08:05:02Z</time>
      </trkpt>
      <trkpt lat="44.69709" lon="5.99668">
        <ele>1489.8</ele>
        <time>2021-06-26T08:05:06Z</time>
      </trkpt>
      <trkpt lat="44.69707" lon="5.99666">
        <ele>1490.2</ele>
        <time>2021-06-26T08:05:07Z</time>
      </trkpt>
      <trkpt lat="44.69699" lon="5.99661">
        <ele>1491.4</ele>
        <time>2021-06-26T08:05:12Z</time>
      </trkpt>
      <trkpt lat="44.69693" lon="5.99656">
        <ele>1492.4</ele>
        <time>2021-06-26T08:05:16Z</time>
      </trkpt>
      <trkpt lat="44.69692" lon="5.99655">
        <ele>1492.6</ele>
        <time>2021-06-26T08:05:17Z</time>
      </trkpt>
      <trkpt lat="44.69689" lon="5.99653">
        <ele>1493.2</ele>
        <time>2021-06-26T08:05:19Z</time>
      </trkpt>
      <trkpt lat="44.69686" lon="5.9965">
        <ele>1493.6</ele>
        <time>2021-06-26T08:05:21Z</time>
      </trkpt>
      <trkpt lat="44.6968" lon="5.99645">
        <ele>1494.4</ele>
        <time>2021-06-26T08:05:25Z</time>
      </trkpt>
      <trkpt lat="44.69679" lon="5.99643">
        <ele>1494.8</ele>
        <time>2021-06-26T08:05:26Z</time>
      </trkpt>
      <trkpt lat="44.69675" lon="5.99639">
        <ele>1495.6</ele>
        <time>2021-06-26T08:05:29Z</time>
      </trkpt>
      <trkpt lat="44.69667" lon="5.99633">
        <ele>1496.6</ele>
        <time>2021-06-26T08:05:34Z</time>
      </trkpt>
      <trkpt lat="44.69665" lon="5.99631">
        <ele>1497</ele>
        <time>2021-06-26T08:05:35Z</time>
      </trkpt>
      <trkpt lat="44.69663" lon="5.99628">
        <ele>1497.8</ele>
        <time>2021-06-26T08:05:37Z</time>
      </trkpt>
      <trkpt lat="44.69656" lon="5.99621">
        <ele>1499</ele>
        <time>2021-06-26T08:05:42Z</time>
      </trkpt>
      <trkpt lat="44.69653" lon="5.99618">
        <ele>1499.4</ele>
        <time>2021-06-26T08:05:44Z</time>
      </trkpt>
      <trkpt lat="44.69649" lon="5.99613">
        <ele>1500.4</ele>
        <time>2021-06-26T08:05:47Z</time>
      </trkpt>
      <trkpt lat="44.69642" lon="5.99605">
        <ele>1501.6</ele>
        <time>2021-06-26T08:05:52Z</time>
      </trkpt>
      <trkpt lat="44.69637" lon="5.99599">
        <ele>1502.6</ele>
        <time>2021-06-26T08:05:56Z</time>
      </trkpt>
      <trkpt lat="44.69631" lon="5.99593">
        <ele>1503.6</ele>
        <time>2021-06-26T08:06:01Z</time>
      </trkpt>
      <trkpt lat="44.69628" lon="5.99591">
        <ele>1504</ele>
        <time>2021-06-26T08:06:03Z</time>
      </trkpt>
      <trkpt lat="44.69621" lon="5.99585">
        <ele>1505</ele>
        <time>2021-06-26T08:06:08Z</time>
      </trkpt>
      <trkpt lat="44.69617" lon="5.99581">
        <ele>1506.2</ele>
        <time>2021-06-26T08:06:11Z</time>
      </trkpt>
      <trkpt lat="44.69611" lon="5.99576">
        <ele>1506.6</ele>
        <time>2021-06-26T08:06:15Z</time>
      </trkpt>
      <trkpt lat="44.69608" lon="5.99573">
        <ele>1507.2</ele>
        <time>2021-06-26T08:06:17Z</time>
      </trkpt>
      <trkpt lat="44.69603" lon="5.99568">
        <ele>1508.2</ele>
        <time>2021-06-26T08:06:21Z</time>
      </trkpt>
      <trkpt lat="44.696" lon="5.99564">
        <ele>1509</ele>
        <time>2021-06-26T08:06:24Z</time>
      </trkpt>
      <trkpt lat="44.69599" lon="5.99562">
        <ele>1509.4</ele>
        <time>2021-06-26T08:06:25Z</time>
      </trkpt>
      <trkpt lat="44.69593" lon="5.99554">
        <ele>1510.6</ele>
        <time>2021-06-26T08:06:30Z</time>
      </trkpt>
      <trkpt lat="44.69587" lon="5.99547">
        <ele>1511.8</ele>
        <time>2021-06-26T08:06:34Z</time>
      </trkpt>
      <trkpt lat="44.69583" lon="5.9954">
        <ele>1512.8</ele>
        <time>2021-06-26T08:06:38Z</time>
      </trkpt>
      <trkpt lat="44.69578" lon="5.99531">
        <ele>1513.8</ele>
        <time>2021-06-26T08:06:43Z</time>
      </trkpt>
      <trkpt lat="44.69576" lon="5.99525">
        <ele>1515</ele>
        <time>2021-06-26T08:06:46Z</time>
      </trkpt>
      <trkpt lat="44.6957" lon="5.99512">
        <ele>1516</ele>
        <time>2021-06-26T08:06:52Z</time>
      </trkpt>
      <trkpt lat="44.69568" lon="5.99508">
        <ele>1516.6</ele>
        <time>2021-06-26T08:06:54Z</time>
      </trkpt>
      <trkpt lat="44.69566" lon="5.99501">
        <ele>1517.4</ele>
        <time>2021-06-26T08:06:57Z</time>
      </trkpt>
      <trkpt lat="44.6956" lon="5.99487">
        <ele>1518.4</ele>
        <time>2021-06-26T08:07:03Z</time>
      </trkpt>
      <trkpt lat="44.69557" lon="5.99479">
        <ele>1519.4</ele>
        <time>2021-06-26T08:07:06Z</time>
      </trkpt>
      <trkpt lat="44.69556" lon="5.99476">
        <ele>1520</ele>
        <time>2021-06-26T08:07:07Z</time>
      </trkpt>
      <trkpt lat="44.69552" lon="5.99464">
        <ele>1521</ele>
        <time>2021-06-26T08:07:12Z</time>
      </trkpt>
      <trkpt lat="44.69551" lon="5.99457">
        <ele>1521.8</ele>
        <time>2021-06-26T08:07:15Z</time>
      </trkpt>
      <trkpt lat="44.69549" lon="5.99452">
        <ele>1522</ele>
        <time>2021-06-26T08:07:17Z</time>
      </trkpt>
      <trkpt lat="44.69548" lon="5.9945">
        <ele>1522.4</ele>
        <time>2021-06-26T08:07:18Z</time>
      </trkpt>
      <trkpt lat="44.69547" lon="5.99445">
        <ele>1523</ele>
        <time>2021-06-26T08:07:20Z</time>
      </trkpt>
      <trkpt lat="44.69544" lon="5.99435">
        <ele>1523.8</ele>
        <time>2021-06-26T08:07:24Z</time>
      </trkpt>
      <trkpt lat="44.69544" lon="5.99433">
        <ele>1524</ele>
        <time>2021-06-26T08:07:25Z</time>
      </trkpt>
      <trkpt lat="44.69542" lon="5.99424">
        <ele>1525.2</ele>
        <time>2021-06-26T08:07:29Z</time>
      </trkpt>
      <trkpt lat="44.6954" lon="5.99416">
        <ele>1525.8</ele>
        <time>2021-06-26T08:07:32Z</time>
      </trkpt>
      <trkpt lat="44.69539" lon="5.99408">
        <ele>1526.2</ele>
        <time>2021-06-26T08:07:35Z</time>
      </trkpt>
      <trkpt lat="44.69538" lon="5.99397">
        <ele>1527.4</ele>
        <time>2021-06-26T08:07:39Z</time>
      </trkpt>
      <trkpt lat="44.69536" lon="5.99385">
        <ele>1528.6</ele>
        <time>2021-06-26T08:07:44Z</time>
      </trkpt>
      <trkpt lat="44.69533" lon="5.99372">
        <ele>1529.8</ele>
        <time>2021-06-26T08:07:49Z</time>
      </trkpt>
      <trkpt lat="44.69529" lon="5.99359">
        <ele>1531</ele>
        <time>2021-06-26T08:07:54Z</time>
      </trkpt>
      <trkpt lat="44.69525" lon="5.99348">
        <ele>1531.8</ele>
        <time>2021-06-26T08:07:58Z</time>
      </trkpt>
      <trkpt lat="44.69523" lon="5.99343">
        <ele>1532</ele>
        <time>2021-06-26T08:08:00Z</time>
      </trkpt>
      <trkpt lat="44.69518" lon="5.99334">
        <ele>1532.8</ele>
        <time>2021-06-26T08:08:04Z</time>
      </trkpt>
      <trkpt lat="44.69512" lon="5.99322">
        <ele>1534</ele>
        <time>2021-06-26T08:08:09Z</time>
      </trkpt>
      <trkpt lat="44.69503" lon="5.99309">
        <ele>1535.2</ele>
        <time>2021-06-26T08:08:15Z</time>
      </trkpt>
      <trkpt lat="44.695" lon="5.99306">
        <ele>1535.8</ele>
        <time>2021-06-26T08:08:17Z</time>
      </trkpt>
      <trkpt lat="44.69499" lon="5.99304">
        <ele>1536.2</ele>
        <time>2021-06-26T08:08:18Z</time>
      </trkpt>
      <trkpt lat="44.69491" lon="5.99295">
        <ele>1537.4</ele>
        <time>2021-06-26T08:08:23Z</time>
      </trkpt>
      <trkpt lat="44.69485" lon="5.9929">
        <ele>1538.2</ele>
        <time>2021-06-26T08:08:26Z</time>
      </trkpt>
      <trkpt lat="44.69483" lon="5.99288">
        <ele>1538.4</ele>
        <time>2021-06-26T08:08:27Z</time>
      </trkpt>
      <trkpt lat="44.69479" lon="5.99283">
        <ele>1539.4</ele>
        <time>2021-06-26T08:08:30Z</time>
      </trkpt>
      <trkpt lat="44.69473" lon="5.99278">
        <ele>1540.2</ele>
        <time>2021-06-26T08:08:34Z</time>
      </trkpt>
      <trkpt lat="44.69471" lon="5.99277">
        <ele>1540.6</ele>
        <time>2021-06-26T08:08:35Z</time>
      </trkpt>
      <trkpt lat="44.69463" lon="5.99264">
        <ele>1541.6</ele>
        <time>2021-06-26T08:08:41Z</time>
      </trkpt>
      <trkpt lat="44.69461" lon="5.99257">
        <ele>1542.6</ele>
        <time>2021-06-26T08:08:44Z</time>
      </trkpt>
      <trkpt lat="44.69458" lon="5.99251">
        <ele>1543.6</ele>
        <time>2021-06-26T08:08:47Z</time>
      </trkpt>
      <trkpt lat="44.69455" lon="5.99247">
        <ele>1544</ele>
        <time>2021-06-26T08:08:49Z</time>
      </trkpt>
      <trkpt lat="44.69448" lon="5.99241">
        <ele>1544.8</ele>
        <time>2021-06-26T08:08:53Z</time>
      </trkpt>
      <trkpt lat="44.69442" lon="5.99236">
        <ele>1545.6</ele>
        <time>2021-06-26T08:08:57Z</time>
      </trkpt>
      <trkpt lat="44.69441" lon="5.99235">
        <ele>1545.8</ele>
        <time>2021-06-26T08:08:58Z</time>
      </trkpt>
      <trkpt lat="44.69435" lon="5.99229">
        <ele>1547</ele>
        <time>2021-06-26T08:09:02Z</time>
      </trkpt>
      <trkpt lat="44.69428" lon="5.99223">
        <ele>1547.6</ele>
        <time>2021-06-26T08:09:06Z</time>
      </trkpt>
      <trkpt lat="44.69425" lon="5.99219">
        <ele>1548.2</ele>
        <time>2021-06-26T08:09:08Z</time>
      </trkpt>
      <trkpt lat="44.69417" lon="5.9921">
        <ele>1549.4</ele>
        <time>2021-06-26T08:09:13Z</time>
      </trkpt>
      <trkpt lat="44.69405" lon="5.99203">
        <ele>1550.6</ele>
        <time>2021-06-26T08:09:19Z</time>
      </trkpt>
      <trkpt lat="44.69394" lon="5.99193">
        <ele>1551.4</ele>
        <time>2021-06-26T08:09:25Z</time>
      </trkpt>
      <trkpt lat="44.69391" lon="5.99189">
        <ele>1552</ele>
        <time>2021-06-26T08:09:27Z</time>
      </trkpt>
      <trkpt lat="44.69388" lon="5.99185">
        <ele>1552.4</ele>
        <time>2021-06-26T08:09:29Z</time>
      </trkpt>
      <trkpt lat="44.69378" lon="5.99173">
        <ele>1553.2</ele>
        <time>2021-06-26T08:09:35Z</time>
      </trkpt>
      <trkpt lat="44.69375" lon="5.99171">
        <ele>1553.6</ele>
        <time>2021-06-26T08:09:36Z</time>
      </trkpt>
      <trkpt lat="44.69365" lon="5.99163">
        <ele>1554.4</ele>
        <time>2021-06-26T08:09:41Z</time>
      </trkpt>
      <trkpt lat="44.69355" lon="5.99158">
        <ele>1555.2</ele>
        <time>2021-06-26T08:09:45Z</time>
      </trkpt>
      <trkpt lat="44.69353" lon="5.99156">
        <ele>1555.2</ele>
        <time>2021-06-26T08:09:46Z</time>
      </trkpt>
      <trkpt lat="44.69352" lon="5.99155">
        <ele>1555.6</ele>
        <time>2021-06-26T08:09:47Z</time>
      </trkpt>
      <trkpt lat="44.69344" lon="5.99151">
        <ele>1556.6</ele>
        <time>2021-06-26T08:09:51Z</time>
      </trkpt>
      <trkpt lat="44.6934" lon="5.99149">
        <ele>1557</ele>
        <time>2021-06-26T08:09:53Z</time>
      </trkpt>
      <trkpt lat="44.69329" lon="5.99143">
        <ele>1558.2</ele>
        <time>2021-06-26T08:09:59Z</time>
      </trkpt>
      <trkpt lat="44.69323" lon="5.99143">
        <ele>1559</ele>
        <time>2021-06-26T08:10:02Z</time>
      </trkpt>
      <trkpt lat="44.69315" lon="5.99144">
        <ele>1560.2</ele>
        <time>2021-06-26T08:10:06Z</time>
      </trkpt>
      <trkpt lat="44.69313" lon="5.99143">
        <ele>1560.6</ele>
        <time>2021-06-26T08:10:07Z</time>
      </trkpt>
      <trkpt lat="44.69307" lon="5.99142">
        <ele>1561.4</ele>
        <time>2021-06-26T08:10:10Z</time>
      </trkpt>
      <trkpt lat="44.69304" lon="5.99137">
        <ele>1562.2</ele>
        <time>2021-06-26T08:10:13Z</time>
      </trkpt>
      <trkpt lat="44.69303" lon="5.99135">
        <ele>1562.4</ele>
        <time>2021-06-26T08:10:14Z</time>
      </trkpt>
      <trkpt lat="44.69302" lon="5.99132">
        <ele>1562.6</ele>
        <time>2021-06-26T08:10:15Z</time>
      </trkpt>
      <trkpt lat="44.69304" lon="5.99127">
        <ele>1563.4</ele>
        <time>2021-06-26T08:10:17Z</time>
      </trkpt>
      <trkpt lat="44.69304" lon="5.99124">
        <ele>1564</ele>
        <time>2021-06-26T08:10:18Z</time>
      </trkpt>
      <trkpt lat="44.69302" lon="5.99111">
        <ele>1565</ele>
        <time>2021-06-26T08:10:23Z</time>
      </trkpt>
      <trkpt lat="44.69299" lon="5.99104">
        <ele>1566</ele>
        <time>2021-06-26T08:10:26Z</time>
      </trkpt>
      <trkpt lat="44.69296" lon="5.99094">
        <ele>1567.2</ele>
        <time>2021-06-26T08:10:30Z</time>
      </trkpt>
      <trkpt lat="44.69295" lon="5.99092">
        <ele>1567.4</ele>
        <time>2021-06-26T08:10:31Z</time>
      </trkpt>
      <trkpt lat="44.69294" lon="5.99084">
        <ele>1568.2</ele>
        <time>2021-06-26T08:10:35Z</time>
      </trkpt>
      <trkpt lat="44.69293" lon="5.99079">
        <ele>1568.8</ele>
        <time>2021-06-26T08:10:37Z</time>
      </trkpt>
      <trkpt lat="44.69292" lon="5.99074">
        <ele>1569.2</ele>
        <time>2021-06-26T08:10:39Z</time>
      </trkpt>
      <trkpt lat="44.69293" lon="5.9907">
        <ele>1570</ele>
        <time>2021-06-26T08:10:41Z</time>
      </trkpt>
      <trkpt lat="44.69293" lon="5.99067">
        <ele>1570.4</ele>
        <time>2021-06-26T08:10:42Z</time>
      </trkpt>
      <trkpt lat="44.69295" lon="5.99055">
        <ele>1571.6</ele>
        <time>2021-06-26T08:10:47Z</time>
      </trkpt>
      <trkpt lat="44.69296" lon="5.99053">
        <ele>1572</ele>
        <time>2021-06-26T08:10:48Z</time>
      </trkpt>
      <trkpt lat="44.69297" lon="5.99044">
        <ele>1572.8</ele>
        <time>2021-06-26T08:10:52Z</time>
      </trkpt>
      <trkpt lat="44.69298" lon="5.9903">
        <ele>1573.8</ele>
        <time>2021-06-26T08:10:57Z</time>
      </trkpt>
      <trkpt lat="44.69297" lon="5.99017">
        <ele>1575.2</ele>
        <time>2021-06-26T08:11:02Z</time>
      </trkpt>
      <trkpt lat="44.69294" lon="5.99009">
        <ele>1576</ele>
        <time>2021-06-26T08:11:05Z</time>
      </trkpt>
      <trkpt lat="44.69293" lon="5.99004">
        <ele>1576.2</ele>
        <time>2021-06-26T08:11:07Z</time>
      </trkpt>
      <trkpt lat="44.69292" lon="5.9899">
        <ele>1577</ele>
        <time>2021-06-26T08:11:12Z</time>
      </trkpt>
      <trkpt lat="44.69291" lon="5.98987">
        <ele>1577.4</ele>
        <time>2021-06-26T08:11:13Z</time>
      </trkpt>
      <trkpt lat="44.69289" lon="5.98974">
        <ele>1578.8</ele>
        <time>2021-06-26T08:11:18Z</time>
      </trkpt>
      <trkpt lat="44.69284" lon="5.98956">
        <ele>1580.2</ele>
        <time>2021-06-26T08:11:25Z</time>
      </trkpt>
      <trkpt lat="44.69283" lon="5.98949">
        <ele>1580.6</ele>
        <time>2021-06-26T08:11:28Z</time>
      </trkpt>
      <trkpt lat="44.69282" lon="5.98938">
        <ele>1581.4</ele>
        <time>2021-06-26T08:11:32Z</time>
      </trkpt>
      <trkpt lat="44.69282" lon="5.98924">
        <ele>1582.4</ele>
        <time>2021-06-26T08:11:37Z</time>
      </trkpt>
      <trkpt lat="44.69277" lon="5.98907">
        <ele>1583.4</ele>
        <time>2021-06-26T08:11:43Z</time>
      </trkpt>
      <trkpt lat="44.69271" lon="5.98888">
        <ele>1584.4</ele>
        <time>2021-06-26T08:11:49Z</time>
      </trkpt>
      <trkpt lat="44.69264" lon="5.98865">
        <ele>1585.4</ele>
        <time>2021-06-26T08:11:56Z</time>
      </trkpt>
      <trkpt lat="44.69261" lon="5.98857">
        <ele>1585.8</ele>
        <time>2021-06-26T08:11:59Z</time>
      </trkpt>
      <trkpt lat="44.69257" lon="5.98849">
        <ele>1586.4</ele>
        <time>2021-06-26T08:12:02Z</time>
      </trkpt>
      <trkpt lat="44.69255" lon="5.98845">
        <ele>1586.8</ele>
        <time>2021-06-26T08:12:04Z</time>
      </trkpt>
      <trkpt lat="44.69254" lon="5.98842">
        <ele>1587</ele>
        <time>2021-06-26T08:12:05Z</time>
      </trkpt>
      <trkpt lat="44.69249" lon="5.98833">
        <ele>1587.8</ele>
        <time>2021-06-26T08:12:09Z</time>
      </trkpt>
      <trkpt lat="44.69243" lon="5.98824">
        <ele>1588.6</ele>
        <time>2021-06-26T08:12:13Z</time>
      </trkpt>
      <trkpt lat="44.69242" lon="5.98822">
        <ele>1588.8</ele>
        <time>2021-06-26T08:12:14Z</time>
      </trkpt>
      <trkpt lat="44.69235" lon="5.9881">
        <ele>1589.8</ele>
        <time>2021-06-26T08:12:19Z</time>
      </trkpt>
      <trkpt lat="44.69228" lon="5.98799">
        <ele>1590.6</ele>
        <time>2021-06-26T08:12:24Z</time>
      </trkpt>
      <trkpt lat="44.69225" lon="5.98793">
        <ele>1591</ele>
        <time>2021-06-26T08:12:26Z</time>
      </trkpt>
      <trkpt lat="44.69216" lon="5.98778">
        <ele>1591.8</ele>
        <time>2021-06-26T08:12:32Z</time>
      </trkpt>
      <trkpt lat="44.69213" lon="5.98774">
        <ele>1592.2</ele>
        <time>2021-06-26T08:12:34Z</time>
      </trkpt>
      <trkpt lat="44.69207" lon="5.98765">
        <ele>1593</ele>
        <time>2021-06-26T08:12:38Z</time>
      </trkpt>
      <trkpt lat="44.69201" lon="5.98755">
        <ele>1593.6</ele>
        <time>2021-06-26T08:12:42Z</time>
      </trkpt>
      <trkpt lat="44.69198" lon="5.98749">
        <ele>1594</ele>
        <time>2021-06-26T08:12:44Z</time>
      </trkpt>
      <trkpt lat="44.69187" lon="5.9873">
        <ele>1595</ele>
        <time>2021-06-26T08:12:52Z</time>
      </trkpt>
      <trkpt lat="44.69186" lon="5.98728">
        <ele>1595.2</ele>
        <time>2021-06-26T08:12:53Z</time>
      </trkpt>
      <trkpt lat="44.69178" lon="5.98714">
        <ele>1596</ele>
        <time>2021-06-26T08:13:00Z</time>
      </trkpt>
      <trkpt lat="44.69176" lon="5.98712">
        <ele>1596.4</ele>
        <time>2021-06-26T08:13:01Z</time>
      </trkpt>
      <trkpt lat="44.69165" lon="5.98697">
        <ele>1597.2</ele>
        <time>2021-06-26T08:13:08Z</time>
      </trkpt>
      <trkpt lat="44.69163" lon="5.98695">
        <ele>1597.2</ele>
        <time>2021-06-26T08:13:09Z</time>
      </trkpt>
      <trkpt lat="44.69149" lon="5.98686">
        <ele>1598.4</ele>
        <time>2021-06-26T08:13:15Z</time>
      </trkpt>
      <trkpt lat="44.69147" lon="5.98686">
        <ele>1598.6</ele>
        <time>2021-06-26T08:13:16Z</time>
      </trkpt>
      <trkpt lat="44.69138" lon="5.98682">
        <ele>1599.6</ele>
        <time>2021-06-26T08:13:20Z</time>
      </trkpt>
      <trkpt lat="44.6913" lon="5.98675">
        <ele>1600</ele>
        <time>2021-06-26T08:13:24Z</time>
      </trkpt>
      <trkpt lat="44.69129" lon="5.98673">
        <ele>1600.2</ele>
        <time>2021-06-26T08:13:25Z</time>
      </trkpt>
      <trkpt lat="44.6913" lon="5.98668">
        <ele>1600.6</ele>
        <time>2021-06-26T08:13:27Z</time>
      </trkpt>
      <trkpt lat="44.69131" lon="5.98666">
        <ele>1600.8</ele>
        <time>2021-06-26T08:13:28Z</time>
      </trkpt>
      <trkpt lat="44.69138" lon="5.98665">
        <ele>1601.8</ele>
        <time>2021-06-26T08:13:31Z</time>
      </trkpt>
      <trkpt lat="44.69145" lon="5.98669">
        <ele>1602.4</ele>
        <time>2021-06-26T08:13:34Z</time>
      </trkpt>
      <trkpt lat="44.6915" lon="5.98671">
        <ele>1602.8</ele>
        <time>2021-06-26T08:13:36Z</time>
      </trkpt>
      <trkpt lat="44.69166" lon="5.98681">
        <ele>1603.8</ele>
        <time>2021-06-26T08:13:43Z</time>
      </trkpt>
      <trkpt lat="44.69168" lon="5.98683">
        <ele>1603.8</ele>
        <time>2021-06-26T08:13:44Z</time>
      </trkpt>
      <trkpt lat="44.69175" lon="5.9869">
        <ele>1605</ele>
        <time>2021-06-26T08:13:48Z</time>
      </trkpt>
      <trkpt lat="44.69181" lon="5.98695">
        <ele>1605.6</ele>
        <time>2021-06-26T08:13:51Z</time>
      </trkpt>
      <trkpt lat="44.69187" lon="5.98699">
        <ele>1606</ele>
        <time>2021-06-26T08:13:54Z</time>
      </trkpt>
      <trkpt lat="44.69198" lon="5.9871">
        <ele>1606.8</ele>
        <time>2021-06-26T08:14:00Z</time>
      </trkpt>
      <trkpt lat="44.69212" lon="5.98723">
        <ele>1608</ele>
        <time>2021-06-26T08:14:06Z</time>
      </trkpt>
      <trkpt lat="44.69224" lon="5.98737">
        <ele>1609</ele>
        <time>2021-06-26T08:14:12Z</time>
      </trkpt>
      <trkpt lat="44.69234" lon="5.9875">
        <ele>1610</ele>
        <time>2021-06-26T08:14:17Z</time>
      </trkpt>
      <trkpt lat="44.69238" lon="5.98755">
        <ele>1610.6</ele>
        <time>2021-06-26T08:14:19Z</time>
      </trkpt>
      <trkpt lat="44.69243" lon="5.98762">
        <ele>1611.4</ele>
        <time>2021-06-26T08:14:22Z</time>
      </trkpt>
      <trkpt lat="44.69251" lon="5.98773">
        <ele>1612.4</ele>
        <time>2021-06-26T08:14:27Z</time>
      </trkpt>
      <trkpt lat="44.69259" lon="5.98788">
        <ele>1613.6</ele>
        <time>2021-06-26T08:14:33Z</time>
      </trkpt>
      <trkpt lat="44.69262" lon="5.98795">
        <ele>1614.4</ele>
        <time>2021-06-26T08:14:36Z</time>
      </trkpt>
      <trkpt lat="44.69264" lon="5.98797">
        <ele>1614.8</ele>
        <time>2021-06-26T08:14:37Z</time>
      </trkpt>
      <trkpt lat="44.69269" lon="5.98794">
        <ele>1615.4</ele>
        <time>2021-06-26T08:14:40Z</time>
      </trkpt>
      <trkpt lat="44.6927" lon="5.98786">
        <ele>1615.8</ele>
        <time>2021-06-26T08:14:43Z</time>
      </trkpt>
      <trkpt lat="44.69268" lon="5.98783">
        <ele>1616.2</ele>
        <time>2021-06-26T08:14:44Z</time>
      </trkpt>
      <trkpt lat="44.69261" lon="5.98776">
        <ele>1616.8</ele>
        <time>2021-06-26T08:14:48Z</time>
      </trkpt>
      <trkpt lat="44.69255" lon="5.98767">
        <ele>1618</ele>
        <time>2021-06-26T08:14:52Z</time>
      </trkpt>
      <trkpt lat="44.69243" lon="5.98747">
        <ele>1618.8</ele>
        <time>2021-06-26T08:15:00Z</time>
      </trkpt>
      <trkpt lat="44.69234" lon="5.98738">
        <ele>1619.8</ele>
        <time>2021-06-26T08:15:05Z</time>
      </trkpt>
      <trkpt lat="44.69233" lon="5.98736">
        <ele>1620.4</ele>
        <time>2021-06-26T08:15:08Z</time>
      </trkpt>
      <trkpt lat="44.69233" lon="5.98736">
        <ele>1620.4</ele>
        <time>2021-06-26T08:15:09Z</time>
      </trkpt>
      <trkpt lat="44.6923" lon="5.98731">
        <ele>1620.6</ele>
        <time>2021-06-26T08:16:31Z</time>
      </trkpt>
      <trkpt lat="44.69227" lon="5.98725">
        <ele>1620.8</ele>
        <time>2021-06-26T08:16:34Z</time>
      </trkpt>
      <trkpt lat="44.69219" lon="5.98713">
        <ele>1621</ele>
        <time>2021-06-26T08:16:40Z</time>
      </trkpt>
      <trkpt lat="44.69215" lon="5.98708">
        <ele>1621.4</ele>
        <time>2021-06-26T08:16:43Z</time>
      </trkpt>
      <trkpt lat="44.69212" lon="5.98705">
        <ele>1621.8</ele>
        <time>2021-06-26T08:16:45Z</time>
      </trkpt>
      <trkpt lat="44.6921" lon="5.98703">
        <ele>1621.8</ele>
        <time>2021-06-26T08:16:46Z</time>
      </trkpt>
      <trkpt lat="44.69206" lon="5.98697">
        <ele>1622.8</ele>
        <time>2021-06-26T08:16:50Z</time>
      </trkpt>
      <trkpt lat="44.69203" lon="5.98695">
        <ele>1623.6</ele>
        <time>2021-06-26T08:16:52Z</time>
      </trkpt>
      <trkpt lat="44.69199" lon="5.9869">
        <ele>1624</ele>
        <time>2021-06-26T08:16:55Z</time>
      </trkpt>
      <trkpt lat="44.69194" lon="5.98684">
        <ele>1625</ele>
        <time>2021-06-26T08:16:59Z</time>
      </trkpt>
      <trkpt lat="44.69193" lon="5.98683">
        <ele>1625.2</ele>
        <time>2021-06-26T08:17:00Z</time>
      </trkpt>
      <trkpt lat="44.69185" lon="5.98672">
        <ele>1626</ele>
        <time>2021-06-26T08:17:07Z</time>
      </trkpt>
      <trkpt lat="44.69183" lon="5.98669">
        <ele>1626.4</ele>
        <time>2021-06-26T08:17:09Z</time>
      </trkpt>
      <trkpt lat="44.6918" lon="5.98665">
        <ele>1627</ele>
        <time>2021-06-26T08:17:12Z</time>
      </trkpt>
      <trkpt lat="44.69177" lon="5.98662">
        <ele>1627.2</ele>
        <time>2021-06-26T08:17:14Z</time>
      </trkpt>
      <trkpt lat="44.69174" lon="5.98657">
        <ele>1627.8</ele>
        <time>2021-06-26T08:17:17Z</time>
      </trkpt>
      <trkpt lat="44.69173" lon="5.98654">
        <ele>1628</ele>
        <time>2021-06-26T08:17:18Z</time>
      </trkpt>
      <trkpt lat="44.69168" lon="5.98644">
        <ele>1628.6</ele>
        <time>2021-06-26T08:17:22Z</time>
      </trkpt>
      <trkpt lat="44.69167" lon="5.98639">
        <ele>1629</ele>
        <time>2021-06-26T08:17:24Z</time>
      </trkpt>
      <trkpt lat="44.69167" lon="5.98636">
        <ele>1629.2</ele>
        <time>2021-06-26T08:17:25Z</time>
      </trkpt>
      <trkpt lat="44.69166" lon="5.98623">
        <ele>1630.6</ele>
        <time>2021-06-26T08:17:29Z</time>
      </trkpt>
      <trkpt lat="44.69166" lon="5.98618">
        <ele>1631</ele>
        <time>2021-06-26T08:17:31Z</time>
      </trkpt>
      <trkpt lat="44.69166" lon="5.98616">
        <ele>1631.6</ele>
        <time>2021-06-26T08:17:32Z</time>
      </trkpt>
      <trkpt lat="44.69166" lon="5.98605">
        <ele>1632.4</ele>
        <time>2021-06-26T08:17:36Z</time>
      </trkpt>
      <trkpt lat="44.69167" lon="5.98603">
        <ele>1632.6</ele>
        <time>2021-06-26T08:17:37Z</time>
      </trkpt>
      <trkpt lat="44.69169" lon="5.98589">
        <ele>1633.8</ele>
        <time>2021-06-26T08:17:43Z</time>
      </trkpt>
      <trkpt lat="44.69169" lon="5.98586">
        <ele>1634</ele>
        <time>2021-06-26T08:17:44Z</time>
      </trkpt>
      <trkpt lat="44.69171" lon="5.98574">
        <ele>1634.8</ele>
        <time>2021-06-26T08:17:48Z</time>
      </trkpt>
      <trkpt lat="44.69175" lon="5.98562">
        <ele>1635.6</ele>
        <time>2021-06-26T08:17:53Z</time>
      </trkpt>
      <trkpt lat="44.69176" lon="5.98559">
        <ele>1635.8</ele>
        <time>2021-06-26T08:17:54Z</time>
      </trkpt>
      <trkpt lat="44.69183" lon="5.98548">
        <ele>1636.8</ele>
        <time>2021-06-26T08:17:59Z</time>
      </trkpt>
      <trkpt lat="44.69189" lon="5.98537">
        <ele>1637.2</ele>
        <time>2021-06-26T08:18:04Z</time>
      </trkpt>
      <trkpt lat="44.69196" lon="5.98528">
        <ele>1637.8</ele>
        <time>2021-06-26T08:18:09Z</time>
      </trkpt>
      <trkpt lat="44.69205" lon="5.98516">
        <ele>1638.6</ele>
        <time>2021-06-26T08:18:16Z</time>
      </trkpt>
      <trkpt lat="44.69208" lon="5.98513">
        <ele>1639</ele>
        <time>2021-06-26T08:18:18Z</time>
      </trkpt>
      <trkpt lat="44.69209" lon="5.98512">
        <ele>1639.4</ele>
        <time>2021-06-26T08:18:21Z</time>
      </trkpt>
      <trkpt lat="44.69203" lon="5.98517">
        <ele>1639.8</ele>
        <time>2021-06-26T08:20:43Z</time>
      </trkpt>
      <trkpt lat="44.69196" lon="5.98524">
        <ele>1639.6</ele>
        <time>2021-06-26T08:20:45Z</time>
      </trkpt>
      <trkpt lat="44.69188" lon="5.98534">
        <ele>1639.4</ele>
        <time>2021-06-26T08:20:47Z</time>
      </trkpt>
      <trkpt lat="44.69176" lon="5.98552">
        <ele>1638.4</ele>
        <time>2021-06-26T08:20:50Z</time>
      </trkpt>
      <trkpt lat="44.6917" lon="5.98565">
        <ele>1637.6</ele>
        <time>2021-06-26T08:20:52Z</time>
      </trkpt>
      <trkpt lat="44.69168" lon="5.98571">
        <ele>1637.2</ele>
        <time>2021-06-26T08:20:53Z</time>
      </trkpt>
      <trkpt lat="44.69163" lon="5.98606">
        <ele>1635.8</ele>
        <time>2021-06-26T08:20:58Z</time>
      </trkpt>
      <trkpt lat="44.69162" lon="5.98613">
        <ele>1635.6</ele>
        <time>2021-06-26T08:20:59Z</time>
      </trkpt>
      <trkpt lat="44.69162" lon="5.98619">
        <ele>1635</ele>
        <time>2021-06-26T08:21:00Z</time>
      </trkpt>
      <trkpt lat="44.69162" lon="5.98629">
        <ele>1634.6</ele>
        <time>2021-06-26T08:21:02Z</time>
      </trkpt>
      <trkpt lat="44.69163" lon="5.98632">
        <ele>1634.4</ele>
        <time>2021-06-26T08:21:03Z</time>
      </trkpt>
      <trkpt lat="44.69164" lon="5.9864">
        <ele>1633.2</ele>
        <time>2021-06-26T08:21:05Z</time>
      </trkpt>
      <trkpt lat="44.69165" lon="5.98643">
        <ele>1632.4</ele>
        <time>2021-06-26T08:21:08Z</time>
      </trkpt>
      <trkpt lat="44.69165" lon="5.98643">
        <ele>1632</ele>
        <time>2021-06-26T08:21:09Z</time>
      </trkpt>
      <trkpt lat="44.69165" lon="5.98632">
        <ele>1630.8</ele>
        <time>2021-06-26T08:28:14Z</time>
      </trkpt>
      <trkpt lat="44.69165" lon="5.98626">
        <ele>1631</ele>
        <time>2021-06-26T08:28:16Z</time>
      </trkpt>
      <trkpt lat="44.69166" lon="5.98605">
        <ele>1632</ele>
        <time>2021-06-26T08:28:24Z</time>
      </trkpt>
      <trkpt lat="44.69166" lon="5.98601">
        <ele>1632</ele>
        <time>2021-06-26T08:28:25Z</time>
      </trkpt>
      <trkpt lat="44.69167" lon="5.98588">
        <ele>1633</ele>
        <time>2021-06-26T08:28:30Z</time>
      </trkpt>
      <trkpt lat="44.69168" lon="5.9858">
        <ele>1634</ele>
        <time>2021-06-26T08:28:33Z</time>
      </trkpt>
      <trkpt lat="44.69169" lon="5.98577">
        <ele>1634.2</ele>
        <time>2021-06-26T08:28:34Z</time>
      </trkpt>
      <trkpt lat="44.69172" lon="5.98567">
        <ele>1635.4</ele>
        <time>2021-06-26T08:28:38Z</time>
      </trkpt>
      <trkpt lat="44.69176" lon="5.98559">
        <ele>1635.8</ele>
        <time>2021-06-26T08:28:41Z</time>
      </trkpt>
      <trkpt lat="44.69182" lon="5.98551">
        <ele>1636.6</ele>
        <time>2021-06-26T08:28:45Z</time>
      </trkpt>
      <trkpt lat="44.69189" lon="5.9854">
        <ele>1637.6</ele>
        <time>2021-06-26T08:28:51Z</time>
      </trkpt>
      <trkpt lat="44.69199" lon="5.98525">
        <ele>1638.2</ele>
        <time>2021-06-26T08:28:59Z</time>
      </trkpt>
      <trkpt lat="44.69202" lon="5.98522">
        <ele>1638.6</ele>
        <time>2021-06-26T08:29:01Z</time>
      </trkpt>
      <trkpt lat="44.69206" lon="5.98515">
        <ele>1639.2</ele>
        <time>2021-06-26T08:29:06Z</time>
      </trkpt>
      <trkpt lat="44.69206" lon="5.98515">
        <ele>1639.6</ele>
        <time>2021-06-26T08:29:09Z</time>
      </trkpt>
      <trkpt lat="44.69213" lon="5.98507">
        <ele>1641.4</ele>
        <time>2021-06-26T08:34:39Z</time>
      </trkpt>
      <trkpt lat="44.69215" lon="5.98503">
        <ele>1641.4</ele>
        <time>2021-06-26T08:34:41Z</time>
      </trkpt>
      <trkpt lat="44.69222" lon="5.9849">
        <ele>1641.6</ele>
        <time>2021-06-26T08:34:48Z</time>
      </trkpt>
      <trkpt lat="44.69227" lon="5.98481">
        <ele>1642.4</ele>
        <time>2021-06-26T08:34:54Z</time>
      </trkpt>
      <trkpt lat="44.69229" lon="5.9848">
        <ele>1642.6</ele>
        <time>2021-06-26T08:34:55Z</time>
      </trkpt>
      <trkpt lat="44.69232" lon="5.98479">
        <ele>1642.8</ele>
        <time>2021-06-26T08:34:57Z</time>
      </trkpt>
      <trkpt lat="44.69234" lon="5.98477">
        <ele>1643</ele>
        <time>2021-06-26T08:34:59Z</time>
      </trkpt>
      <trkpt lat="44.69233" lon="5.98476">
        <ele>1643.4</ele>
        <time>2021-06-26T08:35:01Z</time>
      </trkpt>
      <trkpt lat="44.69233" lon="5.98476">
        <ele>1643.6</ele>
        <time>2021-06-26T08:35:02Z</time>
      </trkpt>
      <trkpt lat="44.69231" lon="5.98471">
        <ele>1645.2</ele>
        <time>2021-06-26T08:37:32Z</time>
      </trkpt>
      <trkpt lat="44.69229" lon="5.98468">
        <ele>1645.2</ele>
        <time>2021-06-26T08:37:35Z</time>
      </trkpt>
      <trkpt lat="44.69229" lon="5.98467">
        <ele>1645.2</ele>
        <time>2021-06-26T08:37:37Z</time>
      </trkpt>
      <trkpt lat="44.69229" lon="5.98467">
        <ele>1645.2</ele>
        <time>2021-06-26T08:37:38Z</time>
      </trkpt>
      <trkpt lat="44.69229" lon="5.98467">
        <ele>1645.2</ele>
        <time>2021-06-26T08:37:39Z</time>
      </trkpt>
      <trkpt lat="44.69254" lon="5.98437">
        <ele>1644.8</ele>
        <time>2021-06-26T08:40:25Z</time>
      </trkpt>
      <trkpt lat="44.69258" lon="5.9843">
        <ele>1645</ele>
        <time>2021-06-26T08:40:27Z</time>
      </trkpt>
      <trkpt lat="44.69274" lon="5.98406">
        <ele>1645</ele>
        <time>2021-06-26T08:40:33Z</time>
      </trkpt>
      <trkpt lat="44.69295" lon="5.98375">
        <ele>1644.4</ele>
        <time>2021-06-26T08:40:38Z</time>
      </trkpt>
      <trkpt lat="44.69315" lon="5.98335">
        <ele>1643.4</ele>
        <time>2021-06-26T08:40:42Z</time>
      </trkpt>
      <trkpt lat="44.69327" lon="5.98306">
        <ele>1641.8</ele>
        <time>2021-06-26T08:40:45Z</time>
      </trkpt>
      <trkpt lat="44.6933" lon="5.98298">
        <ele>1641.2</ele>
        <time>2021-06-26T08:40:46Z</time>
      </trkpt>
      <trkpt lat="44.69334" lon="5.9829">
        <ele>1640.4</ele>
        <time>2021-06-26T08:40:47Z</time>
      </trkpt>
      <trkpt lat="44.69342" lon="5.9827">
        <ele>1639.2</ele>
        <time>2021-06-26T08:40:49Z</time>
      </trkpt>
      <trkpt lat="44.69351" lon="5.98246">
        <ele>1638.2</ele>
        <time>2021-06-26T08:40:51Z</time>
      </trkpt>
      <trkpt lat="44.69367" lon="5.98204">
        <ele>1637</ele>
        <time>2021-06-26T08:40:54Z</time>
      </trkpt>
      <trkpt lat="44.69373" lon="5.9819">
        <ele>1635.2</ele>
        <time>2021-06-26T08:40:55Z</time>
      </trkpt>
      <trkpt lat="44.69385" lon="5.98162">
        <ele>1633.4</ele>
        <time>2021-06-26T08:40:57Z</time>
      </trkpt>
      <trkpt lat="44.69399" lon="5.98133">
        <ele>1631</ele>
        <time>2021-06-26T08:40:59Z</time>
      </trkpt>
      <trkpt lat="44.69406" lon="5.98119">
        <ele>1630.4</ele>
        <time>2021-06-26T08:41:00Z</time>
      </trkpt>
      <trkpt lat="44.69414" lon="5.98106">
        <ele>1629.4</ele>
        <time>2021-06-26T08:41:01Z</time>
      </trkpt>
      <trkpt lat="44.69421" lon="5.98092">
        <ele>1627.8</ele>
        <time>2021-06-26T08:41:02Z</time>
      </trkpt>
      <trkpt lat="44.69435" lon="5.98063">
        <ele>1626.2</ele>
        <time>2021-06-26T08:41:04Z</time>
      </trkpt>
      <trkpt lat="44.69448" lon="5.98036">
        <ele>1623.6</ele>
        <time>2021-06-26T08:41:06Z</time>
      </trkpt>
      <trkpt lat="44.6946" lon="5.98011">
        <ele>1622</ele>
        <time>2021-06-26T08:41:08Z</time>
      </trkpt>
      <trkpt lat="44.69466" lon="5.98">
        <ele>1620.8</ele>
        <time>2021-06-26T08:41:09Z</time>
      </trkpt>
      <trkpt lat="44.69474" lon="5.97989">
        <ele>1620</ele>
        <time>2021-06-26T08:41:10Z</time>
      </trkpt>
      <trkpt lat="44.69482" lon="5.97979">
        <ele>1618.4</ele>
        <time>2021-06-26T08:41:11Z</time>
      </trkpt>
      <trkpt lat="44.69499" lon="5.97955">
        <ele>1616.8</ele>
        <time>2021-06-26T08:41:13Z</time>
      </trkpt>
      <trkpt lat="44.69507" lon="5.97942">
        <ele>1616.4</ele>
        <time>2021-06-26T08:41:14Z</time>
      </trkpt>
      <trkpt lat="44.69514" lon="5.97929">
        <ele>1615.6</ele>
        <time>2021-06-26T08:41:15Z</time>
      </trkpt>
      <trkpt lat="44.69521" lon="5.97916">
        <ele>1614</ele>
        <time>2021-06-26T08:41:16Z</time>
      </trkpt>
      <trkpt lat="44.69537" lon="5.9789">
        <ele>1611.8</ele>
        <time>2021-06-26T08:41:18Z</time>
      </trkpt>
      <trkpt lat="44.69545" lon="5.97876">
        <ele>1610.6</ele>
        <time>2021-06-26T08:41:19Z</time>
      </trkpt>
      <trkpt lat="44.69552" lon="5.97861">
        <ele>1608.8</ele>
        <time>2021-06-26T08:41:20Z</time>
      </trkpt>
      <trkpt lat="44.69558" lon="5.97844">
        <ele>1608.4</ele>
        <time>2021-06-26T08:41:21Z</time>
      </trkpt>
      <trkpt lat="44.69563" lon="5.97827">
        <ele>1606.6</ele>
        <time>2021-06-26T08:41:22Z</time>
      </trkpt>
      <trkpt lat="44.69567" lon="5.9781">
        <ele>1605.4</ele>
        <time>2021-06-26T08:41:23Z</time>
      </trkpt>
      <trkpt lat="44.69577" lon="5.97776">
        <ele>1603.4</ele>
        <time>2021-06-26T08:41:25Z</time>
      </trkpt>
      <trkpt lat="44.69581" lon="5.9776">
        <ele>1603</ele>
        <time>2021-06-26T08:41:26Z</time>
      </trkpt>
      <trkpt lat="44.69587" lon="5.97745">
        <ele>1601.8</ele>
        <time>2021-06-26T08:41:27Z</time>
      </trkpt>
      <trkpt lat="44.69601" lon="5.9771">
        <ele>1600</ele>
        <time>2021-06-26T08:41:30Z</time>
      </trkpt>
      <trkpt lat="44.69613" lon="5.97688">
        <ele>1599</ele>
        <time>2021-06-26T08:41:32Z</time>
      </trkpt>
      <trkpt lat="44.69619" lon="5.97677">
        <ele>1598.8</ele>
        <time>2021-06-26T08:41:33Z</time>
      </trkpt>
      <trkpt lat="44.69624" lon="5.97666">
        <ele>1598.6</ele>
        <time>2021-06-26T08:41:34Z</time>
      </trkpt>
      <trkpt lat="44.69639" lon="5.97629">
        <ele>1597.6</ele>
        <time>2021-06-26T08:41:37Z</time>
      </trkpt>
      <trkpt lat="44.69644" lon="5.97616">
        <ele>1597.4</ele>
        <time>2021-06-26T08:41:38Z</time>
      </trkpt>
      <trkpt lat="44.69667" lon="5.97566">
        <ele>1596.4</ele>
        <time>2021-06-26T08:41:42Z</time>
      </trkpt>
      <trkpt lat="44.69677" lon="5.97543">
        <ele>1595.2</ele>
        <time>2021-06-26T08:41:44Z</time>
      </trkpt>
      <trkpt lat="44.69681" lon="5.97531">
        <ele>1594.8</ele>
        <time>2021-06-26T08:41:45Z</time>
      </trkpt>
      <trkpt lat="44.69684" lon="5.97518">
        <ele>1593.6</ele>
        <time>2021-06-26T08:41:46Z</time>
      </trkpt>
      <trkpt lat="44.69685" lon="5.97503">
        <ele>1593.2</ele>
        <time>2021-06-26T08:41:47Z</time>
      </trkpt>
      <trkpt lat="44.69686" lon="5.97485">
        <ele>1592.6</ele>
        <time>2021-06-26T08:41:48Z</time>
      </trkpt>
      <trkpt lat="44.69688" lon="5.97457">
        <ele>1591.4</ele>
        <time>2021-06-26T08:41:50Z</time>
      </trkpt>
      <trkpt lat="44.69688" lon="5.97443">
        <ele>1590.4</ele>
        <time>2021-06-26T08:41:51Z</time>
      </trkpt>
      <trkpt lat="44.69689" lon="5.97429">
        <ele>1590.2</ele>
        <time>2021-06-26T08:41:52Z</time>
      </trkpt>
      <trkpt lat="44.69688" lon="5.974">
        <ele>1588.2</ele>
        <time>2021-06-26T08:41:54Z</time>
      </trkpt>
      <trkpt lat="44.69686" lon="5.97389">
        <ele>1586.8</ele>
        <time>2021-06-26T08:41:55Z</time>
      </trkpt>
      <trkpt lat="44.69685" lon="5.97372">
        <ele>1584.8</ele>
        <time>2021-06-26T08:41:57Z</time>
      </trkpt>
      <trkpt lat="44.69686" lon="5.97366">
        <ele>1583.8</ele>
        <time>2021-06-26T08:41:58Z</time>
      </trkpt>
      <trkpt lat="44.6969" lon="5.97361">
        <ele>1583.4</ele>
        <time>2021-06-26T08:41:59Z</time>
      </trkpt>
      <trkpt lat="44.69696" lon="5.97361">
        <ele>1582.4</ele>
        <time>2021-06-26T08:42:00Z</time>
      </trkpt>
      <trkpt lat="44.697" lon="5.97364">
        <ele>1582</ele>
        <time>2021-06-26T08:42:01Z</time>
      </trkpt>
      <trkpt lat="44.69705" lon="5.97372">
        <ele>1581</ele>
        <time>2021-06-26T08:42:02Z</time>
      </trkpt>
      <trkpt lat="44.69715" lon="5.97391">
        <ele>1579.4</ele>
        <time>2021-06-26T08:42:04Z</time>
      </trkpt>
      <trkpt lat="44.69719" lon="5.97401">
        <ele>1578.2</ele>
        <time>2021-06-26T08:42:05Z</time>
      </trkpt>
      <trkpt lat="44.69724" lon="5.97411">
        <ele>1577.8</ele>
        <time>2021-06-26T08:42:06Z</time>
      </trkpt>
      <trkpt lat="44.69729" lon="5.97421">
        <ele>1576.8</ele>
        <time>2021-06-26T08:42:07Z</time>
      </trkpt>
      <trkpt lat="44.69737" lon="5.97438">
        <ele>1575.6</ele>
        <time>2021-06-26T08:42:09Z</time>
      </trkpt>
      <trkpt lat="44.69741" lon="5.97444">
        <ele>1575.4</ele>
        <time>2021-06-26T08:42:10Z</time>
      </trkpt>
      <trkpt lat="44.69745" lon="5.97447">
        <ele>1574.8</ele>
        <time>2021-06-26T08:42:11Z</time>
      </trkpt>
      <trkpt lat="44.69752" lon="5.97447">
        <ele>1574.2</ele>
        <time>2021-06-26T08:42:12Z</time>
      </trkpt>
      <trkpt lat="44.69755" lon="5.97441">
        <ele>1574</ele>
        <time>2021-06-26T08:42:13Z</time>
      </trkpt>
      <trkpt lat="44.69756" lon="5.97409">
        <ele>1573.4</ele>
        <time>2021-06-26T08:42:16Z</time>
      </trkpt>
      <trkpt lat="44.69756" lon="5.97394">
        <ele>1573.2</ele>
        <time>2021-06-26T08:42:17Z</time>
      </trkpt>
      <trkpt lat="44.69756" lon="5.97365">
        <ele>1572</ele>
        <time>2021-06-26T08:42:19Z</time>
      </trkpt>
      <trkpt lat="44.69757" lon="5.97351">
        <ele>1571.8</ele>
        <time>2021-06-26T08:42:20Z</time>
      </trkpt>
      <trkpt lat="44.69757" lon="5.9734">
        <ele>1570.6</ele>
        <time>2021-06-26T08:42:21Z</time>
      </trkpt>
      <trkpt lat="44.69759" lon="5.97309">
        <ele>1568.8</ele>
        <time>2021-06-26T08:42:23Z</time>
      </trkpt>
      <trkpt lat="44.6976" lon="5.97279">
        <ele>1567</ele>
        <time>2021-06-26T08:42:25Z</time>
      </trkpt>
      <trkpt lat="44.69758" lon="5.97267">
        <ele>1565.8</ele>
        <time>2021-06-26T08:42:26Z</time>
      </trkpt>
      <trkpt lat="44.69756" lon="5.97252">
        <ele>1565</ele>
        <time>2021-06-26T08:42:27Z</time>
      </trkpt>
      <trkpt lat="44.69751" lon="5.97236">
        <ele>1563.8</ele>
        <time>2021-06-26T08:42:28Z</time>
      </trkpt>
      <trkpt lat="44.69747" lon="5.97225">
        <ele>1563</ele>
        <time>2021-06-26T08:42:29Z</time>
      </trkpt>
      <trkpt lat="44.69741" lon="5.97214">
        <ele>1562.2</ele>
        <time>2021-06-26T08:42:30Z</time>
      </trkpt>
      <trkpt lat="44.69727" lon="5.97194">
        <ele>1560.6</ele>
        <time>2021-06-26T08:42:32Z</time>
      </trkpt>
      <trkpt lat="44.69722" lon="5.97179">
        <ele>1559.2</ele>
        <time>2021-06-26T08:42:33Z</time>
      </trkpt>
      <trkpt lat="44.69719" lon="5.97164">
        <ele>1557.8</ele>
        <time>2021-06-26T08:42:34Z</time>
      </trkpt>
      <trkpt lat="44.69717" lon="5.97149">
        <ele>1556.4</ele>
        <time>2021-06-26T08:42:35Z</time>
      </trkpt>
      <trkpt lat="44.69717" lon="5.97118">
        <ele>1554.4</ele>
        <time>2021-06-26T08:42:37Z</time>
      </trkpt>
      <trkpt lat="44.69718" lon="5.97087">
        <ele>1552.6</ele>
        <time>2021-06-26T08:42:39Z</time>
      </trkpt>
      <trkpt lat="44.6972" lon="5.97071">
        <ele>1550.4</ele>
        <time>2021-06-26T08:42:40Z</time>
      </trkpt>
      <trkpt lat="44.69723" lon="5.97058">
        <ele>1549.6</ele>
        <time>2021-06-26T08:42:41Z</time>
      </trkpt>
      <trkpt lat="44.69726" lon="5.97045">
        <ele>1548.2</ele>
        <time>2021-06-26T08:42:42Z</time>
      </trkpt>
      <trkpt lat="44.69729" lon="5.97031">
        <ele>1547.6</ele>
        <time>2021-06-26T08:42:43Z</time>
      </trkpt>
      <trkpt lat="44.69729" lon="5.97017">
        <ele>1546.4</ele>
        <time>2021-06-26T08:42:44Z</time>
      </trkpt>
      <trkpt lat="44.69726" lon="5.96987">
        <ele>1544.6</ele>
        <time>2021-06-26T08:42:46Z</time>
      </trkpt>
      <trkpt lat="44.69722" lon="5.96959">
        <ele>1543.2</ele>
        <time>2021-06-26T08:42:48Z</time>
      </trkpt>
      <trkpt lat="44.69717" lon="5.96933">
        <ele>1542</ele>
        <time>2021-06-26T08:42:50Z</time>
      </trkpt>
      <trkpt lat="44.69714" lon="5.96909">
        <ele>1540.6</ele>
        <time>2021-06-26T08:42:52Z</time>
      </trkpt>
      <trkpt lat="44.69711" lon="5.96898">
        <ele>1539</ele>
        <time>2021-06-26T08:42:53Z</time>
      </trkpt>
      <trkpt lat="44.69707" lon="5.96875">
        <ele>1536.8</ele>
        <time>2021-06-26T08:42:55Z</time>
      </trkpt>
      <trkpt lat="44.69704" lon="5.96864">
        <ele>1535</ele>
        <time>2021-06-26T08:42:56Z</time>
      </trkpt>
      <trkpt lat="44.69699" lon="5.96841">
        <ele>1533</ele>
        <time>2021-06-26T08:42:58Z</time>
      </trkpt>
      <trkpt lat="44.69697" lon="5.96829">
        <ele>1532.4</ele>
        <time>2021-06-26T08:42:59Z</time>
      </trkpt>
      <trkpt lat="44.69696" lon="5.96818">
        <ele>1531.4</ele>
        <time>2021-06-26T08:43:00Z</time>
      </trkpt>
      <trkpt lat="44.69695" lon="5.96798">
        <ele>1529.4</ele>
        <time>2021-06-26T08:43:02Z</time>
      </trkpt>
      <trkpt lat="44.69695" lon="5.96787">
        <ele>1528.2</ele>
        <time>2021-06-26T08:43:03Z</time>
      </trkpt>
      <trkpt lat="44.69694" lon="5.96776">
        <ele>1527.8</ele>
        <time>2021-06-26T08:43:04Z</time>
      </trkpt>
      <trkpt lat="44.69694" lon="5.96768">
        <ele>1526.8</ele>
        <time>2021-06-26T08:43:05Z</time>
      </trkpt>
      <trkpt lat="44.69692" lon="5.96744">
        <ele>1525.6</ele>
        <time>2021-06-26T08:43:07Z</time>
      </trkpt>
      <trkpt lat="44.69692" lon="5.96722">
        <ele>1524.4</ele>
        <time>2021-06-26T08:43:09Z</time>
      </trkpt>
      <trkpt lat="44.69691" lon="5.96709">
        <ele>1523.8</ele>
        <time>2021-06-26T08:43:10Z</time>
      </trkpt>
      <trkpt lat="44.69691" lon="5.96687">
        <ele>1522.4</ele>
        <time>2021-06-26T08:43:12Z</time>
      </trkpt>
      <trkpt lat="44.69692" lon="5.96667">
        <ele>1521</ele>
        <time>2021-06-26T08:43:14Z</time>
      </trkpt>
      <trkpt lat="44.69693" lon="5.96646">
        <ele>1519.8</ele>
        <time>2021-06-26T08:43:16Z</time>
      </trkpt>
      <trkpt lat="44.69695" lon="5.96625">
        <ele>1518.6</ele>
        <time>2021-06-26T08:43:18Z</time>
      </trkpt>
      <trkpt lat="44.69697" lon="5.96589">
        <ele>1517.6</ele>
        <time>2021-06-26T08:43:21Z</time>
      </trkpt>
      <trkpt lat="44.69701" lon="5.9655">
        <ele>1515.8</ele>
        <time>2021-06-26T08:43:24Z</time>
      </trkpt>
      <trkpt lat="44.69702" lon="5.96521">
        <ele>1514.6</ele>
        <time>2021-06-26T08:43:26Z</time>
      </trkpt>
      <trkpt lat="44.69703" lon="5.96506">
        <ele>1514.4</ele>
        <time>2021-06-26T08:43:27Z</time>
      </trkpt>
      <trkpt lat="44.69705" lon="5.96476">
        <ele>1513.4</ele>
        <time>2021-06-26T08:43:29Z</time>
      </trkpt>
      <trkpt lat="44.69709" lon="5.96444">
        <ele>1511.8</ele>
        <time>2021-06-26T08:43:31Z</time>
      </trkpt>
      <trkpt lat="44.6971" lon="5.96427">
        <ele>1511.4</ele>
        <time>2021-06-26T08:43:32Z</time>
      </trkpt>
      <trkpt lat="44.69713" lon="5.96394">
        <ele>1510.6</ele>
        <time>2021-06-26T08:43:34Z</time>
      </trkpt>
      <trkpt lat="44.69716" lon="5.96359">
        <ele>1509.4</ele>
        <time>2021-06-26T08:43:36Z</time>
      </trkpt>
      <trkpt lat="44.69718" lon="5.96342">
        <ele>1508</ele>
        <time>2021-06-26T08:43:37Z</time>
      </trkpt>
      <trkpt lat="44.69719" lon="5.96324">
        <ele>1507.2</ele>
        <time>2021-06-26T08:43:38Z</time>
      </trkpt>
      <trkpt lat="44.69721" lon="5.96306">
        <ele>1506.8</ele>
        <time>2021-06-26T08:43:39Z</time>
      </trkpt>
      <trkpt lat="44.69723" lon="5.9627">
        <ele>1505.8</ele>
        <time>2021-06-26T08:43:41Z</time>
      </trkpt>
      <trkpt lat="44.69725" lon="5.96252">
        <ele>1505.2</ele>
        <time>2021-06-26T08:43:42Z</time>
      </trkpt>
      <trkpt lat="44.69727" lon="5.96216">
        <ele>1503.8</ele>
        <time>2021-06-26T08:43:44Z</time>
      </trkpt>
      <trkpt lat="44.69729" lon="5.96178">
        <ele>1502.6</ele>
        <time>2021-06-26T08:43:46Z</time>
      </trkpt>
      <trkpt lat="44.69732" lon="5.96141">
        <ele>1501.2</ele>
        <time>2021-06-26T08:43:48Z</time>
      </trkpt>
      <trkpt lat="44.69733" lon="5.96123">
        <ele>1500.2</ele>
        <time>2021-06-26T08:43:49Z</time>
      </trkpt>
      <trkpt lat="44.69735" lon="5.96086">
        <ele>1499.4</ele>
        <time>2021-06-26T08:43:51Z</time>
      </trkpt>
      <trkpt lat="44.69736" lon="5.96071">
        <ele>1499.2</ele>
        <time>2021-06-26T08:43:52Z</time>
      </trkpt>
      <trkpt lat="44.69744" lon="5.95992">
        <ele>1497.8</ele>
        <time>2021-06-26T08:43:56Z</time>
      </trkpt>
      <trkpt lat="44.69747" lon="5.95953">
        <ele>1497</ele>
        <time>2021-06-26T08:43:58Z</time>
      </trkpt>
      <trkpt lat="44.69748" lon="5.95938">
        <ele>1496.4</ele>
        <time>2021-06-26T08:43:59Z</time>
      </trkpt>
      <trkpt lat="44.69751" lon="5.95894">
        <ele>1495.2</ele>
        <time>2021-06-26T08:44:01Z</time>
      </trkpt>
      <trkpt lat="44.69754" lon="5.95857">
        <ele>1494</ele>
        <time>2021-06-26T08:44:03Z</time>
      </trkpt>
      <trkpt lat="44.69755" lon="5.95838">
        <ele>1493.6</ele>
        <time>2021-06-26T08:44:04Z</time>
      </trkpt>
      <trkpt lat="44.69757" lon="5.9582">
        <ele>1492.6</ele>
        <time>2021-06-26T08:44:05Z</time>
      </trkpt>
      <trkpt lat="44.69759" lon="5.95786">
        <ele>1490.8</ele>
        <time>2021-06-26T08:44:07Z</time>
      </trkpt>
      <trkpt lat="44.69762" lon="5.9574">
        <ele>1489.6</ele>
        <time>2021-06-26T08:44:10Z</time>
      </trkpt>
      <trkpt lat="44.69765" lon="5.9569">
        <ele>1488.8</ele>
        <time>2021-06-26T08:44:13Z</time>
      </trkpt>
      <trkpt lat="44.69766" lon="5.95675">
        <ele>1488.4</ele>
        <time>2021-06-26T08:44:14Z</time>
      </trkpt>
      <trkpt lat="44.69767" lon="5.95664">
        <ele>1488.2</ele>
        <time>2021-06-26T08:44:15Z</time>
      </trkpt>
      <trkpt lat="44.6977" lon="5.956">
        <ele>1488.4</ele>
        <time>2021-06-26T08:44:20Z</time>
      </trkpt>
      <trkpt lat="44.69775" lon="5.95549">
        <ele>1489.4</ele>
        <time>2021-06-26T08:44:25Z</time>
      </trkpt>
      <trkpt lat="44.69776" lon="5.95538">
        <ele>1490</ele>
        <time>2021-06-26T08:44:26Z</time>
      </trkpt>
      <trkpt lat="44.69777" lon="5.95519">
        <ele>1490.8</ele>
        <time>2021-06-26T08:44:28Z</time>
      </trkpt>
      <trkpt lat="44.69779" lon="5.95502">
        <ele>1492</ele>
        <time>2021-06-26T08:44:30Z</time>
      </trkpt>
      <trkpt lat="44.6978" lon="5.95483">
        <ele>1492.6</ele>
        <time>2021-06-26T08:44:32Z</time>
      </trkpt>
      <trkpt lat="44.6978" lon="5.9546">
        <ele>1493.2</ele>
        <time>2021-06-26T08:44:35Z</time>
      </trkpt>
      <trkpt lat="44.69777" lon="5.95447">
        <ele>1494</ele>
        <time>2021-06-26T08:44:37Z</time>
      </trkpt>
      <trkpt lat="44.69775" lon="5.95441">
        <ele>1494.2</ele>
        <time>2021-06-26T08:44:38Z</time>
      </trkpt>
      <trkpt lat="44.69774" lon="5.95435">
        <ele>1494.2</ele>
        <time>2021-06-26T08:44:39Z</time>
      </trkpt>
      <trkpt lat="44.6977" lon="5.95425">
        <ele>1494.6</ele>
        <time>2021-06-26T08:44:41Z</time>
      </trkpt>
      <trkpt lat="44.69767" lon="5.9542">
        <ele>1494.8</ele>
        <time>2021-06-26T08:44:42Z</time>
      </trkpt>
      <trkpt lat="44.69759" lon="5.95406">
        <ele>1495.4</ele>
        <time>2021-06-26T08:44:45Z</time>
      </trkpt>
      <trkpt lat="44.69756" lon="5.954">
        <ele>1495.4</ele>
        <time>2021-06-26T08:44:46Z</time>
      </trkpt>
      <trkpt lat="44.69744" lon="5.95387">
        <ele>1496.2</ele>
        <time>2021-06-26T08:44:49Z</time>
      </trkpt>
      <trkpt lat="44.69741" lon="5.95384">
        <ele>1496.4</ele>
        <time>2021-06-26T08:44:50Z</time>
      </trkpt>
      <trkpt lat="44.69716" lon="5.95361">
        <ele>1497.2</ele>
        <time>2021-06-26T08:44:57Z</time>
      </trkpt>
      <trkpt lat="44.6971" lon="5.95356">
        <ele>1497.6</ele>
        <time>2021-06-26T08:44:59Z</time>
      </trkpt>
      <trkpt lat="44.69701" lon="5.95348">
        <ele>1498</ele>
        <time>2021-06-26T08:45:02Z</time>
      </trkpt>
      <trkpt lat="44.69676" lon="5.95325">
        <ele>1498.6</ele>
        <time>2021-06-26T08:45:11Z</time>
      </trkpt>
      <trkpt lat="44.69674" lon="5.95322">
        <ele>1498.8</ele>
        <time>2021-06-26T08:45:12Z</time>
      </trkpt>
      <trkpt lat="44.69653" lon="5.953">
        <ele>1499.8</ele>
        <time>2021-06-26T08:45:20Z</time>
      </trkpt>
      <trkpt lat="44.69648" lon="5.95294">
        <ele>1500</ele>
        <time>2021-06-26T08:45:22Z</time>
      </trkpt>
      <trkpt lat="44.6963" lon="5.95273">
        <ele>1501</ele>
        <time>2021-06-26T08:45:29Z</time>
      </trkpt>
      <trkpt lat="44.69626" lon="5.95266">
        <ele>1501.4</ele>
        <time>2021-06-26T08:45:31Z</time>
      </trkpt>
      <trkpt lat="44.69616" lon="5.95253">
        <ele>1502</ele>
        <time>2021-06-26T08:45:35Z</time>
      </trkpt>
      <trkpt lat="44.69607" lon="5.9524">
        <ele>1502.4</ele>
        <time>2021-06-26T08:45:39Z</time>
      </trkpt>
      <trkpt lat="44.69589" lon="5.95222">
        <ele>1503.2</ele>
        <time>2021-06-26T08:45:47Z</time>
      </trkpt>
      <trkpt lat="44.69586" lon="5.95221">
        <ele>1503.2</ele>
        <time>2021-06-26T08:45:48Z</time>
      </trkpt>
      <trkpt lat="44.69574" lon="5.95219">
        <ele>1503.6</ele>
        <time>2021-06-26T08:45:52Z</time>
      </trkpt>
      <trkpt lat="44.69551" lon="5.95218">
        <ele>1503.4</ele>
        <time>2021-06-26T08:45:59Z</time>
      </trkpt>
      <trkpt lat="44.69537" lon="5.9522">
        <ele>1503</ele>
        <time>2021-06-26T08:46:05Z</time>
      </trkpt>
      <trkpt lat="44.69524" lon="5.95221">
        <ele>1502.2</ele>
        <time>2021-06-26T08:46:12Z</time>
      </trkpt>
      <trkpt lat="44.69522" lon="5.95222">
        <ele>1502.2</ele>
        <time>2021-06-26T08:46:13Z</time>
      </trkpt>
      <trkpt lat="44.69511" lon="5.95222">
        <ele>1501.8</ele>
        <time>2021-06-26T08:46:18Z</time>
      </trkpt>
      <trkpt lat="44.69507" lon="5.95223">
        <ele>1501.8</ele>
        <time>2021-06-26T08:46:19Z</time>
      </trkpt>
      <trkpt lat="44.69482" lon="5.95226">
        <ele>1501</ele>
        <time>2021-06-26T08:46:24Z</time>
      </trkpt>
      <trkpt lat="44.69463" lon="5.95231">
        <ele>1500.2</ele>
        <time>2021-06-26T08:46:27Z</time>
      </trkpt>
      <trkpt lat="44.69449" lon="5.95236">
        <ele>1499.8</ele>
        <time>2021-06-26T08:46:29Z</time>
      </trkpt>
      <trkpt lat="44.69435" lon="5.95238">
        <ele>1498.8</ele>
        <time>2021-06-26T08:46:31Z</time>
      </trkpt>
      <trkpt lat="44.69413" lon="5.95238">
        <ele>1497.2</ele>
        <time>2021-06-26T08:46:34Z</time>
      </trkpt>
      <trkpt lat="44.69398" lon="5.95237">
        <ele>1496.2</ele>
        <time>2021-06-26T08:46:36Z</time>
      </trkpt>
      <trkpt lat="44.69382" lon="5.95236">
        <ele>1495</ele>
        <time>2021-06-26T08:46:38Z</time>
      </trkpt>
      <trkpt lat="44.69364" lon="5.95235">
        <ele>1494</ele>
        <time>2021-06-26T08:46:40Z</time>
      </trkpt>
      <trkpt lat="44.69355" lon="5.95234">
        <ele>1493.6</ele>
        <time>2021-06-26T08:46:41Z</time>
      </trkpt>
      <trkpt lat="44.69329" lon="5.95233">
        <ele>1492.4</ele>
        <time>2021-06-26T08:46:44Z</time>
      </trkpt>
      <trkpt lat="44.69318" lon="5.95232">
        <ele>1491.2</ele>
        <time>2021-06-26T08:46:45Z</time>
      </trkpt>
      <trkpt lat="44.69309" lon="5.95232">
        <ele>1490.6</ele>
        <time>2021-06-26T08:46:46Z</time>
      </trkpt>
      <trkpt lat="44.69299" lon="5.95232">
        <ele>1489.6</ele>
        <time>2021-06-26T08:46:47Z</time>
      </trkpt>
      <trkpt lat="44.69289" lon="5.95233">
        <ele>1488.6</ele>
        <time>2021-06-26T08:46:48Z</time>
      </trkpt>
      <trkpt lat="44.69269" lon="5.95233">
        <ele>1487.4</ele>
        <time>2021-06-26T08:46:50Z</time>
      </trkpt>
      <trkpt lat="44.69259" lon="5.95233">
        <ele>1486.6</ele>
        <time>2021-06-26T08:46:51Z</time>
      </trkpt>
      <trkpt lat="44.69249" lon="5.95234">
        <ele>1485.4</ele>
        <time>2021-06-26T08:46:52Z</time>
      </trkpt>
      <trkpt lat="44.69239" lon="5.95236">
        <ele>1485.2</ele>
        <time>2021-06-26T08:46:53Z</time>
      </trkpt>
      <trkpt lat="44.69232" lon="5.9524">
        <ele>1484.4</ele>
        <time>2021-06-26T08:46:54Z</time>
      </trkpt>
      <trkpt lat="44.6922" lon="5.95247">
        <ele>1483.6</ele>
        <time>2021-06-26T08:46:55Z</time>
      </trkpt>
      <trkpt lat="44.69211" lon="5.95255">
        <ele>1483</ele>
        <time>2021-06-26T08:46:56Z</time>
      </trkpt>
      <trkpt lat="44.69203" lon="5.9526">
        <ele>1481.8</ele>
        <time>2021-06-26T08:46:57Z</time>
      </trkpt>
      <trkpt lat="44.6918" lon="5.95277">
        <ele>1480.6</ele>
        <time>2021-06-26T08:46:59Z</time>
      </trkpt>
      <trkpt lat="44.6917" lon="5.95286">
        <ele>1480</ele>
        <time>2021-06-26T08:47:00Z</time>
      </trkpt>
      <trkpt lat="44.69159" lon="5.95294">
        <ele>1479.2</ele>
        <time>2021-06-26T08:47:01Z</time>
      </trkpt>
      <trkpt lat="44.6915" lon="5.95299">
        <ele>1478.2</ele>
        <time>2021-06-26T08:47:02Z</time>
      </trkpt>
      <trkpt lat="44.69124" lon="5.95311">
        <ele>1476.6</ele>
        <time>2021-06-26T08:47:04Z</time>
      </trkpt>
      <trkpt lat="44.691" lon="5.95318">
        <ele>1474.8</ele>
        <time>2021-06-26T08:47:06Z</time>
      </trkpt>
      <trkpt lat="44.6908" lon="5.95324">
        <ele>1473</ele>
        <time>2021-06-26T08:47:08Z</time>
      </trkpt>
      <trkpt lat="44.69069" lon="5.95329">
        <ele>1471.6</ele>
        <time>2021-06-26T08:47:09Z</time>
      </trkpt>
      <trkpt lat="44.69047" lon="5.95344">
        <ele>1470.2</ele>
        <time>2021-06-26T08:47:11Z</time>
      </trkpt>
      <trkpt lat="44.69037" lon="5.95352">
        <ele>1470</ele>
        <time>2021-06-26T08:47:12Z</time>
      </trkpt>
      <trkpt lat="44.69026" lon="5.95362">
        <ele>1469</ele>
        <time>2021-06-26T08:47:13Z</time>
      </trkpt>
      <trkpt lat="44.69005" lon="5.95381">
        <ele>1467.6</ele>
        <time>2021-06-26T08:47:15Z</time>
      </trkpt>
      <trkpt lat="44.68983" lon="5.95399">
        <ele>1466.2</ele>
        <time>2021-06-26T08:47:17Z</time>
      </trkpt>
      <trkpt lat="44.68969" lon="5.95408">
        <ele>1464.4</ele>
        <time>2021-06-26T08:47:18Z</time>
      </trkpt>
      <trkpt lat="44.68946" lon="5.95424">
        <ele>1462.4</ele>
        <time>2021-06-26T08:47:20Z</time>
      </trkpt>
      <trkpt lat="44.68924" lon="5.95442">
        <ele>1460</ele>
        <time>2021-06-26T08:47:22Z</time>
      </trkpt>
      <trkpt lat="44.68913" lon="5.95451">
        <ele>1458.4</ele>
        <time>2021-06-26T08:47:23Z</time>
      </trkpt>
      <trkpt lat="44.68891" lon="5.95468">
        <ele>1456.8</ele>
        <time>2021-06-26T08:47:25Z</time>
      </trkpt>
      <trkpt lat="44.68869" lon="5.95483">
        <ele>1454.4</ele>
        <time>2021-06-26T08:47:27Z</time>
      </trkpt>
      <trkpt lat="44.68846" lon="5.95492">
        <ele>1452.8</ele>
        <time>2021-06-26T08:47:29Z</time>
      </trkpt>
      <trkpt lat="44.68822" lon="5.95499">
        <ele>1450.8</ele>
        <time>2021-06-26T08:47:31Z</time>
      </trkpt>
      <trkpt lat="44.6881" lon="5.95502">
        <ele>1449.4</ele>
        <time>2021-06-26T08:47:32Z</time>
      </trkpt>
      <trkpt lat="44.68786" lon="5.95509">
        <ele>1447</ele>
        <time>2021-06-26T08:47:34Z</time>
      </trkpt>
      <trkpt lat="44.68762" lon="5.9552">
        <ele>1445.8</ele>
        <time>2021-06-26T08:47:36Z</time>
      </trkpt>
      <trkpt lat="44.68737" lon="5.95531">
        <ele>1444.2</ele>
        <time>2021-06-26T08:47:38Z</time>
      </trkpt>
      <trkpt lat="44.68724" lon="5.95534">
        <ele>1443.2</ele>
        <time>2021-06-26T08:47:39Z</time>
      </trkpt>
      <trkpt lat="44.68711" lon="5.95536">
        <ele>1442.4</ele>
        <time>2021-06-26T08:47:40Z</time>
      </trkpt>
      <trkpt lat="44.68698" lon="5.95539">
        <ele>1441.2</ele>
        <time>2021-06-26T08:47:41Z</time>
      </trkpt>
      <trkpt lat="44.68672" lon="5.95548">
        <ele>1439</ele>
        <time>2021-06-26T08:47:43Z</time>
      </trkpt>
      <trkpt lat="44.68659" lon="5.95552">
        <ele>1438.4</ele>
        <time>2021-06-26T08:47:44Z</time>
      </trkpt>
      <trkpt lat="44.68649" lon="5.95556">
        <ele>1436.8</ele>
        <time>2021-06-26T08:47:45Z</time>
      </trkpt>
      <trkpt lat="44.68634" lon="5.95562">
        <ele>1435.6</ele>
        <time>2021-06-26T08:47:46Z</time>
      </trkpt>
      <trkpt lat="44.6861" lon="5.95571">
        <ele>1433.8</ele>
        <time>2021-06-26T08:47:48Z</time>
      </trkpt>
      <trkpt lat="44.68586" lon="5.95579">
        <ele>1432</ele>
        <time>2021-06-26T08:47:50Z</time>
      </trkpt>
      <trkpt lat="44.68575" lon="5.95583">
        <ele>1431.4</ele>
        <time>2021-06-26T08:47:51Z</time>
      </trkpt>
      <trkpt lat="44.68563" lon="5.95587">
        <ele>1430.6</ele>
        <time>2021-06-26T08:47:52Z</time>
      </trkpt>
      <trkpt lat="44.68543" lon="5.95594">
        <ele>1429.4</ele>
        <time>2021-06-26T08:47:54Z</time>
      </trkpt>
      <trkpt lat="44.6853" lon="5.95599">
        <ele>1427.8</ele>
        <time>2021-06-26T08:47:55Z</time>
      </trkpt>
      <trkpt lat="44.68519" lon="5.95603">
        <ele>1427</ele>
        <time>2021-06-26T08:47:56Z</time>
      </trkpt>
      <trkpt lat="44.6851" lon="5.95608">
        <ele>1426</ele>
        <time>2021-06-26T08:47:57Z</time>
      </trkpt>
      <trkpt lat="44.68493" lon="5.95615">
        <ele>1425</ele>
        <time>2021-06-26T08:47:59Z</time>
      </trkpt>
      <trkpt lat="44.68483" lon="5.95616">
        <ele>1423.8</ele>
        <time>2021-06-26T08:48:00Z</time>
      </trkpt>
      <trkpt lat="44.68473" lon="5.95611">
        <ele>1423.4</ele>
        <time>2021-06-26T08:48:01Z</time>
      </trkpt>
      <trkpt lat="44.68466" lon="5.95603">
        <ele>1422.6</ele>
        <time>2021-06-26T08:48:02Z</time>
      </trkpt>
      <trkpt lat="44.68453" lon="5.95587">
        <ele>1421.2</ele>
        <time>2021-06-26T08:48:04Z</time>
      </trkpt>
      <trkpt lat="44.68442" lon="5.95579">
        <ele>1420</ele>
        <time>2021-06-26T08:48:05Z</time>
      </trkpt>
      <trkpt lat="44.68433" lon="5.95578">
        <ele>1418.4</ele>
        <time>2021-06-26T08:48:06Z</time>
      </trkpt>
      <trkpt lat="44.6842" lon="5.95579">
        <ele>1417.4</ele>
        <time>2021-06-26T08:48:07Z</time>
      </trkpt>
      <trkpt lat="44.68409" lon="5.95582">
        <ele>1416.8</ele>
        <time>2021-06-26T08:48:08Z</time>
      </trkpt>
      <trkpt lat="44.68399" lon="5.95586">
        <ele>1415.4</ele>
        <time>2021-06-26T08:48:09Z</time>
      </trkpt>
      <trkpt lat="44.68379" lon="5.95593">
        <ele>1413.8</ele>
        <time>2021-06-26T08:48:11Z</time>
      </trkpt>
      <trkpt lat="44.68369" lon="5.95597">
        <ele>1412.6</ele>
        <time>2021-06-26T08:48:12Z</time>
      </trkpt>
      <trkpt lat="44.6836" lon="5.95603">
        <ele>1411</ele>
        <time>2021-06-26T08:48:13Z</time>
      </trkpt>
      <trkpt lat="44.68353" lon="5.95608">
        <ele>1410</ele>
        <time>2021-06-26T08:48:14Z</time>
      </trkpt>
      <trkpt lat="44.68344" lon="5.95619">
        <ele>1409.4</ele>
        <time>2021-06-26T08:48:15Z</time>
      </trkpt>
      <trkpt lat="44.68329" lon="5.95639">
        <ele>1408.2</ele>
        <time>2021-06-26T08:48:17Z</time>
      </trkpt>
      <trkpt lat="44.68321" lon="5.95649">
        <ele>1407.4</ele>
        <time>2021-06-26T08:48:18Z</time>
      </trkpt>
      <trkpt lat="44.68314" lon="5.95658">
        <ele>1406.6</ele>
        <time>2021-06-26T08:48:19Z</time>
      </trkpt>
      <trkpt lat="44.68307" lon="5.95667">
        <ele>1405.6</ele>
        <time>2021-06-26T08:48:20Z</time>
      </trkpt>
      <trkpt lat="44.68288" lon="5.9569">
        <ele>1404.2</ele>
        <time>2021-06-26T08:48:23Z</time>
      </trkpt>
      <trkpt lat="44.68273" lon="5.95698">
        <ele>1403.2</ele>
        <time>2021-06-26T08:48:25Z</time>
      </trkpt>
      <trkpt lat="44.68264" lon="5.95698">
        <ele>1402.8</ele>
        <time>2021-06-26T08:48:26Z</time>
      </trkpt>
      <trkpt lat="44.68248" lon="5.95694">
        <ele>1401.6</ele>
        <time>2021-06-26T08:48:28Z</time>
      </trkpt>
      <trkpt lat="44.68227" lon="5.95688">
        <ele>1400.2</ele>
        <time>2021-06-26T08:48:30Z</time>
      </trkpt>
      <trkpt lat="44.68218" lon="5.95687">
        <ele>1399.8</ele>
        <time>2021-06-26T08:48:31Z</time>
      </trkpt>
      <trkpt lat="44.68208" lon="5.95687">
        <ele>1399.2</ele>
        <time>2021-06-26T08:48:32Z</time>
      </trkpt>
      <trkpt lat="44.68188" lon="5.95692">
        <ele>1397.6</ele>
        <time>2021-06-26T08:48:34Z</time>
      </trkpt>
      <trkpt lat="44.68179" lon="5.95695">
        <ele>1396.8</ele>
        <time>2021-06-26T08:48:35Z</time>
      </trkpt>
      <trkpt lat="44.6817" lon="5.95699">
        <ele>1396.4</ele>
        <time>2021-06-26T08:48:36Z</time>
      </trkpt>
      <trkpt lat="44.68161" lon="5.95701">
        <ele>1395</ele>
        <time>2021-06-26T08:48:37Z</time>
      </trkpt>
      <trkpt lat="44.68145" lon="5.95706">
        <ele>1393</ele>
        <time>2021-06-26T08:48:39Z</time>
      </trkpt>
      <trkpt lat="44.68138" lon="5.95707">
        <ele>1392.8</ele>
        <time>2021-06-26T08:48:40Z</time>
      </trkpt>
      <trkpt lat="44.68132" lon="5.95705">
        <ele>1391.6</ele>
        <time>2021-06-26T08:48:41Z</time>
      </trkpt>
      <trkpt lat="44.68127" lon="5.957">
        <ele>1391</ele>
        <time>2021-06-26T08:48:42Z</time>
      </trkpt>
      <trkpt lat="44.68125" lon="5.95691">
        <ele>1390.6</ele>
        <time>2021-06-26T08:48:43Z</time>
      </trkpt>
      <trkpt lat="44.68127" lon="5.95681">
        <ele>1390.2</ele>
        <time>2021-06-26T08:48:44Z</time>
      </trkpt>
      <trkpt lat="44.68131" lon="5.95673">
        <ele>1390</ele>
        <time>2021-06-26T08:48:45Z</time>
      </trkpt>
      <trkpt lat="44.68138" lon="5.95669">
        <ele>1389.6</ele>
        <time>2021-06-26T08:48:46Z</time>
      </trkpt>
      <trkpt lat="44.68147" lon="5.95666">
        <ele>1389.4</ele>
        <time>2021-06-26T08:48:47Z</time>
      </trkpt>
      <trkpt lat="44.68155" lon="5.95662">
        <ele>1388.8</ele>
        <time>2021-06-26T08:48:48Z</time>
      </trkpt>
      <trkpt lat="44.68172" lon="5.95651">
        <ele>1387.6</ele>
        <time>2021-06-26T08:48:50Z</time>
      </trkpt>
      <trkpt lat="44.68189" lon="5.95635">
        <ele>1386.2</ele>
        <time>2021-06-26T08:48:52Z</time>
      </trkpt>
      <trkpt lat="44.68204" lon="5.95618">
        <ele>1385.4</ele>
        <time>2021-06-26T08:48:54Z</time>
      </trkpt>
      <trkpt lat="44.68211" lon="5.95609">
        <ele>1384.8</ele>
        <time>2021-06-26T08:48:55Z</time>
      </trkpt>
      <trkpt lat="44.68229" lon="5.95593">
        <ele>1383.4</ele>
        <time>2021-06-26T08:48:57Z</time>
      </trkpt>
      <trkpt lat="44.68247" lon="5.95577">
        <ele>1382.2</ele>
        <time>2021-06-26T08:48:59Z</time>
      </trkpt>
      <trkpt lat="44.68274" lon="5.95557">
        <ele>1380.4</ele>
        <time>2021-06-26T08:49:02Z</time>
      </trkpt>
      <trkpt lat="44.68291" lon="5.95544">
        <ele>1378.2</ele>
        <time>2021-06-26T08:49:04Z</time>
      </trkpt>
      <trkpt lat="44.68299" lon="5.95538">
        <ele>1377</ele>
        <time>2021-06-26T08:49:05Z</time>
      </trkpt>
      <trkpt lat="44.68312" lon="5.95526">
        <ele>1375.6</ele>
        <time>2021-06-26T08:49:07Z</time>
      </trkpt>
      <trkpt lat="44.68316" lon="5.9552">
        <ele>1375</ele>
        <time>2021-06-26T08:49:08Z</time>
      </trkpt>
      <trkpt lat="44.68319" lon="5.95512">
        <ele>1374.2</ele>
        <time>2021-06-26T08:49:09Z</time>
      </trkpt>
      <trkpt lat="44.6832" lon="5.95504">
        <ele>1374</ele>
        <time>2021-06-26T08:49:10Z</time>
      </trkpt>
      <trkpt lat="44.68317" lon="5.95497">
        <ele>1373</ele>
        <time>2021-06-26T08:49:11Z</time>
      </trkpt>
      <trkpt lat="44.68312" lon="5.95492">
        <ele>1372.2</ele>
        <time>2021-06-26T08:49:12Z</time>
      </trkpt>
      <trkpt lat="44.68307" lon="5.9549">
        <ele>1371.8</ele>
        <time>2021-06-26T08:49:13Z</time>
      </trkpt>
      <trkpt lat="44.68301" lon="5.9549">
        <ele>1371.4</ele>
        <time>2021-06-26T08:49:14Z</time>
      </trkpt>
      <trkpt lat="44.68295" lon="5.95492">
        <ele>1371.2</ele>
        <time>2021-06-26T08:49:15Z</time>
      </trkpt>
      <trkpt lat="44.6829" lon="5.95496">
        <ele>1370.6</ele>
        <time>2021-06-26T08:49:16Z</time>
      </trkpt>
      <trkpt lat="44.68285" lon="5.955">
        <ele>1370.4</ele>
        <time>2021-06-26T08:49:17Z</time>
      </trkpt>
      <trkpt lat="44.68268" lon="5.95513">
        <ele>1369.4</ele>
        <time>2021-06-26T08:49:20Z</time>
      </trkpt>
      <trkpt lat="44.68239" lon="5.95537">
        <ele>1368.8</ele>
        <time>2021-06-26T08:49:26Z</time>
      </trkpt>
      <trkpt lat="44.68231" lon="5.95543">
        <ele>1368.8</ele>
        <time>2021-06-26T08:49:28Z</time>
      </trkpt>
      <trkpt lat="44.68218" lon="5.95551">
        <ele>1369</ele>
        <time>2021-06-26T08:49:31Z</time>
      </trkpt>
      <trkpt lat="44.6819" lon="5.95557">
        <ele>1369</ele>
        <time>2021-06-26T08:49:36Z</time>
      </trkpt>
      <trkpt lat="44.6817" lon="5.95557">
        <ele>1368.2</ele>
        <time>2021-06-26T08:49:39Z</time>
      </trkpt>
      <trkpt lat="44.68164" lon="5.95558">
        <ele>1368</ele>
        <time>2021-06-26T08:49:40Z</time>
      </trkpt>
      <trkpt lat="44.68157" lon="5.9556">
        <ele>1367.8</ele>
        <time>2021-06-26T08:49:41Z</time>
      </trkpt>
      <trkpt lat="44.68117" lon="5.95582">
        <ele>1367.6</ele>
        <time>2021-06-26T08:49:47Z</time>
      </trkpt>
      <trkpt lat="44.68086" lon="5.95594">
        <ele>1367.6</ele>
        <time>2021-06-26T08:49:51Z</time>
      </trkpt>
      <trkpt lat="44.68077" lon="5.95594">
        <ele>1367.2</ele>
        <time>2021-06-26T08:49:52Z</time>
      </trkpt>
      <trkpt lat="44.6807" lon="5.95593">
        <ele>1366.8</ele>
        <time>2021-06-26T08:49:53Z</time>
      </trkpt>
      <trkpt lat="44.68051" lon="5.95587">
        <ele>1365.4</ele>
        <time>2021-06-26T08:49:55Z</time>
      </trkpt>
      <trkpt lat="44.68042" lon="5.95585">
        <ele>1364.6</ele>
        <time>2021-06-26T08:49:56Z</time>
      </trkpt>
      <trkpt lat="44.68035" lon="5.95584">
        <ele>1364.2</ele>
        <time>2021-06-26T08:49:57Z</time>
      </trkpt>
      <trkpt lat="44.68016" lon="5.95586">
        <ele>1362.8</ele>
        <time>2021-06-26T08:49:59Z</time>
      </trkpt>
      <trkpt lat="44.67967" lon="5.95604">
        <ele>1361.8</ele>
        <time>2021-06-26T08:50:05Z</time>
      </trkpt>
      <trkpt lat="44.6796" lon="5.95608">
        <ele>1361.6</ele>
        <time>2021-06-26T08:50:06Z</time>
      </trkpt>
      <trkpt lat="44.6793" lon="5.95627">
        <ele>1361</ele>
        <time>2021-06-26T08:50:10Z</time>
      </trkpt>
      <trkpt lat="44.67923" lon="5.95631">
        <ele>1361</ele>
        <time>2021-06-26T08:50:11Z</time>
      </trkpt>
      <trkpt lat="44.67912" lon="5.95633">
        <ele>1360.8</ele>
        <time>2021-06-26T08:50:12Z</time>
      </trkpt>
      <trkpt lat="44.67892" lon="5.95629">
        <ele>1360.6</ele>
        <time>2021-06-26T08:50:14Z</time>
      </trkpt>
      <trkpt lat="44.67863" lon="5.95621">
        <ele>1359</ele>
        <time>2021-06-26T08:50:17Z</time>
      </trkpt>
      <trkpt lat="44.67842" lon="5.95615">
        <ele>1357.8</ele>
        <time>2021-06-26T08:50:19Z</time>
      </trkpt>
      <trkpt lat="44.6781" lon="5.95605">
        <ele>1356</ele>
        <time>2021-06-26T08:50:22Z</time>
      </trkpt>
      <trkpt lat="44.67789" lon="5.95599">
        <ele>1353.8</ele>
        <time>2021-06-26T08:50:24Z</time>
      </trkpt>
      <trkpt lat="44.6777" lon="5.95595">
        <ele>1352.6</ele>
        <time>2021-06-26T08:50:26Z</time>
      </trkpt>
      <trkpt lat="44.67757" lon="5.95594">
        <ele>1352.2</ele>
        <time>2021-06-26T08:50:27Z</time>
      </trkpt>
      <trkpt lat="44.67746" lon="5.95594">
        <ele>1351.2</ele>
        <time>2021-06-26T08:50:28Z</time>
      </trkpt>
      <trkpt lat="44.67724" lon="5.95599">
        <ele>1350</ele>
        <time>2021-06-26T08:50:30Z</time>
      </trkpt>
      <trkpt lat="44.67713" lon="5.95602">
        <ele>1348.4</ele>
        <time>2021-06-26T08:50:31Z</time>
      </trkpt>
      <trkpt lat="44.67692" lon="5.95607">
        <ele>1347</ele>
        <time>2021-06-26T08:50:33Z</time>
      </trkpt>
      <trkpt lat="44.67682" lon="5.95607">
        <ele>1346.2</ele>
        <time>2021-06-26T08:50:34Z</time>
      </trkpt>
      <trkpt lat="44.67674" lon="5.95605">
        <ele>1345.4</ele>
        <time>2021-06-26T08:50:35Z</time>
      </trkpt>
      <trkpt lat="44.67663" lon="5.95597">
        <ele>1345</ele>
        <time>2021-06-26T08:50:36Z</time>
      </trkpt>
      <trkpt lat="44.67656" lon="5.95587">
        <ele>1344.4</ele>
        <time>2021-06-26T08:50:37Z</time>
      </trkpt>
      <trkpt lat="44.67636" lon="5.95556">
        <ele>1343</ele>
        <time>2021-06-26T08:50:40Z</time>
      </trkpt>
      <trkpt lat="44.67618" lon="5.95531">
        <ele>1341.4</ele>
        <time>2021-06-26T08:50:42Z</time>
      </trkpt>
      <trkpt lat="44.67602" lon="5.95509">
        <ele>1340.2</ele>
        <time>2021-06-26T08:50:44Z</time>
      </trkpt>
      <trkpt lat="44.67594" lon="5.95498">
        <ele>1339</ele>
        <time>2021-06-26T08:50:45Z</time>
      </trkpt>
      <trkpt lat="44.6758" lon="5.95477">
        <ele>1337.2</ele>
        <time>2021-06-26T08:50:47Z</time>
      </trkpt>
      <trkpt lat="44.67567" lon="5.95458">
        <ele>1335.8</ele>
        <time>2021-06-26T08:50:49Z</time>
      </trkpt>
      <trkpt lat="44.67555" lon="5.9544">
        <ele>1334.6</ele>
        <time>2021-06-26T08:50:51Z</time>
      </trkpt>
      <trkpt lat="44.67551" lon="5.95432">
        <ele>1333.8</ele>
        <time>2021-06-26T08:50:52Z</time>
      </trkpt>
      <trkpt lat="44.67547" lon="5.95423">
        <ele>1333.2</ele>
        <time>2021-06-26T08:50:53Z</time>
      </trkpt>
      <trkpt lat="44.67546" lon="5.95415">
        <ele>1332.2</ele>
        <time>2021-06-26T08:50:54Z</time>
      </trkpt>
      <trkpt lat="44.6755" lon="5.954">
        <ele>1331.4</ele>
        <time>2021-06-26T08:50:56Z</time>
      </trkpt>
      <trkpt lat="44.67556" lon="5.95392">
        <ele>1331.2</ele>
        <time>2021-06-26T08:50:57Z</time>
      </trkpt>
      <trkpt lat="44.67561" lon="5.95388">
        <ele>1330.8</ele>
        <time>2021-06-26T08:50:58Z</time>
      </trkpt>
      <trkpt lat="44.67571" lon="5.95385">
        <ele>1330</ele>
        <time>2021-06-26T08:50:59Z</time>
      </trkpt>
      <trkpt lat="44.67588" lon="5.95384">
        <ele>1328.8</ele>
        <time>2021-06-26T08:51:01Z</time>
      </trkpt>
      <trkpt lat="44.67606" lon="5.95383">
        <ele>1327.8</ele>
        <time>2021-06-26T08:51:03Z</time>
      </trkpt>
      <trkpt lat="44.67613" lon="5.95382">
        <ele>1327.4</ele>
        <time>2021-06-26T08:51:04Z</time>
      </trkpt>
      <trkpt lat="44.67621" lon="5.9538">
        <ele>1326.2</ele>
        <time>2021-06-26T08:51:05Z</time>
      </trkpt>
      <trkpt lat="44.67629" lon="5.95378">
        <ele>1325.6</ele>
        <time>2021-06-26T08:51:06Z</time>
      </trkpt>
      <trkpt lat="44.67642" lon="5.95372">
        <ele>1324.8</ele>
        <time>2021-06-26T08:51:08Z</time>
      </trkpt>
      <trkpt lat="44.67652" lon="5.95366">
        <ele>1324.6</ele>
        <time>2021-06-26T08:51:09Z</time>
      </trkpt>
      <trkpt lat="44.67678" lon="5.95349">
        <ele>1323.4</ele>
        <time>2021-06-26T08:51:12Z</time>
      </trkpt>
      <trkpt lat="44.67685" lon="5.95343">
        <ele>1322.2</ele>
        <time>2021-06-26T08:51:13Z</time>
      </trkpt>
      <trkpt lat="44.67706" lon="5.95326">
        <ele>1321</ele>
        <time>2021-06-26T08:51:15Z</time>
      </trkpt>
      <trkpt lat="44.67726" lon="5.95306">
        <ele>1319.8</ele>
        <time>2021-06-26T08:51:17Z</time>
      </trkpt>
      <trkpt lat="44.67746" lon="5.95288">
        <ele>1318.4</ele>
        <time>2021-06-26T08:51:19Z</time>
      </trkpt>
      <trkpt lat="44.67756" lon="5.95277">
        <ele>1317.4</ele>
        <time>2021-06-26T08:51:20Z</time>
      </trkpt>
      <trkpt lat="44.67774" lon="5.95257">
        <ele>1316</ele>
        <time>2021-06-26T08:51:22Z</time>
      </trkpt>
      <trkpt lat="44.67798" lon="5.95233">
        <ele>1314.6</ele>
        <time>2021-06-26T08:51:24Z</time>
      </trkpt>
      <trkpt lat="44.6782" lon="5.95211">
        <ele>1312.8</ele>
        <time>2021-06-26T08:51:26Z</time>
      </trkpt>
      <trkpt lat="44.67842" lon="5.95189">
        <ele>1311.4</ele>
        <time>2021-06-26T08:51:28Z</time>
      </trkpt>
      <trkpt lat="44.67854" lon="5.95179">
        <ele>1310.4</ele>
        <time>2021-06-26T08:51:29Z</time>
      </trkpt>
      <trkpt lat="44.67879" lon="5.95163">
        <ele>1309</ele>
        <time>2021-06-26T08:51:31Z</time>
      </trkpt>
      <trkpt lat="44.67892" lon="5.95156">
        <ele>1308.2</ele>
        <time>2021-06-26T08:51:32Z</time>
      </trkpt>
      <trkpt lat="44.67905" lon="5.95149">
        <ele>1307.4</ele>
        <time>2021-06-26T08:51:33Z</time>
      </trkpt>
      <trkpt lat="44.67943" lon="5.95125">
        <ele>1305.8</ele>
        <time>2021-06-26T08:51:36Z</time>
      </trkpt>
      <trkpt lat="44.67953" lon="5.95116">
        <ele>1305.2</ele>
        <time>2021-06-26T08:51:37Z</time>
      </trkpt>
      <trkpt lat="44.67966" lon="5.95102">
        <ele>1303.6</ele>
        <time>2021-06-26T08:51:38Z</time>
      </trkpt>
      <trkpt lat="44.67988" lon="5.95078">
        <ele>1301.6</ele>
        <time>2021-06-26T08:51:40Z</time>
      </trkpt>
      <trkpt lat="44.68" lon="5.95067">
        <ele>1301</ele>
        <time>2021-06-26T08:51:41Z</time>
      </trkpt>
      <trkpt lat="44.68012" lon="5.95058">
        <ele>1300.4</ele>
        <time>2021-06-26T08:51:42Z</time>
      </trkpt>
      <trkpt lat="44.68052" lon="5.95033">
        <ele>1298.6</ele>
        <time>2021-06-26T08:51:45Z</time>
      </trkpt>
      <trkpt lat="44.68079" lon="5.95018">
        <ele>1297</ele>
        <time>2021-06-26T08:51:47Z</time>
      </trkpt>
      <trkpt lat="44.68106" lon="5.95002">
        <ele>1296</ele>
        <time>2021-06-26T08:51:49Z</time>
      </trkpt>
      <trkpt lat="44.6812" lon="5.94995">
        <ele>1294.8</ele>
        <time>2021-06-26T08:51:50Z</time>
      </trkpt>
      <trkpt lat="44.68146" lon="5.94979">
        <ele>1293.6</ele>
        <time>2021-06-26T08:51:52Z</time>
      </trkpt>
      <trkpt lat="44.68159" lon="5.94972">
        <ele>1293</ele>
        <time>2021-06-26T08:51:53Z</time>
      </trkpt>
      <trkpt lat="44.68172" lon="5.94967">
        <ele>1291.8</ele>
        <time>2021-06-26T08:51:54Z</time>
      </trkpt>
      <trkpt lat="44.68198" lon="5.94957">
        <ele>1290.8</ele>
        <time>2021-06-26T08:51:56Z</time>
      </trkpt>
      <trkpt lat="44.6821" lon="5.94952">
        <ele>1290.4</ele>
        <time>2021-06-26T08:51:57Z</time>
      </trkpt>
      <trkpt lat="44.68221" lon="5.94946">
        <ele>1289.8</ele>
        <time>2021-06-26T08:51:58Z</time>
      </trkpt>
      <trkpt lat="44.68232" lon="5.94939">
        <ele>1289</ele>
        <time>2021-06-26T08:51:59Z</time>
      </trkpt>
      <trkpt lat="44.68242" lon="5.9493">
        <ele>1288.8</ele>
        <time>2021-06-26T08:52:00Z</time>
      </trkpt>
      <trkpt lat="44.68252" lon="5.94922">
        <ele>1288.6</ele>
        <time>2021-06-26T08:52:01Z</time>
      </trkpt>
      <trkpt lat="44.68263" lon="5.94915">
        <ele>1288.4</ele>
        <time>2021-06-26T08:52:02Z</time>
      </trkpt>
      <trkpt lat="44.68285" lon="5.94904">
        <ele>1287.6</ele>
        <time>2021-06-26T08:52:04Z</time>
      </trkpt>
      <trkpt lat="44.68307" lon="5.94893">
        <ele>1287.2</ele>
        <time>2021-06-26T08:52:06Z</time>
      </trkpt>
      <trkpt lat="44.6833" lon="5.94884">
        <ele>1286</ele>
        <time>2021-06-26T08:52:08Z</time>
      </trkpt>
      <trkpt lat="44.68364" lon="5.94876">
        <ele>1285</ele>
        <time>2021-06-26T08:52:11Z</time>
      </trkpt>
      <trkpt lat="44.68398" lon="5.94868">
        <ele>1284.6</ele>
        <time>2021-06-26T08:52:14Z</time>
      </trkpt>
      <trkpt lat="44.68409" lon="5.94863">
        <ele>1284.4</ele>
        <time>2021-06-26T08:52:15Z</time>
      </trkpt>
      <trkpt lat="44.68439" lon="5.94847">
        <ele>1283.8</ele>
        <time>2021-06-26T08:52:18Z</time>
      </trkpt>
      <trkpt lat="44.68474" lon="5.94827">
        <ele>1282.8</ele>
        <time>2021-06-26T08:52:21Z</time>
      </trkpt>
      <trkpt lat="44.68503" lon="5.94809">
        <ele>1281.6</ele>
        <time>2021-06-26T08:52:24Z</time>
      </trkpt>
      <trkpt lat="44.68524" lon="5.94792">
        <ele>1281</ele>
        <time>2021-06-26T08:52:26Z</time>
      </trkpt>
      <trkpt lat="44.68533" lon="5.94784">
        <ele>1280.8</ele>
        <time>2021-06-26T08:52:27Z</time>
      </trkpt>
      <trkpt lat="44.68566" lon="5.94753">
        <ele>1279.6</ele>
        <time>2021-06-26T08:52:31Z</time>
      </trkpt>
      <trkpt lat="44.68575" lon="5.94745">
        <ele>1279.6</ele>
        <time>2021-06-26T08:52:32Z</time>
      </trkpt>
      <trkpt lat="44.68626" lon="5.94698">
        <ele>1279.2</ele>
        <time>2021-06-26T08:52:38Z</time>
      </trkpt>
      <trkpt lat="44.68652" lon="5.94674">
        <ele>1278.4</ele>
        <time>2021-06-26T08:52:41Z</time>
      </trkpt>
      <trkpt lat="44.68678" lon="5.94649">
        <ele>1277.4</ele>
        <time>2021-06-26T08:52:44Z</time>
      </trkpt>
      <trkpt lat="44.68691" lon="5.94635">
        <ele>1276.4</ele>
        <time>2021-06-26T08:52:46Z</time>
      </trkpt>
      <trkpt lat="44.68696" lon="5.94628">
        <ele>1276.2</ele>
        <time>2021-06-26T08:52:47Z</time>
      </trkpt>
      <trkpt lat="44.68703" lon="5.94621">
        <ele>1275.8</ele>
        <time>2021-06-26T08:52:48Z</time>
      </trkpt>
      <trkpt lat="44.68709" lon="5.94616">
        <ele>1275.6</ele>
        <time>2021-06-26T08:52:49Z</time>
      </trkpt>
      <trkpt lat="44.68716" lon="5.94611">
        <ele>1275</ele>
        <time>2021-06-26T08:52:50Z</time>
      </trkpt>
      <trkpt lat="44.68738" lon="5.94596">
        <ele>1274</ele>
        <time>2021-06-26T08:52:53Z</time>
      </trkpt>
      <trkpt lat="44.68753" lon="5.94584">
        <ele>1273.4</ele>
        <time>2021-06-26T08:52:55Z</time>
      </trkpt>
      <trkpt lat="44.68771" lon="5.94568">
        <ele>1273</ele>
        <time>2021-06-26T08:52:58Z</time>
      </trkpt>
      <trkpt lat="44.68781" lon="5.9456">
        <ele>1271.8</ele>
        <time>2021-06-26T08:53:00Z</time>
      </trkpt>
      <trkpt lat="44.68805" lon="5.94542">
        <ele>1270.8</ele>
        <time>2021-06-26T08:53:05Z</time>
      </trkpt>
      <trkpt lat="44.6881" lon="5.94539">
        <ele>1270.8</ele>
        <time>2021-06-26T08:53:06Z</time>
      </trkpt>
      <trkpt lat="44.68815" lon="5.94536">
        <ele>1270.6</ele>
        <time>2021-06-26T08:53:07Z</time>
      </trkpt>
      <trkpt lat="44.68821" lon="5.94532">
        <ele>1270.4</ele>
        <time>2021-06-26T08:53:08Z</time>
      </trkpt>
      <trkpt lat="44.68836" lon="5.94517">
        <ele>1269.8</ele>
        <time>2021-06-26T08:53:11Z</time>
      </trkpt>
      <trkpt lat="44.68839" lon="5.94512">
        <ele>1269.8</ele>
        <time>2021-06-26T08:53:12Z</time>
      </trkpt>
      <trkpt lat="44.68844" lon="5.94506">
        <ele>1269.6</ele>
        <time>2021-06-26T08:53:13Z</time>
      </trkpt>
      <trkpt lat="44.68858" lon="5.94486">
        <ele>1269.6</ele>
        <time>2021-06-26T08:53:16Z</time>
      </trkpt>
      <trkpt lat="44.68885" lon="5.94438">
        <ele>1269</ele>
        <time>2021-06-26T08:53:22Z</time>
      </trkpt>
      <trkpt lat="44.689" lon="5.94414">
        <ele>1268.8</ele>
        <time>2021-06-26T08:53:25Z</time>
      </trkpt>
      <trkpt lat="44.68907" lon="5.94408">
        <ele>1268.8</ele>
        <time>2021-06-26T08:53:26Z</time>
      </trkpt>
      <trkpt lat="44.68914" lon="5.94402">
        <ele>1268.4</ele>
        <time>2021-06-26T08:53:27Z</time>
      </trkpt>
      <trkpt lat="44.68944" lon="5.94378">
        <ele>1268</ele>
        <time>2021-06-26T08:53:31Z</time>
      </trkpt>
      <trkpt lat="44.68952" lon="5.94372">
        <ele>1267.4</ele>
        <time>2021-06-26T08:53:32Z</time>
      </trkpt>
      <trkpt lat="44.68966" lon="5.94359">
        <ele>1266.6</ele>
        <time>2021-06-26T08:53:34Z</time>
      </trkpt>
      <trkpt lat="44.68972" lon="5.94352">
        <ele>1266.4</ele>
        <time>2021-06-26T08:53:35Z</time>
      </trkpt>
      <trkpt lat="44.68979" lon="5.94346">
        <ele>1266</ele>
        <time>2021-06-26T08:53:36Z</time>
      </trkpt>
      <trkpt lat="44.69014" lon="5.94324">
        <ele>1265.6</ele>
        <time>2021-06-26T08:53:41Z</time>
      </trkpt>
      <trkpt lat="44.69044" lon="5.94298">
        <ele>1265.6</ele>
        <time>2021-06-26T08:53:46Z</time>
      </trkpt>
      <trkpt lat="44.69073" lon="5.94274">
        <ele>1267</ele>
        <time>2021-06-26T08:53:52Z</time>
      </trkpt>
      <trkpt lat="44.69085" lon="5.94265">
        <ele>1267.6</ele>
        <time>2021-06-26T08:53:55Z</time>
      </trkpt>
      <trkpt lat="44.69109" lon="5.94246">
        <ele>1268.8</ele>
        <time>2021-06-26T08:54:00Z</time>
      </trkpt>
      <trkpt lat="44.69142" lon="5.9422">
        <ele>1270</ele>
        <time>2021-06-26T08:54:07Z</time>
      </trkpt>
      <trkpt lat="44.69147" lon="5.94215">
        <ele>1270</ele>
        <time>2021-06-26T08:54:08Z</time>
      </trkpt>
      <trkpt lat="44.69168" lon="5.94199">
        <ele>1270.8</ele>
        <time>2021-06-26T08:54:13Z</time>
      </trkpt>
      <trkpt lat="44.69172" lon="5.94195">
        <ele>1271</ele>
        <time>2021-06-26T08:54:14Z</time>
      </trkpt>
      <trkpt lat="44.69193" lon="5.9418">
        <ele>1271.8</ele>
        <time>2021-06-26T08:54:19Z</time>
      </trkpt>
      <trkpt lat="44.692" lon="5.94174">
        <ele>1272.4</ele>
        <time>2021-06-26T08:54:21Z</time>
      </trkpt>
      <trkpt lat="44.69219" lon="5.94164">
        <ele>1272.8</ele>
        <time>2021-06-26T08:54:25Z</time>
      </trkpt>
      <trkpt lat="44.69229" lon="5.9416">
        <ele>1273</ele>
        <time>2021-06-26T08:54:27Z</time>
      </trkpt>
      <trkpt lat="44.69247" lon="5.9415">
        <ele>1273</ele>
        <time>2021-06-26T08:54:30Z</time>
      </trkpt>
      <trkpt lat="44.69263" lon="5.94139">
        <ele>1272.8</ele>
        <time>2021-06-26T08:54:33Z</time>
      </trkpt>
      <trkpt lat="44.69281" lon="5.94133">
        <ele>1272.6</ele>
        <time>2021-06-26T08:54:36Z</time>
      </trkpt>
      <trkpt lat="44.69295" lon="5.9413">
        <ele>1272.2</ele>
        <time>2021-06-26T08:54:38Z</time>
      </trkpt>
      <trkpt lat="44.69311" lon="5.9413">
        <ele>1272</ele>
        <time>2021-06-26T08:54:41Z</time>
      </trkpt>
      <trkpt lat="44.69317" lon="5.9413">
        <ele>1272</ele>
        <time>2021-06-26T08:54:42Z</time>
      </trkpt>
      <trkpt lat="44.69327" lon="5.94127">
        <ele>1272</ele>
        <time>2021-06-26T08:54:44Z</time>
      </trkpt>
      <trkpt lat="44.69358" lon="5.94115">
        <ele>1273.4</ele>
        <time>2021-06-26T08:54:51Z</time>
      </trkpt>
      <trkpt lat="44.69362" lon="5.94112">
        <ele>1273.6</ele>
        <time>2021-06-26T08:54:52Z</time>
      </trkpt>
      <trkpt lat="44.69372" lon="5.94106">
        <ele>1275</ele>
        <time>2021-06-26T08:54:55Z</time>
      </trkpt>
      <trkpt lat="44.6938" lon="5.94101">
        <ele>1275.4</ele>
        <time>2021-06-26T08:54:57Z</time>
      </trkpt>
      <trkpt lat="44.69383" lon="5.94098">
        <ele>1275.4</ele>
        <time>2021-06-26T08:54:58Z</time>
      </trkpt>
      <trkpt lat="44.69401" lon="5.9408">
        <ele>1276.2</ele>
        <time>2021-06-26T08:55:04Z</time>
      </trkpt>
      <trkpt lat="44.69411" lon="5.94064">
        <ele>1276.2</ele>
        <time>2021-06-26T08:55:07Z</time>
      </trkpt>
      <trkpt lat="44.69415" lon="5.94058">
        <ele>1276.2</ele>
        <time>2021-06-26T08:55:08Z</time>
      </trkpt>
      <trkpt lat="44.69438" lon="5.94018">
        <ele>1275.6</ele>
        <time>2021-06-26T08:55:14Z</time>
      </trkpt>
      <trkpt lat="44.6945" lon="5.93995">
        <ele>1275</ele>
        <time>2021-06-26T08:55:17Z</time>
      </trkpt>
      <trkpt lat="44.69466" lon="5.93964">
        <ele>1274.4</ele>
        <time>2021-06-26T08:55:21Z</time>
      </trkpt>
      <trkpt lat="44.69475" lon="5.93937">
        <ele>1274</ele>
        <time>2021-06-26T08:55:24Z</time>
      </trkpt>
      <trkpt lat="44.69485" lon="5.93899">
        <ele>1273.2</ele>
        <time>2021-06-26T08:55:28Z</time>
      </trkpt>
      <trkpt lat="44.69489" lon="5.9388">
        <ele>1272.8</ele>
        <time>2021-06-26T08:55:30Z</time>
      </trkpt>
      <trkpt lat="44.69501" lon="5.93821">
        <ele>1271.6</ele>
        <time>2021-06-26T08:55:36Z</time>
      </trkpt>
      <trkpt lat="44.69511" lon="5.93765">
        <ele>1271.4</ele>
        <time>2021-06-26T08:55:42Z</time>
      </trkpt>
      <trkpt lat="44.69529" lon="5.9371">
        <ele>1271.4</ele>
        <time>2021-06-26T08:55:48Z</time>
      </trkpt>
      <trkpt lat="44.69561" lon="5.93657">
        <ele>1271</ele>
        <time>2021-06-26T08:55:55Z</time>
      </trkpt>
      <trkpt lat="44.69567" lon="5.93648">
        <ele>1270.6</ele>
        <time>2021-06-26T08:55:56Z</time>
      </trkpt>
      <trkpt lat="44.69599" lon="5.93597">
        <ele>1269.6</ele>
        <time>2021-06-26T08:56:03Z</time>
      </trkpt>
      <trkpt lat="44.69608" lon="5.93578">
        <ele>1269.2</ele>
        <time>2021-06-26T08:56:05Z</time>
      </trkpt>
      <trkpt lat="44.69625" lon="5.93545">
        <ele>1268.8</ele>
        <time>2021-06-26T08:56:09Z</time>
      </trkpt>
      <trkpt lat="44.69628" lon="5.93536">
        <ele>1268.6</ele>
        <time>2021-06-26T08:56:10Z</time>
      </trkpt>
      <trkpt lat="44.69629" lon="5.93525">
        <ele>1268.6</ele>
        <time>2021-06-26T08:56:11Z</time>
      </trkpt>
      <trkpt lat="44.69628" lon="5.93515">
        <ele>1268.4</ele>
        <time>2021-06-26T08:56:12Z</time>
      </trkpt>
      <trkpt lat="44.69627" lon="5.93504">
        <ele>1268.4</ele>
        <time>2021-06-26T08:56:13Z</time>
      </trkpt>
      <trkpt lat="44.69626" lon="5.93494">
        <ele>1268.2</ele>
        <time>2021-06-26T08:56:14Z</time>
      </trkpt>
      <trkpt lat="44.69628" lon="5.93474">
        <ele>1268</ele>
        <time>2021-06-26T08:56:16Z</time>
      </trkpt>
      <trkpt lat="44.69629" lon="5.93465">
        <ele>1268</ele>
        <time>2021-06-26T08:56:17Z</time>
      </trkpt>
      <trkpt lat="44.6964" lon="5.93428">
        <ele>1268.4</ele>
        <time>2021-06-26T08:56:22Z</time>
      </trkpt>
      <trkpt lat="44.69654" lon="5.93388">
        <ele>1269</ele>
        <time>2021-06-26T08:56:28Z</time>
      </trkpt>
      <trkpt lat="44.69671" lon="5.93352">
        <ele>1269.4</ele>
        <time>2021-06-26T08:56:34Z</time>
      </trkpt>
      <trkpt lat="44.69688" lon="5.93325">
        <ele>1269.4</ele>
        <time>2021-06-26T08:56:39Z</time>
      </trkpt>
      <trkpt lat="44.69696" lon="5.93316">
        <ele>1269.4</ele>
        <time>2021-06-26T08:56:41Z</time>
      </trkpt>
      <trkpt lat="44.69733" lon="5.93294">
        <ele>1269.2</ele>
        <time>2021-06-26T08:56:48Z</time>
      </trkpt>
      <trkpt lat="44.69774" lon="5.93276">
        <ele>1268.2</ele>
        <time>2021-06-26T08:56:54Z</time>
      </trkpt>
      <trkpt lat="44.69803" lon="5.93271">
        <ele>1267.4</ele>
        <time>2021-06-26T08:56:58Z</time>
      </trkpt>
      <trkpt lat="44.69827" lon="5.93267">
        <ele>1266</ele>
        <time>2021-06-26T08:57:01Z</time>
      </trkpt>
      <trkpt lat="44.69835" lon="5.93262">
        <ele>1265.8</ele>
        <time>2021-06-26T08:57:02Z</time>
      </trkpt>
      <trkpt lat="44.69843" lon="5.93254">
        <ele>1265.4</ele>
        <time>2021-06-26T08:57:03Z</time>
      </trkpt>
      <trkpt lat="44.69847" lon="5.93247">
        <ele>1265.2</ele>
        <time>2021-06-26T08:57:04Z</time>
      </trkpt>
      <trkpt lat="44.69852" lon="5.93237">
        <ele>1264.6</ele>
        <time>2021-06-26T08:57:05Z</time>
      </trkpt>
      <trkpt lat="44.69857" lon="5.93227">
        <ele>1264</ele>
        <time>2021-06-26T08:57:06Z</time>
      </trkpt>
      <trkpt lat="44.69861" lon="5.93217">
        <ele>1263.4</ele>
        <time>2021-06-26T08:57:07Z</time>
      </trkpt>
      <trkpt lat="44.69879" lon="5.93182">
        <ele>1262.4</ele>
        <time>2021-06-26T08:57:10Z</time>
      </trkpt>
      <trkpt lat="44.69896" lon="5.93148">
        <ele>1261.8</ele>
        <time>2021-06-26T08:57:13Z</time>
      </trkpt>
      <trkpt lat="44.69899" lon="5.93138">
        <ele>1261</ele>
        <time>2021-06-26T08:57:14Z</time>
      </trkpt>
      <trkpt lat="44.69902" lon="5.93124">
        <ele>1260.2</ele>
        <time>2021-06-26T08:57:15Z</time>
      </trkpt>
      <trkpt lat="44.69904" lon="5.93109">
        <ele>1259.8</ele>
        <time>2021-06-26T08:57:16Z</time>
      </trkpt>
      <trkpt lat="44.69908" lon="5.93096">
        <ele>1259</ele>
        <time>2021-06-26T08:57:17Z</time>
      </trkpt>
      <trkpt lat="44.69915" lon="5.93086">
        <ele>1258.4</ele>
        <time>2021-06-26T08:57:18Z</time>
      </trkpt>
      <trkpt lat="44.69923" lon="5.93079">
        <ele>1257.6</ele>
        <time>2021-06-26T08:57:19Z</time>
      </trkpt>
      <trkpt lat="44.69933" lon="5.93077">
        <ele>1257.4</ele>
        <time>2021-06-26T08:57:20Z</time>
      </trkpt>
      <trkpt lat="44.69944" lon="5.93076">
        <ele>1255.6</ele>
        <time>2021-06-26T08:57:21Z</time>
      </trkpt>
      <trkpt lat="44.6997" lon="5.93081">
        <ele>1253.2</ele>
        <time>2021-06-26T08:57:23Z</time>
      </trkpt>
      <trkpt lat="44.6998" lon="5.93084">
        <ele>1251.8</ele>
        <time>2021-06-26T08:57:24Z</time>
      </trkpt>
      <trkpt lat="44.70003" lon="5.93091">
        <ele>1249.8</ele>
        <time>2021-06-26T08:57:26Z</time>
      </trkpt>
      <trkpt lat="44.70014" lon="5.93093">
        <ele>1248.6</ele>
        <time>2021-06-26T08:57:27Z</time>
      </trkpt>
      <trkpt lat="44.70025" lon="5.93091">
        <ele>1247</ele>
        <time>2021-06-26T08:57:28Z</time>
      </trkpt>
      <trkpt lat="44.70034" lon="5.93084">
        <ele>1245.6</ele>
        <time>2021-06-26T08:57:29Z</time>
      </trkpt>
      <trkpt lat="44.7004" lon="5.93075">
        <ele>1244.4</ele>
        <time>2021-06-26T08:57:30Z</time>
      </trkpt>
      <trkpt lat="44.70044" lon="5.93062">
        <ele>1243</ele>
        <time>2021-06-26T08:57:31Z</time>
      </trkpt>
      <trkpt lat="44.70045" lon="5.93049">
        <ele>1242.4</ele>
        <time>2021-06-26T08:57:32Z</time>
      </trkpt>
      <trkpt lat="44.70045" lon="5.93035">
        <ele>1241.8</ele>
        <time>2021-06-26T08:57:33Z</time>
      </trkpt>
      <trkpt lat="44.70041" lon="5.92992">
        <ele>1240.6</ele>
        <time>2021-06-26T08:57:36Z</time>
      </trkpt>
      <trkpt lat="44.70039" lon="5.92967">
        <ele>1239.4</ele>
        <time>2021-06-26T08:57:38Z</time>
      </trkpt>
      <trkpt lat="44.70041" lon="5.92959">
        <ele>1239</ele>
        <time>2021-06-26T08:57:39Z</time>
      </trkpt>
      <trkpt lat="44.70044" lon="5.9295">
        <ele>1238.4</ele>
        <time>2021-06-26T08:57:40Z</time>
      </trkpt>
      <trkpt lat="44.7005" lon="5.92944">
        <ele>1238.2</ele>
        <time>2021-06-26T08:57:41Z</time>
      </trkpt>
      <trkpt lat="44.70069" lon="5.92937">
        <ele>1237.2</ele>
        <time>2021-06-26T08:57:44Z</time>
      </trkpt>
      <trkpt lat="44.70085" lon="5.92929">
        <ele>1237</ele>
        <time>2021-06-26T08:57:46Z</time>
      </trkpt>
      <trkpt lat="44.70092" lon="5.92925">
        <ele>1236.8</ele>
        <time>2021-06-26T08:57:47Z</time>
      </trkpt>
      <trkpt lat="44.70104" lon="5.92911">
        <ele>1236</ele>
        <time>2021-06-26T08:57:49Z</time>
      </trkpt>
      <trkpt lat="44.70113" lon="5.92889">
        <ele>1234.6</ele>
        <time>2021-06-26T08:57:51Z</time>
      </trkpt>
      <trkpt lat="44.70115" lon="5.92878">
        <ele>1234</ele>
        <time>2021-06-26T08:57:52Z</time>
      </trkpt>
      <trkpt lat="44.70117" lon="5.92859">
        <ele>1233.6</ele>
        <time>2021-06-26T08:57:54Z</time>
      </trkpt>
      <trkpt lat="44.70118" lon="5.92846">
        <ele>1233.4</ele>
        <time>2021-06-26T08:57:55Z</time>
      </trkpt>
      <trkpt lat="44.70117" lon="5.92826">
        <ele>1233</ele>
        <time>2021-06-26T08:57:57Z</time>
      </trkpt>
      <trkpt lat="44.70113" lon="5.92809">
        <ele>1232.6</ele>
        <time>2021-06-26T08:57:59Z</time>
      </trkpt>
      <trkpt lat="44.70107" lon="5.92778">
        <ele>1232.4</ele>
        <time>2021-06-26T08:58:02Z</time>
      </trkpt>
      <trkpt lat="44.70105" lon="5.92748">
        <ele>1232</ele>
        <time>2021-06-26T08:58:05Z</time>
      </trkpt>
      <trkpt lat="44.70106" lon="5.92738">
        <ele>1232</ele>
        <time>2021-06-26T08:58:06Z</time>
      </trkpt>
      <trkpt lat="44.70108" lon="5.92728">
        <ele>1232</ele>
        <time>2021-06-26T08:58:07Z</time>
      </trkpt>
      <trkpt lat="44.70116" lon="5.92711">
        <ele>1232</ele>
        <time>2021-06-26T08:58:09Z</time>
      </trkpt>
      <trkpt lat="44.70128" lon="5.92697">
        <ele>1231.8</ele>
        <time>2021-06-26T08:58:11Z</time>
      </trkpt>
      <trkpt lat="44.70142" lon="5.92688">
        <ele>1231.8</ele>
        <time>2021-06-26T08:58:13Z</time>
      </trkpt>
      <trkpt lat="44.70169" lon="5.92674">
        <ele>1231.8</ele>
        <time>2021-06-26T08:58:17Z</time>
      </trkpt>
      <trkpt lat="44.7019" lon="5.92662">
        <ele>1231.4</ele>
        <time>2021-06-26T08:58:20Z</time>
      </trkpt>
      <trkpt lat="44.70213" lon="5.9264">
        <ele>1230.8</ele>
        <time>2021-06-26T08:58:24Z</time>
      </trkpt>
      <trkpt lat="44.7022" lon="5.92631">
        <ele>1230.8</ele>
        <time>2021-06-26T08:58:25Z</time>
      </trkpt>
      <trkpt lat="44.70267" lon="5.92575">
        <ele>1229.8</ele>
        <time>2021-06-26T08:58:33Z</time>
      </trkpt>
      <trkpt lat="44.70274" lon="5.9257">
        <ele>1229.6</ele>
        <time>2021-06-26T08:58:34Z</time>
      </trkpt>
      <trkpt lat="44.70301" lon="5.92556">
        <ele>1229.2</ele>
        <time>2021-06-26T08:58:38Z</time>
      </trkpt>
      <trkpt lat="44.70333" lon="5.92538">
        <ele>1229.2</ele>
        <time>2021-06-26T08:58:43Z</time>
      </trkpt>
      <trkpt lat="44.70384" lon="5.92507">
        <ele>1229.6</ele>
        <time>2021-06-26T08:58:51Z</time>
      </trkpt>
      <trkpt lat="44.70391" lon="5.92503">
        <ele>1229.8</ele>
        <time>2021-06-26T08:58:52Z</time>
      </trkpt>
      <trkpt lat="44.70444" lon="5.9247">
        <ele>1229.6</ele>
        <time>2021-06-26T08:59:00Z</time>
      </trkpt>
      <trkpt lat="44.70473" lon="5.92448">
        <ele>1229.8</ele>
        <time>2021-06-26T08:59:05Z</time>
      </trkpt>
      <trkpt lat="44.70504" lon="5.92406">
        <ele>1231</ele>
        <time>2021-06-26T08:59:12Z</time>
      </trkpt>
      <trkpt lat="44.70509" lon="5.92399">
        <ele>1231</ele>
        <time>2021-06-26T08:59:13Z</time>
      </trkpt>
      <trkpt lat="44.70535" lon="5.92352">
        <ele>1231.2</ele>
        <time>2021-06-26T08:59:20Z</time>
      </trkpt>
      <trkpt lat="44.70545" lon="5.92318">
        <ele>1231.6</ele>
        <time>2021-06-26T08:59:25Z</time>
      </trkpt>
      <trkpt lat="44.7055" lon="5.92293">
        <ele>1232.2</ele>
        <time>2021-06-26T08:59:29Z</time>
      </trkpt>
      <trkpt lat="44.70553" lon="5.92281">
        <ele>1232.6</ele>
        <time>2021-06-26T08:59:31Z</time>
      </trkpt>
      <trkpt lat="44.70555" lon="5.92274">
        <ele>1232.6</ele>
        <time>2021-06-26T08:59:32Z</time>
      </trkpt>
      <trkpt lat="44.70558" lon="5.92264">
        <ele>1233.2</ele>
        <time>2021-06-26T08:59:34Z</time>
      </trkpt>
      <trkpt lat="44.7056" lon="5.92257">
        <ele>1233.2</ele>
        <time>2021-06-26T08:59:35Z</time>
      </trkpt>
      <trkpt lat="44.70566" lon="5.92243">
        <ele>1233.6</ele>
        <time>2021-06-26T08:59:38Z</time>
      </trkpt>
      <trkpt lat="44.70574" lon="5.92228">
        <ele>1234.6</ele>
        <time>2021-06-26T08:59:41Z</time>
      </trkpt>
      <trkpt lat="44.7058" lon="5.92219">
        <ele>1235</ele>
        <time>2021-06-26T08:59:43Z</time>
      </trkpt>
      <trkpt lat="44.70605" lon="5.9219">
        <ele>1235.6</ele>
        <time>2021-06-26T08:59:50Z</time>
      </trkpt>
      <trkpt lat="44.70646" lon="5.92147">
        <ele>1235.6</ele>
        <time>2021-06-26T09:00:00Z</time>
      </trkpt>
      <trkpt lat="44.70688" lon="5.92103">
        <ele>1234.4</ele>
        <time>2021-06-26T09:00:10Z</time>
      </trkpt>
      <trkpt lat="44.70724" lon="5.92053">
        <ele>1233.8</ele>
        <time>2021-06-26T09:00:19Z</time>
      </trkpt>
      <trkpt lat="44.7074" lon="5.92021">
        <ele>1232.6</ele>
        <time>2021-06-26T09:00:23Z</time>
      </trkpt>
      <trkpt lat="44.70747" lon="5.92005">
        <ele>1232</ele>
        <time>2021-06-26T09:00:25Z</time>
      </trkpt>
      <trkpt lat="44.70755" lon="5.91984">
        <ele>1231.6</ele>
        <time>2021-06-26T09:00:27Z</time>
      </trkpt>
      <trkpt lat="44.70774" lon="5.91946">
        <ele>1230.4</ele>
        <time>2021-06-26T09:00:31Z</time>
      </trkpt>
      <trkpt lat="44.7078" lon="5.91934">
        <ele>1230.2</ele>
        <time>2021-06-26T09:00:32Z</time>
      </trkpt>
      <trkpt lat="44.70791" lon="5.91919">
        <ele>1229</ele>
        <time>2021-06-26T09:00:34Z</time>
      </trkpt>
      <trkpt lat="44.70799" lon="5.91909">
        <ele>1228.8</ele>
        <time>2021-06-26T09:00:35Z</time>
      </trkpt>
      <trkpt lat="44.70815" lon="5.91895">
        <ele>1227.8</ele>
        <time>2021-06-26T09:00:37Z</time>
      </trkpt>
      <trkpt lat="44.7083" lon="5.91883">
        <ele>1226.6</ele>
        <time>2021-06-26T09:00:39Z</time>
      </trkpt>
      <trkpt lat="44.70839" lon="5.91876">
        <ele>1226.2</ele>
        <time>2021-06-26T09:00:40Z</time>
      </trkpt>
      <trkpt lat="44.7086" lon="5.91861">
        <ele>1225.4</ele>
        <time>2021-06-26T09:00:42Z</time>
      </trkpt>
      <trkpt lat="44.70868" lon="5.91856">
        <ele>1224</ele>
        <time>2021-06-26T09:00:43Z</time>
      </trkpt>
      <trkpt lat="44.70889" lon="5.91846">
        <ele>1222.8</ele>
        <time>2021-06-26T09:00:45Z</time>
      </trkpt>
      <trkpt lat="44.7091" lon="5.91837">
        <ele>1221.6</ele>
        <time>2021-06-26T09:00:47Z</time>
      </trkpt>
      <trkpt lat="44.70944" lon="5.91825">
        <ele>1220.6</ele>
        <time>2021-06-26T09:00:50Z</time>
      </trkpt>
      <trkpt lat="44.70969" lon="5.91817">
        <ele>1219.8</ele>
        <time>2021-06-26T09:00:52Z</time>
      </trkpt>
      <trkpt lat="44.70981" lon="5.91813">
        <ele>1218.6</ele>
        <time>2021-06-26T09:00:53Z</time>
      </trkpt>
      <trkpt lat="44.71006" lon="5.91805">
        <ele>1217.4</ele>
        <time>2021-06-26T09:00:55Z</time>
      </trkpt>
      <trkpt lat="44.71032" lon="5.91796">
        <ele>1216.4</ele>
        <time>2021-06-26T09:00:57Z</time>
      </trkpt>
      <trkpt lat="44.71045" lon="5.91793">
        <ele>1215.6</ele>
        <time>2021-06-26T09:00:58Z</time>
      </trkpt>
      <trkpt lat="44.71056" lon="5.9179">
        <ele>1214.4</ele>
        <time>2021-06-26T09:00:59Z</time>
      </trkpt>
      <trkpt lat="44.71072" lon="5.91787">
        <ele>1213</ele>
        <time>2021-06-26T09:01:00Z</time>
      </trkpt>
      <trkpt lat="44.71099" lon="5.91782">
        <ele>1210.6</ele>
        <time>2021-06-26T09:01:02Z</time>
      </trkpt>
      <trkpt lat="44.71127" lon="5.91776">
        <ele>1208.6</ele>
        <time>2021-06-26T09:01:04Z</time>
      </trkpt>
      <trkpt lat="44.71137" lon="5.91774">
        <ele>1207.8</ele>
        <time>2021-06-26T09:01:05Z</time>
      </trkpt>
      <trkpt lat="44.71154" lon="5.91769">
        <ele>1206.2</ele>
        <time>2021-06-26T09:01:06Z</time>
      </trkpt>
      <trkpt lat="44.71179" lon="5.91762">
        <ele>1204.8</ele>
        <time>2021-06-26T09:01:08Z</time>
      </trkpt>
      <trkpt lat="44.71192" lon="5.91758">
        <ele>1203.6</ele>
        <time>2021-06-26T09:01:09Z</time>
      </trkpt>
      <trkpt lat="44.71209" lon="5.91755">
        <ele>1202.8</ele>
        <time>2021-06-26T09:01:10Z</time>
      </trkpt>
      <trkpt lat="44.71223" lon="5.91754">
        <ele>1202</ele>
        <time>2021-06-26T09:01:11Z</time>
      </trkpt>
      <trkpt lat="44.71234" lon="5.91754">
        <ele>1201</ele>
        <time>2021-06-26T09:01:12Z</time>
      </trkpt>
      <trkpt lat="44.71247" lon="5.91755">
        <ele>1199.8</ele>
        <time>2021-06-26T09:01:13Z</time>
      </trkpt>
      <trkpt lat="44.71261" lon="5.91757">
        <ele>1198.6</ele>
        <time>2021-06-26T09:01:14Z</time>
      </trkpt>
      <trkpt lat="44.71289" lon="5.9176">
        <ele>1197.4</ele>
        <time>2021-06-26T09:01:16Z</time>
      </trkpt>
      <trkpt lat="44.71316" lon="5.91759">
        <ele>1196.2</ele>
        <time>2021-06-26T09:01:18Z</time>
      </trkpt>
      <trkpt lat="44.71343" lon="5.91756">
        <ele>1194.8</ele>
        <time>2021-06-26T09:01:20Z</time>
      </trkpt>
      <trkpt lat="44.71356" lon="5.91754">
        <ele>1193.2</ele>
        <time>2021-06-26T09:01:21Z</time>
      </trkpt>
      <trkpt lat="44.71386" lon="5.91749">
        <ele>1192</ele>
        <time>2021-06-26T09:01:23Z</time>
      </trkpt>
      <trkpt lat="44.71413" lon="5.91745">
        <ele>1190.6</ele>
        <time>2021-06-26T09:01:25Z</time>
      </trkpt>
      <trkpt lat="44.71438" lon="5.91741">
        <ele>1188.8</ele>
        <time>2021-06-26T09:01:27Z</time>
      </trkpt>
      <trkpt lat="44.71468" lon="5.91736">
        <ele>1187.6</ele>
        <time>2021-06-26T09:01:29Z</time>
      </trkpt>
      <trkpt lat="44.71481" lon="5.91734">
        <ele>1186.6</ele>
        <time>2021-06-26T09:01:30Z</time>
      </trkpt>
      <trkpt lat="44.71495" lon="5.91732">
        <ele>1186.4</ele>
        <time>2021-06-26T09:01:31Z</time>
      </trkpt>
      <trkpt lat="44.71522" lon="5.91727">
        <ele>1185.2</ele>
        <time>2021-06-26T09:01:33Z</time>
      </trkpt>
      <trkpt lat="44.71548" lon="5.91722">
        <ele>1183.2</ele>
        <time>2021-06-26T09:01:35Z</time>
      </trkpt>
      <trkpt lat="44.71559" lon="5.9172">
        <ele>1182.2</ele>
        <time>2021-06-26T09:01:36Z</time>
      </trkpt>
      <trkpt lat="44.71572" lon="5.91717">
        <ele>1181.4</ele>
        <time>2021-06-26T09:01:37Z</time>
      </trkpt>
      <trkpt lat="44.71588" lon="5.91712">
        <ele>1181</ele>
        <time>2021-06-26T09:01:38Z</time>
      </trkpt>
      <trkpt lat="44.71613" lon="5.91701">
        <ele>1179.6</ele>
        <time>2021-06-26T09:01:40Z</time>
      </trkpt>
      <trkpt lat="44.71626" lon="5.91694">
        <ele>1178.4</ele>
        <time>2021-06-26T09:01:41Z</time>
      </trkpt>
      <trkpt lat="44.71652" lon="5.91681">
        <ele>1176.8</ele>
        <time>2021-06-26T09:01:43Z</time>
      </trkpt>
      <trkpt lat="44.71665" lon="5.91674">
        <ele>1175.8</ele>
        <time>2021-06-26T09:01:44Z</time>
      </trkpt>
      <trkpt lat="44.71687" lon="5.91662">
        <ele>1174.6</ele>
        <time>2021-06-26T09:01:46Z</time>
      </trkpt>
      <trkpt lat="44.71708" lon="5.9165">
        <ele>1172.4</ele>
        <time>2021-06-26T09:01:48Z</time>
      </trkpt>
      <trkpt lat="44.71726" lon="5.91636">
        <ele>1170</ele>
        <time>2021-06-26T09:01:50Z</time>
      </trkpt>
      <trkpt lat="44.71733" lon="5.91627">
        <ele>1169</ele>
        <time>2021-06-26T09:01:51Z</time>
      </trkpt>
      <trkpt lat="44.71737" lon="5.91613">
        <ele>1168.6</ele>
        <time>2021-06-26T09:01:52Z</time>
      </trkpt>
      <trkpt lat="44.71735" lon="5.916">
        <ele>1167.6</ele>
        <time>2021-06-26T09:01:53Z</time>
      </trkpt>
      <trkpt lat="44.71729" lon="5.91589">
        <ele>1167</ele>
        <time>2021-06-26T09:01:54Z</time>
      </trkpt>
      <trkpt lat="44.71722" lon="5.91581">
        <ele>1166.2</ele>
        <time>2021-06-26T09:01:55Z</time>
      </trkpt>
      <trkpt lat="44.71712" lon="5.91575">
        <ele>1165.2</ele>
        <time>2021-06-26T09:01:56Z</time>
      </trkpt>
      <trkpt lat="44.71702" lon="5.91572">
        <ele>1164</ele>
        <time>2021-06-26T09:01:57Z</time>
      </trkpt>
      <trkpt lat="44.7168" lon="5.91568">
        <ele>1162.6</ele>
        <time>2021-06-26T09:01:59Z</time>
      </trkpt>
      <trkpt lat="44.7167" lon="5.91566">
        <ele>1161.2</ele>
        <time>2021-06-26T09:02:00Z</time>
      </trkpt>
      <trkpt lat="44.71652" lon="5.9156">
        <ele>1159.8</ele>
        <time>2021-06-26T09:02:02Z</time>
      </trkpt>
      <trkpt lat="44.71646" lon="5.91554">
        <ele>1159.4</ele>
        <time>2021-06-26T09:02:03Z</time>
      </trkpt>
      <trkpt lat="44.71642" lon="5.91548">
        <ele>1158.8</ele>
        <time>2021-06-26T09:02:04Z</time>
      </trkpt>
      <trkpt lat="44.71644" lon="5.91542">
        <ele>1158.2</ele>
        <time>2021-06-26T09:02:05Z</time>
      </trkpt>
      <trkpt lat="44.71655" lon="5.9154">
        <ele>1157.6</ele>
        <time>2021-06-26T09:02:07Z</time>
      </trkpt>
      <trkpt lat="44.71662" lon="5.91545">
        <ele>1157.4</ele>
        <time>2021-06-26T09:02:08Z</time>
      </trkpt>
      <trkpt lat="44.71669" lon="5.91549">
        <ele>1157</ele>
        <time>2021-06-26T09:02:09Z</time>
      </trkpt>
      <trkpt lat="44.71676" lon="5.91553">
        <ele>1156.8</ele>
        <time>2021-06-26T09:02:10Z</time>
      </trkpt>
      <trkpt lat="44.71684" lon="5.91556">
        <ele>1156.4</ele>
        <time>2021-06-26T09:02:11Z</time>
      </trkpt>
      <trkpt lat="44.71692" lon="5.91557">
        <ele>1155.4</ele>
        <time>2021-06-26T09:02:12Z</time>
      </trkpt>
      <trkpt lat="44.7171" lon="5.91557">
        <ele>1154.2</ele>
        <time>2021-06-26T09:02:14Z</time>
      </trkpt>
      <trkpt lat="44.7172" lon="5.91557">
        <ele>1154</ele>
        <time>2021-06-26T09:02:15Z</time>
      </trkpt>
      <trkpt lat="44.71741" lon="5.91551">
        <ele>1153</ele>
        <time>2021-06-26T09:02:17Z</time>
      </trkpt>
      <trkpt lat="44.71751" lon="5.91546">
        <ele>1152.4</ele>
        <time>2021-06-26T09:02:18Z</time>
      </trkpt>
      <trkpt lat="44.71759" lon="5.91541">
        <ele>1152</ele>
        <time>2021-06-26T09:02:19Z</time>
      </trkpt>
      <trkpt lat="44.71782" lon="5.91523">
        <ele>1150.4</ele>
        <time>2021-06-26T09:02:21Z</time>
      </trkpt>
      <trkpt lat="44.71791" lon="5.91513">
        <ele>1150.2</ele>
        <time>2021-06-26T09:02:22Z</time>
      </trkpt>
      <trkpt lat="44.718" lon="5.91506">
        <ele>1148.6</ele>
        <time>2021-06-26T09:02:23Z</time>
      </trkpt>
      <trkpt lat="44.7181" lon="5.91497">
        <ele>1147.8</ele>
        <time>2021-06-26T09:02:24Z</time>
      </trkpt>
      <trkpt lat="44.71822" lon="5.91488">
        <ele>1146.4</ele>
        <time>2021-06-26T09:02:25Z</time>
      </trkpt>
      <trkpt lat="44.71833" lon="5.91479">
        <ele>1145.8</ele>
        <time>2021-06-26T09:02:26Z</time>
      </trkpt>
      <trkpt lat="44.71846" lon="5.91467">
        <ele>1144.6</ele>
        <time>2021-06-26T09:02:27Z</time>
      </trkpt>
      <trkpt lat="44.71857" lon="5.91456">
        <ele>1143</ele>
        <time>2021-06-26T09:02:28Z</time>
      </trkpt>
      <trkpt lat="44.71875" lon="5.91434">
        <ele>1141.4</ele>
        <time>2021-06-26T09:02:30Z</time>
      </trkpt>
      <trkpt lat="44.71899" lon="5.91408">
        <ele>1139.8</ele>
        <time>2021-06-26T09:02:32Z</time>
      </trkpt>
      <trkpt lat="44.71921" lon="5.91389">
        <ele>1137.6</ele>
        <time>2021-06-26T09:02:34Z</time>
      </trkpt>
      <trkpt lat="44.7193" lon="5.91384">
        <ele>1136</ele>
        <time>2021-06-26T09:02:35Z</time>
      </trkpt>
      <trkpt lat="44.71955" lon="5.91369">
        <ele>1133.8</ele>
        <time>2021-06-26T09:02:37Z</time>
      </trkpt>
      <trkpt lat="44.71975" lon="5.91359">
        <ele>1132.8</ele>
        <time>2021-06-26T09:02:39Z</time>
      </trkpt>
      <trkpt lat="44.71986" lon="5.91353">
        <ele>1132.6</ele>
        <time>2021-06-26T09:02:40Z</time>
      </trkpt>
      <trkpt lat="44.72019" lon="5.91336">
        <ele>1131.4</ele>
        <time>2021-06-26T09:02:43Z</time>
      </trkpt>
      <trkpt lat="44.72041" lon="5.91324">
        <ele>1130.8</ele>
        <time>2021-06-26T09:02:45Z</time>
      </trkpt>
      <trkpt lat="44.72052" lon="5.91317">
        <ele>1130.2</ele>
        <time>2021-06-26T09:02:46Z</time>
      </trkpt>
      <trkpt lat="44.72083" lon="5.91294">
        <ele>1128.6</ele>
        <time>2021-06-26T09:02:49Z</time>
      </trkpt>
      <trkpt lat="44.72095" lon="5.91285">
        <ele>1128.2</ele>
        <time>2021-06-26T09:02:50Z</time>
      </trkpt>
      <trkpt lat="44.72106" lon="5.91277">
        <ele>1127.4</ele>
        <time>2021-06-26T09:02:51Z</time>
      </trkpt>
      <trkpt lat="44.72128" lon="5.91261">
        <ele>1125.8</ele>
        <time>2021-06-26T09:02:53Z</time>
      </trkpt>
      <trkpt lat="44.7215" lon="5.91245">
        <ele>1123.4</ele>
        <time>2021-06-26T09:02:55Z</time>
      </trkpt>
      <trkpt lat="44.72173" lon="5.91229">
        <ele>1122.4</ele>
        <time>2021-06-26T09:02:57Z</time>
      </trkpt>
      <trkpt lat="44.72196" lon="5.91214">
        <ele>1121</ele>
        <time>2021-06-26T09:02:59Z</time>
      </trkpt>
      <trkpt lat="44.72208" lon="5.91207">
        <ele>1119.6</ele>
        <time>2021-06-26T09:03:00Z</time>
      </trkpt>
      <trkpt lat="44.72232" lon="5.91195">
        <ele>1118.2</ele>
        <time>2021-06-26T09:03:02Z</time>
      </trkpt>
      <trkpt lat="44.72243" lon="5.91189">
        <ele>1117.6</ele>
        <time>2021-06-26T09:03:03Z</time>
      </trkpt>
      <trkpt lat="44.72266" lon="5.91177">
        <ele>1117</ele>
        <time>2021-06-26T09:03:05Z</time>
      </trkpt>
      <trkpt lat="44.72288" lon="5.91164">
        <ele>1115.6</ele>
        <time>2021-06-26T09:03:07Z</time>
      </trkpt>
      <trkpt lat="44.7231" lon="5.91153">
        <ele>1114.2</ele>
        <time>2021-06-26T09:03:09Z</time>
      </trkpt>
      <trkpt lat="44.72346" lon="5.91142">
        <ele>1112.6</ele>
        <time>2021-06-26T09:03:12Z</time>
      </trkpt>
      <trkpt lat="44.7237" lon="5.91133">
        <ele>1111.4</ele>
        <time>2021-06-26T09:03:14Z</time>
      </trkpt>
      <trkpt lat="44.72393" lon="5.9112">
        <ele>1109.8</ele>
        <time>2021-06-26T09:03:16Z</time>
      </trkpt>
      <trkpt lat="44.72403" lon="5.91111">
        <ele>1108.8</ele>
        <time>2021-06-26T09:03:17Z</time>
      </trkpt>
      <trkpt lat="44.72413" lon="5.911">
        <ele>1108.4</ele>
        <time>2021-06-26T09:03:18Z</time>
      </trkpt>
      <trkpt lat="44.72422" lon="5.91089">
        <ele>1107.2</ele>
        <time>2021-06-26T09:03:19Z</time>
      </trkpt>
      <trkpt lat="44.7243" lon="5.91076">
        <ele>1107</ele>
        <time>2021-06-26T09:03:20Z</time>
      </trkpt>
      <trkpt lat="44.72438" lon="5.91063">
        <ele>1106</ele>
        <time>2021-06-26T09:03:21Z</time>
      </trkpt>
      <trkpt lat="44.72448" lon="5.91051">
        <ele>1105.8</ele>
        <time>2021-06-26T09:03:22Z</time>
      </trkpt>
      <trkpt lat="44.72457" lon="5.91041">
        <ele>1105.4</ele>
        <time>2021-06-26T09:03:23Z</time>
      </trkpt>
      <trkpt lat="44.72477" lon="5.91021">
        <ele>1104.4</ele>
        <time>2021-06-26T09:03:25Z</time>
      </trkpt>
      <trkpt lat="44.72497" lon="5.91001">
        <ele>1103.4</ele>
        <time>2021-06-26T09:03:27Z</time>
      </trkpt>
      <trkpt lat="44.72506" lon="5.90992">
        <ele>1102.2</ele>
        <time>2021-06-26T09:03:28Z</time>
      </trkpt>
      <trkpt lat="44.72525" lon="5.90973">
        <ele>1100.6</ele>
        <time>2021-06-26T09:03:30Z</time>
      </trkpt>
      <trkpt lat="44.72533" lon="5.90961">
        <ele>1100.2</ele>
        <time>2021-06-26T09:03:31Z</time>
      </trkpt>
      <trkpt lat="44.72541" lon="5.90949">
        <ele>1099.4</ele>
        <time>2021-06-26T09:03:32Z</time>
      </trkpt>
      <trkpt lat="44.72555" lon="5.90922">
        <ele>1098.4</ele>
        <time>2021-06-26T09:03:34Z</time>
      </trkpt>
      <trkpt lat="44.72562" lon="5.90908">
        <ele>1097.4</ele>
        <time>2021-06-26T09:03:35Z</time>
      </trkpt>
      <trkpt lat="44.72567" lon="5.90894">
        <ele>1097.2</ele>
        <time>2021-06-26T09:03:36Z</time>
      </trkpt>
      <trkpt lat="44.72578" lon="5.90863">
        <ele>1095.8</ele>
        <time>2021-06-26T09:03:38Z</time>
      </trkpt>
      <trkpt lat="44.72584" lon="5.90848">
        <ele>1095.2</ele>
        <time>2021-06-26T09:03:39Z</time>
      </trkpt>
      <trkpt lat="44.72591" lon="5.90835">
        <ele>1094.4</ele>
        <time>2021-06-26T09:03:40Z</time>
      </trkpt>
      <trkpt lat="44.72606" lon="5.9081">
        <ele>1092.8</ele>
        <time>2021-06-26T09:03:42Z</time>
      </trkpt>
      <trkpt lat="44.72614" lon="5.90798">
        <ele>1092.4</ele>
        <time>2021-06-26T09:03:43Z</time>
      </trkpt>
      <trkpt lat="44.72623" lon="5.90788">
        <ele>1091.8</ele>
        <time>2021-06-26T09:03:44Z</time>
      </trkpt>
      <trkpt lat="44.7264" lon="5.90765">
        <ele>1090.4</ele>
        <time>2021-06-26T09:03:46Z</time>
      </trkpt>
      <trkpt lat="44.72647" lon="5.90752">
        <ele>1089.6</ele>
        <time>2021-06-26T09:03:47Z</time>
      </trkpt>
      <trkpt lat="44.72652" lon="5.90738">
        <ele>1089.2</ele>
        <time>2021-06-26T09:03:48Z</time>
      </trkpt>
      <trkpt lat="44.72657" lon="5.90723">
        <ele>1088</ele>
        <time>2021-06-26T09:03:49Z</time>
      </trkpt>
      <trkpt lat="44.72661" lon="5.90708">
        <ele>1087.6</ele>
        <time>2021-06-26T09:03:50Z</time>
      </trkpt>
      <trkpt lat="44.72666" lon="5.90693">
        <ele>1086.6</ele>
        <time>2021-06-26T09:03:51Z</time>
      </trkpt>
      <trkpt lat="44.72677" lon="5.90665">
        <ele>1085.6</ele>
        <time>2021-06-26T09:03:53Z</time>
      </trkpt>
      <trkpt lat="44.72684" lon="5.90653">
        <ele>1085.2</ele>
        <time>2021-06-26T09:03:54Z</time>
      </trkpt>
      <trkpt lat="44.72699" lon="5.90629">
        <ele>1084.2</ele>
        <time>2021-06-26T09:03:56Z</time>
      </trkpt>
      <trkpt lat="44.72731" lon="5.90583">
        <ele>1082.8</ele>
        <time>2021-06-26T09:04:00Z</time>
      </trkpt>
      <trkpt lat="44.72738" lon="5.90569">
        <ele>1081.6</ele>
        <time>2021-06-26T09:04:01Z</time>
      </trkpt>
      <trkpt lat="44.72749" lon="5.90538">
        <ele>1080.8</ele>
        <time>2021-06-26T09:04:03Z</time>
      </trkpt>
      <trkpt lat="44.72754" lon="5.90522">
        <ele>1080.4</ele>
        <time>2021-06-26T09:04:04Z</time>
      </trkpt>
      <trkpt lat="44.7276" lon="5.90505">
        <ele>1079</ele>
        <time>2021-06-26T09:04:05Z</time>
      </trkpt>
      <trkpt lat="44.72775" lon="5.90478">
        <ele>1077.6</ele>
        <time>2021-06-26T09:04:07Z</time>
      </trkpt>
      <trkpt lat="44.72783" lon="5.90465">
        <ele>1076.4</ele>
        <time>2021-06-26T09:04:08Z</time>
      </trkpt>
      <trkpt lat="44.728" lon="5.9044">
        <ele>1074.8</ele>
        <time>2021-06-26T09:04:10Z</time>
      </trkpt>
      <trkpt lat="44.72816" lon="5.90415">
        <ele>1073.4</ele>
        <time>2021-06-26T09:04:12Z</time>
      </trkpt>
      <trkpt lat="44.72833" lon="5.9039">
        <ele>1071.6</ele>
        <time>2021-06-26T09:04:14Z</time>
      </trkpt>
      <trkpt lat="44.72842" lon="5.90379">
        <ele>1070.8</ele>
        <time>2021-06-26T09:04:15Z</time>
      </trkpt>
      <trkpt lat="44.72853" lon="5.9037">
        <ele>1070.2</ele>
        <time>2021-06-26T09:04:16Z</time>
      </trkpt>
      <trkpt lat="44.72864" lon="5.90362">
        <ele>1069.4</ele>
        <time>2021-06-26T09:04:17Z</time>
      </trkpt>
      <trkpt lat="44.72875" lon="5.90355">
        <ele>1069</ele>
        <time>2021-06-26T09:04:18Z</time>
      </trkpt>
      <trkpt lat="44.72898" lon="5.90341">
        <ele>1067.8</ele>
        <time>2021-06-26T09:04:20Z</time>
      </trkpt>
      <trkpt lat="44.72909" lon="5.90333">
        <ele>1066.8</ele>
        <time>2021-06-26T09:04:21Z</time>
      </trkpt>
      <trkpt lat="44.7292" lon="5.90324">
        <ele>1065.8</ele>
        <time>2021-06-26T09:04:22Z</time>
      </trkpt>
      <trkpt lat="44.7293" lon="5.90313">
        <ele>1065.6</ele>
        <time>2021-06-26T09:04:23Z</time>
      </trkpt>
      <trkpt lat="44.72939" lon="5.90303">
        <ele>1064.2</ele>
        <time>2021-06-26T09:04:24Z</time>
      </trkpt>
      <trkpt lat="44.72958" lon="5.90282">
        <ele>1062.4</ele>
        <time>2021-06-26T09:04:26Z</time>
      </trkpt>
      <trkpt lat="44.72968" lon="5.90271">
        <ele>1062</ele>
        <time>2021-06-26T09:04:27Z</time>
      </trkpt>
      <trkpt lat="44.72978" lon="5.90261">
        <ele>1061.2</ele>
        <time>2021-06-26T09:04:28Z</time>
      </trkpt>
      <trkpt lat="44.73" lon="5.90243">
        <ele>1059.6</ele>
        <time>2021-06-26T09:04:30Z</time>
      </trkpt>
      <trkpt lat="44.7301" lon="5.90234">
        <ele>1058.6</ele>
        <time>2021-06-26T09:04:31Z</time>
      </trkpt>
      <trkpt lat="44.7302" lon="5.90223">
        <ele>1058.4</ele>
        <time>2021-06-26T09:04:32Z</time>
      </trkpt>
      <trkpt lat="44.73028" lon="5.9021">
        <ele>1057.8</ele>
        <time>2021-06-26T09:04:33Z</time>
      </trkpt>
      <trkpt lat="44.73034" lon="5.90196">
        <ele>1057.6</ele>
        <time>2021-06-26T09:04:34Z</time>
      </trkpt>
      <trkpt lat="44.7304" lon="5.90181">
        <ele>1057.2</ele>
        <time>2021-06-26T09:04:35Z</time>
      </trkpt>
      <trkpt lat="44.73046" lon="5.9015">
        <ele>1056.6</ele>
        <time>2021-06-26T09:04:37Z</time>
      </trkpt>
      <trkpt lat="44.73047" lon="5.90134">
        <ele>1055.2</ele>
        <time>2021-06-26T09:04:38Z</time>
      </trkpt>
      <trkpt lat="44.73047" lon="5.90117">
        <ele>1054.8</ele>
        <time>2021-06-26T09:04:39Z</time>
      </trkpt>
      <trkpt lat="44.73045" lon="5.90101">
        <ele>1053.8</ele>
        <time>2021-06-26T09:04:40Z</time>
      </trkpt>
      <trkpt lat="44.73038" lon="5.90068">
        <ele>1052.2</ele>
        <time>2021-06-26T09:04:42Z</time>
      </trkpt>
      <trkpt lat="44.73032" lon="5.90037">
        <ele>1050.8</ele>
        <time>2021-06-26T09:04:44Z</time>
      </trkpt>
      <trkpt lat="44.73031" lon="5.90022">
        <ele>1050</ele>
        <time>2021-06-26T09:04:45Z</time>
      </trkpt>
      <trkpt lat="44.73032" lon="5.90008">
        <ele>1049.4</ele>
        <time>2021-06-26T09:04:46Z</time>
      </trkpt>
      <trkpt lat="44.73035" lon="5.89993">
        <ele>1048.6</ele>
        <time>2021-06-26T09:04:47Z</time>
      </trkpt>
      <trkpt lat="44.73037" lon="5.89978">
        <ele>1048.2</ele>
        <time>2021-06-26T09:04:48Z</time>
      </trkpt>
      <trkpt lat="44.73043" lon="5.89947">
        <ele>1047.2</ele>
        <time>2021-06-26T09:04:50Z</time>
      </trkpt>
      <trkpt lat="44.73046" lon="5.89915">
        <ele>1044.8</ele>
        <time>2021-06-26T09:04:52Z</time>
      </trkpt>
      <trkpt lat="44.73049" lon="5.89884">
        <ele>1043.6</ele>
        <time>2021-06-26T09:04:54Z</time>
      </trkpt>
      <trkpt lat="44.73051" lon="5.89842">
        <ele>1042.4</ele>
        <time>2021-06-26T09:04:57Z</time>
      </trkpt>
      <trkpt lat="44.73052" lon="5.89829">
        <ele>1042</ele>
        <time>2021-06-26T09:04:58Z</time>
      </trkpt>
      <trkpt lat="44.73051" lon="5.89773">
        <ele>1041.6</ele>
        <time>2021-06-26T09:05:03Z</time>
      </trkpt>
      <trkpt lat="44.73052" lon="5.89763">
        <ele>1041.6</ele>
        <time>2021-06-26T09:05:04Z</time>
      </trkpt>
      <trkpt lat="44.73055" lon="5.89746">
        <ele>1042</ele>
        <time>2021-06-26T09:05:06Z</time>
      </trkpt>
      <trkpt lat="44.73057" lon="5.89739">
        <ele>1042</ele>
        <time>2021-06-26T09:05:07Z</time>
      </trkpt>
      <trkpt lat="44.73066" lon="5.89722">
        <ele>1043.2</ele>
        <time>2021-06-26T09:05:10Z</time>
      </trkpt>
      <trkpt lat="44.7307" lon="5.89717">
        <ele>1043.4</ele>
        <time>2021-06-26T09:05:11Z</time>
      </trkpt>
      <trkpt lat="44.73078" lon="5.8971">
        <ele>1044.8</ele>
        <time>2021-06-26T09:05:13Z</time>
      </trkpt>
      <trkpt lat="44.73081" lon="5.89707">
        <ele>1045.2</ele>
        <time>2021-06-26T09:05:14Z</time>
      </trkpt>
      <trkpt lat="44.73093" lon="5.89698">
        <ele>1046.2</ele>
        <time>2021-06-26T09:05:17Z</time>
      </trkpt>
      <trkpt lat="44.73108" lon="5.89685">
        <ele>1047.4</ele>
        <time>2021-06-26T09:05:21Z</time>
      </trkpt>
      <trkpt lat="44.73116" lon="5.89679">
        <ele>1047.8</ele>
        <time>2021-06-26T09:05:23Z</time>
      </trkpt>
      <trkpt lat="44.73128" lon="5.8967">
        <ele>1048.6</ele>
        <time>2021-06-26T09:05:26Z</time>
      </trkpt>
      <trkpt lat="44.73147" lon="5.89655">
        <ele>1049.8</ele>
        <time>2021-06-26T09:05:31Z</time>
      </trkpt>
      <trkpt lat="44.7316" lon="5.89648">
        <ele>1050.2</ele>
        <time>2021-06-26T09:05:34Z</time>
      </trkpt>
      <trkpt lat="44.73178" lon="5.89644">
        <ele>1051</ele>
        <time>2021-06-26T09:05:38Z</time>
      </trkpt>
      <trkpt lat="44.73199" lon="5.89635">
        <ele>1051.8</ele>
        <time>2021-06-26T09:05:43Z</time>
      </trkpt>
      <trkpt lat="44.73213" lon="5.89627">
        <ele>1052</ele>
        <time>2021-06-26T09:05:46Z</time>
      </trkpt>
      <trkpt lat="44.7323" lon="5.89616">
        <ele>1052</ele>
        <time>2021-06-26T09:05:50Z</time>
      </trkpt>
      <trkpt lat="44.73254" lon="5.89597">
        <ele>1051.8</ele>
        <time>2021-06-26T09:05:55Z</time>
      </trkpt>
      <trkpt lat="44.73258" lon="5.89593">
        <ele>1051.4</ele>
        <time>2021-06-26T09:05:56Z</time>
      </trkpt>
      <trkpt lat="44.73266" lon="5.89582">
        <ele>1051</ele>
        <time>2021-06-26T09:05:58Z</time>
      </trkpt>
      <trkpt lat="44.73285" lon="5.89557">
        <ele>1050</ele>
        <time>2021-06-26T09:06:02Z</time>
      </trkpt>
      <trkpt lat="44.73291" lon="5.8955">
        <ele>1049.6</ele>
        <time>2021-06-26T09:06:03Z</time>
      </trkpt>
      <trkpt lat="44.73301" lon="5.8954">
        <ele>1049.2</ele>
        <time>2021-06-26T09:06:05Z</time>
      </trkpt>
      <trkpt lat="44.73306" lon="5.89539">
        <ele>1049</ele>
        <time>2021-06-26T09:06:06Z</time>
      </trkpt>
      <trkpt lat="44.73314" lon="5.8954">
        <ele>1048.8</ele>
        <time>2021-06-26T09:06:07Z</time>
      </trkpt>
      <trkpt lat="44.7333" lon="5.89544">
        <ele>1048.2</ele>
        <time>2021-06-26T09:06:09Z</time>
      </trkpt>
      <trkpt lat="44.73338" lon="5.89549">
        <ele>1047.6</ele>
        <time>2021-06-26T09:06:10Z</time>
      </trkpt>
      <trkpt lat="44.73346" lon="5.89554">
        <ele>1047.6</ele>
        <time>2021-06-26T09:06:11Z</time>
      </trkpt>
      <trkpt lat="44.73362" lon="5.89566">
        <ele>1047.2</ele>
        <time>2021-06-26T09:06:13Z</time>
      </trkpt>
      <trkpt lat="44.73377" lon="5.89572">
        <ele>1046.2</ele>
        <time>2021-06-26T09:06:15Z</time>
      </trkpt>
      <trkpt lat="44.73394" lon="5.89573">
        <ele>1045.4</ele>
        <time>2021-06-26T09:06:17Z</time>
      </trkpt>
      <trkpt lat="44.73403" lon="5.89571">
        <ele>1045</ele>
        <time>2021-06-26T09:06:18Z</time>
      </trkpt>
      <trkpt lat="44.73412" lon="5.89565">
        <ele>1044.4</ele>
        <time>2021-06-26T09:06:19Z</time>
      </trkpt>
      <trkpt lat="44.73419" lon="5.89557">
        <ele>1044</ele>
        <time>2021-06-26T09:06:20Z</time>
      </trkpt>
      <trkpt lat="44.73424" lon="5.89549">
        <ele>1043.8</ele>
        <time>2021-06-26T09:06:21Z</time>
      </trkpt>
      <trkpt lat="44.73431" lon="5.89527">
        <ele>1042.8</ele>
        <time>2021-06-26T09:06:23Z</time>
      </trkpt>
      <trkpt lat="44.73439" lon="5.89503">
        <ele>1041.8</ele>
        <time>2021-06-26T09:06:25Z</time>
      </trkpt>
      <trkpt lat="44.73451" lon="5.89484">
        <ele>1040.6</ele>
        <time>2021-06-26T09:06:27Z</time>
      </trkpt>
      <trkpt lat="44.73475" lon="5.89468">
        <ele>1039.8</ele>
        <time>2021-06-26T09:06:30Z</time>
      </trkpt>
      <trkpt lat="44.73484" lon="5.89462">
        <ele>1039.8</ele>
        <time>2021-06-26T09:06:31Z</time>
      </trkpt>
      <trkpt lat="44.73511" lon="5.89448">
        <ele>1038.6</ele>
        <time>2021-06-26T09:06:34Z</time>
      </trkpt>
      <trkpt lat="44.73529" lon="5.8944">
        <ele>1037.8</ele>
        <time>2021-06-26T09:06:36Z</time>
      </trkpt>
      <trkpt lat="44.73539" lon="5.8944">
        <ele>1037.4</ele>
        <time>2021-06-26T09:06:37Z</time>
      </trkpt>
      <trkpt lat="44.73547" lon="5.8944">
        <ele>1036.8</ele>
        <time>2021-06-26T09:06:38Z</time>
      </trkpt>
      <trkpt lat="44.73566" lon="5.89448">
        <ele>1036</ele>
        <time>2021-06-26T09:06:40Z</time>
      </trkpt>
      <trkpt lat="44.73589" lon="5.89469">
        <ele>1034.6</ele>
        <time>2021-06-26T09:06:43Z</time>
      </trkpt>
      <trkpt lat="44.73597" lon="5.89475">
        <ele>1034.4</ele>
        <time>2021-06-26T09:06:44Z</time>
      </trkpt>
      <trkpt lat="44.73605" lon="5.8948">
        <ele>1034</ele>
        <time>2021-06-26T09:06:45Z</time>
      </trkpt>
      <trkpt lat="44.73614" lon="5.89483">
        <ele>1033.6</ele>
        <time>2021-06-26T09:06:46Z</time>
      </trkpt>
      <trkpt lat="44.73622" lon="5.89483">
        <ele>1033</ele>
        <time>2021-06-26T09:06:47Z</time>
      </trkpt>
      <trkpt lat="44.73631" lon="5.8948">
        <ele>1032.6</ele>
        <time>2021-06-26T09:06:48Z</time>
      </trkpt>
      <trkpt lat="44.73637" lon="5.89473">
        <ele>1032.4</ele>
        <time>2021-06-26T09:06:49Z</time>
      </trkpt>
      <trkpt lat="44.73644" lon="5.89452">
        <ele>1031.8</ele>
        <time>2021-06-26T09:06:51Z</time>
      </trkpt>
      <trkpt lat="44.73644" lon="5.89439">
        <ele>1031.2</ele>
        <time>2021-06-26T09:06:52Z</time>
      </trkpt>
      <trkpt lat="44.73642" lon="5.894">
        <ele>1029.8</ele>
        <time>2021-06-26T09:06:55Z</time>
      </trkpt>
      <trkpt lat="44.73644" lon="5.89387">
        <ele>1029.6</ele>
        <time>2021-06-26T09:06:56Z</time>
      </trkpt>
      <trkpt lat="44.73648" lon="5.89375">
        <ele>1028.6</ele>
        <time>2021-06-26T09:06:57Z</time>
      </trkpt>
      <trkpt lat="44.73656" lon="5.89351">
        <ele>1027.4</ele>
        <time>2021-06-26T09:06:59Z</time>
      </trkpt>
      <trkpt lat="44.73662" lon="5.8934">
        <ele>1027.2</ele>
        <time>2021-06-26T09:07:00Z</time>
      </trkpt>
      <trkpt lat="44.73673" lon="5.89318">
        <ele>1026.4</ele>
        <time>2021-06-26T09:07:02Z</time>
      </trkpt>
      <trkpt lat="44.73684" lon="5.89294">
        <ele>1025.4</ele>
        <time>2021-06-26T09:07:04Z</time>
      </trkpt>
      <trkpt lat="44.737" lon="5.89259">
        <ele>1024.2</ele>
        <time>2021-06-26T09:07:07Z</time>
      </trkpt>
      <trkpt lat="44.7371" lon="5.89236">
        <ele>1023.4</ele>
        <time>2021-06-26T09:07:09Z</time>
      </trkpt>
      <trkpt lat="44.73715" lon="5.89225">
        <ele>1023.2</ele>
        <time>2021-06-26T09:07:10Z</time>
      </trkpt>
      <trkpt lat="44.73731" lon="5.89192">
        <ele>1022.2</ele>
        <time>2021-06-26T09:07:13Z</time>
      </trkpt>
      <trkpt lat="44.73754" lon="5.89153">
        <ele>1020.8</ele>
        <time>2021-06-26T09:07:17Z</time>
      </trkpt>
      <trkpt lat="44.73769" lon="5.8914">
        <ele>1020.4</ele>
        <time>2021-06-26T09:07:19Z</time>
      </trkpt>
      <trkpt lat="44.73778" lon="5.89135">
        <ele>1020</ele>
        <time>2021-06-26T09:07:20Z</time>
      </trkpt>
      <trkpt lat="44.73788" lon="5.89133">
        <ele>1020</ele>
        <time>2021-06-26T09:07:21Z</time>
      </trkpt>
      <trkpt lat="44.73797" lon="5.89132">
        <ele>1019.6</ele>
        <time>2021-06-26T09:07:22Z</time>
      </trkpt>
      <trkpt lat="44.73807" lon="5.89134">
        <ele>1019.2</ele>
        <time>2021-06-26T09:07:23Z</time>
      </trkpt>
      <trkpt lat="44.73824" lon="5.89142">
        <ele>1018.2</ele>
        <time>2021-06-26T09:07:25Z</time>
      </trkpt>
      <trkpt lat="44.73832" lon="5.89149">
        <ele>1018</ele>
        <time>2021-06-26T09:07:26Z</time>
      </trkpt>
      <trkpt lat="44.7384" lon="5.89158">
        <ele>1017.6</ele>
        <time>2021-06-26T09:07:27Z</time>
      </trkpt>
      <trkpt lat="44.73854" lon="5.89175">
        <ele>1017</ele>
        <time>2021-06-26T09:07:29Z</time>
      </trkpt>
      <trkpt lat="44.73868" lon="5.89191">
        <ele>1016.6</ele>
        <time>2021-06-26T09:07:31Z</time>
      </trkpt>
      <trkpt lat="44.73885" lon="5.89201">
        <ele>1016</ele>
        <time>2021-06-26T09:07:33Z</time>
      </trkpt>
      <trkpt lat="44.73894" lon="5.89204">
        <ele>1015.6</ele>
        <time>2021-06-26T09:07:34Z</time>
      </trkpt>
      <trkpt lat="44.73904" lon="5.89205">
        <ele>1014.8</ele>
        <time>2021-06-26T09:07:35Z</time>
      </trkpt>
      <trkpt lat="44.73934" lon="5.89205">
        <ele>1013.2</ele>
        <time>2021-06-26T09:07:38Z</time>
      </trkpt>
      <trkpt lat="44.73944" lon="5.89203">
        <ele>1012.4</ele>
        <time>2021-06-26T09:07:39Z</time>
      </trkpt>
      <trkpt lat="44.73955" lon="5.89201">
        <ele>1012</ele>
        <time>2021-06-26T09:07:40Z</time>
      </trkpt>
      <trkpt lat="44.73965" lon="5.89197">
        <ele>1011</ele>
        <time>2021-06-26T09:07:41Z</time>
      </trkpt>
      <trkpt lat="44.73986" lon="5.89189">
        <ele>1009.6</ele>
        <time>2021-06-26T09:07:43Z</time>
      </trkpt>
      <trkpt lat="44.7402" lon="5.89179">
        <ele>1008</ele>
        <time>2021-06-26T09:07:46Z</time>
      </trkpt>
      <trkpt lat="44.74038" lon="5.89174">
        <ele>1007.2</ele>
        <time>2021-06-26T09:07:48Z</time>
      </trkpt>
      <trkpt lat="44.74048" lon="5.89172">
        <ele>1007</ele>
        <time>2021-06-26T09:07:49Z</time>
      </trkpt>
      <trkpt lat="44.74079" lon="5.89164">
        <ele>1005.8</ele>
        <time>2021-06-26T09:07:52Z</time>
      </trkpt>
      <trkpt lat="44.74086" lon="5.89161">
        <ele>1005</ele>
        <time>2021-06-26T09:07:53Z</time>
      </trkpt>
      <trkpt lat="44.74098" lon="5.89157">
        <ele>1004.6</ele>
        <time>2021-06-26T09:07:54Z</time>
      </trkpt>
      <trkpt lat="44.74125" lon="5.89149">
        <ele>1003</ele>
        <time>2021-06-26T09:07:57Z</time>
      </trkpt>
      <trkpt lat="44.74135" lon="5.89146">
        <ele>1002.8</ele>
        <time>2021-06-26T09:07:58Z</time>
      </trkpt>
      <trkpt lat="44.74174" lon="5.89129">
        <ele>1001.8</ele>
        <time>2021-06-26T09:08:02Z</time>
      </trkpt>
      <trkpt lat="44.74184" lon="5.89123">
        <ele>1001</ele>
        <time>2021-06-26T09:08:03Z</time>
      </trkpt>
      <trkpt lat="44.74195" lon="5.89114">
        <ele>1000</ele>
        <time>2021-06-26T09:08:04Z</time>
      </trkpt>
      <trkpt lat="44.74212" lon="5.89099">
        <ele>998.4</ele>
        <time>2021-06-26T09:08:06Z</time>
      </trkpt>
      <trkpt lat="44.74232" lon="5.8908">
        <ele>997.2</ele>
        <time>2021-06-26T09:08:08Z</time>
      </trkpt>
      <trkpt lat="44.74241" lon="5.89072">
        <ele>996</ele>
        <time>2021-06-26T09:08:09Z</time>
      </trkpt>
      <trkpt lat="44.74256" lon="5.8906">
        <ele>994.6</ele>
        <time>2021-06-26T09:08:11Z</time>
      </trkpt>
      <trkpt lat="44.74264" lon="5.89057">
        <ele>993.8</ele>
        <time>2021-06-26T09:08:12Z</time>
      </trkpt>
      <trkpt lat="44.74271" lon="5.89057">
        <ele>993.2</ele>
        <time>2021-06-26T09:08:13Z</time>
      </trkpt>
      <trkpt lat="44.74283" lon="5.89068">
        <ele>992.6</ele>
        <time>2021-06-26T09:08:15Z</time>
      </trkpt>
      <trkpt lat="44.7429" lon="5.89073">
        <ele>991.8</ele>
        <time>2021-06-26T09:08:16Z</time>
      </trkpt>
      <trkpt lat="44.74297" lon="5.89074">
        <ele>991.4</ele>
        <time>2021-06-26T09:08:17Z</time>
      </trkpt>
      <trkpt lat="44.74305" lon="5.89074">
        <ele>990.6</ele>
        <time>2021-06-26T09:08:18Z</time>
      </trkpt>
      <trkpt lat="44.74312" lon="5.89069">
        <ele>990.2</ele>
        <time>2021-06-26T09:08:19Z</time>
      </trkpt>
      <trkpt lat="44.7432" lon="5.89064">
        <ele>989.2</ele>
        <time>2021-06-26T09:08:20Z</time>
      </trkpt>
      <trkpt lat="44.74329" lon="5.89059">
        <ele>988.4</ele>
        <time>2021-06-26T09:08:21Z</time>
      </trkpt>
      <trkpt lat="44.74337" lon="5.89054">
        <ele>988</ele>
        <time>2021-06-26T09:08:22Z</time>
      </trkpt>
      <trkpt lat="44.74371" lon="5.89035">
        <ele>987</ele>
        <time>2021-06-26T09:08:26Z</time>
      </trkpt>
      <trkpt lat="44.74382" lon="5.89026">
        <ele>986.6</ele>
        <time>2021-06-26T09:08:27Z</time>
      </trkpt>
      <trkpt lat="44.7439" lon="5.89018">
        <ele>986</ele>
        <time>2021-06-26T09:08:28Z</time>
      </trkpt>
      <trkpt lat="44.74404" lon="5.88995">
        <ele>985</ele>
        <time>2021-06-26T09:08:30Z</time>
      </trkpt>
      <trkpt lat="44.74415" lon="5.88968">
        <ele>983.6</ele>
        <time>2021-06-26T09:08:32Z</time>
      </trkpt>
      <trkpt lat="44.74424" lon="5.88939">
        <ele>981.8</ele>
        <time>2021-06-26T09:08:34Z</time>
      </trkpt>
      <trkpt lat="44.74431" lon="5.88907">
        <ele>980.6</ele>
        <time>2021-06-26T09:08:36Z</time>
      </trkpt>
      <trkpt lat="44.74433" lon="5.88891">
        <ele>979.4</ele>
        <time>2021-06-26T09:08:37Z</time>
      </trkpt>
      <trkpt lat="44.74439" lon="5.88859">
        <ele>977.6</ele>
        <time>2021-06-26T09:08:39Z</time>
      </trkpt>
      <trkpt lat="44.74448" lon="5.88834">
        <ele>976.4</ele>
        <time>2021-06-26T09:08:41Z</time>
      </trkpt>
      <trkpt lat="44.74455" lon="5.88823">
        <ele>975.8</ele>
        <time>2021-06-26T09:08:42Z</time>
      </trkpt>
      <trkpt lat="44.74467" lon="5.88813">
        <ele>974.6</ele>
        <time>2021-06-26T09:08:43Z</time>
      </trkpt>
      <trkpt lat="44.74475" lon="5.88809">
        <ele>973.6</ele>
        <time>2021-06-26T09:08:44Z</time>
      </trkpt>
      <trkpt lat="44.74486" lon="5.88804">
        <ele>973</ele>
        <time>2021-06-26T09:08:45Z</time>
      </trkpt>
      <trkpt lat="44.74508" lon="5.88798">
        <ele>971.6</ele>
        <time>2021-06-26T09:08:47Z</time>
      </trkpt>
      <trkpt lat="44.74534" lon="5.888">
        <ele>969.8</ele>
        <time>2021-06-26T09:08:49Z</time>
      </trkpt>
      <trkpt lat="44.74558" lon="5.88796">
        <ele>968.4</ele>
        <time>2021-06-26T09:08:51Z</time>
      </trkpt>
      <trkpt lat="44.7458" lon="5.88783">
        <ele>967.2</ele>
        <time>2021-06-26T09:08:53Z</time>
      </trkpt>
      <trkpt lat="44.74589" lon="5.88771">
        <ele>966.6</ele>
        <time>2021-06-26T09:08:54Z</time>
      </trkpt>
      <trkpt lat="44.74597" lon="5.88759">
        <ele>965.6</ele>
        <time>2021-06-26T09:08:55Z</time>
      </trkpt>
      <trkpt lat="44.74611" lon="5.88733">
        <ele>964.2</ele>
        <time>2021-06-26T09:08:57Z</time>
      </trkpt>
      <trkpt lat="44.74618" lon="5.88722">
        <ele>963.4</ele>
        <time>2021-06-26T09:08:58Z</time>
      </trkpt>
      <trkpt lat="44.74622" lon="5.88713">
        <ele>962.8</ele>
        <time>2021-06-26T09:08:59Z</time>
      </trkpt>
      <trkpt lat="44.74628" lon="5.88703">
        <ele>962.2</ele>
        <time>2021-06-26T09:09:00Z</time>
      </trkpt>
      <trkpt lat="44.74637" lon="5.88694">
        <ele>961.4</ele>
        <time>2021-06-26T09:09:01Z</time>
      </trkpt>
      <trkpt lat="44.74643" lon="5.88688">
        <ele>960</ele>
        <time>2021-06-26T09:09:02Z</time>
      </trkpt>
      <trkpt lat="44.74659" lon="5.88677">
        <ele>958.4</ele>
        <time>2021-06-26T09:09:04Z</time>
      </trkpt>
      <trkpt lat="44.74668" lon="5.88673">
        <ele>957.4</ele>
        <time>2021-06-26T09:09:05Z</time>
      </trkpt>
      <trkpt lat="44.74677" lon="5.88668">
        <ele>956.8</ele>
        <time>2021-06-26T09:09:06Z</time>
      </trkpt>
      <trkpt lat="44.74683" lon="5.88662">
        <ele>955.8</ele>
        <time>2021-06-26T09:09:07Z</time>
      </trkpt>
      <trkpt lat="44.74693" lon="5.8865">
        <ele>954.8</ele>
        <time>2021-06-26T09:09:09Z</time>
      </trkpt>
      <trkpt lat="44.74699" lon="5.88645">
        <ele>954.6</ele>
        <time>2021-06-26T09:09:10Z</time>
      </trkpt>
      <trkpt lat="44.74777" lon="5.88551">
        <ele>946</ele>
        <time>2021-06-26T09:09:25Z</time>
      </trkpt>
      <trkpt lat="44.74784" lon="5.8855">
        <ele>945.6</ele>
        <time>2021-06-26T09:09:26Z</time>
      </trkpt>
      <trkpt lat="44.74795" lon="5.88554">
        <ele>945</ele>
        <time>2021-06-26T09:09:27Z</time>
      </trkpt>
      <trkpt lat="44.74797" lon="5.88541">
        <ele>944.4</ele>
        <time>2021-06-26T09:09:28Z</time>
      </trkpt>
      <trkpt lat="44.74807" lon="5.88535">
        <ele>943.8</ele>
        <time>2021-06-26T09:09:29Z</time>
      </trkpt>
      <trkpt lat="44.74818" lon="5.88532">
        <ele>942.8</ele>
        <time>2021-06-26T09:09:30Z</time>
      </trkpt>
      <trkpt lat="44.7483" lon="5.88535">
        <ele>942.4</ele>
        <time>2021-06-26T09:09:31Z</time>
      </trkpt>
      <trkpt lat="44.74839" lon="5.88536">
        <ele>941.6</ele>
        <time>2021-06-26T09:09:32Z</time>
      </trkpt>
      <trkpt lat="44.74865" lon="5.88536">
        <ele>940</ele>
        <time>2021-06-26T09:09:34Z</time>
      </trkpt>
      <trkpt lat="44.74879" lon="5.88535">
        <ele>938.2</ele>
        <time>2021-06-26T09:09:35Z</time>
      </trkpt>
      <trkpt lat="44.74907" lon="5.8853">
        <ele>936.4</ele>
        <time>2021-06-26T09:09:37Z</time>
      </trkpt>
      <trkpt lat="44.74931" lon="5.88522">
        <ele>935.2</ele>
        <time>2021-06-26T09:09:39Z</time>
      </trkpt>
      <trkpt lat="44.74955" lon="5.88514">
        <ele>933</ele>
        <time>2021-06-26T09:09:41Z</time>
      </trkpt>
      <trkpt lat="44.74965" lon="5.88512">
        <ele>932</ele>
        <time>2021-06-26T09:09:42Z</time>
      </trkpt>
      <trkpt lat="44.74974" lon="5.88509">
        <ele>931.6</ele>
        <time>2021-06-26T09:09:43Z</time>
      </trkpt>
      <trkpt lat="44.74984" lon="5.8851">
        <ele>930.6</ele>
        <time>2021-06-26T09:09:44Z</time>
      </trkpt>
      <trkpt lat="44.74993" lon="5.88515">
        <ele>930.2</ele>
        <time>2021-06-26T09:09:45Z</time>
      </trkpt>
      <trkpt lat="44.75001" lon="5.88516">
        <ele>928.8</ele>
        <time>2021-06-26T09:09:46Z</time>
      </trkpt>
      <trkpt lat="44.7502" lon="5.8852">
        <ele>927</ele>
        <time>2021-06-26T09:09:48Z</time>
      </trkpt>
      <trkpt lat="44.75031" lon="5.88519">
        <ele>925.8</ele>
        <time>2021-06-26T09:09:49Z</time>
      </trkpt>
      <trkpt lat="44.75052" lon="5.88515">
        <ele>924.4</ele>
        <time>2021-06-26T09:09:51Z</time>
      </trkpt>
      <trkpt lat="44.75072" lon="5.88511">
        <ele>923</ele>
        <time>2021-06-26T09:09:53Z</time>
      </trkpt>
      <trkpt lat="44.75091" lon="5.88509">
        <ele>921.2</ele>
        <time>2021-06-26T09:09:55Z</time>
      </trkpt>
      <trkpt lat="44.75098" lon="5.88505">
        <ele>921</ele>
        <time>2021-06-26T09:09:56Z</time>
      </trkpt>
      <trkpt lat="44.75107" lon="5.88489">
        <ele>920.8</ele>
        <time>2021-06-26T09:09:58Z</time>
      </trkpt>
      <trkpt lat="44.75112" lon="5.88478">
        <ele>920.4</ele>
        <time>2021-06-26T09:10:00Z</time>
      </trkpt>
      <trkpt lat="44.75116" lon="5.88459">
        <ele>920.2</ele>
        <time>2021-06-26T09:10:02Z</time>
      </trkpt>
      <trkpt lat="44.75123" lon="5.88401">
        <ele>920.4</ele>
        <time>2021-06-26T09:10:08Z</time>
      </trkpt>
      <trkpt lat="44.75126" lon="5.88392">
        <ele>920.4</ele>
        <time>2021-06-26T09:10:09Z</time>
      </trkpt>
      <trkpt lat="44.75133" lon="5.88377">
        <ele>920.4</ele>
        <time>2021-06-26T09:10:11Z</time>
      </trkpt>
      <trkpt lat="44.75144" lon="5.88367">
        <ele>921</ele>
        <time>2021-06-26T09:10:13Z</time>
      </trkpt>
      <trkpt lat="44.75148" lon="5.88365">
        <ele>921.4</ele>
        <time>2021-06-26T09:10:14Z</time>
      </trkpt>
      <trkpt lat="44.75154" lon="5.88364">
        <ele>921.4</ele>
        <time>2021-06-26T09:10:15Z</time>
      </trkpt>
      <trkpt lat="44.75171" lon="5.88366">
        <ele>922.2</ele>
        <time>2021-06-26T09:10:18Z</time>
      </trkpt>
      <trkpt lat="44.75181" lon="5.88369">
        <ele>922.6</ele>
        <time>2021-06-26T09:10:20Z</time>
      </trkpt>
      <trkpt lat="44.75203" lon="5.88375">
        <ele>923.2</ele>
        <time>2021-06-26T09:10:24Z</time>
      </trkpt>
      <trkpt lat="44.75208" lon="5.88376">
        <ele>923.6</ele>
        <time>2021-06-26T09:10:25Z</time>
      </trkpt>
      <trkpt lat="44.75213" lon="5.88377">
        <ele>923.8</ele>
        <time>2021-06-26T09:10:26Z</time>
      </trkpt>
      <trkpt lat="44.75239" lon="5.88382">
        <ele>924.4</ele>
        <time>2021-06-26T09:10:31Z</time>
      </trkpt>
      <trkpt lat="44.75248" lon="5.88384">
        <ele>924.8</ele>
        <time>2021-06-26T09:10:33Z</time>
      </trkpt>
      <trkpt lat="44.75263" lon="5.88386">
        <ele>925</ele>
        <time>2021-06-26T09:10:36Z</time>
      </trkpt>
      <trkpt lat="44.75273" lon="5.88389">
        <ele>925.2</ele>
        <time>2021-06-26T09:10:38Z</time>
      </trkpt>
      <trkpt lat="44.753" lon="5.88392">
        <ele>925.8</ele>
        <time>2021-06-26T09:10:44Z</time>
      </trkpt>
      <trkpt lat="44.75305" lon="5.88392">
        <ele>926</ele>
        <time>2021-06-26T09:10:45Z</time>
      </trkpt>
      <trkpt lat="44.75324" lon="5.88388">
        <ele>926.8</ele>
        <time>2021-06-26T09:10:49Z</time>
      </trkpt>
      <trkpt lat="44.75332" lon="5.88386">
        <ele>927.2</ele>
        <time>2021-06-26T09:10:51Z</time>
      </trkpt>
      <trkpt lat="44.75347" lon="5.88386">
        <ele>927.6</ele>
        <time>2021-06-26T09:10:54Z</time>
      </trkpt>
      <trkpt lat="44.75354" lon="5.88386">
        <ele>927.8</ele>
        <time>2021-06-26T09:10:56Z</time>
      </trkpt>
      <trkpt lat="44.75375" lon="5.88387">
        <ele>928.6</ele>
        <time>2021-06-26T09:11:01Z</time>
      </trkpt>
      <trkpt lat="44.75399" lon="5.88387">
        <ele>929.2</ele>
        <time>2021-06-26T09:11:06Z</time>
      </trkpt>
      <trkpt lat="44.75409" lon="5.88387">
        <ele>929.8</ele>
        <time>2021-06-26T09:11:08Z</time>
      </trkpt>
      <trkpt lat="44.75419" lon="5.88388">
        <ele>930</ele>
        <time>2021-06-26T09:11:10Z</time>
      </trkpt>
      <trkpt lat="44.75429" lon="5.88388">
        <ele>930.4</ele>
        <time>2021-06-26T09:11:12Z</time>
      </trkpt>
      <trkpt lat="44.75439" lon="5.88388">
        <ele>930.6</ele>
        <time>2021-06-26T09:11:14Z</time>
      </trkpt>
      <trkpt lat="44.75448" lon="5.88388">
        <ele>930.6</ele>
        <time>2021-06-26T09:11:16Z</time>
      </trkpt>
      <trkpt lat="44.75453" lon="5.88388">
        <ele>931</ele>
        <time>2021-06-26T09:11:17Z</time>
      </trkpt>
      <trkpt lat="44.75463" lon="5.88389">
        <ele>931.4</ele>
        <time>2021-06-26T09:11:19Z</time>
      </trkpt>
      <trkpt lat="44.75467" lon="5.88391">
        <ele>931.6</ele>
        <time>2021-06-26T09:11:20Z</time>
      </trkpt>
      <trkpt lat="44.75476" lon="5.88395">
        <ele>932</ele>
        <time>2021-06-26T09:11:22Z</time>
      </trkpt>
      <trkpt lat="44.75491" lon="5.88402">
        <ele>932.4</ele>
        <time>2021-06-26T09:11:25Z</time>
      </trkpt>
      <trkpt lat="44.7551" lon="5.88414">
        <ele>933.2</ele>
        <time>2021-06-26T09:11:29Z</time>
      </trkpt>
      <trkpt lat="44.75519" lon="5.88423">
        <ele>933.6</ele>
        <time>2021-06-26T09:11:32Z</time>
      </trkpt>
      <trkpt lat="44.75526" lon="5.88438">
        <ele>934.2</ele>
        <time>2021-06-26T09:11:35Z</time>
      </trkpt>
      <trkpt lat="44.75529" lon="5.88449">
        <ele>934.6</ele>
        <time>2021-06-26T09:11:37Z</time>
      </trkpt>
      <trkpt lat="44.75531" lon="5.88456">
        <ele>934.8</ele>
        <time>2021-06-26T09:11:38Z</time>
      </trkpt>
      <trkpt lat="44.75534" lon="5.8847">
        <ele>935.4</ele>
        <time>2021-06-26T09:11:40Z</time>
      </trkpt>
      <trkpt lat="44.75538" lon="5.88484">
        <ele>935.8</ele>
        <time>2021-06-26T09:11:42Z</time>
      </trkpt>
      <trkpt lat="44.75543" lon="5.88492">
        <ele>936.2</ele>
        <time>2021-06-26T09:11:44Z</time>
      </trkpt>
      <trkpt lat="44.75549" lon="5.88503">
        <ele>936.4</ele>
        <time>2021-06-26T09:11:46Z</time>
      </trkpt>
      <trkpt lat="44.75567" lon="5.88518">
        <ele>937</ele>
        <time>2021-06-26T09:11:50Z</time>
      </trkpt>
      <trkpt lat="44.75601" lon="5.88537">
        <ele>938</ele>
        <time>2021-06-26T09:11:57Z</time>
      </trkpt>
      <trkpt lat="44.75631" lon="5.88549">
        <ele>939.2</ele>
        <time>2021-06-26T09:12:03Z</time>
      </trkpt>
      <trkpt lat="44.75634" lon="5.8855">
        <ele>939.4</ele>
        <time>2021-06-26T09:12:04Z</time>
      </trkpt>
      <trkpt lat="44.75644" lon="5.88552">
        <ele>939.8</ele>
        <time>2021-06-26T09:12:06Z</time>
      </trkpt>
      <trkpt lat="44.75663" lon="5.8855">
        <ele>940.2</ele>
        <time>2021-06-26T09:12:10Z</time>
      </trkpt>
      <trkpt lat="44.75668" lon="5.88549">
        <ele>940.4</ele>
        <time>2021-06-26T09:12:11Z</time>
      </trkpt>
      <trkpt lat="44.75708" lon="5.88537">
        <ele>941.4</ele>
        <time>2021-06-26T09:12:19Z</time>
      </trkpt>
      <trkpt lat="44.75713" lon="5.88534">
        <ele>941.6</ele>
        <time>2021-06-26T09:12:20Z</time>
      </trkpt>
      <trkpt lat="44.75722" lon="5.88522">
        <ele>942.4</ele>
        <time>2021-06-26T09:12:23Z</time>
      </trkpt>
      <trkpt lat="44.75729" lon="5.88512">
        <ele>943</ele>
        <time>2021-06-26T09:12:25Z</time>
      </trkpt>
      <trkpt lat="44.75735" lon="5.885">
        <ele>943.2</ele>
        <time>2021-06-26T09:12:27Z</time>
      </trkpt>
      <trkpt lat="44.75738" lon="5.88496">
        <ele>943.4</ele>
        <time>2021-06-26T09:12:28Z</time>
      </trkpt>
      <trkpt lat="44.75742" lon="5.88492">
        <ele>943.6</ele>
        <time>2021-06-26T09:12:29Z</time>
      </trkpt>
      <trkpt lat="44.75768" lon="5.88475">
        <ele>944.6</ele>
        <time>2021-06-26T09:12:35Z</time>
      </trkpt>
      <trkpt lat="44.75773" lon="5.88471">
        <ele>944.8</ele>
        <time>2021-06-26T09:12:36Z</time>
      </trkpt>
      <trkpt lat="44.75787" lon="5.88462">
        <ele>945.2</ele>
        <time>2021-06-26T09:12:39Z</time>
      </trkpt>
      <trkpt lat="44.75796" lon="5.88459">
        <ele>945.4</ele>
        <time>2021-06-26T09:12:41Z</time>
      </trkpt>
      <trkpt lat="44.75802" lon="5.88457">
        <ele>945.6</ele>
        <time>2021-06-26T09:12:42Z</time>
      </trkpt>
      <trkpt lat="44.75816" lon="5.88454">
        <ele>945.8</ele>
        <time>2021-06-26T09:12:45Z</time>
      </trkpt>
      <trkpt lat="44.75821" lon="5.88455">
        <ele>945.8</ele>
        <time>2021-06-26T09:12:46Z</time>
      </trkpt>
      <trkpt lat="44.75845" lon="5.88453">
        <ele>946.2</ele>
        <time>2021-06-26T09:12:50Z</time>
      </trkpt>
      <trkpt lat="44.75857" lon="5.88452">
        <ele>946.8</ele>
        <time>2021-06-26T09:12:52Z</time>
      </trkpt>
      <trkpt lat="44.75861" lon="5.88453">
        <ele>946.8</ele>
        <time>2021-06-26T09:12:53Z</time>
      </trkpt>
      <trkpt lat="44.75882" lon="5.88462">
        <ele>947.8</ele>
        <time>2021-06-26T09:12:58Z</time>
      </trkpt>
      <trkpt lat="44.75886" lon="5.88464">
        <ele>948</ele>
        <time>2021-06-26T09:12:59Z</time>
      </trkpt>
      <trkpt lat="44.75914" lon="5.88479">
        <ele>949</ele>
        <time>2021-06-26T09:13:05Z</time>
      </trkpt>
      <trkpt lat="44.75923" lon="5.88484">
        <ele>949.4</ele>
        <time>2021-06-26T09:13:07Z</time>
      </trkpt>
      <trkpt lat="44.75941" lon="5.88493">
        <ele>950</ele>
        <time>2021-06-26T09:13:11Z</time>
      </trkpt>
      <trkpt lat="44.75976" lon="5.88511">
        <ele>950.8</ele>
        <time>2021-06-26T09:13:19Z</time>
      </trkpt>
      <trkpt lat="44.7599" lon="5.88514">
        <ele>951.6</ele>
        <time>2021-06-26T09:13:22Z</time>
      </trkpt>
      <trkpt lat="44.75999" lon="5.88513">
        <ele>951.8</ele>
        <time>2021-06-26T09:13:24Z</time>
      </trkpt>
      <trkpt lat="44.76009" lon="5.88513">
        <ele>952.2</ele>
        <time>2021-06-26T09:13:26Z</time>
      </trkpt>
      <trkpt lat="44.76018" lon="5.88516">
        <ele>952.4</ele>
        <time>2021-06-26T09:13:28Z</time>
      </trkpt>
      <trkpt lat="44.76022" lon="5.88518">
        <ele>952.6</ele>
        <time>2021-06-26T09:13:29Z</time>
      </trkpt>
      <trkpt lat="44.76027" lon="5.88521">
        <ele>952.8</ele>
        <time>2021-06-26T09:13:30Z</time>
      </trkpt>
      <trkpt lat="44.76041" lon="5.88527">
        <ele>953.4</ele>
        <time>2021-06-26T09:13:33Z</time>
      </trkpt>
      <trkpt lat="44.76055" lon="5.88531">
        <ele>953.8</ele>
        <time>2021-06-26T09:13:36Z</time>
      </trkpt>
      <trkpt lat="44.7606" lon="5.88531">
        <ele>953.8</ele>
        <time>2021-06-26T09:13:37Z</time>
      </trkpt>
      <trkpt lat="44.76069" lon="5.88531">
        <ele>954</ele>
        <time>2021-06-26T09:13:39Z</time>
      </trkpt>
      <trkpt lat="44.76078" lon="5.88535">
        <ele>954.4</ele>
        <time>2021-06-26T09:13:41Z</time>
      </trkpt>
      <trkpt lat="44.76082" lon="5.88538">
        <ele>954.8</ele>
        <time>2021-06-26T09:13:42Z</time>
      </trkpt>
      <trkpt lat="44.76085" lon="5.88543">
        <ele>955</ele>
        <time>2021-06-26T09:13:43Z</time>
      </trkpt>
      <trkpt lat="44.7609" lon="5.88555">
        <ele>955.2</ele>
        <time>2021-06-26T09:13:45Z</time>
      </trkpt>
      <trkpt lat="44.76095" lon="5.88575">
        <ele>955.8</ele>
        <time>2021-06-26T09:13:48Z</time>
      </trkpt>
      <trkpt lat="44.76099" lon="5.88594">
        <ele>956.6</ele>
        <time>2021-06-26T09:13:51Z</time>
      </trkpt>
      <trkpt lat="44.76102" lon="5.88607">
        <ele>957</ele>
        <time>2021-06-26T09:13:53Z</time>
      </trkpt>
      <trkpt lat="44.76104" lon="5.88612">
        <ele>957.2</ele>
        <time>2021-06-26T09:13:54Z</time>
      </trkpt>
      <trkpt lat="44.7611" lon="5.88623">
        <ele>957.6</ele>
        <time>2021-06-26T09:13:56Z</time>
      </trkpt>
      <trkpt lat="44.76112" lon="5.88625">
        <ele>957.8</ele>
        <time>2021-06-26T09:13:57Z</time>
      </trkpt>
      <trkpt lat="44.76115" lon="5.8863">
        <ele>958</ele>
        <time>2021-06-26T09:13:58Z</time>
      </trkpt>
      <trkpt lat="44.76118" lon="5.88633">
        <ele>958.2</ele>
        <time>2021-06-26T09:13:59Z</time>
      </trkpt>
      <trkpt lat="44.76126" lon="5.88642">
        <ele>958.2</ele>
        <time>2021-06-26T09:14:01Z</time>
      </trkpt>
      <trkpt lat="44.76129" lon="5.88646">
        <ele>958.4</ele>
        <time>2021-06-26T09:14:02Z</time>
      </trkpt>
      <trkpt lat="44.76132" lon="5.88651">
        <ele>958.4</ele>
        <time>2021-06-26T09:14:03Z</time>
      </trkpt>
      <trkpt lat="44.76139" lon="5.88655">
        <ele>958.6</ele>
        <time>2021-06-26T09:14:05Z</time>
      </trkpt>
      <trkpt lat="44.76145" lon="5.88663">
        <ele>959</ele>
        <time>2021-06-26T09:14:07Z</time>
      </trkpt>
      <trkpt lat="44.76153" lon="5.88677">
        <ele>959.6</ele>
        <time>2021-06-26T09:14:09Z</time>
      </trkpt>
      <trkpt lat="44.76166" lon="5.88698">
        <ele>960</ele>
        <time>2021-06-26T09:14:13Z</time>
      </trkpt>
      <trkpt lat="44.76171" lon="5.88699">
        <ele>960.2</ele>
        <time>2021-06-26T09:14:14Z</time>
      </trkpt>
      <trkpt lat="44.76176" lon="5.88701">
        <ele>960.4</ele>
        <time>2021-06-26T09:14:15Z</time>
      </trkpt>
      <trkpt lat="44.76188" lon="5.88714">
        <ele>961.2</ele>
        <time>2021-06-26T09:14:18Z</time>
      </trkpt>
      <trkpt lat="44.76195" lon="5.88726">
        <ele>961.8</ele>
        <time>2021-06-26T09:14:20Z</time>
      </trkpt>
      <trkpt lat="44.76195" lon="5.88733">
        <ele>962</ele>
        <time>2021-06-26T09:14:21Z</time>
      </trkpt>
      <trkpt lat="44.76196" lon="5.88741">
        <ele>962.2</ele>
        <time>2021-06-26T09:14:22Z</time>
      </trkpt>
      <trkpt lat="44.76207" lon="5.88762">
        <ele>962.6</ele>
        <time>2021-06-26T09:14:25Z</time>
      </trkpt>
      <trkpt lat="44.76211" lon="5.88775">
        <ele>962.8</ele>
        <time>2021-06-26T09:14:27Z</time>
      </trkpt>
      <trkpt lat="44.76212" lon="5.88785">
        <ele>963</ele>
        <time>2021-06-26T09:14:30Z</time>
      </trkpt>
      <trkpt lat="44.76213" lon="5.88786">
        <ele>963</ele>
        <time>2021-06-26T09:14:31Z</time>
      </trkpt>
      <trkpt lat="44.76213" lon="5.88793">
        <ele>963.6</ele>
        <time>2021-06-26T09:14:33Z</time>
      </trkpt>
      <trkpt lat="44.76215" lon="5.88797">
        <ele>964.4</ele>
        <time>2021-06-26T09:14:34Z</time>
      </trkpt>
      <trkpt lat="44.76217" lon="5.88803">
        <ele>964.8</ele>
        <time>2021-06-26T09:14:35Z</time>
      </trkpt>
      <trkpt lat="44.76216" lon="5.88819">
        <ele>965.4</ele>
        <time>2021-06-26T09:14:38Z</time>
      </trkpt>
      <trkpt lat="44.76215" lon="5.88827">
        <ele>965.4</ele>
        <time>2021-06-26T09:14:39Z</time>
      </trkpt>
      <trkpt lat="44.7622" lon="5.88844">
        <ele>966</ele>
        <time>2021-06-26T09:14:41Z</time>
      </trkpt>
      <trkpt lat="44.76223" lon="5.8885">
        <ele>966</ele>
        <time>2021-06-26T09:14:42Z</time>
      </trkpt>
      <trkpt lat="44.76227" lon="5.88858">
        <ele>966.2</ele>
        <time>2021-06-26T09:14:43Z</time>
      </trkpt>
      <trkpt lat="44.76236" lon="5.88873">
        <ele>966.4</ele>
        <time>2021-06-26T09:14:46Z</time>
      </trkpt>
      <trkpt lat="44.76244" lon="5.88879">
        <ele>966.6</ele>
        <time>2021-06-26T09:14:47Z</time>
      </trkpt>
      <trkpt lat="44.76259" lon="5.88889">
        <ele>967</ele>
        <time>2021-06-26T09:14:50Z</time>
      </trkpt>
      <trkpt lat="44.76263" lon="5.88893">
        <ele>967.2</ele>
        <time>2021-06-26T09:14:51Z</time>
      </trkpt>
      <trkpt lat="44.76277" lon="5.88904">
        <ele>967.4</ele>
        <time>2021-06-26T09:14:54Z</time>
      </trkpt>
      <trkpt lat="44.76282" lon="5.88909">
        <ele>967.4</ele>
        <time>2021-06-26T09:14:55Z</time>
      </trkpt>
      <trkpt lat="44.76285" lon="5.88913">
        <ele>967.6</ele>
        <time>2021-06-26T09:14:56Z</time>
      </trkpt>
      <trkpt lat="44.76297" lon="5.88923">
        <ele>968.4</ele>
        <time>2021-06-26T09:14:59Z</time>
      </trkpt>
      <trkpt lat="44.76307" lon="5.88926">
        <ele>968.6</ele>
        <time>2021-06-26T09:15:00Z</time>
      </trkpt>
      <trkpt lat="44.7631" lon="5.88929">
        <ele>968.8</ele>
        <time>2021-06-26T09:15:01Z</time>
      </trkpt>
      <trkpt lat="44.76315" lon="5.88932">
        <ele>969</ele>
        <time>2021-06-26T09:15:02Z</time>
      </trkpt>
      <trkpt lat="44.76332" lon="5.8894">
        <ele>969.2</ele>
        <time>2021-06-26T09:15:04Z</time>
      </trkpt>
      <trkpt lat="44.76347" lon="5.88946">
        <ele>969.6</ele>
        <time>2021-06-26T09:15:06Z</time>
      </trkpt>
      <trkpt lat="44.76356" lon="5.88953">
        <ele>969.8</ele>
        <time>2021-06-26T09:15:08Z</time>
      </trkpt>
      <trkpt lat="44.7636" lon="5.88957">
        <ele>970</ele>
        <time>2021-06-26T09:15:09Z</time>
      </trkpt>
      <trkpt lat="44.76369" lon="5.88969">
        <ele>970.2</ele>
        <time>2021-06-26T09:15:12Z</time>
      </trkpt>
      <trkpt lat="44.76375" lon="5.88981">
        <ele>970.6</ele>
        <time>2021-06-26T09:15:14Z</time>
      </trkpt>
      <trkpt lat="44.76379" lon="5.88991">
        <ele>971</ele>
        <time>2021-06-26T09:15:16Z</time>
      </trkpt>
      <trkpt lat="44.76383" lon="5.89003">
        <ele>971.2</ele>
        <time>2021-06-26T09:15:18Z</time>
      </trkpt>
      <trkpt lat="44.76385" lon="5.8901">
        <ele>971.2</ele>
        <time>2021-06-26T09:15:19Z</time>
      </trkpt>
      <trkpt lat="44.76389" lon="5.89023">
        <ele>972</ele>
        <time>2021-06-26T09:15:21Z</time>
      </trkpt>
      <trkpt lat="44.76391" lon="5.89031">
        <ele>972.2</ele>
        <time>2021-06-26T09:15:22Z</time>
      </trkpt>
      <trkpt lat="44.76394" lon="5.89048">
        <ele>972.8</ele>
        <time>2021-06-26T09:15:25Z</time>
      </trkpt>
      <trkpt lat="44.76401" lon="5.89056">
        <ele>973</ele>
        <time>2021-06-26T09:15:27Z</time>
      </trkpt>
      <trkpt lat="44.76408" lon="5.89063">
        <ele>973.2</ele>
        <time>2021-06-26T09:15:29Z</time>
      </trkpt>
      <trkpt lat="44.76412" lon="5.89068">
        <ele>973.4</ele>
        <time>2021-06-26T09:15:30Z</time>
      </trkpt>
      <trkpt lat="44.76419" lon="5.89076">
        <ele>973.8</ele>
        <time>2021-06-26T09:15:32Z</time>
      </trkpt>
      <trkpt lat="44.76422" lon="5.89081">
        <ele>974</ele>
        <time>2021-06-26T09:15:33Z</time>
      </trkpt>
      <trkpt lat="44.76429" lon="5.89091">
        <ele>974</ele>
        <time>2021-06-26T09:15:35Z</time>
      </trkpt>
      <trkpt lat="44.76436" lon="5.891">
        <ele>974.4</ele>
        <time>2021-06-26T09:15:37Z</time>
      </trkpt>
      <trkpt lat="44.7644" lon="5.89104">
        <ele>974.4</ele>
        <time>2021-06-26T09:15:38Z</time>
      </trkpt>
      <trkpt lat="44.76444" lon="5.89107">
        <ele>974.6</ele>
        <time>2021-06-26T09:15:39Z</time>
      </trkpt>
      <trkpt lat="44.76462" lon="5.89121">
        <ele>975.4</ele>
        <time>2021-06-26T09:15:43Z</time>
      </trkpt>
      <trkpt lat="44.76467" lon="5.89125">
        <ele>975.6</ele>
        <time>2021-06-26T09:15:44Z</time>
      </trkpt>
      <trkpt lat="44.76472" lon="5.89129">
        <ele>975.8</ele>
        <time>2021-06-26T09:15:45Z</time>
      </trkpt>
      <trkpt lat="44.76492" lon="5.89151">
        <ele>976.4</ele>
        <time>2021-06-26T09:15:50Z</time>
      </trkpt>
      <trkpt lat="44.76496" lon="5.89156">
        <ele>976.6</ele>
        <time>2021-06-26T09:15:51Z</time>
      </trkpt>
      <trkpt lat="44.76518" lon="5.89185">
        <ele>977.4</ele>
        <time>2021-06-26T09:15:57Z</time>
      </trkpt>
      <trkpt lat="44.76522" lon="5.89191">
        <ele>978</ele>
        <time>2021-06-26T09:15:58Z</time>
      </trkpt>
      <trkpt lat="44.76547" lon="5.89222">
        <ele>978.8</ele>
        <time>2021-06-26T09:16:05Z</time>
      </trkpt>
      <trkpt lat="44.76553" lon="5.89232">
        <ele>979</ele>
        <time>2021-06-26T09:16:07Z</time>
      </trkpt>
      <trkpt lat="44.76572" lon="5.89263">
        <ele>980</ele>
        <time>2021-06-26T09:16:13Z</time>
      </trkpt>
      <trkpt lat="44.7658" lon="5.89272">
        <ele>980.2</ele>
        <time>2021-06-26T09:16:15Z</time>
      </trkpt>
      <trkpt lat="44.76594" lon="5.89286">
        <ele>981.2</ele>
        <time>2021-06-26T09:16:19Z</time>
      </trkpt>
      <trkpt lat="44.76598" lon="5.89288">
        <ele>981.2</ele>
        <time>2021-06-26T09:16:20Z</time>
      </trkpt>
      <trkpt lat="44.76611" lon="5.89296">
        <ele>982</ele>
        <time>2021-06-26T09:16:23Z</time>
      </trkpt>
      <trkpt lat="44.76615" lon="5.89299">
        <ele>982.2</ele>
        <time>2021-06-26T09:16:24Z</time>
      </trkpt>
      <trkpt lat="44.76623" lon="5.89305">
        <ele>982.4</ele>
        <time>2021-06-26T09:16:26Z</time>
      </trkpt>
      <trkpt lat="44.76632" lon="5.8931">
        <ele>982.8</ele>
        <time>2021-06-26T09:16:28Z</time>
      </trkpt>
      <trkpt lat="44.76645" lon="5.89319">
        <ele>983.4</ele>
        <time>2021-06-26T09:16:31Z</time>
      </trkpt>
      <trkpt lat="44.76649" lon="5.89321">
        <ele>983.8</ele>
        <time>2021-06-26T09:16:32Z</time>
      </trkpt>
      <trkpt lat="44.76653" lon="5.89325">
        <ele>984</ele>
        <time>2021-06-26T09:16:33Z</time>
      </trkpt>
      <trkpt lat="44.7666" lon="5.89332">
        <ele>984.4</ele>
        <time>2021-06-26T09:16:35Z</time>
      </trkpt>
      <trkpt lat="44.76667" lon="5.89341">
        <ele>984.6</ele>
        <time>2021-06-26T09:16:37Z</time>
      </trkpt>
      <trkpt lat="44.76693" lon="5.89374">
        <ele>985.6</ele>
        <time>2021-06-26T09:16:44Z</time>
      </trkpt>
      <trkpt lat="44.76698" lon="5.8938">
        <ele>985.8</ele>
        <time>2021-06-26T09:16:45Z</time>
      </trkpt>
      <trkpt lat="44.76715" lon="5.89392">
        <ele>986</ele>
        <time>2021-06-26T09:16:48Z</time>
      </trkpt>
      <trkpt lat="44.76726" lon="5.89397">
        <ele>986</ele>
        <time>2021-06-26T09:16:50Z</time>
      </trkpt>
      <trkpt lat="44.76737" lon="5.89398">
        <ele>986</ele>
        <time>2021-06-26T09:16:52Z</time>
      </trkpt>
      <trkpt lat="44.76755" lon="5.89396">
        <ele>986.2</ele>
        <time>2021-06-26T09:16:55Z</time>
      </trkpt>
      <trkpt lat="44.76788" lon="5.89398">
        <ele>986.2</ele>
        <time>2021-06-26T09:17:01Z</time>
      </trkpt>
      <trkpt lat="44.76806" lon="5.89401">
        <ele>986.4</ele>
        <time>2021-06-26T09:17:04Z</time>
      </trkpt>
      <trkpt lat="44.76829" lon="5.89409">
        <ele>986.6</ele>
        <time>2021-06-26T09:17:08Z</time>
      </trkpt>
      <trkpt lat="44.76834" lon="5.89411">
        <ele>986.6</ele>
        <time>2021-06-26T09:17:09Z</time>
      </trkpt>
      <trkpt lat="44.76846" lon="5.89414">
        <ele>986.8</ele>
        <time>2021-06-26T09:17:11Z</time>
      </trkpt>
      <trkpt lat="44.76853" lon="5.89414">
        <ele>987</ele>
        <time>2021-06-26T09:17:12Z</time>
      </trkpt>
      <trkpt lat="44.76864" lon="5.89412">
        <ele>987.2</ele>
        <time>2021-06-26T09:17:14Z</time>
      </trkpt>
      <trkpt lat="44.7687" lon="5.8941">
        <ele>987.4</ele>
        <time>2021-06-26T09:17:15Z</time>
      </trkpt>
      <trkpt lat="44.76877" lon="5.89406">
        <ele>987.4</ele>
        <time>2021-06-26T09:17:16Z</time>
      </trkpt>
      <trkpt lat="44.76888" lon="5.894">
        <ele>987.6</ele>
        <time>2021-06-26T09:17:18Z</time>
      </trkpt>
      <trkpt lat="44.76893" lon="5.894">
        <ele>987.8</ele>
        <time>2021-06-26T09:17:19Z</time>
      </trkpt>
      <trkpt lat="44.76899" lon="5.89403">
        <ele>987.8</ele>
        <time>2021-06-26T09:17:20Z</time>
      </trkpt>
      <trkpt lat="44.76907" lon="5.89414">
        <ele>987.8</ele>
        <time>2021-06-26T09:17:22Z</time>
      </trkpt>
      <trkpt lat="44.76916" lon="5.89435">
        <ele>987.8</ele>
        <time>2021-06-26T09:17:25Z</time>
      </trkpt>
      <trkpt lat="44.7692" lon="5.89439">
        <ele>987.8</ele>
        <time>2021-06-26T09:17:26Z</time>
      </trkpt>
      <trkpt lat="44.76926" lon="5.89448">
        <ele>987.8</ele>
        <time>2021-06-26T09:17:28Z</time>
      </trkpt>
      <trkpt lat="44.76928" lon="5.89461">
        <ele>987.8</ele>
        <time>2021-06-26T09:17:30Z</time>
      </trkpt>
      <trkpt lat="44.76929" lon="5.89492">
        <ele>988</ele>
        <time>2021-06-26T09:17:33Z</time>
      </trkpt>
      <trkpt lat="44.7693" lon="5.8953">
        <ele>988</ele>
        <time>2021-06-26T09:17:37Z</time>
      </trkpt>
      <trkpt lat="44.76932" lon="5.89539">
        <ele>988</ele>
        <time>2021-06-26T09:17:38Z</time>
      </trkpt>
      <trkpt lat="44.76935" lon="5.89546">
        <ele>988</ele>
        <time>2021-06-26T09:17:39Z</time>
      </trkpt>
      <trkpt lat="44.76942" lon="5.8956">
        <ele>988</ele>
        <time>2021-06-26T09:17:41Z</time>
      </trkpt>
      <trkpt lat="44.76946" lon="5.89566">
        <ele>988</ele>
        <time>2021-06-26T09:17:42Z</time>
      </trkpt>
      <trkpt lat="44.76955" lon="5.89576">
        <ele>987.8</ele>
        <time>2021-06-26T09:17:44Z</time>
      </trkpt>
      <trkpt lat="44.76969" lon="5.89586">
        <ele>987.6</ele>
        <time>2021-06-26T09:17:47Z</time>
      </trkpt>
      <trkpt lat="44.76994" lon="5.89607">
        <ele>987.2</ele>
        <time>2021-06-26T09:17:52Z</time>
      </trkpt>
      <trkpt lat="44.76999" lon="5.89612">
        <ele>987.2</ele>
        <time>2021-06-26T09:17:53Z</time>
      </trkpt>
      <trkpt lat="44.77003" lon="5.89618">
        <ele>987</ele>
        <time>2021-06-26T09:17:54Z</time>
      </trkpt>
      <trkpt lat="44.77017" lon="5.89647">
        <ele>986.2</ele>
        <time>2021-06-26T09:17:58Z</time>
      </trkpt>
      <trkpt lat="44.77032" lon="5.89695">
        <ele>986</ele>
        <time>2021-06-26T09:18:04Z</time>
      </trkpt>
      <trkpt lat="44.7704" lon="5.89727">
        <ele>985.2</ele>
        <time>2021-06-26T09:18:08Z</time>
      </trkpt>
      <trkpt lat="44.77043" lon="5.89743">
        <ele>985</ele>
        <time>2021-06-26T09:18:10Z</time>
      </trkpt>
      <trkpt lat="44.77043" lon="5.89759">
        <ele>984.4</ele>
        <time>2021-06-26T09:18:12Z</time>
      </trkpt>
      <trkpt lat="44.77039" lon="5.89775">
        <ele>984.2</ele>
        <time>2021-06-26T09:18:14Z</time>
      </trkpt>
      <trkpt lat="44.77034" lon="5.89789">
        <ele>984</ele>
        <time>2021-06-26T09:18:16Z</time>
      </trkpt>
      <trkpt lat="44.77031" lon="5.89796">
        <ele>983.8</ele>
        <time>2021-06-26T09:18:17Z</time>
      </trkpt>
      <trkpt lat="44.77025" lon="5.8981">
        <ele>983.6</ele>
        <time>2021-06-26T09:18:19Z</time>
      </trkpt>
      <trkpt lat="44.77021" lon="5.89823">
        <ele>983.4</ele>
        <time>2021-06-26T09:18:21Z</time>
      </trkpt>
      <trkpt lat="44.7702" lon="5.8983">
        <ele>983.4</ele>
        <time>2021-06-26T09:18:22Z</time>
      </trkpt>
      <trkpt lat="44.7702" lon="5.89843">
        <ele>983.2</ele>
        <time>2021-06-26T09:18:24Z</time>
      </trkpt>
      <trkpt lat="44.77021" lon="5.8985">
        <ele>983</ele>
        <time>2021-06-26T09:18:25Z</time>
      </trkpt>
      <trkpt lat="44.77022" lon="5.89856">
        <ele>982.6</ele>
        <time>2021-06-26T09:18:26Z</time>
      </trkpt>
      <trkpt lat="44.77023" lon="5.89861">
        <ele>982.6</ele>
        <time>2021-06-26T09:18:27Z</time>
      </trkpt>
      <trkpt lat="44.77026" lon="5.89867">
        <ele>982.4</ele>
        <time>2021-06-26T09:18:28Z</time>
      </trkpt>
      <trkpt lat="44.77031" lon="5.89876">
        <ele>982.2</ele>
        <time>2021-06-26T09:18:30Z</time>
      </trkpt>
      <trkpt lat="44.77035" lon="5.8988">
        <ele>982.2</ele>
        <time>2021-06-26T09:18:31Z</time>
      </trkpt>
      <trkpt lat="44.77044" lon="5.89889">
        <ele>981.8</ele>
        <time>2021-06-26T09:18:33Z</time>
      </trkpt>
      <trkpt lat="44.77058" lon="5.89903">
        <ele>981.6</ele>
        <time>2021-06-26T09:18:36Z</time>
      </trkpt>
      <trkpt lat="44.77068" lon="5.89911">
        <ele>980.8</ele>
        <time>2021-06-26T09:18:38Z</time>
      </trkpt>
      <trkpt lat="44.7709" lon="5.89926">
        <ele>980.2</ele>
        <time>2021-06-26T09:18:42Z</time>
      </trkpt>
      <trkpt lat="44.77107" lon="5.8994">
        <ele>979.8</ele>
        <time>2021-06-26T09:18:45Z</time>
      </trkpt>
      <trkpt lat="44.7713" lon="5.89959">
        <ele>979.4</ele>
        <time>2021-06-26T09:18:49Z</time>
      </trkpt>
      <trkpt lat="44.77136" lon="5.89962">
        <ele>979.2</ele>
        <time>2021-06-26T09:18:50Z</time>
      </trkpt>
      <trkpt lat="44.7715" lon="5.89965">
        <ele>979.2</ele>
        <time>2021-06-26T09:18:52Z</time>
      </trkpt>
      <trkpt lat="44.77157" lon="5.89966">
        <ele>979.2</ele>
        <time>2021-06-26T09:18:53Z</time>
      </trkpt>
      <trkpt lat="44.77164" lon="5.89965">
        <ele>979</ele>
        <time>2021-06-26T09:18:54Z</time>
      </trkpt>
      <trkpt lat="44.77178" lon="5.8996">
        <ele>978.8</ele>
        <time>2021-06-26T09:18:56Z</time>
      </trkpt>
      <trkpt lat="44.77184" lon="5.89956">
        <ele>978.6</ele>
        <time>2021-06-26T09:18:57Z</time>
      </trkpt>
      <trkpt lat="44.77218" lon="5.89918">
        <ele>977.6</ele>
        <time>2021-06-26T09:19:03Z</time>
      </trkpt>
      <trkpt lat="44.7726" lon="5.8988">
        <ele>976.8</ele>
        <time>2021-06-26T09:19:10Z</time>
      </trkpt>
      <trkpt lat="44.77294" lon="5.89866">
        <ele>975.8</ele>
        <time>2021-06-26T09:19:15Z</time>
      </trkpt>
      <trkpt lat="44.77301" lon="5.89864">
        <ele>975.8</ele>
        <time>2021-06-26T09:19:16Z</time>
      </trkpt>
      <trkpt lat="44.77308" lon="5.89863">
        <ele>975.6</ele>
        <time>2021-06-26T09:19:17Z</time>
      </trkpt>
      <trkpt lat="44.77337" lon="5.89863">
        <ele>975.4</ele>
        <time>2021-06-26T09:19:21Z</time>
      </trkpt>
      <trkpt lat="44.77359" lon="5.89868">
        <ele>974.8</ele>
        <time>2021-06-26T09:19:24Z</time>
      </trkpt>
      <trkpt lat="44.77372" lon="5.89874">
        <ele>974.6</ele>
        <time>2021-06-26T09:19:26Z</time>
      </trkpt>
      <trkpt lat="44.77392" lon="5.89879">
        <ele>974</ele>
        <time>2021-06-26T09:19:29Z</time>
      </trkpt>
      <trkpt lat="44.77399" lon="5.89879">
        <ele>974</ele>
        <time>2021-06-26T09:19:30Z</time>
      </trkpt>
      <trkpt lat="44.77406" lon="5.89878">
        <ele>973.6</ele>
        <time>2021-06-26T09:19:31Z</time>
      </trkpt>
      <trkpt lat="44.77425" lon="5.89868">
        <ele>973</ele>
        <time>2021-06-26T09:19:34Z</time>
      </trkpt>
      <trkpt lat="44.77436" lon="5.89858">
        <ele>973</ele>
        <time>2021-06-26T09:19:36Z</time>
      </trkpt>
      <trkpt lat="44.77444" lon="5.89843">
        <ele>972.8</ele>
        <time>2021-06-26T09:19:38Z</time>
      </trkpt>
      <trkpt lat="44.77447" lon="5.89835">
        <ele>972.8</ele>
        <time>2021-06-26T09:19:39Z</time>
      </trkpt>
      <trkpt lat="44.77453" lon="5.89819">
        <ele>972.6</ele>
        <time>2021-06-26T09:19:41Z</time>
      </trkpt>
      <trkpt lat="44.7746" lon="5.898">
        <ele>972.2</ele>
        <time>2021-06-26T09:19:43Z</time>
      </trkpt>
      <trkpt lat="44.7747" lon="5.89791">
        <ele>972</ele>
        <time>2021-06-26T09:19:45Z</time>
      </trkpt>
      <trkpt lat="44.77476" lon="5.89791">
        <ele>972</ele>
        <time>2021-06-26T09:19:47Z</time>
      </trkpt>
      <trkpt lat="44.77494" lon="5.89799">
        <ele>971.8</ele>
        <time>2021-06-26T09:19:50Z</time>
      </trkpt>
      <trkpt lat="44.77501" lon="5.89801">
        <ele>971.8</ele>
        <time>2021-06-26T09:19:51Z</time>
      </trkpt>
      <trkpt lat="44.77508" lon="5.898">
        <ele>971.6</ele>
        <time>2021-06-26T09:19:52Z</time>
      </trkpt>
      <trkpt lat="44.77522" lon="5.89798">
        <ele>971.2</ele>
        <time>2021-06-26T09:19:54Z</time>
      </trkpt>
      <trkpt lat="44.77529" lon="5.89797">
        <ele>970.8</ele>
        <time>2021-06-26T09:19:55Z</time>
      </trkpt>
      <trkpt lat="44.77537" lon="5.89795">
        <ele>970.6</ele>
        <time>2021-06-26T09:19:56Z</time>
      </trkpt>
      <trkpt lat="44.7755" lon="5.89793">
        <ele>970.4</ele>
        <time>2021-06-26T09:19:58Z</time>
      </trkpt>
      <trkpt lat="44.77564" lon="5.89797">
        <ele>970.2</ele>
        <time>2021-06-26T09:20:00Z</time>
      </trkpt>
      <trkpt lat="44.77577" lon="5.89807">
        <ele>969.6</ele>
        <time>2021-06-26T09:20:02Z</time>
      </trkpt>
      <trkpt lat="44.77583" lon="5.89813">
        <ele>969.4</ele>
        <time>2021-06-26T09:20:03Z</time>
      </trkpt>
      <trkpt lat="44.77589" lon="5.89819">
        <ele>969.2</ele>
        <time>2021-06-26T09:20:04Z</time>
      </trkpt>
      <trkpt lat="44.77602" lon="5.89833">
        <ele>968.8</ele>
        <time>2021-06-26T09:20:06Z</time>
      </trkpt>
      <trkpt lat="44.77611" lon="5.89847">
        <ele>968.4</ele>
        <time>2021-06-26T09:20:08Z</time>
      </trkpt>
      <trkpt lat="44.77614" lon="5.89856">
        <ele>968</ele>
        <time>2021-06-26T09:20:09Z</time>
      </trkpt>
      <trkpt lat="44.77616" lon="5.89865">
        <ele>968</ele>
        <time>2021-06-26T09:20:10Z</time>
      </trkpt>
      <trkpt lat="44.77614" lon="5.89874">
        <ele>967.6</ele>
        <time>2021-06-26T09:20:11Z</time>
      </trkpt>
      <trkpt lat="44.7761" lon="5.89883">
        <ele>967.4</ele>
        <time>2021-06-26T09:20:12Z</time>
      </trkpt>
      <trkpt lat="44.77597" lon="5.89896">
        <ele>967.2</ele>
        <time>2021-06-26T09:20:14Z</time>
      </trkpt>
      <trkpt lat="44.77582" lon="5.89901">
        <ele>966.8</ele>
        <time>2021-06-26T09:20:16Z</time>
      </trkpt>
      <trkpt lat="44.77575" lon="5.89901">
        <ele>966.8</ele>
        <time>2021-06-26T09:20:17Z</time>
      </trkpt>
      <trkpt lat="44.7756" lon="5.899">
        <ele>965.8</ele>
        <time>2021-06-26T09:20:19Z</time>
      </trkpt>
      <trkpt lat="44.77553" lon="5.89901">
        <ele>965.8</ele>
        <time>2021-06-26T09:20:20Z</time>
      </trkpt>
      <trkpt lat="44.77541" lon="5.8991">
        <ele>965.4</ele>
        <time>2021-06-26T09:20:22Z</time>
      </trkpt>
      <trkpt lat="44.77533" lon="5.89925">
        <ele>965</ele>
        <time>2021-06-26T09:20:24Z</time>
      </trkpt>
      <trkpt lat="44.7753" lon="5.89934">
        <ele>964.8</ele>
        <time>2021-06-26T09:20:25Z</time>
      </trkpt>
      <trkpt lat="44.77527" lon="5.89943">
        <ele>964.6</ele>
        <time>2021-06-26T09:20:26Z</time>
      </trkpt>
      <trkpt lat="44.77512" lon="5.89978">
        <ele>964</ele>
        <time>2021-06-26T09:20:30Z</time>
      </trkpt>
      <trkpt lat="44.77503" lon="5.89993">
        <ele>963.6</ele>
        <time>2021-06-26T09:20:32Z</time>
      </trkpt>
      <trkpt lat="44.77497" lon="5.9">
        <ele>963.4</ele>
        <time>2021-06-26T09:20:33Z</time>
      </trkpt>
      <trkpt lat="44.77492" lon="5.90005">
        <ele>963.2</ele>
        <time>2021-06-26T09:20:34Z</time>
      </trkpt>
      <trkpt lat="44.77487" lon="5.90012">
        <ele>963.2</ele>
        <time>2021-06-26T09:20:35Z</time>
      </trkpt>
      <trkpt lat="44.77482" lon="5.90028">
        <ele>963</ele>
        <time>2021-06-26T09:20:37Z</time>
      </trkpt>
      <trkpt lat="44.77472" lon="5.90063">
        <ele>962.8</ele>
        <time>2021-06-26T09:20:41Z</time>
      </trkpt>
      <trkpt lat="44.7747" lon="5.90071">
        <ele>962.8</ele>
        <time>2021-06-26T09:20:42Z</time>
      </trkpt>
      <trkpt lat="44.77467" lon="5.90079">
        <ele>962.8</ele>
        <time>2021-06-26T09:20:43Z</time>
      </trkpt>
      <trkpt lat="44.77463" lon="5.90093">
        <ele>962.8</ele>
        <time>2021-06-26T09:20:45Z</time>
      </trkpt>
      <trkpt lat="44.77459" lon="5.90117">
        <ele>962.6</ele>
        <time>2021-06-26T09:20:48Z</time>
      </trkpt>
      <trkpt lat="44.77446" lon="5.90193">
        <ele>962.8</ele>
        <time>2021-06-26T09:20:57Z</time>
      </trkpt>
      <trkpt lat="44.77444" lon="5.90201">
        <ele>962.8</ele>
        <time>2021-06-26T09:20:58Z</time>
      </trkpt>
      <trkpt lat="44.77429" lon="5.90248">
        <ele>962.8</ele>
        <time>2021-06-26T09:21:04Z</time>
      </trkpt>
      <trkpt lat="44.77426" lon="5.90257">
        <ele>962.8</ele>
        <time>2021-06-26T09:21:05Z</time>
      </trkpt>
      <trkpt lat="44.77417" lon="5.903">
        <ele>963</ele>
        <time>2021-06-26T09:21:10Z</time>
      </trkpt>
      <trkpt lat="44.77413" lon="5.90315">
        <ele>963</ele>
        <time>2021-06-26T09:21:12Z</time>
      </trkpt>
      <trkpt lat="44.77404" lon="5.9034">
        <ele>962.8</ele>
        <time>2021-06-26T09:21:15Z</time>
      </trkpt>
      <trkpt lat="44.77387" lon="5.90389">
        <ele>962.8</ele>
        <time>2021-06-26T09:21:21Z</time>
      </trkpt>
      <trkpt lat="44.77385" lon="5.90399">
        <ele>962.8</ele>
        <time>2021-06-26T09:21:22Z</time>
      </trkpt>
      <trkpt lat="44.77385" lon="5.90408">
        <ele>962.8</ele>
        <time>2021-06-26T09:21:23Z</time>
      </trkpt>
      <trkpt lat="44.77389" lon="5.90433">
        <ele>962.6</ele>
        <time>2021-06-26T09:21:26Z</time>
      </trkpt>
      <trkpt lat="44.77406" lon="5.90496">
        <ele>962.4</ele>
        <time>2021-06-26T09:21:34Z</time>
      </trkpt>
      <trkpt lat="44.77415" lon="5.90541">
        <ele>962.4</ele>
        <time>2021-06-26T09:21:40Z</time>
      </trkpt>
      <trkpt lat="44.77418" lon="5.90556">
        <ele>962.2</ele>
        <time>2021-06-26T09:21:42Z</time>
      </trkpt>
      <trkpt lat="44.77419" lon="5.90563">
        <ele>962.2</ele>
        <time>2021-06-26T09:21:43Z</time>
      </trkpt>
      <trkpt lat="44.77428" lon="5.90616">
        <ele>961.8</ele>
        <time>2021-06-26T09:21:50Z</time>
      </trkpt>
      <trkpt lat="44.77428" lon="5.90625">
        <ele>961.6</ele>
        <time>2021-06-26T09:21:51Z</time>
      </trkpt>
      <trkpt lat="44.77429" lon="5.9066">
        <ele>961.2</ele>
        <time>2021-06-26T09:21:55Z</time>
      </trkpt>
      <trkpt lat="44.7743" lon="5.90666">
        <ele>961.2</ele>
        <time>2021-06-26T09:21:56Z</time>
      </trkpt>
      <trkpt lat="44.77432" lon="5.90676">
        <ele>961</ele>
        <time>2021-06-26T09:21:57Z</time>
      </trkpt>
      <trkpt lat="44.77435" lon="5.90683">
        <ele>960.8</ele>
        <time>2021-06-26T09:21:58Z</time>
      </trkpt>
      <trkpt lat="44.77443" lon="5.90695">
        <ele>960.6</ele>
        <time>2021-06-26T09:22:00Z</time>
      </trkpt>
      <trkpt lat="44.77455" lon="5.907">
        <ele>960.6</ele>
        <time>2021-06-26T09:22:02Z</time>
      </trkpt>
      <trkpt lat="44.77461" lon="5.907">
        <ele>960.6</ele>
        <time>2021-06-26T09:22:03Z</time>
      </trkpt>
      <trkpt lat="44.77467" lon="5.90698">
        <ele>960.6</ele>
        <time>2021-06-26T09:22:04Z</time>
      </trkpt>
      <trkpt lat="44.77483" lon="5.90687">
        <ele>960.8</ele>
        <time>2021-06-26T09:22:07Z</time>
      </trkpt>
      <trkpt lat="44.77489" lon="5.90684">
        <ele>960.8</ele>
        <time>2021-06-26T09:22:08Z</time>
      </trkpt>
      <trkpt lat="44.77501" lon="5.90683">
        <ele>960.6</ele>
        <time>2021-06-26T09:22:10Z</time>
      </trkpt>
      <trkpt lat="44.77525" lon="5.90695">
        <ele>960.4</ele>
        <time>2021-06-26T09:22:14Z</time>
      </trkpt>
      <trkpt lat="44.77537" lon="5.90699">
        <ele>960.4</ele>
        <time>2021-06-26T09:22:16Z</time>
      </trkpt>
      <trkpt lat="44.77553" lon="5.90703">
        <ele>960.4</ele>
        <time>2021-06-26T09:22:19Z</time>
      </trkpt>
      <trkpt lat="44.77593" lon="5.90711">
        <ele>959.6</ele>
        <time>2021-06-26T09:22:26Z</time>
      </trkpt>
      <trkpt lat="44.77604" lon="5.90713">
        <ele>959.2</ele>
        <time>2021-06-26T09:22:28Z</time>
      </trkpt>
      <trkpt lat="44.77631" lon="5.90717">
        <ele>959.2</ele>
        <time>2021-06-26T09:22:33Z</time>
      </trkpt>
      <trkpt lat="44.77651" lon="5.90721">
        <ele>959.2</ele>
        <time>2021-06-26T09:22:37Z</time>
      </trkpt>
      <trkpt lat="44.77656" lon="5.90722">
        <ele>959.2</ele>
        <time>2021-06-26T09:22:38Z</time>
      </trkpt>
      <trkpt lat="44.77692" lon="5.90728">
        <ele>958.4</ele>
        <time>2021-06-26T09:22:45Z</time>
      </trkpt>
      <trkpt lat="44.77696" lon="5.90729">
        <ele>958.4</ele>
        <time>2021-06-26T09:22:46Z</time>
      </trkpt>
      <trkpt lat="44.77736" lon="5.90737">
        <ele>958</ele>
        <time>2021-06-26T09:22:54Z</time>
      </trkpt>
      <trkpt lat="44.77757" lon="5.90741">
        <ele>957.6</ele>
        <time>2021-06-26T09:22:58Z</time>
      </trkpt>
      <trkpt lat="44.77778" lon="5.90746">
        <ele>956.8</ele>
        <time>2021-06-26T09:23:02Z</time>
      </trkpt>
      <trkpt lat="44.77794" lon="5.90748">
        <ele>956.6</ele>
        <time>2021-06-26T09:23:05Z</time>
      </trkpt>
      <trkpt lat="44.77821" lon="5.90753">
        <ele>956.4</ele>
        <time>2021-06-26T09:23:10Z</time>
      </trkpt>
      <trkpt lat="44.77848" lon="5.90758">
        <ele>956.2</ele>
        <time>2021-06-26T09:23:15Z</time>
      </trkpt>
      <trkpt lat="44.77859" lon="5.9076">
        <ele>956.2</ele>
        <time>2021-06-26T09:23:17Z</time>
      </trkpt>
      <trkpt lat="44.77888" lon="5.90765">
        <ele>955.6</ele>
        <time>2021-06-26T09:23:22Z</time>
      </trkpt>
      <trkpt lat="44.77909" lon="5.90769">
        <ele>955.4</ele>
        <time>2021-06-26T09:23:26Z</time>
      </trkpt>
      <trkpt lat="44.77926" lon="5.90771">
        <ele>955</ele>
        <time>2021-06-26T09:23:29Z</time>
      </trkpt>
      <trkpt lat="44.77969" lon="5.90781">
        <ele>954.6</ele>
        <time>2021-06-26T09:23:37Z</time>
      </trkpt>
      <trkpt lat="44.78023" lon="5.90792">
        <ele>953.6</ele>
        <time>2021-06-26T09:23:46Z</time>
      </trkpt>
      <trkpt lat="44.7803" lon="5.90793">
        <ele>953.4</ele>
        <time>2021-06-26T09:23:47Z</time>
      </trkpt>
      <trkpt lat="44.78084" lon="5.90804">
        <ele>952.8</ele>
        <time>2021-06-26T09:23:55Z</time>
      </trkpt>
      <trkpt lat="44.78099" lon="5.90806">
        <ele>952.6</ele>
        <time>2021-06-26T09:23:57Z</time>
      </trkpt>
      <trkpt lat="44.78156" lon="5.90817">
        <ele>952</ele>
        <time>2021-06-26T09:24:05Z</time>
      </trkpt>
      <trkpt lat="44.78183" lon="5.90822">
        <ele>951.6</ele>
        <time>2021-06-26T09:24:09Z</time>
      </trkpt>
      <trkpt lat="44.78238" lon="5.90831">
        <ele>950.8</ele>
        <time>2021-06-26T09:24:17Z</time>
      </trkpt>
      <trkpt lat="44.78251" lon="5.90834">
        <ele>950.6</ele>
        <time>2021-06-26T09:24:19Z</time>
      </trkpt>
      <trkpt lat="44.78292" lon="5.90842">
        <ele>949.6</ele>
        <time>2021-06-26T09:24:25Z</time>
      </trkpt>
      <trkpt lat="44.78319" lon="5.90845">
        <ele>949.2</ele>
        <time>2021-06-26T09:24:29Z</time>
      </trkpt>
      <trkpt lat="44.78368" lon="5.90854">
        <ele>948.6</ele>
        <time>2021-06-26T09:24:36Z</time>
      </trkpt>
      <trkpt lat="44.78375" lon="5.90856">
        <ele>948.4</ele>
        <time>2021-06-26T09:24:37Z</time>
      </trkpt>
      <trkpt lat="44.78428" lon="5.90866">
        <ele>947.6</ele>
        <time>2021-06-26T09:24:44Z</time>
      </trkpt>
      <trkpt lat="44.78435" lon="5.90867">
        <ele>947.6</ele>
        <time>2021-06-26T09:24:45Z</time>
      </trkpt>
      <trkpt lat="44.78494" lon="5.90879">
        <ele>947.2</ele>
        <time>2021-06-26T09:24:53Z</time>
      </trkpt>
      <trkpt lat="44.78516" lon="5.90883">
        <ele>946.4</ele>
        <time>2021-06-26T09:24:56Z</time>
      </trkpt>
      <trkpt lat="44.78559" lon="5.90891">
        <ele>945.6</ele>
        <time>2021-06-26T09:25:02Z</time>
      </trkpt>
      <trkpt lat="44.78567" lon="5.90893">
        <ele>945.4</ele>
        <time>2021-06-26T09:25:03Z</time>
      </trkpt>
      <trkpt lat="44.78626" lon="5.90903">
        <ele>944.8</ele>
        <time>2021-06-26T09:25:11Z</time>
      </trkpt>
      <trkpt lat="44.78648" lon="5.90907">
        <ele>944.6</ele>
        <time>2021-06-26T09:25:14Z</time>
      </trkpt>
      <trkpt lat="44.78655" lon="5.90909">
        <ele>944.4</ele>
        <time>2021-06-26T09:25:15Z</time>
      </trkpt>
      <trkpt lat="44.78708" lon="5.90918">
        <ele>943.8</ele>
        <time>2021-06-26T09:25:22Z</time>
      </trkpt>
      <trkpt lat="44.78722" lon="5.90921">
        <ele>943.4</ele>
        <time>2021-06-26T09:25:24Z</time>
      </trkpt>
      <trkpt lat="44.78757" lon="5.90928">
        <ele>942.2</ele>
        <time>2021-06-26T09:25:29Z</time>
      </trkpt>
      <trkpt lat="44.78793" lon="5.90934">
        <ele>941.6</ele>
        <time>2021-06-26T09:25:34Z</time>
      </trkpt>
      <trkpt lat="44.78835" lon="5.90943">
        <ele>941</ele>
        <time>2021-06-26T09:25:40Z</time>
      </trkpt>
      <trkpt lat="44.7885" lon="5.90947">
        <ele>940.6</ele>
        <time>2021-06-26T09:25:42Z</time>
      </trkpt>
      <trkpt lat="44.78881" lon="5.90951">
        <ele>940</ele>
        <time>2021-06-26T09:25:46Z</time>
      </trkpt>
      <trkpt lat="44.78926" lon="5.9096">
        <ele>939.6</ele>
        <time>2021-06-26T09:25:52Z</time>
      </trkpt>
      <trkpt lat="44.78956" lon="5.90965">
        <ele>939</ele>
        <time>2021-06-26T09:25:56Z</time>
      </trkpt>
      <trkpt lat="44.79014" lon="5.90975">
        <ele>938.6</ele>
        <time>2021-06-26T09:26:04Z</time>
      </trkpt>
      <trkpt lat="44.7907" lon="5.90987">
        <ele>938.6</ele>
        <time>2021-06-26T09:26:12Z</time>
      </trkpt>
      <trkpt lat="44.79089" lon="5.9099">
        <ele>938.6</ele>
        <time>2021-06-26T09:26:15Z</time>
      </trkpt>
      <trkpt lat="44.7915" lon="5.90998">
        <ele>938.2</ele>
        <time>2021-06-26T09:26:24Z</time>
      </trkpt>
      <trkpt lat="44.79163" lon="5.91">
        <ele>938</ele>
        <time>2021-06-26T09:26:26Z</time>
      </trkpt>
      <trkpt lat="44.79215" lon="5.91006">
        <ele>937.2</ele>
        <time>2021-06-26T09:26:34Z</time>
      </trkpt>
      <trkpt lat="44.79222" lon="5.91007">
        <ele>937.2</ele>
        <time>2021-06-26T09:26:35Z</time>
      </trkpt>
      <trkpt lat="44.79267" lon="5.91012">
        <ele>936.8</ele>
        <time>2021-06-26T09:26:41Z</time>
      </trkpt>
      <trkpt lat="44.79281" lon="5.91014">
        <ele>936.2</ele>
        <time>2021-06-26T09:26:43Z</time>
      </trkpt>
      <trkpt lat="44.79314" lon="5.91017">
        <ele>935.6</ele>
        <time>2021-06-26T09:26:48Z</time>
      </trkpt>
      <trkpt lat="44.79371" lon="5.91025">
        <ele>935.2</ele>
        <time>2021-06-26T09:26:56Z</time>
      </trkpt>
      <trkpt lat="44.79416" lon="5.9103">
        <ele>934.2</ele>
        <time>2021-06-26T09:27:02Z</time>
      </trkpt>
      <trkpt lat="44.79432" lon="5.91032">
        <ele>934</ele>
        <time>2021-06-26T09:27:04Z</time>
      </trkpt>
      <trkpt lat="44.79488" lon="5.91038">
        <ele>933.2</ele>
        <time>2021-06-26T09:27:11Z</time>
      </trkpt>
      <trkpt lat="44.79496" lon="5.91039">
        <ele>933.2</ele>
        <time>2021-06-26T09:27:12Z</time>
      </trkpt>
      <trkpt lat="44.79544" lon="5.91046">
        <ele>932.2</ele>
        <time>2021-06-26T09:27:18Z</time>
      </trkpt>
      <trkpt lat="44.7959" lon="5.91052">
        <ele>931.6</ele>
        <time>2021-06-26T09:27:24Z</time>
      </trkpt>
      <trkpt lat="44.79612" lon="5.91056">
        <ele>931.2</ele>
        <time>2021-06-26T09:27:27Z</time>
      </trkpt>
      <trkpt lat="44.7966" lon="5.91062">
        <ele>930</ele>
        <time>2021-06-26T09:27:33Z</time>
      </trkpt>
      <trkpt lat="44.79692" lon="5.91066">
        <ele>929.8</ele>
        <time>2021-06-26T09:27:37Z</time>
      </trkpt>
      <trkpt lat="44.79747" lon="5.91071">
        <ele>929.4</ele>
        <time>2021-06-26T09:27:44Z</time>
      </trkpt>
      <trkpt lat="44.79762" lon="5.91073">
        <ele>929.4</ele>
        <time>2021-06-26T09:27:46Z</time>
      </trkpt>
      <trkpt lat="44.79815" lon="5.91081">
        <ele>929.2</ele>
        <time>2021-06-26T09:27:53Z</time>
      </trkpt>
      <trkpt lat="44.79831" lon="5.91082">
        <ele>928.8</ele>
        <time>2021-06-26T09:27:55Z</time>
      </trkpt>
      <trkpt lat="44.79869" lon="5.91087">
        <ele>928.2</ele>
        <time>2021-06-26T09:28:00Z</time>
      </trkpt>
      <trkpt lat="44.7993" lon="5.91094">
        <ele>927.6</ele>
        <time>2021-06-26T09:28:08Z</time>
      </trkpt>
      <trkpt lat="44.79938" lon="5.91095">
        <ele>927.6</ele>
        <time>2021-06-26T09:28:09Z</time>
      </trkpt>
      <trkpt lat="44.79961" lon="5.91098">
        <ele>926.8</ele>
        <time>2021-06-26T09:28:12Z</time>
      </trkpt>
      <trkpt lat="44.80009" lon="5.91104">
        <ele>926.4</ele>
        <time>2021-06-26T09:28:18Z</time>
      </trkpt>
      <trkpt lat="44.8005" lon="5.91108">
        <ele>925.8</ele>
        <time>2021-06-26T09:28:23Z</time>
      </trkpt>
      <trkpt lat="44.80083" lon="5.91113">
        <ele>925.4</ele>
        <time>2021-06-26T09:28:27Z</time>
      </trkpt>
      <trkpt lat="44.80114" lon="5.91116">
        <ele>925</ele>
        <time>2021-06-26T09:28:31Z</time>
      </trkpt>
      <trkpt lat="44.80136" lon="5.91119">
        <ele>924.4</ele>
        <time>2021-06-26T09:28:34Z</time>
      </trkpt>
      <trkpt lat="44.80143" lon="5.9112">
        <ele>924.2</ele>
        <time>2021-06-26T09:28:35Z</time>
      </trkpt>
      <trkpt lat="44.80159" lon="5.91122">
        <ele>924</ele>
        <time>2021-06-26T09:28:37Z</time>
      </trkpt>
      <trkpt lat="44.80205" lon="5.91128">
        <ele>923.2</ele>
        <time>2021-06-26T09:28:43Z</time>
      </trkpt>
      <trkpt lat="44.8022" lon="5.9113">
        <ele>923</ele>
        <time>2021-06-26T09:28:45Z</time>
      </trkpt>
      <trkpt lat="44.80267" lon="5.91136">
        <ele>922</ele>
        <time>2021-06-26T09:28:51Z</time>
      </trkpt>
      <trkpt lat="44.80283" lon="5.91138">
        <ele>921.8</ele>
        <time>2021-06-26T09:28:53Z</time>
      </trkpt>
      <trkpt lat="44.80337" lon="5.91145">
        <ele>920.6</ele>
        <time>2021-06-26T09:29:00Z</time>
      </trkpt>
      <trkpt lat="44.80375" lon="5.9115">
        <ele>920</ele>
        <time>2021-06-26T09:29:05Z</time>
      </trkpt>
      <trkpt lat="44.80415" lon="5.91154">
        <ele>919.4</ele>
        <time>2021-06-26T09:29:10Z</time>
      </trkpt>
      <trkpt lat="44.80462" lon="5.9116">
        <ele>919.2</ele>
        <time>2021-06-26T09:29:16Z</time>
      </trkpt>
      <trkpt lat="44.80501" lon="5.91165">
        <ele>918.2</ele>
        <time>2021-06-26T09:29:21Z</time>
      </trkpt>
      <trkpt lat="44.80532" lon="5.91168">
        <ele>917.6</ele>
        <time>2021-06-26T09:29:25Z</time>
      </trkpt>
      <trkpt lat="44.8054" lon="5.91169">
        <ele>917.2</ele>
        <time>2021-06-26T09:29:26Z</time>
      </trkpt>
      <trkpt lat="44.80601" lon="5.91177">
        <ele>916.4</ele>
        <time>2021-06-26T09:29:34Z</time>
      </trkpt>
      <trkpt lat="44.80624" lon="5.9118">
        <ele>916</ele>
        <time>2021-06-26T09:29:37Z</time>
      </trkpt>
      <trkpt lat="44.80663" lon="5.91175">
        <ele>915.6</ele>
        <time>2021-06-26T09:29:42Z</time>
      </trkpt>
      <trkpt lat="44.80671" lon="5.91172">
        <ele>915.4</ele>
        <time>2021-06-26T09:29:43Z</time>
      </trkpt>
      <trkpt lat="44.80688" lon="5.91166">
        <ele>915</ele>
        <time>2021-06-26T09:29:45Z</time>
      </trkpt>
      <trkpt lat="44.80712" lon="5.91157">
        <ele>913.8</ele>
        <time>2021-06-26T09:29:48Z</time>
      </trkpt>
      <trkpt lat="44.80733" lon="5.91152">
        <ele>913.4</ele>
        <time>2021-06-26T09:29:50Z</time>
      </trkpt>
      <trkpt lat="44.80754" lon="5.9115">
        <ele>912</ele>
        <time>2021-06-26T09:29:52Z</time>
      </trkpt>
      <trkpt lat="44.80787" lon="5.91146">
        <ele>910.8</ele>
        <time>2021-06-26T09:29:55Z</time>
      </trkpt>
      <trkpt lat="44.80809" lon="5.91145">
        <ele>909.6</ele>
        <time>2021-06-26T09:29:57Z</time>
      </trkpt>
      <trkpt lat="44.80833" lon="5.91144">
        <ele>907.4</ele>
        <time>2021-06-26T09:29:59Z</time>
      </trkpt>
      <trkpt lat="44.80861" lon="5.91141">
        <ele>905.6</ele>
        <time>2021-06-26T09:30:01Z</time>
      </trkpt>
      <trkpt lat="44.80885" lon="5.91138">
        <ele>903.8</ele>
        <time>2021-06-26T09:30:03Z</time>
      </trkpt>
      <trkpt lat="44.80913" lon="5.91134">
        <ele>901.8</ele>
        <time>2021-06-26T09:30:05Z</time>
      </trkpt>
      <trkpt lat="44.80926" lon="5.91134">
        <ele>900</ele>
        <time>2021-06-26T09:30:06Z</time>
      </trkpt>
      <trkpt lat="44.80939" lon="5.91135">
        <ele>899.6</ele>
        <time>2021-06-26T09:30:07Z</time>
      </trkpt>
      <trkpt lat="44.80952" lon="5.91138">
        <ele>898.6</ele>
        <time>2021-06-26T09:30:08Z</time>
      </trkpt>
      <trkpt lat="44.80978" lon="5.91151">
        <ele>896.8</ele>
        <time>2021-06-26T09:30:10Z</time>
      </trkpt>
      <trkpt lat="44.81001" lon="5.91164">
        <ele>894.6</ele>
        <time>2021-06-26T09:30:12Z</time>
      </trkpt>
      <trkpt lat="44.81013" lon="5.91172">
        <ele>893.6</ele>
        <time>2021-06-26T09:30:13Z</time>
      </trkpt>
      <trkpt lat="44.8104" lon="5.91186">
        <ele>891.4</ele>
        <time>2021-06-26T09:30:15Z</time>
      </trkpt>
      <trkpt lat="44.81052" lon="5.91192">
        <ele>890.6</ele>
        <time>2021-06-26T09:30:16Z</time>
      </trkpt>
      <trkpt lat="44.81064" lon="5.912">
        <ele>889.6</ele>
        <time>2021-06-26T09:30:17Z</time>
      </trkpt>
      <trkpt lat="44.81088" lon="5.91216">
        <ele>888.2</ele>
        <time>2021-06-26T09:30:19Z</time>
      </trkpt>
      <trkpt lat="44.81099" lon="5.91226">
        <ele>887.2</ele>
        <time>2021-06-26T09:30:20Z</time>
      </trkpt>
      <trkpt lat="44.8111" lon="5.91238">
        <ele>886.6</ele>
        <time>2021-06-26T09:30:21Z</time>
      </trkpt>
      <trkpt lat="44.81119" lon="5.91248">
        <ele>885.2</ele>
        <time>2021-06-26T09:30:22Z</time>
      </trkpt>
      <trkpt lat="44.81141" lon="5.91273">
        <ele>882.8</ele>
        <time>2021-06-26T09:30:24Z</time>
      </trkpt>
      <trkpt lat="44.81154" lon="5.91289">
        <ele>882.2</ele>
        <time>2021-06-26T09:30:25Z</time>
      </trkpt>
      <trkpt lat="44.81164" lon="5.91303">
        <ele>881</ele>
        <time>2021-06-26T09:30:26Z</time>
      </trkpt>
      <trkpt lat="44.81172" lon="5.91314">
        <ele>879.6</ele>
        <time>2021-06-26T09:30:27Z</time>
      </trkpt>
      <trkpt lat="44.81193" lon="5.9134">
        <ele>877.2</ele>
        <time>2021-06-26T09:30:29Z</time>
      </trkpt>
      <trkpt lat="44.81206" lon="5.91353">
        <ele>876.4</ele>
        <time>2021-06-26T09:30:30Z</time>
      </trkpt>
      <trkpt lat="44.81218" lon="5.91363">
        <ele>874.6</ele>
        <time>2021-06-26T09:30:31Z</time>
      </trkpt>
      <trkpt lat="44.81229" lon="5.9137">
        <ele>873.8</ele>
        <time>2021-06-26T09:30:32Z</time>
      </trkpt>
      <trkpt lat="44.8124" lon="5.91374">
        <ele>872.4</ele>
        <time>2021-06-26T09:30:33Z</time>
      </trkpt>
      <trkpt lat="44.81249" lon="5.91375">
        <ele>871</ele>
        <time>2021-06-26T09:30:34Z</time>
      </trkpt>
      <trkpt lat="44.81272" lon="5.91367">
        <ele>869.2</ele>
        <time>2021-06-26T09:30:36Z</time>
      </trkpt>
      <trkpt lat="44.81292" lon="5.91354">
        <ele>867.2</ele>
        <time>2021-06-26T09:30:38Z</time>
      </trkpt>
      <trkpt lat="44.81318" lon="5.91341">
        <ele>865.8</ele>
        <time>2021-06-26T09:30:40Z</time>
      </trkpt>
      <trkpt lat="44.81329" lon="5.91337">
        <ele>864.6</ele>
        <time>2021-06-26T09:30:41Z</time>
      </trkpt>
      <trkpt lat="44.8134" lon="5.91332">
        <ele>864</ele>
        <time>2021-06-26T09:30:42Z</time>
      </trkpt>
      <trkpt lat="44.8134" lon="5.91332">
        <ele>862.8</ele>
        <time>2021-06-26T09:30:43Z</time>
      </trkpt>
      <trkpt lat="44.81358" lon="5.91315">
        <ele>862.4</ele>
        <time>2021-06-26T09:30:44Z</time>
      </trkpt>
      <trkpt lat="44.81367" lon="5.913">
        <ele>861.2</ele>
        <time>2021-06-26T09:30:45Z</time>
      </trkpt>
      <trkpt lat="44.81373" lon="5.91284">
        <ele>860.6</ele>
        <time>2021-06-26T09:30:46Z</time>
      </trkpt>
      <trkpt lat="44.81378" lon="5.91269">
        <ele>859.4</ele>
        <time>2021-06-26T09:30:47Z</time>
      </trkpt>
      <trkpt lat="44.81383" lon="5.91257">
        <ele>857.8</ele>
        <time>2021-06-26T09:30:48Z</time>
      </trkpt>
      <trkpt lat="44.81401" lon="5.91233">
        <ele>856.4</ele>
        <time>2021-06-26T09:30:50Z</time>
      </trkpt>
      <trkpt lat="44.8142" lon="5.91216">
        <ele>854.8</ele>
        <time>2021-06-26T09:30:52Z</time>
      </trkpt>
      <trkpt lat="44.81436" lon="5.91197">
        <ele>853.4</ele>
        <time>2021-06-26T09:30:54Z</time>
      </trkpt>
      <trkpt lat="44.81445" lon="5.91188">
        <ele>852.2</ele>
        <time>2021-06-26T09:30:55Z</time>
      </trkpt>
      <trkpt lat="44.81454" lon="5.91177">
        <ele>851.8</ele>
        <time>2021-06-26T09:30:56Z</time>
      </trkpt>
      <trkpt lat="44.81459" lon="5.91168">
        <ele>850.4</ele>
        <time>2021-06-26T09:30:57Z</time>
      </trkpt>
      <trkpt lat="44.81461" lon="5.91159">
        <ele>849.6</ele>
        <time>2021-06-26T09:30:58Z</time>
      </trkpt>
      <trkpt lat="44.81462" lon="5.91147">
        <ele>848.2</ele>
        <time>2021-06-26T09:30:59Z</time>
      </trkpt>
      <trkpt lat="44.81461" lon="5.91135">
        <ele>847.8</ele>
        <time>2021-06-26T09:31:00Z</time>
      </trkpt>
      <trkpt lat="44.81457" lon="5.9111">
        <ele>847</ele>
        <time>2021-06-26T09:31:02Z</time>
      </trkpt>
      <trkpt lat="44.81458" lon="5.91085">
        <ele>846</ele>
        <time>2021-06-26T09:31:04Z</time>
      </trkpt>
      <trkpt lat="44.81468" lon="5.91069">
        <ele>844.4</ele>
        <time>2021-06-26T09:31:06Z</time>
      </trkpt>
      <trkpt lat="44.81487" lon="5.91062">
        <ele>842.8</ele>
        <time>2021-06-26T09:31:08Z</time>
      </trkpt>
      <trkpt lat="44.81501" lon="5.9106">
        <ele>842.2</ele>
        <time>2021-06-26T09:31:09Z</time>
      </trkpt>
      <trkpt lat="44.81515" lon="5.9106">
        <ele>841</ele>
        <time>2021-06-26T09:31:10Z</time>
      </trkpt>
      <trkpt lat="44.81528" lon="5.91059">
        <ele>840.2</ele>
        <time>2021-06-26T09:31:11Z</time>
      </trkpt>
      <trkpt lat="44.8154" lon="5.91056">
        <ele>839.6</ele>
        <time>2021-06-26T09:31:12Z</time>
      </trkpt>
      <trkpt lat="44.81551" lon="5.91052">
        <ele>838.2</ele>
        <time>2021-06-26T09:31:13Z</time>
      </trkpt>
      <trkpt lat="44.81562" lon="5.91047">
        <ele>837.8</ele>
        <time>2021-06-26T09:31:14Z</time>
      </trkpt>
      <trkpt lat="44.81571" lon="5.9104">
        <ele>836.4</ele>
        <time>2021-06-26T09:31:15Z</time>
      </trkpt>
      <trkpt lat="44.8158" lon="5.91032">
        <ele>835.8</ele>
        <time>2021-06-26T09:31:16Z</time>
      </trkpt>
      <trkpt lat="44.81586" lon="5.91021">
        <ele>834.4</ele>
        <time>2021-06-26T09:31:17Z</time>
      </trkpt>
      <trkpt lat="44.81593" lon="5.91008">
        <ele>833.2</ele>
        <time>2021-06-26T09:31:18Z</time>
      </trkpt>
      <trkpt lat="44.81597" lon="5.90995">
        <ele>832.8</ele>
        <time>2021-06-26T09:31:19Z</time>
      </trkpt>
      <trkpt lat="44.81601" lon="5.9098">
        <ele>831.6</ele>
        <time>2021-06-26T09:31:20Z</time>
      </trkpt>
      <trkpt lat="44.81604" lon="5.90964">
        <ele>831.2</ele>
        <time>2021-06-26T09:31:21Z</time>
      </trkpt>
      <trkpt lat="44.81605" lon="5.90948">
        <ele>830.4</ele>
        <time>2021-06-26T09:31:22Z</time>
      </trkpt>
      <trkpt lat="44.81606" lon="5.90914">
        <ele>828.4</ele>
        <time>2021-06-26T09:31:24Z</time>
      </trkpt>
      <trkpt lat="44.81606" lon="5.90897">
        <ele>827</ele>
        <time>2021-06-26T09:31:25Z</time>
      </trkpt>
      <trkpt lat="44.81607" lon="5.9088">
        <ele>826.4</ele>
        <time>2021-06-26T09:31:26Z</time>
      </trkpt>
      <trkpt lat="44.81608" lon="5.90862">
        <ele>825.2</ele>
        <time>2021-06-26T09:31:27Z</time>
      </trkpt>
      <trkpt lat="44.8161" lon="5.90827">
        <ele>823.8</ele>
        <time>2021-06-26T09:31:29Z</time>
      </trkpt>
      <trkpt lat="44.81611" lon="5.90794">
        <ele>821.2</ele>
        <time>2021-06-26T09:31:31Z</time>
      </trkpt>
      <trkpt lat="44.81611" lon="5.90779">
        <ele>819.6</ele>
        <time>2021-06-26T09:31:32Z</time>
      </trkpt>
      <trkpt lat="44.81611" lon="5.90742">
        <ele>818.4</ele>
        <time>2021-06-26T09:31:35Z</time>
      </trkpt>
      <trkpt lat="44.81611" lon="5.9073">
        <ele>817.2</ele>
        <time>2021-06-26T09:31:36Z</time>
      </trkpt>
      <trkpt lat="44.81619" lon="5.90719">
        <ele>815.8</ele>
        <time>2021-06-26T09:31:38Z</time>
      </trkpt>
      <trkpt lat="44.8163" lon="5.90729">
        <ele>815.2</ele>
        <time>2021-06-26T09:31:40Z</time>
      </trkpt>
      <trkpt lat="44.81634" lon="5.90737">
        <ele>814.6</ele>
        <time>2021-06-26T09:31:41Z</time>
      </trkpt>
      <trkpt lat="44.81645" lon="5.90757">
        <ele>813.6</ele>
        <time>2021-06-26T09:31:43Z</time>
      </trkpt>
      <trkpt lat="44.81652" lon="5.90777">
        <ele>812.4</ele>
        <time>2021-06-26T09:31:45Z</time>
      </trkpt>
      <trkpt lat="44.81663" lon="5.90795">
        <ele>810.8</ele>
        <time>2021-06-26T09:31:47Z</time>
      </trkpt>
      <trkpt lat="44.81671" lon="5.90804">
        <ele>810</ele>
        <time>2021-06-26T09:31:48Z</time>
      </trkpt>
      <trkpt lat="44.81677" lon="5.90806">
        <ele>809.8</ele>
        <time>2021-06-26T09:31:49Z</time>
      </trkpt>
      <trkpt lat="44.81695" lon="5.90804">
        <ele>809</ele>
        <time>2021-06-26T09:31:51Z</time>
      </trkpt>
      <trkpt lat="44.81702" lon="5.90799">
        <ele>808.4</ele>
        <time>2021-06-26T09:31:52Z</time>
      </trkpt>
      <trkpt lat="44.8171" lon="5.90793">
        <ele>807.2</ele>
        <time>2021-06-26T09:31:53Z</time>
      </trkpt>
      <trkpt lat="44.81731" lon="5.90774">
        <ele>806.2</ele>
        <time>2021-06-26T09:31:56Z</time>
      </trkpt>
      <trkpt lat="44.81745" lon="5.90762">
        <ele>805.2</ele>
        <time>2021-06-26T09:31:58Z</time>
      </trkpt>
      <trkpt lat="44.81758" lon="5.90752">
        <ele>804</ele>
        <time>2021-06-26T09:32:00Z</time>
      </trkpt>
      <trkpt lat="44.81763" lon="5.90748">
        <ele>803.8</ele>
        <time>2021-06-26T09:32:01Z</time>
      </trkpt>
      <trkpt lat="44.81773" lon="5.90745">
        <ele>803.2</ele>
        <time>2021-06-26T09:32:03Z</time>
      </trkpt>
      <trkpt lat="44.81777" lon="5.90745">
        <ele>802.8</ele>
        <time>2021-06-26T09:32:04Z</time>
      </trkpt>
      <trkpt lat="44.81783" lon="5.90745">
        <ele>802</ele>
        <time>2021-06-26T09:32:06Z</time>
      </trkpt>
      <trkpt lat="44.81785" lon="5.90742">
        <ele>801.8</ele>
        <time>2021-06-26T09:32:07Z</time>
      </trkpt>
      <trkpt lat="44.81786" lon="5.9074">
        <ele>801.6</ele>
        <time>2021-06-26T09:32:08Z</time>
      </trkpt>
      <trkpt lat="44.81784" lon="5.90736">
        <ele>800.8</ele>
        <time>2021-06-26T09:32:10Z</time>
      </trkpt>
      <trkpt lat="44.81783" lon="5.90737">
        <ele>800.4</ele>
        <time>2021-06-26T09:32:11Z</time>
      </trkpt>
      <trkpt lat="44.81782" lon="5.90739">
        <ele>800.4</ele>
        <time>2021-06-26T09:32:13Z</time>
      </trkpt>
      <trkpt lat="44.81782" lon="5.90739">
        <ele>800.4</ele>
        <time>2021-06-26T09:32:14Z</time>
      </trkpt>
      <trkpt lat="44.81784" lon="5.90733">
        <ele>799.2</ele>
        <time>2021-06-26T09:32:39Z</time>
      </trkpt>
      <trkpt lat="44.81782" lon="5.90726">
        <ele>799.2</ele>
        <time>2021-06-26T09:32:41Z</time>
      </trkpt>
      <trkpt lat="44.81779" lon="5.90703">
        <ele>799.6</ele>
        <time>2021-06-26T09:32:46Z</time>
      </trkpt>
      <trkpt lat="44.81778" lon="5.90683">
        <ele>800</ele>
        <time>2021-06-26T09:32:51Z</time>
      </trkpt>
      <trkpt lat="44.81779" lon="5.9067">
        <ele>800</ele>
        <time>2021-06-26T09:32:56Z</time>
      </trkpt>
      <trkpt lat="44.8178" lon="5.90666">
        <ele>800</ele>
        <time>2021-06-26T09:32:58Z</time>
      </trkpt>
      <trkpt lat="44.81778" lon="5.9066">
        <ele>800</ele>
        <time>2021-06-26T09:33:01Z</time>
      </trkpt>
      <trkpt lat="44.81774" lon="5.90653">
        <ele>800.4</ele>
        <time>2021-06-26T09:33:06Z</time>
      </trkpt>
      <trkpt lat="44.81774" lon="5.90652">
        <ele>800.4</ele>
        <time>2021-06-26T09:33:07Z</time>
      </trkpt>
      <trkpt lat="44.81775" lon="5.90646">
        <ele>800.4</ele>
        <time>2021-06-26T09:33:13Z</time>
      </trkpt>
      <trkpt lat="44.81777" lon="5.90643">
        <ele>800.4</ele>
        <time>2021-06-26T09:33:20Z</time>
      </trkpt>
      <trkpt lat="44.81777" lon="5.90643">
        <ele>800.4</ele>
        <time>2021-06-26T09:33:21Z</time>
      </trkpt>
      <trkpt lat="44.81778" lon="5.90649">
        <ele>800.8</ele>
        <time>2021-06-26T09:34:01Z</time>
      </trkpt>
      <trkpt lat="44.81779" lon="5.90657">
        <ele>800.6</ele>
        <time>2021-06-26T09:34:03Z</time>
      </trkpt>
      <trkpt lat="44.81775" lon="5.90674">
        <ele>800.4</ele>
        <time>2021-06-26T09:34:09Z</time>
      </trkpt>
      <trkpt lat="44.81773" lon="5.90674">
        <ele>800.4</ele>
        <time>2021-06-26T09:34:11Z</time>
      </trkpt>
      <trkpt lat="44.81771" lon="5.90676">
        <ele>800</ele>
        <time>2021-06-26T09:34:16Z</time>
      </trkpt>
      <trkpt lat="44.81771" lon="5.90676">
        <ele>800</ele>
        <time>2021-06-26T09:34:17Z</time>
      </trkpt>
      <trkpt lat="44.81778" lon="5.90684">
        <ele>799.8</ele>
        <time>2021-06-26T09:36:51Z</time>
      </trkpt>
      <trkpt lat="44.8178" lon="5.90693">
        <ele>799.8</ele>
        <time>2021-06-26T09:36:54Z</time>
      </trkpt>
      <trkpt lat="44.81784" lon="5.90722">
        <ele>799.4</ele>
        <time>2021-06-26T09:37:02Z</time>
      </trkpt>
      <trkpt lat="44.81784" lon="5.90739">
        <ele>799.4</ele>
        <time>2021-06-26T09:37:07Z</time>
      </trkpt>
      <trkpt lat="44.81783" lon="5.90741">
        <ele>799.4</ele>
        <time>2021-06-26T09:37:08Z</time>
      </trkpt>
      <trkpt lat="44.81782" lon="5.90742">
        <ele>799.4</ele>
        <time>2021-06-26T09:37:09Z</time>
      </trkpt>
      <trkpt lat="44.81782" lon="5.90743">
        <ele>799.4</ele>
        <time>2021-06-26T09:37:10Z</time>
      </trkpt>
      <trkpt lat="44.81782" lon="5.90743">
        <ele>799.4</ele>
        <time>2021-06-26T09:37:11Z</time>
      </trkpt>
      <trkpt lat="44.81777" lon="5.90743">
        <ele>799.8</ele>
        <time>2021-06-26T09:37:25Z</time>
      </trkpt>
      <trkpt lat="44.81774" lon="5.90741">
        <ele>799.8</ele>
        <time>2021-06-26T09:37:27Z</time>
      </trkpt>
      <trkpt lat="44.81774" lon="5.90741">
        <ele>800</ele>
        <time>2021-06-26T09:37:30Z</time>
      </trkpt>
      <trkpt lat="44.81775" lon="5.90746">
        <ele>800.8</ele>
        <time>2021-06-26T09:38:16Z</time>
      </trkpt>
      <trkpt lat="44.81777" lon="5.90745">
        <ele>801</ele>
        <time>2021-06-26T09:38:17Z</time>
      </trkpt>
      <trkpt lat="44.81781" lon="5.90743">
        <ele>801</ele>
        <time>2021-06-26T09:38:19Z</time>
      </trkpt>
      <trkpt lat="44.81783" lon="5.90742">
        <ele>800.8</ele>
        <time>2021-06-26T09:38:22Z</time>
      </trkpt>
      <trkpt lat="44.81789" lon="5.90752">
        <ele>800.2</ele>
        <time>2021-06-26T09:40:08Z</time>
      </trkpt>
      <trkpt lat="44.81793" lon="5.9076">
        <ele>800.2</ele>
        <time>2021-06-26T09:40:10Z</time>
      </trkpt>
      <trkpt lat="44.81804" lon="5.90781">
        <ele>800.2</ele>
        <time>2021-06-26T09:40:14Z</time>
      </trkpt>
      <trkpt lat="44.81806" lon="5.90785">
        <ele>800</ele>
        <time>2021-06-26T09:40:15Z</time>
      </trkpt>
      <trkpt lat="44.81819" lon="5.90805">
        <ele>799.4</ele>
        <time>2021-06-26T09:40:18Z</time>
      </trkpt>
      <trkpt lat="44.81829" lon="5.90826">
        <ele>798.2</ele>
        <time>2021-06-26T09:40:21Z</time>
      </trkpt>
      <trkpt lat="44.81831" lon="5.90843">
        <ele>797.8</ele>
        <time>2021-06-26T09:40:23Z</time>
      </trkpt>
      <trkpt lat="44.81831" lon="5.90853">
        <ele>797.6</ele>
        <time>2021-06-26T09:40:24Z</time>
      </trkpt>
      <trkpt lat="44.81829" lon="5.90873">
        <ele>796.8</ele>
        <time>2021-06-26T09:40:26Z</time>
      </trkpt>
      <trkpt lat="44.81825" lon="5.90906">
        <ele>795.8</ele>
        <time>2021-06-26T09:40:29Z</time>
      </trkpt>
      <trkpt lat="44.81821" lon="5.90941">
        <ele>794.6</ele>
        <time>2021-06-26T09:40:32Z</time>
      </trkpt>
      <trkpt lat="44.81818" lon="5.90964">
        <ele>794</ele>
        <time>2021-06-26T09:40:34Z</time>
      </trkpt>
      <trkpt lat="44.81817" lon="5.90976">
        <ele>793.4</ele>
        <time>2021-06-26T09:40:35Z</time>
      </trkpt>
      <trkpt lat="44.81816" lon="5.91">
        <ele>792.6</ele>
        <time>2021-06-26T09:40:37Z</time>
      </trkpt>
      <trkpt lat="44.81817" lon="5.91011">
        <ele>792.2</ele>
        <time>2021-06-26T09:40:38Z</time>
      </trkpt>
      <trkpt lat="44.81819" lon="5.91023">
        <ele>792</ele>
        <time>2021-06-26T09:40:39Z</time>
      </trkpt>
      <trkpt lat="44.81828" lon="5.91059">
        <ele>791</ele>
        <time>2021-06-26T09:40:42Z</time>
      </trkpt>
      <trkpt lat="44.81834" lon="5.91084">
        <ele>790</ele>
        <time>2021-06-26T09:40:44Z</time>
      </trkpt>
      <trkpt lat="44.81835" lon="5.91098">
        <ele>789.6</ele>
        <time>2021-06-26T09:40:45Z</time>
      </trkpt>
      <trkpt lat="44.81832" lon="5.91126">
        <ele>788.6</ele>
        <time>2021-06-26T09:40:47Z</time>
      </trkpt>
      <trkpt lat="44.81825" lon="5.91153">
        <ele>787.4</ele>
        <time>2021-06-26T09:40:49Z</time>
      </trkpt>
      <trkpt lat="44.81818" lon="5.91181">
        <ele>786.2</ele>
        <time>2021-06-26T09:40:51Z</time>
      </trkpt>
      <trkpt lat="44.81813" lon="5.9121">
        <ele>785</ele>
        <time>2021-06-26T09:40:53Z</time>
      </trkpt>
      <trkpt lat="44.81808" lon="5.91254">
        <ele>784</ele>
        <time>2021-06-26T09:40:56Z</time>
      </trkpt>
      <trkpt lat="44.81807" lon="5.91283">
        <ele>782.6</ele>
        <time>2021-06-26T09:40:58Z</time>
      </trkpt>
      <trkpt lat="44.81809" lon="5.91299">
        <ele>782</ele>
        <time>2021-06-26T09:40:59Z</time>
      </trkpt>
      <trkpt lat="44.81815" lon="5.91322">
        <ele>781.6</ele>
        <time>2021-06-26T09:41:01Z</time>
      </trkpt>
      <trkpt lat="44.81822" lon="5.91346">
        <ele>781.6</ele>
        <time>2021-06-26T09:41:03Z</time>
      </trkpt>
      <trkpt lat="44.81846" lon="5.91412">
        <ele>781.4</ele>
        <time>2021-06-26T09:41:09Z</time>
      </trkpt>
      <trkpt lat="44.81858" lon="5.91429">
        <ele>781.4</ele>
        <time>2021-06-26T09:41:11Z</time>
      </trkpt>
      <trkpt lat="44.81864" lon="5.91435">
        <ele>781.4</ele>
        <time>2021-06-26T09:41:12Z</time>
      </trkpt>
      <trkpt lat="44.81871" lon="5.91441">
        <ele>781.4</ele>
        <time>2021-06-26T09:41:13Z</time>
      </trkpt>
      <trkpt lat="44.81894" lon="5.91453">
        <ele>781.4</ele>
        <time>2021-06-26T09:41:16Z</time>
      </trkpt>
      <trkpt lat="44.81908" lon="5.91464">
        <ele>781.4</ele>
        <time>2021-06-26T09:41:18Z</time>
      </trkpt>
      <trkpt lat="44.81918" lon="5.9148">
        <ele>781.6</ele>
        <time>2021-06-26T09:41:20Z</time>
      </trkpt>
      <trkpt lat="44.81936" lon="5.91517">
        <ele>781.4</ele>
        <time>2021-06-26T09:41:24Z</time>
      </trkpt>
      <trkpt lat="44.81937" lon="5.91528">
        <ele>781.4</ele>
        <time>2021-06-26T09:41:25Z</time>
      </trkpt>
      <trkpt lat="44.81937" lon="5.91538">
        <ele>781.4</ele>
        <time>2021-06-26T09:41:26Z</time>
      </trkpt>
      <trkpt lat="44.81931" lon="5.91558">
        <ele>781.4</ele>
        <time>2021-06-26T09:41:28Z</time>
      </trkpt>
      <trkpt lat="44.81919" lon="5.9157">
        <ele>781.4</ele>
        <time>2021-06-26T09:41:30Z</time>
      </trkpt>
      <trkpt lat="44.81912" lon="5.91573">
        <ele>781.4</ele>
        <time>2021-06-26T09:41:31Z</time>
      </trkpt>
      <trkpt lat="44.81874" lon="5.91577">
        <ele>781.6</ele>
        <time>2021-06-26T09:41:36Z</time>
      </trkpt>
      <trkpt lat="44.81838" lon="5.91584">
        <ele>781.6</ele>
        <time>2021-06-26T09:41:41Z</time>
      </trkpt>
      <trkpt lat="44.81832" lon="5.91588">
        <ele>781.8</ele>
        <time>2021-06-26T09:41:42Z</time>
      </trkpt>
      <trkpt lat="44.81826" lon="5.91594">
        <ele>781.8</ele>
        <time>2021-06-26T09:41:43Z</time>
      </trkpt>
      <trkpt lat="44.81802" lon="5.91619">
        <ele>781.6</ele>
        <time>2021-06-26T09:41:47Z</time>
      </trkpt>
      <trkpt lat="44.81785" lon="5.91638">
        <ele>781.6</ele>
        <time>2021-06-26T09:41:50Z</time>
      </trkpt>
      <trkpt lat="44.81753" lon="5.91666">
        <ele>781.4</ele>
        <time>2021-06-26T09:41:55Z</time>
      </trkpt>
      <trkpt lat="44.81711" lon="5.917">
        <ele>781.6</ele>
        <time>2021-06-26T09:42:02Z</time>
      </trkpt>
      <trkpt lat="44.81702" lon="5.91708">
        <ele>782</ele>
        <time>2021-06-26T09:42:04Z</time>
      </trkpt>
      <trkpt lat="44.81696" lon="5.91719">
        <ele>782.8</ele>
        <time>2021-06-26T09:42:06Z</time>
      </trkpt>
      <trkpt lat="44.81694" lon="5.91725">
        <ele>783.2</ele>
        <time>2021-06-26T09:42:07Z</time>
      </trkpt>
      <trkpt lat="44.81694" lon="5.91731">
        <ele>783.4</ele>
        <time>2021-06-26T09:42:08Z</time>
      </trkpt>
      <trkpt lat="44.81694" lon="5.91737">
        <ele>783.8</ele>
        <time>2021-06-26T09:42:09Z</time>
      </trkpt>
      <trkpt lat="44.81696" lon="5.91743">
        <ele>784</ele>
        <time>2021-06-26T09:42:10Z</time>
      </trkpt>
      <trkpt lat="44.81697" lon="5.91748">
        <ele>784.4</ele>
        <time>2021-06-26T09:42:11Z</time>
      </trkpt>
      <trkpt lat="44.817" lon="5.91753">
        <ele>785</ele>
        <time>2021-06-26T09:42:12Z</time>
      </trkpt>
      <trkpt lat="44.81702" lon="5.91756">
        <ele>785.4</ele>
        <time>2021-06-26T09:42:13Z</time>
      </trkpt>
      <trkpt lat="44.81705" lon="5.9176">
        <ele>786</ele>
        <time>2021-06-26T09:42:14Z</time>
      </trkpt>
      <trkpt lat="44.81718" lon="5.9177">
        <ele>787.2</ele>
        <time>2021-06-26T09:42:18Z</time>
      </trkpt>
      <trkpt lat="44.81721" lon="5.91773">
        <ele>787.6</ele>
        <time>2021-06-26T09:42:19Z</time>
      </trkpt>
      <trkpt lat="44.81724" lon="5.91776">
        <ele>787.8</ele>
        <time>2021-06-26T09:42:20Z</time>
      </trkpt>
      <trkpt lat="44.81733" lon="5.91785">
        <ele>788.6</ele>
        <time>2021-06-26T09:42:23Z</time>
      </trkpt>
      <trkpt lat="44.81739" lon="5.91789">
        <ele>789.2</ele>
        <time>2021-06-26T09:42:25Z</time>
      </trkpt>
      <trkpt lat="44.81742" lon="5.91792">
        <ele>789.8</ele>
        <time>2021-06-26T09:42:26Z</time>
      </trkpt>
      <trkpt lat="44.81755" lon="5.91801">
        <ele>790.8</ele>
        <time>2021-06-26T09:42:30Z</time>
      </trkpt>
      <trkpt lat="44.81768" lon="5.91809">
        <ele>791.8</ele>
        <time>2021-06-26T09:42:34Z</time>
      </trkpt>
      <trkpt lat="44.81772" lon="5.91811">
        <ele>792</ele>
        <time>2021-06-26T09:42:35Z</time>
      </trkpt>
      <trkpt lat="44.81785" lon="5.91824">
        <ele>792.8</ele>
        <time>2021-06-26T09:42:40Z</time>
      </trkpt>
      <trkpt lat="44.81787" lon="5.91828">
        <ele>793</ele>
        <time>2021-06-26T09:42:41Z</time>
      </trkpt>
      <trkpt lat="44.81794" lon="5.91849">
        <ele>794.4</ele>
        <time>2021-06-26T09:42:46Z</time>
      </trkpt>
      <trkpt lat="44.81794" lon="5.91853">
        <ele>794.8</ele>
        <time>2021-06-26T09:42:47Z</time>
      </trkpt>
      <trkpt lat="44.81797" lon="5.91867">
        <ele>795.6</ele>
        <time>2021-06-26T09:42:50Z</time>
      </trkpt>
      <trkpt lat="44.81801" lon="5.91883">
        <ele>797</ele>
        <time>2021-06-26T09:42:54Z</time>
      </trkpt>
      <trkpt lat="44.81804" lon="5.91897">
        <ele>797.6</ele>
        <time>2021-06-26T09:42:57Z</time>
      </trkpt>
      <trkpt lat="44.81805" lon="5.919">
        <ele>798</ele>
        <time>2021-06-26T09:42:58Z</time>
      </trkpt>
      <trkpt lat="44.81812" lon="5.91924">
        <ele>799.2</ele>
        <time>2021-06-26T09:43:04Z</time>
      </trkpt>
      <trkpt lat="44.81813" lon="5.91928">
        <ele>799.6</ele>
        <time>2021-06-26T09:43:05Z</time>
      </trkpt>
      <trkpt lat="44.81815" lon="5.91939">
        <ele>800.4</ele>
        <time>2021-06-26T09:43:08Z</time>
      </trkpt>
      <trkpt lat="44.81815" lon="5.91959">
        <ele>801.4</ele>
        <time>2021-06-26T09:43:13Z</time>
      </trkpt>
      <trkpt lat="44.81816" lon="5.91974">
        <ele>802.6</ele>
        <time>2021-06-26T09:43:17Z</time>
      </trkpt>
      <trkpt lat="44.81816" lon="5.91978">
        <ele>802.8</ele>
        <time>2021-06-26T09:43:18Z</time>
      </trkpt>
      <trkpt lat="44.81816" lon="5.91994">
        <ele>803.8</ele>
        <time>2021-06-26T09:43:22Z</time>
      </trkpt>
      <trkpt lat="44.81817" lon="5.92016">
        <ele>804.8</ele>
        <time>2021-06-26T09:43:28Z</time>
      </trkpt>
      <trkpt lat="44.81817" lon="5.9202">
        <ele>805</ele>
        <time>2021-06-26T09:43:29Z</time>
      </trkpt>
      <trkpt lat="44.81819" lon="5.92043">
        <ele>806</ele>
        <time>2021-06-26T09:43:35Z</time>
      </trkpt>
      <trkpt lat="44.8182" lon="5.92054">
        <ele>806.6</ele>
        <time>2021-06-26T09:43:38Z</time>
      </trkpt>
      <trkpt lat="44.81821" lon="5.92062">
        <ele>807</ele>
        <time>2021-06-26T09:43:40Z</time>
      </trkpt>
      <trkpt lat="44.81827" lon="5.92088">
        <ele>808.2</ele>
        <time>2021-06-26T09:43:47Z</time>
      </trkpt>
      <trkpt lat="44.81829" lon="5.92096">
        <ele>808.8</ele>
        <time>2021-06-26T09:43:49Z</time>
      </trkpt>
      <trkpt lat="44.81831" lon="5.92109">
        <ele>809.4</ele>
        <time>2021-06-26T09:43:52Z</time>
      </trkpt>
      <trkpt lat="44.8183" lon="5.92128">
        <ele>810.4</ele>
        <time>2021-06-26T09:43:57Z</time>
      </trkpt>
      <trkpt lat="44.81829" lon="5.92132">
        <ele>810.6</ele>
        <time>2021-06-26T09:43:58Z</time>
      </trkpt>
      <trkpt lat="44.81827" lon="5.92148">
        <ele>811.6</ele>
        <time>2021-06-26T09:44:02Z</time>
      </trkpt>
      <trkpt lat="44.81825" lon="5.92168">
        <ele>812.8</ele>
        <time>2021-06-26T09:44:07Z</time>
      </trkpt>
      <trkpt lat="44.81823" lon="5.92187">
        <ele>813.8</ele>
        <time>2021-06-26T09:44:12Z</time>
      </trkpt>
      <trkpt lat="44.81822" lon="5.92202">
        <ele>815</ele>
        <time>2021-06-26T09:44:16Z</time>
      </trkpt>
      <trkpt lat="44.81821" lon="5.9221">
        <ele>815.8</ele>
        <time>2021-06-26T09:44:18Z</time>
      </trkpt>
      <trkpt lat="44.81821" lon="5.92218">
        <ele>816.2</ele>
        <time>2021-06-26T09:44:20Z</time>
      </trkpt>
      <trkpt lat="44.8182" lon="5.92237">
        <ele>817.4</ele>
        <time>2021-06-26T09:44:25Z</time>
      </trkpt>
      <trkpt lat="44.81819" lon="5.92253">
        <ele>818.4</ele>
        <time>2021-06-26T09:44:29Z</time>
      </trkpt>
      <trkpt lat="44.81817" lon="5.92272">
        <ele>819.6</ele>
        <time>2021-06-26T09:44:34Z</time>
      </trkpt>
      <trkpt lat="44.81817" lon="5.92291">
        <ele>820.8</ele>
        <time>2021-06-26T09:44:39Z</time>
      </trkpt>
      <trkpt lat="44.81817" lon="5.92295">
        <ele>820.8</ele>
        <time>2021-06-26T09:44:40Z</time>
      </trkpt>
      <trkpt lat="44.81818" lon="5.92312">
        <ele>821.8</ele>
        <time>2021-06-26T09:44:44Z</time>
      </trkpt>
      <trkpt lat="44.81819" lon="5.92331">
        <ele>822.8</ele>
        <time>2021-06-26T09:44:49Z</time>
      </trkpt>
      <trkpt lat="44.8182" lon="5.92335">
        <ele>823</ele>
        <time>2021-06-26T09:44:50Z</time>
      </trkpt>
      <trkpt lat="44.81823" lon="5.92362">
        <ele>824.4</ele>
        <time>2021-06-26T09:44:57Z</time>
      </trkpt>
      <trkpt lat="44.81823" lon="5.92383">
        <ele>825.4</ele>
        <time>2021-06-26T09:45:03Z</time>
      </trkpt>
      <trkpt lat="44.81823" lon="5.92386">
        <ele>825.6</ele>
        <time>2021-06-26T09:45:04Z</time>
      </trkpt>
      <trkpt lat="44.81822" lon="5.92401">
        <ele>826.4</ele>
        <time>2021-06-26T09:45:08Z</time>
      </trkpt>
      <trkpt lat="44.81822" lon="5.92416">
        <ele>827.6</ele>
        <time>2021-06-26T09:45:12Z</time>
      </trkpt>
      <trkpt lat="44.81823" lon="5.9242">
        <ele>827.6</ele>
        <time>2021-06-26T09:45:13Z</time>
      </trkpt>
      <trkpt lat="44.81823" lon="5.92431">
        <ele>828.6</ele>
        <time>2021-06-26T09:45:16Z</time>
      </trkpt>
      <trkpt lat="44.81822" lon="5.9245">
        <ele>829.6</ele>
        <time>2021-06-26T09:45:21Z</time>
      </trkpt>
      <trkpt lat="44.81822" lon="5.92462">
        <ele>830.2</ele>
        <time>2021-06-26T09:45:24Z</time>
      </trkpt>
      <trkpt lat="44.81822" lon="5.92474">
        <ele>830.8</ele>
        <time>2021-06-26T09:45:27Z</time>
      </trkpt>
      <trkpt lat="44.8182" lon="5.92492">
        <ele>831.6</ele>
        <time>2021-06-26T09:45:32Z</time>
      </trkpt>
      <trkpt lat="44.81819" lon="5.92498">
        <ele>831.8</ele>
        <time>2021-06-26T09:45:34Z</time>
      </trkpt>
      <trkpt lat="44.81816" lon="5.92515">
        <ele>833</ele>
        <time>2021-06-26T09:45:39Z</time>
      </trkpt>
      <trkpt lat="44.81814" lon="5.92534">
        <ele>834.4</ele>
        <time>2021-06-26T09:45:44Z</time>
      </trkpt>
      <trkpt lat="44.81814" lon="5.92545">
        <ele>834.8</ele>
        <time>2021-06-26T09:45:47Z</time>
      </trkpt>
      <trkpt lat="44.81814" lon="5.92561">
        <ele>835.4</ele>
        <time>2021-06-26T09:45:51Z</time>
      </trkpt>
      <trkpt lat="44.81814" lon="5.92579">
        <ele>836.2</ele>
        <time>2021-06-26T09:45:56Z</time>
      </trkpt>
      <trkpt lat="44.81814" lon="5.92583">
        <ele>836.4</ele>
        <time>2021-06-26T09:45:57Z</time>
      </trkpt>
      <trkpt lat="44.81815" lon="5.92595">
        <ele>837.4</ele>
        <time>2021-06-26T09:46:00Z</time>
      </trkpt>
      <trkpt lat="44.8182" lon="5.92611">
        <ele>838.2</ele>
        <time>2021-06-26T09:46:04Z</time>
      </trkpt>
      <trkpt lat="44.81823" lon="5.92618">
        <ele>838.8</ele>
        <time>2021-06-26T09:46:06Z</time>
      </trkpt>
      <trkpt lat="44.81834" lon="5.92633">
        <ele>839.6</ele>
        <time>2021-06-26T09:46:11Z</time>
      </trkpt>
      <trkpt lat="44.81836" lon="5.92637">
        <ele>840</ele>
        <time>2021-06-26T09:46:12Z</time>
      </trkpt>
      <trkpt lat="44.81849" lon="5.92655">
        <ele>841</ele>
        <time>2021-06-26T09:46:18Z</time>
      </trkpt>
      <trkpt lat="44.81852" lon="5.92662">
        <ele>841.6</ele>
        <time>2021-06-26T09:46:20Z</time>
      </trkpt>
      <trkpt lat="44.81856" lon="5.92674">
        <ele>842.2</ele>
        <time>2021-06-26T09:46:23Z</time>
      </trkpt>
      <trkpt lat="44.81856" lon="5.92687">
        <ele>843</ele>
        <time>2021-06-26T09:46:26Z</time>
      </trkpt>
      <trkpt lat="44.81856" lon="5.92691">
        <ele>843.2</ele>
        <time>2021-06-26T09:46:27Z</time>
      </trkpt>
      <trkpt lat="44.81853" lon="5.92714">
        <ele>844.2</ele>
        <time>2021-06-26T09:46:32Z</time>
      </trkpt>
      <trkpt lat="44.81852" lon="5.92718">
        <ele>844.6</ele>
        <time>2021-06-26T09:46:33Z</time>
      </trkpt>
      <trkpt lat="44.81849" lon="5.92729">
        <ele>845.4</ele>
        <time>2021-06-26T09:46:36Z</time>
      </trkpt>
      <trkpt lat="44.81846" lon="5.92743">
        <ele>846.6</ele>
        <time>2021-06-26T09:46:40Z</time>
      </trkpt>
      <trkpt lat="44.81845" lon="5.92747">
        <ele>846.8</ele>
        <time>2021-06-26T09:46:41Z</time>
      </trkpt>
      <trkpt lat="44.81845" lon="5.92761">
        <ele>847.6</ele>
        <time>2021-06-26T09:46:45Z</time>
      </trkpt>
      <trkpt lat="44.81845" lon="5.92773">
        <ele>848.6</ele>
        <time>2021-06-26T09:46:48Z</time>
      </trkpt>
      <trkpt lat="44.81845" lon="5.92781">
        <ele>849.4</ele>
        <time>2021-06-26T09:46:50Z</time>
      </trkpt>
      <trkpt lat="44.81845" lon="5.92788">
        <ele>850</ele>
        <time>2021-06-26T09:46:52Z</time>
      </trkpt>
      <trkpt lat="44.81844" lon="5.92808">
        <ele>851</ele>
        <time>2021-06-26T09:46:57Z</time>
      </trkpt>
      <trkpt lat="44.81845" lon="5.92825">
        <ele>852.2</ele>
        <time>2021-06-26T09:47:02Z</time>
      </trkpt>
      <trkpt lat="44.81845" lon="5.9284">
        <ele>852.8</ele>
        <time>2021-06-26T09:47:06Z</time>
      </trkpt>
      <trkpt lat="44.81847" lon="5.92851">
        <ele>853.2</ele>
        <time>2021-06-26T09:47:09Z</time>
      </trkpt>
      <trkpt lat="44.8185" lon="5.92865">
        <ele>854.6</ele>
        <time>2021-06-26T09:47:13Z</time>
      </trkpt>
      <trkpt lat="44.8185" lon="5.9287">
        <ele>854.8</ele>
        <time>2021-06-26T09:47:14Z</time>
      </trkpt>
      <trkpt lat="44.81852" lon="5.92885">
        <ele>855.8</ele>
        <time>2021-06-26T09:47:18Z</time>
      </trkpt>
      <trkpt lat="44.81854" lon="5.92904">
        <ele>857.2</ele>
        <time>2021-06-26T09:47:23Z</time>
      </trkpt>
      <trkpt lat="44.81854" lon="5.92913">
        <ele>857.6</ele>
        <time>2021-06-26T09:47:25Z</time>
      </trkpt>
      <trkpt lat="44.81854" lon="5.92932">
        <ele>858.2</ele>
        <time>2021-06-26T09:47:30Z</time>
      </trkpt>
      <trkpt lat="44.81853" lon="5.92943">
        <ele>858.4</ele>
        <time>2021-06-26T09:47:33Z</time>
      </trkpt>
      <trkpt lat="44.81854" lon="5.92959">
        <ele>859.4</ele>
        <time>2021-06-26T09:47:37Z</time>
      </trkpt>
      <trkpt lat="44.81854" lon="5.92969">
        <ele>860.2</ele>
        <time>2021-06-26T09:47:40Z</time>
      </trkpt>
      <trkpt lat="44.81854" lon="5.92973">
        <ele>860.4</ele>
        <time>2021-06-26T09:47:41Z</time>
      </trkpt>
      <trkpt lat="44.81853" lon="5.92981">
        <ele>860.8</ele>
        <time>2021-06-26T09:47:43Z</time>
      </trkpt>
      <trkpt lat="44.81852" lon="5.92999">
        <ele>861.8</ele>
        <time>2021-06-26T09:47:48Z</time>
      </trkpt>
      <trkpt lat="44.81849" lon="5.93015">
        <ele>863</ele>
        <time>2021-06-26T09:47:53Z</time>
      </trkpt>
      <trkpt lat="44.81846" lon="5.93034">
        <ele>864.4</ele>
        <time>2021-06-26T09:47:58Z</time>
      </trkpt>
      <trkpt lat="44.81846" lon="5.93039">
        <ele>864.4</ele>
        <time>2021-06-26T09:47:59Z</time>
      </trkpt>
      <trkpt lat="44.81848" lon="5.93062">
        <ele>865.6</ele>
        <time>2021-06-26T09:48:05Z</time>
      </trkpt>
      <trkpt lat="44.81851" lon="5.93081">
        <ele>866.6</ele>
        <time>2021-06-26T09:48:10Z</time>
      </trkpt>
      <trkpt lat="44.81854" lon="5.93093">
        <ele>867</ele>
        <time>2021-06-26T09:48:13Z</time>
      </trkpt>
      <trkpt lat="44.81858" lon="5.93108">
        <ele>867.8</ele>
        <time>2021-06-26T09:48:17Z</time>
      </trkpt>
      <trkpt lat="44.81859" lon="5.93119">
        <ele>868</ele>
        <time>2021-06-26T09:48:20Z</time>
      </trkpt>
      <trkpt lat="44.81859" lon="5.93135">
        <ele>868.8</ele>
        <time>2021-06-26T09:48:24Z</time>
      </trkpt>
      <trkpt lat="44.81859" lon="5.93144">
        <ele>869.2</ele>
        <time>2021-06-26T09:48:26Z</time>
      </trkpt>
      <trkpt lat="44.81858" lon="5.93165">
        <ele>869.8</ele>
        <time>2021-06-26T09:48:31Z</time>
      </trkpt>
      <trkpt lat="44.81855" lon="5.93181">
        <ele>870.8</ele>
        <time>2021-06-26T09:48:35Z</time>
      </trkpt>
      <trkpt lat="44.81854" lon="5.93185">
        <ele>871</ele>
        <time>2021-06-26T09:48:36Z</time>
      </trkpt>
      <trkpt lat="44.81849" lon="5.93202">
        <ele>872.4</ele>
        <time>2021-06-26T09:48:41Z</time>
      </trkpt>
      <trkpt lat="44.81845" lon="5.93216">
        <ele>873</ele>
        <time>2021-06-26T09:48:45Z</time>
      </trkpt>
      <trkpt lat="44.81844" lon="5.93224">
        <ele>873.4</ele>
        <time>2021-06-26T09:48:47Z</time>
      </trkpt>
      <trkpt lat="44.81843" lon="5.93238">
        <ele>874.4</ele>
        <time>2021-06-26T09:48:51Z</time>
      </trkpt>
      <trkpt lat="44.81843" lon="5.93243">
        <ele>874.8</ele>
        <time>2021-06-26T09:48:52Z</time>
      </trkpt>
      <trkpt lat="44.81846" lon="5.93263">
        <ele>875.4</ele>
        <time>2021-06-26T09:48:57Z</time>
      </trkpt>
      <trkpt lat="44.81849" lon="5.93274">
        <ele>876.2</ele>
        <time>2021-06-26T09:49:00Z</time>
      </trkpt>
      <trkpt lat="44.8185" lon="5.93282">
        <ele>876.8</ele>
        <time>2021-06-26T09:49:02Z</time>
      </trkpt>
      <trkpt lat="44.81854" lon="5.93297">
        <ele>877.8</ele>
        <time>2021-06-26T09:49:06Z</time>
      </trkpt>
      <trkpt lat="44.81855" lon="5.933">
        <ele>878</ele>
        <time>2021-06-26T09:49:07Z</time>
      </trkpt>
      <trkpt lat="44.81857" lon="5.93304">
        <ele>878.2</ele>
        <time>2021-06-26T09:49:08Z</time>
      </trkpt>
      <trkpt lat="44.81867" lon="5.93317">
        <ele>879.2</ele>
        <time>2021-06-26T09:49:13Z</time>
      </trkpt>
      <trkpt lat="44.81869" lon="5.93319">
        <ele>879.2</ele>
        <time>2021-06-26T09:49:14Z</time>
      </trkpt>
      <trkpt lat="44.81888" lon="5.93322">
        <ele>879.8</ele>
        <time>2021-06-26T09:49:20Z</time>
      </trkpt>
      <trkpt lat="44.81899" lon="5.93318">
        <ele>880.2</ele>
        <time>2021-06-26T09:49:23Z</time>
      </trkpt>
      <trkpt lat="44.8191" lon="5.9331">
        <ele>880.8</ele>
        <time>2021-06-26T09:49:27Z</time>
      </trkpt>
      <trkpt lat="44.81915" lon="5.93304">
        <ele>881.2</ele>
        <time>2021-06-26T09:49:29Z</time>
      </trkpt>
      <trkpt lat="44.81923" lon="5.9329">
        <ele>882.4</ele>
        <time>2021-06-26T09:49:33Z</time>
      </trkpt>
      <trkpt lat="44.81928" lon="5.93274">
        <ele>883.4</ele>
        <time>2021-06-26T09:49:37Z</time>
      </trkpt>
      <trkpt lat="44.81932" lon="5.93256">
        <ele>884.4</ele>
        <time>2021-06-26T09:49:41Z</time>
      </trkpt>
      <trkpt lat="44.81939" lon="5.93222">
        <ele>885.8</ele>
        <time>2021-06-26T09:49:49Z</time>
      </trkpt>
      <trkpt lat="44.81942" lon="5.93216">
        <ele>886</ele>
        <time>2021-06-26T09:49:51Z</time>
      </trkpt>
      <trkpt lat="44.81948" lon="5.93215">
        <ele>886.2</ele>
        <time>2021-06-26T09:49:53Z</time>
      </trkpt>
      <trkpt lat="44.8195" lon="5.93216">
        <ele>886.4</ele>
        <time>2021-06-26T09:49:54Z</time>
      </trkpt>
      <trkpt lat="44.81952" lon="5.93219">
        <ele>886.8</ele>
        <time>2021-06-26T09:49:55Z</time>
      </trkpt>
      <trkpt lat="44.81954" lon="5.93232">
        <ele>887.6</ele>
        <time>2021-06-26T09:49:58Z</time>
      </trkpt>
      <trkpt lat="44.81953" lon="5.93236">
        <ele>888</ele>
        <time>2021-06-26T09:49:59Z</time>
      </trkpt>
      <trkpt lat="44.81953" lon="5.9326">
        <ele>889</ele>
        <time>2021-06-26T09:50:05Z</time>
      </trkpt>
      <trkpt lat="44.81954" lon="5.93264">
        <ele>889.4</ele>
        <time>2021-06-26T09:50:06Z</time>
      </trkpt>
      <trkpt lat="44.81956" lon="5.93287">
        <ele>890.4</ele>
        <time>2021-06-26T09:50:12Z</time>
      </trkpt>
      <trkpt lat="44.81958" lon="5.933">
        <ele>890.8</ele>
        <time>2021-06-26T09:50:15Z</time>
      </trkpt>
      <trkpt lat="44.8196" lon="5.93318">
        <ele>891.4</ele>
        <time>2021-06-26T09:50:19Z</time>
      </trkpt>
      <trkpt lat="44.81962" lon="5.93338">
        <ele>892.6</ele>
        <time>2021-06-26T09:50:24Z</time>
      </trkpt>
      <trkpt lat="44.81963" lon="5.93345">
        <ele>893.2</ele>
        <time>2021-06-26T09:50:26Z</time>
      </trkpt>
      <trkpt lat="44.81965" lon="5.93358">
        <ele>893.8</ele>
        <time>2021-06-26T09:50:29Z</time>
      </trkpt>
      <trkpt lat="44.81967" lon="5.93373">
        <ele>894.8</ele>
        <time>2021-06-26T09:50:33Z</time>
      </trkpt>
      <trkpt lat="44.81968" lon="5.93386">
        <ele>895.6</ele>
        <time>2021-06-26T09:50:37Z</time>
      </trkpt>
      <trkpt lat="44.81969" lon="5.93393">
        <ele>896</ele>
        <time>2021-06-26T09:50:39Z</time>
      </trkpt>
      <trkpt lat="44.81972" lon="5.9342">
        <ele>897.2</ele>
        <time>2021-06-26T09:50:46Z</time>
      </trkpt>
      <trkpt lat="44.81973" lon="5.9344">
        <ele>898.2</ele>
        <time>2021-06-26T09:50:51Z</time>
      </trkpt>
      <trkpt lat="44.81973" lon="5.93452">
        <ele>898.6</ele>
        <time>2021-06-26T09:50:54Z</time>
      </trkpt>
      <trkpt lat="44.81973" lon="5.93468">
        <ele>899.4</ele>
        <time>2021-06-26T09:50:58Z</time>
      </trkpt>
      <trkpt lat="44.81971" lon="5.93488">
        <ele>900.4</ele>
        <time>2021-06-26T09:51:03Z</time>
      </trkpt>
      <trkpt lat="44.81969" lon="5.93503">
        <ele>901.2</ele>
        <time>2021-06-26T09:51:07Z</time>
      </trkpt>
      <trkpt lat="44.81967" lon="5.9351">
        <ele>901.6</ele>
        <time>2021-06-26T09:51:09Z</time>
      </trkpt>
      <trkpt lat="44.81961" lon="5.93527">
        <ele>902.6</ele>
        <time>2021-06-26T09:51:14Z</time>
      </trkpt>
      <trkpt lat="44.8196" lon="5.9353">
        <ele>902.8</ele>
        <time>2021-06-26T09:51:15Z</time>
      </trkpt>
      <trkpt lat="44.81953" lon="5.93542">
        <ele>903.8</ele>
        <time>2021-06-26T09:51:19Z</time>
      </trkpt>
      <trkpt lat="44.81944" lon="5.93556">
        <ele>904.6</ele>
        <time>2021-06-26T09:51:24Z</time>
      </trkpt>
      <trkpt lat="44.81941" lon="5.93562">
        <ele>905.2</ele>
        <time>2021-06-26T09:51:26Z</time>
      </trkpt>
      <trkpt lat="44.81932" lon="5.93576">
        <ele>906.4</ele>
        <time>2021-06-26T09:51:31Z</time>
      </trkpt>
      <trkpt lat="44.81928" lon="5.93586">
        <ele>907.2</ele>
        <time>2021-06-26T09:51:34Z</time>
      </trkpt>
      <trkpt lat="44.81925" lon="5.93592">
        <ele>907.6</ele>
        <time>2021-06-26T09:51:36Z</time>
      </trkpt>
      <trkpt lat="44.81917" lon="5.93613">
        <ele>908.8</ele>
        <time>2021-06-26T09:51:42Z</time>
      </trkpt>
      <trkpt lat="44.8191" lon="5.9363">
        <ele>909.8</ele>
        <time>2021-06-26T09:51:47Z</time>
      </trkpt>
      <trkpt lat="44.81908" lon="5.93637">
        <ele>910.4</ele>
        <time>2021-06-26T09:51:49Z</time>
      </trkpt>
      <trkpt lat="44.81901" lon="5.93655">
        <ele>911.2</ele>
        <time>2021-06-26T09:51:54Z</time>
      </trkpt>
      <trkpt lat="44.81896" lon="5.93672">
        <ele>912.4</ele>
        <time>2021-06-26T09:51:59Z</time>
      </trkpt>
      <trkpt lat="44.81895" lon="5.93676">
        <ele>912.6</ele>
        <time>2021-06-26T09:52:00Z</time>
      </trkpt>
      <trkpt lat="44.81891" lon="5.93694">
        <ele>913.6</ele>
        <time>2021-06-26T09:52:05Z</time>
      </trkpt>
      <trkpt lat="44.81889" lon="5.93709">
        <ele>914.8</ele>
        <time>2021-06-26T09:52:09Z</time>
      </trkpt>
      <trkpt lat="44.81889" lon="5.93713">
        <ele>915</ele>
        <time>2021-06-26T09:52:10Z</time>
      </trkpt>
      <trkpt lat="44.81889" lon="5.9372">
        <ele>915.6</ele>
        <time>2021-06-26T09:52:12Z</time>
      </trkpt>
      <trkpt lat="44.81889" lon="5.93724">
        <ele>916</ele>
        <time>2021-06-26T09:52:13Z</time>
      </trkpt>
      <trkpt lat="44.81889" lon="5.93742">
        <ele>917</ele>
        <time>2021-06-26T09:52:18Z</time>
      </trkpt>
      <trkpt lat="44.81889" lon="5.93746">
        <ele>917.4</ele>
        <time>2021-06-26T09:52:19Z</time>
      </trkpt>
      <trkpt lat="44.8189" lon="5.93754">
        <ele>918.2</ele>
        <time>2021-06-26T09:52:21Z</time>
      </trkpt>
      <trkpt lat="44.81894" lon="5.9378">
        <ele>919.2</ele>
        <time>2021-06-26T09:52:28Z</time>
      </trkpt>
      <trkpt lat="44.81895" lon="5.93784">
        <ele>919.2</ele>
        <time>2021-06-26T09:52:29Z</time>
      </trkpt>
      <trkpt lat="44.81897" lon="5.93803">
        <ele>920.2</ele>
        <time>2021-06-26T09:52:34Z</time>
      </trkpt>
      <trkpt lat="44.819" lon="5.93826">
        <ele>921.4</ele>
        <time>2021-06-26T09:52:40Z</time>
      </trkpt>
      <trkpt lat="44.819" lon="5.9383">
        <ele>921.6</ele>
        <time>2021-06-26T09:52:41Z</time>
      </trkpt>
      <trkpt lat="44.819" lon="5.93845">
        <ele>922.4</ele>
        <time>2021-06-26T09:52:45Z</time>
      </trkpt>
      <trkpt lat="44.819" lon="5.9386">
        <ele>923.6</ele>
        <time>2021-06-26T09:52:49Z</time>
      </trkpt>
      <trkpt lat="44.81899" lon="5.93871">
        <ele>924.2</ele>
        <time>2021-06-26T09:52:52Z</time>
      </trkpt>
      <trkpt lat="44.81898" lon="5.93879">
        <ele>924.6</ele>
        <time>2021-06-26T09:52:54Z</time>
      </trkpt>
      <trkpt lat="44.81896" lon="5.93897">
        <ele>925.8</ele>
        <time>2021-06-26T09:52:59Z</time>
      </trkpt>
      <trkpt lat="44.81894" lon="5.93909">
        <ele>926.4</ele>
        <time>2021-06-26T09:53:02Z</time>
      </trkpt>
      <trkpt lat="44.81893" lon="5.93921">
        <ele>926.8</ele>
        <time>2021-06-26T09:53:05Z</time>
      </trkpt>
      <trkpt lat="44.81893" lon="5.93936">
        <ele>928</ele>
        <time>2021-06-26T09:53:09Z</time>
      </trkpt>
      <trkpt lat="44.81893" lon="5.93942">
        <ele>928.4</ele>
        <time>2021-06-26T09:53:11Z</time>
      </trkpt>
      <trkpt lat="44.81895" lon="5.93952">
        <ele>929.4</ele>
        <time>2021-06-26T09:53:14Z</time>
      </trkpt>
      <trkpt lat="44.81896" lon="5.93966">
        <ele>930</ele>
        <time>2021-06-26T09:53:19Z</time>
      </trkpt>
      <trkpt lat="44.81898" lon="5.93974">
        <ele>930.4</ele>
        <time>2021-06-26T09:53:22Z</time>
      </trkpt>
      <trkpt lat="44.819" lon="5.93991">
        <ele>931.2</ele>
        <time>2021-06-26T09:53:27Z</time>
      </trkpt>
      <trkpt lat="44.81902" lon="5.94001">
        <ele>931.6</ele>
        <time>2021-06-26T09:53:30Z</time>
      </trkpt>
      <trkpt lat="44.81904" lon="5.94011">
        <ele>931.6</ele>
        <time>2021-06-26T09:53:33Z</time>
      </trkpt>
      <trkpt lat="44.81909" lon="5.94043">
        <ele>932.8</ele>
        <time>2021-06-26T09:53:41Z</time>
      </trkpt>
      <trkpt lat="44.8191" lon="5.94048">
        <ele>932.8</ele>
        <time>2021-06-26T09:53:42Z</time>
      </trkpt>
      <trkpt lat="44.81917" lon="5.94088">
        <ele>933.2</ele>
        <time>2021-06-26T09:53:51Z</time>
      </trkpt>
      <trkpt lat="44.81919" lon="5.94126">
        <ele>933.6</ele>
        <time>2021-06-26T09:53:59Z</time>
      </trkpt>
      <trkpt lat="44.81919" lon="5.94143">
        <ele>933.8</ele>
        <time>2021-06-26T09:54:01Z</time>
      </trkpt>
      <trkpt lat="44.81914" lon="5.9417">
        <ele>934</ele>
        <time>2021-06-26T09:54:06Z</time>
      </trkpt>
      <trkpt lat="44.819" lon="5.94211">
        <ele>934.4</ele>
        <time>2021-06-26T09:54:14Z</time>
      </trkpt>
      <trkpt lat="44.81894" lon="5.94243">
        <ele>934.8</ele>
        <time>2021-06-26T09:54:20Z</time>
      </trkpt>
      <trkpt lat="44.81894" lon="5.94249">
        <ele>935</ele>
        <time>2021-06-26T09:54:21Z</time>
      </trkpt>
      <trkpt lat="44.81894" lon="5.94289">
        <ele>935.2</ele>
        <time>2021-06-26T09:54:28Z</time>
      </trkpt>
      <trkpt lat="44.81896" lon="5.94344">
        <ele>935.8</ele>
        <time>2021-06-26T09:54:37Z</time>
      </trkpt>
      <trkpt lat="44.81896" lon="5.94352">
        <ele>936</ele>
        <time>2021-06-26T09:54:38Z</time>
      </trkpt>
      <trkpt lat="44.81898" lon="5.94408">
        <ele>936.2</ele>
        <time>2021-06-26T09:54:47Z</time>
      </trkpt>
      <trkpt lat="44.81899" lon="5.9443">
        <ele>936.2</ele>
        <time>2021-06-26T09:54:50Z</time>
      </trkpt>
      <trkpt lat="44.81903" lon="5.94464">
        <ele>936.4</ele>
        <time>2021-06-26T09:54:55Z</time>
      </trkpt>
      <trkpt lat="44.81903" lon="5.94517">
        <ele>936.6</ele>
        <time>2021-06-26T09:55:03Z</time>
      </trkpt>
      <trkpt lat="44.81902" lon="5.94544">
        <ele>937</ele>
        <time>2021-06-26T09:55:07Z</time>
      </trkpt>
      <trkpt lat="44.81905" lon="5.94569">
        <ele>937.4</ele>
        <time>2021-06-26T09:55:11Z</time>
      </trkpt>
      <trkpt lat="44.81909" lon="5.94579">
        <ele>937.6</ele>
        <time>2021-06-26T09:55:13Z</time>
      </trkpt>
      <trkpt lat="44.81917" lon="5.94586">
        <ele>937.6</ele>
        <time>2021-06-26T09:55:15Z</time>
      </trkpt>
      <trkpt lat="44.81943" lon="5.94604">
        <ele>937.8</ele>
        <time>2021-06-26T09:55:22Z</time>
      </trkpt>
      <trkpt lat="44.81953" lon="5.9461">
        <ele>938</ele>
        <time>2021-06-26T09:55:25Z</time>
      </trkpt>
      <trkpt lat="44.81955" lon="5.94613">
        <ele>938</ele>
        <time>2021-06-26T09:55:26Z</time>
      </trkpt>
      <trkpt lat="44.8196" lon="5.94618">
        <ele>938.2</ele>
        <time>2021-06-26T09:55:28Z</time>
      </trkpt>
      <trkpt lat="44.81961" lon="5.94624">
        <ele>938.4</ele>
        <time>2021-06-26T09:55:32Z</time>
      </trkpt>
      <trkpt lat="44.81961" lon="5.94624">
        <ele>938.6</ele>
        <time>2021-06-26T09:55:34Z</time>
      </trkpt>
      <trkpt lat="44.81963" lon="5.94629">
        <ele>938.6</ele>
        <time>2021-06-26T09:58:50Z</time>
      </trkpt>
      <trkpt lat="44.81964" lon="5.94632">
        <ele>938.6</ele>
        <time>2021-06-26T09:58:51Z</time>
      </trkpt>
      <trkpt lat="44.81971" lon="5.94653">
        <ele>938.2</ele>
        <time>2021-06-26T09:58:56Z</time>
      </trkpt>
      <trkpt lat="44.81972" lon="5.94676">
        <ele>937.8</ele>
        <time>2021-06-26T09:59:01Z</time>
      </trkpt>
      <trkpt lat="44.81973" lon="5.94703">
        <ele>938.4</ele>
        <time>2021-06-26T09:59:07Z</time>
      </trkpt>
      <trkpt lat="44.81968" lon="5.94716">
        <ele>939.6</ele>
        <time>2021-06-26T09:59:11Z</time>
      </trkpt>
      <trkpt lat="44.81966" lon="5.94719">
        <ele>939.8</ele>
        <time>2021-06-26T09:59:12Z</time>
      </trkpt>
      <trkpt lat="44.81962" lon="5.94727">
        <ele>940.6</ele>
        <time>2021-06-26T09:59:15Z</time>
      </trkpt>
      <trkpt lat="44.81959" lon="5.94733">
        <ele>940.8</ele>
        <time>2021-06-26T09:59:17Z</time>
      </trkpt>
      <trkpt lat="44.81941" lon="5.94757">
        <ele>941.6</ele>
        <time>2021-06-26T09:59:25Z</time>
      </trkpt>
      <trkpt lat="44.81939" lon="5.94759">
        <ele>941.8</ele>
        <time>2021-06-26T09:59:26Z</time>
      </trkpt>
      <trkpt lat="44.81925" lon="5.94769">
        <ele>942.8</ele>
        <time>2021-06-26T09:59:31Z</time>
      </trkpt>
      <trkpt lat="44.81919" lon="5.94769">
        <ele>943.4</ele>
        <time>2021-06-26T09:59:33Z</time>
      </trkpt>
      <trkpt lat="44.81913" lon="5.94768">
        <ele>944</ele>
        <time>2021-06-26T09:59:35Z</time>
      </trkpt>
      <trkpt lat="44.81905" lon="5.94765">
        <ele>945</ele>
        <time>2021-06-26T09:59:38Z</time>
      </trkpt>
      <trkpt lat="44.81898" lon="5.9476">
        <ele>945.2</ele>
        <time>2021-06-26T09:59:40Z</time>
      </trkpt>
      <trkpt lat="44.81888" lon="5.94755">
        <ele>946</ele>
        <time>2021-06-26T09:59:43Z</time>
      </trkpt>
      <trkpt lat="44.81872" lon="5.9475">
        <ele>946.6</ele>
        <time>2021-06-26T09:59:47Z</time>
      </trkpt>
      <trkpt lat="44.81846" lon="5.9474">
        <ele>946.8</ele>
        <time>2021-06-26T09:59:53Z</time>
      </trkpt>
      <trkpt lat="44.81806" lon="5.9473">
        <ele>946.8</ele>
        <time>2021-06-26T10:00:01Z</time>
      </trkpt>
      <trkpt lat="44.81796" lon="5.94734">
        <ele>946.8</ele>
        <time>2021-06-26T10:00:03Z</time>
      </trkpt>
      <trkpt lat="44.81792" lon="5.9474">
        <ele>946.8</ele>
        <time>2021-06-26T10:00:04Z</time>
      </trkpt>
      <trkpt lat="44.81789" lon="5.94745">
        <ele>946.8</ele>
        <time>2021-06-26T10:00:05Z</time>
      </trkpt>
      <trkpt lat="44.81779" lon="5.9477">
        <ele>946.6</ele>
        <time>2021-06-26T10:00:09Z</time>
      </trkpt>
      <trkpt lat="44.8177" lon="5.94805">
        <ele>946.6</ele>
        <time>2021-06-26T10:00:14Z</time>
      </trkpt>
      <trkpt lat="44.81767" lon="5.94821">
        <ele>946.4</ele>
        <time>2021-06-26T10:00:16Z</time>
      </trkpt>
      <trkpt lat="44.81763" lon="5.94837">
        <ele>946.2</ele>
        <time>2021-06-26T10:00:18Z</time>
      </trkpt>
      <trkpt lat="44.81758" lon="5.94853">
        <ele>945.8</ele>
        <time>2021-06-26T10:00:20Z</time>
      </trkpt>
      <trkpt lat="44.81747" lon="5.9486">
        <ele>945.6</ele>
        <time>2021-06-26T10:00:22Z</time>
      </trkpt>
      <trkpt lat="44.81742" lon="5.9486">
        <ele>945.2</ele>
        <time>2021-06-26T10:00:23Z</time>
      </trkpt>
      <trkpt lat="44.81738" lon="5.94857">
        <ele>945.2</ele>
        <time>2021-06-26T10:00:24Z</time>
      </trkpt>
      <trkpt lat="44.81734" lon="5.94855">
        <ele>945</ele>
        <time>2021-06-26T10:00:25Z</time>
      </trkpt>
      <trkpt lat="44.81732" lon="5.94851">
        <ele>945</ele>
        <time>2021-06-26T10:00:26Z</time>
      </trkpt>
      <trkpt lat="44.81718" lon="5.94842">
        <ele>945.2</ele>
        <time>2021-06-26T10:00:31Z</time>
      </trkpt>
      <trkpt lat="44.81708" lon="5.94853">
        <ele>945.8</ele>
        <time>2021-06-26T10:00:35Z</time>
      </trkpt>
      <trkpt lat="44.81707" lon="5.94866">
        <ele>946</ele>
        <time>2021-06-26T10:00:38Z</time>
      </trkpt>
      <trkpt lat="44.81709" lon="5.94877">
        <ele>946.4</ele>
        <time>2021-06-26T10:00:40Z</time>
      </trkpt>
      <trkpt lat="44.81714" lon="5.94886">
        <ele>947</ele>
        <time>2021-06-26T10:00:42Z</time>
      </trkpt>
      <trkpt lat="44.81725" lon="5.94897">
        <ele>948.2</ele>
        <time>2021-06-26T10:00:45Z</time>
      </trkpt>
      <trkpt lat="44.81738" lon="5.94909">
        <ele>948.8</ele>
        <time>2021-06-26T10:00:49Z</time>
      </trkpt>
      <trkpt lat="44.81742" lon="5.94918">
        <ele>949</ele>
        <time>2021-06-26T10:00:51Z</time>
      </trkpt>
      <trkpt lat="44.81748" lon="5.94925">
        <ele>949.8</ele>
        <time>2021-06-26T10:00:53Z</time>
      </trkpt>
      <trkpt lat="44.81751" lon="5.94926">
        <ele>950.2</ele>
        <time>2021-06-26T10:00:54Z</time>
      </trkpt>
      <trkpt lat="44.81761" lon="5.94927">
        <ele>951</ele>
        <time>2021-06-26T10:00:57Z</time>
      </trkpt>
      <trkpt lat="44.81765" lon="5.94925">
        <ele>951.4</ele>
        <time>2021-06-26T10:00:58Z</time>
      </trkpt>
      <trkpt lat="44.81776" lon="5.94913">
        <ele>952.6</ele>
        <time>2021-06-26T10:01:02Z</time>
      </trkpt>
      <trkpt lat="44.81782" lon="5.94899">
        <ele>953.6</ele>
        <time>2021-06-26T10:01:05Z</time>
      </trkpt>
      <trkpt lat="44.81785" lon="5.9489">
        <ele>954.2</ele>
        <time>2021-06-26T10:01:07Z</time>
      </trkpt>
      <trkpt lat="44.81792" lon="5.94879">
        <ele>954.8</ele>
        <time>2021-06-26T10:01:10Z</time>
      </trkpt>
      <trkpt lat="44.81799" lon="5.94875">
        <ele>955.4</ele>
        <time>2021-06-26T10:01:12Z</time>
      </trkpt>
      <trkpt lat="44.8181" lon="5.94875">
        <ele>956</ele>
        <time>2021-06-26T10:01:15Z</time>
      </trkpt>
      <trkpt lat="44.81813" lon="5.94877">
        <ele>956.2</ele>
        <time>2021-06-26T10:01:16Z</time>
      </trkpt>
      <trkpt lat="44.81825" lon="5.94893">
        <ele>957.2</ele>
        <time>2021-06-26T10:01:21Z</time>
      </trkpt>
      <trkpt lat="44.81833" lon="5.94913">
        <ele>958.6</ele>
        <time>2021-06-26T10:01:26Z</time>
      </trkpt>
      <trkpt lat="44.81836" lon="5.9492">
        <ele>959</ele>
        <time>2021-06-26T10:01:28Z</time>
      </trkpt>
      <trkpt lat="44.81846" lon="5.94931">
        <ele>959.8</ele>
        <time>2021-06-26T10:01:32Z</time>
      </trkpt>
      <trkpt lat="44.81853" lon="5.94937">
        <ele>960.2</ele>
        <time>2021-06-26T10:01:34Z</time>
      </trkpt>
      <trkpt lat="44.81862" lon="5.94941">
        <ele>961.2</ele>
        <time>2021-06-26T10:01:37Z</time>
      </trkpt>
      <trkpt lat="44.81879" lon="5.94946">
        <ele>962</ele>
        <time>2021-06-26T10:01:42Z</time>
      </trkpt>
      <trkpt lat="44.81883" lon="5.94947">
        <ele>962.2</ele>
        <time>2021-06-26T10:01:43Z</time>
      </trkpt>
      <trkpt lat="44.81904" lon="5.94948">
        <ele>963</ele>
        <time>2021-06-26T10:01:48Z</time>
      </trkpt>
      <trkpt lat="44.81909" lon="5.94946">
        <ele>963</ele>
        <time>2021-06-26T10:01:49Z</time>
      </trkpt>
      <trkpt lat="44.81914" lon="5.94944">
        <ele>963</ele>
        <time>2021-06-26T10:01:50Z</time>
      </trkpt>
      <trkpt lat="44.81924" lon="5.94938">
        <ele>963</ele>
        <time>2021-06-26T10:01:52Z</time>
      </trkpt>
      <trkpt lat="44.81933" lon="5.94927">
        <ele>963</ele>
        <time>2021-06-26T10:01:54Z</time>
      </trkpt>
      <trkpt lat="44.81942" lon="5.94913">
        <ele>963</ele>
        <time>2021-06-26T10:01:56Z</time>
      </trkpt>
      <trkpt lat="44.81956" lon="5.9489">
        <ele>962.8</ele>
        <time>2021-06-26T10:01:59Z</time>
      </trkpt>
      <trkpt lat="44.81968" lon="5.94876">
        <ele>962</ele>
        <time>2021-06-26T10:02:01Z</time>
      </trkpt>
      <trkpt lat="44.81973" lon="5.94874">
        <ele>962</ele>
        <time>2021-06-26T10:02:02Z</time>
      </trkpt>
      <trkpt lat="44.81981" lon="5.94873">
        <ele>961.4</ele>
        <time>2021-06-26T10:02:03Z</time>
      </trkpt>
      <trkpt lat="44.81997" lon="5.94877">
        <ele>960.8</ele>
        <time>2021-06-26T10:02:05Z</time>
      </trkpt>
      <trkpt lat="44.82015" lon="5.94889">
        <ele>959.6</ele>
        <time>2021-06-26T10:02:07Z</time>
      </trkpt>
      <trkpt lat="44.82033" lon="5.94905">
        <ele>958.8</ele>
        <time>2021-06-26T10:02:09Z</time>
      </trkpt>
      <trkpt lat="44.82042" lon="5.94914">
        <ele>958.2</ele>
        <time>2021-06-26T10:02:10Z</time>
      </trkpt>
      <trkpt lat="44.82059" lon="5.94934">
        <ele>956.8</ele>
        <time>2021-06-26T10:02:12Z</time>
      </trkpt>
      <trkpt lat="44.82068" lon="5.94944">
        <ele>956.4</ele>
        <time>2021-06-26T10:02:13Z</time>
      </trkpt>
      <trkpt lat="44.82076" lon="5.94955">
        <ele>955.6</ele>
        <time>2021-06-26T10:02:14Z</time>
      </trkpt>
      <trkpt lat="44.82099" lon="5.94989">
        <ele>953.6</ele>
        <time>2021-06-26T10:02:17Z</time>
      </trkpt>
      <trkpt lat="44.82104" lon="5.95">
        <ele>953.2</ele>
        <time>2021-06-26T10:02:18Z</time>
      </trkpt>
      <trkpt lat="44.82114" lon="5.95023">
        <ele>952.4</ele>
        <time>2021-06-26T10:02:20Z</time>
      </trkpt>
      <trkpt lat="44.82122" lon="5.95044">
        <ele>952.2</ele>
        <time>2021-06-26T10:02:22Z</time>
      </trkpt>
      <trkpt lat="44.82136" lon="5.95086">
        <ele>953.6</ele>
        <time>2021-06-26T10:02:27Z</time>
      </trkpt>
      <trkpt lat="44.82138" lon="5.95093">
        <ele>954.6</ele>
        <time>2021-06-26T10:02:28Z</time>
      </trkpt>
      <trkpt lat="44.82139" lon="5.95099">
        <ele>955.2</ele>
        <time>2021-06-26T10:02:29Z</time>
      </trkpt>
      <trkpt lat="44.82143" lon="5.95112">
        <ele>955.8</ele>
        <time>2021-06-26T10:02:31Z</time>
      </trkpt>
      <trkpt lat="44.82146" lon="5.95124">
        <ele>956.6</ele>
        <time>2021-06-26T10:02:33Z</time>
      </trkpt>
      <trkpt lat="44.82151" lon="5.95141">
        <ele>957.6</ele>
        <time>2021-06-26T10:02:36Z</time>
      </trkpt>
      <trkpt lat="44.82154" lon="5.95153">
        <ele>958.2</ele>
        <time>2021-06-26T10:02:38Z</time>
      </trkpt>
      <trkpt lat="44.82157" lon="5.95164">
        <ele>959</ele>
        <time>2021-06-26T10:02:40Z</time>
      </trkpt>
      <trkpt lat="44.82162" lon="5.95187">
        <ele>960.2</ele>
        <time>2021-06-26T10:02:44Z</time>
      </trkpt>
      <trkpt lat="44.82164" lon="5.95192">
        <ele>960.6</ele>
        <time>2021-06-26T10:02:45Z</time>
      </trkpt>
      <trkpt lat="44.82165" lon="5.95198">
        <ele>961</ele>
        <time>2021-06-26T10:02:46Z</time>
      </trkpt>
      <trkpt lat="44.82166" lon="5.95203">
        <ele>962</ele>
        <time>2021-06-26T10:02:47Z</time>
      </trkpt>
      <trkpt lat="44.82169" lon="5.95228">
        <ele>963.2</ele>
        <time>2021-06-26T10:02:51Z</time>
      </trkpt>
      <trkpt lat="44.8217" lon="5.95233">
        <ele>963.4</ele>
        <time>2021-06-26T10:02:52Z</time>
      </trkpt>
      <trkpt lat="44.82174" lon="5.95253">
        <ele>963.8</ele>
        <time>2021-06-26T10:02:55Z</time>
      </trkpt>
      <trkpt lat="44.82176" lon="5.95265">
        <ele>964.2</ele>
        <time>2021-06-26T10:02:57Z</time>
      </trkpt>
      <trkpt lat="44.82177" lon="5.95273">
        <ele>964.4</ele>
        <time>2021-06-26T10:02:58Z</time>
      </trkpt>
      <trkpt lat="44.82179" lon="5.95286">
        <ele>964.8</ele>
        <time>2021-06-26T10:03:00Z</time>
      </trkpt>
      <trkpt lat="44.82179" lon="5.95307">
        <ele>965.6</ele>
        <time>2021-06-26T10:03:03Z</time>
      </trkpt>
      <trkpt lat="44.82178" lon="5.95314">
        <ele>965.8</ele>
        <time>2021-06-26T10:03:04Z</time>
      </trkpt>
      <trkpt lat="44.82177" lon="5.95322">
        <ele>966.2</ele>
        <time>2021-06-26T10:03:05Z</time>
      </trkpt>
      <trkpt lat="44.82178" lon="5.95342">
        <ele>966.8</ele>
        <time>2021-06-26T10:03:08Z</time>
      </trkpt>
      <trkpt lat="44.82179" lon="5.95348">
        <ele>967</ele>
        <time>2021-06-26T10:03:09Z</time>
      </trkpt>
      <trkpt lat="44.82183" lon="5.95355">
        <ele>967</ele>
        <time>2021-06-26T10:03:10Z</time>
      </trkpt>
      <trkpt lat="44.82191" lon="5.95373">
        <ele>967.6</ele>
        <time>2021-06-26T10:03:13Z</time>
      </trkpt>
      <trkpt lat="44.82195" lon="5.95385">
        <ele>967.6</ele>
        <time>2021-06-26T10:03:15Z</time>
      </trkpt>
      <trkpt lat="44.82197" lon="5.95391">
        <ele>967.6</ele>
        <time>2021-06-26T10:03:16Z</time>
      </trkpt>
      <trkpt lat="44.82199" lon="5.95397">
        <ele>967.6</ele>
        <time>2021-06-26T10:03:17Z</time>
      </trkpt>
      <trkpt lat="44.822" lon="5.95403">
        <ele>967.6</ele>
        <time>2021-06-26T10:03:18Z</time>
      </trkpt>
      <trkpt lat="44.82202" lon="5.9541">
        <ele>967.6</ele>
        <time>2021-06-26T10:03:19Z</time>
      </trkpt>
      <trkpt lat="44.82207" lon="5.95435">
        <ele>968</ele>
        <time>2021-06-26T10:03:23Z</time>
      </trkpt>
      <trkpt lat="44.82212" lon="5.95452">
        <ele>968</ele>
        <time>2021-06-26T10:03:26Z</time>
      </trkpt>
      <trkpt lat="44.82217" lon="5.95463">
        <ele>968</ele>
        <time>2021-06-26T10:03:28Z</time>
      </trkpt>
      <trkpt lat="44.8222" lon="5.95468">
        <ele>968.2</ele>
        <time>2021-06-26T10:03:29Z</time>
      </trkpt>
      <trkpt lat="44.82222" lon="5.95474">
        <ele>968.2</ele>
        <time>2021-06-26T10:03:30Z</time>
      </trkpt>
      <trkpt lat="44.82231" lon="5.955">
        <ele>968.8</ele>
        <time>2021-06-26T10:03:34Z</time>
      </trkpt>
      <trkpt lat="44.82237" lon="5.95512">
        <ele>969.2</ele>
        <time>2021-06-26T10:03:36Z</time>
      </trkpt>
      <trkpt lat="44.82252" lon="5.95536">
        <ele>969.4</ele>
        <time>2021-06-26T10:03:40Z</time>
      </trkpt>
      <trkpt lat="44.82279" lon="5.95584">
        <ele>968.8</ele>
        <time>2021-06-26T10:03:47Z</time>
      </trkpt>
      <trkpt lat="44.82285" lon="5.95601">
        <ele>968.6</ele>
        <time>2021-06-26T10:03:49Z</time>
      </trkpt>
      <trkpt lat="44.82292" lon="5.95629">
        <ele>968.6</ele>
        <time>2021-06-26T10:03:52Z</time>
      </trkpt>
      <trkpt lat="44.82294" lon="5.95637">
        <ele>968.4</ele>
        <time>2021-06-26T10:03:53Z</time>
      </trkpt>
      <trkpt lat="44.823" lon="5.95653">
        <ele>968.4</ele>
        <time>2021-06-26T10:03:55Z</time>
      </trkpt>
      <trkpt lat="44.82305" lon="5.95668">
        <ele>968.4</ele>
        <time>2021-06-26T10:03:57Z</time>
      </trkpt>
      <trkpt lat="44.8232" lon="5.95703">
        <ele>968.8</ele>
        <time>2021-06-26T10:04:02Z</time>
      </trkpt>
      <trkpt lat="44.82323" lon="5.95718">
        <ele>968.8</ele>
        <time>2021-06-26T10:04:04Z</time>
      </trkpt>
      <trkpt lat="44.82323" lon="5.95747">
        <ele>969.2</ele>
        <time>2021-06-26T10:04:08Z</time>
      </trkpt>
      <trkpt lat="44.82325" lon="5.95754">
        <ele>969.4</ele>
        <time>2021-06-26T10:04:09Z</time>
      </trkpt>
      <trkpt lat="44.82327" lon="5.95761">
        <ele>969.6</ele>
        <time>2021-06-26T10:04:10Z</time>
      </trkpt>
      <trkpt lat="44.8233" lon="5.95767">
        <ele>969.8</ele>
        <time>2021-06-26T10:04:11Z</time>
      </trkpt>
      <trkpt lat="44.82348" lon="5.95787">
        <ele>971</ele>
        <time>2021-06-26T10:04:15Z</time>
      </trkpt>
      <trkpt lat="44.82356" lon="5.958">
        <ele>971.2</ele>
        <time>2021-06-26T10:04:17Z</time>
      </trkpt>
      <trkpt lat="44.82363" lon="5.95814">
        <ele>971.2</ele>
        <time>2021-06-26T10:04:19Z</time>
      </trkpt>
      <trkpt lat="44.82366" lon="5.9582">
        <ele>971.2</ele>
        <time>2021-06-26T10:04:20Z</time>
      </trkpt>
      <trkpt lat="44.82369" lon="5.95826">
        <ele>971.2</ele>
        <time>2021-06-26T10:04:21Z</time>
      </trkpt>
      <trkpt lat="44.8238" lon="5.95849">
        <ele>971</ele>
        <time>2021-06-26T10:04:24Z</time>
      </trkpt>
      <trkpt lat="44.82383" lon="5.95856">
        <ele>970.8</ele>
        <time>2021-06-26T10:04:25Z</time>
      </trkpt>
      <trkpt lat="44.82415" lon="5.95919">
        <ele>970</ele>
        <time>2021-06-26T10:04:33Z</time>
      </trkpt>
      <trkpt lat="44.82418" lon="5.95927">
        <ele>970</ele>
        <time>2021-06-26T10:04:34Z</time>
      </trkpt>
      <trkpt lat="44.82436" lon="5.95968">
        <ele>970</ele>
        <time>2021-06-26T10:04:39Z</time>
      </trkpt>
      <trkpt lat="44.82439" lon="5.95976">
        <ele>970</ele>
        <time>2021-06-26T10:04:40Z</time>
      </trkpt>
      <trkpt lat="44.82442" lon="5.95984">
        <ele>969.8</ele>
        <time>2021-06-26T10:04:41Z</time>
      </trkpt>
      <trkpt lat="44.82455" lon="5.96017">
        <ele>969.8</ele>
        <time>2021-06-26T10:04:45Z</time>
      </trkpt>
      <trkpt lat="44.82463" lon="5.96032">
        <ele>969.6</ele>
        <time>2021-06-26T10:04:47Z</time>
      </trkpt>
      <trkpt lat="44.82475" lon="5.96055">
        <ele>969.6</ele>
        <time>2021-06-26T10:04:50Z</time>
      </trkpt>
      <trkpt lat="44.82485" lon="5.96078">
        <ele>969.4</ele>
        <time>2021-06-26T10:04:53Z</time>
      </trkpt>
      <trkpt lat="44.8249" lon="5.96094">
        <ele>969.4</ele>
        <time>2021-06-26T10:04:55Z</time>
      </trkpt>
      <trkpt lat="44.82501" lon="5.96128">
        <ele>969.6</ele>
        <time>2021-06-26T10:04:59Z</time>
      </trkpt>
      <trkpt lat="44.82506" lon="5.96142">
        <ele>969.6</ele>
        <time>2021-06-26T10:05:01Z</time>
      </trkpt>
      <trkpt lat="44.82533" lon="5.9619">
        <ele>970.4</ele>
        <time>2021-06-26T10:05:08Z</time>
      </trkpt>
      <trkpt lat="44.82542" lon="5.96209">
        <ele>971</ele>
        <time>2021-06-26T10:05:11Z</time>
      </trkpt>
      <trkpt lat="44.82551" lon="5.96231">
        <ele>971.8</ele>
        <time>2021-06-26T10:05:14Z</time>
      </trkpt>
      <trkpt lat="44.82556" lon="5.96243">
        <ele>972.2</ele>
        <time>2021-06-26T10:05:16Z</time>
      </trkpt>
      <trkpt lat="44.82561" lon="5.96259">
        <ele>972.4</ele>
        <time>2021-06-26T10:05:18Z</time>
      </trkpt>
      <trkpt lat="44.82568" lon="5.96278">
        <ele>972.8</ele>
        <time>2021-06-26T10:05:21Z</time>
      </trkpt>
      <trkpt lat="44.82573" lon="5.96293">
        <ele>973.2</ele>
        <time>2021-06-26T10:05:23Z</time>
      </trkpt>
      <trkpt lat="44.82579" lon="5.96305">
        <ele>973.4</ele>
        <time>2021-06-26T10:05:25Z</time>
      </trkpt>
      <trkpt lat="44.82585" lon="5.96315">
        <ele>974</ele>
        <time>2021-06-26T10:05:27Z</time>
      </trkpt>
      <trkpt lat="44.8259" lon="5.96322">
        <ele>974.2</ele>
        <time>2021-06-26T10:05:28Z</time>
      </trkpt>
      <trkpt lat="44.82614" lon="5.96358">
        <ele>975.2</ele>
        <time>2021-06-26T10:05:35Z</time>
      </trkpt>
      <trkpt lat="44.82617" lon="5.96362">
        <ele>975.4</ele>
        <time>2021-06-26T10:05:36Z</time>
      </trkpt>
      <trkpt lat="44.82632" lon="5.96389">
        <ele>976.2</ele>
        <time>2021-06-26T10:05:41Z</time>
      </trkpt>
      <trkpt lat="44.82635" lon="5.96396">
        <ele>976.4</ele>
        <time>2021-06-26T10:05:42Z</time>
      </trkpt>
      <trkpt lat="44.8264" lon="5.96407">
        <ele>976.6</ele>
        <time>2021-06-26T10:05:44Z</time>
      </trkpt>
      <trkpt lat="44.82648" lon="5.96444">
        <ele>977</ele>
        <time>2021-06-26T10:05:50Z</time>
      </trkpt>
      <trkpt lat="44.8265" lon="5.96451">
        <ele>977</ele>
        <time>2021-06-26T10:05:51Z</time>
      </trkpt>
      <trkpt lat="44.82651" lon="5.96463">
        <ele>977.2</ele>
        <time>2021-06-26T10:05:53Z</time>
      </trkpt>
      <trkpt lat="44.82653" lon="5.96469">
        <ele>977.2</ele>
        <time>2021-06-26T10:05:54Z</time>
      </trkpt>
      <trkpt lat="44.82654" lon="5.96475">
        <ele>977.4</ele>
        <time>2021-06-26T10:05:55Z</time>
      </trkpt>
      <trkpt lat="44.82662" lon="5.96497">
        <ele>978.2</ele>
        <time>2021-06-26T10:05:59Z</time>
      </trkpt>
      <trkpt lat="44.82665" lon="5.96502">
        <ele>978.4</ele>
        <time>2021-06-26T10:06:00Z</time>
      </trkpt>
      <trkpt lat="44.82668" lon="5.96508">
        <ele>978.6</ele>
        <time>2021-06-26T10:06:01Z</time>
      </trkpt>
      <trkpt lat="44.8267" lon="5.96521">
        <ele>979.6</ele>
        <time>2021-06-26T10:06:03Z</time>
      </trkpt>
      <trkpt lat="44.82674" lon="5.9654">
        <ele>980.2</ele>
        <time>2021-06-26T10:06:06Z</time>
      </trkpt>
      <trkpt lat="44.82676" lon="5.96546">
        <ele>980.6</ele>
        <time>2021-06-26T10:06:07Z</time>
      </trkpt>
      <trkpt lat="44.8268" lon="5.96551">
        <ele>980.6</ele>
        <time>2021-06-26T10:06:08Z</time>
      </trkpt>
      <trkpt lat="44.8269" lon="5.96559">
        <ele>981</ele>
        <time>2021-06-26T10:06:10Z</time>
      </trkpt>
      <trkpt lat="44.82696" lon="5.9656">
        <ele>981.2</ele>
        <time>2021-06-26T10:06:11Z</time>
      </trkpt>
      <trkpt lat="44.82701" lon="5.96561">
        <ele>981.4</ele>
        <time>2021-06-26T10:06:12Z</time>
      </trkpt>
      <trkpt lat="44.82712" lon="5.96562">
        <ele>981.4</ele>
        <time>2021-06-26T10:06:14Z</time>
      </trkpt>
      <trkpt lat="44.82724" lon="5.96565">
        <ele>981.4</ele>
        <time>2021-06-26T10:06:16Z</time>
      </trkpt>
      <trkpt lat="44.82762" lon="5.96587">
        <ele>981.2</ele>
        <time>2021-06-26T10:06:22Z</time>
      </trkpt>
      <trkpt lat="44.82795" lon="5.96608">
        <ele>981.2</ele>
        <time>2021-06-26T10:06:28Z</time>
      </trkpt>
      <trkpt lat="44.82799" lon="5.96612">
        <ele>981.2</ele>
        <time>2021-06-26T10:06:29Z</time>
      </trkpt>
      <trkpt lat="44.82808" lon="5.96619">
        <ele>981.2</ele>
        <time>2021-06-26T10:06:31Z</time>
      </trkpt>
      <trkpt lat="44.82829" lon="5.96629">
        <ele>981.4</ele>
        <time>2021-06-26T10:06:35Z</time>
      </trkpt>
      <trkpt lat="44.82859" lon="5.96636">
        <ele>982</ele>
        <time>2021-06-26T10:06:40Z</time>
      </trkpt>
      <trkpt lat="44.82866" lon="5.96636">
        <ele>982</ele>
        <time>2021-06-26T10:06:41Z</time>
      </trkpt>
      <trkpt lat="44.82873" lon="5.96635">
        <ele>982</ele>
        <time>2021-06-26T10:06:42Z</time>
      </trkpt>
      <trkpt lat="44.82895" lon="5.96632">
        <ele>982</ele>
        <time>2021-06-26T10:06:45Z</time>
      </trkpt>
      <trkpt lat="44.82902" lon="5.96633">
        <ele>981.8</ele>
        <time>2021-06-26T10:06:46Z</time>
      </trkpt>
      <trkpt lat="44.82908" lon="5.96637">
        <ele>981.4</ele>
        <time>2021-06-26T10:06:47Z</time>
      </trkpt>
      <trkpt lat="44.8292" lon="5.9665">
        <ele>981</ele>
        <time>2021-06-26T10:06:49Z</time>
      </trkpt>
      <trkpt lat="44.82939" lon="5.96672">
        <ele>980.6</ele>
        <time>2021-06-26T10:06:52Z</time>
      </trkpt>
      <trkpt lat="44.82946" lon="5.96678">
        <ele>980.4</ele>
        <time>2021-06-26T10:06:53Z</time>
      </trkpt>
      <trkpt lat="44.82954" lon="5.96684">
        <ele>980.4</ele>
        <time>2021-06-26T10:06:54Z</time>
      </trkpt>
      <trkpt lat="44.83" lon="5.96711">
        <ele>978.8</ele>
        <time>2021-06-26T10:07:00Z</time>
      </trkpt>
      <trkpt lat="44.83019" lon="5.96723">
        <ele>977.6</ele>
        <time>2021-06-26T10:07:02Z</time>
      </trkpt>
      <trkpt lat="44.83025" lon="5.96726">
        <ele>977.4</ele>
        <time>2021-06-26T10:07:03Z</time>
      </trkpt>
      <trkpt lat="44.8304" lon="5.9672">
        <ele>976.6</ele>
        <time>2021-06-26T10:07:05Z</time>
      </trkpt>
      <trkpt lat="44.8305" lon="5.96702">
        <ele>976.2</ele>
        <time>2021-06-26T10:07:07Z</time>
      </trkpt>
      <trkpt lat="44.83057" lon="5.96662">
        <ele>975</ele>
        <time>2021-06-26T10:07:11Z</time>
      </trkpt>
      <trkpt lat="44.83057" lon="5.96653">
        <ele>974.8</ele>
        <time>2021-06-26T10:07:12Z</time>
      </trkpt>
      <trkpt lat="44.83056" lon="5.96643">
        <ele>974.8</ele>
        <time>2021-06-26T10:07:13Z</time>
      </trkpt>
      <trkpt lat="44.8305" lon="5.96626">
        <ele>974.2</ele>
        <time>2021-06-26T10:07:15Z</time>
      </trkpt>
      <trkpt lat="44.83047" lon="5.96617">
        <ele>974</ele>
        <time>2021-06-26T10:07:16Z</time>
      </trkpt>
      <trkpt lat="44.83031" lon="5.96592">
        <ele>973.8</ele>
        <time>2021-06-26T10:07:20Z</time>
      </trkpt>
      <trkpt lat="44.83027" lon="5.96587">
        <ele>974.2</ele>
        <time>2021-06-26T10:07:21Z</time>
      </trkpt>
      <trkpt lat="44.83016" lon="5.96574">
        <ele>974.6</ele>
        <time>2021-06-26T10:07:24Z</time>
      </trkpt>
      <trkpt lat="44.83012" lon="5.96561">
        <ele>975</ele>
        <time>2021-06-26T10:07:26Z</time>
      </trkpt>
      <trkpt lat="44.83017" lon="5.96554">
        <ele>975.4</ele>
        <time>2021-06-26T10:07:28Z</time>
      </trkpt>
      <trkpt lat="44.8302" lon="5.96555">
        <ele>976</ele>
        <time>2021-06-26T10:07:29Z</time>
      </trkpt>
      <trkpt lat="44.83026" lon="5.9656">
        <ele>976.6</ele>
        <time>2021-06-26T10:07:31Z</time>
      </trkpt>
      <trkpt lat="44.83032" lon="5.96566">
        <ele>977.6</ele>
        <time>2021-06-26T10:07:33Z</time>
      </trkpt>
      <trkpt lat="44.8304" lon="5.96573">
        <ele>979</ele>
        <time>2021-06-26T10:07:36Z</time>
      </trkpt>
      <trkpt lat="44.83045" lon="5.96576">
        <ele>979.8</ele>
        <time>2021-06-26T10:07:38Z</time>
      </trkpt>
      <trkpt lat="44.83049" lon="5.96581">
        <ele>980.2</ele>
        <time>2021-06-26T10:07:40Z</time>
      </trkpt>
      <trkpt lat="44.83057" lon="5.96587">
        <ele>981.4</ele>
        <time>2021-06-26T10:07:44Z</time>
      </trkpt>
      <trkpt lat="44.83063" lon="5.96592">
        <ele>982.4</ele>
        <time>2021-06-26T10:07:47Z</time>
      </trkpt>
      <trkpt lat="44.83067" lon="5.96596">
        <ele>982.8</ele>
        <time>2021-06-26T10:07:49Z</time>
      </trkpt>
      <trkpt lat="44.83073" lon="5.96601">
        <ele>983.4</ele>
        <time>2021-06-26T10:07:52Z</time>
      </trkpt>
      <trkpt lat="44.83083" lon="5.96609">
        <ele>984.6</ele>
        <time>2021-06-26T10:07:57Z</time>
      </trkpt>
      <trkpt lat="44.83088" lon="5.96611">
        <ele>985.6</ele>
        <time>2021-06-26T10:07:59Z</time>
      </trkpt>
      <trkpt lat="44.83101" lon="5.96619">
        <ele>987</ele>
        <time>2021-06-26T10:08:05Z</time>
      </trkpt>
      <trkpt lat="44.83103" lon="5.96619">
        <ele>987.6</ele>
        <time>2021-06-26T10:08:06Z</time>
      </trkpt>
      <trkpt lat="44.8311" lon="5.9662">
        <ele>988.2</ele>
        <time>2021-06-26T10:08:09Z</time>
      </trkpt>
      <trkpt lat="44.83123" lon="5.96617">
        <ele>989.2</ele>
        <time>2021-06-26T10:08:14Z</time>
      </trkpt>
      <trkpt lat="44.83133" lon="5.96616">
        <ele>990.2</ele>
        <time>2021-06-26T10:08:19Z</time>
      </trkpt>
      <trkpt lat="44.83135" lon="5.96617">
        <ele>990.4</ele>
        <time>2021-06-26T10:08:20Z</time>
      </trkpt>
      <trkpt lat="44.83141" lon="5.96621">
        <ele>991.2</ele>
        <time>2021-06-26T10:08:23Z</time>
      </trkpt>
      <trkpt lat="44.83147" lon="5.96628">
        <ele>992</ele>
        <time>2021-06-26T10:08:26Z</time>
      </trkpt>
      <trkpt lat="44.83148" lon="5.96631">
        <ele>992.2</ele>
        <time>2021-06-26T10:08:27Z</time>
      </trkpt>
      <trkpt lat="44.83152" lon="5.96643">
        <ele>993.2</ele>
        <time>2021-06-26T10:08:32Z</time>
      </trkpt>
      <trkpt lat="44.83154" lon="5.9665">
        <ele>994</ele>
        <time>2021-06-26T10:08:34Z</time>
      </trkpt>
      <trkpt lat="44.83156" lon="5.96656">
        <ele>994.6</ele>
        <time>2021-06-26T10:08:36Z</time>
      </trkpt>
      <trkpt lat="44.8316" lon="5.96666">
        <ele>995.6</ele>
        <time>2021-06-26T10:08:40Z</time>
      </trkpt>
      <trkpt lat="44.83161" lon="5.96668">
        <ele>996</ele>
        <time>2021-06-26T10:08:41Z</time>
      </trkpt>
      <trkpt lat="44.83166" lon="5.96679">
        <ele>996.8</ele>
        <time>2021-06-26T10:08:45Z</time>
      </trkpt>
      <trkpt lat="44.83169" lon="5.96688">
        <ele>997.4</ele>
        <time>2021-06-26T10:08:48Z</time>
      </trkpt>
      <trkpt lat="44.83171" lon="5.96691">
        <ele>997.6</ele>
        <time>2021-06-26T10:08:49Z</time>
      </trkpt>
      <trkpt lat="44.83175" lon="5.96703">
        <ele>998.6</ele>
        <time>2021-06-26T10:08:53Z</time>
      </trkpt>
      <trkpt lat="44.8318" lon="5.96717">
        <ele>999.8</ele>
        <time>2021-06-26T10:08:58Z</time>
      </trkpt>
      <trkpt lat="44.8318" lon="5.96719">
        <ele>1000</ele>
        <time>2021-06-26T10:08:59Z</time>
      </trkpt>
      <trkpt lat="44.83182" lon="5.96728">
        <ele>1000.8</ele>
        <time>2021-06-26T10:09:02Z</time>
      </trkpt>
      <trkpt lat="44.83186" lon="5.96739">
        <ele>1002.2</ele>
        <time>2021-06-26T10:09:06Z</time>
      </trkpt>
      <trkpt lat="44.83186" lon="5.96742">
        <ele>1002.2</ele>
        <time>2021-06-26T10:09:07Z</time>
      </trkpt>
      <trkpt lat="44.83191" lon="5.96756">
        <ele>1003</ele>
        <time>2021-06-26T10:09:12Z</time>
      </trkpt>
      <trkpt lat="44.83193" lon="5.96767">
        <ele>1003.8</ele>
        <time>2021-06-26T10:09:15Z</time>
      </trkpt>
      <trkpt lat="44.83194" lon="5.96772">
        <ele>1004.4</ele>
        <time>2021-06-26T10:09:17Z</time>
      </trkpt>
      <trkpt lat="44.83196" lon="5.96785">
        <ele>1005.4</ele>
        <time>2021-06-26T10:09:21Z</time>
      </trkpt>
      <trkpt lat="44.83196" lon="5.96792">
        <ele>1006.4</ele>
        <time>2021-06-26T10:09:23Z</time>
      </trkpt>
      <trkpt lat="44.83196" lon="5.96795">
        <ele>1006.6</ele>
        <time>2021-06-26T10:09:24Z</time>
      </trkpt>
      <trkpt lat="44.83196" lon="5.96801">
        <ele>1007.4</ele>
        <time>2021-06-26T10:09:26Z</time>
      </trkpt>
      <trkpt lat="44.83195" lon="5.96807">
        <ele>1007.6</ele>
        <time>2021-06-26T10:09:28Z</time>
      </trkpt>
      <trkpt lat="44.83193" lon="5.96823">
        <ele>1008.8</ele>
        <time>2021-06-26T10:09:33Z</time>
      </trkpt>
      <trkpt lat="44.8319" lon="5.96838">
        <ele>1010</ele>
        <time>2021-06-26T10:09:38Z</time>
      </trkpt>
      <trkpt lat="44.83189" lon="5.96845">
        <ele>1010.4</ele>
        <time>2021-06-26T10:09:40Z</time>
      </trkpt>
      <trkpt lat="44.83187" lon="5.96853">
        <ele>1011.2</ele>
        <time>2021-06-26T10:09:43Z</time>
      </trkpt>
      <trkpt lat="44.83185" lon="5.96862">
        <ele>1011.8</ele>
        <time>2021-06-26T10:09:46Z</time>
      </trkpt>
      <trkpt lat="44.83183" lon="5.96867">
        <ele>1012.4</ele>
        <time>2021-06-26T10:09:48Z</time>
      </trkpt>
      <trkpt lat="44.83181" lon="5.96876">
        <ele>1012.8</ele>
        <time>2021-06-26T10:09:51Z</time>
      </trkpt>
      <trkpt lat="44.83179" lon="5.96882">
        <ele>1013.6</ele>
        <time>2021-06-26T10:09:53Z</time>
      </trkpt>
      <trkpt lat="44.83177" lon="5.96893">
        <ele>1014.6</ele>
        <time>2021-06-26T10:09:57Z</time>
      </trkpt>
      <trkpt lat="44.83176" lon="5.96897">
        <ele>1014.8</ele>
        <time>2021-06-26T10:09:58Z</time>
      </trkpt>
      <trkpt lat="44.83174" lon="5.96908">
        <ele>1016</ele>
        <time>2021-06-26T10:10:02Z</time>
      </trkpt>
      <trkpt lat="44.83173" lon="5.96918">
        <ele>1017</ele>
        <time>2021-06-26T10:10:05Z</time>
      </trkpt>
      <trkpt lat="44.83173" lon="5.9692">
        <ele>1017.4</ele>
        <time>2021-06-26T10:10:06Z</time>
      </trkpt>
      <trkpt lat="44.83172" lon="5.96934">
        <ele>1018.4</ele>
        <time>2021-06-26T10:10:11Z</time>
      </trkpt>
      <trkpt lat="44.83171" lon="5.96941">
        <ele>1018.6</ele>
        <time>2021-06-26T10:10:13Z</time>
      </trkpt>
      <trkpt lat="44.83171" lon="5.96949">
        <ele>1019.4</ele>
        <time>2021-06-26T10:10:16Z</time>
      </trkpt>
      <trkpt lat="44.8317" lon="5.96955">
        <ele>1020</ele>
        <time>2021-06-26T10:10:18Z</time>
      </trkpt>
      <trkpt lat="44.8317" lon="5.96958">
        <ele>1020.2</ele>
        <time>2021-06-26T10:10:19Z</time>
      </trkpt>
      <trkpt lat="44.8317" lon="5.96961">
        <ele>1020.6</ele>
        <time>2021-06-26T10:10:20Z</time>
      </trkpt>
      <trkpt lat="44.8317" lon="5.96976">
        <ele>1021.6</ele>
        <time>2021-06-26T10:10:25Z</time>
      </trkpt>
      <trkpt lat="44.8317" lon="5.96979">
        <ele>1021.8</ele>
        <time>2021-06-26T10:10:26Z</time>
      </trkpt>
      <trkpt lat="44.8317" lon="5.96985">
        <ele>1022.6</ele>
        <time>2021-06-26T10:10:28Z</time>
      </trkpt>
      <trkpt lat="44.83171" lon="5.96998">
        <ele>1023.4</ele>
        <time>2021-06-26T10:10:32Z</time>
      </trkpt>
      <trkpt lat="44.83171" lon="5.97004">
        <ele>1023.8</ele>
        <time>2021-06-26T10:10:34Z</time>
      </trkpt>
      <trkpt lat="44.83171" lon="5.97016">
        <ele>1024.8</ele>
        <time>2021-06-26T10:10:38Z</time>
      </trkpt>
      <trkpt lat="44.83172" lon="5.97025">
        <ele>1026</ele>
        <time>2021-06-26T10:10:41Z</time>
      </trkpt>
      <trkpt lat="44.83173" lon="5.97039">
        <ele>1027</ele>
        <time>2021-06-26T10:10:46Z</time>
      </trkpt>
      <trkpt lat="44.83173" lon="5.97045">
        <ele>1027.4</ele>
        <time>2021-06-26T10:10:48Z</time>
      </trkpt>
      <trkpt lat="44.83173" lon="5.97048">
        <ele>1027.8</ele>
        <time>2021-06-26T10:10:49Z</time>
      </trkpt>
      <trkpt lat="44.83173" lon="5.97053">
        <ele>1028</ele>
        <time>2021-06-26T10:10:51Z</time>
      </trkpt>
      <trkpt lat="44.83174" lon="5.97066">
        <ele>1029</ele>
        <time>2021-06-26T10:10:55Z</time>
      </trkpt>
      <trkpt lat="44.83177" lon="5.97083">
        <ele>1030.2</ele>
        <time>2021-06-26T10:11:00Z</time>
      </trkpt>
      <trkpt lat="44.83179" lon="5.97098">
        <ele>1031.2</ele>
        <time>2021-06-26T10:11:05Z</time>
      </trkpt>
      <trkpt lat="44.8318" lon="5.97107">
        <ele>1031.6</ele>
        <time>2021-06-26T10:11:08Z</time>
      </trkpt>
      <trkpt lat="44.83181" lon="5.97116">
        <ele>1032.4</ele>
        <time>2021-06-26T10:11:11Z</time>
      </trkpt>
      <trkpt lat="44.83182" lon="5.97137">
        <ele>1033.4</ele>
        <time>2021-06-26T10:11:18Z</time>
      </trkpt>
      <trkpt lat="44.83182" lon="5.9714">
        <ele>1034</ele>
        <time>2021-06-26T10:11:19Z</time>
      </trkpt>
      <trkpt lat="44.83181" lon="5.97153">
        <ele>1034.6</ele>
        <time>2021-06-26T10:11:23Z</time>
      </trkpt>
      <trkpt lat="44.83182" lon="5.97165">
        <ele>1035.6</ele>
        <time>2021-06-26T10:11:27Z</time>
      </trkpt>
      <trkpt lat="44.83185" lon="5.97179">
        <ele>1036.8</ele>
        <time>2021-06-26T10:11:32Z</time>
      </trkpt>
      <trkpt lat="44.83185" lon="5.97182">
        <ele>1036.8</ele>
        <time>2021-06-26T10:11:33Z</time>
      </trkpt>
      <trkpt lat="44.83187" lon="5.97188">
        <ele>1037.6</ele>
        <time>2021-06-26T10:11:35Z</time>
      </trkpt>
      <trkpt lat="44.83188" lon="5.9719">
        <ele>1037.8</ele>
        <time>2021-06-26T10:11:36Z</time>
      </trkpt>
      <trkpt lat="44.83197" lon="5.97203">
        <ele>1039.2</ele>
        <time>2021-06-26T10:11:42Z</time>
      </trkpt>
      <trkpt lat="44.83199" lon="5.97204">
        <ele>1039.4</ele>
        <time>2021-06-26T10:11:43Z</time>
      </trkpt>
      <trkpt lat="44.83204" lon="5.97208">
        <ele>1040.2</ele>
        <time>2021-06-26T10:11:46Z</time>
      </trkpt>
      <trkpt lat="44.83212" lon="5.97212">
        <ele>1041.2</ele>
        <time>2021-06-26T10:11:50Z</time>
      </trkpt>
      <trkpt lat="44.83217" lon="5.97214">
        <ele>1042</ele>
        <time>2021-06-26T10:11:53Z</time>
      </trkpt>
      <trkpt lat="44.83219" lon="5.97215">
        <ele>1042.2</ele>
        <time>2021-06-26T10:11:54Z</time>
      </trkpt>
      <trkpt lat="44.83232" lon="5.97218">
        <ele>1043.4</ele>
        <time>2021-06-26T10:12:00Z</time>
      </trkpt>
      <trkpt lat="44.83234" lon="5.97218">
        <ele>1043.6</ele>
        <time>2021-06-26T10:12:01Z</time>
      </trkpt>
      <trkpt lat="44.83242" lon="5.97221">
        <ele>1044.4</ele>
        <time>2021-06-26T10:12:05Z</time>
      </trkpt>
      <trkpt lat="44.83252" lon="5.97224">
        <ele>1045.4</ele>
        <time>2021-06-26T10:12:10Z</time>
      </trkpt>
      <trkpt lat="44.83254" lon="5.97225">
        <ele>1045.6</ele>
        <time>2021-06-26T10:12:11Z</time>
      </trkpt>
      <trkpt lat="44.8326" lon="5.97228">
        <ele>1046.6</ele>
        <time>2021-06-26T10:12:14Z</time>
      </trkpt>
      <trkpt lat="44.83268" lon="5.97232">
        <ele>1047.4</ele>
        <time>2021-06-26T10:12:18Z</time>
      </trkpt>
      <trkpt lat="44.83274" lon="5.97236">
        <ele>1048</ele>
        <time>2021-06-26T10:12:21Z</time>
      </trkpt>
      <trkpt lat="44.83277" lon="5.97239">
        <ele>1048.4</ele>
        <time>2021-06-26T10:12:23Z</time>
      </trkpt>
      <trkpt lat="44.83285" lon="5.97245">
        <ele>1049.6</ele>
        <time>2021-06-26T10:12:27Z</time>
      </trkpt>
      <trkpt lat="44.83289" lon="5.9725">
        <ele>1050.4</ele>
        <time>2021-06-26T10:12:30Z</time>
      </trkpt>
      <trkpt lat="44.83291" lon="5.97252">
        <ele>1050.8</ele>
        <time>2021-06-26T10:12:31Z</time>
      </trkpt>
      <trkpt lat="44.83296" lon="5.97257">
        <ele>1051.6</ele>
        <time>2021-06-26T10:12:34Z</time>
      </trkpt>
      <trkpt lat="44.83298" lon="5.97259">
        <ele>1052</ele>
        <time>2021-06-26T10:12:35Z</time>
      </trkpt>
      <trkpt lat="44.83305" lon="5.97267">
        <ele>1052.8</ele>
        <time>2021-06-26T10:12:39Z</time>
      </trkpt>
      <trkpt lat="44.83306" lon="5.97269">
        <ele>1053.2</ele>
        <time>2021-06-26T10:12:40Z</time>
      </trkpt>
      <trkpt lat="44.83315" lon="5.97278">
        <ele>1054.4</ele>
        <time>2021-06-26T10:12:45Z</time>
      </trkpt>
      <trkpt lat="44.83319" lon="5.97283">
        <ele>1055.2</ele>
        <time>2021-06-26T10:12:48Z</time>
      </trkpt>
      <trkpt lat="44.83321" lon="5.97285">
        <ele>1055.6</ele>
        <time>2021-06-26T10:12:49Z</time>
      </trkpt>
      <trkpt lat="44.83327" lon="5.97293">
        <ele>1056.4</ele>
        <time>2021-06-26T10:12:53Z</time>
      </trkpt>
      <trkpt lat="44.83331" lon="5.97295">
        <ele>1056.8</ele>
        <time>2021-06-26T10:12:55Z</time>
      </trkpt>
      <trkpt lat="44.83335" lon="5.97298">
        <ele>1057.6</ele>
        <time>2021-06-26T10:12:57Z</time>
      </trkpt>
      <trkpt lat="44.83343" lon="5.97304">
        <ele>1058.6</ele>
        <time>2021-06-26T10:13:01Z</time>
      </trkpt>
      <trkpt lat="44.83349" lon="5.97308">
        <ele>1059.8</ele>
        <time>2021-06-26T10:13:04Z</time>
      </trkpt>
      <trkpt lat="44.83359" lon="5.97314">
        <ele>1060.8</ele>
        <time>2021-06-26T10:13:09Z</time>
      </trkpt>
      <trkpt lat="44.83363" lon="5.97316">
        <ele>1061.2</ele>
        <time>2021-06-26T10:13:11Z</time>
      </trkpt>
      <trkpt lat="44.8337" lon="5.97321">
        <ele>1061.6</ele>
        <time>2021-06-26T10:13:15Z</time>
      </trkpt>
      <trkpt lat="44.83374" lon="5.97324">
        <ele>1062</ele>
        <time>2021-06-26T10:13:17Z</time>
      </trkpt>
      <trkpt lat="44.83382" lon="5.97333">
        <ele>1063.2</ele>
        <time>2021-06-26T10:13:22Z</time>
      </trkpt>
      <trkpt lat="44.8339" lon="5.97341">
        <ele>1063.8</ele>
        <time>2021-06-26T10:13:27Z</time>
      </trkpt>
      <trkpt lat="44.83394" lon="5.97345">
        <ele>1064.2</ele>
        <time>2021-06-26T10:13:29Z</time>
      </trkpt>
      <trkpt lat="44.83401" lon="5.97352">
        <ele>1065.4</ele>
        <time>2021-06-26T10:13:33Z</time>
      </trkpt>
      <trkpt lat="44.8341" lon="5.97362">
        <ele>1066.4</ele>
        <time>2021-06-26T10:13:38Z</time>
      </trkpt>
      <trkpt lat="44.83411" lon="5.97363">
        <ele>1066.6</ele>
        <time>2021-06-26T10:13:39Z</time>
      </trkpt>
      <trkpt lat="44.8342" lon="5.97372">
        <ele>1067.6</ele>
        <time>2021-06-26T10:13:44Z</time>
      </trkpt>
      <trkpt lat="44.83428" lon="5.97379">
        <ele>1068.6</ele>
        <time>2021-06-26T10:13:48Z</time>
      </trkpt>
      <trkpt lat="44.83437" lon="5.97388">
        <ele>1069.8</ele>
        <time>2021-06-26T10:13:53Z</time>
      </trkpt>
      <trkpt lat="44.83446" lon="5.97396">
        <ele>1070.8</ele>
        <time>2021-06-26T10:13:58Z</time>
      </trkpt>
      <trkpt lat="44.8345" lon="5.97398">
        <ele>1071.6</ele>
        <time>2021-06-26T10:14:00Z</time>
      </trkpt>
      <trkpt lat="44.83455" lon="5.974">
        <ele>1071.8</ele>
        <time>2021-06-26T10:14:02Z</time>
      </trkpt>
      <trkpt lat="44.83464" lon="5.97401">
        <ele>1072.8</ele>
        <time>2021-06-26T10:14:06Z</time>
      </trkpt>
      <trkpt lat="44.83467" lon="5.974">
        <ele>1073.2</ele>
        <time>2021-06-26T10:14:07Z</time>
      </trkpt>
      <trkpt lat="44.83471" lon="5.97397">
        <ele>1073.8</ele>
        <time>2021-06-26T10:14:09Z</time>
      </trkpt>
      <trkpt lat="44.83475" lon="5.97393">
        <ele>1074.8</ele>
        <time>2021-06-26T10:14:11Z</time>
      </trkpt>
      <trkpt lat="44.83483" lon="5.97384">
        <ele>1075.8</ele>
        <time>2021-06-26T10:14:15Z</time>
      </trkpt>
      <trkpt lat="44.83489" lon="5.97373">
        <ele>1077</ele>
        <time>2021-06-26T10:14:19Z</time>
      </trkpt>
      <trkpt lat="44.83491" lon="5.97368">
        <ele>1078</ele>
        <time>2021-06-26T10:14:21Z</time>
      </trkpt>
      <trkpt lat="44.83499" lon="5.97354">
        <ele>1079</ele>
        <time>2021-06-26T10:14:26Z</time>
      </trkpt>
      <trkpt lat="44.83506" lon="5.97345">
        <ele>1080.4</ele>
        <time>2021-06-26T10:14:30Z</time>
      </trkpt>
      <trkpt lat="44.83514" lon="5.97339">
        <ele>1081.6</ele>
        <time>2021-06-26T10:14:34Z</time>
      </trkpt>
      <trkpt lat="44.83521" lon="5.97335">
        <ele>1082.4</ele>
        <time>2021-06-26T10:14:37Z</time>
      </trkpt>
      <trkpt lat="44.83525" lon="5.97333">
        <ele>1082.6</ele>
        <time>2021-06-26T10:14:39Z</time>
      </trkpt>
      <trkpt lat="44.83535" lon="5.9733">
        <ele>1083.6</ele>
        <time>2021-06-26T10:14:44Z</time>
      </trkpt>
      <trkpt lat="44.83539" lon="5.97331">
        <ele>1083.8</ele>
        <time>2021-06-26T10:14:46Z</time>
      </trkpt>
      <trkpt lat="44.83545" lon="5.97331">
        <ele>1084.6</ele>
        <time>2021-06-26T10:14:49Z</time>
      </trkpt>
      <trkpt lat="44.83557" lon="5.9733">
        <ele>1085.6</ele>
        <time>2021-06-26T10:14:55Z</time>
      </trkpt>
      <trkpt lat="44.83568" lon="5.97324">
        <ele>1086.8</ele>
        <time>2021-06-26T10:15:00Z</time>
      </trkpt>
      <trkpt lat="44.83572" lon="5.97322">
        <ele>1087.4</ele>
        <time>2021-06-26T10:15:02Z</time>
      </trkpt>
      <trkpt lat="44.83576" lon="5.9732">
        <ele>1087.8</ele>
        <time>2021-06-26T10:15:04Z</time>
      </trkpt>
      <trkpt lat="44.83586" lon="5.97316">
        <ele>1088.8</ele>
        <time>2021-06-26T10:15:09Z</time>
      </trkpt>
      <trkpt lat="44.83596" lon="5.97311">
        <ele>1089.8</ele>
        <time>2021-06-26T10:15:14Z</time>
      </trkpt>
      <trkpt lat="44.83603" lon="5.97311">
        <ele>1090.6</ele>
        <time>2021-06-26T10:15:17Z</time>
      </trkpt>
      <trkpt lat="44.83605" lon="5.9731">
        <ele>1090.8</ele>
        <time>2021-06-26T10:15:18Z</time>
      </trkpt>
      <trkpt lat="44.83613" lon="5.97309">
        <ele>1091.8</ele>
        <time>2021-06-26T10:15:22Z</time>
      </trkpt>
      <trkpt lat="44.83625" lon="5.97309">
        <ele>1093</ele>
        <time>2021-06-26T10:15:27Z</time>
      </trkpt>
      <trkpt lat="44.83636" lon="5.97314">
        <ele>1093.8</ele>
        <time>2021-06-26T10:15:32Z</time>
      </trkpt>
      <trkpt lat="44.83647" lon="5.9732">
        <ele>1094.8</ele>
        <time>2021-06-26T10:15:37Z</time>
      </trkpt>
      <trkpt lat="44.83654" lon="5.97324">
        <ele>1095.6</ele>
        <time>2021-06-26T10:15:40Z</time>
      </trkpt>
      <trkpt lat="44.83658" lon="5.97325">
        <ele>1095.8</ele>
        <time>2021-06-26T10:15:42Z</time>
      </trkpt>
      <trkpt lat="44.83662" lon="5.97327">
        <ele>1096.4</ele>
        <time>2021-06-26T10:15:44Z</time>
      </trkpt>
      <trkpt lat="44.83664" lon="5.97328">
        <ele>1097</ele>
        <time>2021-06-26T10:15:45Z</time>
      </trkpt>
      <trkpt lat="44.83672" lon="5.97332">
        <ele>1098.2</ele>
        <time>2021-06-26T10:15:49Z</time>
      </trkpt>
      <trkpt lat="44.83679" lon="5.97336">
        <ele>1099.4</ele>
        <time>2021-06-26T10:15:52Z</time>
      </trkpt>
      <trkpt lat="44.83684" lon="5.97339">
        <ele>1100.2</ele>
        <time>2021-06-26T10:15:55Z</time>
      </trkpt>
      <trkpt lat="44.83686" lon="5.9734">
        <ele>1100.4</ele>
        <time>2021-06-26T10:15:56Z</time>
      </trkpt>
      <trkpt lat="44.83702" lon="5.97349">
        <ele>1101.4</ele>
        <time>2021-06-26T10:16:04Z</time>
      </trkpt>
      <trkpt lat="44.83709" lon="5.97352">
        <ele>1102.2</ele>
        <time>2021-06-26T10:16:07Z</time>
      </trkpt>
      <trkpt lat="44.83714" lon="5.97356">
        <ele>1102.6</ele>
        <time>2021-06-26T10:16:10Z</time>
      </trkpt>
      <trkpt lat="44.83725" lon="5.97361">
        <ele>1103.4</ele>
        <time>2021-06-26T10:16:15Z</time>
      </trkpt>
      <trkpt lat="44.83728" lon="5.97364">
        <ele>1103.8</ele>
        <time>2021-06-26T10:16:17Z</time>
      </trkpt>
      <trkpt lat="44.83734" lon="5.97367">
        <ele>1105</ele>
        <time>2021-06-26T10:16:20Z</time>
      </trkpt>
      <trkpt lat="44.83746" lon="5.97374">
        <ele>1105.8</ele>
        <time>2021-06-26T10:16:25Z</time>
      </trkpt>
      <trkpt lat="44.83753" lon="5.97378">
        <ele>1106.4</ele>
        <time>2021-06-26T10:16:28Z</time>
      </trkpt>
      <trkpt lat="44.83757" lon="5.9738">
        <ele>1106.8</ele>
        <time>2021-06-26T10:16:30Z</time>
      </trkpt>
      <trkpt lat="44.83774" lon="5.97391">
        <ele>1108.2</ele>
        <time>2021-06-26T10:16:36Z</time>
      </trkpt>
      <trkpt lat="44.83777" lon="5.97392">
        <ele>1108.2</ele>
        <time>2021-06-26T10:16:37Z</time>
      </trkpt>
      <trkpt lat="44.838" lon="5.97399">
        <ele>1109.2</ele>
        <time>2021-06-26T10:16:43Z</time>
      </trkpt>
      <trkpt lat="44.83805" lon="5.974">
        <ele>1109.2</ele>
        <time>2021-06-26T10:16:44Z</time>
      </trkpt>
      <trkpt lat="44.83811" lon="5.97401">
        <ele>1109.2</ele>
        <time>2021-06-26T10:16:45Z</time>
      </trkpt>
      <trkpt lat="44.83825" lon="5.97401">
        <ele>1109.2</ele>
        <time>2021-06-26T10:16:48Z</time>
      </trkpt>
      <trkpt lat="44.83861" lon="5.97391">
        <ele>1108.8</ele>
        <time>2021-06-26T10:16:54Z</time>
      </trkpt>
      <trkpt lat="44.83899" lon="5.97373">
        <ele>1108.2</ele>
        <time>2021-06-26T10:17:00Z</time>
      </trkpt>
      <trkpt lat="44.83907" lon="5.97375">
        <ele>1108</ele>
        <time>2021-06-26T10:17:01Z</time>
      </trkpt>
      <trkpt lat="44.83912" lon="5.9738">
        <ele>1107.6</ele>
        <time>2021-06-26T10:17:02Z</time>
      </trkpt>
      <trkpt lat="44.8393" lon="5.97407">
        <ele>1106.8</ele>
        <time>2021-06-26T10:17:06Z</time>
      </trkpt>
      <trkpt lat="44.83948" lon="5.97437">
        <ele>1106.4</ele>
        <time>2021-06-26T10:17:11Z</time>
      </trkpt>
      <trkpt lat="44.83962" lon="5.97458">
        <ele>1107.8</ele>
        <time>2021-06-26T10:17:16Z</time>
      </trkpt>
      <trkpt lat="44.83965" lon="5.97462">
        <ele>1108</ele>
        <time>2021-06-26T10:17:17Z</time>
      </trkpt>
      <trkpt lat="44.83973" lon="5.97474">
        <ele>1109.4</ele>
        <time>2021-06-26T10:17:20Z</time>
      </trkpt>
      <trkpt lat="44.8398" lon="5.97484">
        <ele>1110.2</ele>
        <time>2021-06-26T10:17:23Z</time>
      </trkpt>
      <trkpt lat="44.83984" lon="5.97489">
        <ele>1110.6</ele>
        <time>2021-06-26T10:17:25Z</time>
      </trkpt>
      <trkpt lat="44.83991" lon="5.97498">
        <ele>1111.6</ele>
        <time>2021-06-26T10:17:28Z</time>
      </trkpt>
      <trkpt lat="44.83997" lon="5.97507">
        <ele>1112.2</ele>
        <time>2021-06-26T10:17:31Z</time>
      </trkpt>
      <trkpt lat="44.83999" lon="5.97509">
        <ele>1112.8</ele>
        <time>2021-06-26T10:17:32Z</time>
      </trkpt>
      <trkpt lat="44.84007" lon="5.97518">
        <ele>1113.8</ele>
        <time>2021-06-26T10:17:36Z</time>
      </trkpt>
      <trkpt lat="44.8401" lon="5.97523">
        <ele>1114.4</ele>
        <time>2021-06-26T10:17:38Z</time>
      </trkpt>
      <trkpt lat="44.84015" lon="5.97529">
        <ele>1115</ele>
        <time>2021-06-26T10:17:41Z</time>
      </trkpt>
      <trkpt lat="44.84022" lon="5.97533">
        <ele>1115.4</ele>
        <time>2021-06-26T10:17:44Z</time>
      </trkpt>
      <trkpt lat="44.84029" lon="5.9753">
        <ele>1115.8</ele>
        <time>2021-06-26T10:17:47Z</time>
      </trkpt>
      <trkpt lat="44.84031" lon="5.97527">
        <ele>1116.2</ele>
        <time>2021-06-26T10:17:48Z</time>
      </trkpt>
      <trkpt lat="44.84032" lon="5.97519">
        <ele>1116.6</ele>
        <time>2021-06-26T10:17:50Z</time>
      </trkpt>
      <trkpt lat="44.8403" lon="5.97512">
        <ele>1117</ele>
        <time>2021-06-26T10:17:52Z</time>
      </trkpt>
      <trkpt lat="44.84024" lon="5.97499">
        <ele>1118.2</ele>
        <time>2021-06-26T10:17:56Z</time>
      </trkpt>
      <trkpt lat="44.8402" lon="5.9749">
        <ele>1118.6</ele>
        <time>2021-06-26T10:17:59Z</time>
      </trkpt>
      <trkpt lat="44.84017" lon="5.97477">
        <ele>1119.2</ele>
        <time>2021-06-26T10:18:03Z</time>
      </trkpt>
      <trkpt lat="44.84018" lon="5.97464">
        <ele>1120.2</ele>
        <time>2021-06-26T10:18:07Z</time>
      </trkpt>
      <trkpt lat="44.84023" lon="5.97444">
        <ele>1121.4</ele>
        <time>2021-06-26T10:18:13Z</time>
      </trkpt>
      <trkpt lat="44.84033" lon="5.97431">
        <ele>1122.4</ele>
        <time>2021-06-26T10:18:18Z</time>
      </trkpt>
      <trkpt lat="44.84039" lon="5.97424">
        <ele>1123.4</ele>
        <time>2021-06-26T10:18:21Z</time>
      </trkpt>
      <trkpt lat="44.84042" lon="5.97422">
        <ele>1123.4</ele>
        <time>2021-06-26T10:18:22Z</time>
      </trkpt>
      <trkpt lat="44.84051" lon="5.97414">
        <ele>1124.6</ele>
        <time>2021-06-26T10:18:26Z</time>
      </trkpt>
      <trkpt lat="44.84059" lon="5.97407">
        <ele>1125.8</ele>
        <time>2021-06-26T10:18:30Z</time>
      </trkpt>
      <trkpt lat="44.84063" lon="5.97404">
        <ele>1126.2</ele>
        <time>2021-06-26T10:18:32Z</time>
      </trkpt>
      <trkpt lat="44.84073" lon="5.97398">
        <ele>1126.8</ele>
        <time>2021-06-26T10:18:36Z</time>
      </trkpt>
      <trkpt lat="44.84082" lon="5.97396">
        <ele>1127.6</ele>
        <time>2021-06-26T10:18:40Z</time>
      </trkpt>
      <trkpt lat="44.84087" lon="5.97396">
        <ele>1128</ele>
        <time>2021-06-26T10:18:42Z</time>
      </trkpt>
      <trkpt lat="44.84102" lon="5.97402">
        <ele>1128.8</ele>
        <time>2021-06-26T10:18:48Z</time>
      </trkpt>
      <trkpt lat="44.84106" lon="5.97406">
        <ele>1129</ele>
        <time>2021-06-26T10:18:50Z</time>
      </trkpt>
      <trkpt lat="44.84117" lon="5.97421">
        <ele>1130.2</ele>
        <time>2021-06-26T10:18:56Z</time>
      </trkpt>
      <trkpt lat="44.84119" lon="5.97424">
        <ele>1130.2</ele>
        <time>2021-06-26T10:18:57Z</time>
      </trkpt>
      <trkpt lat="44.84125" lon="5.97433">
        <ele>1131.2</ele>
        <time>2021-06-26T10:19:00Z</time>
      </trkpt>
      <trkpt lat="44.84135" lon="5.97448">
        <ele>1132</ele>
        <time>2021-06-26T10:19:05Z</time>
      </trkpt>
      <trkpt lat="44.84139" lon="5.97453">
        <ele>1132.2</ele>
        <time>2021-06-26T10:19:07Z</time>
      </trkpt>
      <trkpt lat="44.84151" lon="5.97468">
        <ele>1133.4</ele>
        <time>2021-06-26T10:19:13Z</time>
      </trkpt>
      <trkpt lat="44.8416" lon="5.97474">
        <ele>1134.6</ele>
        <time>2021-06-26T10:19:17Z</time>
      </trkpt>
      <trkpt lat="44.84168" lon="5.97482">
        <ele>1135.8</ele>
        <time>2021-06-26T10:19:20Z</time>
      </trkpt>
      <trkpt lat="44.84185" lon="5.97496">
        <ele>1137</ele>
        <time>2021-06-26T10:19:26Z</time>
      </trkpt>
      <trkpt lat="44.84194" lon="5.97502">
        <ele>1137.2</ele>
        <time>2021-06-26T10:19:29Z</time>
      </trkpt>
      <trkpt lat="44.84211" lon="5.97516">
        <ele>1137.8</ele>
        <time>2021-06-26T10:19:35Z</time>
      </trkpt>
      <trkpt lat="44.84214" lon="5.97517">
        <ele>1138.2</ele>
        <time>2021-06-26T10:19:36Z</time>
      </trkpt>
      <trkpt lat="44.84235" lon="5.97524">
        <ele>1139</ele>
        <time>2021-06-26T10:19:42Z</time>
      </trkpt>
      <trkpt lat="44.84255" lon="5.97515">
        <ele>1139</ele>
        <time>2021-06-26T10:19:47Z</time>
      </trkpt>
      <trkpt lat="44.84262" lon="5.97508">
        <ele>1139.2</ele>
        <time>2021-06-26T10:19:49Z</time>
      </trkpt>
      <trkpt lat="44.84273" lon="5.97498">
        <ele>1139</ele>
        <time>2021-06-26T10:19:52Z</time>
      </trkpt>
      <trkpt lat="44.84291" lon="5.97484">
        <ele>1140</ele>
        <time>2021-06-26T10:19:58Z</time>
      </trkpt>
      <trkpt lat="44.84294" lon="5.97483">
        <ele>1140.2</ele>
        <time>2021-06-26T10:19:59Z</time>
      </trkpt>
      <trkpt lat="44.84307" lon="5.97477">
        <ele>1141.2</ele>
        <time>2021-06-26T10:20:04Z</time>
      </trkpt>
      <trkpt lat="44.8431" lon="5.97477">
        <ele>1141.2</ele>
        <time>2021-06-26T10:20:05Z</time>
      </trkpt>
      <trkpt lat="44.84319" lon="5.97475">
        <ele>1142.2</ele>
        <time>2021-06-26T10:20:09Z</time>
      </trkpt>
      <trkpt lat="44.84327" lon="5.97474">
        <ele>1142.8</ele>
        <time>2021-06-26T10:20:12Z</time>
      </trkpt>
      <trkpt lat="44.84333" lon="5.97473">
        <ele>1143.6</ele>
        <time>2021-06-26T10:20:15Z</time>
      </trkpt>
      <trkpt lat="44.84337" lon="5.97473">
        <ele>1144</ele>
        <time>2021-06-26T10:20:17Z</time>
      </trkpt>
      <trkpt lat="44.8434" lon="5.97473">
        <ele>1144.2</ele>
        <time>2021-06-26T10:20:18Z</time>
      </trkpt>
      <trkpt lat="44.84344" lon="5.97473">
        <ele>1145</ele>
        <time>2021-06-26T10:20:20Z</time>
      </trkpt>
      <trkpt lat="44.8435" lon="5.97474">
        <ele>1146.2</ele>
        <time>2021-06-26T10:20:23Z</time>
      </trkpt>
      <trkpt lat="44.84352" lon="5.97474">
        <ele>1146.4</ele>
        <time>2021-06-26T10:20:24Z</time>
      </trkpt>
      <trkpt lat="44.84357" lon="5.97473">
        <ele>1147</ele>
        <time>2021-06-26T10:20:26Z</time>
      </trkpt>
      <trkpt lat="44.84359" lon="5.97474">
        <ele>1147.2</ele>
        <time>2021-06-26T10:20:27Z</time>
      </trkpt>
      <trkpt lat="44.84367" lon="5.97473">
        <ele>1148.4</ele>
        <time>2021-06-26T10:20:31Z</time>
      </trkpt>
      <trkpt lat="44.84373" lon="5.97471">
        <ele>1149.4</ele>
        <time>2021-06-26T10:20:34Z</time>
      </trkpt>
      <trkpt lat="44.84384" lon="5.97468">
        <ele>1150.4</ele>
        <time>2021-06-26T10:20:39Z</time>
      </trkpt>
      <trkpt lat="44.84397" lon="5.97458">
        <ele>1151.6</ele>
        <time>2021-06-26T10:20:46Z</time>
      </trkpt>
      <trkpt lat="44.84399" lon="5.97456">
        <ele>1151.6</ele>
        <time>2021-06-26T10:20:47Z</time>
      </trkpt>
      <trkpt lat="44.84405" lon="5.97447">
        <ele>1152.6</ele>
        <time>2021-06-26T10:20:51Z</time>
      </trkpt>
      <trkpt lat="44.84407" lon="5.97431">
        <ele>1153.6</ele>
        <time>2021-06-26T10:20:56Z</time>
      </trkpt>
      <trkpt lat="44.84406" lon="5.97427">
        <ele>1153.8</ele>
        <time>2021-06-26T10:20:57Z</time>
      </trkpt>
      <trkpt lat="44.844" lon="5.97405">
        <ele>1154.4</ele>
        <time>2021-06-26T10:21:03Z</time>
      </trkpt>
      <trkpt lat="44.84395" lon="5.97395">
        <ele>1154.6</ele>
        <time>2021-06-26T10:21:06Z</time>
      </trkpt>
      <trkpt lat="44.84387" lon="5.97387">
        <ele>1155.2</ele>
        <time>2021-06-26T10:21:10Z</time>
      </trkpt>
      <trkpt lat="44.84382" lon="5.97384">
        <ele>1155.8</ele>
        <time>2021-06-26T10:21:12Z</time>
      </trkpt>
      <trkpt lat="44.84374" lon="5.97378">
        <ele>1156.4</ele>
        <time>2021-06-26T10:21:16Z</time>
      </trkpt>
      <trkpt lat="44.84372" lon="5.97377">
        <ele>1156.4</ele>
        <time>2021-06-26T10:21:17Z</time>
      </trkpt>
      <trkpt lat="44.84366" lon="5.97378">
        <ele>1157</ele>
        <time>2021-06-26T10:21:19Z</time>
      </trkpt>
      <trkpt lat="44.84364" lon="5.97378">
        <ele>1157.2</ele>
        <time>2021-06-26T10:21:20Z</time>
      </trkpt>
      <trkpt lat="44.84354" lon="5.97377">
        <ele>1158.2</ele>
        <time>2021-06-26T10:21:24Z</time>
      </trkpt>
      <trkpt lat="44.84348" lon="5.97378">
        <ele>1159.2</ele>
        <time>2021-06-26T10:21:26Z</time>
      </trkpt>
      <trkpt lat="44.84345" lon="5.97378">
        <ele>1159.2</ele>
        <time>2021-06-26T10:21:27Z</time>
      </trkpt>
      <trkpt lat="44.84338" lon="5.97377">
        <ele>1160</ele>
        <time>2021-06-26T10:21:30Z</time>
      </trkpt>
      <trkpt lat="44.84333" lon="5.97377">
        <ele>1160.4</ele>
        <time>2021-06-26T10:21:32Z</time>
      </trkpt>
      <trkpt lat="44.84325" lon="5.97374">
        <ele>1161.4</ele>
        <time>2021-06-26T10:21:36Z</time>
      </trkpt>
      <trkpt lat="44.84323" lon="5.97373">
        <ele>1161.8</ele>
        <time>2021-06-26T10:21:37Z</time>
      </trkpt>
      <trkpt lat="44.8431" lon="5.97369">
        <ele>1162.8</ele>
        <time>2021-06-26T10:21:42Z</time>
      </trkpt>
      <trkpt lat="44.84308" lon="5.97368">
        <ele>1162.8</ele>
        <time>2021-06-26T10:21:43Z</time>
      </trkpt>
      <trkpt lat="44.84295" lon="5.97358">
        <ele>1163.8</ele>
        <time>2021-06-26T10:21:49Z</time>
      </trkpt>
      <trkpt lat="44.84293" lon="5.97356">
        <ele>1164</ele>
        <time>2021-06-26T10:21:50Z</time>
      </trkpt>
      <trkpt lat="44.84285" lon="5.97348">
        <ele>1165</ele>
        <time>2021-06-26T10:21:54Z</time>
      </trkpt>
      <trkpt lat="44.84276" lon="5.97337">
        <ele>1165.6</ele>
        <time>2021-06-26T10:21:59Z</time>
      </trkpt>
      <trkpt lat="44.84273" lon="5.97335">
        <ele>1166</ele>
        <time>2021-06-26T10:22:00Z</time>
      </trkpt>
      <trkpt lat="44.84267" lon="5.97328">
        <ele>1167.2</ele>
        <time>2021-06-26T10:22:04Z</time>
      </trkpt>
      <trkpt lat="44.84266" lon="5.97326">
        <ele>1167.4</ele>
        <time>2021-06-26T10:22:05Z</time>
      </trkpt>
      <trkpt lat="44.84262" lon="5.97318">
        <ele>1168.2</ele>
        <time>2021-06-26T10:22:08Z</time>
      </trkpt>
      <trkpt lat="44.84258" lon="5.97309">
        <ele>1168.6</ele>
        <time>2021-06-26T10:22:11Z</time>
      </trkpt>
      <trkpt lat="44.84251" lon="5.973">
        <ele>1169.4</ele>
        <time>2021-06-26T10:22:15Z</time>
      </trkpt>
      <trkpt lat="44.84246" lon="5.97293">
        <ele>1169.8</ele>
        <time>2021-06-26T10:22:18Z</time>
      </trkpt>
      <trkpt lat="44.84242" lon="5.97288">
        <ele>1170.6</ele>
        <time>2021-06-26T10:22:20Z</time>
      </trkpt>
      <trkpt lat="44.84231" lon="5.97273">
        <ele>1171.8</ele>
        <time>2021-06-26T10:22:26Z</time>
      </trkpt>
      <trkpt lat="44.84225" lon="5.97266">
        <ele>1172.6</ele>
        <time>2021-06-26T10:22:29Z</time>
      </trkpt>
      <trkpt lat="44.84222" lon="5.97262">
        <ele>1173</ele>
        <time>2021-06-26T10:22:31Z</time>
      </trkpt>
      <trkpt lat="44.8422" lon="5.9726">
        <ele>1173</ele>
        <time>2021-06-26T10:22:32Z</time>
      </trkpt>
      <trkpt lat="44.84212" lon="5.9725">
        <ele>1174</ele>
        <time>2021-06-26T10:22:36Z</time>
      </trkpt>
      <trkpt lat="44.84207" lon="5.97243">
        <ele>1174.4</ele>
        <time>2021-06-26T10:22:39Z</time>
      </trkpt>
      <trkpt lat="44.84203" lon="5.97237">
        <ele>1175</ele>
        <time>2021-06-26T10:22:42Z</time>
      </trkpt>
      <trkpt lat="44.84193" lon="5.97224">
        <ele>1176.4</ele>
        <time>2021-06-26T10:22:47Z</time>
      </trkpt>
      <trkpt lat="44.84189" lon="5.97218">
        <ele>1176.8</ele>
        <time>2021-06-26T10:22:49Z</time>
      </trkpt>
      <trkpt lat="44.84186" lon="5.97214">
        <ele>1177.4</ele>
        <time>2021-06-26T10:22:51Z</time>
      </trkpt>
      <trkpt lat="44.84175" lon="5.97204">
        <ele>1178.6</ele>
        <time>2021-06-26T10:22:56Z</time>
      </trkpt>
      <trkpt lat="44.84171" lon="5.972">
        <ele>1178.8</ele>
        <time>2021-06-26T10:22:58Z</time>
      </trkpt>
      <trkpt lat="44.84161" lon="5.97194">
        <ele>1179.6</ele>
        <time>2021-06-26T10:23:02Z</time>
      </trkpt>
      <trkpt lat="44.8415" lon="5.97187">
        <ele>1180.6</ele>
        <time>2021-06-26T10:23:07Z</time>
      </trkpt>
      <trkpt lat="44.84145" lon="5.97185">
        <ele>1181</ele>
        <time>2021-06-26T10:23:09Z</time>
      </trkpt>
      <trkpt lat="44.84139" lon="5.97182">
        <ele>1181.6</ele>
        <time>2021-06-26T10:23:12Z</time>
      </trkpt>
      <trkpt lat="44.84127" lon="5.97179">
        <ele>1182.8</ele>
        <time>2021-06-26T10:23:17Z</time>
      </trkpt>
      <trkpt lat="44.84125" lon="5.97178">
        <ele>1183</ele>
        <time>2021-06-26T10:23:18Z</time>
      </trkpt>
      <trkpt lat="44.84113" lon="5.97175">
        <ele>1183.8</ele>
        <time>2021-06-26T10:23:23Z</time>
      </trkpt>
      <trkpt lat="44.84108" lon="5.97173">
        <ele>1184.4</ele>
        <time>2021-06-26T10:23:25Z</time>
      </trkpt>
      <trkpt lat="44.84099" lon="5.97171">
        <ele>1185</ele>
        <time>2021-06-26T10:23:29Z</time>
      </trkpt>
      <trkpt lat="44.84094" lon="5.97169">
        <ele>1185.2</ele>
        <time>2021-06-26T10:23:31Z</time>
      </trkpt>
      <trkpt lat="44.84086" lon="5.97166">
        <ele>1186</ele>
        <time>2021-06-26T10:23:34Z</time>
      </trkpt>
      <trkpt lat="44.84081" lon="5.97164">
        <ele>1186.2</ele>
        <time>2021-06-26T10:23:36Z</time>
      </trkpt>
      <trkpt lat="44.84074" lon="5.97161">
        <ele>1187</ele>
        <time>2021-06-26T10:23:39Z</time>
      </trkpt>
      <trkpt lat="44.84072" lon="5.9716">
        <ele>1187.2</ele>
        <time>2021-06-26T10:23:40Z</time>
      </trkpt>
      <trkpt lat="44.84059" lon="5.9715">
        <ele>1188.2</ele>
        <time>2021-06-26T10:23:46Z</time>
      </trkpt>
      <trkpt lat="44.84055" lon="5.97146">
        <ele>1188.6</ele>
        <time>2021-06-26T10:23:48Z</time>
      </trkpt>
      <trkpt lat="44.84049" lon="5.97141">
        <ele>1189.4</ele>
        <time>2021-06-26T10:23:51Z</time>
      </trkpt>
      <trkpt lat="44.8404" lon="5.97136">
        <ele>1190.6</ele>
        <time>2021-06-26T10:23:55Z</time>
      </trkpt>
      <trkpt lat="44.84035" lon="5.97133">
        <ele>1191.2</ele>
        <time>2021-06-26T10:23:57Z</time>
      </trkpt>
      <trkpt lat="44.84028" lon="5.97127">
        <ele>1191.8</ele>
        <time>2021-06-26T10:24:00Z</time>
      </trkpt>
      <trkpt lat="44.84025" lon="5.97123">
        <ele>1191.8</ele>
        <time>2021-06-26T10:24:01Z</time>
      </trkpt>
      <trkpt lat="44.84018" lon="5.97118">
        <ele>1192.2</ele>
        <time>2021-06-26T10:24:03Z</time>
      </trkpt>
      <trkpt lat="44.83998" lon="5.97107">
        <ele>1193</ele>
        <time>2021-06-26T10:24:09Z</time>
      </trkpt>
      <trkpt lat="44.83994" lon="5.97106">
        <ele>1193</ele>
        <time>2021-06-26T10:24:10Z</time>
      </trkpt>
      <trkpt lat="44.83963" lon="5.97106">
        <ele>1193.8</ele>
        <time>2021-06-26T10:24:18Z</time>
      </trkpt>
      <trkpt lat="44.83939" lon="5.97116">
        <ele>1194.8</ele>
        <time>2021-06-26T10:24:25Z</time>
      </trkpt>
      <trkpt lat="44.83935" lon="5.97118">
        <ele>1195</ele>
        <time>2021-06-26T10:24:26Z</time>
      </trkpt>
      <trkpt lat="44.8392" lon="5.97126">
        <ele>1195.6</ele>
        <time>2021-06-26T10:24:30Z</time>
      </trkpt>
      <trkpt lat="44.83908" lon="5.97134">
        <ele>1196</ele>
        <time>2021-06-26T10:24:33Z</time>
      </trkpt>
      <trkpt lat="44.83888" lon="5.97148">
        <ele>1196.8</ele>
        <time>2021-06-26T10:24:38Z</time>
      </trkpt>
      <trkpt lat="44.83878" lon="5.97152">
        <ele>1197.2</ele>
        <time>2021-06-26T10:24:41Z</time>
      </trkpt>
      <trkpt lat="44.83865" lon="5.97154">
        <ele>1197.8</ele>
        <time>2021-06-26T10:24:45Z</time>
      </trkpt>
      <trkpt lat="44.83861" lon="5.97156">
        <ele>1198.2</ele>
        <time>2021-06-26T10:24:46Z</time>
      </trkpt>
      <trkpt lat="44.83839" lon="5.97161">
        <ele>1199.2</ele>
        <time>2021-06-26T10:24:52Z</time>
      </trkpt>
      <trkpt lat="44.83835" lon="5.97161">
        <ele>1199.4</ele>
        <time>2021-06-26T10:24:53Z</time>
      </trkpt>
      <trkpt lat="44.83816" lon="5.97165">
        <ele>1200.4</ele>
        <time>2021-06-26T10:24:58Z</time>
      </trkpt>
      <trkpt lat="44.83812" lon="5.97166">
        <ele>1200.4</ele>
        <time>2021-06-26T10:24:59Z</time>
      </trkpt>
      <trkpt lat="44.838" lon="5.9717">
        <ele>1201</ele>
        <time>2021-06-26T10:25:02Z</time>
      </trkpt>
      <trkpt lat="44.83788" lon="5.9717">
        <ele>1201.6</ele>
        <time>2021-06-26T10:25:05Z</time>
      </trkpt>
      <trkpt lat="44.83778" lon="5.9717">
        <ele>1201.8</ele>
        <time>2021-06-26T10:25:07Z</time>
      </trkpt>
      <trkpt lat="44.83762" lon="5.97165">
        <ele>1202.4</ele>
        <time>2021-06-26T10:25:11Z</time>
      </trkpt>
      <trkpt lat="44.83758" lon="5.97163">
        <ele>1202.6</ele>
        <time>2021-06-26T10:25:12Z</time>
      </trkpt>
      <trkpt lat="44.83738" lon="5.97156">
        <ele>1203.6</ele>
        <time>2021-06-26T10:25:17Z</time>
      </trkpt>
      <trkpt lat="44.83734" lon="5.97154">
        <ele>1203.8</ele>
        <time>2021-06-26T10:25:18Z</time>
      </trkpt>
      <trkpt lat="44.8372" lon="5.9715">
        <ele>1204.4</ele>
        <time>2021-06-26T10:25:21Z</time>
      </trkpt>
      <trkpt lat="44.83715" lon="5.97149">
        <ele>1204.6</ele>
        <time>2021-06-26T10:25:22Z</time>
      </trkpt>
      <trkpt lat="44.8371" lon="5.97147">
        <ele>1204.8</ele>
        <time>2021-06-26T10:25:23Z</time>
      </trkpt>
      <trkpt lat="44.83696" lon="5.9714">
        <ele>1205.2</ele>
        <time>2021-06-26T10:25:26Z</time>
      </trkpt>
      <trkpt lat="44.83684" lon="5.97133">
        <ele>1205.6</ele>
        <time>2021-06-26T10:25:29Z</time>
      </trkpt>
      <trkpt lat="44.8368" lon="5.97131">
        <ele>1206</ele>
        <time>2021-06-26T10:25:30Z</time>
      </trkpt>
      <trkpt lat="44.83671" lon="5.97129">
        <ele>1206.8</ele>
        <time>2021-06-26T10:25:32Z</time>
      </trkpt>
      <trkpt lat="44.83667" lon="5.97129">
        <ele>1207</ele>
        <time>2021-06-26T10:25:33Z</time>
      </trkpt>
      <trkpt lat="44.8365" lon="5.97127">
        <ele>1207.8</ele>
        <time>2021-06-26T10:25:37Z</time>
      </trkpt>
      <trkpt lat="44.83638" lon="5.97128">
        <ele>1208.4</ele>
        <time>2021-06-26T10:25:40Z</time>
      </trkpt>
      <trkpt lat="44.83621" lon="5.97132">
        <ele>1209</ele>
        <time>2021-06-26T10:25:44Z</time>
      </trkpt>
      <trkpt lat="44.83604" lon="5.97136">
        <ele>1209.6</ele>
        <time>2021-06-26T10:25:48Z</time>
      </trkpt>
      <trkpt lat="44.8359" lon="5.97139">
        <ele>1210</ele>
        <time>2021-06-26T10:25:52Z</time>
      </trkpt>
      <trkpt lat="44.83574" lon="5.97144">
        <ele>1210.8</ele>
        <time>2021-06-26T10:25:56Z</time>
      </trkpt>
      <trkpt lat="44.83567" lon="5.97146">
        <ele>1211</ele>
        <time>2021-06-26T10:25:58Z</time>
      </trkpt>
      <trkpt lat="44.83541" lon="5.97155">
        <ele>1212</ele>
        <time>2021-06-26T10:26:05Z</time>
      </trkpt>
      <trkpt lat="44.83537" lon="5.97156">
        <ele>1212.2</ele>
        <time>2021-06-26T10:26:06Z</time>
      </trkpt>
      <trkpt lat="44.83504" lon="5.97163">
        <ele>1213</ele>
        <time>2021-06-26T10:26:15Z</time>
      </trkpt>
      <trkpt lat="44.83482" lon="5.97158">
        <ele>1214.2</ele>
        <time>2021-06-26T10:26:21Z</time>
      </trkpt>
      <trkpt lat="44.83463" lon="5.97153">
        <ele>1215.4</ele>
        <time>2021-06-26T10:26:26Z</time>
      </trkpt>
      <trkpt lat="44.83459" lon="5.97152">
        <ele>1215.6</ele>
        <time>2021-06-26T10:26:27Z</time>
      </trkpt>
      <trkpt lat="44.83432" lon="5.97142">
        <ele>1216.4</ele>
        <time>2021-06-26T10:26:34Z</time>
      </trkpt>
      <trkpt lat="44.83426" lon="5.97136">
        <ele>1216.6</ele>
        <time>2021-06-26T10:26:36Z</time>
      </trkpt>
      <trkpt lat="44.83422" lon="5.97125">
        <ele>1216.8</ele>
        <time>2021-06-26T10:26:38Z</time>
      </trkpt>
      <trkpt lat="44.8342" lon="5.9712">
        <ele>1217</ele>
        <time>2021-06-26T10:26:39Z</time>
      </trkpt>
      <trkpt lat="44.83406" lon="5.97091">
        <ele>1217.4</ele>
        <time>2021-06-26T10:26:44Z</time>
      </trkpt>
      <trkpt lat="44.83402" lon="5.97086">
        <ele>1217.6</ele>
        <time>2021-06-26T10:26:45Z</time>
      </trkpt>
      <trkpt lat="44.83387" lon="5.97061">
        <ele>1218</ele>
        <time>2021-06-26T10:26:50Z</time>
      </trkpt>
      <trkpt lat="44.83382" lon="5.97051">
        <ele>1218</ele>
        <time>2021-06-26T10:26:52Z</time>
      </trkpt>
      <trkpt lat="44.8338" lon="5.97038">
        <ele>1218.2</ele>
        <time>2021-06-26T10:26:54Z</time>
      </trkpt>
      <trkpt lat="44.83381" lon="5.97033">
        <ele>1218.2</ele>
        <time>2021-06-26T10:26:55Z</time>
      </trkpt>
      <trkpt lat="44.83383" lon="5.97026">
        <ele>1218.4</ele>
        <time>2021-06-26T10:26:56Z</time>
      </trkpt>
      <trkpt lat="44.83389" lon="5.97016">
        <ele>1218.4</ele>
        <time>2021-06-26T10:26:58Z</time>
      </trkpt>
      <trkpt lat="44.83399" lon="5.97006">
        <ele>1218.6</ele>
        <time>2021-06-26T10:27:01Z</time>
      </trkpt>
      <trkpt lat="44.83411" lon="5.96995">
        <ele>1219.2</ele>
        <time>2021-06-26T10:27:04Z</time>
      </trkpt>
      <trkpt lat="44.83419" lon="5.96988">
        <ele>1219.2</ele>
        <time>2021-06-26T10:27:06Z</time>
      </trkpt>
      <trkpt lat="44.83451" lon="5.96956">
        <ele>1219.6</ele>
        <time>2021-06-26T10:27:14Z</time>
      </trkpt>
      <trkpt lat="44.83483" lon="5.96917">
        <ele>1219.8</ele>
        <time>2021-06-26T10:27:22Z</time>
      </trkpt>
      <trkpt lat="44.83501" lon="5.96897">
        <ele>1219.8</ele>
        <time>2021-06-26T10:27:26Z</time>
      </trkpt>
      <trkpt lat="44.83514" lon="5.96884">
        <ele>1220</ele>
        <time>2021-06-26T10:27:29Z</time>
      </trkpt>
      <trkpt lat="44.8355" lon="5.96855">
        <ele>1220</ele>
        <time>2021-06-26T10:27:37Z</time>
      </trkpt>
      <trkpt lat="44.83565" lon="5.96845">
        <ele>1220.2</ele>
        <time>2021-06-26T10:27:40Z</time>
      </trkpt>
      <trkpt lat="44.83583" lon="5.9683">
        <ele>1220.2</ele>
        <time>2021-06-26T10:27:44Z</time>
      </trkpt>
      <trkpt lat="44.83624" lon="5.96793">
        <ele>1220.2</ele>
        <time>2021-06-26T10:27:53Z</time>
      </trkpt>
      <trkpt lat="44.83641" lon="5.96775">
        <ele>1220.4</ele>
        <time>2021-06-26T10:27:57Z</time>
      </trkpt>
      <trkpt lat="44.83648" lon="5.96764">
        <ele>1220.4</ele>
        <time>2021-06-26T10:27:59Z</time>
      </trkpt>
      <trkpt lat="44.8365" lon="5.96757">
        <ele>1220.4</ele>
        <time>2021-06-26T10:28:00Z</time>
      </trkpt>
      <trkpt lat="44.83656" lon="5.96735">
        <ele>1220.4</ele>
        <time>2021-06-26T10:28:03Z</time>
      </trkpt>
      <trkpt lat="44.83654" lon="5.96704">
        <ele>1220.4</ele>
        <time>2021-06-26T10:28:07Z</time>
      </trkpt>
      <trkpt lat="44.83653" lon="5.96696">
        <ele>1220.4</ele>
        <time>2021-06-26T10:28:08Z</time>
      </trkpt>
      <trkpt lat="44.83641" lon="5.96663">
        <ele>1220.4</ele>
        <time>2021-06-26T10:28:13Z</time>
      </trkpt>
      <trkpt lat="44.83638" lon="5.96657">
        <ele>1220.4</ele>
        <time>2021-06-26T10:28:14Z</time>
      </trkpt>
      <trkpt lat="44.83624" lon="5.96635">
        <ele>1220.6</ele>
        <time>2021-06-26T10:28:18Z</time>
      </trkpt>
      <trkpt lat="44.83612" lon="5.96619">
        <ele>1220.8</ele>
        <time>2021-06-26T10:28:21Z</time>
      </trkpt>
      <trkpt lat="44.83591" lon="5.96595">
        <ele>1221</ele>
        <time>2021-06-26T10:28:26Z</time>
      </trkpt>
      <trkpt lat="44.83576" lon="5.96578">
        <ele>1221.2</ele>
        <time>2021-06-26T10:28:30Z</time>
      </trkpt>
      <trkpt lat="44.8356" lon="5.96558">
        <ele>1221.4</ele>
        <time>2021-06-26T10:28:34Z</time>
      </trkpt>
      <trkpt lat="44.83554" lon="5.96546">
        <ele>1221.4</ele>
        <time>2021-06-26T10:28:36Z</time>
      </trkpt>
      <trkpt lat="44.83552" lon="5.9654">
        <ele>1221.4</ele>
        <time>2021-06-26T10:28:37Z</time>
      </trkpt>
      <trkpt lat="44.83549" lon="5.96527">
        <ele>1221.4</ele>
        <time>2021-06-26T10:28:39Z</time>
      </trkpt>
      <trkpt lat="44.83549" lon="5.96515">
        <ele>1221.6</ele>
        <time>2021-06-26T10:28:41Z</time>
      </trkpt>
      <trkpt lat="44.83549" lon="5.9651">
        <ele>1221.8</ele>
        <time>2021-06-26T10:28:42Z</time>
      </trkpt>
      <trkpt lat="44.8355" lon="5.96486">
        <ele>1222.8</ele>
        <time>2021-06-26T10:28:46Z</time>
      </trkpt>
      <trkpt lat="44.8355" lon="5.9648">
        <ele>1223.2</ele>
        <time>2021-06-26T10:28:47Z</time>
      </trkpt>
      <trkpt lat="44.8355" lon="5.96468">
        <ele>1224</ele>
        <time>2021-06-26T10:28:49Z</time>
      </trkpt>
      <trkpt lat="44.8355" lon="5.96456">
        <ele>1224.4</ele>
        <time>2021-06-26T10:28:51Z</time>
      </trkpt>
      <trkpt lat="44.83548" lon="5.96438">
        <ele>1225</ele>
        <time>2021-06-26T10:28:54Z</time>
      </trkpt>
      <trkpt lat="44.83545" lon="5.96389">
        <ele>1225.6</ele>
        <time>2021-06-26T10:29:03Z</time>
      </trkpt>
      <trkpt lat="44.83544" lon="5.96386">
        <ele>1226</ele>
        <time>2021-06-26T10:29:04Z</time>
      </trkpt>
      <trkpt lat="44.83543" lon="5.96372">
        <ele>1227</ele>
        <time>2021-06-26T10:29:08Z</time>
      </trkpt>
      <trkpt lat="44.83543" lon="5.96369">
        <ele>1227.4</ele>
        <time>2021-06-26T10:29:09Z</time>
      </trkpt>
      <trkpt lat="44.83543" lon="5.9636">
        <ele>1228</ele>
        <time>2021-06-26T10:29:12Z</time>
      </trkpt>
      <trkpt lat="44.83544" lon="5.96348">
        <ele>1228.8</ele>
        <time>2021-06-26T10:29:16Z</time>
      </trkpt>
      <trkpt lat="44.83545" lon="5.96344">
        <ele>1229.2</ele>
        <time>2021-06-26T10:29:17Z</time>
      </trkpt>
      <trkpt lat="44.83546" lon="5.96335">
        <ele>1230.2</ele>
        <time>2021-06-26T10:29:20Z</time>
      </trkpt>
      <trkpt lat="44.83546" lon="5.96333">
        <ele>1230.4</ele>
        <time>2021-06-26T10:29:21Z</time>
      </trkpt>
      <trkpt lat="44.83548" lon="5.96328">
        <ele>1231.2</ele>
        <time>2021-06-26T10:29:23Z</time>
      </trkpt>
      <trkpt lat="44.83549" lon="5.96325">
        <ele>1231.4</ele>
        <time>2021-06-26T10:29:24Z</time>
      </trkpt>
      <trkpt lat="44.83552" lon="5.9631">
        <ele>1232.6</ele>
        <time>2021-06-26T10:29:29Z</time>
      </trkpt>
      <trkpt lat="44.83554" lon="5.96302">
        <ele>1233.2</ele>
        <time>2021-06-26T10:29:32Z</time>
      </trkpt>
      <trkpt lat="44.83555" lon="5.96295">
        <ele>1233.8</ele>
        <time>2021-06-26T10:29:34Z</time>
      </trkpt>
      <trkpt lat="44.83557" lon="5.96283">
        <ele>1234.6</ele>
        <time>2021-06-26T10:29:38Z</time>
      </trkpt>
      <trkpt lat="44.83557" lon="5.9628">
        <ele>1235</ele>
        <time>2021-06-26T10:29:39Z</time>
      </trkpt>
      <trkpt lat="44.83557" lon="5.96268">
        <ele>1236</ele>
        <time>2021-06-26T10:29:43Z</time>
      </trkpt>
      <trkpt lat="44.83556" lon="5.9626">
        <ele>1236.6</ele>
        <time>2021-06-26T10:29:46Z</time>
      </trkpt>
      <trkpt lat="44.83556" lon="5.9625">
        <ele>1237.2</ele>
        <time>2021-06-26T10:29:49Z</time>
      </trkpt>
      <trkpt lat="44.83557" lon="5.96237">
        <ele>1238.2</ele>
        <time>2021-06-26T10:29:53Z</time>
      </trkpt>
      <trkpt lat="44.83559" lon="5.96235">
        <ele>1238.4</ele>
        <time>2021-06-26T10:29:54Z</time>
      </trkpt>
      <trkpt lat="44.83563" lon="5.96234">
        <ele>1238.8</ele>
        <time>2021-06-26T10:29:56Z</time>
      </trkpt>
      <trkpt lat="44.83565" lon="5.96236">
        <ele>1239</ele>
        <time>2021-06-26T10:29:57Z</time>
      </trkpt>
      <trkpt lat="44.83567" lon="5.96237">
        <ele>1239.4</ele>
        <time>2021-06-26T10:29:58Z</time>
      </trkpt>
      <trkpt lat="44.83573" lon="5.96251">
        <ele>1240.4</ele>
        <time>2021-06-26T10:30:03Z</time>
      </trkpt>
      <trkpt lat="44.83576" lon="5.96263">
        <ele>1241.4</ele>
        <time>2021-06-26T10:30:07Z</time>
      </trkpt>
      <trkpt lat="44.83577" lon="5.96278">
        <ele>1242.6</ele>
        <time>2021-06-26T10:30:12Z</time>
      </trkpt>
      <trkpt lat="44.83576" lon="5.96293">
        <ele>1243.6</ele>
        <time>2021-06-26T10:30:17Z</time>
      </trkpt>
      <trkpt lat="44.83576" lon="5.96301">
        <ele>1244.4</ele>
        <time>2021-06-26T10:30:20Z</time>
      </trkpt>
      <trkpt lat="44.83576" lon="5.96305">
        <ele>1244.8</ele>
        <time>2021-06-26T10:30:21Z</time>
      </trkpt>
      <trkpt lat="44.83578" lon="5.96322">
        <ele>1245.8</ele>
        <time>2021-06-26T10:30:26Z</time>
      </trkpt>
      <trkpt lat="44.83579" lon="5.96328">
        <ele>1246.2</ele>
        <time>2021-06-26T10:30:28Z</time>
      </trkpt>
      <trkpt lat="44.83581" lon="5.96338">
        <ele>1247</ele>
        <time>2021-06-26T10:30:31Z</time>
      </trkpt>
      <trkpt lat="44.83584" lon="5.96348">
        <ele>1248</ele>
        <time>2021-06-26T10:30:34Z</time>
      </trkpt>
      <trkpt lat="44.83587" lon="5.96357">
        <ele>1249</ele>
        <time>2021-06-26T10:30:37Z</time>
      </trkpt>
      <trkpt lat="44.83588" lon="5.9636">
        <ele>1249.2</ele>
        <time>2021-06-26T10:30:38Z</time>
      </trkpt>
      <trkpt lat="44.83594" lon="5.96383">
        <ele>1250</ele>
        <time>2021-06-26T10:30:45Z</time>
      </trkpt>
      <trkpt lat="44.83596" lon="5.9639">
        <ele>1250.6</ele>
        <time>2021-06-26T10:30:47Z</time>
      </trkpt>
      <trkpt lat="44.83598" lon="5.96397">
        <ele>1251.2</ele>
        <time>2021-06-26T10:30:49Z</time>
      </trkpt>
      <trkpt lat="44.83603" lon="5.96414">
        <ele>1252.6</ele>
        <time>2021-06-26T10:30:54Z</time>
      </trkpt>
      <trkpt lat="44.83604" lon="5.96418">
        <ele>1252.8</ele>
        <time>2021-06-26T10:30:55Z</time>
      </trkpt>
      <trkpt lat="44.83608" lon="5.96436">
        <ele>1253.6</ele>
        <time>2021-06-26T10:31:00Z</time>
      </trkpt>
      <trkpt lat="44.83611" lon="5.96446">
        <ele>1254.4</ele>
        <time>2021-06-26T10:31:03Z</time>
      </trkpt>
      <trkpt lat="44.83613" lon="5.96452">
        <ele>1254.6</ele>
        <time>2021-06-26T10:31:05Z</time>
      </trkpt>
      <trkpt lat="44.8362" lon="5.96477">
        <ele>1255.6</ele>
        <time>2021-06-26T10:31:13Z</time>
      </trkpt>
      <trkpt lat="44.83625" lon="5.9649">
        <ele>1257</ele>
        <time>2021-06-26T10:31:17Z</time>
      </trkpt>
      <trkpt lat="44.83632" lon="5.96501">
        <ele>1258</ele>
        <time>2021-06-26T10:31:21Z</time>
      </trkpt>
      <trkpt lat="44.83644" lon="5.96517">
        <ele>1259.2</ele>
        <time>2021-06-26T10:31:28Z</time>
      </trkpt>
      <trkpt lat="44.83649" lon="5.96521">
        <ele>1259.8</ele>
        <time>2021-06-26T10:31:30Z</time>
      </trkpt>
      <trkpt lat="44.83655" lon="5.96526">
        <ele>1260.4</ele>
        <time>2021-06-26T10:31:33Z</time>
      </trkpt>
      <trkpt lat="44.83661" lon="5.96533">
        <ele>1261.4</ele>
        <time>2021-06-26T10:31:36Z</time>
      </trkpt>
      <trkpt lat="44.83668" lon="5.96539">
        <ele>1261.8</ele>
        <time>2021-06-26T10:31:39Z</time>
      </trkpt>
      <trkpt lat="44.83672" lon="5.96542">
        <ele>1262.4</ele>
        <time>2021-06-26T10:31:41Z</time>
      </trkpt>
      <trkpt lat="44.83676" lon="5.96547">
        <ele>1262.8</ele>
        <time>2021-06-26T10:31:43Z</time>
      </trkpt>
      <trkpt lat="44.8368" lon="5.9655">
        <ele>1263.4</ele>
        <time>2021-06-26T10:31:45Z</time>
      </trkpt>
      <trkpt lat="44.83684" lon="5.96554">
        <ele>1263.8</ele>
        <time>2021-06-26T10:31:47Z</time>
      </trkpt>
      <trkpt lat="44.8369" lon="5.9656">
        <ele>1264.4</ele>
        <time>2021-06-26T10:31:50Z</time>
      </trkpt>
      <trkpt lat="44.83697" lon="5.96567">
        <ele>1265.6</ele>
        <time>2021-06-26T10:31:54Z</time>
      </trkpt>
      <trkpt lat="44.83706" lon="5.96575">
        <ele>1266.2</ele>
        <time>2021-06-26T10:31:58Z</time>
      </trkpt>
      <trkpt lat="44.8371" lon="5.96579">
        <ele>1266.6</ele>
        <time>2021-06-26T10:32:00Z</time>
      </trkpt>
      <trkpt lat="44.83718" lon="5.96588">
        <ele>1267.8</ele>
        <time>2021-06-26T10:32:04Z</time>
      </trkpt>
      <trkpt lat="44.83726" lon="5.96596">
        <ele>1268.6</ele>
        <time>2021-06-26T10:32:08Z</time>
      </trkpt>
      <trkpt lat="44.8373" lon="5.966">
        <ele>1269</ele>
        <time>2021-06-26T10:32:10Z</time>
      </trkpt>
      <trkpt lat="44.83739" lon="5.96611">
        <ele>1270.2</ele>
        <time>2021-06-26T10:32:15Z</time>
      </trkpt>
      <trkpt lat="44.83741" lon="5.96613">
        <ele>1270.4</ele>
        <time>2021-06-26T10:32:16Z</time>
      </trkpt>
      <trkpt lat="44.83748" lon="5.96622">
        <ele>1271.2</ele>
        <time>2021-06-26T10:32:20Z</time>
      </trkpt>
      <trkpt lat="44.83752" lon="5.96627">
        <ele>1271.6</ele>
        <time>2021-06-26T10:32:22Z</time>
      </trkpt>
      <trkpt lat="44.83757" lon="5.96634">
        <ele>1272</ele>
        <time>2021-06-26T10:32:25Z</time>
      </trkpt>
      <trkpt lat="44.83764" lon="5.96643">
        <ele>1273</ele>
        <time>2021-06-26T10:32:29Z</time>
      </trkpt>
      <trkpt lat="44.83766" lon="5.96645">
        <ele>1273.2</ele>
        <time>2021-06-26T10:32:30Z</time>
      </trkpt>
      <trkpt lat="44.83778" lon="5.9666">
        <ele>1274.2</ele>
        <time>2021-06-26T10:32:36Z</time>
      </trkpt>
      <trkpt lat="44.8378" lon="5.96663">
        <ele>1274.4</ele>
        <time>2021-06-26T10:32:37Z</time>
      </trkpt>
      <trkpt lat="44.83785" lon="5.9667">
        <ele>1275.2</ele>
        <time>2021-06-26T10:32:40Z</time>
      </trkpt>
      <trkpt lat="44.83792" lon="5.96679">
        <ele>1276.2</ele>
        <time>2021-06-26T10:32:44Z</time>
      </trkpt>
      <trkpt lat="44.83794" lon="5.96681">
        <ele>1276.4</ele>
        <time>2021-06-26T10:32:45Z</time>
      </trkpt>
      <trkpt lat="44.83802" lon="5.96693">
        <ele>1277.6</ele>
        <time>2021-06-26T10:32:50Z</time>
      </trkpt>
      <trkpt lat="44.83804" lon="5.96696">
        <ele>1277.8</ele>
        <time>2021-06-26T10:32:51Z</time>
      </trkpt>
      <trkpt lat="44.83811" lon="5.96705">
        <ele>1278.4</ele>
        <time>2021-06-26T10:32:55Z</time>
      </trkpt>
      <trkpt lat="44.83814" lon="5.9671">
        <ele>1278.8</ele>
        <time>2021-06-26T10:32:57Z</time>
      </trkpt>
      <trkpt lat="44.83823" lon="5.96723">
        <ele>1280.2</ele>
        <time>2021-06-26T10:33:02Z</time>
      </trkpt>
      <trkpt lat="44.83824" lon="5.96726">
        <ele>1280.4</ele>
        <time>2021-06-26T10:33:03Z</time>
      </trkpt>
      <trkpt lat="44.8383" lon="5.96737">
        <ele>1281.6</ele>
        <time>2021-06-26T10:33:07Z</time>
      </trkpt>
      <trkpt lat="44.83835" lon="5.9675">
        <ele>1282.4</ele>
        <time>2021-06-26T10:33:11Z</time>
      </trkpt>
      <trkpt lat="44.83837" lon="5.96757">
        <ele>1283.2</ele>
        <time>2021-06-26T10:33:13Z</time>
      </trkpt>
      <trkpt lat="44.83839" lon="5.96767">
        <ele>1284.2</ele>
        <time>2021-06-26T10:33:16Z</time>
      </trkpt>
      <trkpt lat="44.83841" lon="5.96781">
        <ele>1285</ele>
        <time>2021-06-26T10:33:20Z</time>
      </trkpt>
      <trkpt lat="44.83841" lon="5.96784">
        <ele>1285.4</ele>
        <time>2021-06-26T10:33:21Z</time>
      </trkpt>
      <trkpt lat="44.83843" lon="5.96796">
        <ele>1286.6</ele>
        <time>2021-06-26T10:33:25Z</time>
      </trkpt>
      <trkpt lat="44.83846" lon="5.96807">
        <ele>1287.2</ele>
        <time>2021-06-26T10:33:28Z</time>
      </trkpt>
      <trkpt lat="44.83848" lon="5.96813">
        <ele>1287.6</ele>
        <time>2021-06-26T10:33:30Z</time>
      </trkpt>
      <trkpt lat="44.83859" lon="5.96832">
        <ele>1288.6</ele>
        <time>2021-06-26T10:33:36Z</time>
      </trkpt>
      <trkpt lat="44.83861" lon="5.96835">
        <ele>1288.8</ele>
        <time>2021-06-26T10:33:37Z</time>
      </trkpt>
      <trkpt lat="44.83871" lon="5.9685">
        <ele>1289.6</ele>
        <time>2021-06-26T10:33:42Z</time>
      </trkpt>
      <trkpt lat="44.83874" lon="5.96853">
        <ele>1289.6</ele>
        <time>2021-06-26T10:33:43Z</time>
      </trkpt>
      <trkpt lat="44.83885" lon="5.96867">
        <ele>1290.6</ele>
        <time>2021-06-26T10:33:48Z</time>
      </trkpt>
      <trkpt lat="44.83897" lon="5.96874">
        <ele>1291.8</ele>
        <time>2021-06-26T10:33:53Z</time>
      </trkpt>
      <trkpt lat="44.83906" lon="5.96861">
        <ele>1292.8</ele>
        <time>2021-06-26T10:33:57Z</time>
      </trkpt>
      <trkpt lat="44.83906" lon="5.96856">
        <ele>1293</ele>
        <time>2021-06-26T10:33:58Z</time>
      </trkpt>
      <trkpt lat="44.83901" lon="5.96844">
        <ele>1293.6</ele>
        <time>2021-06-26T10:34:01Z</time>
      </trkpt>
      <trkpt lat="44.83896" lon="5.96838">
        <ele>1294</ele>
        <time>2021-06-26T10:34:03Z</time>
      </trkpt>
      <trkpt lat="44.83883" lon="5.96817">
        <ele>1295</ele>
        <time>2021-06-26T10:34:09Z</time>
      </trkpt>
      <trkpt lat="44.83881" lon="5.96812">
        <ele>1295.2</ele>
        <time>2021-06-26T10:34:10Z</time>
      </trkpt>
      <trkpt lat="44.83872" lon="5.96785">
        <ele>1296.4</ele>
        <time>2021-06-26T10:34:17Z</time>
      </trkpt>
      <trkpt lat="44.8387" lon="5.96779">
        <ele>1296.8</ele>
        <time>2021-06-26T10:34:19Z</time>
      </trkpt>
      <trkpt lat="44.83868" lon="5.96769">
        <ele>1297.4</ele>
        <time>2021-06-26T10:34:21Z</time>
      </trkpt>
      <trkpt lat="44.83866" lon="5.96753">
        <ele>1298.2</ele>
        <time>2021-06-26T10:34:25Z</time>
      </trkpt>
      <trkpt lat="44.83866" lon="5.96749">
        <ele>1298.4</ele>
        <time>2021-06-26T10:34:26Z</time>
      </trkpt>
      <trkpt lat="44.83864" lon="5.96732">
        <ele>1299.4</ele>
        <time>2021-06-26T10:34:31Z</time>
      </trkpt>
      <trkpt lat="44.83864" lon="5.96728">
        <ele>1299.6</ele>
        <time>2021-06-26T10:34:32Z</time>
      </trkpt>
      <trkpt lat="44.8386" lon="5.96708">
        <ele>1300.6</ele>
        <time>2021-06-26T10:34:37Z</time>
      </trkpt>
      <trkpt lat="44.83858" lon="5.96701">
        <ele>1301</ele>
        <time>2021-06-26T10:34:39Z</time>
      </trkpt>
      <trkpt lat="44.83856" lon="5.96694">
        <ele>1301.6</ele>
        <time>2021-06-26T10:34:41Z</time>
      </trkpt>
      <trkpt lat="44.8385" lon="5.9668">
        <ele>1302.6</ele>
        <time>2021-06-26T10:34:45Z</time>
      </trkpt>
      <trkpt lat="44.83845" lon="5.96665">
        <ele>1303.6</ele>
        <time>2021-06-26T10:34:50Z</time>
      </trkpt>
      <trkpt lat="44.83838" lon="5.96647">
        <ele>1304.6</ele>
        <time>2021-06-26T10:34:56Z</time>
      </trkpt>
      <trkpt lat="44.83834" lon="5.96634">
        <ele>1305.2</ele>
        <time>2021-06-26T10:35:00Z</time>
      </trkpt>
      <trkpt lat="44.83833" lon="5.96631">
        <ele>1305.6</ele>
        <time>2021-06-26T10:35:01Z</time>
      </trkpt>
      <trkpt lat="44.83827" lon="5.96616">
        <ele>1306.8</ele>
        <time>2021-06-26T10:35:06Z</time>
      </trkpt>
      <trkpt lat="44.83822" lon="5.96601">
        <ele>1308.2</ele>
        <time>2021-06-26T10:35:11Z</time>
      </trkpt>
      <trkpt lat="44.83818" lon="5.96591">
        <ele>1308.6</ele>
        <time>2021-06-26T10:35:14Z</time>
      </trkpt>
      <trkpt lat="44.83815" lon="5.96582">
        <ele>1309.2</ele>
        <time>2021-06-26T10:35:17Z</time>
      </trkpt>
      <trkpt lat="44.83808" lon="5.96568">
        <ele>1310.2</ele>
        <time>2021-06-26T10:35:22Z</time>
      </trkpt>
      <trkpt lat="44.83804" lon="5.96559">
        <ele>1310.4</ele>
        <time>2021-06-26T10:35:25Z</time>
      </trkpt>
      <trkpt lat="44.83796" lon="5.96545">
        <ele>1311.2</ele>
        <time>2021-06-26T10:35:30Z</time>
      </trkpt>
      <trkpt lat="44.8379" lon="5.96531">
        <ele>1312.2</ele>
        <time>2021-06-26T10:35:35Z</time>
      </trkpt>
      <trkpt lat="44.83782" lon="5.96518">
        <ele>1313.2</ele>
        <time>2021-06-26T10:35:40Z</time>
      </trkpt>
      <trkpt lat="44.83774" lon="5.96504">
        <ele>1314.2</ele>
        <time>2021-06-26T10:35:45Z</time>
      </trkpt>
      <trkpt lat="44.83772" lon="5.96501">
        <ele>1314.4</ele>
        <time>2021-06-26T10:35:46Z</time>
      </trkpt>
      <trkpt lat="44.83764" lon="5.96488">
        <ele>1315.4</ele>
        <time>2021-06-26T10:35:51Z</time>
      </trkpt>
      <trkpt lat="44.83757" lon="5.96474">
        <ele>1316.4</ele>
        <time>2021-06-26T10:35:56Z</time>
      </trkpt>
      <trkpt lat="44.83755" lon="5.96471">
        <ele>1316.6</ele>
        <time>2021-06-26T10:35:57Z</time>
      </trkpt>
      <trkpt lat="44.83747" lon="5.96457">
        <ele>1317.6</ele>
        <time>2021-06-26T10:36:02Z</time>
      </trkpt>
      <trkpt lat="44.8374" lon="5.96443">
        <ele>1318.4</ele>
        <time>2021-06-26T10:36:07Z</time>
      </trkpt>
      <trkpt lat="44.83739" lon="5.9644">
        <ele>1318.8</ele>
        <time>2021-06-26T10:36:08Z</time>
      </trkpt>
      <trkpt lat="44.83733" lon="5.96425">
        <ele>1319.8</ele>
        <time>2021-06-26T10:36:13Z</time>
      </trkpt>
      <trkpt lat="44.83731" lon="5.96415">
        <ele>1320.6</ele>
        <time>2021-06-26T10:36:16Z</time>
      </trkpt>
      <trkpt lat="44.8373" lon="5.96412">
        <ele>1320.8</ele>
        <time>2021-06-26T10:36:17Z</time>
      </trkpt>
      <trkpt lat="44.83728" lon="5.96401">
        <ele>1321.8</ele>
        <time>2021-06-26T10:36:20Z</time>
      </trkpt>
      <trkpt lat="44.83727" lon="5.96384">
        <ele>1323</ele>
        <time>2021-06-26T10:36:25Z</time>
      </trkpt>
      <trkpt lat="44.83726" lon="5.9638">
        <ele>1323.2</ele>
        <time>2021-06-26T10:36:26Z</time>
      </trkpt>
      <trkpt lat="44.83725" lon="5.96366">
        <ele>1324.2</ele>
        <time>2021-06-26T10:36:30Z</time>
      </trkpt>
      <trkpt lat="44.83725" lon="5.96351">
        <ele>1325.2</ele>
        <time>2021-06-26T10:36:34Z</time>
      </trkpt>
      <trkpt lat="44.83725" lon="5.96347">
        <ele>1325.4</ele>
        <time>2021-06-26T10:36:35Z</time>
      </trkpt>
      <trkpt lat="44.83725" lon="5.96341">
        <ele>1326.2</ele>
        <time>2021-06-26T10:36:37Z</time>
      </trkpt>
      <trkpt lat="44.83726" lon="5.96336">
        <ele>1326.4</ele>
        <time>2021-06-26T10:36:38Z</time>
      </trkpt>
      <trkpt lat="44.83727" lon="5.96326">
        <ele>1327.4</ele>
        <time>2021-06-26T10:36:41Z</time>
      </trkpt>
      <trkpt lat="44.83728" lon="5.96308">
        <ele>1328.4</ele>
        <time>2021-06-26T10:36:46Z</time>
      </trkpt>
      <trkpt lat="44.83728" lon="5.96291">
        <ele>1329.2</ele>
        <time>2021-06-26T10:36:51Z</time>
      </trkpt>
      <trkpt lat="44.83728" lon="5.96288">
        <ele>1329.2</ele>
        <time>2021-06-26T10:36:52Z</time>
      </trkpt>
      <trkpt lat="44.83729" lon="5.96274">
        <ele>1330.4</ele>
        <time>2021-06-26T10:36:56Z</time>
      </trkpt>
      <trkpt lat="44.83729" lon="5.9626">
        <ele>1331</ele>
        <time>2021-06-26T10:37:00Z</time>
      </trkpt>
      <trkpt lat="44.8373" lon="5.9625">
        <ele>1331.4</ele>
        <time>2021-06-26T10:37:03Z</time>
      </trkpt>
      <trkpt lat="44.83731" lon="5.96233">
        <ele>1332.6</ele>
        <time>2021-06-26T10:37:08Z</time>
      </trkpt>
      <trkpt lat="44.83733" lon="5.96222">
        <ele>1333</ele>
        <time>2021-06-26T10:37:11Z</time>
      </trkpt>
      <trkpt lat="44.83735" lon="5.96211">
        <ele>1333.6</ele>
        <time>2021-06-26T10:37:14Z</time>
      </trkpt>
      <trkpt lat="44.83738" lon="5.96195">
        <ele>1334.8</ele>
        <time>2021-06-26T10:37:19Z</time>
      </trkpt>
      <trkpt lat="44.83743" lon="5.96171">
        <ele>1336</ele>
        <time>2021-06-26T10:37:26Z</time>
      </trkpt>
      <trkpt lat="44.83747" lon="5.96152">
        <ele>1337.4</ele>
        <time>2021-06-26T10:37:31Z</time>
      </trkpt>
      <trkpt lat="44.83748" lon="5.96148">
        <ele>1337.2</ele>
        <time>2021-06-26T10:37:32Z</time>
      </trkpt>
      <trkpt lat="44.83751" lon="5.96135">
        <ele>1338.2</ele>
        <time>2021-06-26T10:37:36Z</time>
      </trkpt>
      <trkpt lat="44.83753" lon="5.96121">
        <ele>1339</ele>
        <time>2021-06-26T10:37:40Z</time>
      </trkpt>
      <trkpt lat="44.83754" lon="5.96118">
        <ele>1339.2</ele>
        <time>2021-06-26T10:37:41Z</time>
      </trkpt>
      <trkpt lat="44.83757" lon="5.96096">
        <ele>1340.2</ele>
        <time>2021-06-26T10:37:47Z</time>
      </trkpt>
      <trkpt lat="44.8376" lon="5.96079">
        <ele>1341.6</ele>
        <time>2021-06-26T10:37:52Z</time>
      </trkpt>
      <trkpt lat="44.83762" lon="5.9607">
        <ele>1342.4</ele>
        <time>2021-06-26T10:37:55Z</time>
      </trkpt>
      <trkpt lat="44.83762" lon="5.96067">
        <ele>1342.6</ele>
        <time>2021-06-26T10:37:56Z</time>
      </trkpt>
      <trkpt lat="44.83766" lon="5.96043">
        <ele>1343.6</ele>
        <time>2021-06-26T10:38:03Z</time>
      </trkpt>
      <trkpt lat="44.83766" lon="5.96039">
        <ele>1343.6</ele>
        <time>2021-06-26T10:38:04Z</time>
      </trkpt>
      <trkpt lat="44.8377" lon="5.96016">
        <ele>1345</ele>
        <time>2021-06-26T10:38:11Z</time>
      </trkpt>
      <trkpt lat="44.83773" lon="5.96007">
        <ele>1345.6</ele>
        <time>2021-06-26T10:38:14Z</time>
      </trkpt>
      <trkpt lat="44.83775" lon="5.96001">
        <ele>1346</ele>
        <time>2021-06-26T10:38:16Z</time>
      </trkpt>
      <trkpt lat="44.8378" lon="5.9599">
        <ele>1347.2</ele>
        <time>2021-06-26T10:38:20Z</time>
      </trkpt>
      <trkpt lat="44.83787" lon="5.95976">
        <ele>1348.2</ele>
        <time>2021-06-26T10:38:25Z</time>
      </trkpt>
      <trkpt lat="44.83792" lon="5.95965">
        <ele>1349.4</ele>
        <time>2021-06-26T10:38:29Z</time>
      </trkpt>
      <trkpt lat="44.83797" lon="5.95957">
        <ele>1350</ele>
        <time>2021-06-26T10:38:32Z</time>
      </trkpt>
      <trkpt lat="44.838" lon="5.95952">
        <ele>1350.6</ele>
        <time>2021-06-26T10:38:34Z</time>
      </trkpt>
      <trkpt lat="44.83805" lon="5.95943">
        <ele>1351.6</ele>
        <time>2021-06-26T10:38:37Z</time>
      </trkpt>
      <trkpt lat="44.83813" lon="5.95929">
        <ele>1352.6</ele>
        <time>2021-06-26T10:38:42Z</time>
      </trkpt>
      <trkpt lat="44.83814" lon="5.95927">
        <ele>1353</ele>
        <time>2021-06-26T10:38:43Z</time>
      </trkpt>
      <trkpt lat="44.83821" lon="5.95916">
        <ele>1354.2</ele>
        <time>2021-06-26T10:38:47Z</time>
      </trkpt>
      <trkpt lat="44.83828" lon="5.95906">
        <ele>1355.4</ele>
        <time>2021-06-26T10:38:51Z</time>
      </trkpt>
      <trkpt lat="44.83836" lon="5.95894">
        <ele>1356.4</ele>
        <time>2021-06-26T10:38:56Z</time>
      </trkpt>
      <trkpt lat="44.83843" lon="5.95885">
        <ele>1357.4</ele>
        <time>2021-06-26T10:39:00Z</time>
      </trkpt>
      <trkpt lat="44.83845" lon="5.95882">
        <ele>1357.4</ele>
        <time>2021-06-26T10:39:01Z</time>
      </trkpt>
      <trkpt lat="44.83851" lon="5.95872">
        <ele>1358.6</ele>
        <time>2021-06-26T10:39:05Z</time>
      </trkpt>
      <trkpt lat="44.8386" lon="5.95861">
        <ele>1359.4</ele>
        <time>2021-06-26T10:39:10Z</time>
      </trkpt>
      <trkpt lat="44.83861" lon="5.95859">
        <ele>1359.6</ele>
        <time>2021-06-26T10:39:11Z</time>
      </trkpt>
      <trkpt lat="44.83872" lon="5.95845">
        <ele>1360.6</ele>
        <time>2021-06-26T10:39:17Z</time>
      </trkpt>
      <trkpt lat="44.83874" lon="5.95843">
        <ele>1361</ele>
        <time>2021-06-26T10:39:18Z</time>
      </trkpt>
      <trkpt lat="44.83881" lon="5.95835">
        <ele>1361.6</ele>
        <time>2021-06-26T10:39:22Z</time>
      </trkpt>
      <trkpt lat="44.83888" lon="5.9583">
        <ele>1362.2</ele>
        <time>2021-06-26T10:39:25Z</time>
      </trkpt>
      <trkpt lat="44.83893" lon="5.95824">
        <ele>1363</ele>
        <time>2021-06-26T10:39:28Z</time>
      </trkpt>
      <trkpt lat="44.83901" lon="5.95815">
        <ele>1364</ele>
        <time>2021-06-26T10:39:32Z</time>
      </trkpt>
      <trkpt lat="44.83907" lon="5.95808">
        <ele>1364.6</ele>
        <time>2021-06-26T10:39:35Z</time>
      </trkpt>
      <trkpt lat="44.83911" lon="5.95804">
        <ele>1365.2</ele>
        <time>2021-06-26T10:39:37Z</time>
      </trkpt>
      <trkpt lat="44.8392" lon="5.95794">
        <ele>1366</ele>
        <time>2021-06-26T10:39:42Z</time>
      </trkpt>
      <trkpt lat="44.83924" lon="5.95789">
        <ele>1366.2</ele>
        <time>2021-06-26T10:39:44Z</time>
      </trkpt>
      <trkpt lat="44.83928" lon="5.95785">
        <ele>1366.8</ele>
        <time>2021-06-26T10:39:46Z</time>
      </trkpt>
      <trkpt lat="44.83932" lon="5.95781">
        <ele>1367.2</ele>
        <time>2021-06-26T10:39:48Z</time>
      </trkpt>
      <trkpt lat="44.83938" lon="5.95774">
        <ele>1368</ele>
        <time>2021-06-26T10:39:51Z</time>
      </trkpt>
      <trkpt lat="44.83941" lon="5.9577">
        <ele>1368.4</ele>
        <time>2021-06-26T10:39:53Z</time>
      </trkpt>
      <trkpt lat="44.83949" lon="5.95762">
        <ele>1369.4</ele>
        <time>2021-06-26T10:39:57Z</time>
      </trkpt>
      <trkpt lat="44.8396" lon="5.95748">
        <ele>1370.4</ele>
        <time>2021-06-26T10:40:03Z</time>
      </trkpt>
      <trkpt lat="44.83962" lon="5.95746">
        <ele>1370.6</ele>
        <time>2021-06-26T10:40:04Z</time>
      </trkpt>
      <trkpt lat="44.8397" lon="5.95737">
        <ele>1371.6</ele>
        <time>2021-06-26T10:40:08Z</time>
      </trkpt>
      <trkpt lat="44.83982" lon="5.95725">
        <ele>1372.6</ele>
        <time>2021-06-26T10:40:14Z</time>
      </trkpt>
      <trkpt lat="44.83986" lon="5.95722">
        <ele>1373.4</ele>
        <time>2021-06-26T10:40:16Z</time>
      </trkpt>
      <trkpt lat="44.83989" lon="5.9572">
        <ele>1373.6</ele>
        <time>2021-06-26T10:40:17Z</time>
      </trkpt>
      <trkpt lat="44.83994" lon="5.95716">
        <ele>1373.8</ele>
        <time>2021-06-26T10:40:19Z</time>
      </trkpt>
      <trkpt lat="44.84008" lon="5.9571">
        <ele>1375</ele>
        <time>2021-06-26T10:40:24Z</time>
      </trkpt>
      <trkpt lat="44.8401" lon="5.95708">
        <ele>1375.2</ele>
        <time>2021-06-26T10:40:25Z</time>
      </trkpt>
      <trkpt lat="44.84024" lon="5.95701">
        <ele>1376</ele>
        <time>2021-06-26T10:40:30Z</time>
      </trkpt>
      <trkpt lat="44.84035" lon="5.95696">
        <ele>1377</ele>
        <time>2021-06-26T10:40:35Z</time>
      </trkpt>
      <trkpt lat="44.84038" lon="5.95695">
        <ele>1377.6</ele>
        <time>2021-06-26T10:40:36Z</time>
      </trkpt>
      <trkpt lat="44.84048" lon="5.95689">
        <ele>1378.6</ele>
        <time>2021-06-26T10:40:41Z</time>
      </trkpt>
      <trkpt lat="44.84051" lon="5.95688">
        <ele>1378.6</ele>
        <time>2021-06-26T10:40:42Z</time>
      </trkpt>
      <trkpt lat="44.84063" lon="5.95683">
        <ele>1379.2</ele>
        <time>2021-06-26T10:40:47Z</time>
      </trkpt>
      <trkpt lat="44.84068" lon="5.95681">
        <ele>1379.6</ele>
        <time>2021-06-26T10:40:49Z</time>
      </trkpt>
      <trkpt lat="44.84073" lon="5.95679">
        <ele>1380.2</ele>
        <time>2021-06-26T10:40:51Z</time>
      </trkpt>
      <trkpt lat="44.8408" lon="5.95676">
        <ele>1381</ele>
        <time>2021-06-26T10:40:54Z</time>
      </trkpt>
      <trkpt lat="44.84089" lon="5.95672">
        <ele>1382</ele>
        <time>2021-06-26T10:40:58Z</time>
      </trkpt>
      <trkpt lat="44.84097" lon="5.95668">
        <ele>1383.2</ele>
        <time>2021-06-26T10:41:02Z</time>
      </trkpt>
      <trkpt lat="44.8411" lon="5.95664">
        <ele>1384.2</ele>
        <time>2021-06-26T10:41:08Z</time>
      </trkpt>
      <trkpt lat="44.84114" lon="5.95663">
        <ele>1384.4</ele>
        <time>2021-06-26T10:41:10Z</time>
      </trkpt>
      <trkpt lat="44.84124" lon="5.95659">
        <ele>1385.2</ele>
        <time>2021-06-26T10:41:15Z</time>
      </trkpt>
      <trkpt lat="44.84135" lon="5.95656">
        <ele>1386.2</ele>
        <time>2021-06-26T10:41:20Z</time>
      </trkpt>
      <trkpt lat="44.84146" lon="5.95655">
        <ele>1387</ele>
        <time>2021-06-26T10:41:25Z</time>
      </trkpt>
      <trkpt lat="44.84152" lon="5.95654">
        <ele>1387.4</ele>
        <time>2021-06-26T10:41:28Z</time>
      </trkpt>
      <trkpt lat="44.84155" lon="5.95654">
        <ele>1387.4</ele>
        <time>2021-06-26T10:41:29Z</time>
      </trkpt>
      <trkpt lat="44.84168" lon="5.95651">
        <ele>1388.6</ele>
        <time>2021-06-26T10:41:35Z</time>
      </trkpt>
      <trkpt lat="44.84175" lon="5.95649">
        <ele>1389</ele>
        <time>2021-06-26T10:41:38Z</time>
      </trkpt>
      <trkpt lat="44.84182" lon="5.95645">
        <ele>1389.6</ele>
        <time>2021-06-26T10:41:41Z</time>
      </trkpt>
      <trkpt lat="44.84188" lon="5.95639">
        <ele>1390.6</ele>
        <time>2021-06-26T10:41:44Z</time>
      </trkpt>
      <trkpt lat="44.84192" lon="5.95634">
        <ele>1391.2</ele>
        <time>2021-06-26T10:41:46Z</time>
      </trkpt>
      <trkpt lat="44.84194" lon="5.95628">
        <ele>1391.8</ele>
        <time>2021-06-26T10:41:48Z</time>
      </trkpt>
      <trkpt lat="44.84195" lon="5.95615">
        <ele>1392.4</ele>
        <time>2021-06-26T10:41:52Z</time>
      </trkpt>
      <trkpt lat="44.84194" lon="5.95605">
        <ele>1393</ele>
        <time>2021-06-26T10:41:55Z</time>
      </trkpt>
      <trkpt lat="44.84192" lon="5.9558">
        <ele>1394</ele>
        <time>2021-06-26T10:42:03Z</time>
      </trkpt>
      <trkpt lat="44.8419" lon="5.95561">
        <ele>1395.2</ele>
        <time>2021-06-26T10:42:09Z</time>
      </trkpt>
      <trkpt lat="44.8419" lon="5.95551">
        <ele>1395.6</ele>
        <time>2021-06-26T10:42:12Z</time>
      </trkpt>
      <trkpt lat="44.84191" lon="5.95539">
        <ele>1396.4</ele>
        <time>2021-06-26T10:42:16Z</time>
      </trkpt>
      <trkpt lat="44.84196" lon="5.95523">
        <ele>1397.2</ele>
        <time>2021-06-26T10:42:21Z</time>
      </trkpt>
      <trkpt lat="44.84197" lon="5.9552">
        <ele>1397.4</ele>
        <time>2021-06-26T10:42:22Z</time>
      </trkpt>
      <trkpt lat="44.84203" lon="5.9551">
        <ele>1398.4</ele>
        <time>2021-06-26T10:42:26Z</time>
      </trkpt>
      <trkpt lat="44.8421" lon="5.95493">
        <ele>1399.2</ele>
        <time>2021-06-26T10:42:32Z</time>
      </trkpt>
      <trkpt lat="44.84211" lon="5.95491">
        <ele>1399.4</ele>
        <time>2021-06-26T10:42:33Z</time>
      </trkpt>
      <trkpt lat="44.84219" lon="5.95479">
        <ele>1400.6</ele>
        <time>2021-06-26T10:42:38Z</time>
      </trkpt>
      <trkpt lat="44.84226" lon="5.95467">
        <ele>1401.6</ele>
        <time>2021-06-26T10:42:43Z</time>
      </trkpt>
      <trkpt lat="44.84233" lon="5.95459">
        <ele>1402.8</ele>
        <time>2021-06-26T10:42:47Z</time>
      </trkpt>
      <trkpt lat="44.84242" lon="5.9545">
        <ele>1403.8</ele>
        <time>2021-06-26T10:42:52Z</time>
      </trkpt>
      <trkpt lat="44.84252" lon="5.9544">
        <ele>1405</ele>
        <time>2021-06-26T10:42:57Z</time>
      </trkpt>
      <trkpt lat="44.84261" lon="5.9543">
        <ele>1406</ele>
        <time>2021-06-26T10:43:02Z</time>
      </trkpt>
      <trkpt lat="44.84263" lon="5.95427">
        <ele>1406.4</ele>
        <time>2021-06-26T10:43:03Z</time>
      </trkpt>
      <trkpt lat="44.84272" lon="5.95415">
        <ele>1407.4</ele>
        <time>2021-06-26T10:43:08Z</time>
      </trkpt>
      <trkpt lat="44.84276" lon="5.95407">
        <ele>1408</ele>
        <time>2021-06-26T10:43:11Z</time>
      </trkpt>
      <trkpt lat="44.84278" lon="5.95401">
        <ele>1408.4</ele>
        <time>2021-06-26T10:43:13Z</time>
      </trkpt>
      <trkpt lat="44.84286" lon="5.95383">
        <ele>1409.4</ele>
        <time>2021-06-26T10:43:20Z</time>
      </trkpt>
      <trkpt lat="44.84289" lon="5.95374">
        <ele>1410</ele>
        <time>2021-06-26T10:43:23Z</time>
      </trkpt>
      <trkpt lat="44.84292" lon="5.95365">
        <ele>1410.6</ele>
        <time>2021-06-26T10:43:26Z</time>
      </trkpt>
      <trkpt lat="44.84299" lon="5.95346">
        <ele>1411.6</ele>
        <time>2021-06-26T10:43:33Z</time>
      </trkpt>
      <trkpt lat="44.843" lon="5.95344">
        <ele>1412</ele>
        <time>2021-06-26T10:43:34Z</time>
      </trkpt>
      <trkpt lat="44.84305" lon="5.95327">
        <ele>1412.8</ele>
        <time>2021-06-26T10:43:40Z</time>
      </trkpt>
      <trkpt lat="44.84306" lon="5.95324">
        <ele>1413.2</ele>
        <time>2021-06-26T10:43:41Z</time>
      </trkpt>
      <trkpt lat="44.84309" lon="5.95316">
        <ele>1413.8</ele>
        <time>2021-06-26T10:43:44Z</time>
      </trkpt>
      <trkpt lat="44.84315" lon="5.95299">
        <ele>1414.6</ele>
        <time>2021-06-26T10:43:50Z</time>
      </trkpt>
      <trkpt lat="44.84317" lon="5.95296">
        <ele>1414.6</ele>
        <time>2021-06-26T10:43:51Z</time>
      </trkpt>
      <trkpt lat="44.84323" lon="5.9528">
        <ele>1415.8</ele>
        <time>2021-06-26T10:43:57Z</time>
      </trkpt>
      <trkpt lat="44.84328" lon="5.95264">
        <ele>1417.2</ele>
        <time>2021-06-26T10:44:02Z</time>
      </trkpt>
      <trkpt lat="44.84329" lon="5.95257">
        <ele>1417.8</ele>
        <time>2021-06-26T10:44:04Z</time>
      </trkpt>
      <trkpt lat="44.8433" lon="5.9525">
        <ele>1418.2</ele>
        <time>2021-06-26T10:44:06Z</time>
      </trkpt>
      <trkpt lat="44.84327" lon="5.95226">
        <ele>1419.4</ele>
        <time>2021-06-26T10:44:13Z</time>
      </trkpt>
      <trkpt lat="44.84321" lon="5.95198">
        <ele>1420.4</ele>
        <time>2021-06-26T10:44:20Z</time>
      </trkpt>
      <trkpt lat="44.84321" lon="5.95194">
        <ele>1420.6</ele>
        <time>2021-06-26T10:44:21Z</time>
      </trkpt>
      <trkpt lat="44.84319" lon="5.9518">
        <ele>1421.6</ele>
        <time>2021-06-26T10:44:25Z</time>
      </trkpt>
      <trkpt lat="44.8432" lon="5.95173">
        <ele>1422.4</ele>
        <time>2021-06-26T10:44:28Z</time>
      </trkpt>
      <trkpt lat="44.84323" lon="5.95167">
        <ele>1422.6</ele>
        <time>2021-06-26T10:44:29Z</time>
      </trkpt>
      <trkpt lat="44.84325" lon="5.95166">
        <ele>1422.8</ele>
        <time>2021-06-26T10:44:30Z</time>
      </trkpt>
      <trkpt lat="44.84325" lon="5.95166">
        <ele>1423</ele>
        <time>2021-06-26T10:44:31Z</time>
      </trkpt>
      <trkpt lat="44.84328" lon="5.95166">
        <ele>1423.2</ele>
        <time>2021-06-26T10:44:32Z</time>
      </trkpt>
      <trkpt lat="44.84334" lon="5.95173">
        <ele>1423.6</ele>
        <time>2021-06-26T10:44:34Z</time>
      </trkpt>
      <trkpt lat="44.84334" lon="5.95177">
        <ele>1424</ele>
        <time>2021-06-26T10:44:35Z</time>
      </trkpt>
      <trkpt lat="44.84337" lon="5.95199">
        <ele>1425</ele>
        <time>2021-06-26T10:44:41Z</time>
      </trkpt>
      <trkpt lat="44.84338" lon="5.95202">
        <ele>1425.4</ele>
        <time>2021-06-26T10:44:42Z</time>
      </trkpt>
      <trkpt lat="44.84338" lon="5.9522">
        <ele>1426.4</ele>
        <time>2021-06-26T10:44:48Z</time>
      </trkpt>
      <trkpt lat="44.84338" lon="5.95221">
        <ele>1427</ele>
        <time>2021-06-26T10:44:51Z</time>
      </trkpt>
      <trkpt lat="44.84338" lon="5.95221">
        <ele>1428</ele>
        <time>2021-06-26T10:45:30Z</time>
      </trkpt>
      <trkpt lat="44.8434" lon="5.95228">
        <ele>1428</ele>
        <time>2021-06-26T10:45:32Z</time>
      </trkpt>
      <trkpt lat="44.84344" lon="5.95258">
        <ele>1427.8</ele>
        <time>2021-06-26T10:45:38Z</time>
      </trkpt>
      <trkpt lat="44.84343" lon="5.95295">
        <ele>1428.6</ele>
        <time>2021-06-26T10:45:45Z</time>
      </trkpt>
      <trkpt lat="44.84342" lon="5.95303">
        <ele>1429.2</ele>
        <time>2021-06-26T10:45:47Z</time>
      </trkpt>
      <trkpt lat="44.84339" lon="5.95319">
        <ele>1430.6</ele>
        <time>2021-06-26T10:45:52Z</time>
      </trkpt>
      <trkpt lat="44.84337" lon="5.95327">
        <ele>1431</ele>
        <time>2021-06-26T10:45:54Z</time>
      </trkpt>
      <trkpt lat="44.84335" lon="5.95342">
        <ele>1432</ele>
        <time>2021-06-26T10:45:57Z</time>
      </trkpt>
      <trkpt lat="44.84332" lon="5.95361">
        <ele>1433</ele>
        <time>2021-06-26T10:46:02Z</time>
      </trkpt>
      <trkpt lat="44.84332" lon="5.95372">
        <ele>1433.8</ele>
        <time>2021-06-26T10:46:05Z</time>
      </trkpt>
      <trkpt lat="44.84332" lon="5.95376">
        <ele>1434.2</ele>
        <time>2021-06-26T10:46:06Z</time>
      </trkpt>
      <trkpt lat="44.84333" lon="5.95403">
        <ele>1435.2</ele>
        <time>2021-06-26T10:46:13Z</time>
      </trkpt>
      <trkpt lat="44.84333" lon="5.95406">
        <ele>1435.4</ele>
        <time>2021-06-26T10:46:14Z</time>
      </trkpt>
      <trkpt lat="44.84334" lon="5.95421">
        <ele>1436.4</ele>
        <time>2021-06-26T10:46:18Z</time>
      </trkpt>
      <trkpt lat="44.84336" lon="5.9544">
        <ele>1437.2</ele>
        <time>2021-06-26T10:46:23Z</time>
      </trkpt>
      <trkpt lat="44.84336" lon="5.95444">
        <ele>1437.4</ele>
        <time>2021-06-26T10:46:24Z</time>
      </trkpt>
      <trkpt lat="44.84338" lon="5.95473">
        <ele>1438.4</ele>
        <time>2021-06-26T10:46:32Z</time>
      </trkpt>
      <trkpt lat="44.84339" lon="5.95488">
        <ele>1439.6</ele>
        <time>2021-06-26T10:46:36Z</time>
      </trkpt>
      <trkpt lat="44.8434" lon="5.95503">
        <ele>1440.6</ele>
        <time>2021-06-26T10:46:40Z</time>
      </trkpt>
      <trkpt lat="44.8434" lon="5.95506">
        <ele>1440.8</ele>
        <time>2021-06-26T10:46:41Z</time>
      </trkpt>
      <trkpt lat="44.8434" lon="5.95521">
        <ele>1441.6</ele>
        <time>2021-06-26T10:46:45Z</time>
      </trkpt>
      <trkpt lat="44.8434" lon="5.95525">
        <ele>1441.8</ele>
        <time>2021-06-26T10:46:46Z</time>
      </trkpt>
      <trkpt lat="44.84338" lon="5.95547">
        <ele>1442.6</ele>
        <time>2021-06-26T10:46:52Z</time>
      </trkpt>
      <trkpt lat="44.84338" lon="5.95551">
        <ele>1442.8</ele>
        <time>2021-06-26T10:46:53Z</time>
      </trkpt>
      <trkpt lat="44.84337" lon="5.95565">
        <ele>1443.6</ele>
        <time>2021-06-26T10:46:57Z</time>
      </trkpt>
      <trkpt lat="44.84336" lon="5.95576">
        <ele>1444.6</ele>
        <time>2021-06-26T10:47:00Z</time>
      </trkpt>
      <trkpt lat="44.84332" lon="5.95603">
        <ele>1445.8</ele>
        <time>2021-06-26T10:47:07Z</time>
      </trkpt>
      <trkpt lat="44.8433" lon="5.95618">
        <ele>1446.8</ele>
        <time>2021-06-26T10:47:11Z</time>
      </trkpt>
      <trkpt lat="44.84328" lon="5.95635">
        <ele>1448.2</ele>
        <time>2021-06-26T10:47:16Z</time>
      </trkpt>
      <trkpt lat="44.84326" lon="5.9565">
        <ele>1449.2</ele>
        <time>2021-06-26T10:47:20Z</time>
      </trkpt>
      <trkpt lat="44.84324" lon="5.95671">
        <ele>1450.2</ele>
        <time>2021-06-26T10:47:27Z</time>
      </trkpt>
      <trkpt lat="44.84323" lon="5.95674">
        <ele>1450.6</ele>
        <time>2021-06-26T10:47:28Z</time>
      </trkpt>
      <trkpt lat="44.84321" lon="5.95688">
        <ele>1451.6</ele>
        <time>2021-06-26T10:47:32Z</time>
      </trkpt>
      <trkpt lat="44.84318" lon="5.95715">
        <ele>1452.6</ele>
        <time>2021-06-26T10:47:39Z</time>
      </trkpt>
      <trkpt lat="44.84318" lon="5.95718">
        <ele>1453</ele>
        <time>2021-06-26T10:47:40Z</time>
      </trkpt>
      <trkpt lat="44.84317" lon="5.95733">
        <ele>1453.6</ele>
        <time>2021-06-26T10:47:44Z</time>
      </trkpt>
      <trkpt lat="44.84315" lon="5.95746">
        <ele>1454.6</ele>
        <time>2021-06-26T10:47:48Z</time>
      </trkpt>
      <trkpt lat="44.84314" lon="5.95756">
        <ele>1455.2</ele>
        <time>2021-06-26T10:47:52Z</time>
      </trkpt>
      <trkpt lat="44.84313" lon="5.95767">
        <ele>1455.8</ele>
        <time>2021-06-26T10:47:54Z</time>
      </trkpt>
      <trkpt lat="44.8431" lon="5.95789">
        <ele>1456.8</ele>
        <time>2021-06-26T10:48:00Z</time>
      </trkpt>
      <trkpt lat="44.84309" lon="5.95803">
        <ele>1457.8</ele>
        <time>2021-06-26T10:48:04Z</time>
      </trkpt>
      <trkpt lat="44.84308" lon="5.95822">
        <ele>1459</ele>
        <time>2021-06-26T10:48:09Z</time>
      </trkpt>
      <trkpt lat="44.84307" lon="5.95826">
        <ele>1459.2</ele>
        <time>2021-06-26T10:48:10Z</time>
      </trkpt>
      <trkpt lat="44.84305" lon="5.95837">
        <ele>1460</ele>
        <time>2021-06-26T10:48:13Z</time>
      </trkpt>
      <trkpt lat="44.843" lon="5.95851">
        <ele>1461.4</ele>
        <time>2021-06-26T10:48:17Z</time>
      </trkpt>
      <trkpt lat="44.84292" lon="5.95865">
        <ele>1462</ele>
        <time>2021-06-26T10:48:21Z</time>
      </trkpt>
      <trkpt lat="44.84289" lon="5.95867">
        <ele>1462.4</ele>
        <time>2021-06-26T10:48:22Z</time>
      </trkpt>
      <trkpt lat="44.84272" lon="5.95875">
        <ele>1463.8</ele>
        <time>2021-06-26T10:48:28Z</time>
      </trkpt>
      <trkpt lat="44.84264" lon="5.95874">
        <ele>1464.8</ele>
        <time>2021-06-26T10:48:31Z</time>
      </trkpt>
      <trkpt lat="44.84252" lon="5.95871">
        <ele>1465.8</ele>
        <time>2021-06-26T10:48:36Z</time>
      </trkpt>
      <trkpt lat="44.8425" lon="5.95871">
        <ele>1465.8</ele>
        <time>2021-06-26T10:48:37Z</time>
      </trkpt>
      <trkpt lat="44.84239" lon="5.95869">
        <ele>1466.8</ele>
        <time>2021-06-26T10:48:41Z</time>
      </trkpt>
      <trkpt lat="44.8423" lon="5.95867">
        <ele>1468</ele>
        <time>2021-06-26T10:48:45Z</time>
      </trkpt>
      <trkpt lat="44.84227" lon="5.95867">
        <ele>1468.2</ele>
        <time>2021-06-26T10:48:46Z</time>
      </trkpt>
      <trkpt lat="44.8422" lon="5.95865">
        <ele>1469</ele>
        <time>2021-06-26T10:48:49Z</time>
      </trkpt>
      <trkpt lat="44.84208" lon="5.95864">
        <ele>1470</ele>
        <time>2021-06-26T10:48:54Z</time>
      </trkpt>
      <trkpt lat="44.84205" lon="5.95864">
        <ele>1470.2</ele>
        <time>2021-06-26T10:48:55Z</time>
      </trkpt>
      <trkpt lat="44.84192" lon="5.95865">
        <ele>1471.2</ele>
        <time>2021-06-26T10:49:00Z</time>
      </trkpt>
      <trkpt lat="44.8418" lon="5.95867">
        <ele>1472.4</ele>
        <time>2021-06-26T10:49:05Z</time>
      </trkpt>
      <trkpt lat="44.84177" lon="5.95868">
        <ele>1472.6</ele>
        <time>2021-06-26T10:49:06Z</time>
      </trkpt>
      <trkpt lat="44.84165" lon="5.95871">
        <ele>1473.6</ele>
        <time>2021-06-26T10:49:11Z</time>
      </trkpt>
      <trkpt lat="44.84154" lon="5.95877">
        <ele>1474.6</ele>
        <time>2021-06-26T10:49:16Z</time>
      </trkpt>
      <trkpt lat="44.84152" lon="5.95878">
        <ele>1474.8</ele>
        <time>2021-06-26T10:49:17Z</time>
      </trkpt>
      <trkpt lat="44.84145" lon="5.95882">
        <ele>1475.8</ele>
        <time>2021-06-26T10:49:20Z</time>
      </trkpt>
      <trkpt lat="44.84132" lon="5.9589">
        <ele>1476.8</ele>
        <time>2021-06-26T10:49:26Z</time>
      </trkpt>
      <trkpt lat="44.84129" lon="5.95892">
        <ele>1477.2</ele>
        <time>2021-06-26T10:49:27Z</time>
      </trkpt>
      <trkpt lat="44.84123" lon="5.95897">
        <ele>1478</ele>
        <time>2021-06-26T10:49:30Z</time>
      </trkpt>
      <trkpt lat="44.84107" lon="5.9591">
        <ele>1479.2</ele>
        <time>2021-06-26T10:49:37Z</time>
      </trkpt>
      <trkpt lat="44.84094" lon="5.95923">
        <ele>1480.4</ele>
        <time>2021-06-26T10:49:44Z</time>
      </trkpt>
      <trkpt lat="44.84084" lon="5.95935">
        <ele>1481.2</ele>
        <time>2021-06-26T10:49:49Z</time>
      </trkpt>
      <trkpt lat="44.84084" lon="5.95935">
        <ele>1481.4</ele>
        <time>2021-06-26T10:49:50Z</time>
      </trkpt>
      <trkpt lat="44.84073" lon="5.95947">
        <ele>1482.6</ele>
        <time>2021-06-26T10:49:55Z</time>
      </trkpt>
      <trkpt lat="44.84063" lon="5.9596">
        <ele>1483.6</ele>
        <time>2021-06-26T10:50:01Z</time>
      </trkpt>
      <trkpt lat="44.84061" lon="5.95963">
        <ele>1483.8</ele>
        <time>2021-06-26T10:50:02Z</time>
      </trkpt>
      <trkpt lat="44.84052" lon="5.95975">
        <ele>1484.8</ele>
        <time>2021-06-26T10:50:07Z</time>
      </trkpt>
      <trkpt lat="44.84043" lon="5.95987">
        <ele>1485.8</ele>
        <time>2021-06-26T10:50:12Z</time>
      </trkpt>
      <trkpt lat="44.8404" lon="5.95992">
        <ele>1486.6</ele>
        <time>2021-06-26T10:50:15Z</time>
      </trkpt>
      <trkpt lat="44.84035" lon="5.95999">
        <ele>1487</ele>
        <time>2021-06-26T10:50:17Z</time>
      </trkpt>
      <trkpt lat="44.84025" lon="5.96014">
        <ele>1487.8</ele>
        <time>2021-06-26T10:50:23Z</time>
      </trkpt>
      <trkpt lat="44.84022" lon="5.9602">
        <ele>1488.4</ele>
        <time>2021-06-26T10:50:25Z</time>
      </trkpt>
      <trkpt lat="44.84022" lon="5.96034">
        <ele>1489.4</ele>
        <time>2021-06-26T10:50:29Z</time>
      </trkpt>
      <trkpt lat="44.84023" lon="5.96037">
        <ele>1489.4</ele>
        <time>2021-06-26T10:50:30Z</time>
      </trkpt>
      <trkpt lat="44.84031" lon="5.9604">
        <ele>1490.2</ele>
        <time>2021-06-26T10:50:33Z</time>
      </trkpt>
      <trkpt lat="44.8404" lon="5.96031">
        <ele>1490.6</ele>
        <time>2021-06-26T10:50:37Z</time>
      </trkpt>
      <trkpt lat="44.84042" lon="5.96028">
        <ele>1490.6</ele>
        <time>2021-06-26T10:50:38Z</time>
      </trkpt>
      <trkpt lat="44.8405" lon="5.96014">
        <ele>1491.8</ele>
        <time>2021-06-26T10:50:42Z</time>
      </trkpt>
      <trkpt lat="44.84055" lon="5.96004">
        <ele>1492.4</ele>
        <time>2021-06-26T10:50:45Z</time>
      </trkpt>
      <trkpt lat="44.84064" lon="5.95994">
        <ele>1492.8</ele>
        <time>2021-06-26T10:50:49Z</time>
      </trkpt>
      <trkpt lat="44.84075" lon="5.95983">
        <ele>1493.8</ele>
        <time>2021-06-26T10:50:54Z</time>
      </trkpt>
      <trkpt lat="44.84077" lon="5.95981">
        <ele>1494</ele>
        <time>2021-06-26T10:50:55Z</time>
      </trkpt>
      <trkpt lat="44.84088" lon="5.95973">
        <ele>1495</ele>
        <time>2021-06-26T10:51:00Z</time>
      </trkpt>
      <trkpt lat="44.841" lon="5.95964">
        <ele>1495.8</ele>
        <time>2021-06-26T10:51:04Z</time>
      </trkpt>
      <trkpt lat="44.84102" lon="5.95962">
        <ele>1496.2</ele>
        <time>2021-06-26T10:51:05Z</time>
      </trkpt>
      <trkpt lat="44.84118" lon="5.95952">
        <ele>1497.2</ele>
        <time>2021-06-26T10:51:11Z</time>
      </trkpt>
      <trkpt lat="44.84129" lon="5.95949">
        <ele>1498.2</ele>
        <time>2021-06-26T10:51:15Z</time>
      </trkpt>
      <trkpt lat="44.84137" lon="5.95947">
        <ele>1498.6</ele>
        <time>2021-06-26T10:51:18Z</time>
      </trkpt>
      <trkpt lat="44.84145" lon="5.95945">
        <ele>1499.4</ele>
        <time>2021-06-26T10:51:21Z</time>
      </trkpt>
      <trkpt lat="44.8416" lon="5.95943">
        <ele>1499.6</ele>
        <time>2021-06-26T10:51:27Z</time>
      </trkpt>
      <trkpt lat="44.84165" lon="5.95943">
        <ele>1500.4</ele>
        <time>2021-06-26T10:51:29Z</time>
      </trkpt>
      <trkpt lat="44.84182" lon="5.95949">
        <ele>1500.8</ele>
        <time>2021-06-26T10:51:35Z</time>
      </trkpt>
      <trkpt lat="44.84187" lon="5.95953">
        <ele>1501.2</ele>
        <time>2021-06-26T10:51:37Z</time>
      </trkpt>
      <trkpt lat="44.84198" lon="5.95966">
        <ele>1502.6</ele>
        <time>2021-06-26T10:51:42Z</time>
      </trkpt>
      <trkpt lat="44.84206" lon="5.95983">
        <ele>1503.6</ele>
        <time>2021-06-26T10:51:47Z</time>
      </trkpt>
      <trkpt lat="44.84209" lon="5.95991">
        <ele>1504.2</ele>
        <time>2021-06-26T10:51:50Z</time>
      </trkpt>
      <trkpt lat="44.84212" lon="5.95999">
        <ele>1504.6</ele>
        <time>2021-06-26T10:51:52Z</time>
      </trkpt>
      <trkpt lat="44.84224" lon="5.96027">
        <ele>1505.8</ele>
        <time>2021-06-26T10:51:59Z</time>
      </trkpt>
      <trkpt lat="44.84225" lon="5.96031">
        <ele>1506</ele>
        <time>2021-06-26T10:52:00Z</time>
      </trkpt>
      <trkpt lat="44.8423" lon="5.96044">
        <ele>1506.8</ele>
        <time>2021-06-26T10:52:04Z</time>
      </trkpt>
      <trkpt lat="44.84237" lon="5.96059">
        <ele>1508</ele>
        <time>2021-06-26T10:52:09Z</time>
      </trkpt>
      <trkpt lat="44.84245" lon="5.96077">
        <ele>1509</ele>
        <time>2021-06-26T10:52:15Z</time>
      </trkpt>
      <trkpt lat="44.84251" lon="5.96088">
        <ele>1509.6</ele>
        <time>2021-06-26T10:52:19Z</time>
      </trkpt>
      <trkpt lat="44.84252" lon="5.96091">
        <ele>1510</ele>
        <time>2021-06-26T10:52:20Z</time>
      </trkpt>
      <trkpt lat="44.84262" lon="5.96111">
        <ele>1511</ele>
        <time>2021-06-26T10:52:27Z</time>
      </trkpt>
      <trkpt lat="44.84268" lon="5.96122">
        <ele>1511.8</ele>
        <time>2021-06-26T10:52:31Z</time>
      </trkpt>
      <trkpt lat="44.84269" lon="5.96125">
        <ele>1512.2</ele>
        <time>2021-06-26T10:52:32Z</time>
      </trkpt>
      <trkpt lat="44.84276" lon="5.96135">
        <ele>1513.2</ele>
        <time>2021-06-26T10:52:36Z</time>
      </trkpt>
      <trkpt lat="44.84286" lon="5.9615">
        <ele>1514.2</ele>
        <time>2021-06-26T10:52:42Z</time>
      </trkpt>
      <trkpt lat="44.84288" lon="5.96152">
        <ele>1514.6</ele>
        <time>2021-06-26T10:52:43Z</time>
      </trkpt>
      <trkpt lat="44.84297" lon="5.96164">
        <ele>1515.6</ele>
        <time>2021-06-26T10:52:48Z</time>
      </trkpt>
      <trkpt lat="44.8431" lon="5.9618">
        <ele>1516.8</ele>
        <time>2021-06-26T10:52:55Z</time>
      </trkpt>
      <trkpt lat="44.84323" lon="5.96195">
        <ele>1518</ele>
        <time>2021-06-26T10:53:02Z</time>
      </trkpt>
      <trkpt lat="44.84335" lon="5.96209">
        <ele>1519</ele>
        <time>2021-06-26T10:53:08Z</time>
      </trkpt>
      <trkpt lat="44.84335" lon="5.96209">
        <ele>1519.2</ele>
        <time>2021-06-26T10:53:09Z</time>
      </trkpt>
      <trkpt lat="44.84344" lon="5.9622">
        <ele>1520.4</ele>
        <time>2021-06-26T10:53:13Z</time>
      </trkpt>
      <trkpt lat="44.84351" lon="5.96229">
        <ele>1521</ele>
        <time>2021-06-26T10:53:17Z</time>
      </trkpt>
      <trkpt lat="44.84355" lon="5.96233">
        <ele>1521.6</ele>
        <time>2021-06-26T10:53:19Z</time>
      </trkpt>
      <trkpt lat="44.84363" lon="5.96243">
        <ele>1522.6</ele>
        <time>2021-06-26T10:53:23Z</time>
      </trkpt>
      <trkpt lat="44.84367" lon="5.96248">
        <ele>1522.8</ele>
        <time>2021-06-26T10:53:25Z</time>
      </trkpt>
      <trkpt lat="44.84375" lon="5.96256">
        <ele>1523.6</ele>
        <time>2021-06-26T10:53:29Z</time>
      </trkpt>
      <trkpt lat="44.84386" lon="5.96263">
        <ele>1524.6</ele>
        <time>2021-06-26T10:53:34Z</time>
      </trkpt>
      <trkpt lat="44.84398" lon="5.96269">
        <ele>1525.6</ele>
        <time>2021-06-26T10:53:39Z</time>
      </trkpt>
      <trkpt lat="44.84405" lon="5.96273">
        <ele>1526.4</ele>
        <time>2021-06-26T10:53:42Z</time>
      </trkpt>
      <trkpt lat="44.8441" lon="5.96274">
        <ele>1526.8</ele>
        <time>2021-06-26T10:53:44Z</time>
      </trkpt>
      <trkpt lat="44.84426" lon="5.96281">
        <ele>1528.2</ele>
        <time>2021-06-26T10:53:51Z</time>
      </trkpt>
      <trkpt lat="44.84433" lon="5.96283">
        <ele>1528.6</ele>
        <time>2021-06-26T10:53:54Z</time>
      </trkpt>
      <trkpt lat="44.84442" lon="5.96284">
        <ele>1529.4</ele>
        <time>2021-06-26T10:53:58Z</time>
      </trkpt>
      <trkpt lat="44.84455" lon="5.96284">
        <ele>1530.4</ele>
        <time>2021-06-26T10:54:03Z</time>
      </trkpt>
      <trkpt lat="44.84458" lon="5.96284">
        <ele>1530.6</ele>
        <time>2021-06-26T10:54:04Z</time>
      </trkpt>
      <trkpt lat="44.8447" lon="5.96282">
        <ele>1531.6</ele>
        <time>2021-06-26T10:54:09Z</time>
      </trkpt>
      <trkpt lat="44.84477" lon="5.9628">
        <ele>1532.6</ele>
        <time>2021-06-26T10:54:13Z</time>
      </trkpt>
      <trkpt lat="44.84482" lon="5.96279">
        <ele>1532.8</ele>
        <time>2021-06-26T10:54:14Z</time>
      </trkpt>
      <trkpt lat="44.84489" lon="5.96277">
        <ele>1533.8</ele>
        <time>2021-06-26T10:54:17Z</time>
      </trkpt>
      <trkpt lat="44.84498" lon="5.96274">
        <ele>1534.8</ele>
        <time>2021-06-26T10:54:21Z</time>
      </trkpt>
      <trkpt lat="44.84503" lon="5.96273">
        <ele>1535.2</ele>
        <time>2021-06-26T10:54:23Z</time>
      </trkpt>
      <trkpt lat="44.8451" lon="5.96271">
        <ele>1536</ele>
        <time>2021-06-26T10:54:26Z</time>
      </trkpt>
      <trkpt lat="44.84523" lon="5.96268">
        <ele>1537.2</ele>
        <time>2021-06-26T10:54:31Z</time>
      </trkpt>
      <trkpt lat="44.84526" lon="5.96267">
        <ele>1537.2</ele>
        <time>2021-06-26T10:54:32Z</time>
      </trkpt>
      <trkpt lat="44.84534" lon="5.96266">
        <ele>1538.2</ele>
        <time>2021-06-26T10:54:35Z</time>
      </trkpt>
      <trkpt lat="44.84546" lon="5.96265">
        <ele>1539.2</ele>
        <time>2021-06-26T10:54:40Z</time>
      </trkpt>
      <trkpt lat="44.84554" lon="5.96265">
        <ele>1539.8</ele>
        <time>2021-06-26T10:54:43Z</time>
      </trkpt>
      <trkpt lat="44.84559" lon="5.96265">
        <ele>1540.2</ele>
        <time>2021-06-26T10:54:45Z</time>
      </trkpt>
      <trkpt lat="44.84574" lon="5.96265">
        <ele>1541</ele>
        <time>2021-06-26T10:54:51Z</time>
      </trkpt>
      <trkpt lat="44.84577" lon="5.96265">
        <ele>1541.2</ele>
        <time>2021-06-26T10:54:52Z</time>
      </trkpt>
      <trkpt lat="44.84602" lon="5.96264">
        <ele>1542.2</ele>
        <time>2021-06-26T10:55:01Z</time>
      </trkpt>
      <trkpt lat="44.84625" lon="5.96264">
        <ele>1543.4</ele>
        <time>2021-06-26T10:55:09Z</time>
      </trkpt>
      <trkpt lat="44.84635" lon="5.96264">
        <ele>1543.8</ele>
        <time>2021-06-26T10:55:12Z</time>
      </trkpt>
      <trkpt lat="44.8465" lon="5.96265">
        <ele>1544.4</ele>
        <time>2021-06-26T10:55:17Z</time>
      </trkpt>
      <trkpt lat="44.84665" lon="5.96264">
        <ele>1544.6</ele>
        <time>2021-06-26T10:55:22Z</time>
      </trkpt>
      <trkpt lat="44.84675" lon="5.96264">
        <ele>1545.4</ele>
        <time>2021-06-26T10:55:25Z</time>
      </trkpt>
      <trkpt lat="44.84681" lon="5.96264">
        <ele>1546</ele>
        <time>2021-06-26T10:55:28Z</time>
      </trkpt>
      <trkpt lat="44.8469" lon="5.96263">
        <ele>1546.6</ele>
        <time>2021-06-26T10:55:30Z</time>
      </trkpt>
      <trkpt lat="44.84708" lon="5.9626">
        <ele>1547.4</ele>
        <time>2021-06-26T10:55:36Z</time>
      </trkpt>
      <trkpt lat="44.84711" lon="5.96259">
        <ele>1547.6</ele>
        <time>2021-06-26T10:55:37Z</time>
      </trkpt>
      <trkpt lat="44.84729" lon="5.96257">
        <ele>1548.8</ele>
        <time>2021-06-26T10:55:43Z</time>
      </trkpt>
      <trkpt lat="44.84742" lon="5.96253">
        <ele>1549.8</ele>
        <time>2021-06-26T10:55:47Z</time>
      </trkpt>
      <trkpt lat="44.84747" lon="5.96253">
        <ele>1550</ele>
        <time>2021-06-26T10:55:48Z</time>
      </trkpt>
      <trkpt lat="44.84759" lon="5.96249">
        <ele>1551</ele>
        <time>2021-06-26T10:55:52Z</time>
      </trkpt>
      <trkpt lat="44.84762" lon="5.96248">
        <ele>1551.4</ele>
        <time>2021-06-26T10:55:53Z</time>
      </trkpt>
      <trkpt lat="44.8477" lon="5.96245">
        <ele>1552.2</ele>
        <time>2021-06-26T10:55:56Z</time>
      </trkpt>
      <trkpt lat="44.84781" lon="5.96237">
        <ele>1553.2</ele>
        <time>2021-06-26T10:56:00Z</time>
      </trkpt>
      <trkpt lat="44.84795" lon="5.96226">
        <ele>1554.2</ele>
        <time>2021-06-26T10:56:05Z</time>
      </trkpt>
      <trkpt lat="44.84804" lon="5.96219">
        <ele>1554.8</ele>
        <time>2021-06-26T10:56:08Z</time>
      </trkpt>
      <trkpt lat="44.84809" lon="5.96214">
        <ele>1555.4</ele>
        <time>2021-06-26T10:56:10Z</time>
      </trkpt>
      <trkpt lat="44.84823" lon="5.962">
        <ele>1556.4</ele>
        <time>2021-06-26T10:56:16Z</time>
      </trkpt>
      <trkpt lat="44.84827" lon="5.96197">
        <ele>1557</ele>
        <time>2021-06-26T10:56:18Z</time>
      </trkpt>
      <trkpt lat="44.84832" lon="5.96192">
        <ele>1557.4</ele>
        <time>2021-06-26T10:56:20Z</time>
      </trkpt>
      <trkpt lat="44.84843" lon="5.96183">
        <ele>1558.4</ele>
        <time>2021-06-26T10:56:25Z</time>
      </trkpt>
      <trkpt lat="44.84857" lon="5.96173">
        <ele>1559.6</ele>
        <time>2021-06-26T10:56:31Z</time>
      </trkpt>
      <trkpt lat="44.84861" lon="5.9617">
        <ele>1559.6</ele>
        <time>2021-06-26T10:56:33Z</time>
      </trkpt>
      <trkpt lat="44.8487" lon="5.96165">
        <ele>1560.2</ele>
        <time>2021-06-26T10:56:37Z</time>
      </trkpt>
      <trkpt lat="44.84873" lon="5.96163">
        <ele>1560.4</ele>
        <time>2021-06-26T10:56:38Z</time>
      </trkpt>
      <trkpt lat="44.84881" lon="5.96156">
        <ele>1561.6</ele>
        <time>2021-06-26T10:56:42Z</time>
      </trkpt>
      <trkpt lat="44.84888" lon="5.96152">
        <ele>1562</ele>
        <time>2021-06-26T10:56:45Z</time>
      </trkpt>
      <trkpt lat="44.84902" lon="5.96144">
        <ele>1562.8</ele>
        <time>2021-06-26T10:56:51Z</time>
      </trkpt>
      <trkpt lat="44.84914" lon="5.96136">
        <ele>1563.8</ele>
        <time>2021-06-26T10:56:56Z</time>
      </trkpt>
      <trkpt lat="44.84927" lon="5.96131">
        <ele>1564.8</ele>
        <time>2021-06-26T10:57:01Z</time>
      </trkpt>
      <trkpt lat="44.84935" lon="5.96127">
        <ele>1565</ele>
        <time>2021-06-26T10:57:04Z</time>
      </trkpt>
      <trkpt lat="44.84943" lon="5.96124">
        <ele>1565.6</ele>
        <time>2021-06-26T10:57:07Z</time>
      </trkpt>
      <trkpt lat="44.84945" lon="5.96123">
        <ele>1565.8</ele>
        <time>2021-06-26T10:57:08Z</time>
      </trkpt>
      <trkpt lat="44.8496" lon="5.96118">
        <ele>1566.8</ele>
        <time>2021-06-26T10:57:14Z</time>
      </trkpt>
      <trkpt lat="44.84967" lon="5.96117">
        <ele>1567.4</ele>
        <time>2021-06-26T10:57:17Z</time>
      </trkpt>
      <trkpt lat="44.84972" lon="5.96115">
        <ele>1567.6</ele>
        <time>2021-06-26T10:57:19Z</time>
      </trkpt>
      <trkpt lat="44.84988" lon="5.9611">
        <ele>1568.8</ele>
        <time>2021-06-26T10:57:25Z</time>
      </trkpt>
      <trkpt lat="44.84993" lon="5.96108">
        <ele>1569.2</ele>
        <time>2021-06-26T10:57:27Z</time>
      </trkpt>
      <trkpt lat="44.84999" lon="5.96105">
        <ele>1569.8</ele>
        <time>2021-06-26T10:57:29Z</time>
      </trkpt>
      <trkpt lat="44.85017" lon="5.96099">
        <ele>1571</ele>
        <time>2021-06-26T10:57:35Z</time>
      </trkpt>
      <trkpt lat="44.85036" lon="5.961">
        <ele>1572.2</ele>
        <time>2021-06-26T10:57:41Z</time>
      </trkpt>
      <trkpt lat="44.85044" lon="5.961">
        <ele>1573</ele>
        <time>2021-06-26T10:57:44Z</time>
      </trkpt>
      <trkpt lat="44.85047" lon="5.961">
        <ele>1573.4</ele>
        <time>2021-06-26T10:57:45Z</time>
      </trkpt>
      <trkpt lat="44.85062" lon="5.961">
        <ele>1574.2</ele>
        <time>2021-06-26T10:57:50Z</time>
      </trkpt>
      <trkpt lat="44.8507" lon="5.96101">
        <ele>1574.6</ele>
        <time>2021-06-26T10:57:53Z</time>
      </trkpt>
      <trkpt lat="44.85078" lon="5.96103">
        <ele>1575.2</ele>
        <time>2021-06-26T10:57:56Z</time>
      </trkpt>
      <trkpt lat="44.85081" lon="5.96103">
        <ele>1575.8</ele>
        <time>2021-06-26T10:57:57Z</time>
      </trkpt>
      <trkpt lat="44.85089" lon="5.96106">
        <ele>1576.4</ele>
        <time>2021-06-26T10:58:00Z</time>
      </trkpt>
      <trkpt lat="44.85092" lon="5.96106">
        <ele>1576.8</ele>
        <time>2021-06-26T10:58:01Z</time>
      </trkpt>
      <trkpt lat="44.85108" lon="5.96108">
        <ele>1577.6</ele>
        <time>2021-06-26T10:58:06Z</time>
      </trkpt>
      <trkpt lat="44.85118" lon="5.96108">
        <ele>1578</ele>
        <time>2021-06-26T10:58:09Z</time>
      </trkpt>
      <trkpt lat="44.85142" lon="5.96104">
        <ele>1578.6</ele>
        <time>2021-06-26T10:58:16Z</time>
      </trkpt>
      <trkpt lat="44.85169" lon="5.96091">
        <ele>1579.8</ele>
        <time>2021-06-26T10:58:24Z</time>
      </trkpt>
      <trkpt lat="44.85187" lon="5.96081">
        <ele>1580.8</ele>
        <time>2021-06-26T10:58:30Z</time>
      </trkpt>
      <trkpt lat="44.8519" lon="5.96079">
        <ele>1581</ele>
        <time>2021-06-26T10:58:31Z</time>
      </trkpt>
      <trkpt lat="44.852" lon="5.96074">
        <ele>1581.4</ele>
        <time>2021-06-26T10:58:34Z</time>
      </trkpt>
      <trkpt lat="44.85209" lon="5.9607">
        <ele>1581.8</ele>
        <time>2021-06-26T10:58:37Z</time>
      </trkpt>
      <trkpt lat="44.85226" lon="5.96063">
        <ele>1582.6</ele>
        <time>2021-06-26T10:58:42Z</time>
      </trkpt>
      <trkpt lat="44.85229" lon="5.96062">
        <ele>1583</ele>
        <time>2021-06-26T10:58:43Z</time>
      </trkpt>
      <trkpt lat="44.85251" lon="5.96052">
        <ele>1584.4</ele>
        <time>2021-06-26T10:58:50Z</time>
      </trkpt>
      <trkpt lat="44.85261" lon="5.96047">
        <ele>1584.8</ele>
        <time>2021-06-26T10:58:53Z</time>
      </trkpt>
      <trkpt lat="44.85274" lon="5.96042">
        <ele>1585.4</ele>
        <time>2021-06-26T10:58:57Z</time>
      </trkpt>
      <trkpt lat="44.8529" lon="5.96035">
        <ele>1586.6</ele>
        <time>2021-06-26T10:59:02Z</time>
      </trkpt>
      <trkpt lat="44.85296" lon="5.96032">
        <ele>1587.2</ele>
        <time>2021-06-26T10:59:04Z</time>
      </trkpt>
      <trkpt lat="44.85306" lon="5.96028">
        <ele>1587.4</ele>
        <time>2021-06-26T10:59:07Z</time>
      </trkpt>
      <trkpt lat="44.85329" lon="5.96019">
        <ele>1588.2</ele>
        <time>2021-06-26T10:59:14Z</time>
      </trkpt>
      <trkpt lat="44.85332" lon="5.96017">
        <ele>1588.6</ele>
        <time>2021-06-26T10:59:15Z</time>
      </trkpt>
      <trkpt lat="44.85352" lon="5.96011">
        <ele>1589.4</ele>
        <time>2021-06-26T10:59:21Z</time>
      </trkpt>
      <trkpt lat="44.85359" lon="5.96008">
        <ele>1589.6</ele>
        <time>2021-06-26T10:59:23Z</time>
      </trkpt>
      <trkpt lat="44.85376" lon="5.96004">
        <ele>1590.6</ele>
        <time>2021-06-26T10:59:28Z</time>
      </trkpt>
      <trkpt lat="44.85379" lon="5.96005">
        <ele>1590.8</ele>
        <time>2021-06-26T10:59:29Z</time>
      </trkpt>
      <trkpt lat="44.85398" lon="5.96014">
        <ele>1591.2</ele>
        <time>2021-06-26T10:59:35Z</time>
      </trkpt>
      <trkpt lat="44.85411" lon="5.96021">
        <ele>1591.6</ele>
        <time>2021-06-26T10:59:39Z</time>
      </trkpt>
      <trkpt lat="44.85432" lon="5.96029">
        <ele>1592.6</ele>
        <time>2021-06-26T10:59:45Z</time>
      </trkpt>
      <trkpt lat="44.85446" lon="5.96034">
        <ele>1594</ele>
        <time>2021-06-26T10:59:49Z</time>
      </trkpt>
      <trkpt lat="44.8546" lon="5.96038">
        <ele>1595</ele>
        <time>2021-06-26T10:59:53Z</time>
      </trkpt>
      <trkpt lat="44.8547" lon="5.9604">
        <ele>1595.8</ele>
        <time>2021-06-26T10:59:56Z</time>
      </trkpt>
      <trkpt lat="44.85476" lon="5.9604">
        <ele>1596</ele>
        <time>2021-06-26T10:59:58Z</time>
      </trkpt>
      <trkpt lat="44.85499" lon="5.96042">
        <ele>1597</ele>
        <time>2021-06-26T11:00:05Z</time>
      </trkpt>
      <trkpt lat="44.85516" lon="5.96043">
        <ele>1598</ele>
        <time>2021-06-26T11:00:10Z</time>
      </trkpt>
      <trkpt lat="44.85532" lon="5.96042">
        <ele>1598.8</ele>
        <time>2021-06-26T11:00:15Z</time>
      </trkpt>
      <trkpt lat="44.85538" lon="5.96042">
        <ele>1599.2</ele>
        <time>2021-06-26T11:00:17Z</time>
      </trkpt>
      <trkpt lat="44.85553" lon="5.9604">
        <ele>1600.2</ele>
        <time>2021-06-26T11:00:22Z</time>
      </trkpt>
      <trkpt lat="44.85559" lon="5.9604">
        <ele>1600.4</ele>
        <time>2021-06-26T11:00:24Z</time>
      </trkpt>
      <trkpt lat="44.85583" lon="5.96039">
        <ele>1601.2</ele>
        <time>2021-06-26T11:00:31Z</time>
      </trkpt>
      <trkpt lat="44.8559" lon="5.96039">
        <ele>1601.6</ele>
        <time>2021-06-26T11:00:33Z</time>
      </trkpt>
      <trkpt lat="44.85599" lon="5.96038">
        <ele>1602.2</ele>
        <time>2021-06-26T11:00:36Z</time>
      </trkpt>
      <trkpt lat="44.85626" lon="5.96037">
        <ele>1603.2</ele>
        <time>2021-06-26T11:00:44Z</time>
      </trkpt>
      <trkpt lat="44.85629" lon="5.96037">
        <ele>1603.2</ele>
        <time>2021-06-26T11:00:45Z</time>
      </trkpt>
      <trkpt lat="44.85646" lon="5.96036">
        <ele>1604.4</ele>
        <time>2021-06-26T11:00:50Z</time>
      </trkpt>
      <trkpt lat="44.85657" lon="5.96036">
        <ele>1605</ele>
        <time>2021-06-26T11:00:53Z</time>
      </trkpt>
      <trkpt lat="44.85672" lon="5.96034">
        <ele>1605.8</ele>
        <time>2021-06-26T11:00:57Z</time>
      </trkpt>
      <trkpt lat="44.8569" lon="5.96032">
        <ele>1606.6</ele>
        <time>2021-06-26T11:01:02Z</time>
      </trkpt>
      <trkpt lat="44.85704" lon="5.96034">
        <ele>1606.8</ele>
        <time>2021-06-26T11:01:06Z</time>
      </trkpt>
      <trkpt lat="44.85718" lon="5.96032">
        <ele>1607.2</ele>
        <time>2021-06-26T11:01:10Z</time>
      </trkpt>
      <trkpt lat="44.85736" lon="5.9603">
        <ele>1607.8</ele>
        <time>2021-06-26T11:01:15Z</time>
      </trkpt>
      <trkpt lat="44.8575" lon="5.96027">
        <ele>1608.2</ele>
        <time>2021-06-26T11:01:19Z</time>
      </trkpt>
      <trkpt lat="44.8576" lon="5.96023">
        <ele>1608.8</ele>
        <time>2021-06-26T11:01:22Z</time>
      </trkpt>
      <trkpt lat="44.85767" lon="5.96021">
        <ele>1608.8</ele>
        <time>2021-06-26T11:01:24Z</time>
      </trkpt>
      <trkpt lat="44.85775" lon="5.9602">
        <ele>1609</ele>
        <time>2021-06-26T11:01:26Z</time>
      </trkpt>
      <trkpt lat="44.85787" lon="5.96022">
        <ele>1609.6</ele>
        <time>2021-06-26T11:01:29Z</time>
      </trkpt>
      <trkpt lat="44.85791" lon="5.96025">
        <ele>1609.6</ele>
        <time>2021-06-26T11:01:30Z</time>
      </trkpt>
      <trkpt lat="44.85794" lon="5.96029">
        <ele>1609.6</ele>
        <time>2021-06-26T11:01:31Z</time>
      </trkpt>
      <trkpt lat="44.85797" lon="5.96039">
        <ele>1609.8</ele>
        <time>2021-06-26T11:01:33Z</time>
      </trkpt>
      <trkpt lat="44.85797" lon="5.96055">
        <ele>1610</ele>
        <time>2021-06-26T11:01:36Z</time>
      </trkpt>
      <trkpt lat="44.85796" lon="5.96066">
        <ele>1610.2</ele>
        <time>2021-06-26T11:01:38Z</time>
      </trkpt>
      <trkpt lat="44.85791" lon="5.961">
        <ele>1610.8</ele>
        <time>2021-06-26T11:01:45Z</time>
      </trkpt>
      <trkpt lat="44.8579" lon="5.96104">
        <ele>1611</ele>
        <time>2021-06-26T11:01:46Z</time>
      </trkpt>
      <trkpt lat="44.85782" lon="5.9613">
        <ele>1612</ele>
        <time>2021-06-26T11:01:52Z</time>
      </trkpt>
      <trkpt lat="44.85781" lon="5.96134">
        <ele>1612</ele>
        <time>2021-06-26T11:01:53Z</time>
      </trkpt>
      <trkpt lat="44.85775" lon="5.96152">
        <ele>1612.8</ele>
        <time>2021-06-26T11:01:58Z</time>
      </trkpt>
      <trkpt lat="44.85771" lon="5.96169">
        <ele>1613.8</ele>
        <time>2021-06-26T11:02:02Z</time>
      </trkpt>
      <trkpt lat="44.85769" lon="5.96173">
        <ele>1614</ele>
        <time>2021-06-26T11:02:03Z</time>
      </trkpt>
      <trkpt lat="44.85762" lon="5.96196">
        <ele>1615.2</ele>
        <time>2021-06-26T11:02:09Z</time>
      </trkpt>
      <trkpt lat="44.85758" lon="5.96203">
        <ele>1615.4</ele>
        <time>2021-06-26T11:02:11Z</time>
      </trkpt>
      <trkpt lat="44.85751" lon="5.96215">
        <ele>1616.4</ele>
        <time>2021-06-26T11:02:15Z</time>
      </trkpt>
      <trkpt lat="44.85742" lon="5.9623">
        <ele>1617.6</ele>
        <time>2021-06-26T11:02:20Z</time>
      </trkpt>
      <trkpt lat="44.85731" lon="5.96252">
        <ele>1618.6</ele>
        <time>2021-06-26T11:02:27Z</time>
      </trkpt>
      <trkpt lat="44.85725" lon="5.96265">
        <ele>1619.4</ele>
        <time>2021-06-26T11:02:31Z</time>
      </trkpt>
      <trkpt lat="44.85724" lon="5.96269">
        <ele>1619.8</ele>
        <time>2021-06-26T11:02:32Z</time>
      </trkpt>
      <trkpt lat="44.85715" lon="5.96287">
        <ele>1620.6</ele>
        <time>2021-06-26T11:02:38Z</time>
      </trkpt>
      <trkpt lat="44.8571" lon="5.96297">
        <ele>1621.4</ele>
        <time>2021-06-26T11:02:41Z</time>
      </trkpt>
      <trkpt lat="44.85707" lon="5.96303">
        <ele>1621.6</ele>
        <time>2021-06-26T11:02:43Z</time>
      </trkpt>
      <trkpt lat="44.857" lon="5.96325">
        <ele>1622.4</ele>
        <time>2021-06-26T11:02:49Z</time>
      </trkpt>
      <trkpt lat="44.85698" lon="5.96333">
        <ele>1622.8</ele>
        <time>2021-06-26T11:02:51Z</time>
      </trkpt>
      <trkpt lat="44.85692" lon="5.96361">
        <ele>1624</ele>
        <time>2021-06-26T11:02:58Z</time>
      </trkpt>
      <trkpt lat="44.85685" lon="5.96389">
        <ele>1625.2</ele>
        <time>2021-06-26T11:03:05Z</time>
      </trkpt>
      <trkpt lat="44.85681" lon="5.96402">
        <ele>1625.4</ele>
        <time>2021-06-26T11:03:08Z</time>
      </trkpt>
      <trkpt lat="44.85672" lon="5.96424">
        <ele>1626.2</ele>
        <time>2021-06-26T11:03:14Z</time>
      </trkpt>
      <trkpt lat="44.85667" lon="5.9643">
        <ele>1626.6</ele>
        <time>2021-06-26T11:03:16Z</time>
      </trkpt>
      <trkpt lat="44.85658" lon="5.96444">
        <ele>1627.2</ele>
        <time>2021-06-26T11:03:20Z</time>
      </trkpt>
      <trkpt lat="44.85649" lon="5.96455">
        <ele>1627.8</ele>
        <time>2021-06-26T11:03:24Z</time>
      </trkpt>
      <trkpt lat="44.85644" lon="5.96461">
        <ele>1628.4</ele>
        <time>2021-06-26T11:03:26Z</time>
      </trkpt>
      <trkpt lat="44.85633" lon="5.96475">
        <ele>1629</ele>
        <time>2021-06-26T11:03:31Z</time>
      </trkpt>
      <trkpt lat="44.85629" lon="5.96481">
        <ele>1629.4</ele>
        <time>2021-06-26T11:03:33Z</time>
      </trkpt>
      <trkpt lat="44.85617" lon="5.96496">
        <ele>1630.2</ele>
        <time>2021-06-26T11:03:38Z</time>
      </trkpt>
      <trkpt lat="44.85615" lon="5.96498">
        <ele>1630.4</ele>
        <time>2021-06-26T11:03:39Z</time>
      </trkpt>
      <trkpt lat="44.85608" lon="5.96506">
        <ele>1631.4</ele>
        <time>2021-06-26T11:03:42Z</time>
      </trkpt>
      <trkpt lat="44.85602" lon="5.96515">
        <ele>1632.2</ele>
        <time>2021-06-26T11:03:45Z</time>
      </trkpt>
      <trkpt lat="44.85599" lon="5.96521">
        <ele>1632.2</ele>
        <time>2021-06-26T11:03:47Z</time>
      </trkpt>
      <trkpt lat="44.85597" lon="5.96536">
        <ele>1633</ele>
        <time>2021-06-26T11:03:51Z</time>
      </trkpt>
      <trkpt lat="44.856" lon="5.96543">
        <ele>1633.2</ele>
        <time>2021-06-26T11:03:53Z</time>
      </trkpt>
      <trkpt lat="44.85607" lon="5.96554">
        <ele>1634.2</ele>
        <time>2021-06-26T11:03:57Z</time>
      </trkpt>
      <trkpt lat="44.85609" lon="5.96557">
        <ele>1634.4</ele>
        <time>2021-06-26T11:03:58Z</time>
      </trkpt>
      <trkpt lat="44.85618" lon="5.96565">
        <ele>1635.6</ele>
        <time>2021-06-26T11:04:02Z</time>
      </trkpt>
      <trkpt lat="44.85623" lon="5.96567">
        <ele>1636.4</ele>
        <time>2021-06-26T11:04:04Z</time>
      </trkpt>
      <trkpt lat="44.85626" lon="5.96567">
        <ele>1636.8</ele>
        <time>2021-06-26T11:04:05Z</time>
      </trkpt>
      <trkpt lat="44.85633" lon="5.96568">
        <ele>1638</ele>
        <time>2021-06-26T11:04:08Z</time>
      </trkpt>
      <trkpt lat="44.8564" lon="5.96568">
        <ele>1638.4</ele>
        <time>2021-06-26T11:04:11Z</time>
      </trkpt>
      <trkpt lat="44.85646" lon="5.96567">
        <ele>1639.2</ele>
        <time>2021-06-26T11:04:14Z</time>
      </trkpt>
      <trkpt lat="44.85655" lon="5.96566">
        <ele>1640.2</ele>
        <time>2021-06-26T11:04:18Z</time>
      </trkpt>
      <trkpt lat="44.85666" lon="5.96565">
        <ele>1641</ele>
        <time>2021-06-26T11:04:23Z</time>
      </trkpt>
      <trkpt lat="44.85668" lon="5.96565">
        <ele>1641.2</ele>
        <time>2021-06-26T11:04:24Z</time>
      </trkpt>
      <trkpt lat="44.85678" lon="5.96568">
        <ele>1642.2</ele>
        <time>2021-06-26T11:04:29Z</time>
      </trkpt>
      <trkpt lat="44.85683" lon="5.96571">
        <ele>1642.8</ele>
        <time>2021-06-26T11:04:32Z</time>
      </trkpt>
      <trkpt lat="44.85687" lon="5.96574">
        <ele>1643.4</ele>
        <time>2021-06-26T11:04:34Z</time>
      </trkpt>
      <trkpt lat="44.85694" lon="5.96582">
        <ele>1644.6</ele>
        <time>2021-06-26T11:04:38Z</time>
      </trkpt>
      <trkpt lat="44.85698" lon="5.96589">
        <ele>1645.2</ele>
        <time>2021-06-26T11:04:41Z</time>
      </trkpt>
      <trkpt lat="44.85702" lon="5.96595">
        <ele>1645.6</ele>
        <time>2021-06-26T11:04:44Z</time>
      </trkpt>
      <trkpt lat="44.85708" lon="5.96608">
        <ele>1647</ele>
        <time>2021-06-26T11:04:50Z</time>
      </trkpt>
      <trkpt lat="44.85708" lon="5.96611">
        <ele>1647</ele>
        <time>2021-06-26T11:04:51Z</time>
      </trkpt>
      <trkpt lat="44.85712" lon="5.96626">
        <ele>1648</ele>
        <time>2021-06-26T11:04:57Z</time>
      </trkpt>
      <trkpt lat="44.85712" lon="5.96626">
        <ele>1648.2</ele>
        <time>2021-06-26T11:04:58Z</time>
      </trkpt>
      <trkpt lat="44.85712" lon="5.96626">
        <ele>1648.4</ele>
        <time>2021-06-26T11:05:00Z</time>
      </trkpt>
      <trkpt lat="44.85714" lon="5.96633">
        <ele>1649.2</ele>
        <time>2021-06-26T11:05:53Z</time>
      </trkpt>
      <trkpt lat="44.85714" lon="5.96637">
        <ele>1649.2</ele>
        <time>2021-06-26T11:05:54Z</time>
      </trkpt>
      <trkpt lat="44.85717" lon="5.9666">
        <ele>1649.8</ele>
        <time>2021-06-26T11:06:01Z</time>
      </trkpt>
      <trkpt lat="44.85718" lon="5.9667">
        <ele>1650.4</ele>
        <time>2021-06-26T11:06:04Z</time>
      </trkpt>
      <trkpt lat="44.8572" lon="5.96681">
        <ele>1651.6</ele>
        <time>2021-06-26T11:06:08Z</time>
      </trkpt>
      <trkpt lat="44.85722" lon="5.96688">
        <ele>1652.2</ele>
        <time>2021-06-26T11:06:10Z</time>
      </trkpt>
      <trkpt lat="44.85722" lon="5.96692">
        <ele>1652.8</ele>
        <time>2021-06-26T11:06:11Z</time>
      </trkpt>
      <trkpt lat="44.85724" lon="5.96709">
        <ele>1653.8</ele>
        <time>2021-06-26T11:06:16Z</time>
      </trkpt>
      <trkpt lat="44.85725" lon="5.96725">
        <ele>1655</ele>
        <time>2021-06-26T11:06:21Z</time>
      </trkpt>
      <trkpt lat="44.85725" lon="5.96738">
        <ele>1656.2</ele>
        <time>2021-06-26T11:06:25Z</time>
      </trkpt>
      <trkpt lat="44.85724" lon="5.96744">
        <ele>1656.6</ele>
        <time>2021-06-26T11:06:27Z</time>
      </trkpt>
      <trkpt lat="44.85724" lon="5.96753">
        <ele>1657.4</ele>
        <time>2021-06-26T11:06:30Z</time>
      </trkpt>
      <trkpt lat="44.85723" lon="5.96756">
        <ele>1657.4</ele>
        <time>2021-06-26T11:06:31Z</time>
      </trkpt>
      <trkpt lat="44.85724" lon="5.9677">
        <ele>1658.2</ele>
        <time>2021-06-26T11:06:36Z</time>
      </trkpt>
      <trkpt lat="44.85724" lon="5.96779">
        <ele>1658.6</ele>
        <time>2021-06-26T11:06:39Z</time>
      </trkpt>
      <trkpt lat="44.85724" lon="5.96789">
        <ele>1659.6</ele>
        <time>2021-06-26T11:06:43Z</time>
      </trkpt>
      <trkpt lat="44.85724" lon="5.96805">
        <ele>1660.6</ele>
        <time>2021-06-26T11:06:48Z</time>
      </trkpt>
      <trkpt lat="44.85724" lon="5.96811">
        <ele>1661.4</ele>
        <time>2021-06-26T11:06:50Z</time>
      </trkpt>
      <trkpt lat="44.85723" lon="5.96814">
        <ele>1661.8</ele>
        <time>2021-06-26T11:06:51Z</time>
      </trkpt>
      <trkpt lat="44.85721" lon="5.96832">
        <ele>1663</ele>
        <time>2021-06-26T11:06:57Z</time>
      </trkpt>
      <trkpt lat="44.8572" lon="5.96835">
        <ele>1663.4</ele>
        <time>2021-06-26T11:06:58Z</time>
      </trkpt>
      <trkpt lat="44.8572" lon="5.96841">
        <ele>1663.8</ele>
        <time>2021-06-26T11:07:00Z</time>
      </trkpt>
      <trkpt lat="44.85719" lon="5.96849">
        <ele>1664.2</ele>
        <time>2021-06-26T11:07:03Z</time>
      </trkpt>
      <trkpt lat="44.85717" lon="5.96861">
        <ele>1665.2</ele>
        <time>2021-06-26T11:07:07Z</time>
      </trkpt>
      <trkpt lat="44.85717" lon="5.96866">
        <ele>1665.4</ele>
        <time>2021-06-26T11:07:09Z</time>
      </trkpt>
      <trkpt lat="44.85715" lon="5.96878">
        <ele>1666.2</ele>
        <time>2021-06-26T11:07:13Z</time>
      </trkpt>
      <trkpt lat="44.85714" lon="5.96888">
        <ele>1667.2</ele>
        <time>2021-06-26T11:07:17Z</time>
      </trkpt>
      <trkpt lat="44.85714" lon="5.96899">
        <ele>1668</ele>
        <time>2021-06-26T11:07:21Z</time>
      </trkpt>
      <trkpt lat="44.85713" lon="5.96904">
        <ele>1668.4</ele>
        <time>2021-06-26T11:07:23Z</time>
      </trkpt>
      <trkpt lat="44.85713" lon="5.96913">
        <ele>1669.4</ele>
        <time>2021-06-26T11:07:26Z</time>
      </trkpt>
      <trkpt lat="44.85713" lon="5.96924">
        <ele>1670</ele>
        <time>2021-06-26T11:07:30Z</time>
      </trkpt>
      <trkpt lat="44.85713" lon="5.9693">
        <ele>1670.4</ele>
        <time>2021-06-26T11:07:32Z</time>
      </trkpt>
      <trkpt lat="44.85714" lon="5.96946">
        <ele>1671.6</ele>
        <time>2021-06-26T11:07:38Z</time>
      </trkpt>
      <trkpt lat="44.85715" lon="5.96952">
        <ele>1672</ele>
        <time>2021-06-26T11:07:40Z</time>
      </trkpt>
      <trkpt lat="44.85718" lon="5.96959">
        <ele>1672.6</ele>
        <time>2021-06-26T11:07:43Z</time>
      </trkpt>
      <trkpt lat="44.85725" lon="5.96968">
        <ele>1673.6</ele>
        <time>2021-06-26T11:07:48Z</time>
      </trkpt>
      <trkpt lat="44.85735" lon="5.96974">
        <ele>1674.4</ele>
        <time>2021-06-26T11:07:53Z</time>
      </trkpt>
      <trkpt lat="44.85741" lon="5.96976">
        <ele>1674.8</ele>
        <time>2021-06-26T11:07:56Z</time>
      </trkpt>
      <trkpt lat="44.85752" lon="5.96979">
        <ele>1676</ele>
        <time>2021-06-26T11:08:01Z</time>
      </trkpt>
      <trkpt lat="44.85765" lon="5.96983">
        <ele>1677</ele>
        <time>2021-06-26T11:08:07Z</time>
      </trkpt>
      <trkpt lat="44.85776" lon="5.96987">
        <ele>1678</ele>
        <time>2021-06-26T11:08:12Z</time>
      </trkpt>
      <trkpt lat="44.85787" lon="5.96991">
        <ele>1679.2</ele>
        <time>2021-06-26T11:08:17Z</time>
      </trkpt>
      <trkpt lat="44.85799" lon="5.96994">
        <ele>1680.2</ele>
        <time>2021-06-26T11:08:22Z</time>
      </trkpt>
      <trkpt lat="44.85807" lon="5.96999">
        <ele>1680.6</ele>
        <time>2021-06-26T11:08:26Z</time>
      </trkpt>
      <trkpt lat="44.85811" lon="5.97005">
        <ele>1681.2</ele>
        <time>2021-06-26T11:08:29Z</time>
      </trkpt>
      <trkpt lat="44.85815" lon="5.97018">
        <ele>1682</ele>
        <time>2021-06-26T11:08:33Z</time>
      </trkpt>
      <trkpt lat="44.85815" lon="5.97025">
        <ele>1682.4</ele>
        <time>2021-06-26T11:08:35Z</time>
      </trkpt>
      <trkpt lat="44.85815" lon="5.97043">
        <ele>1683.2</ele>
        <time>2021-06-26T11:08:40Z</time>
      </trkpt>
      <trkpt lat="44.85815" lon="5.97047">
        <ele>1683.6</ele>
        <time>2021-06-26T11:08:41Z</time>
      </trkpt>
      <trkpt lat="44.85815" lon="5.97058">
        <ele>1684.4</ele>
        <time>2021-06-26T11:08:44Z</time>
      </trkpt>
      <trkpt lat="44.85816" lon="5.97076">
        <ele>1685</ele>
        <time>2021-06-26T11:08:49Z</time>
      </trkpt>
      <trkpt lat="44.85817" lon="5.97087">
        <ele>1685.4</ele>
        <time>2021-06-26T11:08:52Z</time>
      </trkpt>
      <trkpt lat="44.85819" lon="5.97104">
        <ele>1686.2</ele>
        <time>2021-06-26T11:08:57Z</time>
      </trkpt>
      <trkpt lat="44.85821" lon="5.97111">
        <ele>1686.6</ele>
        <time>2021-06-26T11:08:59Z</time>
      </trkpt>
      <trkpt lat="44.85826" lon="5.97124">
        <ele>1687.6</ele>
        <time>2021-06-26T11:09:04Z</time>
      </trkpt>
      <trkpt lat="44.8583" lon="5.97132">
        <ele>1688.2</ele>
        <time>2021-06-26T11:09:07Z</time>
      </trkpt>
      <trkpt lat="44.85833" lon="5.97137">
        <ele>1689</ele>
        <time>2021-06-26T11:09:09Z</time>
      </trkpt>
      <trkpt lat="44.85841" lon="5.9715">
        <ele>1690</ele>
        <time>2021-06-26T11:09:15Z</time>
      </trkpt>
      <trkpt lat="44.85852" lon="5.97165">
        <ele>1691</ele>
        <time>2021-06-26T11:09:22Z</time>
      </trkpt>
      <trkpt lat="44.85858" lon="5.97174">
        <ele>1691.6</ele>
        <time>2021-06-26T11:09:26Z</time>
      </trkpt>
      <trkpt lat="44.85863" lon="5.97181">
        <ele>1692.2</ele>
        <time>2021-06-26T11:09:29Z</time>
      </trkpt>
      <trkpt lat="44.85874" lon="5.97197">
        <ele>1693.2</ele>
        <time>2021-06-26T11:09:36Z</time>
      </trkpt>
      <trkpt lat="44.85877" lon="5.97202">
        <ele>1693.6</ele>
        <time>2021-06-26T11:09:38Z</time>
      </trkpt>
      <trkpt lat="44.85879" lon="5.97204">
        <ele>1693.8</ele>
        <time>2021-06-26T11:09:39Z</time>
      </trkpt>
      <trkpt lat="44.85888" lon="5.97216">
        <ele>1694.2</ele>
        <time>2021-06-26T11:09:44Z</time>
      </trkpt>
      <trkpt lat="44.8589" lon="5.97222">
        <ele>1695</ele>
        <time>2021-06-26T11:09:46Z</time>
      </trkpt>
      <trkpt lat="44.85893" lon="5.97228">
        <ele>1695.4</ele>
        <time>2021-06-26T11:09:48Z</time>
      </trkpt>
      <trkpt lat="44.859" lon="5.97247">
        <ele>1696.2</ele>
        <time>2021-06-26T11:09:55Z</time>
      </trkpt>
      <trkpt lat="44.85901" lon="5.9725">
        <ele>1696.4</ele>
        <time>2021-06-26T11:09:56Z</time>
      </trkpt>
      <trkpt lat="44.85903" lon="5.97262">
        <ele>1697.4</ele>
        <time>2021-06-26T11:10:00Z</time>
      </trkpt>
      <trkpt lat="44.85904" lon="5.97274">
        <ele>1698.4</ele>
        <time>2021-06-26T11:10:04Z</time>
      </trkpt>
      <trkpt lat="44.85904" lon="5.97277">
        <ele>1698.8</ele>
        <time>2021-06-26T11:10:05Z</time>
      </trkpt>
      <trkpt lat="44.85904" lon="5.97289">
        <ele>1699.8</ele>
        <time>2021-06-26T11:10:09Z</time>
      </trkpt>
      <trkpt lat="44.85903" lon="5.97304">
        <ele>1700.8</ele>
        <time>2021-06-26T11:10:14Z</time>
      </trkpt>
      <trkpt lat="44.85902" lon="5.97307">
        <ele>1701</ele>
        <time>2021-06-26T11:10:15Z</time>
      </trkpt>
      <trkpt lat="44.85899" lon="5.97318">
        <ele>1702</ele>
        <time>2021-06-26T11:10:19Z</time>
      </trkpt>
      <trkpt lat="44.85895" lon="5.97326">
        <ele>1702.6</ele>
        <time>2021-06-26T11:10:22Z</time>
      </trkpt>
      <trkpt lat="44.85893" lon="5.97331">
        <ele>1703.2</ele>
        <time>2021-06-26T11:10:24Z</time>
      </trkpt>
      <trkpt lat="44.85888" lon="5.9734">
        <ele>1704.4</ele>
        <time>2021-06-26T11:10:28Z</time>
      </trkpt>
      <trkpt lat="44.85882" lon="5.97351">
        <ele>1705.6</ele>
        <time>2021-06-26T11:10:33Z</time>
      </trkpt>
      <trkpt lat="44.8588" lon="5.97355">
        <ele>1706.2</ele>
        <time>2021-06-26T11:10:35Z</time>
      </trkpt>
      <trkpt lat="44.85877" lon="5.97362">
        <ele>1706.8</ele>
        <time>2021-06-26T11:10:38Z</time>
      </trkpt>
      <trkpt lat="44.85873" lon="5.97373">
        <ele>1707.4</ele>
        <time>2021-06-26T11:10:42Z</time>
      </trkpt>
      <trkpt lat="44.85872" lon="5.97381">
        <ele>1708</ele>
        <time>2021-06-26T11:10:45Z</time>
      </trkpt>
      <trkpt lat="44.85869" lon="5.97401">
        <ele>1709.2</ele>
        <time>2021-06-26T11:10:52Z</time>
      </trkpt>
      <trkpt lat="44.85869" lon="5.97406">
        <ele>1709.4</ele>
        <time>2021-06-26T11:10:54Z</time>
      </trkpt>
      <trkpt lat="44.85871" lon="5.97423">
        <ele>1710.2</ele>
        <time>2021-06-26T11:11:00Z</time>
      </trkpt>
      <trkpt lat="44.85872" lon="5.97432">
        <ele>1710.8</ele>
        <time>2021-06-26T11:11:03Z</time>
      </trkpt>
      <trkpt lat="44.85873" lon="5.97438">
        <ele>1711.2</ele>
        <time>2021-06-26T11:11:05Z</time>
      </trkpt>
      <trkpt lat="44.85876" lon="5.97454">
        <ele>1712.2</ele>
        <time>2021-06-26T11:11:10Z</time>
      </trkpt>
      <trkpt lat="44.85877" lon="5.97462">
        <ele>1713.2</ele>
        <time>2021-06-26T11:11:13Z</time>
      </trkpt>
      <trkpt lat="44.85877" lon="5.97465">
        <ele>1713.4</ele>
        <time>2021-06-26T11:11:14Z</time>
      </trkpt>
      <trkpt lat="44.85879" lon="5.97473">
        <ele>1714</ele>
        <time>2021-06-26T11:11:17Z</time>
      </trkpt>
      <trkpt lat="44.8588" lon="5.97479">
        <ele>1714.2</ele>
        <time>2021-06-26T11:11:19Z</time>
      </trkpt>
      <trkpt lat="44.8588" lon="5.97482">
        <ele>1714.4</ele>
        <time>2021-06-26T11:11:20Z</time>
      </trkpt>
      <trkpt lat="44.85881" lon="5.97499">
        <ele>1715.6</ele>
        <time>2021-06-26T11:11:26Z</time>
      </trkpt>
      <trkpt lat="44.8588" lon="5.97513">
        <ele>1716.6</ele>
        <time>2021-06-26T11:11:31Z</time>
      </trkpt>
      <trkpt lat="44.85879" lon="5.97523">
        <ele>1717.2</ele>
        <time>2021-06-26T11:11:34Z</time>
      </trkpt>
      <trkpt lat="44.85879" lon="5.97529">
        <ele>1717.8</ele>
        <time>2021-06-26T11:11:36Z</time>
      </trkpt>
      <trkpt lat="44.85877" lon="5.97544">
        <ele>1719</ele>
        <time>2021-06-26T11:11:41Z</time>
      </trkpt>
      <trkpt lat="44.85877" lon="5.97547">
        <ele>1719</ele>
        <time>2021-06-26T11:11:42Z</time>
      </trkpt>
      <trkpt lat="44.85875" lon="5.97565">
        <ele>1720.2</ele>
        <time>2021-06-26T11:11:48Z</time>
      </trkpt>
      <trkpt lat="44.85874" lon="5.97573">
        <ele>1720.6</ele>
        <time>2021-06-26T11:11:51Z</time>
      </trkpt>
      <trkpt lat="44.85874" lon="5.97581">
        <ele>1721.2</ele>
        <time>2021-06-26T11:11:54Z</time>
      </trkpt>
      <trkpt lat="44.85874" lon="5.97588">
        <ele>1721.8</ele>
        <time>2021-06-26T11:11:57Z</time>
      </trkpt>
      <trkpt lat="44.85873" lon="5.97595">
        <ele>1722.2</ele>
        <time>2021-06-26T11:12:00Z</time>
      </trkpt>
      <trkpt lat="44.85872" lon="5.97609">
        <ele>1722.8</ele>
        <time>2021-06-26T11:12:05Z</time>
      </trkpt>
      <trkpt lat="44.85873" lon="5.97619">
        <ele>1723.4</ele>
        <time>2021-06-26T11:12:08Z</time>
      </trkpt>
      <trkpt lat="44.85872" lon="5.97629">
        <ele>1723.8</ele>
        <time>2021-06-26T11:12:11Z</time>
      </trkpt>
      <trkpt lat="44.85872" lon="5.9764">
        <ele>1724.4</ele>
        <time>2021-06-26T11:12:15Z</time>
      </trkpt>
      <trkpt lat="44.85872" lon="5.97648">
        <ele>1724.8</ele>
        <time>2021-06-26T11:12:18Z</time>
      </trkpt>
      <trkpt lat="44.85873" lon="5.97656">
        <ele>1725.2</ele>
        <time>2021-06-26T11:12:21Z</time>
      </trkpt>
      <trkpt lat="44.85873" lon="5.97658">
        <ele>1725.6</ele>
        <time>2021-06-26T11:12:22Z</time>
      </trkpt>
      <trkpt lat="44.85878" lon="5.9767">
        <ele>1726.4</ele>
        <time>2021-06-26T11:12:27Z</time>
      </trkpt>
      <trkpt lat="44.85879" lon="5.97672">
        <ele>1726.6</ele>
        <time>2021-06-26T11:12:28Z</time>
      </trkpt>
      <trkpt lat="44.85883" lon="5.9768">
        <ele>1727.2</ele>
        <time>2021-06-26T11:12:33Z</time>
      </trkpt>
      <trkpt lat="44.85884" lon="5.97681">
        <ele>1727.4</ele>
        <time>2021-06-26T11:12:34Z</time>
      </trkpt>
      <trkpt lat="44.85886" lon="5.97682">
        <ele>1727.6</ele>
        <time>2021-06-26T11:12:36Z</time>
      </trkpt>
      <trkpt lat="44.85886" lon="5.97682">
        <ele>1727.8</ele>
        <time>2021-06-26T11:12:39Z</time>
      </trkpt>
      <trkpt lat="44.85881" lon="5.97683">
        <ele>1728.8</ele>
        <time>2021-06-26T11:14:48Z</time>
      </trkpt>
      <trkpt lat="44.8588" lon="5.97688">
        <ele>1728.8</ele>
        <time>2021-06-26T11:14:50Z</time>
      </trkpt>
      <trkpt lat="44.85884" lon="5.97708">
        <ele>1729</ele>
        <time>2021-06-26T11:14:58Z</time>
      </trkpt>
      <trkpt lat="44.85884" lon="5.97708">
        <ele>1729.2</ele>
        <time>2021-06-26T11:15:00Z</time>
      </trkpt>
      <trkpt lat="44.8588" lon="5.97712">
        <ele>1730</ele>
        <time>2021-06-26T11:21:31Z</time>
      </trkpt>
      <trkpt lat="44.85876" lon="5.97716">
        <ele>1730</ele>
        <time>2021-06-26T11:21:33Z</time>
      </trkpt>
      <trkpt lat="44.85865" lon="5.97729">
        <ele>1730.6</ele>
        <time>2021-06-26T11:21:40Z</time>
      </trkpt>
      <trkpt lat="44.85855" lon="5.97744">
        <ele>1731</ele>
        <time>2021-06-26T11:21:47Z</time>
      </trkpt>
      <trkpt lat="44.85855" lon="5.97746">
        <ele>1731</ele>
        <time>2021-06-26T11:21:48Z</time>
      </trkpt>
      <trkpt lat="44.8585" lon="5.97758">
        <ele>1731.6</ele>
        <time>2021-06-26T11:21:56Z</time>
      </trkpt>
      <trkpt lat="44.85846" lon="5.97762">
        <ele>1731.8</ele>
        <time>2021-06-26T11:22:03Z</time>
      </trkpt>
      <trkpt lat="44.85847" lon="5.97766">
        <ele>1732</ele>
        <time>2021-06-26T11:22:07Z</time>
      </trkpt>
      <trkpt lat="44.85849" lon="5.97769">
        <ele>1732</ele>
        <time>2021-06-26T11:22:09Z</time>
      </trkpt>
      <trkpt lat="44.85852" lon="5.97777">
        <ele>1732</ele>
        <time>2021-06-26T11:22:13Z</time>
      </trkpt>
      <trkpt lat="44.85853" lon="5.97779">
        <ele>1732.2</ele>
        <time>2021-06-26T11:22:14Z</time>
      </trkpt>
      <trkpt lat="44.85853" lon="5.97781">
        <ele>1732.2</ele>
        <time>2021-06-26T11:22:15Z</time>
      </trkpt>
      <trkpt lat="44.85854" lon="5.97783">
        <ele>1732.6</ele>
        <time>2021-06-26T11:22:17Z</time>
      </trkpt>
      <trkpt lat="44.85856" lon="5.97786">
        <ele>1732.8</ele>
        <time>2021-06-26T11:22:19Z</time>
      </trkpt>
      <trkpt lat="44.85856" lon="5.97786">
        <ele>1733</ele>
        <time>2021-06-26T11:22:20Z</time>
      </trkpt>
      <trkpt lat="44.85857" lon="5.97787">
        <ele>1733.2</ele>
        <time>2021-06-26T11:22:24Z</time>
      </trkpt>
      <trkpt lat="44.85849" lon="5.97779">
        <ele>1733.8</ele>
        <time>2021-06-26T11:24:06Z</time>
      </trkpt>
      <trkpt lat="44.85846" lon="5.97775">
        <ele>1733.6</ele>
        <time>2021-06-26T11:24:08Z</time>
      </trkpt>
      <trkpt lat="44.85844" lon="5.97771">
        <ele>1733.2</ele>
        <time>2021-06-26T11:24:11Z</time>
      </trkpt>
      <trkpt lat="44.85845" lon="5.97769">
        <ele>1733.4</ele>
        <time>2021-06-26T11:24:12Z</time>
      </trkpt>
      <trkpt lat="44.85848" lon="5.97756">
        <ele>1732.6</ele>
        <time>2021-06-26T11:24:17Z</time>
      </trkpt>
      <trkpt lat="44.85849" lon="5.97754">
        <ele>1732.6</ele>
        <time>2021-06-26T11:24:18Z</time>
      </trkpt>
      <trkpt lat="44.85857" lon="5.97744">
        <ele>1732.6</ele>
        <time>2021-06-26T11:24:25Z</time>
      </trkpt>
      <trkpt lat="44.85868" lon="5.97728">
        <ele>1732.2</ele>
        <time>2021-06-26T11:24:33Z</time>
      </trkpt>
      <trkpt lat="44.85877" lon="5.97717">
        <ele>1732</ele>
        <time>2021-06-26T11:24:39Z</time>
      </trkpt>
      <trkpt lat="44.85877" lon="5.97717">
        <ele>1731.6</ele>
        <time>2021-06-26T11:24:41Z</time>
      </trkpt>
      <trkpt lat="44.85881" lon="5.97712">
        <ele>1731.4</ele>
        <time>2021-06-26T11:24:51Z</time>
      </trkpt>
      <trkpt lat="44.85882" lon="5.9771">
        <ele>1731.4</ele>
        <time>2021-06-26T11:24:52Z</time>
      </trkpt>
      <trkpt lat="44.85884" lon="5.97708">
        <ele>1731.4</ele>
        <time>2021-06-26T11:24:53Z</time>
      </trkpt>
      <trkpt lat="44.8589" lon="5.97695">
        <ele>1730.8</ele>
        <time>2021-06-26T11:25:00Z</time>
      </trkpt>
      <trkpt lat="44.85892" lon="5.97689">
        <ele>1730.6</ele>
        <time>2021-06-26T11:25:04Z</time>
      </trkpt>
      <trkpt lat="44.85892" lon="5.97683">
        <ele>1730.4</ele>
        <time>2021-06-26T11:25:06Z</time>
      </trkpt>
      <trkpt lat="44.85891" lon="5.97676">
        <ele>1730.4</ele>
        <time>2021-06-26T11:25:09Z</time>
      </trkpt>
      <trkpt lat="44.85891" lon="5.97676">
        <ele>1730.2</ele>
        <time>2021-06-26T11:25:12Z</time>
      </trkpt>
      <trkpt lat="44.85892" lon="5.9768">
        <ele>1730.2</ele>
        <time>2021-06-26T11:26:21Z</time>
      </trkpt>
      <trkpt lat="44.85893" lon="5.97687">
        <ele>1730.2</ele>
        <time>2021-06-26T11:26:24Z</time>
      </trkpt>
      <trkpt lat="44.85894" lon="5.97689">
        <ele>1730.2</ele>
        <time>2021-06-26T11:26:25Z</time>
      </trkpt>
      <trkpt lat="44.85894" lon="5.9769">
        <ele>1730.2</ele>
        <time>2021-06-26T11:26:28Z</time>
      </trkpt>
      <trkpt lat="44.85894" lon="5.9769">
        <ele>1730.2</ele>
        <time>2021-06-26T11:26:29Z</time>
      </trkpt>
      <trkpt lat="44.85892" lon="5.97688">
        <ele>1729.6</ele>
        <time>2021-06-26T11:29:58Z</time>
      </trkpt>
      <trkpt lat="44.8589" lon="5.97685">
        <ele>1729.4</ele>
        <time>2021-06-26T11:30:00Z</time>
      </trkpt>
      <trkpt lat="44.85886" lon="5.97683">
        <ele>1729.4</ele>
        <time>2021-06-26T11:30:03Z</time>
      </trkpt>
      <trkpt lat="44.85884" lon="5.97686">
        <ele>1729.2</ele>
        <time>2021-06-26T11:30:05Z</time>
      </trkpt>
      <trkpt lat="44.8589" lon="5.97692">
        <ele>1728.8</ele>
        <time>2021-06-26T11:30:10Z</time>
      </trkpt>
      <trkpt lat="44.85895" lon="5.97691">
        <ele>1729</ele>
        <time>2021-06-26T11:30:15Z</time>
      </trkpt>
      <trkpt lat="44.85877" lon="5.97692">
        <ele>1728.4</ele>
        <time>2021-06-26T12:38:05Z</time>
      </trkpt>
      <trkpt lat="44.85879" lon="5.97698">
        <ele>1728.8</ele>
        <time>2021-06-26T12:38:08Z</time>
      </trkpt>
      <trkpt lat="44.85879" lon="5.97705">
        <ele>1729.2</ele>
        <time>2021-06-26T12:38:13Z</time>
      </trkpt>
      <trkpt lat="44.85879" lon="5.97707">
        <ele>1729.2</ele>
        <time>2021-06-26T12:38:14Z</time>
      </trkpt>
      <trkpt lat="44.8588" lon="5.97709">
        <ele>1729.4</ele>
        <time>2021-06-26T12:38:16Z</time>
      </trkpt>
      <trkpt lat="44.8588" lon="5.9771">
        <ele>1729.6</ele>
        <time>2021-06-26T12:38:18Z</time>
      </trkpt>
      <trkpt lat="44.85881" lon="5.97703">
        <ele>1730</ele>
        <time>2021-06-26T12:40:24Z</time>
      </trkpt>
      <trkpt lat="44.85881" lon="5.97696">
        <ele>1729.8</ele>
        <time>2021-06-26T12:40:26Z</time>
      </trkpt>
      <trkpt lat="44.85876" lon="5.97671">
        <ele>1729.6</ele>
        <time>2021-06-26T12:40:32Z</time>
      </trkpt>
      <trkpt lat="44.85873" lon="5.97636">
        <ele>1728.4</ele>
        <time>2021-06-26T12:40:40Z</time>
      </trkpt>
      <trkpt lat="44.85874" lon="5.97605">
        <ele>1727.4</ele>
        <time>2021-06-26T12:40:46Z</time>
      </trkpt>
      <trkpt lat="44.85875" lon="5.97583">
        <ele>1726.2</ele>
        <time>2021-06-26T12:40:49Z</time>
      </trkpt>
      <trkpt lat="44.85878" lon="5.9756">
        <ele>1725.2</ele>
        <time>2021-06-26T12:40:52Z</time>
      </trkpt>
      <trkpt lat="44.85882" lon="5.97529">
        <ele>1724.2</ele>
        <time>2021-06-26T12:40:55Z</time>
      </trkpt>
      <trkpt lat="44.85883" lon="5.97517">
        <ele>1723.6</ele>
        <time>2021-06-26T12:40:56Z</time>
      </trkpt>
      <trkpt lat="44.85884" lon="5.97508">
        <ele>1722.8</ele>
        <time>2021-06-26T12:40:57Z</time>
      </trkpt>
      <trkpt lat="44.85884" lon="5.97483">
        <ele>1722</ele>
        <time>2021-06-26T12:40:59Z</time>
      </trkpt>
      <trkpt lat="44.85882" lon="5.97471">
        <ele>1721.6</ele>
        <time>2021-06-26T12:41:00Z</time>
      </trkpt>
      <trkpt lat="44.8588" lon="5.97459">
        <ele>1720.8</ele>
        <time>2021-06-26T12:41:01Z</time>
      </trkpt>
      <trkpt lat="44.85878" lon="5.9745">
        <ele>1720.6</ele>
        <time>2021-06-26T12:41:02Z</time>
      </trkpt>
      <trkpt lat="44.85873" lon="5.97415">
        <ele>1719.2</ele>
        <time>2021-06-26T12:41:05Z</time>
      </trkpt>
      <trkpt lat="44.85873" lon="5.97396">
        <ele>1717.6</ele>
        <time>2021-06-26T12:41:07Z</time>
      </trkpt>
      <trkpt lat="44.85874" lon="5.97385">
        <ele>1717</ele>
        <time>2021-06-26T12:41:08Z</time>
      </trkpt>
      <trkpt lat="44.85876" lon="5.97372">
        <ele>1715.4</ele>
        <time>2021-06-26T12:41:09Z</time>
      </trkpt>
      <trkpt lat="44.85879" lon="5.97363">
        <ele>1715</ele>
        <time>2021-06-26T12:41:10Z</time>
      </trkpt>
      <trkpt lat="44.85882" lon="5.97353">
        <ele>1714</ele>
        <time>2021-06-26T12:41:11Z</time>
      </trkpt>
      <trkpt lat="44.85892" lon="5.97334">
        <ele>1712.8</ele>
        <time>2021-06-26T12:41:13Z</time>
      </trkpt>
      <trkpt lat="44.859" lon="5.97314">
        <ele>1710.8</ele>
        <time>2021-06-26T12:41:15Z</time>
      </trkpt>
      <trkpt lat="44.85904" lon="5.97303">
        <ele>1709.8</ele>
        <time>2021-06-26T12:41:16Z</time>
      </trkpt>
      <trkpt lat="44.85905" lon="5.97293">
        <ele>1709.4</ele>
        <time>2021-06-26T12:41:17Z</time>
      </trkpt>
      <trkpt lat="44.85907" lon="5.97281">
        <ele>1708</ele>
        <time>2021-06-26T12:41:18Z</time>
      </trkpt>
      <trkpt lat="44.85908" lon="5.97253">
        <ele>1706.8</ele>
        <time>2021-06-26T12:41:20Z</time>
      </trkpt>
      <trkpt lat="44.85904" lon="5.97239">
        <ele>1706.2</ele>
        <time>2021-06-26T12:41:21Z</time>
      </trkpt>
      <trkpt lat="44.85899" lon="5.97226">
        <ele>1705</ele>
        <time>2021-06-26T12:41:22Z</time>
      </trkpt>
      <trkpt lat="44.85884" lon="5.97203">
        <ele>1703.8</ele>
        <time>2021-06-26T12:41:24Z</time>
      </trkpt>
      <trkpt lat="44.85876" lon="5.97192">
        <ele>1702.4</ele>
        <time>2021-06-26T12:41:25Z</time>
      </trkpt>
      <trkpt lat="44.8586" lon="5.97169">
        <ele>1700.4</ele>
        <time>2021-06-26T12:41:27Z</time>
      </trkpt>
      <trkpt lat="44.85844" lon="5.97147">
        <ele>1699</ele>
        <time>2021-06-26T12:41:29Z</time>
      </trkpt>
      <trkpt lat="44.85837" lon="5.97136">
        <ele>1697.6</ele>
        <time>2021-06-26T12:41:30Z</time>
      </trkpt>
      <trkpt lat="44.8583" lon="5.97124">
        <ele>1697</ele>
        <time>2021-06-26T12:41:31Z</time>
      </trkpt>
      <trkpt lat="44.85825" lon="5.97111">
        <ele>1695.8</ele>
        <time>2021-06-26T12:41:32Z</time>
      </trkpt>
      <trkpt lat="44.85821" lon="5.97097">
        <ele>1695.2</ele>
        <time>2021-06-26T12:41:33Z</time>
      </trkpt>
      <trkpt lat="44.85818" lon="5.97085">
        <ele>1694.2</ele>
        <time>2021-06-26T12:41:34Z</time>
      </trkpt>
      <trkpt lat="44.85816" lon="5.97067">
        <ele>1693.8</ele>
        <time>2021-06-26T12:41:35Z</time>
      </trkpt>
      <trkpt lat="44.85815" lon="5.97051">
        <ele>1692.4</ele>
        <time>2021-06-26T12:41:36Z</time>
      </trkpt>
      <trkpt lat="44.85814" lon="5.97036">
        <ele>1691.4</ele>
        <time>2021-06-26T12:41:37Z</time>
      </trkpt>
      <trkpt lat="44.85814" lon="5.97013">
        <ele>1689.4</ele>
        <time>2021-06-26T12:41:39Z</time>
      </trkpt>
      <trkpt lat="44.8581" lon="5.96998">
        <ele>1688.8</ele>
        <time>2021-06-26T12:41:40Z</time>
      </trkpt>
      <trkpt lat="44.85804" lon="5.96988">
        <ele>1687.6</ele>
        <time>2021-06-26T12:41:41Z</time>
      </trkpt>
      <trkpt lat="44.85786" lon="5.96979">
        <ele>1686.2</ele>
        <time>2021-06-26T12:41:43Z</time>
      </trkpt>
      <trkpt lat="44.85776" lon="5.96976">
        <ele>1685.2</ele>
        <time>2021-06-26T12:41:44Z</time>
      </trkpt>
      <trkpt lat="44.85754" lon="5.96969">
        <ele>1683.8</ele>
        <time>2021-06-26T12:41:46Z</time>
      </trkpt>
      <trkpt lat="44.85735" lon="5.96963">
        <ele>1682.6</ele>
        <time>2021-06-26T12:41:48Z</time>
      </trkpt>
      <trkpt lat="44.85722" lon="5.96951">
        <ele>1682</ele>
        <time>2021-06-26T12:41:50Z</time>
      </trkpt>
      <trkpt lat="44.85718" lon="5.96942">
        <ele>1681.4</ele>
        <time>2021-06-26T12:41:51Z</time>
      </trkpt>
      <trkpt lat="44.85716" lon="5.9693">
        <ele>1681</ele>
        <time>2021-06-26T12:41:52Z</time>
      </trkpt>
      <trkpt lat="44.85716" lon="5.96918">
        <ele>1680.2</ele>
        <time>2021-06-26T12:41:53Z</time>
      </trkpt>
      <trkpt lat="44.85717" lon="5.96891">
        <ele>1678</ele>
        <time>2021-06-26T12:41:55Z</time>
      </trkpt>
      <trkpt lat="44.8572" lon="5.96861">
        <ele>1676.6</ele>
        <time>2021-06-26T12:41:57Z</time>
      </trkpt>
      <trkpt lat="44.85721" lon="5.96844">
        <ele>1675.6</ele>
        <time>2021-06-26T12:41:58Z</time>
      </trkpt>
      <trkpt lat="44.85723" lon="5.96828">
        <ele>1674.4</ele>
        <time>2021-06-26T12:41:59Z</time>
      </trkpt>
      <trkpt lat="44.85725" lon="5.96811">
        <ele>1673</ele>
        <time>2021-06-26T12:42:00Z</time>
      </trkpt>
      <trkpt lat="44.85726" lon="5.96794">
        <ele>1672.2</ele>
        <time>2021-06-26T12:42:01Z</time>
      </trkpt>
      <trkpt lat="44.85726" lon="5.96776">
        <ele>1670.8</ele>
        <time>2021-06-26T12:42:02Z</time>
      </trkpt>
      <trkpt lat="44.85726" lon="5.96739">
        <ele>1667.8</ele>
        <time>2021-06-26T12:42:04Z</time>
      </trkpt>
      <trkpt lat="44.85725" lon="5.96719">
        <ele>1666</ele>
        <time>2021-06-26T12:42:05Z</time>
      </trkpt>
      <trkpt lat="44.85724" lon="5.967">
        <ele>1665.4</ele>
        <time>2021-06-26T12:42:06Z</time>
      </trkpt>
      <trkpt lat="44.85722" lon="5.96681">
        <ele>1663.6</ele>
        <time>2021-06-26T12:42:07Z</time>
      </trkpt>
      <trkpt lat="44.85719" lon="5.96663">
        <ele>1662.4</ele>
        <time>2021-06-26T12:42:08Z</time>
      </trkpt>
      <trkpt lat="44.85716" lon="5.96645">
        <ele>1661</ele>
        <time>2021-06-26T12:42:09Z</time>
      </trkpt>
      <trkpt lat="44.85713" lon="5.96628">
        <ele>1660.2</ele>
        <time>2021-06-26T12:42:10Z</time>
      </trkpt>
      <trkpt lat="44.85709" lon="5.96613">
        <ele>1658.6</ele>
        <time>2021-06-26T12:42:11Z</time>
      </trkpt>
      <trkpt lat="44.85704" lon="5.96598">
        <ele>1657.2</ele>
        <time>2021-06-26T12:42:12Z</time>
      </trkpt>
      <trkpt lat="44.85697" lon="5.96584">
        <ele>1656.8</ele>
        <time>2021-06-26T12:42:13Z</time>
      </trkpt>
      <trkpt lat="44.85689" lon="5.96573">
        <ele>1655.4</ele>
        <time>2021-06-26T12:42:14Z</time>
      </trkpt>
      <trkpt lat="44.8568" lon="5.96566">
        <ele>1654.6</ele>
        <time>2021-06-26T12:42:15Z</time>
      </trkpt>
      <trkpt lat="44.85669" lon="5.96561">
        <ele>1652.4</ele>
        <time>2021-06-26T12:42:16Z</time>
      </trkpt>
      <trkpt lat="44.85648" lon="5.96558">
        <ele>1649.6</ele>
        <time>2021-06-26T12:42:18Z</time>
      </trkpt>
      <trkpt lat="44.85639" lon="5.96559">
        <ele>1648.2</ele>
        <time>2021-06-26T12:42:19Z</time>
      </trkpt>
      <trkpt lat="44.85628" lon="5.9656">
        <ele>1647.6</ele>
        <time>2021-06-26T12:42:20Z</time>
      </trkpt>
      <trkpt lat="44.85618" lon="5.96558">
        <ele>1646.2</ele>
        <time>2021-06-26T12:42:21Z</time>
      </trkpt>
      <trkpt lat="44.85612" lon="5.96554">
        <ele>1645.4</ele>
        <time>2021-06-26T12:42:22Z</time>
      </trkpt>
      <trkpt lat="44.85604" lon="5.96546">
        <ele>1644</ele>
        <time>2021-06-26T12:42:23Z</time>
      </trkpt>
      <trkpt lat="44.856" lon="5.96537">
        <ele>1643.4</ele>
        <time>2021-06-26T12:42:24Z</time>
      </trkpt>
      <trkpt lat="44.85597" lon="5.96528">
        <ele>1642</ele>
        <time>2021-06-26T12:42:25Z</time>
      </trkpt>
      <trkpt lat="44.85598" lon="5.96518">
        <ele>1640.6</ele>
        <time>2021-06-26T12:42:26Z</time>
      </trkpt>
      <trkpt lat="44.85608" lon="5.96502">
        <ele>1639</ele>
        <time>2021-06-26T12:42:28Z</time>
      </trkpt>
      <trkpt lat="44.85623" lon="5.96486">
        <ele>1637.8</ele>
        <time>2021-06-26T12:42:30Z</time>
      </trkpt>
      <trkpt lat="44.85637" lon="5.96469">
        <ele>1636.8</ele>
        <time>2021-06-26T12:42:32Z</time>
      </trkpt>
      <trkpt lat="44.85645" lon="5.96459">
        <ele>1635.8</ele>
        <time>2021-06-26T12:42:33Z</time>
      </trkpt>
      <trkpt lat="44.85651" lon="5.96452">
        <ele>1635.2</ele>
        <time>2021-06-26T12:42:34Z</time>
      </trkpt>
      <trkpt lat="44.8566" lon="5.96441">
        <ele>1634.4</ele>
        <time>2021-06-26T12:42:35Z</time>
      </trkpt>
      <trkpt lat="44.85674" lon="5.96419">
        <ele>1633.4</ele>
        <time>2021-06-26T12:42:37Z</time>
      </trkpt>
      <trkpt lat="44.85678" lon="5.96409">
        <ele>1633.2</ele>
        <time>2021-06-26T12:42:38Z</time>
      </trkpt>
      <trkpt lat="44.85683" lon="5.96397">
        <ele>1632.8</ele>
        <time>2021-06-26T12:42:39Z</time>
      </trkpt>
      <trkpt lat="44.85688" lon="5.96381">
        <ele>1631.8</ele>
        <time>2021-06-26T12:42:40Z</time>
      </trkpt>
      <trkpt lat="44.85695" lon="5.96354">
        <ele>1630.6</ele>
        <time>2021-06-26T12:42:42Z</time>
      </trkpt>
      <trkpt lat="44.85706" lon="5.96316">
        <ele>1628.8</ele>
        <time>2021-06-26T12:42:45Z</time>
      </trkpt>
      <trkpt lat="44.85714" lon="5.96293">
        <ele>1627.8</ele>
        <time>2021-06-26T12:42:47Z</time>
      </trkpt>
      <trkpt lat="44.8572" lon="5.96283">
        <ele>1627.6</ele>
        <time>2021-06-26T12:42:48Z</time>
      </trkpt>
      <trkpt lat="44.85736" lon="5.9625">
        <ele>1626.6</ele>
        <time>2021-06-26T12:42:51Z</time>
      </trkpt>
      <trkpt lat="44.85742" lon="5.9624">
        <ele>1626.2</ele>
        <time>2021-06-26T12:42:52Z</time>
      </trkpt>
      <trkpt lat="44.85748" lon="5.9623">
        <ele>1625.6</ele>
        <time>2021-06-26T12:42:53Z</time>
      </trkpt>
      <trkpt lat="44.85754" lon="5.9622">
        <ele>1624.4</ele>
        <time>2021-06-26T12:42:54Z</time>
      </trkpt>
      <trkpt lat="44.85766" lon="5.962">
        <ele>1623.2</ele>
        <time>2021-06-26T12:42:56Z</time>
      </trkpt>
      <trkpt lat="44.8577" lon="5.96188">
        <ele>1622.8</ele>
        <time>2021-06-26T12:42:57Z</time>
      </trkpt>
      <trkpt lat="44.85774" lon="5.96176">
        <ele>1622.2</ele>
        <time>2021-06-26T12:42:58Z</time>
      </trkpt>
      <trkpt lat="44.85778" lon="5.96163">
        <ele>1621.6</ele>
        <time>2021-06-26T12:42:59Z</time>
      </trkpt>
      <trkpt lat="44.85785" lon="5.96136">
        <ele>1620</ele>
        <time>2021-06-26T12:43:01Z</time>
      </trkpt>
      <trkpt lat="44.85792" lon="5.96109">
        <ele>1618.8</ele>
        <time>2021-06-26T12:43:03Z</time>
      </trkpt>
      <trkpt lat="44.85798" lon="5.9608">
        <ele>1618</ele>
        <time>2021-06-26T12:43:05Z</time>
      </trkpt>
      <trkpt lat="44.858" lon="5.96066">
        <ele>1616.8</ele>
        <time>2021-06-26T12:43:06Z</time>
      </trkpt>
      <trkpt lat="44.85801" lon="5.96053">
        <ele>1616.4</ele>
        <time>2021-06-26T12:43:07Z</time>
      </trkpt>
      <trkpt lat="44.858" lon="5.96041">
        <ele>1615</ele>
        <time>2021-06-26T12:43:08Z</time>
      </trkpt>
      <trkpt lat="44.85798" lon="5.96031">
        <ele>1614.6</ele>
        <time>2021-06-26T12:43:09Z</time>
      </trkpt>
      <trkpt lat="44.85793" lon="5.96022">
        <ele>1613.6</ele>
        <time>2021-06-26T12:43:10Z</time>
      </trkpt>
      <trkpt lat="44.85786" lon="5.96017">
        <ele>1613.4</ele>
        <time>2021-06-26T12:43:11Z</time>
      </trkpt>
      <trkpt lat="44.85777" lon="5.96016">
        <ele>1613</ele>
        <time>2021-06-26T12:43:12Z</time>
      </trkpt>
      <trkpt lat="44.85769" lon="5.96017">
        <ele>1612.4</ele>
        <time>2021-06-26T12:43:13Z</time>
      </trkpt>
      <trkpt lat="44.85745" lon="5.96025">
        <ele>1611.6</ele>
        <time>2021-06-26T12:43:16Z</time>
      </trkpt>
      <trkpt lat="44.85737" lon="5.96026">
        <ele>1611</ele>
        <time>2021-06-26T12:43:17Z</time>
      </trkpt>
      <trkpt lat="44.8572" lon="5.96028">
        <ele>1610.4</ele>
        <time>2021-06-26T12:43:19Z</time>
      </trkpt>
      <trkpt lat="44.85712" lon="5.96029">
        <ele>1610</ele>
        <time>2021-06-26T12:43:20Z</time>
      </trkpt>
      <trkpt lat="44.85686" lon="5.9603">
        <ele>1609.6</ele>
        <time>2021-06-26T12:43:23Z</time>
      </trkpt>
      <trkpt lat="44.85653" lon="5.96032">
        <ele>1609</ele>
        <time>2021-06-26T12:43:27Z</time>
      </trkpt>
      <trkpt lat="44.85613" lon="5.96033">
        <ele>1608</ele>
        <time>2021-06-26T12:43:32Z</time>
      </trkpt>
      <trkpt lat="44.8558" lon="5.96035">
        <ele>1606.6</ele>
        <time>2021-06-26T12:43:36Z</time>
      </trkpt>
      <trkpt lat="44.85546" lon="5.96038">
        <ele>1605.2</ele>
        <time>2021-06-26T12:43:40Z</time>
      </trkpt>
      <trkpt lat="44.85528" lon="5.96039">
        <ele>1604.2</ele>
        <time>2021-06-26T12:43:42Z</time>
      </trkpt>
      <trkpt lat="44.85519" lon="5.96039">
        <ele>1603.8</ele>
        <time>2021-06-26T12:43:43Z</time>
      </trkpt>
      <trkpt lat="44.85492" lon="5.96038">
        <ele>1602.8</ele>
        <time>2021-06-26T12:43:46Z</time>
      </trkpt>
      <trkpt lat="44.85472" lon="5.96038">
        <ele>1602</ele>
        <time>2021-06-26T12:43:48Z</time>
      </trkpt>
      <trkpt lat="44.85462" lon="5.96036">
        <ele>1601.8</ele>
        <time>2021-06-26T12:43:49Z</time>
      </trkpt>
      <trkpt lat="44.85444" lon="5.96031">
        <ele>1601</ele>
        <time>2021-06-26T12:43:51Z</time>
      </trkpt>
      <trkpt lat="44.85434" lon="5.96028">
        <ele>1599.4</ele>
        <time>2021-06-26T12:43:52Z</time>
      </trkpt>
      <trkpt lat="44.85415" lon="5.96019">
        <ele>1598</ele>
        <time>2021-06-26T12:43:54Z</time>
      </trkpt>
      <trkpt lat="44.85389" lon="5.96006">
        <ele>1596.8</ele>
        <time>2021-06-26T12:43:57Z</time>
      </trkpt>
      <trkpt lat="44.8538" lon="5.96002">
        <ele>1596.4</ele>
        <time>2021-06-26T12:43:58Z</time>
      </trkpt>
      <trkpt lat="44.85371" lon="5.96">
        <ele>1595.6</ele>
        <time>2021-06-26T12:43:59Z</time>
      </trkpt>
      <trkpt lat="44.85361" lon="5.96001">
        <ele>1595.4</ele>
        <time>2021-06-26T12:44:00Z</time>
      </trkpt>
      <trkpt lat="44.85342" lon="5.96008">
        <ele>1593.8</ele>
        <time>2021-06-26T12:44:02Z</time>
      </trkpt>
      <trkpt lat="44.85322" lon="5.96016">
        <ele>1592.6</ele>
        <time>2021-06-26T12:44:04Z</time>
      </trkpt>
      <trkpt lat="44.85302" lon="5.96024">
        <ele>1591.4</ele>
        <time>2021-06-26T12:44:06Z</time>
      </trkpt>
      <trkpt lat="44.85282" lon="5.96031">
        <ele>1590.2</ele>
        <time>2021-06-26T12:44:08Z</time>
      </trkpt>
      <trkpt lat="44.85272" lon="5.96035">
        <ele>1589.4</ele>
        <time>2021-06-26T12:44:09Z</time>
      </trkpt>
      <trkpt lat="44.85262" lon="5.96039">
        <ele>1589</ele>
        <time>2021-06-26T12:44:10Z</time>
      </trkpt>
      <trkpt lat="44.85223" lon="5.96058">
        <ele>1588</ele>
        <time>2021-06-26T12:44:14Z</time>
      </trkpt>
      <trkpt lat="44.85204" lon="5.96067">
        <ele>1586.6</ele>
        <time>2021-06-26T12:44:16Z</time>
      </trkpt>
      <trkpt lat="44.85166" lon="5.96088">
        <ele>1585.2</ele>
        <time>2021-06-26T12:44:20Z</time>
      </trkpt>
      <trkpt lat="44.85147" lon="5.96097">
        <ele>1584.6</ele>
        <time>2021-06-26T12:44:22Z</time>
      </trkpt>
      <trkpt lat="44.85138" lon="5.961">
        <ele>1583.6</ele>
        <time>2021-06-26T12:44:23Z</time>
      </trkpt>
      <trkpt lat="44.85116" lon="5.96105">
        <ele>1582.4</ele>
        <time>2021-06-26T12:44:25Z</time>
      </trkpt>
      <trkpt lat="44.85108" lon="5.96105">
        <ele>1582</ele>
        <time>2021-06-26T12:44:26Z</time>
      </trkpt>
      <trkpt lat="44.85096" lon="5.96105">
        <ele>1581.6</ele>
        <time>2021-06-26T12:44:27Z</time>
      </trkpt>
      <trkpt lat="44.85077" lon="5.96103">
        <ele>1581.2</ele>
        <time>2021-06-26T12:44:29Z</time>
      </trkpt>
      <trkpt lat="44.85067" lon="5.96101">
        <ele>1580.8</ele>
        <time>2021-06-26T12:44:30Z</time>
      </trkpt>
      <trkpt lat="44.85033" lon="5.96098">
        <ele>1580</ele>
        <time>2021-06-26T12:44:33Z</time>
      </trkpt>
      <trkpt lat="44.8501" lon="5.96098">
        <ele>1579</ele>
        <time>2021-06-26T12:44:35Z</time>
      </trkpt>
      <trkpt lat="44.84986" lon="5.96106">
        <ele>1576.2</ele>
        <time>2021-06-26T12:44:37Z</time>
      </trkpt>
      <trkpt lat="44.84974" lon="5.96109">
        <ele>1575.8</ele>
        <time>2021-06-26T12:44:38Z</time>
      </trkpt>
      <trkpt lat="44.84962" lon="5.96113">
        <ele>1574.6</ele>
        <time>2021-06-26T12:44:39Z</time>
      </trkpt>
      <trkpt lat="44.84936" lon="5.96121">
        <ele>1572.6</ele>
        <time>2021-06-26T12:44:41Z</time>
      </trkpt>
      <trkpt lat="44.84923" lon="5.96127">
        <ele>1572</ele>
        <time>2021-06-26T12:44:42Z</time>
      </trkpt>
      <trkpt lat="44.84911" lon="5.96134">
        <ele>1571</ele>
        <time>2021-06-26T12:44:43Z</time>
      </trkpt>
      <trkpt lat="44.84899" lon="5.96142">
        <ele>1569.8</ele>
        <time>2021-06-26T12:44:44Z</time>
      </trkpt>
      <trkpt lat="44.84886" lon="5.9615">
        <ele>1568.6</ele>
        <time>2021-06-26T12:44:45Z</time>
      </trkpt>
      <trkpt lat="44.84875" lon="5.96158">
        <ele>1567.2</ele>
        <time>2021-06-26T12:44:46Z</time>
      </trkpt>
      <trkpt lat="44.84863" lon="5.96166">
        <ele>1566.8</ele>
        <time>2021-06-26T12:44:47Z</time>
      </trkpt>
      <trkpt lat="44.84851" lon="5.96174">
        <ele>1566</ele>
        <time>2021-06-26T12:44:48Z</time>
      </trkpt>
      <trkpt lat="44.84815" lon="5.96202">
        <ele>1564.4</ele>
        <time>2021-06-26T12:44:51Z</time>
      </trkpt>
      <trkpt lat="44.84796" lon="5.96219">
        <ele>1563.4</ele>
        <time>2021-06-26T12:44:53Z</time>
      </trkpt>
      <trkpt lat="44.84784" lon="5.96227">
        <ele>1562.8</ele>
        <time>2021-06-26T12:44:54Z</time>
      </trkpt>
      <trkpt lat="44.84759" lon="5.96242">
        <ele>1561.6</ele>
        <time>2021-06-26T12:44:56Z</time>
      </trkpt>
      <trkpt lat="44.84747" lon="5.96246">
        <ele>1560.2</ele>
        <time>2021-06-26T12:44:57Z</time>
      </trkpt>
      <trkpt lat="44.84734" lon="5.9625">
        <ele>1559</ele>
        <time>2021-06-26T12:44:58Z</time>
      </trkpt>
      <trkpt lat="44.84722" lon="5.96253">
        <ele>1558.6</ele>
        <time>2021-06-26T12:44:59Z</time>
      </trkpt>
      <trkpt lat="44.84711" lon="5.96254">
        <ele>1557.6</ele>
        <time>2021-06-26T12:45:00Z</time>
      </trkpt>
      <trkpt lat="44.84681" lon="5.96258">
        <ele>1555.4</ele>
        <time>2021-06-26T12:45:02Z</time>
      </trkpt>
      <trkpt lat="44.84667" lon="5.96259">
        <ele>1554.6</ele>
        <time>2021-06-26T12:45:03Z</time>
      </trkpt>
      <trkpt lat="44.84653" lon="5.96259">
        <ele>1553.4</ele>
        <time>2021-06-26T12:45:04Z</time>
      </trkpt>
      <trkpt lat="44.8463" lon="5.9626">
        <ele>1551.8</ele>
        <time>2021-06-26T12:45:06Z</time>
      </trkpt>
      <trkpt lat="44.84617" lon="5.9626">
        <ele>1550.8</ele>
        <time>2021-06-26T12:45:07Z</time>
      </trkpt>
      <trkpt lat="44.84594" lon="5.9626">
        <ele>1549.4</ele>
        <time>2021-06-26T12:45:09Z</time>
      </trkpt>
      <trkpt lat="44.84571" lon="5.9626">
        <ele>1548.4</ele>
        <time>2021-06-26T12:45:11Z</time>
      </trkpt>
      <trkpt lat="44.8456" lon="5.9626">
        <ele>1547.2</ele>
        <time>2021-06-26T12:45:12Z</time>
      </trkpt>
      <trkpt lat="44.84537" lon="5.9626">
        <ele>1546.2</ele>
        <time>2021-06-26T12:45:14Z</time>
      </trkpt>
      <trkpt lat="44.84526" lon="5.96262">
        <ele>1545.6</ele>
        <time>2021-06-26T12:45:15Z</time>
      </trkpt>
      <trkpt lat="44.84514" lon="5.96265">
        <ele>1545</ele>
        <time>2021-06-26T12:45:16Z</time>
      </trkpt>
      <trkpt lat="44.8449" lon="5.96272">
        <ele>1543.6</ele>
        <time>2021-06-26T12:45:18Z</time>
      </trkpt>
      <trkpt lat="44.84478" lon="5.96275">
        <ele>1542.4</ele>
        <time>2021-06-26T12:45:19Z</time>
      </trkpt>
      <trkpt lat="44.84458" lon="5.96278">
        <ele>1540.4</ele>
        <time>2021-06-26T12:45:21Z</time>
      </trkpt>
      <trkpt lat="44.84446" lon="5.96278">
        <ele>1540</ele>
        <time>2021-06-26T12:45:22Z</time>
      </trkpt>
      <trkpt lat="44.84431" lon="5.96276">
        <ele>1539.2</ele>
        <time>2021-06-26T12:45:23Z</time>
      </trkpt>
      <trkpt lat="44.84419" lon="5.96272">
        <ele>1538.4</ele>
        <time>2021-06-26T12:45:24Z</time>
      </trkpt>
      <trkpt lat="44.84406" lon="5.96267">
        <ele>1536.8</ele>
        <time>2021-06-26T12:45:25Z</time>
      </trkpt>
      <trkpt lat="44.84394" lon="5.96261">
        <ele>1535.4</ele>
        <time>2021-06-26T12:45:26Z</time>
      </trkpt>
      <trkpt lat="44.84382" lon="5.96254">
        <ele>1534.4</ele>
        <time>2021-06-26T12:45:27Z</time>
      </trkpt>
      <trkpt lat="44.84371" lon="5.96245">
        <ele>1533.2</ele>
        <time>2021-06-26T12:45:28Z</time>
      </trkpt>
      <trkpt lat="44.84349" lon="5.96221">
        <ele>1530.2</ele>
        <time>2021-06-26T12:45:30Z</time>
      </trkpt>
      <trkpt lat="44.84328" lon="5.96195">
        <ele>1528.8</ele>
        <time>2021-06-26T12:45:32Z</time>
      </trkpt>
      <trkpt lat="44.84317" lon="5.96182">
        <ele>1527.2</ele>
        <time>2021-06-26T12:45:33Z</time>
      </trkpt>
      <trkpt lat="44.84296" lon="5.96157">
        <ele>1525.6</ele>
        <time>2021-06-26T12:45:35Z</time>
      </trkpt>
      <trkpt lat="44.84279" lon="5.96133">
        <ele>1523.2</ele>
        <time>2021-06-26T12:45:37Z</time>
      </trkpt>
      <trkpt lat="44.84271" lon="5.96119">
        <ele>1522.4</ele>
        <time>2021-06-26T12:45:38Z</time>
      </trkpt>
      <trkpt lat="44.8426" lon="5.96101">
        <ele>1520.6</ele>
        <time>2021-06-26T12:45:39Z</time>
      </trkpt>
      <trkpt lat="44.84252" lon="5.96086">
        <ele>1518.8</ele>
        <time>2021-06-26T12:45:40Z</time>
      </trkpt>
      <trkpt lat="44.84237" lon="5.96053">
        <ele>1517</ele>
        <time>2021-06-26T12:45:42Z</time>
      </trkpt>
      <trkpt lat="44.84232" lon="5.96039">
        <ele>1516.4</ele>
        <time>2021-06-26T12:45:43Z</time>
      </trkpt>
      <trkpt lat="44.84223" lon="5.96018">
        <ele>1514.8</ele>
        <time>2021-06-26T12:45:44Z</time>
      </trkpt>
      <trkpt lat="44.84211" lon="5.95986">
        <ele>1512.4</ele>
        <time>2021-06-26T12:45:46Z</time>
      </trkpt>
      <trkpt lat="44.84207" lon="5.95975">
        <ele>1511.2</ele>
        <time>2021-06-26T12:45:47Z</time>
      </trkpt>
      <trkpt lat="44.84201" lon="5.95962">
        <ele>1510.6</ele>
        <time>2021-06-26T12:45:48Z</time>
      </trkpt>
      <trkpt lat="44.84193" lon="5.95952">
        <ele>1509.4</ele>
        <time>2021-06-26T12:45:49Z</time>
      </trkpt>
      <trkpt lat="44.84182" lon="5.95943">
        <ele>1508.8</ele>
        <time>2021-06-26T12:45:50Z</time>
      </trkpt>
      <trkpt lat="44.84172" lon="5.95938">
        <ele>1507.8</ele>
        <time>2021-06-26T12:45:51Z</time>
      </trkpt>
      <trkpt lat="44.84163" lon="5.95937">
        <ele>1507.2</ele>
        <time>2021-06-26T12:45:52Z</time>
      </trkpt>
      <trkpt lat="44.84151" lon="5.95937">
        <ele>1506</ele>
        <time>2021-06-26T12:45:53Z</time>
      </trkpt>
      <trkpt lat="44.84137" lon="5.9594">
        <ele>1505.2</ele>
        <time>2021-06-26T12:45:54Z</time>
      </trkpt>
      <trkpt lat="44.84113" lon="5.95948">
        <ele>1503.8</ele>
        <time>2021-06-26T12:45:56Z</time>
      </trkpt>
      <trkpt lat="44.84102" lon="5.95955">
        <ele>1503.2</ele>
        <time>2021-06-26T12:45:57Z</time>
      </trkpt>
      <trkpt lat="44.84093" lon="5.95961">
        <ele>1502.2</ele>
        <time>2021-06-26T12:45:58Z</time>
      </trkpt>
      <trkpt lat="44.84082" lon="5.95969">
        <ele>1502</ele>
        <time>2021-06-26T12:45:59Z</time>
      </trkpt>
      <trkpt lat="44.84069" lon="5.9598">
        <ele>1501.2</ele>
        <time>2021-06-26T12:46:00Z</time>
      </trkpt>
      <trkpt lat="44.84053" lon="5.95998">
        <ele>1499.6</ele>
        <time>2021-06-26T12:46:02Z</time>
      </trkpt>
      <trkpt lat="44.84047" lon="5.96008">
        <ele>1498.4</ele>
        <time>2021-06-26T12:46:03Z</time>
      </trkpt>
      <trkpt lat="44.84038" lon="5.96027">
        <ele>1497</ele>
        <time>2021-06-26T12:46:05Z</time>
      </trkpt>
      <trkpt lat="44.84034" lon="5.96035">
        <ele>1496.8</ele>
        <time>2021-06-26T12:46:06Z</time>
      </trkpt>
      <trkpt lat="44.84029" lon="5.96039">
        <ele>1496.2</ele>
        <time>2021-06-26T12:46:07Z</time>
      </trkpt>
      <trkpt lat="44.84024" lon="5.96039">
        <ele>1495.4</ele>
        <time>2021-06-26T12:46:08Z</time>
      </trkpt>
      <trkpt lat="44.84022" lon="5.96034">
        <ele>1495.2</ele>
        <time>2021-06-26T12:46:09Z</time>
      </trkpt>
      <trkpt lat="44.84024" lon="5.96017">
        <ele>1494.4</ele>
        <time>2021-06-26T12:46:11Z</time>
      </trkpt>
      <trkpt lat="44.84028" lon="5.96009">
        <ele>1494</ele>
        <time>2021-06-26T12:46:12Z</time>
      </trkpt>
      <trkpt lat="44.84046" lon="5.95985">
        <ele>1492.4</ele>
        <time>2021-06-26T12:46:15Z</time>
      </trkpt>
      <trkpt lat="44.84059" lon="5.95968">
        <ele>1490.8</ele>
        <time>2021-06-26T12:46:17Z</time>
      </trkpt>
      <trkpt lat="44.84072" lon="5.95949">
        <ele>1489.8</ele>
        <time>2021-06-26T12:46:19Z</time>
      </trkpt>
      <trkpt lat="44.84088" lon="5.95931">
        <ele>1488.8</ele>
        <time>2021-06-26T12:46:21Z</time>
      </trkpt>
      <trkpt lat="44.84097" lon="5.95921">
        <ele>1488.2</ele>
        <time>2021-06-26T12:46:22Z</time>
      </trkpt>
      <trkpt lat="44.84115" lon="5.95904">
        <ele>1486.4</ele>
        <time>2021-06-26T12:46:24Z</time>
      </trkpt>
      <trkpt lat="44.84135" lon="5.9589">
        <ele>1484.8</ele>
        <time>2021-06-26T12:46:26Z</time>
      </trkpt>
      <trkpt lat="44.84155" lon="5.95878">
        <ele>1483.2</ele>
        <time>2021-06-26T12:46:28Z</time>
      </trkpt>
      <trkpt lat="44.84166" lon="5.95874">
        <ele>1482</ele>
        <time>2021-06-26T12:46:29Z</time>
      </trkpt>
      <trkpt lat="44.84175" lon="5.95871">
        <ele>1481.4</ele>
        <time>2021-06-26T12:46:30Z</time>
      </trkpt>
      <trkpt lat="44.84188" lon="5.95869">
        <ele>1480</ele>
        <time>2021-06-26T12:46:31Z</time>
      </trkpt>
      <trkpt lat="44.8421" lon="5.95869">
        <ele>1478.2</ele>
        <time>2021-06-26T12:46:33Z</time>
      </trkpt>
      <trkpt lat="44.84233" lon="5.95872">
        <ele>1476.8</ele>
        <time>2021-06-26T12:46:35Z</time>
      </trkpt>
      <trkpt lat="44.84244" lon="5.95874">
        <ele>1475.4</ele>
        <time>2021-06-26T12:46:36Z</time>
      </trkpt>
      <trkpt lat="44.84255" lon="5.95875">
        <ele>1474.4</ele>
        <time>2021-06-26T12:46:37Z</time>
      </trkpt>
      <trkpt lat="44.84266" lon="5.95877">
        <ele>1472.8</ele>
        <time>2021-06-26T12:46:38Z</time>
      </trkpt>
      <trkpt lat="44.84276" lon="5.95877">
        <ele>1472.2</ele>
        <time>2021-06-26T12:46:39Z</time>
      </trkpt>
      <trkpt lat="44.84287" lon="5.95874">
        <ele>1471.2</ele>
        <time>2021-06-26T12:46:40Z</time>
      </trkpt>
      <trkpt lat="44.84296" lon="5.95868">
        <ele>1470.6</ele>
        <time>2021-06-26T12:46:41Z</time>
      </trkpt>
      <trkpt lat="44.84303" lon="5.95857">
        <ele>1470</ele>
        <time>2021-06-26T12:46:42Z</time>
      </trkpt>
      <trkpt lat="44.84308" lon="5.95845">
        <ele>1469</ele>
        <time>2021-06-26T12:46:43Z</time>
      </trkpt>
      <trkpt lat="44.84313" lon="5.95814">
        <ele>1467</ele>
        <time>2021-06-26T12:46:45Z</time>
      </trkpt>
      <trkpt lat="44.84317" lon="5.95779">
        <ele>1465</ele>
        <time>2021-06-26T12:46:47Z</time>
      </trkpt>
      <trkpt lat="44.84319" lon="5.95762">
        <ele>1464.4</ele>
        <time>2021-06-26T12:46:48Z</time>
      </trkpt>
      <trkpt lat="44.84321" lon="5.95744">
        <ele>1464</ele>
        <time>2021-06-26T12:46:49Z</time>
      </trkpt>
      <trkpt lat="44.84323" lon="5.95726">
        <ele>1463.6</ele>
        <time>2021-06-26T12:46:50Z</time>
      </trkpt>
      <trkpt lat="44.84327" lon="5.95688">
        <ele>1461</ele>
        <time>2021-06-26T12:46:52Z</time>
      </trkpt>
      <trkpt lat="44.84331" lon="5.95651">
        <ele>1458.2</ele>
        <time>2021-06-26T12:46:54Z</time>
      </trkpt>
      <trkpt lat="44.84336" lon="5.95613">
        <ele>1456.2</ele>
        <time>2021-06-26T12:46:56Z</time>
      </trkpt>
      <trkpt lat="44.8434" lon="5.95574">
        <ele>1454.2</ele>
        <time>2021-06-26T12:46:58Z</time>
      </trkpt>
      <trkpt lat="44.84342" lon="5.95556">
        <ele>1452.8</ele>
        <time>2021-06-26T12:46:59Z</time>
      </trkpt>
      <trkpt lat="44.84344" lon="5.95518">
        <ele>1451</ele>
        <time>2021-06-26T12:47:01Z</time>
      </trkpt>
      <trkpt lat="44.84343" lon="5.95499">
        <ele>1450.4</ele>
        <time>2021-06-26T12:47:02Z</time>
      </trkpt>
      <trkpt lat="44.84342" lon="5.95481">
        <ele>1449</ele>
        <time>2021-06-26T12:47:03Z</time>
      </trkpt>
      <trkpt lat="44.8434" lon="5.95445">
        <ele>1446.4</ele>
        <time>2021-06-26T12:47:05Z</time>
      </trkpt>
      <trkpt lat="44.84337" lon="5.95409">
        <ele>1445</ele>
        <time>2021-06-26T12:47:07Z</time>
      </trkpt>
      <trkpt lat="44.84336" lon="5.95391">
        <ele>1443.8</ele>
        <time>2021-06-26T12:47:08Z</time>
      </trkpt>
      <trkpt lat="44.84336" lon="5.95374">
        <ele>1443.2</ele>
        <time>2021-06-26T12:47:09Z</time>
      </trkpt>
      <trkpt lat="44.84336" lon="5.95357">
        <ele>1441.8</ele>
        <time>2021-06-26T12:47:10Z</time>
      </trkpt>
      <trkpt lat="44.84341" lon="5.95322">
        <ele>1440.4</ele>
        <time>2021-06-26T12:47:12Z</time>
      </trkpt>
      <trkpt lat="44.84343" lon="5.95305">
        <ele>1439.2</ele>
        <time>2021-06-26T12:47:13Z</time>
      </trkpt>
      <trkpt lat="44.84347" lon="5.9527">
        <ele>1437</ele>
        <time>2021-06-26T12:47:15Z</time>
      </trkpt>
      <trkpt lat="44.84347" lon="5.95252">
        <ele>1436.2</ele>
        <time>2021-06-26T12:47:16Z</time>
      </trkpt>
      <trkpt lat="44.84345" lon="5.95234">
        <ele>1435</ele>
        <time>2021-06-26T12:47:17Z</time>
      </trkpt>
      <trkpt lat="44.84342" lon="5.95204">
        <ele>1433.2</ele>
        <time>2021-06-26T12:47:19Z</time>
      </trkpt>
      <trkpt lat="44.84341" lon="5.95194">
        <ele>1432</ele>
        <time>2021-06-26T12:47:20Z</time>
      </trkpt>
      <trkpt lat="44.84337" lon="5.9517">
        <ele>1430.8</ele>
        <time>2021-06-26T12:47:22Z</time>
      </trkpt>
      <trkpt lat="44.84333" lon="5.95162">
        <ele>1430.2</ele>
        <time>2021-06-26T12:47:23Z</time>
      </trkpt>
      <trkpt lat="44.84327" lon="5.95156">
        <ele>1429.4</ele>
        <time>2021-06-26T12:47:24Z</time>
      </trkpt>
      <trkpt lat="44.84323" lon="5.95155">
        <ele>1429.2</ele>
        <time>2021-06-26T12:47:25Z</time>
      </trkpt>
      <trkpt lat="44.84318" lon="5.9516">
        <ele>1428.8</ele>
        <time>2021-06-26T12:47:26Z</time>
      </trkpt>
      <trkpt lat="44.84317" lon="5.95179">
        <ele>1428.4</ele>
        <time>2021-06-26T12:47:28Z</time>
      </trkpt>
      <trkpt lat="44.84324" lon="5.95217">
        <ele>1427.2</ele>
        <time>2021-06-26T12:47:31Z</time>
      </trkpt>
      <trkpt lat="44.84325" lon="5.95232">
        <ele>1427</ele>
        <time>2021-06-26T12:47:32Z</time>
      </trkpt>
      <trkpt lat="44.84322" lon="5.95261">
        <ele>1425.6</ele>
        <time>2021-06-26T12:47:34Z</time>
      </trkpt>
      <trkpt lat="44.84313" lon="5.95291">
        <ele>1424.2</ele>
        <time>2021-06-26T12:47:36Z</time>
      </trkpt>
      <trkpt lat="44.84308" lon="5.95306">
        <ele>1423.8</ele>
        <time>2021-06-26T12:47:37Z</time>
      </trkpt>
      <trkpt lat="44.84302" lon="5.95321">
        <ele>1422.8</ele>
        <time>2021-06-26T12:47:38Z</time>
      </trkpt>
      <trkpt lat="44.84291" lon="5.95353">
        <ele>1420.6</ele>
        <time>2021-06-26T12:47:40Z</time>
      </trkpt>
      <trkpt lat="44.84285" lon="5.95369">
        <ele>1419</ele>
        <time>2021-06-26T12:47:41Z</time>
      </trkpt>
      <trkpt lat="44.84279" lon="5.95386">
        <ele>1418.2</ele>
        <time>2021-06-26T12:47:42Z</time>
      </trkpt>
      <trkpt lat="44.84272" lon="5.95403">
        <ele>1417.2</ele>
        <time>2021-06-26T12:47:43Z</time>
      </trkpt>
      <trkpt lat="44.84253" lon="5.95431">
        <ele>1415.8</ele>
        <time>2021-06-26T12:47:45Z</time>
      </trkpt>
      <trkpt lat="44.84234" lon="5.95451">
        <ele>1414</ele>
        <time>2021-06-26T12:47:47Z</time>
      </trkpt>
      <trkpt lat="44.84225" lon="5.95461">
        <ele>1412.6</ele>
        <time>2021-06-26T12:47:48Z</time>
      </trkpt>
      <trkpt lat="44.84216" lon="5.95474">
        <ele>1412</ele>
        <time>2021-06-26T12:47:49Z</time>
      </trkpt>
      <trkpt lat="44.84208" lon="5.95488">
        <ele>1410.6</ele>
        <time>2021-06-26T12:47:50Z</time>
      </trkpt>
      <trkpt lat="44.84194" lon="5.95516">
        <ele>1408.6</ele>
        <time>2021-06-26T12:47:52Z</time>
      </trkpt>
      <trkpt lat="44.84189" lon="5.95529">
        <ele>1407.8</ele>
        <time>2021-06-26T12:47:53Z</time>
      </trkpt>
      <trkpt lat="44.84186" lon="5.95543">
        <ele>1406</ele>
        <time>2021-06-26T12:47:54Z</time>
      </trkpt>
      <trkpt lat="44.84185" lon="5.95557">
        <ele>1404.8</ele>
        <time>2021-06-26T12:47:55Z</time>
      </trkpt>
      <trkpt lat="44.84187" lon="5.95585">
        <ele>1403.6</ele>
        <time>2021-06-26T12:47:57Z</time>
      </trkpt>
      <trkpt lat="44.8419" lon="5.95612">
        <ele>1402.2</ele>
        <time>2021-06-26T12:47:59Z</time>
      </trkpt>
      <trkpt lat="44.8419" lon="5.95622">
        <ele>1401.4</ele>
        <time>2021-06-26T12:48:00Z</time>
      </trkpt>
      <trkpt lat="44.84188" lon="5.95635">
        <ele>1400.2</ele>
        <time>2021-06-26T12:48:01Z</time>
      </trkpt>
      <trkpt lat="44.84182" lon="5.95644">
        <ele>1398.8</ele>
        <time>2021-06-26T12:48:02Z</time>
      </trkpt>
      <trkpt lat="44.84168" lon="5.95656">
        <ele>1397.4</ele>
        <time>2021-06-26T12:48:04Z</time>
      </trkpt>
      <trkpt lat="44.84157" lon="5.95658">
        <ele>1397</ele>
        <time>2021-06-26T12:48:05Z</time>
      </trkpt>
      <trkpt lat="44.84146" lon="5.95658">
        <ele>1395.6</ele>
        <time>2021-06-26T12:48:06Z</time>
      </trkpt>
      <trkpt lat="44.84123" lon="5.95663">
        <ele>1393.4</ele>
        <time>2021-06-26T12:48:08Z</time>
      </trkpt>
      <trkpt lat="44.84098" lon="5.95671">
        <ele>1392.2</ele>
        <time>2021-06-26T12:48:10Z</time>
      </trkpt>
      <trkpt lat="44.84076" lon="5.95679">
        <ele>1390.4</ele>
        <time>2021-06-26T12:48:12Z</time>
      </trkpt>
      <trkpt lat="44.8406" lon="5.95685">
        <ele>1389.4</ele>
        <time>2021-06-26T12:48:13Z</time>
      </trkpt>
      <trkpt lat="44.84034" lon="5.95694">
        <ele>1387</ele>
        <time>2021-06-26T12:48:15Z</time>
      </trkpt>
      <trkpt lat="44.84024" lon="5.95698">
        <ele>1385.6</ele>
        <time>2021-06-26T12:48:16Z</time>
      </trkpt>
      <trkpt lat="44.83998" lon="5.95712">
        <ele>1383</ele>
        <time>2021-06-26T12:48:18Z</time>
      </trkpt>
      <trkpt lat="44.83987" lon="5.9572">
        <ele>1382.2</ele>
        <time>2021-06-26T12:48:19Z</time>
      </trkpt>
      <trkpt lat="44.83975" lon="5.95729">
        <ele>1380.8</ele>
        <time>2021-06-26T12:48:20Z</time>
      </trkpt>
      <trkpt lat="44.83953" lon="5.95751">
        <ele>1379</ele>
        <time>2021-06-26T12:48:22Z</time>
      </trkpt>
      <trkpt lat="44.83942" lon="5.95763">
        <ele>1377.8</ele>
        <time>2021-06-26T12:48:23Z</time>
      </trkpt>
      <trkpt lat="44.8392" lon="5.95787">
        <ele>1375.8</ele>
        <time>2021-06-26T12:48:25Z</time>
      </trkpt>
      <trkpt lat="44.83909" lon="5.95799">
        <ele>1374.6</ele>
        <time>2021-06-26T12:48:26Z</time>
      </trkpt>
      <trkpt lat="44.83898" lon="5.9581">
        <ele>1373.2</ele>
        <time>2021-06-26T12:48:27Z</time>
      </trkpt>
      <trkpt lat="44.83877" lon="5.95833">
        <ele>1371.6</ele>
        <time>2021-06-26T12:48:29Z</time>
      </trkpt>
      <trkpt lat="44.83867" lon="5.95845">
        <ele>1370.2</ele>
        <time>2021-06-26T12:48:30Z</time>
      </trkpt>
      <trkpt lat="44.83847" lon="5.9587">
        <ele>1368.6</ele>
        <time>2021-06-26T12:48:32Z</time>
      </trkpt>
      <trkpt lat="44.83837" lon="5.95883">
        <ele>1366.6</ele>
        <time>2021-06-26T12:48:33Z</time>
      </trkpt>
      <trkpt lat="44.83828" lon="5.95896">
        <ele>1364.4</ele>
        <time>2021-06-26T12:48:34Z</time>
      </trkpt>
      <trkpt lat="44.83819" lon="5.95909">
        <ele>1363.6</ele>
        <time>2021-06-26T12:48:35Z</time>
      </trkpt>
      <trkpt lat="44.83811" lon="5.95922">
        <ele>1362.4</ele>
        <time>2021-06-26T12:48:36Z</time>
      </trkpt>
      <trkpt lat="44.83802" lon="5.95936">
        <ele>1360.6</ele>
        <time>2021-06-26T12:48:37Z</time>
      </trkpt>
      <trkpt lat="44.83786" lon="5.95962">
        <ele>1358.8</ele>
        <time>2021-06-26T12:48:39Z</time>
      </trkpt>
      <trkpt lat="44.83771" lon="5.95991">
        <ele>1357.4</ele>
        <time>2021-06-26T12:48:41Z</time>
      </trkpt>
      <trkpt lat="44.83765" lon="5.96007">
        <ele>1357</ele>
        <time>2021-06-26T12:48:42Z</time>
      </trkpt>
      <trkpt lat="44.83761" lon="5.96023">
        <ele>1355.6</ele>
        <time>2021-06-26T12:48:43Z</time>
      </trkpt>
      <trkpt lat="44.83758" lon="5.96041">
        <ele>1354.4</ele>
        <time>2021-06-26T12:48:44Z</time>
      </trkpt>
      <trkpt lat="44.83756" lon="5.9606">
        <ele>1353.2</ele>
        <time>2021-06-26T12:48:45Z</time>
      </trkpt>
      <trkpt lat="44.83753" lon="5.9608">
        <ele>1351.6</ele>
        <time>2021-06-26T12:48:46Z</time>
      </trkpt>
      <trkpt lat="44.8375" lon="5.96099">
        <ele>1350.4</ele>
        <time>2021-06-26T12:48:47Z</time>
      </trkpt>
      <trkpt lat="44.83747" lon="5.96115">
        <ele>1348.8</ele>
        <time>2021-06-26T12:48:48Z</time>
      </trkpt>
      <trkpt lat="44.83743" lon="5.9614">
        <ele>1347.8</ele>
        <time>2021-06-26T12:48:49Z</time>
      </trkpt>
      <trkpt lat="44.83739" lon="5.96159">
        <ele>1346.4</ele>
        <time>2021-06-26T12:48:50Z</time>
      </trkpt>
      <trkpt lat="44.83733" lon="5.96194">
        <ele>1344</ele>
        <time>2021-06-26T12:48:52Z</time>
      </trkpt>
      <trkpt lat="44.8373" lon="5.96213">
        <ele>1342.4</ele>
        <time>2021-06-26T12:48:53Z</time>
      </trkpt>
      <trkpt lat="44.83725" lon="5.96256">
        <ele>1340.6</ele>
        <time>2021-06-26T12:48:55Z</time>
      </trkpt>
      <trkpt lat="44.83724" lon="5.96295">
        <ele>1339.2</ele>
        <time>2021-06-26T12:48:57Z</time>
      </trkpt>
      <trkpt lat="44.83723" lon="5.9633">
        <ele>1337.4</ele>
        <time>2021-06-26T12:48:59Z</time>
      </trkpt>
      <trkpt lat="44.83722" lon="5.96352">
        <ele>1335.4</ele>
        <time>2021-06-26T12:49:00Z</time>
      </trkpt>
      <trkpt lat="44.83722" lon="5.96369">
        <ele>1334</ele>
        <time>2021-06-26T12:49:01Z</time>
      </trkpt>
      <trkpt lat="44.83723" lon="5.96386">
        <ele>1332.2</ele>
        <time>2021-06-26T12:49:02Z</time>
      </trkpt>
      <trkpt lat="44.83728" lon="5.9642">
        <ele>1330.4</ele>
        <time>2021-06-26T12:49:04Z</time>
      </trkpt>
      <trkpt lat="44.83739" lon="5.96451">
        <ele>1329.4</ele>
        <time>2021-06-26T12:49:06Z</time>
      </trkpt>
      <trkpt lat="44.83746" lon="5.96466">
        <ele>1328.2</ele>
        <time>2021-06-26T12:49:07Z</time>
      </trkpt>
      <trkpt lat="44.83764" lon="5.96497">
        <ele>1326.6</ele>
        <time>2021-06-26T12:49:09Z</time>
      </trkpt>
      <trkpt lat="44.8378" lon="5.96526">
        <ele>1325</ele>
        <time>2021-06-26T12:49:11Z</time>
      </trkpt>
      <trkpt lat="44.83788" lon="5.96541">
        <ele>1324</ele>
        <time>2021-06-26T12:49:12Z</time>
      </trkpt>
      <trkpt lat="44.83796" lon="5.96556">
        <ele>1323</ele>
        <time>2021-06-26T12:49:13Z</time>
      </trkpt>
      <trkpt lat="44.83804" lon="5.96571">
        <ele>1321</ele>
        <time>2021-06-26T12:49:14Z</time>
      </trkpt>
      <trkpt lat="44.83818" lon="5.96603">
        <ele>1318.6</ele>
        <time>2021-06-26T12:49:16Z</time>
      </trkpt>
      <trkpt lat="44.83825" lon="5.9662">
        <ele>1318.2</ele>
        <time>2021-06-26T12:49:17Z</time>
      </trkpt>
      <trkpt lat="44.83832" lon="5.96637">
        <ele>1317</ele>
        <time>2021-06-26T12:49:18Z</time>
      </trkpt>
      <trkpt lat="44.83838" lon="5.96654">
        <ele>1315.2</ele>
        <time>2021-06-26T12:49:19Z</time>
      </trkpt>
      <trkpt lat="44.8385" lon="5.96689">
        <ele>1313.4</ele>
        <time>2021-06-26T12:49:21Z</time>
      </trkpt>
      <trkpt lat="44.83859" lon="5.96726">
        <ele>1311.8</ele>
        <time>2021-06-26T12:49:23Z</time>
      </trkpt>
      <trkpt lat="44.83865" lon="5.96764">
        <ele>1309.4</ele>
        <time>2021-06-26T12:49:25Z</time>
      </trkpt>
      <trkpt lat="44.83869" lon="5.96782">
        <ele>1307.6</ele>
        <time>2021-06-26T12:49:26Z</time>
      </trkpt>
      <trkpt lat="44.83873" lon="5.96798">
        <ele>1306.8</ele>
        <time>2021-06-26T12:49:27Z</time>
      </trkpt>
      <trkpt lat="44.83877" lon="5.96812">
        <ele>1305.2</ele>
        <time>2021-06-26T12:49:28Z</time>
      </trkpt>
      <trkpt lat="44.83883" lon="5.96824">
        <ele>1304.4</ele>
        <time>2021-06-26T12:49:29Z</time>
      </trkpt>
      <trkpt lat="44.83888" lon="5.96834">
        <ele>1303.2</ele>
        <time>2021-06-26T12:49:30Z</time>
      </trkpt>
      <trkpt lat="44.83899" lon="5.96849">
        <ele>1302.2</ele>
        <time>2021-06-26T12:49:32Z</time>
      </trkpt>
      <trkpt lat="44.83904" lon="5.96856">
        <ele>1301.8</ele>
        <time>2021-06-26T12:49:33Z</time>
      </trkpt>
      <trkpt lat="44.83903" lon="5.9687">
        <ele>1300.8</ele>
        <time>2021-06-26T12:49:35Z</time>
      </trkpt>
      <trkpt lat="44.83893" lon="5.96873">
        <ele>1299.8</ele>
        <time>2021-06-26T12:49:37Z</time>
      </trkpt>
      <trkpt lat="44.83887" lon="5.96867">
        <ele>1299.6</ele>
        <time>2021-06-26T12:49:38Z</time>
      </trkpt>
      <trkpt lat="44.83881" lon="5.9686">
        <ele>1299.2</ele>
        <time>2021-06-26T12:49:39Z</time>
      </trkpt>
      <trkpt lat="44.83875" lon="5.96852">
        <ele>1298.2</ele>
        <time>2021-06-26T12:49:40Z</time>
      </trkpt>
      <trkpt lat="44.83863" lon="5.96835">
        <ele>1296.4</ele>
        <time>2021-06-26T12:49:42Z</time>
      </trkpt>
      <trkpt lat="44.83857" lon="5.96825">
        <ele>1296</ele>
        <time>2021-06-26T12:49:43Z</time>
      </trkpt>
      <trkpt lat="44.83852" lon="5.96815">
        <ele>1295.2</ele>
        <time>2021-06-26T12:49:44Z</time>
      </trkpt>
      <trkpt lat="44.83848" lon="5.96802">
        <ele>1294.8</ele>
        <time>2021-06-26T12:49:45Z</time>
      </trkpt>
      <trkpt lat="44.83843" lon="5.96775">
        <ele>1293.8</ele>
        <time>2021-06-26T12:49:47Z</time>
      </trkpt>
      <trkpt lat="44.83836" lon="5.96747">
        <ele>1292.8</ele>
        <time>2021-06-26T12:49:49Z</time>
      </trkpt>
      <trkpt lat="44.83831" lon="5.96734">
        <ele>1292.4</ele>
        <time>2021-06-26T12:49:50Z</time>
      </trkpt>
      <trkpt lat="44.83824" lon="5.96721">
        <ele>1291.6</ele>
        <time>2021-06-26T12:49:51Z</time>
      </trkpt>
      <trkpt lat="44.83808" lon="5.96697">
        <ele>1289.4</ele>
        <time>2021-06-26T12:49:53Z</time>
      </trkpt>
      <trkpt lat="44.83799" lon="5.96685">
        <ele>1288.4</ele>
        <time>2021-06-26T12:49:54Z</time>
      </trkpt>
      <trkpt lat="44.8378" lon="5.96662">
        <ele>1287</ele>
        <time>2021-06-26T12:49:56Z</time>
      </trkpt>
      <trkpt lat="44.83763" lon="5.96639">
        <ele>1284.6</ele>
        <time>2021-06-26T12:49:58Z</time>
      </trkpt>
      <trkpt lat="44.83745" lon="5.96616">
        <ele>1282.2</ele>
        <time>2021-06-26T12:50:00Z</time>
      </trkpt>
      <trkpt lat="44.83726" lon="5.96594">
        <ele>1280.4</ele>
        <time>2021-06-26T12:50:02Z</time>
      </trkpt>
      <trkpt lat="44.83714" lon="5.96581">
        <ele>1279.2</ele>
        <time>2021-06-26T12:50:03Z</time>
      </trkpt>
      <trkpt lat="44.83705" lon="5.96573">
        <ele>1278.4</ele>
        <time>2021-06-26T12:50:04Z</time>
      </trkpt>
      <trkpt lat="44.83695" lon="5.96562">
        <ele>1277.4</ele>
        <time>2021-06-26T12:50:05Z</time>
      </trkpt>
      <trkpt lat="44.83672" lon="5.96541">
        <ele>1276.2</ele>
        <time>2021-06-26T12:50:07Z</time>
      </trkpt>
      <trkpt lat="44.83662" lon="5.96531">
        <ele>1274.4</ele>
        <time>2021-06-26T12:50:08Z</time>
      </trkpt>
      <trkpt lat="44.83643" lon="5.96511">
        <ele>1271.8</ele>
        <time>2021-06-26T12:50:10Z</time>
      </trkpt>
      <trkpt lat="44.83626" lon="5.9649">
        <ele>1269.4</ele>
        <time>2021-06-26T12:50:12Z</time>
      </trkpt>
      <trkpt lat="44.8362" lon="5.96476">
        <ele>1269</ele>
        <time>2021-06-26T12:50:13Z</time>
      </trkpt>
      <trkpt lat="44.83615" lon="5.96461">
        <ele>1268</ele>
        <time>2021-06-26T12:50:14Z</time>
      </trkpt>
      <trkpt lat="44.83607" lon="5.96429">
        <ele>1266.4</ele>
        <time>2021-06-26T12:50:16Z</time>
      </trkpt>
      <trkpt lat="44.83602" lon="5.96412">
        <ele>1264.4</ele>
        <time>2021-06-26T12:50:17Z</time>
      </trkpt>
      <trkpt lat="44.83593" lon="5.9638">
        <ele>1262</ele>
        <time>2021-06-26T12:50:19Z</time>
      </trkpt>
      <trkpt lat="44.83585" lon="5.96351">
        <ele>1259.6</ele>
        <time>2021-06-26T12:50:21Z</time>
      </trkpt>
      <trkpt lat="44.83582" lon="5.96338">
        <ele>1258.2</ele>
        <time>2021-06-26T12:50:22Z</time>
      </trkpt>
      <trkpt lat="44.83578" lon="5.96324">
        <ele>1257.6</ele>
        <time>2021-06-26T12:50:23Z</time>
      </trkpt>
      <trkpt lat="44.83576" lon="5.96311">
        <ele>1256.6</ele>
        <time>2021-06-26T12:50:24Z</time>
      </trkpt>
      <trkpt lat="44.83576" lon="5.96285">
        <ele>1254.8</ele>
        <time>2021-06-26T12:50:26Z</time>
      </trkpt>
      <trkpt lat="44.83576" lon="5.96259">
        <ele>1252.8</ele>
        <time>2021-06-26T12:50:28Z</time>
      </trkpt>
      <trkpt lat="44.83574" lon="5.96248">
        <ele>1251.8</ele>
        <time>2021-06-26T12:50:29Z</time>
      </trkpt>
      <trkpt lat="44.8357" lon="5.96237">
        <ele>1251</ele>
        <time>2021-06-26T12:50:30Z</time>
      </trkpt>
      <trkpt lat="44.83565" lon="5.96229">
        <ele>1249.6</ele>
        <time>2021-06-26T12:50:31Z</time>
      </trkpt>
      <trkpt lat="44.8356" lon="5.96224">
        <ele>1249.2</ele>
        <time>2021-06-26T12:50:32Z</time>
      </trkpt>
      <trkpt lat="44.83556" lon="5.96223">
        <ele>1248.4</ele>
        <time>2021-06-26T12:50:33Z</time>
      </trkpt>
      <trkpt lat="44.83552" lon="5.96228">
        <ele>1248.2</ele>
        <time>2021-06-26T12:50:34Z</time>
      </trkpt>
      <trkpt lat="44.8355" lon="5.96239">
        <ele>1247.4</ele>
        <time>2021-06-26T12:50:35Z</time>
      </trkpt>
      <trkpt lat="44.83551" lon="5.96252">
        <ele>1247</ele>
        <time>2021-06-26T12:50:36Z</time>
      </trkpt>
      <trkpt lat="44.8355" lon="5.9628">
        <ele>1245.6</ele>
        <time>2021-06-26T12:50:38Z</time>
      </trkpt>
      <trkpt lat="44.83548" lon="5.96295">
        <ele>1245</ele>
        <time>2021-06-26T12:50:39Z</time>
      </trkpt>
      <trkpt lat="44.83545" lon="5.96309">
        <ele>1243.6</ele>
        <time>2021-06-26T12:50:40Z</time>
      </trkpt>
      <trkpt lat="44.83541" lon="5.9634">
        <ele>1241.8</ele>
        <time>2021-06-26T12:50:42Z</time>
      </trkpt>
      <trkpt lat="44.83541" lon="5.96357">
        <ele>1241.4</ele>
        <time>2021-06-26T12:50:43Z</time>
      </trkpt>
      <trkpt lat="44.83541" lon="5.96375">
        <ele>1240.4</ele>
        <time>2021-06-26T12:50:44Z</time>
      </trkpt>
      <trkpt lat="44.83542" lon="5.96393">
        <ele>1239</ele>
        <time>2021-06-26T12:50:45Z</time>
      </trkpt>
      <trkpt lat="44.83545" lon="5.96431">
        <ele>1236.4</ele>
        <time>2021-06-26T12:50:47Z</time>
      </trkpt>
      <trkpt lat="44.83548" lon="5.96468">
        <ele>1234.2</ele>
        <time>2021-06-26T12:50:49Z</time>
      </trkpt>
      <trkpt lat="44.83548" lon="5.96484">
        <ele>1233</ele>
        <time>2021-06-26T12:50:50Z</time>
      </trkpt>
      <trkpt lat="44.83548" lon="5.96499">
        <ele>1231.6</ele>
        <time>2021-06-26T12:50:51Z</time>
      </trkpt>
      <trkpt lat="44.83548" lon="5.96514">
        <ele>1230.2</ele>
        <time>2021-06-26T12:50:52Z</time>
      </trkpt>
      <trkpt lat="44.83548" lon="5.96529">
        <ele>1229.4</ele>
        <time>2021-06-26T12:50:53Z</time>
      </trkpt>
      <trkpt lat="44.83551" lon="5.96544">
        <ele>1228.8</ele>
        <time>2021-06-26T12:50:54Z</time>
      </trkpt>
      <trkpt lat="44.83556" lon="5.96558">
        <ele>1228.2</ele>
        <time>2021-06-26T12:50:55Z</time>
      </trkpt>
      <trkpt lat="44.83563" lon="5.9657">
        <ele>1227.8</ele>
        <time>2021-06-26T12:50:56Z</time>
      </trkpt>
      <trkpt lat="44.83571" lon="5.9658">
        <ele>1227.8</ele>
        <time>2021-06-26T12:50:57Z</time>
      </trkpt>
      <trkpt lat="44.8358" lon="5.9659">
        <ele>1227.4</ele>
        <time>2021-06-26T12:50:58Z</time>
      </trkpt>
      <trkpt lat="44.83598" lon="5.9661">
        <ele>1226</ele>
        <time>2021-06-26T12:51:00Z</time>
      </trkpt>
      <trkpt lat="44.83629" lon="5.96651">
        <ele>1225</ele>
        <time>2021-06-26T12:51:04Z</time>
      </trkpt>
      <trkpt lat="44.83636" lon="5.96662">
        <ele>1224.6</ele>
        <time>2021-06-26T12:51:05Z</time>
      </trkpt>
      <trkpt lat="44.8365" lon="5.96699">
        <ele>1224</ele>
        <time>2021-06-26T12:51:08Z</time>
      </trkpt>
      <trkpt lat="44.83652" lon="5.96712">
        <ele>1224</ele>
        <time>2021-06-26T12:51:09Z</time>
      </trkpt>
      <trkpt lat="44.83653" lon="5.96726">
        <ele>1223.6</ele>
        <time>2021-06-26T12:51:10Z</time>
      </trkpt>
      <trkpt lat="44.8365" lon="5.96752">
        <ele>1223.4</ele>
        <time>2021-06-26T12:51:12Z</time>
      </trkpt>
      <trkpt lat="44.8364" lon="5.96774">
        <ele>1223.2</ele>
        <time>2021-06-26T12:51:14Z</time>
      </trkpt>
      <trkpt lat="44.83634" lon="5.96784">
        <ele>1223.2</ele>
        <time>2021-06-26T12:51:15Z</time>
      </trkpt>
      <trkpt lat="44.83626" lon="5.96793">
        <ele>1223.2</ele>
        <time>2021-06-26T12:51:16Z</time>
      </trkpt>
      <trkpt lat="44.83604" lon="5.96813">
        <ele>1223</ele>
        <time>2021-06-26T12:51:19Z</time>
      </trkpt>
      <trkpt lat="44.8358" lon="5.96832">
        <ele>1222.8</ele>
        <time>2021-06-26T12:51:22Z</time>
      </trkpt>
      <trkpt lat="44.83551" lon="5.96853">
        <ele>1222.4</ele>
        <time>2021-06-26T12:51:26Z</time>
      </trkpt>
      <trkpt lat="44.83513" lon="5.96884">
        <ele>1222.6</ele>
        <time>2021-06-26T12:51:32Z</time>
      </trkpt>
      <trkpt lat="44.83465" lon="5.96933">
        <ele>1222.6</ele>
        <time>2021-06-26T12:51:40Z</time>
      </trkpt>
      <trkpt lat="44.83418" lon="5.96982">
        <ele>1222</ele>
        <time>2021-06-26T12:51:48Z</time>
      </trkpt>
      <trkpt lat="44.83412" lon="5.96987">
        <ele>1222</ele>
        <time>2021-06-26T12:51:49Z</time>
      </trkpt>
      <trkpt lat="44.83381" lon="5.97016">
        <ele>1222.4</ele>
        <time>2021-06-26T12:51:54Z</time>
      </trkpt>
      <trkpt lat="44.83374" lon="5.97033">
        <ele>1222.4</ele>
        <time>2021-06-26T12:51:56Z</time>
      </trkpt>
      <trkpt lat="44.83376" lon="5.97053">
        <ele>1222.6</ele>
        <time>2021-06-26T12:51:58Z</time>
      </trkpt>
      <trkpt lat="44.8338" lon="5.97061">
        <ele>1222.6</ele>
        <time>2021-06-26T12:51:59Z</time>
      </trkpt>
      <trkpt lat="44.83386" lon="5.97069">
        <ele>1222.6</ele>
        <time>2021-06-26T12:52:00Z</time>
      </trkpt>
      <trkpt lat="44.83402" lon="5.97093">
        <ele>1222.6</ele>
        <time>2021-06-26T12:52:03Z</time>
      </trkpt>
      <trkpt lat="44.83426" lon="5.97139">
        <ele>1222.6</ele>
        <time>2021-06-26T12:52:08Z</time>
      </trkpt>
      <trkpt lat="44.83432" lon="5.97146">
        <ele>1222.6</ele>
        <time>2021-06-26T12:52:09Z</time>
      </trkpt>
      <trkpt lat="44.83439" lon="5.9715">
        <ele>1222.4</ele>
        <time>2021-06-26T12:52:10Z</time>
      </trkpt>
      <trkpt lat="44.83456" lon="5.97153">
        <ele>1222.2</ele>
        <time>2021-06-26T12:52:12Z</time>
      </trkpt>
      <trkpt lat="44.83489" lon="5.97163">
        <ele>1221.4</ele>
        <time>2021-06-26T12:52:16Z</time>
      </trkpt>
      <trkpt lat="44.83498" lon="5.97163">
        <ele>1221.2</ele>
        <time>2021-06-26T12:52:17Z</time>
      </trkpt>
      <trkpt lat="44.83508" lon="5.97161">
        <ele>1220.8</ele>
        <time>2021-06-26T12:52:18Z</time>
      </trkpt>
      <trkpt lat="44.83525" lon="5.97155">
        <ele>1219.8</ele>
        <time>2021-06-26T12:52:20Z</time>
      </trkpt>
      <trkpt lat="44.83545" lon="5.97149">
        <ele>1218.6</ele>
        <time>2021-06-26T12:52:22Z</time>
      </trkpt>
      <trkpt lat="44.83577" lon="5.97141">
        <ele>1217.6</ele>
        <time>2021-06-26T12:52:25Z</time>
      </trkpt>
      <trkpt lat="44.83588" lon="5.97139">
        <ele>1217.2</ele>
        <time>2021-06-26T12:52:26Z</time>
      </trkpt>
      <trkpt lat="44.8361" lon="5.97133">
        <ele>1216.4</ele>
        <time>2021-06-26T12:52:28Z</time>
      </trkpt>
      <trkpt lat="44.83647" lon="5.97126">
        <ele>1215.2</ele>
        <time>2021-06-26T12:52:31Z</time>
      </trkpt>
      <trkpt lat="44.8367" lon="5.97129">
        <ele>1214.6</ele>
        <time>2021-06-26T12:52:33Z</time>
      </trkpt>
      <trkpt lat="44.83681" lon="5.97132">
        <ele>1214.2</ele>
        <time>2021-06-26T12:52:34Z</time>
      </trkpt>
      <trkpt lat="44.83693" lon="5.97138">
        <ele>1213.8</ele>
        <time>2021-06-26T12:52:35Z</time>
      </trkpt>
      <trkpt lat="44.83715" lon="5.9715">
        <ele>1213</ele>
        <time>2021-06-26T12:52:37Z</time>
      </trkpt>
      <trkpt lat="44.83737" lon="5.97158">
        <ele>1212.6</ele>
        <time>2021-06-26T12:52:39Z</time>
      </trkpt>
      <trkpt lat="44.83759" lon="5.97162">
        <ele>1211.2</ele>
        <time>2021-06-26T12:52:41Z</time>
      </trkpt>
      <trkpt lat="44.83795" lon="5.97166">
        <ele>1209.4</ele>
        <time>2021-06-26T12:52:44Z</time>
      </trkpt>
      <trkpt lat="44.83807" lon="5.97165">
        <ele>1209.2</ele>
        <time>2021-06-26T12:52:45Z</time>
      </trkpt>
      <trkpt lat="44.8382" lon="5.97163">
        <ele>1208.2</ele>
        <time>2021-06-26T12:52:46Z</time>
      </trkpt>
      <trkpt lat="44.83843" lon="5.97158">
        <ele>1207.2</ele>
        <time>2021-06-26T12:52:48Z</time>
      </trkpt>
      <trkpt lat="44.83854" lon="5.97154">
        <ele>1207</ele>
        <time>2021-06-26T12:52:49Z</time>
      </trkpt>
      <trkpt lat="44.83866" lon="5.9715">
        <ele>1206.4</ele>
        <time>2021-06-26T12:52:50Z</time>
      </trkpt>
      <trkpt lat="44.83889" lon="5.97141">
        <ele>1205.8</ele>
        <time>2021-06-26T12:52:52Z</time>
      </trkpt>
      <trkpt lat="44.8391" lon="5.97131">
        <ele>1205.4</ele>
        <time>2021-06-26T12:52:54Z</time>
      </trkpt>
      <trkpt lat="44.83942" lon="5.97115">
        <ele>1203.8</ele>
        <time>2021-06-26T12:52:57Z</time>
      </trkpt>
      <trkpt lat="44.83962" lon="5.97111">
        <ele>1203</ele>
        <time>2021-06-26T12:52:59Z</time>
      </trkpt>
      <trkpt lat="44.83973" lon="5.97111">
        <ele>1202.8</ele>
        <time>2021-06-26T12:53:00Z</time>
      </trkpt>
      <trkpt lat="44.83984" lon="5.97112">
        <ele>1202.4</ele>
        <time>2021-06-26T12:53:01Z</time>
      </trkpt>
      <trkpt lat="44.83995" lon="5.97115">
        <ele>1201.8</ele>
        <time>2021-06-26T12:53:02Z</time>
      </trkpt>
      <trkpt lat="44.84006" lon="5.97121">
        <ele>1201.4</ele>
        <time>2021-06-26T12:53:03Z</time>
      </trkpt>
      <trkpt lat="44.84016" lon="5.97127">
        <ele>1200.6</ele>
        <time>2021-06-26T12:53:04Z</time>
      </trkpt>
      <trkpt lat="44.84034" lon="5.9714">
        <ele>1199.4</ele>
        <time>2021-06-26T12:53:06Z</time>
      </trkpt>
      <trkpt lat="44.84052" lon="5.97152">
        <ele>1198.6</ele>
        <time>2021-06-26T12:53:08Z</time>
      </trkpt>
      <trkpt lat="44.84062" lon="5.97158">
        <ele>1197.6</ele>
        <time>2021-06-26T12:53:09Z</time>
      </trkpt>
      <trkpt lat="44.84072" lon="5.97164">
        <ele>1197.4</ele>
        <time>2021-06-26T12:53:10Z</time>
      </trkpt>
      <trkpt lat="44.84093" lon="5.97174">
        <ele>1196.6</ele>
        <time>2021-06-26T12:53:12Z</time>
      </trkpt>
      <trkpt lat="44.84105" lon="5.97178">
        <ele>1195.8</ele>
        <time>2021-06-26T12:53:13Z</time>
      </trkpt>
      <trkpt lat="44.84119" lon="5.97182">
        <ele>1194.6</ele>
        <time>2021-06-26T12:53:14Z</time>
      </trkpt>
      <trkpt lat="44.84142" lon="5.9719">
        <ele>1193</ele>
        <time>2021-06-26T12:53:16Z</time>
      </trkpt>
      <trkpt lat="44.84154" lon="5.97195">
        <ele>1192.6</ele>
        <time>2021-06-26T12:53:17Z</time>
      </trkpt>
      <trkpt lat="44.84165" lon="5.97202">
        <ele>1191</ele>
        <time>2021-06-26T12:53:18Z</time>
      </trkpt>
      <trkpt lat="44.84176" lon="5.9721">
        <ele>1189.6</ele>
        <time>2021-06-26T12:53:19Z</time>
      </trkpt>
      <trkpt lat="44.84196" lon="5.97232">
        <ele>1187.4</ele>
        <time>2021-06-26T12:53:21Z</time>
      </trkpt>
      <trkpt lat="44.84214" lon="5.97257">
        <ele>1185.2</ele>
        <time>2021-06-26T12:53:23Z</time>
      </trkpt>
      <trkpt lat="44.84233" lon="5.97282">
        <ele>1182.8</ele>
        <time>2021-06-26T12:53:25Z</time>
      </trkpt>
      <trkpt lat="44.84252" lon="5.97306">
        <ele>1181</ele>
        <time>2021-06-26T12:53:27Z</time>
      </trkpt>
      <trkpt lat="44.84261" lon="5.97319">
        <ele>1179.8</ele>
        <time>2021-06-26T12:53:28Z</time>
      </trkpt>
      <trkpt lat="44.84277" lon="5.97344">
        <ele>1177.4</ele>
        <time>2021-06-26T12:53:30Z</time>
      </trkpt>
      <trkpt lat="44.84295" lon="5.97363">
        <ele>1175.8</ele>
        <time>2021-06-26T12:53:32Z</time>
      </trkpt>
      <trkpt lat="44.84305" lon="5.97371">
        <ele>1174.2</ele>
        <time>2021-06-26T12:53:33Z</time>
      </trkpt>
      <trkpt lat="44.84316" lon="5.97375">
        <ele>1174.2</ele>
        <time>2021-06-26T12:53:34Z</time>
      </trkpt>
      <trkpt lat="44.84328" lon="5.97378">
        <ele>1172.4</ele>
        <time>2021-06-26T12:53:35Z</time>
      </trkpt>
      <trkpt lat="44.8434" lon="5.9738">
        <ele>1171.8</ele>
        <time>2021-06-26T12:53:36Z</time>
      </trkpt>
      <trkpt lat="44.84352" lon="5.97381">
        <ele>1170.6</ele>
        <time>2021-06-26T12:53:37Z</time>
      </trkpt>
      <trkpt lat="44.84373" lon="5.97386">
        <ele>1168.6</ele>
        <time>2021-06-26T12:53:39Z</time>
      </trkpt>
      <trkpt lat="44.84384" lon="5.97391">
        <ele>1166.8</ele>
        <time>2021-06-26T12:53:40Z</time>
      </trkpt>
      <trkpt lat="44.84394" lon="5.97399">
        <ele>1166.4</ele>
        <time>2021-06-26T12:53:41Z</time>
      </trkpt>
      <trkpt lat="44.844" lon="5.97409">
        <ele>1164.8</ele>
        <time>2021-06-26T12:53:42Z</time>
      </trkpt>
      <trkpt lat="44.84404" lon="5.9742">
        <ele>1164</ele>
        <time>2021-06-26T12:53:43Z</time>
      </trkpt>
      <trkpt lat="44.84404" lon="5.97431">
        <ele>1162.8</ele>
        <time>2021-06-26T12:53:44Z</time>
      </trkpt>
      <trkpt lat="44.84403" lon="5.97442">
        <ele>1162.4</ele>
        <time>2021-06-26T12:53:45Z</time>
      </trkpt>
      <trkpt lat="44.84399" lon="5.97452">
        <ele>1161.4</ele>
        <time>2021-06-26T12:53:46Z</time>
      </trkpt>
      <trkpt lat="44.84393" lon="5.9746">
        <ele>1160.8</ele>
        <time>2021-06-26T12:53:47Z</time>
      </trkpt>
      <trkpt lat="44.84377" lon="5.9747">
        <ele>1159.6</ele>
        <time>2021-06-26T12:53:49Z</time>
      </trkpt>
      <trkpt lat="44.84357" lon="5.97474">
        <ele>1158</ele>
        <time>2021-06-26T12:53:51Z</time>
      </trkpt>
      <trkpt lat="44.84334" lon="5.97477">
        <ele>1156</ele>
        <time>2021-06-26T12:53:53Z</time>
      </trkpt>
      <trkpt lat="44.84322" lon="5.97478">
        <ele>1154.4</ele>
        <time>2021-06-26T12:53:54Z</time>
      </trkpt>
      <trkpt lat="44.8431" lon="5.9748">
        <ele>1153.6</ele>
        <time>2021-06-26T12:53:55Z</time>
      </trkpt>
      <trkpt lat="44.84298" lon="5.97486">
        <ele>1151.6</ele>
        <time>2021-06-26T12:53:56Z</time>
      </trkpt>
      <trkpt lat="44.84288" lon="5.97494">
        <ele>1151</ele>
        <time>2021-06-26T12:53:57Z</time>
      </trkpt>
      <trkpt lat="44.84278" lon="5.97503">
        <ele>1149.2</ele>
        <time>2021-06-26T12:53:58Z</time>
      </trkpt>
      <trkpt lat="44.84267" lon="5.97513">
        <ele>1148.2</ele>
        <time>2021-06-26T12:53:59Z</time>
      </trkpt>
      <trkpt lat="44.84255" lon="5.9752">
        <ele>1146.6</ele>
        <time>2021-06-26T12:54:00Z</time>
      </trkpt>
      <trkpt lat="44.84243" lon="5.97526">
        <ele>1145.2</ele>
        <time>2021-06-26T12:54:01Z</time>
      </trkpt>
      <trkpt lat="44.84231" lon="5.97527">
        <ele>1144.6</ele>
        <time>2021-06-26T12:54:02Z</time>
      </trkpt>
      <trkpt lat="44.84221" lon="5.97524">
        <ele>1143.4</ele>
        <time>2021-06-26T12:54:03Z</time>
      </trkpt>
      <trkpt lat="44.84211" lon="5.9752">
        <ele>1142.8</ele>
        <time>2021-06-26T12:54:04Z</time>
      </trkpt>
      <trkpt lat="44.84201" lon="5.97514">
        <ele>1142.2</ele>
        <time>2021-06-26T12:54:05Z</time>
      </trkpt>
      <trkpt lat="44.84174" lon="5.9749">
        <ele>1141</ele>
        <time>2021-06-26T12:54:08Z</time>
      </trkpt>
      <trkpt lat="44.84155" lon="5.97472">
        <ele>1140.4</ele>
        <time>2021-06-26T12:54:10Z</time>
      </trkpt>
      <trkpt lat="44.84138" lon="5.97449">
        <ele>1139.8</ele>
        <time>2021-06-26T12:54:12Z</time>
      </trkpt>
      <trkpt lat="44.84114" lon="5.97412">
        <ele>1138.2</ele>
        <time>2021-06-26T12:54:15Z</time>
      </trkpt>
      <trkpt lat="44.84105" lon="5.97403">
        <ele>1138</ele>
        <time>2021-06-26T12:54:16Z</time>
      </trkpt>
      <trkpt lat="44.84085" lon="5.97395">
        <ele>1137.2</ele>
        <time>2021-06-26T12:54:18Z</time>
      </trkpt>
      <trkpt lat="44.84074" lon="5.97397">
        <ele>1136.6</ele>
        <time>2021-06-26T12:54:19Z</time>
      </trkpt>
      <trkpt lat="44.84063" lon="5.97403">
        <ele>1136.2</ele>
        <time>2021-06-26T12:54:20Z</time>
      </trkpt>
      <trkpt lat="44.84052" lon="5.97412">
        <ele>1135.6</ele>
        <time>2021-06-26T12:54:21Z</time>
      </trkpt>
      <trkpt lat="44.84041" lon="5.97421">
        <ele>1134.8</ele>
        <time>2021-06-26T12:54:22Z</time>
      </trkpt>
      <trkpt lat="44.84022" lon="5.97441">
        <ele>1132.8</ele>
        <time>2021-06-26T12:54:24Z</time>
      </trkpt>
      <trkpt lat="44.84017" lon="5.97453">
        <ele>1131.8</ele>
        <time>2021-06-26T12:54:25Z</time>
      </trkpt>
      <trkpt lat="44.84014" lon="5.97467">
        <ele>1131</ele>
        <time>2021-06-26T12:54:26Z</time>
      </trkpt>
      <trkpt lat="44.84014" lon="5.9748">
        <ele>1130.6</ele>
        <time>2021-06-26T12:54:27Z</time>
      </trkpt>
      <trkpt lat="44.84016" lon="5.97495">
        <ele>1129.8</ele>
        <time>2021-06-26T12:54:28Z</time>
      </trkpt>
      <trkpt lat="44.8402" lon="5.97508">
        <ele>1128.8</ele>
        <time>2021-06-26T12:54:29Z</time>
      </trkpt>
      <trkpt lat="44.84025" lon="5.97517">
        <ele>1128.2</ele>
        <time>2021-06-26T12:54:30Z</time>
      </trkpt>
      <trkpt lat="44.84027" lon="5.97525">
        <ele>1127.2</ele>
        <time>2021-06-26T12:54:31Z</time>
      </trkpt>
      <trkpt lat="44.84026" lon="5.97533">
        <ele>1126.8</ele>
        <time>2021-06-26T12:54:32Z</time>
      </trkpt>
      <trkpt lat="44.84023" lon="5.97538">
        <ele>1126</ele>
        <time>2021-06-26T12:54:33Z</time>
      </trkpt>
      <trkpt lat="44.8402" lon="5.97539">
        <ele>1125.8</ele>
        <time>2021-06-26T12:54:34Z</time>
      </trkpt>
      <trkpt lat="44.84017" lon="5.97536">
        <ele>1125.4</ele>
        <time>2021-06-26T12:54:35Z</time>
      </trkpt>
      <trkpt lat="44.84012" lon="5.9753">
        <ele>1124.2</ele>
        <time>2021-06-26T12:54:36Z</time>
      </trkpt>
      <trkpt lat="44.84006" lon="5.97521">
        <ele>1123.8</ele>
        <time>2021-06-26T12:54:37Z</time>
      </trkpt>
      <trkpt lat="44.83999" lon="5.97512">
        <ele>1123</ele>
        <time>2021-06-26T12:54:38Z</time>
      </trkpt>
      <trkpt lat="44.83992" lon="5.97501">
        <ele>1122.4</ele>
        <time>2021-06-26T12:54:39Z</time>
      </trkpt>
      <trkpt lat="44.83984" lon="5.97491">
        <ele>1121.4</ele>
        <time>2021-06-26T12:54:40Z</time>
      </trkpt>
      <trkpt lat="44.83966" lon="5.97465">
        <ele>1120</ele>
        <time>2021-06-26T12:54:42Z</time>
      </trkpt>
      <trkpt lat="44.8395" lon="5.97442">
        <ele>1118.6</ele>
        <time>2021-06-26T12:54:44Z</time>
      </trkpt>
      <trkpt lat="44.83942" lon="5.97429">
        <ele>1117.2</ele>
        <time>2021-06-26T12:54:45Z</time>
      </trkpt>
      <trkpt lat="44.83925" lon="5.97403">
        <ele>1114.8</ele>
        <time>2021-06-26T12:54:47Z</time>
      </trkpt>
      <trkpt lat="44.83915" lon="5.97391">
        <ele>1114.2</ele>
        <time>2021-06-26T12:54:48Z</time>
      </trkpt>
      <trkpt lat="44.83907" lon="5.97382">
        <ele>1113</ele>
        <time>2021-06-26T12:54:49Z</time>
      </trkpt>
      <trkpt lat="44.83899" lon="5.97374">
        <ele>1112</ele>
        <time>2021-06-26T12:54:50Z</time>
      </trkpt>
      <trkpt lat="44.83892" lon="5.97373">
        <ele>1111.8</ele>
        <time>2021-06-26T12:54:51Z</time>
      </trkpt>
      <trkpt lat="44.83881" lon="5.97376">
        <ele>1111.4</ele>
        <time>2021-06-26T12:54:52Z</time>
      </trkpt>
      <trkpt lat="44.83867" lon="5.97384">
        <ele>1111.2</ele>
        <time>2021-06-26T12:54:54Z</time>
      </trkpt>
      <trkpt lat="44.83835" lon="5.97397">
        <ele>1111.8</ele>
        <time>2021-06-26T12:54:58Z</time>
      </trkpt>
      <trkpt lat="44.83819" lon="5.97397">
        <ele>1112</ele>
        <time>2021-06-26T12:55:00Z</time>
      </trkpt>
      <trkpt lat="44.83789" lon="5.97387">
        <ele>1113</ele>
        <time>2021-06-26T12:55:04Z</time>
      </trkpt>
      <trkpt lat="44.83775" lon="5.97382">
        <ele>1113.6</ele>
        <time>2021-06-26T12:55:06Z</time>
      </trkpt>
      <trkpt lat="44.83715" lon="5.97355">
        <ele>1112.8</ele>
        <time>2021-06-26T12:55:13Z</time>
      </trkpt>
      <trkpt lat="44.83695" lon="5.97343">
        <ele>1112</ele>
        <time>2021-06-26T12:55:15Z</time>
      </trkpt>
      <trkpt lat="44.8366" lon="5.97321">
        <ele>1110.6</ele>
        <time>2021-06-26T12:55:18Z</time>
      </trkpt>
      <trkpt lat="44.83638" lon="5.97307">
        <ele>1108</ele>
        <time>2021-06-26T12:55:20Z</time>
      </trkpt>
      <trkpt lat="44.83626" lon="5.97303">
        <ele>1107.2</ele>
        <time>2021-06-26T12:55:21Z</time>
      </trkpt>
      <trkpt lat="44.83615" lon="5.97301">
        <ele>1105.4</ele>
        <time>2021-06-26T12:55:22Z</time>
      </trkpt>
      <trkpt lat="44.83603" lon="5.97302">
        <ele>1104.8</ele>
        <time>2021-06-26T12:55:23Z</time>
      </trkpt>
      <trkpt lat="44.83591" lon="5.97305">
        <ele>1103.8</ele>
        <time>2021-06-26T12:55:24Z</time>
      </trkpt>
      <trkpt lat="44.83582" lon="5.97309">
        <ele>1102.6</ele>
        <time>2021-06-26T12:55:25Z</time>
      </trkpt>
      <trkpt lat="44.83569" lon="5.97315">
        <ele>1100.6</ele>
        <time>2021-06-26T12:55:26Z</time>
      </trkpt>
      <trkpt lat="44.83558" lon="5.9732">
        <ele>1099.2</ele>
        <time>2021-06-26T12:55:27Z</time>
      </trkpt>
      <trkpt lat="44.83547" lon="5.97324">
        <ele>1098.8</ele>
        <time>2021-06-26T12:55:28Z</time>
      </trkpt>
      <trkpt lat="44.83537" lon="5.97327">
        <ele>1097.6</ele>
        <time>2021-06-26T12:55:29Z</time>
      </trkpt>
      <trkpt lat="44.83525" lon="5.97334">
        <ele>1097</ele>
        <time>2021-06-26T12:55:30Z</time>
      </trkpt>
      <trkpt lat="44.83514" lon="5.97343">
        <ele>1096</ele>
        <time>2021-06-26T12:55:31Z</time>
      </trkpt>
      <trkpt lat="44.83505" lon="5.97354">
        <ele>1094.6</ele>
        <time>2021-06-26T12:55:32Z</time>
      </trkpt>
      <trkpt lat="44.83496" lon="5.97367">
        <ele>1092.8</ele>
        <time>2021-06-26T12:55:33Z</time>
      </trkpt>
      <trkpt lat="44.83489" lon="5.97379">
        <ele>1091</ele>
        <time>2021-06-26T12:55:34Z</time>
      </trkpt>
      <trkpt lat="44.83482" lon="5.9739">
        <ele>1089.8</ele>
        <time>2021-06-26T12:55:35Z</time>
      </trkpt>
      <trkpt lat="44.83475" lon="5.97397">
        <ele>1088</ele>
        <time>2021-06-26T12:55:36Z</time>
      </trkpt>
      <trkpt lat="44.83467" lon="5.97402">
        <ele>1087.4</ele>
        <time>2021-06-26T12:55:37Z</time>
      </trkpt>
      <trkpt lat="44.83459" lon="5.97404">
        <ele>1085.8</ele>
        <time>2021-06-26T12:55:38Z</time>
      </trkpt>
      <trkpt lat="44.8345" lon="5.97402">
        <ele>1085.2</ele>
        <time>2021-06-26T12:55:39Z</time>
      </trkpt>
      <trkpt lat="44.83443" lon="5.97393">
        <ele>1084.4</ele>
        <time>2021-06-26T12:55:40Z</time>
      </trkpt>
      <trkpt lat="44.83434" lon="5.97383">
        <ele>1083</ele>
        <time>2021-06-26T12:55:41Z</time>
      </trkpt>
      <trkpt lat="44.83414" lon="5.97361">
        <ele>1080.2</ele>
        <time>2021-06-26T12:55:43Z</time>
      </trkpt>
      <trkpt lat="44.83403" lon="5.9735">
        <ele>1079.2</ele>
        <time>2021-06-26T12:55:44Z</time>
      </trkpt>
      <trkpt lat="44.83393" lon="5.9734">
        <ele>1077.6</ele>
        <time>2021-06-26T12:55:45Z</time>
      </trkpt>
      <trkpt lat="44.8337" lon="5.97319">
        <ele>1075.4</ele>
        <time>2021-06-26T12:55:47Z</time>
      </trkpt>
      <trkpt lat="44.83347" lon="5.97305">
        <ele>1074.2</ele>
        <time>2021-06-26T12:55:49Z</time>
      </trkpt>
      <trkpt lat="44.83335" lon="5.97296">
        <ele>1072.2</ele>
        <time>2021-06-26T12:55:50Z</time>
      </trkpt>
      <trkpt lat="44.83324" lon="5.97285">
        <ele>1071</ele>
        <time>2021-06-26T12:55:51Z</time>
      </trkpt>
      <trkpt lat="44.83312" lon="5.97275">
        <ele>1069</ele>
        <time>2021-06-26T12:55:52Z</time>
      </trkpt>
      <trkpt lat="44.83303" lon="5.97266">
        <ele>1067.8</ele>
        <time>2021-06-26T12:55:53Z</time>
      </trkpt>
      <trkpt lat="44.83292" lon="5.97254">
        <ele>1065.4</ele>
        <time>2021-06-26T12:55:54Z</time>
      </trkpt>
      <trkpt lat="44.83278" lon="5.9724">
        <ele>1063.8</ele>
        <time>2021-06-26T12:55:55Z</time>
      </trkpt>
      <trkpt lat="44.83252" lon="5.97227">
        <ele>1061.4</ele>
        <time>2021-06-26T12:55:57Z</time>
      </trkpt>
      <trkpt lat="44.83239" lon="5.97223">
        <ele>1060.6</ele>
        <time>2021-06-26T12:55:58Z</time>
      </trkpt>
      <trkpt lat="44.83228" lon="5.9722">
        <ele>1059.2</ele>
        <time>2021-06-26T12:55:59Z</time>
      </trkpt>
      <trkpt lat="44.83216" lon="5.97215">
        <ele>1058.4</ele>
        <time>2021-06-26T12:56:00Z</time>
      </trkpt>
      <trkpt lat="44.83205" lon="5.97209">
        <ele>1056.2</ele>
        <time>2021-06-26T12:56:01Z</time>
      </trkpt>
      <trkpt lat="44.83196" lon="5.97202">
        <ele>1054.2</ele>
        <time>2021-06-26T12:56:02Z</time>
      </trkpt>
      <trkpt lat="44.8319" lon="5.97192">
        <ele>1053.6</ele>
        <time>2021-06-26T12:56:03Z</time>
      </trkpt>
      <trkpt lat="44.83186" lon="5.97179">
        <ele>1052.6</ele>
        <time>2021-06-26T12:56:04Z</time>
      </trkpt>
      <trkpt lat="44.83183" lon="5.97165">
        <ele>1051.6</ele>
        <time>2021-06-26T12:56:05Z</time>
      </trkpt>
      <trkpt lat="44.83182" lon="5.97148">
        <ele>1050.2</ele>
        <time>2021-06-26T12:56:06Z</time>
      </trkpt>
      <trkpt lat="44.8318" lon="5.97113">
        <ele>1047.2</ele>
        <time>2021-06-26T12:56:08Z</time>
      </trkpt>
      <trkpt lat="44.83178" lon="5.97096">
        <ele>1044.8</ele>
        <time>2021-06-26T12:56:09Z</time>
      </trkpt>
      <trkpt lat="44.83175" lon="5.97079">
        <ele>1043.8</ele>
        <time>2021-06-26T12:56:10Z</time>
      </trkpt>
      <trkpt lat="44.83174" lon="5.97061">
        <ele>1042.4</ele>
        <time>2021-06-26T12:56:11Z</time>
      </trkpt>
      <trkpt lat="44.83173" lon="5.97043">
        <ele>1041.8</ele>
        <time>2021-06-26T12:56:12Z</time>
      </trkpt>
      <trkpt lat="44.83173" lon="5.97025">
        <ele>1039.8</ele>
        <time>2021-06-26T12:56:13Z</time>
      </trkpt>
      <trkpt lat="44.83173" lon="5.97007">
        <ele>1038.6</ele>
        <time>2021-06-26T12:56:14Z</time>
      </trkpt>
      <trkpt lat="44.83173" lon="5.96989">
        <ele>1037.6</ele>
        <time>2021-06-26T12:56:15Z</time>
      </trkpt>
      <trkpt lat="44.83173" lon="5.96967">
        <ele>1036.4</ele>
        <time>2021-06-26T12:56:16Z</time>
      </trkpt>
      <trkpt lat="44.83175" lon="5.96935">
        <ele>1033.6</ele>
        <time>2021-06-26T12:56:18Z</time>
      </trkpt>
      <trkpt lat="44.83176" lon="5.96917">
        <ele>1032.6</ele>
        <time>2021-06-26T12:56:19Z</time>
      </trkpt>
      <trkpt lat="44.83179" lon="5.96899">
        <ele>1030.4</ele>
        <time>2021-06-26T12:56:20Z</time>
      </trkpt>
      <trkpt lat="44.83188" lon="5.96863">
        <ele>1028.2</ele>
        <time>2021-06-26T12:56:22Z</time>
      </trkpt>
      <trkpt lat="44.83192" lon="5.96846">
        <ele>1026.8</ele>
        <time>2021-06-26T12:56:23Z</time>
      </trkpt>
      <trkpt lat="44.83199" lon="5.96809">
        <ele>1024.4</ele>
        <time>2021-06-26T12:56:25Z</time>
      </trkpt>
      <trkpt lat="44.83201" lon="5.96793">
        <ele>1023.6</ele>
        <time>2021-06-26T12:56:26Z</time>
      </trkpt>
      <trkpt lat="44.832" lon="5.96774">
        <ele>1021.8</ele>
        <time>2021-06-26T12:56:27Z</time>
      </trkpt>
      <trkpt lat="44.83196" lon="5.96756">
        <ele>1021</ele>
        <time>2021-06-26T12:56:28Z</time>
      </trkpt>
      <trkpt lat="44.83191" lon="5.96741">
        <ele>1019.6</ele>
        <time>2021-06-26T12:56:29Z</time>
      </trkpt>
      <trkpt lat="44.83184" lon="5.96721">
        <ele>1018</ele>
        <time>2021-06-26T12:56:30Z</time>
      </trkpt>
      <trkpt lat="44.83167" lon="5.96688">
        <ele>1015.4</ele>
        <time>2021-06-26T12:56:32Z</time>
      </trkpt>
      <trkpt lat="44.83162" lon="5.96675">
        <ele>1014.4</ele>
        <time>2021-06-26T12:56:33Z</time>
      </trkpt>
      <trkpt lat="44.83155" lon="5.96659">
        <ele>1013.2</ele>
        <time>2021-06-26T12:56:34Z</time>
      </trkpt>
      <trkpt lat="44.83143" lon="5.96628">
        <ele>1010.6</ele>
        <time>2021-06-26T12:56:36Z</time>
      </trkpt>
      <trkpt lat="44.83139" lon="5.96618">
        <ele>1008.2</ele>
        <time>2021-06-26T12:56:37Z</time>
      </trkpt>
      <trkpt lat="44.83131" lon="5.96607">
        <ele>1007</ele>
        <time>2021-06-26T12:56:38Z</time>
      </trkpt>
      <trkpt lat="44.83122" lon="5.96602">
        <ele>1005.8</ele>
        <time>2021-06-26T12:56:39Z</time>
      </trkpt>
      <trkpt lat="44.83102" lon="5.96603">
        <ele>1004.2</ele>
        <time>2021-06-26T12:56:41Z</time>
      </trkpt>
      <trkpt lat="44.83095" lon="5.96604">
        <ele>1003.4</ele>
        <time>2021-06-26T12:56:42Z</time>
      </trkpt>
      <trkpt lat="44.83087" lon="5.96603">
        <ele>1001.8</ele>
        <time>2021-06-26T12:56:43Z</time>
      </trkpt>
      <trkpt lat="44.83079" lon="5.96599">
        <ele>1000.8</ele>
        <time>2021-06-26T12:56:44Z</time>
      </trkpt>
      <trkpt lat="44.83067" lon="5.96591">
        <ele>1000.2</ele>
        <time>2021-06-26T12:56:45Z</time>
      </trkpt>
      <trkpt lat="44.83056" lon="5.96584">
        <ele>998.6</ele>
        <time>2021-06-26T12:56:46Z</time>
      </trkpt>
      <trkpt lat="44.83037" lon="5.96569">
        <ele>996.6</ele>
        <time>2021-06-26T12:56:48Z</time>
      </trkpt>
      <trkpt lat="44.83027" lon="5.96561">
        <ele>995.2</ele>
        <time>2021-06-26T12:56:49Z</time>
      </trkpt>
      <trkpt lat="44.83019" lon="5.96551">
        <ele>993</ele>
        <time>2021-06-26T12:56:50Z</time>
      </trkpt>
      <trkpt lat="44.83011" lon="5.96545">
        <ele>991.2</ele>
        <time>2021-06-26T12:56:51Z</time>
      </trkpt>
      <trkpt lat="44.83004" lon="5.96545">
        <ele>990.4</ele>
        <time>2021-06-26T12:56:52Z</time>
      </trkpt>
      <trkpt lat="44.82998" lon="5.96549">
        <ele>989.4</ele>
        <time>2021-06-26T12:56:53Z</time>
      </trkpt>
      <trkpt lat="44.83001" lon="5.9656">
        <ele>988.6</ele>
        <time>2021-06-26T12:56:54Z</time>
      </trkpt>
      <trkpt lat="44.83005" lon="5.96569">
        <ele>987.6</ele>
        <time>2021-06-26T12:56:55Z</time>
      </trkpt>
      <trkpt lat="44.83011" lon="5.96576">
        <ele>987.2</ele>
        <time>2021-06-26T12:56:56Z</time>
      </trkpt>
      <trkpt lat="44.83027" lon="5.96586">
        <ele>986.4</ele>
        <time>2021-06-26T12:56:58Z</time>
      </trkpt>
      <trkpt lat="44.83034" lon="5.96594">
        <ele>986.2</ele>
        <time>2021-06-26T12:56:59Z</time>
      </trkpt>
      <trkpt lat="44.8304" lon="5.96603">
        <ele>985.8</ele>
        <time>2021-06-26T12:57:00Z</time>
      </trkpt>
      <trkpt lat="44.83045" lon="5.96613">
        <ele>985.4</ele>
        <time>2021-06-26T12:57:01Z</time>
      </trkpt>
      <trkpt lat="44.83054" lon="5.96638">
        <ele>984.8</ele>
        <time>2021-06-26T12:57:03Z</time>
      </trkpt>
      <trkpt lat="44.83056" lon="5.96651">
        <ele>984.4</ele>
        <time>2021-06-26T12:57:04Z</time>
      </trkpt>
      <trkpt lat="44.83056" lon="5.96665">
        <ele>983.8</ele>
        <time>2021-06-26T12:57:05Z</time>
      </trkpt>
      <trkpt lat="44.83056" lon="5.96679">
        <ele>983.6</ele>
        <time>2021-06-26T12:57:06Z</time>
      </trkpt>
      <trkpt lat="44.83055" lon="5.96692">
        <ele>983.2</ele>
        <time>2021-06-26T12:57:07Z</time>
      </trkpt>
      <trkpt lat="44.83049" lon="5.96714">
        <ele>982.4</ele>
        <time>2021-06-26T12:57:09Z</time>
      </trkpt>
      <trkpt lat="44.83042" lon="5.96722">
        <ele>982.4</ele>
        <time>2021-06-26T12:57:10Z</time>
      </trkpt>
      <trkpt lat="44.83037" lon="5.96725">
        <ele>982</ele>
        <time>2021-06-26T12:57:11Z</time>
      </trkpt>
      <trkpt lat="44.83026" lon="5.96724">
        <ele>981.8</ele>
        <time>2021-06-26T12:57:13Z</time>
      </trkpt>
      <trkpt lat="44.83016" lon="5.9672">
        <ele>981.6</ele>
        <time>2021-06-26T12:57:15Z</time>
      </trkpt>
      <trkpt lat="44.83005" lon="5.96715">
        <ele>981.6</ele>
        <time>2021-06-26T12:57:17Z</time>
      </trkpt>
      <trkpt lat="44.83002" lon="5.96714">
        <ele>981.6</ele>
        <time>2021-06-26T12:57:18Z</time>
      </trkpt>
      <trkpt lat="44.82983" lon="5.96703">
        <ele>981.8</ele>
        <time>2021-06-26T12:57:21Z</time>
      </trkpt>
      <trkpt lat="44.82967" lon="5.96693">
        <ele>982</ele>
        <time>2021-06-26T12:57:23Z</time>
      </trkpt>
      <trkpt lat="44.82958" lon="5.96684">
        <ele>982.4</ele>
        <time>2021-06-26T12:57:25Z</time>
      </trkpt>
      <trkpt lat="44.82948" lon="5.96673">
        <ele>983.2</ele>
        <time>2021-06-26T12:57:28Z</time>
      </trkpt>
      <trkpt lat="44.82946" lon="5.9667">
        <ele>983.4</ele>
        <time>2021-06-26T12:57:29Z</time>
      </trkpt>
      <trkpt lat="44.82943" lon="5.96664">
        <ele>983.6</ele>
        <time>2021-06-26T12:57:30Z</time>
      </trkpt>
      <trkpt lat="44.82925" lon="5.96645">
        <ele>984.2</ele>
        <time>2021-06-26T12:57:33Z</time>
      </trkpt>
      <trkpt lat="44.82904" lon="5.96629">
        <ele>984.4</ele>
        <time>2021-06-26T12:57:36Z</time>
      </trkpt>
      <trkpt lat="44.82896" lon="5.96629">
        <ele>984.6</ele>
        <time>2021-06-26T12:57:37Z</time>
      </trkpt>
      <trkpt lat="44.82889" lon="5.96629">
        <ele>984.8</ele>
        <time>2021-06-26T12:57:38Z</time>
      </trkpt>
      <trkpt lat="44.82866" lon="5.9663">
        <ele>985.6</ele>
        <time>2021-06-26T12:57:42Z</time>
      </trkpt>
      <trkpt lat="44.82861" lon="5.96628">
        <ele>985.6</ele>
        <time>2021-06-26T12:57:43Z</time>
      </trkpt>
      <trkpt lat="44.82856" lon="5.96627">
        <ele>985.6</ele>
        <time>2021-06-26T12:57:44Z</time>
      </trkpt>
      <trkpt lat="44.82832" lon="5.96623">
        <ele>986.4</ele>
        <time>2021-06-26T12:57:49Z</time>
      </trkpt>
      <trkpt lat="44.82816" lon="5.96617">
        <ele>986.4</ele>
        <time>2021-06-26T12:57:52Z</time>
      </trkpt>
      <trkpt lat="44.8281" lon="5.96614">
        <ele>986.6</ele>
        <time>2021-06-26T12:57:53Z</time>
      </trkpt>
      <trkpt lat="44.82805" lon="5.9661">
        <ele>986.8</ele>
        <time>2021-06-26T12:57:54Z</time>
      </trkpt>
      <trkpt lat="44.828" lon="5.96606">
        <ele>986.8</ele>
        <time>2021-06-26T12:57:55Z</time>
      </trkpt>
      <trkpt lat="44.82767" lon="5.96584">
        <ele>986.8</ele>
        <time>2021-06-26T12:58:00Z</time>
      </trkpt>
      <trkpt lat="44.82731" lon="5.96559">
        <ele>986.6</ele>
        <time>2021-06-26T12:58:06Z</time>
      </trkpt>
      <trkpt lat="44.82706" lon="5.96545">
        <ele>986.4</ele>
        <time>2021-06-26T12:58:11Z</time>
      </trkpt>
      <trkpt lat="44.82697" lon="5.96538">
        <ele>986.4</ele>
        <time>2021-06-26T12:58:13Z</time>
      </trkpt>
      <trkpt lat="44.82694" lon="5.96531">
        <ele>986.8</ele>
        <time>2021-06-26T12:58:14Z</time>
      </trkpt>
      <trkpt lat="44.82692" lon="5.96524">
        <ele>987.2</ele>
        <time>2021-06-26T12:58:15Z</time>
      </trkpt>
      <trkpt lat="44.82686" lon="5.96502">
        <ele>987.4</ele>
        <time>2021-06-26T12:58:18Z</time>
      </trkpt>
      <trkpt lat="44.8267" lon="5.96466">
        <ele>987.4</ele>
        <time>2021-06-26T12:58:22Z</time>
      </trkpt>
      <trkpt lat="44.82651" lon="5.96414">
        <ele>986.8</ele>
        <time>2021-06-26T12:58:27Z</time>
      </trkpt>
      <trkpt lat="44.82644" lon="5.96392">
        <ele>985.6</ele>
        <time>2021-06-26T12:58:29Z</time>
      </trkpt>
      <trkpt lat="44.82639" lon="5.96382">
        <ele>985.4</ele>
        <time>2021-06-26T12:58:30Z</time>
      </trkpt>
      <trkpt lat="44.82628" lon="5.96362">
        <ele>984.6</ele>
        <time>2021-06-26T12:58:32Z</time>
      </trkpt>
      <trkpt lat="44.82622" lon="5.96353">
        <ele>984</ele>
        <time>2021-06-26T12:58:33Z</time>
      </trkpt>
      <trkpt lat="44.82596" lon="5.96318">
        <ele>983</ele>
        <time>2021-06-26T12:58:37Z</time>
      </trkpt>
      <trkpt lat="44.82589" lon="5.96309">
        <ele>982.8</ele>
        <time>2021-06-26T12:58:38Z</time>
      </trkpt>
      <trkpt lat="44.82576" lon="5.96288">
        <ele>982.4</ele>
        <time>2021-06-26T12:58:40Z</time>
      </trkpt>
      <trkpt lat="44.82571" lon="5.96277">
        <ele>982.2</ele>
        <time>2021-06-26T12:58:41Z</time>
      </trkpt>
      <trkpt lat="44.82566" lon="5.96266">
        <ele>981.6</ele>
        <time>2021-06-26T12:58:42Z</time>
      </trkpt>
      <trkpt lat="44.82553" lon="5.96234">
        <ele>981</ele>
        <time>2021-06-26T12:58:45Z</time>
      </trkpt>
      <trkpt lat="44.82533" lon="5.96191">
        <ele>979.8</ele>
        <time>2021-06-26T12:58:49Z</time>
      </trkpt>
      <trkpt lat="44.82527" lon="5.96181">
        <ele>979.2</ele>
        <time>2021-06-26T12:58:50Z</time>
      </trkpt>
      <trkpt lat="44.82509" lon="5.96149">
        <ele>978.8</ele>
        <time>2021-06-26T12:58:53Z</time>
      </trkpt>
      <trkpt lat="44.82504" lon="5.96138">
        <ele>978.2</ele>
        <time>2021-06-26T12:58:54Z</time>
      </trkpt>
      <trkpt lat="44.82499" lon="5.96127">
        <ele>978</ele>
        <time>2021-06-26T12:58:55Z</time>
      </trkpt>
      <trkpt lat="44.82496" lon="5.96115">
        <ele>977.2</ele>
        <time>2021-06-26T12:58:56Z</time>
      </trkpt>
      <trkpt lat="44.82493" lon="5.96103">
        <ele>976.8</ele>
        <time>2021-06-26T12:58:57Z</time>
      </trkpt>
      <trkpt lat="44.82486" lon="5.9608">
        <ele>976.4</ele>
        <time>2021-06-26T12:58:59Z</time>
      </trkpt>
      <trkpt lat="44.82483" lon="5.9607">
        <ele>976.4</ele>
        <time>2021-06-26T12:59:00Z</time>
      </trkpt>
      <trkpt lat="44.82469" lon="5.96039">
        <ele>976.2</ele>
        <time>2021-06-26T12:59:03Z</time>
      </trkpt>
      <trkpt lat="44.82438" lon="5.95969">
        <ele>975.6</ele>
        <time>2021-06-26T12:59:10Z</time>
      </trkpt>
      <trkpt lat="44.82431" lon="5.95952">
        <ele>975.6</ele>
        <time>2021-06-26T12:59:12Z</time>
      </trkpt>
      <trkpt lat="44.82424" lon="5.95934">
        <ele>975.6</ele>
        <time>2021-06-26T12:59:14Z</time>
      </trkpt>
      <trkpt lat="44.82399" lon="5.95884">
        <ele>975.8</ele>
        <time>2021-06-26T12:59:20Z</time>
      </trkpt>
      <trkpt lat="44.82371" lon="5.95826">
        <ele>976.4</ele>
        <time>2021-06-26T12:59:27Z</time>
      </trkpt>
      <trkpt lat="44.82354" lon="5.95793">
        <ele>976.4</ele>
        <time>2021-06-26T12:59:31Z</time>
      </trkpt>
      <trkpt lat="44.82344" lon="5.95779">
        <ele>976.6</ele>
        <time>2021-06-26T12:59:33Z</time>
      </trkpt>
      <trkpt lat="44.82333" lon="5.95766">
        <ele>976.4</ele>
        <time>2021-06-26T12:59:35Z</time>
      </trkpt>
      <trkpt lat="44.82326" lon="5.95748">
        <ele>976.8</ele>
        <time>2021-06-26T12:59:37Z</time>
      </trkpt>
      <trkpt lat="44.82324" lon="5.95727">
        <ele>976.4</ele>
        <time>2021-06-26T12:59:39Z</time>
      </trkpt>
      <trkpt lat="44.82322" lon="5.95715">
        <ele>976.4</ele>
        <time>2021-06-26T12:59:40Z</time>
      </trkpt>
      <trkpt lat="44.82317" lon="5.95703">
        <ele>976.4</ele>
        <time>2021-06-26T12:59:41Z</time>
      </trkpt>
      <trkpt lat="44.82309" lon="5.95683">
        <ele>976.2</ele>
        <time>2021-06-26T12:59:43Z</time>
      </trkpt>
      <trkpt lat="44.82301" lon="5.95662">
        <ele>975.8</ele>
        <time>2021-06-26T12:59:45Z</time>
      </trkpt>
      <trkpt lat="44.82298" lon="5.95651">
        <ele>975.8</ele>
        <time>2021-06-26T12:59:46Z</time>
      </trkpt>
      <trkpt lat="44.8229" lon="5.95627">
        <ele>975.2</ele>
        <time>2021-06-26T12:59:48Z</time>
      </trkpt>
      <trkpt lat="44.82287" lon="5.95616">
        <ele>975</ele>
        <time>2021-06-26T12:59:49Z</time>
      </trkpt>
      <trkpt lat="44.8228" lon="5.95585">
        <ele>974.8</ele>
        <time>2021-06-26T12:59:52Z</time>
      </trkpt>
      <trkpt lat="44.82276" lon="5.95575">
        <ele>974.8</ele>
        <time>2021-06-26T12:59:53Z</time>
      </trkpt>
      <trkpt lat="44.82265" lon="5.95551">
        <ele>974.8</ele>
        <time>2021-06-26T12:59:56Z</time>
      </trkpt>
      <trkpt lat="44.82243" lon="5.9551">
        <ele>975.2</ele>
        <time>2021-06-26T13:00:01Z</time>
      </trkpt>
      <trkpt lat="44.82239" lon="5.95502">
        <ele>975.2</ele>
        <time>2021-06-26T13:00:02Z</time>
      </trkpt>
      <trkpt lat="44.82229" lon="5.95476">
        <ele>975.8</ele>
        <time>2021-06-26T13:00:05Z</time>
      </trkpt>
      <trkpt lat="44.82225" lon="5.95468">
        <ele>976</ele>
        <time>2021-06-26T13:00:06Z</time>
      </trkpt>
      <trkpt lat="44.82218" lon="5.95451">
        <ele>976</ele>
        <time>2021-06-26T13:00:08Z</time>
      </trkpt>
      <trkpt lat="44.82212" lon="5.95429">
        <ele>975.6</ele>
        <time>2021-06-26T13:00:10Z</time>
      </trkpt>
      <trkpt lat="44.82207" lon="5.95406">
        <ele>975.6</ele>
        <time>2021-06-26T13:00:12Z</time>
      </trkpt>
      <trkpt lat="44.82199" lon="5.95377">
        <ele>975.4</ele>
        <time>2021-06-26T13:00:15Z</time>
      </trkpt>
      <trkpt lat="44.82186" lon="5.95334">
        <ele>975.2</ele>
        <time>2021-06-26T13:00:19Z</time>
      </trkpt>
      <trkpt lat="44.82186" lon="5.95323">
        <ele>975.4</ele>
        <time>2021-06-26T13:00:20Z</time>
      </trkpt>
      <trkpt lat="44.82187" lon="5.95312">
        <ele>975.2</ele>
        <time>2021-06-26T13:00:21Z</time>
      </trkpt>
      <trkpt lat="44.8219" lon="5.95292">
        <ele>975.2</ele>
        <time>2021-06-26T13:00:23Z</time>
      </trkpt>
      <trkpt lat="44.82186" lon="5.95258">
        <ele>974.6</ele>
        <time>2021-06-26T13:00:26Z</time>
      </trkpt>
      <trkpt lat="44.82181" lon="5.95233">
        <ele>974</ele>
        <time>2021-06-26T13:00:28Z</time>
      </trkpt>
      <trkpt lat="44.82179" lon="5.95221">
        <ele>973.8</ele>
        <time>2021-06-26T13:00:29Z</time>
      </trkpt>
      <trkpt lat="44.82173" lon="5.95194">
        <ele>973.4</ele>
        <time>2021-06-26T13:00:31Z</time>
      </trkpt>
      <trkpt lat="44.8217" lon="5.95181">
        <ele>972.6</ele>
        <time>2021-06-26T13:00:32Z</time>
      </trkpt>
      <trkpt lat="44.8216" lon="5.9514">
        <ele>970.6</ele>
        <time>2021-06-26T13:00:35Z</time>
      </trkpt>
      <trkpt lat="44.82155" lon="5.95126">
        <ele>970</ele>
        <time>2021-06-26T13:00:36Z</time>
      </trkpt>
      <trkpt lat="44.82151" lon="5.95113">
        <ele>969.2</ele>
        <time>2021-06-26T13:00:37Z</time>
      </trkpt>
      <trkpt lat="44.82141" lon="5.95085">
        <ele>968</ele>
        <time>2021-06-26T13:00:39Z</time>
      </trkpt>
      <trkpt lat="44.82131" lon="5.95056">
        <ele>966.6</ele>
        <time>2021-06-26T13:00:41Z</time>
      </trkpt>
      <trkpt lat="44.82125" lon="5.95042">
        <ele>964.6</ele>
        <time>2021-06-26T13:00:42Z</time>
      </trkpt>
      <trkpt lat="44.82119" lon="5.95028">
        <ele>964</ele>
        <time>2021-06-26T13:00:43Z</time>
      </trkpt>
      <trkpt lat="44.82113" lon="5.95014">
        <ele>963</ele>
        <time>2021-06-26T13:00:44Z</time>
      </trkpt>
      <trkpt lat="44.82099" lon="5.94986">
        <ele>961.8</ele>
        <time>2021-06-26T13:00:46Z</time>
      </trkpt>
      <trkpt lat="44.82091" lon="5.94973">
        <ele>961.4</ele>
        <time>2021-06-26T13:00:47Z</time>
      </trkpt>
      <trkpt lat="44.82082" lon="5.94961">
        <ele>960.6</ele>
        <time>2021-06-26T13:00:48Z</time>
      </trkpt>
      <trkpt lat="44.82057" lon="5.94929">
        <ele>959.2</ele>
        <time>2021-06-26T13:00:51Z</time>
      </trkpt>
      <trkpt lat="44.8205" lon="5.9492">
        <ele>959.2</ele>
        <time>2021-06-26T13:00:52Z</time>
      </trkpt>
      <trkpt lat="44.8202" lon="5.94893">
        <ele>958.4</ele>
        <time>2021-06-26T13:00:56Z</time>
      </trkpt>
      <trkpt lat="44.81995" lon="5.94875">
        <ele>959.4</ele>
        <time>2021-06-26T13:01:00Z</time>
      </trkpt>
      <trkpt lat="44.81978" lon="5.94872">
        <ele>960.6</ele>
        <time>2021-06-26T13:01:03Z</time>
      </trkpt>
      <trkpt lat="44.81972" lon="5.94873">
        <ele>961</ele>
        <time>2021-06-26T13:01:04Z</time>
      </trkpt>
      <trkpt lat="44.81967" lon="5.94875">
        <ele>962</ele>
        <time>2021-06-26T13:01:05Z</time>
      </trkpt>
      <trkpt lat="44.81959" lon="5.94883">
        <ele>963</ele>
        <time>2021-06-26T13:01:07Z</time>
      </trkpt>
      <trkpt lat="44.81956" lon="5.94888">
        <ele>963.4</ele>
        <time>2021-06-26T13:01:08Z</time>
      </trkpt>
      <trkpt lat="44.81953" lon="5.94893">
        <ele>964.2</ele>
        <time>2021-06-26T13:01:09Z</time>
      </trkpt>
      <trkpt lat="44.81945" lon="5.9491">
        <ele>965.6</ele>
        <time>2021-06-26T13:01:12Z</time>
      </trkpt>
      <trkpt lat="44.81942" lon="5.94915">
        <ele>965.8</ele>
        <time>2021-06-26T13:01:13Z</time>
      </trkpt>
      <trkpt lat="44.81939" lon="5.9492">
        <ele>966.4</ele>
        <time>2021-06-26T13:01:14Z</time>
      </trkpt>
      <trkpt lat="44.81932" lon="5.94929">
        <ele>967</ele>
        <time>2021-06-26T13:01:16Z</time>
      </trkpt>
      <trkpt lat="44.81928" lon="5.94933">
        <ele>967.4</ele>
        <time>2021-06-26T13:01:17Z</time>
      </trkpt>
      <trkpt lat="44.81925" lon="5.94936">
        <ele>967.4</ele>
        <time>2021-06-26T13:01:18Z</time>
      </trkpt>
      <trkpt lat="44.81921" lon="5.9494">
        <ele>968</ele>
        <time>2021-06-26T13:01:19Z</time>
      </trkpt>
      <trkpt lat="44.81918" lon="5.94942">
        <ele>968</ele>
        <time>2021-06-26T13:01:20Z</time>
      </trkpt>
      <trkpt lat="44.81907" lon="5.94947">
        <ele>968.4</ele>
        <time>2021-06-26T13:01:23Z</time>
      </trkpt>
      <trkpt lat="44.81899" lon="5.94947">
        <ele>968.8</ele>
        <time>2021-06-26T13:01:25Z</time>
      </trkpt>
      <trkpt lat="44.81884" lon="5.94944">
        <ele>969</ele>
        <time>2021-06-26T13:01:28Z</time>
      </trkpt>
      <trkpt lat="44.81859" lon="5.94933">
        <ele>969</ele>
        <time>2021-06-26T13:01:33Z</time>
      </trkpt>
      <trkpt lat="44.81848" lon="5.94922">
        <ele>969</ele>
        <time>2021-06-26T13:01:35Z</time>
      </trkpt>
      <trkpt lat="44.8184" lon="5.94907">
        <ele>968.4</ele>
        <time>2021-06-26T13:01:37Z</time>
      </trkpt>
      <trkpt lat="44.81836" lon="5.94899">
        <ele>968.2</ele>
        <time>2021-06-26T13:01:38Z</time>
      </trkpt>
      <trkpt lat="44.81832" lon="5.9489">
        <ele>968</ele>
        <time>2021-06-26T13:01:39Z</time>
      </trkpt>
      <trkpt lat="44.81818" lon="5.94877">
        <ele>967.2</ele>
        <time>2021-06-26T13:01:41Z</time>
      </trkpt>
      <trkpt lat="44.8181" lon="5.94873">
        <ele>966.8</ele>
        <time>2021-06-26T13:01:42Z</time>
      </trkpt>
      <trkpt lat="44.81802" lon="5.94872">
        <ele>966.6</ele>
        <time>2021-06-26T13:01:43Z</time>
      </trkpt>
      <trkpt lat="44.81794" lon="5.94873">
        <ele>966.2</ele>
        <time>2021-06-26T13:01:44Z</time>
      </trkpt>
      <trkpt lat="44.81788" lon="5.9488">
        <ele>965.2</ele>
        <time>2021-06-26T13:01:45Z</time>
      </trkpt>
      <trkpt lat="44.81782" lon="5.94888">
        <ele>965</ele>
        <time>2021-06-26T13:01:46Z</time>
      </trkpt>
      <trkpt lat="44.81778" lon="5.94898">
        <ele>964.2</ele>
        <time>2021-06-26T13:01:47Z</time>
      </trkpt>
      <trkpt lat="44.81772" lon="5.94906">
        <ele>964</ele>
        <time>2021-06-26T13:01:48Z</time>
      </trkpt>
      <trkpt lat="44.81759" lon="5.94918">
        <ele>963.2</ele>
        <time>2021-06-26T13:01:50Z</time>
      </trkpt>
      <trkpt lat="44.81743" lon="5.9491">
        <ele>961.4</ele>
        <time>2021-06-26T13:01:52Z</time>
      </trkpt>
      <trkpt lat="44.81728" lon="5.94894">
        <ele>960</ele>
        <time>2021-06-26T13:01:54Z</time>
      </trkpt>
      <trkpt lat="44.81722" lon="5.94886">
        <ele>959.6</ele>
        <time>2021-06-26T13:01:55Z</time>
      </trkpt>
      <trkpt lat="44.81718" lon="5.94878">
        <ele>958.8</ele>
        <time>2021-06-26T13:01:56Z</time>
      </trkpt>
      <trkpt lat="44.81713" lon="5.94865">
        <ele>957.4</ele>
        <time>2021-06-26T13:01:58Z</time>
      </trkpt>
      <trkpt lat="44.8171" lon="5.94855">
        <ele>956.4</ele>
        <time>2021-06-26T13:02:00Z</time>
      </trkpt>
      <trkpt lat="44.8171" lon="5.94852">
        <ele>955.8</ele>
        <time>2021-06-26T13:02:01Z</time>
      </trkpt>
      <trkpt lat="44.8171" lon="5.94847">
        <ele>955.4</ele>
        <time>2021-06-26T13:02:03Z</time>
      </trkpt>
      <trkpt lat="44.8171" lon="5.94847">
        <ele>955</ele>
        <time>2021-06-26T13:02:06Z</time>
      </trkpt>
      <trkpt lat="44.81712" lon="5.94847">
        <ele>954.8</ele>
        <time>2021-06-26T13:02:52Z</time>
      </trkpt>
      <trkpt lat="44.81725" lon="5.9484">
        <ele>954.2</ele>
        <time>2021-06-26T13:02:57Z</time>
      </trkpt>
      <trkpt lat="44.81728" lon="5.94834">
        <ele>954</ele>
        <time>2021-06-26T13:02:58Z</time>
      </trkpt>
      <trkpt lat="44.81728" lon="5.94827">
        <ele>953.6</ele>
        <time>2021-06-26T13:02:59Z</time>
      </trkpt>
      <trkpt lat="44.81727" lon="5.9482">
        <ele>953.4</ele>
        <time>2021-06-26T13:03:00Z</time>
      </trkpt>
      <trkpt lat="44.81723" lon="5.94802">
        <ele>952.4</ele>
        <time>2021-06-26T13:03:03Z</time>
      </trkpt>
      <trkpt lat="44.81717" lon="5.94781">
        <ele>951.8</ele>
        <time>2021-06-26T13:03:07Z</time>
      </trkpt>
      <trkpt lat="44.81715" lon="5.94777">
        <ele>951.6</ele>
        <time>2021-06-26T13:03:08Z</time>
      </trkpt>
      <trkpt lat="44.81707" lon="5.94759">
        <ele>951.8</ele>
        <time>2021-06-26T13:03:12Z</time>
      </trkpt>
      <trkpt lat="44.81691" lon="5.94744">
        <ele>951.6</ele>
        <time>2021-06-26T13:03:17Z</time>
      </trkpt>
      <trkpt lat="44.81687" lon="5.94742">
        <ele>951.6</ele>
        <time>2021-06-26T13:03:18Z</time>
      </trkpt>
      <trkpt lat="44.8166" lon="5.94732">
        <ele>951.4</ele>
        <time>2021-06-26T13:03:24Z</time>
      </trkpt>
      <trkpt lat="44.81626" lon="5.94728">
        <ele>951</ele>
        <time>2021-06-26T13:03:30Z</time>
      </trkpt>
      <trkpt lat="44.81614" lon="5.94726">
        <ele>950.4</ele>
        <time>2021-06-26T13:03:32Z</time>
      </trkpt>
      <trkpt lat="44.81594" lon="5.94723">
        <ele>950.2</ele>
        <time>2021-06-26T13:03:35Z</time>
      </trkpt>
      <trkpt lat="44.81544" lon="5.94717">
        <ele>950.2</ele>
        <time>2021-06-26T13:03:43Z</time>
      </trkpt>
      <trkpt lat="44.81492" lon="5.9471">
        <ele>949.6</ele>
        <time>2021-06-26T13:03:51Z</time>
      </trkpt>
      <trkpt lat="44.81485" lon="5.94709">
        <ele>949.6</ele>
        <time>2021-06-26T13:03:52Z</time>
      </trkpt>
      <trkpt lat="44.81478" lon="5.94709">
        <ele>949.6</ele>
        <time>2021-06-26T13:03:53Z</time>
      </trkpt>
      <trkpt lat="44.81465" lon="5.94711">
        <ele>949.6</ele>
        <time>2021-06-26T13:03:55Z</time>
      </trkpt>
      <trkpt lat="44.81459" lon="5.94714">
        <ele>949.6</ele>
        <time>2021-06-26T13:03:56Z</time>
      </trkpt>
      <trkpt lat="44.81452" lon="5.94718">
        <ele>949.6</ele>
        <time>2021-06-26T13:03:57Z</time>
      </trkpt>
      <trkpt lat="44.81434" lon="5.94734">
        <ele>949.4</ele>
        <time>2021-06-26T13:04:00Z</time>
      </trkpt>
      <trkpt lat="44.81384" lon="5.94779">
        <ele>949.2</ele>
        <time>2021-06-26T13:04:08Z</time>
      </trkpt>
      <trkpt lat="44.81378" lon="5.94782">
        <ele>949</ele>
        <time>2021-06-26T13:04:09Z</time>
      </trkpt>
      <trkpt lat="44.81366" lon="5.94787">
        <ele>948.8</ele>
        <time>2021-06-26T13:04:11Z</time>
      </trkpt>
      <trkpt lat="44.81361" lon="5.94788">
        <ele>948.6</ele>
        <time>2021-06-26T13:04:12Z</time>
      </trkpt>
      <trkpt lat="44.81346" lon="5.94793">
        <ele>948</ele>
        <time>2021-06-26T13:04:16Z</time>
      </trkpt>
      <trkpt lat="44.81341" lon="5.94795">
        <ele>947.6</ele>
        <time>2021-06-26T13:04:18Z</time>
      </trkpt>
      <trkpt lat="44.81333" lon="5.948">
        <ele>946.8</ele>
        <time>2021-06-26T13:04:22Z</time>
      </trkpt>
      <trkpt lat="44.81331" lon="5.94801">
        <ele>946.4</ele>
        <time>2021-06-26T13:04:23Z</time>
      </trkpt>
      <trkpt lat="44.81329" lon="5.94804">
        <ele>946.2</ele>
        <time>2021-06-26T13:04:25Z</time>
      </trkpt>
      <trkpt lat="44.81329" lon="5.94804">
        <ele>946</ele>
        <time>2021-06-26T13:04:27Z</time>
      </trkpt>
      <trkpt lat="44.81326" lon="5.94809">
        <ele>945.8</ele>
        <time>2021-06-26T13:04:30Z</time>
      </trkpt>
      <trkpt lat="44.81321" lon="5.94814">
        <ele>945.4</ele>
        <time>2021-06-26T13:04:32Z</time>
      </trkpt>
      <trkpt lat="44.8131" lon="5.94825">
        <ele>944.8</ele>
        <time>2021-06-26T13:04:35Z</time>
      </trkpt>
      <trkpt lat="44.81302" lon="5.94835">
        <ele>944.8</ele>
        <time>2021-06-26T13:04:36Z</time>
      </trkpt>
      <trkpt lat="44.81281" lon="5.9486">
        <ele>943.8</ele>
        <time>2021-06-26T13:04:40Z</time>
      </trkpt>
      <trkpt lat="44.81275" lon="5.94867">
        <ele>943.6</ele>
        <time>2021-06-26T13:04:41Z</time>
      </trkpt>
      <trkpt lat="44.81263" lon="5.94884">
        <ele>942.6</ele>
        <time>2021-06-26T13:04:43Z</time>
      </trkpt>
      <trkpt lat="44.81245" lon="5.94912">
        <ele>941.4</ele>
        <time>2021-06-26T13:04:46Z</time>
      </trkpt>
      <trkpt lat="44.81238" lon="5.94921">
        <ele>941.2</ele>
        <time>2021-06-26T13:04:47Z</time>
      </trkpt>
      <trkpt lat="44.81232" lon="5.9493">
        <ele>940.2</ele>
        <time>2021-06-26T13:04:48Z</time>
      </trkpt>
      <trkpt lat="44.81217" lon="5.94944">
        <ele>939.6</ele>
        <time>2021-06-26T13:04:50Z</time>
      </trkpt>
      <trkpt lat="44.81208" lon="5.94948">
        <ele>939.4</ele>
        <time>2021-06-26T13:04:51Z</time>
      </trkpt>
      <trkpt lat="44.812" lon="5.9495">
        <ele>939.2</ele>
        <time>2021-06-26T13:04:52Z</time>
      </trkpt>
      <trkpt lat="44.81192" lon="5.94949">
        <ele>939.2</ele>
        <time>2021-06-26T13:04:54Z</time>
      </trkpt>
      <trkpt lat="44.81155" lon="5.9494">
        <ele>938.8</ele>
        <time>2021-06-26T13:04:58Z</time>
      </trkpt>
      <trkpt lat="44.81123" lon="5.94932">
        <ele>940</ele>
        <time>2021-06-26T13:05:04Z</time>
      </trkpt>
      <trkpt lat="44.81113" lon="5.94932">
        <ele>940</ele>
        <time>2021-06-26T13:05:05Z</time>
      </trkpt>
      <trkpt lat="44.81103" lon="5.94934">
        <ele>940.2</ele>
        <time>2021-06-26T13:05:07Z</time>
      </trkpt>
      <trkpt lat="44.81099" lon="5.94936">
        <ele>940.4</ele>
        <time>2021-06-26T13:05:08Z</time>
      </trkpt>
      <trkpt lat="44.8109" lon="5.94942">
        <ele>941.2</ele>
        <time>2021-06-26T13:05:10Z</time>
      </trkpt>
      <trkpt lat="44.81087" lon="5.94946">
        <ele>941.6</ele>
        <time>2021-06-26T13:05:11Z</time>
      </trkpt>
      <trkpt lat="44.81079" lon="5.94955">
        <ele>942.4</ele>
        <time>2021-06-26T13:05:13Z</time>
      </trkpt>
      <trkpt lat="44.81079" lon="5.94955">
        <ele>942.8</ele>
        <time>2021-06-26T13:05:14Z</time>
      </trkpt>
      <trkpt lat="44.81066" lon="5.94976">
        <ele>943.4</ele>
        <time>2021-06-26T13:05:17Z</time>
      </trkpt>
      <trkpt lat="44.81057" lon="5.94993">
        <ele>943.8</ele>
        <time>2021-06-26T13:05:20Z</time>
      </trkpt>
      <trkpt lat="44.81053" lon="5.94999">
        <ele>944</ele>
        <time>2021-06-26T13:05:21Z</time>
      </trkpt>
      <trkpt lat="44.81025" lon="5.95047">
        <ele>945</ele>
        <time>2021-06-26T13:05:29Z</time>
      </trkpt>
      <trkpt lat="44.81021" lon="5.95053">
        <ele>945.4</ele>
        <time>2021-06-26T13:05:30Z</time>
      </trkpt>
      <trkpt lat="44.81005" lon="5.95064">
        <ele>946</ele>
        <time>2021-06-26T13:05:33Z</time>
      </trkpt>
      <trkpt lat="44.80999" lon="5.95066">
        <ele>946.4</ele>
        <time>2021-06-26T13:05:35Z</time>
      </trkpt>
      <trkpt lat="44.80988" lon="5.95066">
        <ele>946.6</ele>
        <time>2021-06-26T13:05:36Z</time>
      </trkpt>
      <trkpt lat="44.80976" lon="5.95063">
        <ele>946.6</ele>
        <time>2021-06-26T13:05:38Z</time>
      </trkpt>
      <trkpt lat="44.80922" lon="5.95047">
        <ele>946.6</ele>
        <time>2021-06-26T13:05:47Z</time>
      </trkpt>
      <trkpt lat="44.80916" lon="5.95045">
        <ele>946.6</ele>
        <time>2021-06-26T13:05:48Z</time>
      </trkpt>
      <trkpt lat="44.80897" lon="5.95044">
        <ele>946.6</ele>
        <time>2021-06-26T13:05:51Z</time>
      </trkpt>
      <trkpt lat="44.80877" lon="5.95047">
        <ele>946.6</ele>
        <time>2021-06-26T13:05:54Z</time>
      </trkpt>
      <trkpt lat="44.80864" lon="5.95053">
        <ele>946.4</ele>
        <time>2021-06-26T13:05:56Z</time>
      </trkpt>
      <trkpt lat="44.80851" lon="5.95064">
        <ele>946.4</ele>
        <time>2021-06-26T13:05:58Z</time>
      </trkpt>
      <trkpt lat="44.80834" lon="5.95089">
        <ele>946</ele>
        <time>2021-06-26T13:06:01Z</time>
      </trkpt>
      <trkpt lat="44.80829" lon="5.95099">
        <ele>945.8</ele>
        <time>2021-06-26T13:06:02Z</time>
      </trkpt>
      <trkpt lat="44.80823" lon="5.95108">
        <ele>945.6</ele>
        <time>2021-06-26T13:06:03Z</time>
      </trkpt>
      <trkpt lat="44.80805" lon="5.95136">
        <ele>944</ele>
        <time>2021-06-26T13:06:06Z</time>
      </trkpt>
      <trkpt lat="44.80792" lon="5.95155">
        <ele>942.8</ele>
        <time>2021-06-26T13:06:08Z</time>
      </trkpt>
      <trkpt lat="44.80762" lon="5.95189">
        <ele>941.6</ele>
        <time>2021-06-26T13:06:12Z</time>
      </trkpt>
      <trkpt lat="44.80753" lon="5.95198">
        <ele>941.4</ele>
        <time>2021-06-26T13:06:13Z</time>
      </trkpt>
      <trkpt lat="44.80728" lon="5.95225">
        <ele>939.8</ele>
        <time>2021-06-26T13:06:16Z</time>
      </trkpt>
      <trkpt lat="44.80719" lon="5.95236">
        <ele>938.4</ele>
        <time>2021-06-26T13:06:17Z</time>
      </trkpt>
      <trkpt lat="44.80719" lon="5.95236">
        <ele>937.2</ele>
        <time>2021-06-26T13:06:18Z</time>
      </trkpt>
      <trkpt lat="44.80705" lon="5.9526">
        <ele>936.8</ele>
        <time>2021-06-26T13:06:19Z</time>
      </trkpt>
      <trkpt lat="44.80705" lon="5.9526">
        <ele>935.4</ele>
        <time>2021-06-26T13:06:20Z</time>
      </trkpt>
      <trkpt lat="44.80696" lon="5.9529">
        <ele>935</ele>
        <time>2021-06-26T13:06:21Z</time>
      </trkpt>
      <trkpt lat="44.80692" lon="5.95306">
        <ele>933.6</ele>
        <time>2021-06-26T13:06:22Z</time>
      </trkpt>
      <trkpt lat="44.80689" lon="5.95322">
        <ele>932.8</ele>
        <time>2021-06-26T13:06:23Z</time>
      </trkpt>
      <trkpt lat="44.80689" lon="5.95322">
        <ele>932</ele>
        <time>2021-06-26T13:06:24Z</time>
      </trkpt>
      <trkpt lat="44.8068" lon="5.9537">
        <ele>930.8</ele>
        <time>2021-06-26T13:06:26Z</time>
      </trkpt>
      <trkpt lat="44.80677" lon="5.95385">
        <ele>929.6</ele>
        <time>2021-06-26T13:06:27Z</time>
      </trkpt>
      <trkpt lat="44.80673" lon="5.954">
        <ele>929</ele>
        <time>2021-06-26T13:06:28Z</time>
      </trkpt>
      <trkpt lat="44.80668" lon="5.95413">
        <ele>928.4</ele>
        <time>2021-06-26T13:06:29Z</time>
      </trkpt>
      <trkpt lat="44.80646" lon="5.95438">
        <ele>928</ele>
        <time>2021-06-26T13:06:32Z</time>
      </trkpt>
      <trkpt lat="44.80622" lon="5.95437">
        <ele>928.2</ele>
        <time>2021-06-26T13:06:35Z</time>
      </trkpt>
      <trkpt lat="44.8059" lon="5.95441">
        <ele>929.6</ele>
        <time>2021-06-26T13:06:40Z</time>
      </trkpt>
      <trkpt lat="44.8058" lon="5.95444">
        <ele>930.6</ele>
        <time>2021-06-26T13:06:42Z</time>
      </trkpt>
      <trkpt lat="44.80572" lon="5.95449">
        <ele>931.8</ele>
        <time>2021-06-26T13:06:44Z</time>
      </trkpt>
      <trkpt lat="44.80568" lon="5.95451">
        <ele>932.4</ele>
        <time>2021-06-26T13:06:45Z</time>
      </trkpt>
      <trkpt lat="44.80565" lon="5.95453">
        <ele>932.6</ele>
        <time>2021-06-26T13:06:46Z</time>
      </trkpt>
      <trkpt lat="44.80558" lon="5.95459">
        <ele>932.8</ele>
        <time>2021-06-26T13:06:48Z</time>
      </trkpt>
      <trkpt lat="44.80551" lon="5.95466">
        <ele>933.6</ele>
        <time>2021-06-26T13:06:50Z</time>
      </trkpt>
      <trkpt lat="44.80546" lon="5.95474">
        <ele>934.8</ele>
        <time>2021-06-26T13:06:52Z</time>
      </trkpt>
      <trkpt lat="44.80539" lon="5.95485">
        <ele>936</ele>
        <time>2021-06-26T13:06:55Z</time>
      </trkpt>
      <trkpt lat="44.80536" lon="5.95493">
        <ele>936.4</ele>
        <time>2021-06-26T13:06:57Z</time>
      </trkpt>
      <trkpt lat="44.80533" lon="5.95511">
        <ele>937.6</ele>
        <time>2021-06-26T13:07:01Z</time>
      </trkpt>
      <trkpt lat="44.80534" lon="5.95521">
        <ele>938.2</ele>
        <time>2021-06-26T13:07:03Z</time>
      </trkpt>
      <trkpt lat="44.80534" lon="5.95526">
        <ele>938.8</ele>
        <time>2021-06-26T13:07:04Z</time>
      </trkpt>
      <trkpt lat="44.80538" lon="5.9554">
        <ele>940</ele>
        <time>2021-06-26T13:07:07Z</time>
      </trkpt>
      <trkpt lat="44.80541" lon="5.95548">
        <ele>940.4</ele>
        <time>2021-06-26T13:07:09Z</time>
      </trkpt>
      <trkpt lat="44.80548" lon="5.9557">
        <ele>941</ele>
        <time>2021-06-26T13:07:14Z</time>
      </trkpt>
      <trkpt lat="44.8055" lon="5.95579">
        <ele>942</ele>
        <time>2021-06-26T13:07:16Z</time>
      </trkpt>
      <trkpt lat="44.80551" lon="5.95588">
        <ele>942.4</ele>
        <time>2021-06-26T13:07:18Z</time>
      </trkpt>
      <trkpt lat="44.80549" lon="5.95607">
        <ele>943.2</ele>
        <time>2021-06-26T13:07:22Z</time>
      </trkpt>
      <trkpt lat="44.80545" lon="5.9562">
        <ele>943.6</ele>
        <time>2021-06-26T13:07:25Z</time>
      </trkpt>
      <trkpt lat="44.80539" lon="5.9563">
        <ele>944.2</ele>
        <time>2021-06-26T13:07:28Z</time>
      </trkpt>
      <trkpt lat="44.80533" lon="5.95635">
        <ele>944.8</ele>
        <time>2021-06-26T13:07:30Z</time>
      </trkpt>
      <trkpt lat="44.80521" lon="5.95641">
        <ele>946</ele>
        <time>2021-06-26T13:07:34Z</time>
      </trkpt>
      <trkpt lat="44.80518" lon="5.95643">
        <ele>946.2</ele>
        <time>2021-06-26T13:07:35Z</time>
      </trkpt>
      <trkpt lat="44.80505" lon="5.95647">
        <ele>947.6</ele>
        <time>2021-06-26T13:07:39Z</time>
      </trkpt>
      <trkpt lat="44.80488" lon="5.95652">
        <ele>948.8</ele>
        <time>2021-06-26T13:07:44Z</time>
      </trkpt>
      <trkpt lat="44.80485" lon="5.95653">
        <ele>948.8</ele>
        <time>2021-06-26T13:07:45Z</time>
      </trkpt>
      <trkpt lat="44.80463" lon="5.95656">
        <ele>950</ele>
        <time>2021-06-26T13:07:51Z</time>
      </trkpt>
      <trkpt lat="44.80443" lon="5.95661">
        <ele>951</ele>
        <time>2021-06-26T13:07:57Z</time>
      </trkpt>
      <trkpt lat="44.80439" lon="5.95661">
        <ele>951.2</ele>
        <time>2021-06-26T13:07:58Z</time>
      </trkpt>
      <trkpt lat="44.80426" lon="5.95665">
        <ele>951.8</ele>
        <time>2021-06-26T13:08:02Z</time>
      </trkpt>
      <trkpt lat="44.8042" lon="5.95668">
        <ele>952.6</ele>
        <time>2021-06-26T13:08:04Z</time>
      </trkpt>
      <trkpt lat="44.80413" lon="5.95672">
        <ele>953</ele>
        <time>2021-06-26T13:08:06Z</time>
      </trkpt>
      <trkpt lat="44.80403" lon="5.9568">
        <ele>953.6</ele>
        <time>2021-06-26T13:08:10Z</time>
      </trkpt>
      <trkpt lat="44.8039" lon="5.95693">
        <ele>954.6</ele>
        <time>2021-06-26T13:08:14Z</time>
      </trkpt>
      <trkpt lat="44.80385" lon="5.95699">
        <ele>955.2</ele>
        <time>2021-06-26T13:08:16Z</time>
      </trkpt>
      <trkpt lat="44.80374" lon="5.95719">
        <ele>956.6</ele>
        <time>2021-06-26T13:08:21Z</time>
      </trkpt>
      <trkpt lat="44.8037" lon="5.95728">
        <ele>957</ele>
        <time>2021-06-26T13:08:23Z</time>
      </trkpt>
      <trkpt lat="44.80362" lon="5.95746">
        <ele>957.8</ele>
        <time>2021-06-26T13:08:27Z</time>
      </trkpt>
      <trkpt lat="44.80354" lon="5.95771">
        <ele>958.2</ele>
        <time>2021-06-26T13:08:32Z</time>
      </trkpt>
      <trkpt lat="44.80345" lon="5.95795">
        <ele>958.8</ele>
        <time>2021-06-26T13:08:37Z</time>
      </trkpt>
      <trkpt lat="44.80335" lon="5.95827">
        <ele>960.4</ele>
        <time>2021-06-26T13:08:44Z</time>
      </trkpt>
      <trkpt lat="44.80324" lon="5.95867">
        <ele>961.4</ele>
        <time>2021-06-26T13:08:52Z</time>
      </trkpt>
      <trkpt lat="44.8032" lon="5.95883">
        <ele>961.8</ele>
        <time>2021-06-26T13:08:55Z</time>
      </trkpt>
      <trkpt lat="44.80318" lon="5.95904">
        <ele>962.8</ele>
        <time>2021-06-26T13:08:59Z</time>
      </trkpt>
      <trkpt lat="44.80315" lon="5.9593">
        <ele>963.8</ele>
        <time>2021-06-26T13:09:04Z</time>
      </trkpt>
      <trkpt lat="44.80315" lon="5.9593">
        <ele>964</ele>
        <time>2021-06-26T13:09:05Z</time>
      </trkpt>
      <trkpt lat="44.80315" lon="5.95974">
        <ele>965</ele>
        <time>2021-06-26T13:09:12Z</time>
      </trkpt>
      <trkpt lat="44.80317" lon="5.95986">
        <ele>965.4</ele>
        <time>2021-06-26T13:09:14Z</time>
      </trkpt>
      <trkpt lat="44.80317" lon="5.96021">
        <ele>966.2</ele>
        <time>2021-06-26T13:09:20Z</time>
      </trkpt>
      <trkpt lat="44.80316" lon="5.96026">
        <ele>966.2</ele>
        <time>2021-06-26T13:09:21Z</time>
      </trkpt>
      <trkpt lat="44.80313" lon="5.96052">
        <ele>967.6</ele>
        <time>2021-06-26T13:09:25Z</time>
      </trkpt>
      <trkpt lat="44.80307" lon="5.96085">
        <ele>968.2</ele>
        <time>2021-06-26T13:09:30Z</time>
      </trkpt>
      <trkpt lat="44.80292" lon="5.96152">
        <ele>968.2</ele>
        <time>2021-06-26T13:09:39Z</time>
      </trkpt>
      <trkpt lat="44.80276" lon="5.9619">
        <ele>967.4</ele>
        <time>2021-06-26T13:09:44Z</time>
      </trkpt>
      <trkpt lat="44.80259" lon="5.96222">
        <ele>966.4</ele>
        <time>2021-06-26T13:09:48Z</time>
      </trkpt>
      <trkpt lat="44.80249" lon="5.96238">
        <ele>966</ele>
        <time>2021-06-26T13:09:50Z</time>
      </trkpt>
      <trkpt lat="44.80239" lon="5.96255">
        <ele>965.4</ele>
        <time>2021-06-26T13:09:52Z</time>
      </trkpt>
      <trkpt lat="44.80221" lon="5.96275">
        <ele>963.8</ele>
        <time>2021-06-26T13:09:55Z</time>
      </trkpt>
      <trkpt lat="44.80215" lon="5.9628">
        <ele>963.4</ele>
        <time>2021-06-26T13:09:56Z</time>
      </trkpt>
      <trkpt lat="44.8021" lon="5.96285">
        <ele>962.6</ele>
        <time>2021-06-26T13:09:57Z</time>
      </trkpt>
      <trkpt lat="44.80199" lon="5.96296">
        <ele>961.2</ele>
        <time>2021-06-26T13:09:59Z</time>
      </trkpt>
      <trkpt lat="44.80187" lon="5.96308">
        <ele>960.4</ele>
        <time>2021-06-26T13:10:01Z</time>
      </trkpt>
      <trkpt lat="44.80182" lon="5.96315">
        <ele>959.6</ele>
        <time>2021-06-26T13:10:02Z</time>
      </trkpt>
      <trkpt lat="44.80172" lon="5.9633">
        <ele>959.2</ele>
        <time>2021-06-26T13:10:04Z</time>
      </trkpt>
      <trkpt lat="44.80163" lon="5.96352">
        <ele>957.6</ele>
        <time>2021-06-26T13:10:07Z</time>
      </trkpt>
      <trkpt lat="44.80157" lon="5.96375">
        <ele>956.6</ele>
        <time>2021-06-26T13:10:10Z</time>
      </trkpt>
      <trkpt lat="44.80155" lon="5.96382">
        <ele>956.4</ele>
        <time>2021-06-26T13:10:11Z</time>
      </trkpt>
      <trkpt lat="44.80153" lon="5.96396">
        <ele>955.4</ele>
        <time>2021-06-26T13:10:13Z</time>
      </trkpt>
      <trkpt lat="44.80154" lon="5.96402">
        <ele>955</ele>
        <time>2021-06-26T13:10:14Z</time>
      </trkpt>
      <trkpt lat="44.80155" lon="5.96407">
        <ele>954.8</ele>
        <time>2021-06-26T13:10:15Z</time>
      </trkpt>
      <trkpt lat="44.80157" lon="5.9641">
        <ele>954.4</ele>
        <time>2021-06-26T13:10:16Z</time>
      </trkpt>
      <trkpt lat="44.80161" lon="5.96414">
        <ele>953.6</ele>
        <time>2021-06-26T13:10:18Z</time>
      </trkpt>
      <trkpt lat="44.80162" lon="5.96415">
        <ele>953</ele>
        <time>2021-06-26T13:10:20Z</time>
      </trkpt>
      <trkpt lat="44.80162" lon="5.96415">
        <ele>952.8</ele>
        <time>2021-06-26T13:10:21Z</time>
      </trkpt>
      <trkpt lat="44.80166" lon="5.96416">
        <ele>952.4</ele>
        <time>2021-06-26T13:10:50Z</time>
      </trkpt>
      <trkpt lat="44.80175" lon="5.96416">
        <ele>952.4</ele>
        <time>2021-06-26T13:10:52Z</time>
      </trkpt>
      <trkpt lat="44.80179" lon="5.96417">
        <ele>952.2</ele>
        <time>2021-06-26T13:10:54Z</time>
      </trkpt>
      <trkpt lat="44.8019" lon="5.96426">
        <ele>952</ele>
        <time>2021-06-26T13:10:56Z</time>
      </trkpt>
      <trkpt lat="44.80202" lon="5.96447">
        <ele>952.2</ele>
        <time>2021-06-26T13:11:01Z</time>
      </trkpt>
      <trkpt lat="44.80209" lon="5.96464">
        <ele>953.4</ele>
        <time>2021-06-26T13:11:05Z</time>
      </trkpt>
      <trkpt lat="44.80217" lon="5.96483">
        <ele>954.6</ele>
        <time>2021-06-26T13:11:10Z</time>
      </trkpt>
      <trkpt lat="44.80222" lon="5.96499">
        <ele>956.4</ele>
        <time>2021-06-26T13:11:14Z</time>
      </trkpt>
      <trkpt lat="44.80227" lon="5.96514">
        <ele>957.4</ele>
        <time>2021-06-26T13:11:18Z</time>
      </trkpt>
      <trkpt lat="44.80228" lon="5.96518">
        <ele>957.8</ele>
        <time>2021-06-26T13:11:19Z</time>
      </trkpt>
      <trkpt lat="44.80231" lon="5.96529">
        <ele>958.6</ele>
        <time>2021-06-26T13:11:22Z</time>
      </trkpt>
      <trkpt lat="44.80235" lon="5.96551">
        <ele>959.8</ele>
        <time>2021-06-26T13:11:27Z</time>
      </trkpt>
      <trkpt lat="44.80236" lon="5.96569">
        <ele>961.4</ele>
        <time>2021-06-26T13:11:31Z</time>
      </trkpt>
      <trkpt lat="44.80239" lon="5.96602">
        <ele>962.4</ele>
        <time>2021-06-26T13:11:38Z</time>
      </trkpt>
      <trkpt lat="44.80247" lon="5.9664">
        <ele>963.6</ele>
        <time>2021-06-26T13:11:46Z</time>
      </trkpt>
      <trkpt lat="44.80257" lon="5.96676">
        <ele>964.6</ele>
        <time>2021-06-26T13:11:54Z</time>
      </trkpt>
      <trkpt lat="44.80264" lon="5.96705">
        <ele>966</ele>
        <time>2021-06-26T13:12:01Z</time>
      </trkpt>
      <trkpt lat="44.80266" lon="5.96713">
        <ele>966.4</ele>
        <time>2021-06-26T13:12:03Z</time>
      </trkpt>
      <trkpt lat="44.80268" lon="5.96725">
        <ele>967.4</ele>
        <time>2021-06-26T13:12:06Z</time>
      </trkpt>
      <trkpt lat="44.80272" lon="5.96744">
        <ele>968.6</ele>
        <time>2021-06-26T13:12:11Z</time>
      </trkpt>
      <trkpt lat="44.80279" lon="5.96771">
        <ele>969.8</ele>
        <time>2021-06-26T13:12:18Z</time>
      </trkpt>
      <trkpt lat="44.80285" lon="5.96786">
        <ele>970.8</ele>
        <time>2021-06-26T13:12:22Z</time>
      </trkpt>
      <trkpt lat="44.80287" lon="5.96795">
        <ele>971</ele>
        <time>2021-06-26T13:12:24Z</time>
      </trkpt>
      <trkpt lat="44.80292" lon="5.96816">
        <ele>971.8</ele>
        <time>2021-06-26T13:12:29Z</time>
      </trkpt>
      <trkpt lat="44.80296" lon="5.9683">
        <ele>972.2</ele>
        <time>2021-06-26T13:12:32Z</time>
      </trkpt>
      <trkpt lat="44.80302" lon="5.96853">
        <ele>973.2</ele>
        <time>2021-06-26T13:12:37Z</time>
      </trkpt>
      <trkpt lat="44.80303" lon="5.96858">
        <ele>973.2</ele>
        <time>2021-06-26T13:12:38Z</time>
      </trkpt>
      <trkpt lat="44.80313" lon="5.96903">
        <ele>974.4</ele>
        <time>2021-06-26T13:12:46Z</time>
      </trkpt>
      <trkpt lat="44.80316" lon="5.96914">
        <ele>974.4</ele>
        <time>2021-06-26T13:12:48Z</time>
      </trkpt>
      <trkpt lat="44.8032" lon="5.96944">
        <ele>974.6</ele>
        <time>2021-06-26T13:12:53Z</time>
      </trkpt>
      <trkpt lat="44.80323" lon="5.96994">
        <ele>975.4</ele>
        <time>2021-06-26T13:13:02Z</time>
      </trkpt>
      <trkpt lat="44.80323" lon="5.97005">
        <ele>975.8</ele>
        <time>2021-06-26T13:13:04Z</time>
      </trkpt>
      <trkpt lat="44.80323" lon="5.9704">
        <ele>976.4</ele>
        <time>2021-06-26T13:13:11Z</time>
      </trkpt>
      <trkpt lat="44.80323" lon="5.97054">
        <ele>976.8</ele>
        <time>2021-06-26T13:13:14Z</time>
      </trkpt>
      <trkpt lat="44.80322" lon="5.97082">
        <ele>977.6</ele>
        <time>2021-06-26T13:13:20Z</time>
      </trkpt>
      <trkpt lat="44.80322" lon="5.97096">
        <ele>978.2</ele>
        <time>2021-06-26T13:13:23Z</time>
      </trkpt>
      <trkpt lat="44.80322" lon="5.97122">
        <ele>978.8</ele>
        <time>2021-06-26T13:13:29Z</time>
      </trkpt>
      <trkpt lat="44.80322" lon="5.97131">
        <ele>979.2</ele>
        <time>2021-06-26T13:13:31Z</time>
      </trkpt>
      <trkpt lat="44.80323" lon="5.97153">
        <ele>980</ele>
        <time>2021-06-26T13:13:36Z</time>
      </trkpt>
      <trkpt lat="44.80325" lon="5.97167">
        <ele>980.4</ele>
        <time>2021-06-26T13:13:39Z</time>
      </trkpt>
      <trkpt lat="44.80332" lon="5.97194">
        <ele>981.6</ele>
        <time>2021-06-26T13:13:46Z</time>
      </trkpt>
      <trkpt lat="44.80337" lon="5.9721">
        <ele>982.6</ele>
        <time>2021-06-26T13:13:50Z</time>
      </trkpt>
      <trkpt lat="44.8034" lon="5.97222">
        <ele>983.8</ele>
        <time>2021-06-26T13:13:53Z</time>
      </trkpt>
      <trkpt lat="44.80341" lon="5.97227">
        <ele>984</ele>
        <time>2021-06-26T13:13:54Z</time>
      </trkpt>
      <trkpt lat="44.80349" lon="5.97253">
        <ele>984.8</ele>
        <time>2021-06-26T13:14:00Z</time>
      </trkpt>
      <trkpt lat="44.80352" lon="5.97261">
        <ele>985.2</ele>
        <time>2021-06-26T13:14:02Z</time>
      </trkpt>
      <trkpt lat="44.80359" lon="5.97281">
        <ele>985.8</ele>
        <time>2021-06-26T13:14:07Z</time>
      </trkpt>
      <trkpt lat="44.80363" lon="5.97293">
        <ele>986.8</ele>
        <time>2021-06-26T13:14:10Z</time>
      </trkpt>
      <trkpt lat="44.80367" lon="5.97306">
        <ele>987.2</ele>
        <time>2021-06-26T13:14:13Z</time>
      </trkpt>
      <trkpt lat="44.80375" lon="5.97335">
        <ele>987.6</ele>
        <time>2021-06-26T13:14:19Z</time>
      </trkpt>
      <trkpt lat="44.80387" lon="5.97384">
        <ele>988.2</ele>
        <time>2021-06-26T13:14:29Z</time>
      </trkpt>
      <trkpt lat="44.80387" lon="5.9739">
        <ele>988.4</ele>
        <time>2021-06-26T13:14:30Z</time>
      </trkpt>
      <trkpt lat="44.8039" lon="5.97419">
        <ele>988.6</ele>
        <time>2021-06-26T13:14:35Z</time>
      </trkpt>
      <trkpt lat="44.80385" lon="5.97459">
        <ele>989.2</ele>
        <time>2021-06-26T13:14:43Z</time>
      </trkpt>
      <trkpt lat="44.80382" lon="5.97469">
        <ele>989.4</ele>
        <time>2021-06-26T13:14:45Z</time>
      </trkpt>
      <trkpt lat="44.80379" lon="5.97497">
        <ele>990.2</ele>
        <time>2021-06-26T13:14:51Z</time>
      </trkpt>
      <trkpt lat="44.80379" lon="5.97505">
        <ele>990.4</ele>
        <time>2021-06-26T13:14:53Z</time>
      </trkpt>
      <trkpt lat="44.80377" lon="5.97512">
        <ele>990.4</ele>
        <time>2021-06-26T13:14:55Z</time>
      </trkpt>
      <trkpt lat="44.80371" lon="5.97552">
        <ele>989.8</ele>
        <time>2021-06-26T13:15:03Z</time>
      </trkpt>
      <trkpt lat="44.80367" lon="5.97564">
        <ele>989.6</ele>
        <time>2021-06-26T13:15:05Z</time>
      </trkpt>
      <trkpt lat="44.80359" lon="5.97575">
        <ele>989.4</ele>
        <time>2021-06-26T13:15:07Z</time>
      </trkpt>
      <trkpt lat="44.80345" lon="5.97597">
        <ele>989.2</ele>
        <time>2021-06-26T13:15:10Z</time>
      </trkpt>
      <trkpt lat="44.80341" lon="5.97607">
        <ele>988.8</ele>
        <time>2021-06-26T13:15:11Z</time>
      </trkpt>
      <trkpt lat="44.80332" lon="5.97628">
        <ele>987.6</ele>
        <time>2021-06-26T13:15:13Z</time>
      </trkpt>
      <trkpt lat="44.80324" lon="5.9765">
        <ele>986.6</ele>
        <time>2021-06-26T13:15:15Z</time>
      </trkpt>
      <trkpt lat="44.8032" lon="5.97661">
        <ele>986.2</ele>
        <time>2021-06-26T13:15:16Z</time>
      </trkpt>
      <trkpt lat="44.80316" lon="5.97673">
        <ele>985.4</ele>
        <time>2021-06-26T13:15:17Z</time>
      </trkpt>
      <trkpt lat="44.80305" lon="5.9771">
        <ele>984</ele>
        <time>2021-06-26T13:15:20Z</time>
      </trkpt>
      <trkpt lat="44.80302" lon="5.97723">
        <ele>984</ele>
        <time>2021-06-26T13:15:21Z</time>
      </trkpt>
      <trkpt lat="44.80298" lon="5.97748">
        <ele>983</ele>
        <time>2021-06-26T13:15:23Z</time>
      </trkpt>
      <trkpt lat="44.80297" lon="5.97772">
        <ele>982.2</ele>
        <time>2021-06-26T13:15:25Z</time>
      </trkpt>
      <trkpt lat="44.80296" lon="5.97783">
        <ele>981.8</ele>
        <time>2021-06-26T13:15:26Z</time>
      </trkpt>
      <trkpt lat="44.80291" lon="5.97822">
        <ele>981.6</ele>
        <time>2021-06-26T13:15:30Z</time>
      </trkpt>
      <trkpt lat="44.80287" lon="5.97846">
        <ele>981.6</ele>
        <time>2021-06-26T13:15:33Z</time>
      </trkpt>
      <trkpt lat="44.80284" lon="5.9786">
        <ele>981.8</ele>
        <time>2021-06-26T13:15:35Z</time>
      </trkpt>
      <trkpt lat="44.80281" lon="5.97875">
        <ele>982</ele>
        <time>2021-06-26T13:15:37Z</time>
      </trkpt>
      <trkpt lat="44.80274" lon="5.97897">
        <ele>982.4</ele>
        <time>2021-06-26T13:15:40Z</time>
      </trkpt>
      <trkpt lat="44.80252" lon="5.97947">
        <ele>981.8</ele>
        <time>2021-06-26T13:15:46Z</time>
      </trkpt>
      <trkpt lat="44.80235" lon="5.97987">
        <ele>980</ele>
        <time>2021-06-26T13:15:50Z</time>
      </trkpt>
      <trkpt lat="44.80227" lon="5.98005">
        <ele>979.2</ele>
        <time>2021-06-26T13:15:52Z</time>
      </trkpt>
      <trkpt lat="44.80223" lon="5.98014">
        <ele>978.8</ele>
        <time>2021-06-26T13:15:53Z</time>
      </trkpt>
      <trkpt lat="44.80207" lon="5.98044">
        <ele>978.6</ele>
        <time>2021-06-26T13:15:57Z</time>
      </trkpt>
      <trkpt lat="44.80188" lon="5.9807">
        <ele>979.2</ele>
        <time>2021-06-26T13:16:02Z</time>
      </trkpt>
      <trkpt lat="44.80185" lon="5.98074">
        <ele>979.2</ele>
        <time>2021-06-26T13:16:03Z</time>
      </trkpt>
      <trkpt lat="44.8018" lon="5.9808">
        <ele>980.2</ele>
        <time>2021-06-26T13:16:05Z</time>
      </trkpt>
      <trkpt lat="44.80177" lon="5.98087">
        <ele>980.6</ele>
        <time>2021-06-26T13:16:07Z</time>
      </trkpt>
      <trkpt lat="44.80171" lon="5.98095">
        <ele>981.2</ele>
        <time>2021-06-26T13:16:10Z</time>
      </trkpt>
      <trkpt lat="44.8017" lon="5.98097">
        <ele>981.8</ele>
        <time>2021-06-26T13:16:11Z</time>
      </trkpt>
      <trkpt lat="44.80169" lon="5.98098">
        <ele>982.4</ele>
        <time>2021-06-26T13:16:12Z</time>
      </trkpt>
      <trkpt lat="44.80169" lon="5.98098">
        <ele>982.4</ele>
        <time>2021-06-26T13:16:13Z</time>
      </trkpt>
      <trkpt lat="44.80168" lon="5.98101">
        <ele>983</ele>
        <time>2021-06-26T13:16:46Z</time>
      </trkpt>
      <trkpt lat="44.80167" lon="5.98113">
        <ele>983</ele>
        <time>2021-06-26T13:16:49Z</time>
      </trkpt>
      <trkpt lat="44.80166" lon="5.98119">
        <ele>983</ele>
        <time>2021-06-26T13:16:51Z</time>
      </trkpt>
      <trkpt lat="44.80166" lon="5.9814">
        <ele>983.2</ele>
        <time>2021-06-26T13:16:55Z</time>
      </trkpt>
      <trkpt lat="44.80167" lon="5.98147">
        <ele>983</ele>
        <time>2021-06-26T13:16:56Z</time>
      </trkpt>
      <trkpt lat="44.8017" lon="5.98183">
        <ele>982.6</ele>
        <time>2021-06-26T13:17:00Z</time>
      </trkpt>
      <trkpt lat="44.80169" lon="5.98191">
        <ele>982.4</ele>
        <time>2021-06-26T13:17:01Z</time>
      </trkpt>
      <trkpt lat="44.80166" lon="5.98206">
        <ele>981.8</ele>
        <time>2021-06-26T13:17:03Z</time>
      </trkpt>
      <trkpt lat="44.80163" lon="5.98216">
        <ele>981.6</ele>
        <time>2021-06-26T13:17:05Z</time>
      </trkpt>
      <trkpt lat="44.80158" lon="5.98229">
        <ele>981.8</ele>
        <time>2021-06-26T13:17:08Z</time>
      </trkpt>
      <trkpt lat="44.80147" lon="5.9825">
        <ele>983</ele>
        <time>2021-06-26T13:17:13Z</time>
      </trkpt>
      <trkpt lat="44.80142" lon="5.98258">
        <ele>983.6</ele>
        <time>2021-06-26T13:17:15Z</time>
      </trkpt>
      <trkpt lat="44.80135" lon="5.98266">
        <ele>984</ele>
        <time>2021-06-26T13:17:17Z</time>
      </trkpt>
      <trkpt lat="44.80128" lon="5.98274">
        <ele>984.2</ele>
        <time>2021-06-26T13:17:19Z</time>
      </trkpt>
      <trkpt lat="44.80107" lon="5.98285">
        <ele>985</ele>
        <time>2021-06-26T13:17:25Z</time>
      </trkpt>
      <trkpt lat="44.80105" lon="5.98286">
        <ele>985.2</ele>
        <time>2021-06-26T13:17:26Z</time>
      </trkpt>
      <trkpt lat="44.80097" lon="5.98292">
        <ele>986.4</ele>
        <time>2021-06-26T13:17:30Z</time>
      </trkpt>
      <trkpt lat="44.80095" lon="5.98294">
        <ele>987</ele>
        <time>2021-06-26T13:17:31Z</time>
      </trkpt>
      <trkpt lat="44.80093" lon="5.98295">
        <ele>987.4</ele>
        <time>2021-06-26T13:17:32Z</time>
      </trkpt>
      <trkpt lat="44.80086" lon="5.98299">
        <ele>988.4</ele>
        <time>2021-06-26T13:17:35Z</time>
      </trkpt>
      <trkpt lat="44.8008" lon="5.98303">
        <ele>989</ele>
        <time>2021-06-26T13:17:38Z</time>
      </trkpt>
      <trkpt lat="44.80075" lon="5.98303">
        <ele>989.4</ele>
        <time>2021-06-26T13:17:40Z</time>
      </trkpt>
      <trkpt lat="44.80067" lon="5.98302">
        <ele>990.6</ele>
        <time>2021-06-26T13:17:43Z</time>
      </trkpt>
      <trkpt lat="44.80056" lon="5.98299">
        <ele>991.4</ele>
        <time>2021-06-26T13:17:47Z</time>
      </trkpt>
      <trkpt lat="44.80053" lon="5.98298">
        <ele>991.8</ele>
        <time>2021-06-26T13:17:48Z</time>
      </trkpt>
      <trkpt lat="44.80024" lon="5.98293">
        <ele>992.2</ele>
        <time>2021-06-26T13:17:56Z</time>
      </trkpt>
      <trkpt lat="44.80007" lon="5.98298">
        <ele>992.6</ele>
        <time>2021-06-26T13:18:00Z</time>
      </trkpt>
      <trkpt lat="44.79999" lon="5.98303">
        <ele>992.6</ele>
        <time>2021-06-26T13:18:02Z</time>
      </trkpt>
      <trkpt lat="44.79991" lon="5.9831">
        <ele>992.8</ele>
        <time>2021-06-26T13:18:04Z</time>
      </trkpt>
      <trkpt lat="44.79984" lon="5.98316">
        <ele>993</ele>
        <time>2021-06-26T13:18:06Z</time>
      </trkpt>
      <trkpt lat="44.79976" lon="5.98323">
        <ele>993.4</ele>
        <time>2021-06-26T13:18:08Z</time>
      </trkpt>
      <trkpt lat="44.79945" lon="5.98352">
        <ele>993.8</ele>
        <time>2021-06-26T13:18:16Z</time>
      </trkpt>
      <trkpt lat="44.79913" lon="5.9838">
        <ele>993.6</ele>
        <time>2021-06-26T13:18:23Z</time>
      </trkpt>
      <trkpt lat="44.79878" lon="5.98405">
        <ele>992</ele>
        <time>2021-06-26T13:18:29Z</time>
      </trkpt>
      <trkpt lat="44.79872" lon="5.98409">
        <ele>991.8</ele>
        <time>2021-06-26T13:18:30Z</time>
      </trkpt>
      <trkpt lat="44.79835" lon="5.9844">
        <ele>991</ele>
        <time>2021-06-26T13:18:36Z</time>
      </trkpt>
      <trkpt lat="44.79829" lon="5.98447">
        <ele>990.6</ele>
        <time>2021-06-26T13:18:37Z</time>
      </trkpt>
      <trkpt lat="44.79805" lon="5.98477">
        <ele>989.6</ele>
        <time>2021-06-26T13:18:41Z</time>
      </trkpt>
      <trkpt lat="44.79799" lon="5.98485">
        <ele>989.6</ele>
        <time>2021-06-26T13:18:42Z</time>
      </trkpt>
      <trkpt lat="44.7978" lon="5.98508">
        <ele>988.6</ele>
        <time>2021-06-26T13:18:45Z</time>
      </trkpt>
      <trkpt lat="44.79766" lon="5.98524">
        <ele>988.4</ele>
        <time>2021-06-26T13:18:47Z</time>
      </trkpt>
      <trkpt lat="44.79747" lon="5.98549">
        <ele>987.6</ele>
        <time>2021-06-26T13:18:50Z</time>
      </trkpt>
      <trkpt lat="44.79741" lon="5.98558">
        <ele>987.2</ele>
        <time>2021-06-26T13:18:51Z</time>
      </trkpt>
      <trkpt lat="44.79736" lon="5.98567">
        <ele>987</ele>
        <time>2021-06-26T13:18:52Z</time>
      </trkpt>
      <trkpt lat="44.79722" lon="5.98605">
        <ele>987.2</ele>
        <time>2021-06-26T13:18:56Z</time>
      </trkpt>
      <trkpt lat="44.79715" lon="5.98634">
        <ele>987.8</ele>
        <time>2021-06-26T13:19:00Z</time>
      </trkpt>
      <trkpt lat="44.7971" lon="5.98651">
        <ele>989</ele>
        <time>2021-06-26T13:19:03Z</time>
      </trkpt>
      <trkpt lat="44.79709" lon="5.98656">
        <ele>990</ele>
        <time>2021-06-26T13:19:04Z</time>
      </trkpt>
      <trkpt lat="44.79707" lon="5.98665">
        <ele>991.4</ele>
        <time>2021-06-26T13:19:06Z</time>
      </trkpt>
      <trkpt lat="44.797" lon="5.98686">
        <ele>992.8</ele>
        <time>2021-06-26T13:19:11Z</time>
      </trkpt>
      <trkpt lat="44.79697" lon="5.98695">
        <ele>993.6</ele>
        <time>2021-06-26T13:19:13Z</time>
      </trkpt>
      <trkpt lat="44.79696" lon="5.98699">
        <ele>994.2</ele>
        <time>2021-06-26T13:19:14Z</time>
      </trkpt>
      <trkpt lat="44.7969" lon="5.98716">
        <ele>995.4</ele>
        <time>2021-06-26T13:19:19Z</time>
      </trkpt>
      <trkpt lat="44.79687" lon="5.98727">
        <ele>996.2</ele>
        <time>2021-06-26T13:19:22Z</time>
      </trkpt>
      <trkpt lat="44.79686" lon="5.98731">
        <ele>996.8</ele>
        <time>2021-06-26T13:19:23Z</time>
      </trkpt>
      <trkpt lat="44.79682" lon="5.9875">
        <ele>998</ele>
        <time>2021-06-26T13:19:28Z</time>
      </trkpt>
      <trkpt lat="44.7968" lon="5.98757">
        <ele>998.8</ele>
        <time>2021-06-26T13:19:30Z</time>
      </trkpt>
      <trkpt lat="44.79678" lon="5.98765">
        <ele>999.4</ele>
        <time>2021-06-26T13:19:32Z</time>
      </trkpt>
      <trkpt lat="44.79675" lon="5.98784">
        <ele>1001</ele>
        <time>2021-06-26T13:19:37Z</time>
      </trkpt>
      <trkpt lat="44.79673" lon="5.98795">
        <ele>1002.2</ele>
        <time>2021-06-26T13:19:40Z</time>
      </trkpt>
      <trkpt lat="44.79671" lon="5.98816">
        <ele>1003.2</ele>
        <time>2021-06-26T13:19:45Z</time>
      </trkpt>
      <trkpt lat="44.7967" lon="5.98842">
        <ele>1004.2</ele>
        <time>2021-06-26T13:19:51Z</time>
      </trkpt>
      <trkpt lat="44.79669" lon="5.98851">
        <ele>1004.6</ele>
        <time>2021-06-26T13:19:53Z</time>
      </trkpt>
      <trkpt lat="44.79663" lon="5.98888">
        <ele>1005.2</ele>
        <time>2021-06-26T13:20:01Z</time>
      </trkpt>
      <trkpt lat="44.79661" lon="5.98897">
        <ele>1005.4</ele>
        <time>2021-06-26T13:20:03Z</time>
      </trkpt>
      <trkpt lat="44.79657" lon="5.98938">
        <ele>1006.4</ele>
        <time>2021-06-26T13:20:11Z</time>
      </trkpt>
      <trkpt lat="44.79657" lon="5.98944">
        <ele>1006.4</ele>
        <time>2021-06-26T13:20:12Z</time>
      </trkpt>
      <trkpt lat="44.79657" lon="5.98974">
        <ele>1007.6</ele>
        <time>2021-06-26T13:20:17Z</time>
      </trkpt>
      <trkpt lat="44.79658" lon="5.98987">
        <ele>1007.8</ele>
        <time>2021-06-26T13:20:19Z</time>
      </trkpt>
      <trkpt lat="44.79661" lon="5.99039">
        <ele>1008.4</ele>
        <time>2021-06-26T13:20:27Z</time>
      </trkpt>
      <trkpt lat="44.79661" lon="5.99051">
        <ele>1008.8</ele>
        <time>2021-06-26T13:20:29Z</time>
      </trkpt>
      <trkpt lat="44.7966" lon="5.99092">
        <ele>1009.8</ele>
        <time>2021-06-26T13:20:36Z</time>
      </trkpt>
      <trkpt lat="44.7966" lon="5.99111">
        <ele>1011</ele>
        <time>2021-06-26T13:20:40Z</time>
      </trkpt>
      <trkpt lat="44.79659" lon="5.99127">
        <ele>1012</ele>
        <time>2021-06-26T13:20:43Z</time>
      </trkpt>
      <trkpt lat="44.79659" lon="5.99132">
        <ele>1012.4</ele>
        <time>2021-06-26T13:20:44Z</time>
      </trkpt>
      <trkpt lat="44.79658" lon="5.99142">
        <ele>1013</ele>
        <time>2021-06-26T13:20:46Z</time>
      </trkpt>
      <trkpt lat="44.79657" lon="5.99162">
        <ele>1014.4</ele>
        <time>2021-06-26T13:20:50Z</time>
      </trkpt>
      <trkpt lat="44.79657" lon="5.99189">
        <ele>1015.4</ele>
        <time>2021-06-26T13:20:55Z</time>
      </trkpt>
      <trkpt lat="44.79659" lon="5.99229">
        <ele>1016.8</ele>
        <time>2021-06-26T13:21:02Z</time>
      </trkpt>
      <trkpt lat="44.79659" lon="5.99234">
        <ele>1016.8</ele>
        <time>2021-06-26T13:21:03Z</time>
      </trkpt>
      <trkpt lat="44.79655" lon="5.99263">
        <ele>1018</ele>
        <time>2021-06-26T13:21:09Z</time>
      </trkpt>
      <trkpt lat="44.79653" lon="5.99272">
        <ele>1018.4</ele>
        <time>2021-06-26T13:21:11Z</time>
      </trkpt>
      <trkpt lat="44.7965" lon="5.99298">
        <ele>1019</ele>
        <time>2021-06-26T13:21:17Z</time>
      </trkpt>
      <trkpt lat="44.79648" lon="5.9931">
        <ele>1019.8</ele>
        <time>2021-06-26T13:21:20Z</time>
      </trkpt>
      <trkpt lat="44.79647" lon="5.99318">
        <ele>1020.4</ele>
        <time>2021-06-26T13:21:22Z</time>
      </trkpt>
      <trkpt lat="44.79645" lon="5.99338">
        <ele>1021.4</ele>
        <time>2021-06-26T13:21:27Z</time>
      </trkpt>
      <trkpt lat="44.79645" lon="5.99345">
        <ele>1022</ele>
        <time>2021-06-26T13:21:29Z</time>
      </trkpt>
      <trkpt lat="44.79643" lon="5.99357">
        <ele>1022.8</ele>
        <time>2021-06-26T13:21:32Z</time>
      </trkpt>
      <trkpt lat="44.7964" lon="5.99372">
        <ele>1023.8</ele>
        <time>2021-06-26T13:21:36Z</time>
      </trkpt>
      <trkpt lat="44.79639" lon="5.99378">
        <ele>1024.2</ele>
        <time>2021-06-26T13:21:38Z</time>
      </trkpt>
      <trkpt lat="44.79636" lon="5.99389">
        <ele>1025.2</ele>
        <time>2021-06-26T13:21:41Z</time>
      </trkpt>
      <trkpt lat="44.79632" lon="5.99411">
        <ele>1026</ele>
        <time>2021-06-26T13:21:47Z</time>
      </trkpt>
      <trkpt lat="44.79631" lon="5.99415">
        <ele>1026.2</ele>
        <time>2021-06-26T13:21:48Z</time>
      </trkpt>
      <trkpt lat="44.79629" lon="5.99431">
        <ele>1027.4</ele>
        <time>2021-06-26T13:21:52Z</time>
      </trkpt>
      <trkpt lat="44.79627" lon="5.99447">
        <ele>1028.2</ele>
        <time>2021-06-26T13:21:56Z</time>
      </trkpt>
      <trkpt lat="44.79626" lon="5.9945">
        <ele>1028.4</ele>
        <time>2021-06-26T13:21:57Z</time>
      </trkpt>
      <trkpt lat="44.79623" lon="5.99471">
        <ele>1029.8</ele>
        <time>2021-06-26T13:22:03Z</time>
      </trkpt>
      <trkpt lat="44.79622" lon="5.99475">
        <ele>1030</ele>
        <time>2021-06-26T13:22:04Z</time>
      </trkpt>
      <trkpt lat="44.79619" lon="5.99495">
        <ele>1030.8</ele>
        <time>2021-06-26T13:22:10Z</time>
      </trkpt>
      <trkpt lat="44.79617" lon="5.99509">
        <ele>1032</ele>
        <time>2021-06-26T13:22:14Z</time>
      </trkpt>
      <trkpt lat="44.79616" lon="5.99529">
        <ele>1033.2</ele>
        <time>2021-06-26T13:22:20Z</time>
      </trkpt>
      <trkpt lat="44.79616" lon="5.9954">
        <ele>1033.6</ele>
        <time>2021-06-26T13:22:23Z</time>
      </trkpt>
      <trkpt lat="44.79616" lon="5.99551">
        <ele>1034.4</ele>
        <time>2021-06-26T13:22:26Z</time>
      </trkpt>
      <trkpt lat="44.7962" lon="5.99583">
        <ele>1035.4</ele>
        <time>2021-06-26T13:22:34Z</time>
      </trkpt>
      <trkpt lat="44.7962" lon="5.99587">
        <ele>1035.4</ele>
        <time>2021-06-26T13:22:35Z</time>
      </trkpt>
      <trkpt lat="44.79626" lon="5.99616">
        <ele>1036.6</ele>
        <time>2021-06-26T13:22:42Z</time>
      </trkpt>
      <trkpt lat="44.79634" lon="5.99651">
        <ele>1036.4</ele>
        <time>2021-06-26T13:22:49Z</time>
      </trkpt>
      <trkpt lat="44.79641" lon="5.997">
        <ele>1036</ele>
        <time>2021-06-26T13:22:57Z</time>
      </trkpt>
      <trkpt lat="44.79643" lon="5.99715">
        <ele>1035.8</ele>
        <time>2021-06-26T13:22:59Z</time>
      </trkpt>
      <trkpt lat="44.79646" lon="5.99753">
        <ele>1035.2</ele>
        <time>2021-06-26T13:23:04Z</time>
      </trkpt>
      <trkpt lat="44.7965" lon="5.99828">
        <ele>1035.8</ele>
        <time>2021-06-26T13:23:14Z</time>
      </trkpt>
      <trkpt lat="44.79653" lon="5.99887">
        <ele>1036.8</ele>
        <time>2021-06-26T13:23:22Z</time>
      </trkpt>
      <trkpt lat="44.79653" lon="5.99894">
        <ele>1036.8</ele>
        <time>2021-06-26T13:23:23Z</time>
      </trkpt>
      <trkpt lat="44.79657" lon="5.9992">
        <ele>1037.4</ele>
        <time>2021-06-26T13:23:27Z</time>
      </trkpt>
      <trkpt lat="44.7966" lon="5.9993">
        <ele>1037.6</ele>
        <time>2021-06-26T13:23:29Z</time>
      </trkpt>
      <trkpt lat="44.79665" lon="5.99943">
        <ele>1037.8</ele>
        <time>2021-06-26T13:23:32Z</time>
      </trkpt>
      <trkpt lat="44.79667" lon="5.99948">
        <ele>1038.2</ele>
        <time>2021-06-26T13:23:33Z</time>
      </trkpt>
      <trkpt lat="44.79672" lon="5.99957">
        <ele>1038.4</ele>
        <time>2021-06-26T13:23:35Z</time>
      </trkpt>
      <trkpt lat="44.79688" lon="5.99986">
        <ele>1039.4</ele>
        <time>2021-06-26T13:23:41Z</time>
      </trkpt>
      <trkpt lat="44.79691" lon="5.9999">
        <ele>1039.4</ele>
        <time>2021-06-26T13:23:42Z</time>
      </trkpt>
      <trkpt lat="44.79696" lon="5.99999">
        <ele>1039.6</ele>
        <time>2021-06-26T13:23:44Z</time>
      </trkpt>
      <trkpt lat="44.7972" lon="6.00053">
        <ele>1039</ele>
        <time>2021-06-26T13:23:53Z</time>
      </trkpt>
      <trkpt lat="44.79738" lon="6.00096">
        <ele>1038.4</ele>
        <time>2021-06-26T13:23:58Z</time>
      </trkpt>
      <trkpt lat="44.79743" lon="6.00106">
        <ele>1038.2</ele>
        <time>2021-06-26T13:23:59Z</time>
      </trkpt>
      <trkpt lat="44.79758" lon="6.0014">
        <ele>1036.8</ele>
        <time>2021-06-26T13:24:02Z</time>
      </trkpt>
      <trkpt lat="44.79763" lon="6.00152">
        <ele>1036.6</ele>
        <time>2021-06-26T13:24:03Z</time>
      </trkpt>
      <trkpt lat="44.79774" lon="6.00178">
        <ele>1035.8</ele>
        <time>2021-06-26T13:24:05Z</time>
      </trkpt>
      <trkpt lat="44.79782" lon="6.00205">
        <ele>1034.4</ele>
        <time>2021-06-26T13:24:07Z</time>
      </trkpt>
      <trkpt lat="44.79786" lon="6.00219">
        <ele>1033.4</ele>
        <time>2021-06-26T13:24:08Z</time>
      </trkpt>
      <trkpt lat="44.79788" lon="6.00232">
        <ele>1032.4</ele>
        <time>2021-06-26T13:24:09Z</time>
      </trkpt>
      <trkpt lat="44.79789" lon="6.00246">
        <ele>1032.2</ele>
        <time>2021-06-26T13:24:10Z</time>
      </trkpt>
      <trkpt lat="44.79787" lon="6.00258">
        <ele>1031.6</ele>
        <time>2021-06-26T13:24:11Z</time>
      </trkpt>
      <trkpt lat="44.79778" lon="6.00279">
        <ele>1031</ele>
        <time>2021-06-26T13:24:13Z</time>
      </trkpt>
      <trkpt lat="44.79772" lon="6.00286">
        <ele>1030.8</ele>
        <time>2021-06-26T13:24:14Z</time>
      </trkpt>
      <trkpt lat="44.79746" lon="6.00306">
        <ele>1030</ele>
        <time>2021-06-26T13:24:18Z</time>
      </trkpt>
      <trkpt lat="44.79739" lon="6.00309">
        <ele>1029.8</ele>
        <time>2021-06-26T13:24:19Z</time>
      </trkpt>
      <trkpt lat="44.79725" lon="6.0031">
        <ele>1029.6</ele>
        <time>2021-06-26T13:24:21Z</time>
      </trkpt>
      <trkpt lat="44.79715" lon="6.00302">
        <ele>1029.6</ele>
        <time>2021-06-26T13:24:23Z</time>
      </trkpt>
      <trkpt lat="44.7971" lon="6.00296">
        <ele>1029.8</ele>
        <time>2021-06-26T13:24:24Z</time>
      </trkpt>
      <trkpt lat="44.79706" lon="6.0029">
        <ele>1030</ele>
        <time>2021-06-26T13:24:25Z</time>
      </trkpt>
      <trkpt lat="44.79695" lon="6.00273">
        <ele>1030.4</ele>
        <time>2021-06-26T13:24:28Z</time>
      </trkpt>
      <trkpt lat="44.79693" lon="6.00268">
        <ele>1030.6</ele>
        <time>2021-06-26T13:24:29Z</time>
      </trkpt>
      <trkpt lat="44.79685" lon="6.00259">
        <ele>1031</ele>
        <time>2021-06-26T13:24:31Z</time>
      </trkpt>
      <trkpt lat="44.79682" lon="6.00255">
        <ele>1031.2</ele>
        <time>2021-06-26T13:24:32Z</time>
      </trkpt>
      <trkpt lat="44.79666" lon="6.00241">
        <ele>1031.8</ele>
        <time>2021-06-26T13:24:36Z</time>
      </trkpt>
      <trkpt lat="44.79655" lon="6.00237">
        <ele>1031.8</ele>
        <time>2021-06-26T13:24:38Z</time>
      </trkpt>
      <trkpt lat="44.79644" lon="6.00236">
        <ele>1032</ele>
        <time>2021-06-26T13:24:40Z</time>
      </trkpt>
      <trkpt lat="44.79639" lon="6.00237">
        <ele>1032</ele>
        <time>2021-06-26T13:24:41Z</time>
      </trkpt>
      <trkpt lat="44.79631" lon="6.00239">
        <ele>1032.4</ele>
        <time>2021-06-26T13:24:43Z</time>
      </trkpt>
      <trkpt lat="44.79624" lon="6.0024">
        <ele>1032.8</ele>
        <time>2021-06-26T13:24:45Z</time>
      </trkpt>
      <trkpt lat="44.7962" lon="6.00241">
        <ele>1033.2</ele>
        <time>2021-06-26T13:24:46Z</time>
      </trkpt>
      <trkpt lat="44.79607" lon="6.00245">
        <ele>1034</ele>
        <time>2021-06-26T13:24:49Z</time>
      </trkpt>
      <trkpt lat="44.79601" lon="6.00245">
        <ele>1034.2</ele>
        <time>2021-06-26T13:24:50Z</time>
      </trkpt>
      <trkpt lat="44.79581" lon="6.00249">
        <ele>1035</ele>
        <time>2021-06-26T13:24:55Z</time>
      </trkpt>
      <trkpt lat="44.79572" lon="6.00254">
        <ele>1035.4</ele>
        <time>2021-06-26T13:24:57Z</time>
      </trkpt>
      <trkpt lat="44.79556" lon="6.00269">
        <ele>1036.8</ele>
        <time>2021-06-26T13:25:02Z</time>
      </trkpt>
      <trkpt lat="44.7954" lon="6.0028">
        <ele>1038</ele>
        <time>2021-06-26T13:25:07Z</time>
      </trkpt>
      <trkpt lat="44.79537" lon="6.00281">
        <ele>1038.2</ele>
        <time>2021-06-26T13:25:08Z</time>
      </trkpt>
      <trkpt lat="44.79519" lon="6.00281">
        <ele>1039.2</ele>
        <time>2021-06-26T13:25:13Z</time>
      </trkpt>
      <trkpt lat="44.79508" lon="6.00281">
        <ele>1040.4</ele>
        <time>2021-06-26T13:25:16Z</time>
      </trkpt>
      <trkpt lat="44.79493" lon="6.0028">
        <ele>1041.6</ele>
        <time>2021-06-26T13:25:20Z</time>
      </trkpt>
      <trkpt lat="44.79482" lon="6.0028">
        <ele>1042.4</ele>
        <time>2021-06-26T13:25:23Z</time>
      </trkpt>
      <trkpt lat="44.79478" lon="6.00279">
        <ele>1042.6</ele>
        <time>2021-06-26T13:25:24Z</time>
      </trkpt>
      <trkpt lat="44.79458" lon="6.00278">
        <ele>1043.6</ele>
        <time>2021-06-26T13:25:30Z</time>
      </trkpt>
      <trkpt lat="44.79455" lon="6.00278">
        <ele>1043.8</ele>
        <time>2021-06-26T13:25:31Z</time>
      </trkpt>
      <trkpt lat="44.79433" lon="6.00278">
        <ele>1045</ele>
        <time>2021-06-26T13:25:37Z</time>
      </trkpt>
      <trkpt lat="44.79421" lon="6.00278">
        <ele>1045.6</ele>
        <time>2021-06-26T13:25:40Z</time>
      </trkpt>
      <trkpt lat="44.79409" lon="6.00279">
        <ele>1046</ele>
        <time>2021-06-26T13:25:43Z</time>
      </trkpt>
      <trkpt lat="44.79399" lon="6.00283">
        <ele>1046.4</ele>
        <time>2021-06-26T13:25:46Z</time>
      </trkpt>
      <trkpt lat="44.79384" lon="6.00294">
        <ele>1047</ele>
        <time>2021-06-26T13:25:51Z</time>
      </trkpt>
      <trkpt lat="44.79377" lon="6.00299">
        <ele>1047.2</ele>
        <time>2021-06-26T13:25:53Z</time>
      </trkpt>
      <trkpt lat="44.79358" lon="6.00315">
        <ele>1047.6</ele>
        <time>2021-06-26T13:25:59Z</time>
      </trkpt>
      <trkpt lat="44.79343" lon="6.00323">
        <ele>1048.4</ele>
        <time>2021-06-26T13:26:03Z</time>
      </trkpt>
      <trkpt lat="44.79332" lon="6.00328">
        <ele>1048.4</ele>
        <time>2021-06-26T13:26:06Z</time>
      </trkpt>
      <trkpt lat="44.79302" lon="6.00338">
        <ele>1048.6</ele>
        <time>2021-06-26T13:26:14Z</time>
      </trkpt>
      <trkpt lat="44.79285" lon="6.00353">
        <ele>1048.6</ele>
        <time>2021-06-26T13:26:19Z</time>
      </trkpt>
      <trkpt lat="44.79281" lon="6.00361">
        <ele>1048.6</ele>
        <time>2021-06-26T13:26:21Z</time>
      </trkpt>
      <trkpt lat="44.79268" lon="6.00378">
        <ele>1049.2</ele>
        <time>2021-06-26T13:26:25Z</time>
      </trkpt>
      <trkpt lat="44.79266" lon="6.00381">
        <ele>1049.4</ele>
        <time>2021-06-26T13:26:26Z</time>
      </trkpt>
      <trkpt lat="44.79257" lon="6.00393">
        <ele>1049.6</ele>
        <time>2021-06-26T13:26:30Z</time>
      </trkpt>
      <trkpt lat="44.79253" lon="6.00398">
        <ele>1050.4</ele>
        <time>2021-06-26T13:26:32Z</time>
      </trkpt>
      <trkpt lat="44.79247" lon="6.00407">
        <ele>1051.4</ele>
        <time>2021-06-26T13:26:35Z</time>
      </trkpt>
      <trkpt lat="44.79245" lon="6.0041">
        <ele>1051.8</ele>
        <time>2021-06-26T13:26:36Z</time>
      </trkpt>
      <trkpt lat="44.79242" lon="6.00415">
        <ele>1052.6</ele>
        <time>2021-06-26T13:26:38Z</time>
      </trkpt>
      <trkpt lat="44.79239" lon="6.0042">
        <ele>1053</ele>
        <time>2021-06-26T13:26:40Z</time>
      </trkpt>
      <trkpt lat="44.79233" lon="6.00431">
        <ele>1054.2</ele>
        <time>2021-06-26T13:26:44Z</time>
      </trkpt>
      <trkpt lat="44.79229" lon="6.00439">
        <ele>1055</ele>
        <time>2021-06-26T13:26:47Z</time>
      </trkpt>
      <trkpt lat="44.79226" lon="6.00445">
        <ele>1055.6</ele>
        <time>2021-06-26T13:26:49Z</time>
      </trkpt>
      <trkpt lat="44.7922" lon="6.00455">
        <ele>1056.6</ele>
        <time>2021-06-26T13:26:53Z</time>
      </trkpt>
      <trkpt lat="44.79216" lon="6.00463">
        <ele>1057.6</ele>
        <time>2021-06-26T13:26:56Z</time>
      </trkpt>
      <trkpt lat="44.79215" lon="6.00466">
        <ele>1058</ele>
        <time>2021-06-26T13:26:57Z</time>
      </trkpt>
      <trkpt lat="44.7921" lon="6.00476">
        <ele>1058.8</ele>
        <time>2021-06-26T13:27:00Z</time>
      </trkpt>
      <trkpt lat="44.79203" lon="6.00488">
        <ele>1059.8</ele>
        <time>2021-06-26T13:27:04Z</time>
      </trkpt>
      <trkpt lat="44.79198" lon="6.00495">
        <ele>1060.4</ele>
        <time>2021-06-26T13:27:07Z</time>
      </trkpt>
      <trkpt lat="44.79194" lon="6.00498">
        <ele>1060.8</ele>
        <time>2021-06-26T13:27:09Z</time>
      </trkpt>
      <trkpt lat="44.79187" lon="6.00504">
        <ele>1062</ele>
        <time>2021-06-26T13:27:13Z</time>
      </trkpt>
      <trkpt lat="44.79184" lon="6.00505">
        <ele>1062.2</ele>
        <time>2021-06-26T13:27:14Z</time>
      </trkpt>
      <trkpt lat="44.79176" lon="6.0051">
        <ele>1063.2</ele>
        <time>2021-06-26T13:27:18Z</time>
      </trkpt>
      <trkpt lat="44.79166" lon="6.0052">
        <ele>1063.6</ele>
        <time>2021-06-26T13:27:23Z</time>
      </trkpt>
      <trkpt lat="44.79164" lon="6.00522">
        <ele>1064.4</ele>
        <time>2021-06-26T13:27:24Z</time>
      </trkpt>
      <trkpt lat="44.79155" lon="6.00531">
        <ele>1065.4</ele>
        <time>2021-06-26T13:27:29Z</time>
      </trkpt>
      <trkpt lat="44.79151" lon="6.00534">
        <ele>1065.8</ele>
        <time>2021-06-26T13:27:31Z</time>
      </trkpt>
      <trkpt lat="44.79145" lon="6.00539">
        <ele>1066.4</ele>
        <time>2021-06-26T13:27:34Z</time>
      </trkpt>
      <trkpt lat="44.79134" lon="6.00545">
        <ele>1067.6</ele>
        <time>2021-06-26T13:27:40Z</time>
      </trkpt>
      <trkpt lat="44.79133" lon="6.00546">
        <ele>1067.8</ele>
        <time>2021-06-26T13:27:41Z</time>
      </trkpt>
      <trkpt lat="44.79129" lon="6.00549">
        <ele>1068</ele>
        <time>2021-06-26T13:27:43Z</time>
      </trkpt>
      <trkpt lat="44.79123" lon="6.00552">
        <ele>1068.8</ele>
        <time>2021-06-26T13:27:46Z</time>
      </trkpt>
      <trkpt lat="44.79114" lon="6.00557">
        <ele>1069.6</ele>
        <time>2021-06-26T13:27:51Z</time>
      </trkpt>
      <trkpt lat="44.79112" lon="6.00558">
        <ele>1069.8</ele>
        <time>2021-06-26T13:27:52Z</time>
      </trkpt>
      <trkpt lat="44.79106" lon="6.00562">
        <ele>1071</ele>
        <time>2021-06-26T13:27:55Z</time>
      </trkpt>
      <trkpt lat="44.791" lon="6.00565">
        <ele>1072</ele>
        <time>2021-06-26T13:27:58Z</time>
      </trkpt>
      <trkpt lat="44.79094" lon="6.00568">
        <ele>1073</ele>
        <time>2021-06-26T13:28:01Z</time>
      </trkpt>
      <trkpt lat="44.79092" lon="6.0057">
        <ele>1073.2</ele>
        <time>2021-06-26T13:28:02Z</time>
      </trkpt>
      <trkpt lat="44.79084" lon="6.00575">
        <ele>1074.4</ele>
        <time>2021-06-26T13:28:07Z</time>
      </trkpt>
      <trkpt lat="44.7908" lon="6.00576">
        <ele>1074.8</ele>
        <time>2021-06-26T13:28:09Z</time>
      </trkpt>
      <trkpt lat="44.79076" lon="6.00577">
        <ele>1075.8</ele>
        <time>2021-06-26T13:28:11Z</time>
      </trkpt>
      <trkpt lat="44.79071" lon="6.00581">
        <ele>1076.8</ele>
        <time>2021-06-26T13:28:14Z</time>
      </trkpt>
      <trkpt lat="44.79063" lon="6.00586">
        <ele>1077.4</ele>
        <time>2021-06-26T13:28:18Z</time>
      </trkpt>
      <trkpt lat="44.7906" lon="6.00588">
        <ele>1077.8</ele>
        <time>2021-06-26T13:28:20Z</time>
      </trkpt>
      <trkpt lat="44.79048" lon="6.00594">
        <ele>1079.2</ele>
        <time>2021-06-26T13:28:26Z</time>
      </trkpt>
      <trkpt lat="44.79042" lon="6.00597">
        <ele>1080</ele>
        <time>2021-06-26T13:28:29Z</time>
      </trkpt>
      <trkpt lat="44.7904" lon="6.00598">
        <ele>1080.4</ele>
        <time>2021-06-26T13:28:30Z</time>
      </trkpt>
      <trkpt lat="44.79032" lon="6.00602">
        <ele>1081.4</ele>
        <time>2021-06-26T13:28:34Z</time>
      </trkpt>
      <trkpt lat="44.79022" lon="6.00606">
        <ele>1082.6</ele>
        <time>2021-06-26T13:28:39Z</time>
      </trkpt>
      <trkpt lat="44.79012" lon="6.0061">
        <ele>1084.2</ele>
        <time>2021-06-26T13:28:44Z</time>
      </trkpt>
      <trkpt lat="44.79002" lon="6.00615">
        <ele>1085.2</ele>
        <time>2021-06-26T13:28:49Z</time>
      </trkpt>
      <trkpt lat="44.78993" lon="6.00619">
        <ele>1086.4</ele>
        <time>2021-06-26T13:28:53Z</time>
      </trkpt>
      <trkpt lat="44.78987" lon="6.00622">
        <ele>1087.4</ele>
        <time>2021-06-26T13:28:56Z</time>
      </trkpt>
      <trkpt lat="44.78985" lon="6.00624">
        <ele>1087.6</ele>
        <time>2021-06-26T13:28:57Z</time>
      </trkpt>
      <trkpt lat="44.78976" lon="6.00629">
        <ele>1088.4</ele>
        <time>2021-06-26T13:29:01Z</time>
      </trkpt>
      <trkpt lat="44.78966" lon="6.00633">
        <ele>1089.2</ele>
        <time>2021-06-26T13:29:05Z</time>
      </trkpt>
      <trkpt lat="44.78961" lon="6.00636">
        <ele>1089.6</ele>
        <time>2021-06-26T13:29:07Z</time>
      </trkpt>
      <trkpt lat="44.78944" lon="6.00644">
        <ele>1090.4</ele>
        <time>2021-06-26T13:29:13Z</time>
      </trkpt>
      <trkpt lat="44.7894" lon="6.00644">
        <ele>1090.6</ele>
        <time>2021-06-26T13:29:14Z</time>
      </trkpt>
      <trkpt lat="44.78923" lon="6.00648">
        <ele>1091.4</ele>
        <time>2021-06-26T13:29:19Z</time>
      </trkpt>
      <trkpt lat="44.78917" lon="6.00648">
        <ele>1091.6</ele>
        <time>2021-06-26T13:29:21Z</time>
      </trkpt>
      <trkpt lat="44.78914" lon="6.00649">
        <ele>1091.8</ele>
        <time>2021-06-26T13:29:22Z</time>
      </trkpt>
      <trkpt lat="44.78893" lon="6.00651">
        <ele>1092.4</ele>
        <time>2021-06-26T13:29:29Z</time>
      </trkpt>
      <trkpt lat="44.78888" lon="6.00651">
        <ele>1092.8</ele>
        <time>2021-06-26T13:29:31Z</time>
      </trkpt>
      <trkpt lat="44.78878" lon="6.00648">
        <ele>1094</ele>
        <time>2021-06-26T13:29:35Z</time>
      </trkpt>
      <trkpt lat="44.78873" lon="6.00645">
        <ele>1094.8</ele>
        <time>2021-06-26T13:29:37Z</time>
      </trkpt>
      <trkpt lat="44.78871" lon="6.00643">
        <ele>1095</ele>
        <time>2021-06-26T13:29:38Z</time>
      </trkpt>
      <trkpt lat="44.78866" lon="6.00633">
        <ele>1095.4</ele>
        <time>2021-06-26T13:29:41Z</time>
      </trkpt>
      <trkpt lat="44.78867" lon="6.00613">
        <ele>1096.2</ele>
        <time>2021-06-26T13:29:46Z</time>
      </trkpt>
      <trkpt lat="44.7887" lon="6.00607">
        <ele>1096.4</ele>
        <time>2021-06-26T13:29:48Z</time>
      </trkpt>
      <trkpt lat="44.78875" lon="6.00592">
        <ele>1097.4</ele>
        <time>2021-06-26T13:29:52Z</time>
      </trkpt>
      <trkpt lat="44.78876" lon="6.00589">
        <ele>1097.6</ele>
        <time>2021-06-26T13:29:53Z</time>
      </trkpt>
      <trkpt lat="44.78876" lon="6.00574">
        <ele>1098.6</ele>
        <time>2021-06-26T13:29:57Z</time>
      </trkpt>
      <trkpt lat="44.78875" lon="6.00571">
        <ele>1098.8</ele>
        <time>2021-06-26T13:29:58Z</time>
      </trkpt>
      <trkpt lat="44.78873" lon="6.00569">
        <ele>1099</ele>
        <time>2021-06-26T13:29:59Z</time>
      </trkpt>
      <trkpt lat="44.78867" lon="6.00568">
        <ele>1099.4</ele>
        <time>2021-06-26T13:30:01Z</time>
      </trkpt>
      <trkpt lat="44.78862" lon="6.00569">
        <ele>1099.8</ele>
        <time>2021-06-26T13:30:03Z</time>
      </trkpt>
      <trkpt lat="44.78855" lon="6.00574">
        <ele>1101</ele>
        <time>2021-06-26T13:30:06Z</time>
      </trkpt>
      <trkpt lat="44.78853" lon="6.00575">
        <ele>1101</ele>
        <time>2021-06-26T13:30:07Z</time>
      </trkpt>
      <trkpt lat="44.78844" lon="6.0058">
        <ele>1102</ele>
        <time>2021-06-26T13:30:10Z</time>
      </trkpt>
      <trkpt lat="44.78835" lon="6.00587">
        <ele>1102.8</ele>
        <time>2021-06-26T13:30:14Z</time>
      </trkpt>
      <trkpt lat="44.7883" lon="6.0059">
        <ele>1103</ele>
        <time>2021-06-26T13:30:16Z</time>
      </trkpt>
      <trkpt lat="44.78815" lon="6.00603">
        <ele>1104.2</ele>
        <time>2021-06-26T13:30:23Z</time>
      </trkpt>
      <trkpt lat="44.78806" lon="6.00615">
        <ele>1105.2</ele>
        <time>2021-06-26T13:30:28Z</time>
      </trkpt>
      <trkpt lat="44.78794" lon="6.00629">
        <ele>1106.4</ele>
        <time>2021-06-26T13:30:34Z</time>
      </trkpt>
      <trkpt lat="44.78791" lon="6.00631">
        <ele>1106.6</ele>
        <time>2021-06-26T13:30:35Z</time>
      </trkpt>
      <trkpt lat="44.78783" lon="6.00637">
        <ele>1107.6</ele>
        <time>2021-06-26T13:30:39Z</time>
      </trkpt>
      <trkpt lat="44.78773" lon="6.00642">
        <ele>1108.2</ele>
        <time>2021-06-26T13:30:43Z</time>
      </trkpt>
      <trkpt lat="44.78764" lon="6.00647">
        <ele>1108.8</ele>
        <time>2021-06-26T13:30:46Z</time>
      </trkpt>
      <trkpt lat="44.78751" lon="6.00655">
        <ele>1109.8</ele>
        <time>2021-06-26T13:30:51Z</time>
      </trkpt>
      <trkpt lat="44.78747" lon="6.00657">
        <ele>1110.2</ele>
        <time>2021-06-26T13:30:53Z</time>
      </trkpt>
      <trkpt lat="44.78741" lon="6.00659">
        <ele>1110.8</ele>
        <time>2021-06-26T13:30:58Z</time>
      </trkpt>
      <trkpt lat="44.78741" lon="6.00659">
        <ele>1111</ele>
        <time>2021-06-26T13:30:59Z</time>
      </trkpt>
      <trkpt lat="44.78741" lon="6.00664">
        <ele>1111.2</ele>
        <time>2021-06-26T13:31:55Z</time>
      </trkpt>
      <trkpt lat="44.78743" lon="6.0067">
        <ele>1111.2</ele>
        <time>2021-06-26T13:31:57Z</time>
      </trkpt>
      <trkpt lat="44.78743" lon="6.0068">
        <ele>1111.6</ele>
        <time>2021-06-26T13:32:02Z</time>
      </trkpt>
      <trkpt lat="44.78743" lon="6.0068">
        <ele>1111.8</ele>
        <time>2021-06-26T13:32:04Z</time>
      </trkpt>
      <trkpt lat="44.7874" lon="6.00672">
        <ele>1111.6</ele>
        <time>2021-06-26T13:33:41Z</time>
      </trkpt>
      <trkpt lat="44.78738" lon="6.00667">
        <ele>1111.6</ele>
        <time>2021-06-26T13:33:43Z</time>
      </trkpt>
      <trkpt lat="44.78738" lon="6.00664">
        <ele>1111.6</ele>
        <time>2021-06-26T13:33:46Z</time>
      </trkpt>
      <trkpt lat="44.78733" lon="6.00667">
        <ele>1110.8</ele>
        <time>2021-06-26T13:35:42Z</time>
      </trkpt>
      <trkpt lat="44.7872" lon="6.0068">
        <ele>1110.4</ele>
        <time>2021-06-26T13:35:46Z</time>
      </trkpt>
      <trkpt lat="44.78706" lon="6.00699">
        <ele>1109.4</ele>
        <time>2021-06-26T13:35:49Z</time>
      </trkpt>
      <trkpt lat="44.78701" lon="6.00706">
        <ele>1109.2</ele>
        <time>2021-06-26T13:35:50Z</time>
      </trkpt>
      <trkpt lat="44.78678" lon="6.00734">
        <ele>1108.4</ele>
        <time>2021-06-26T13:35:54Z</time>
      </trkpt>
      <trkpt lat="44.78671" lon="6.0074">
        <ele>1107.8</ele>
        <time>2021-06-26T13:35:55Z</time>
      </trkpt>
      <trkpt lat="44.78663" lon="6.00746">
        <ele>1107.2</ele>
        <time>2021-06-26T13:35:56Z</time>
      </trkpt>
      <trkpt lat="44.78646" lon="6.00758">
        <ele>1105.8</ele>
        <time>2021-06-26T13:35:58Z</time>
      </trkpt>
      <trkpt lat="44.78637" lon="6.00764">
        <ele>1105</ele>
        <time>2021-06-26T13:35:59Z</time>
      </trkpt>
      <trkpt lat="44.78627" lon="6.00768">
        <ele>1104.6</ele>
        <time>2021-06-26T13:36:00Z</time>
      </trkpt>
      <trkpt lat="44.78607" lon="6.00773">
        <ele>1103.2</ele>
        <time>2021-06-26T13:36:02Z</time>
      </trkpt>
      <trkpt lat="44.78588" lon="6.00781">
        <ele>1101.8</ele>
        <time>2021-06-26T13:36:04Z</time>
      </trkpt>
      <trkpt lat="44.7858" lon="6.00787">
        <ele>1101.6</ele>
        <time>2021-06-26T13:36:05Z</time>
      </trkpt>
      <trkpt lat="44.78573" lon="6.00795">
        <ele>1101.4</ele>
        <time>2021-06-26T13:36:06Z</time>
      </trkpt>
      <trkpt lat="44.78561" lon="6.00817">
        <ele>1100.8</ele>
        <time>2021-06-26T13:36:08Z</time>
      </trkpt>
      <trkpt lat="44.78556" lon="6.0083">
        <ele>1100.6</ele>
        <time>2021-06-26T13:36:09Z</time>
      </trkpt>
      <trkpt lat="44.78552" lon="6.00844">
        <ele>1099.2</ele>
        <time>2021-06-26T13:36:10Z</time>
      </trkpt>
      <trkpt lat="44.78549" lon="6.00859">
        <ele>1098.4</ele>
        <time>2021-06-26T13:36:11Z</time>
      </trkpt>
      <trkpt lat="44.78541" lon="6.00888">
        <ele>1096.8</ele>
        <time>2021-06-26T13:36:13Z</time>
      </trkpt>
      <trkpt lat="44.78536" lon="6.00902">
        <ele>1095.6</ele>
        <time>2021-06-26T13:36:14Z</time>
      </trkpt>
      <trkpt lat="44.78531" lon="6.00916">
        <ele>1094.6</ele>
        <time>2021-06-26T13:36:15Z</time>
      </trkpt>
      <trkpt lat="44.78528" lon="6.00931">
        <ele>1094</ele>
        <time>2021-06-26T13:36:16Z</time>
      </trkpt>
      <trkpt lat="44.78525" lon="6.00946">
        <ele>1093.2</ele>
        <time>2021-06-26T13:36:17Z</time>
      </trkpt>
      <trkpt lat="44.78523" lon="6.00962">
        <ele>1092.2</ele>
        <time>2021-06-26T13:36:18Z</time>
      </trkpt>
      <trkpt lat="44.78521" lon="6.00977">
        <ele>1091.8</ele>
        <time>2021-06-26T13:36:19Z</time>
      </trkpt>
      <trkpt lat="44.78519" lon="6.00993">
        <ele>1090.6</ele>
        <time>2021-06-26T13:36:20Z</time>
      </trkpt>
      <trkpt lat="44.78513" lon="6.01043">
        <ele>1089.6</ele>
        <time>2021-06-26T13:36:23Z</time>
      </trkpt>
      <trkpt lat="44.7851" lon="6.01059">
        <ele>1088.6</ele>
        <time>2021-06-26T13:36:24Z</time>
      </trkpt>
      <trkpt lat="44.78507" lon="6.01075">
        <ele>1087.2</ele>
        <time>2021-06-26T13:36:25Z</time>
      </trkpt>
      <trkpt lat="44.78499" lon="6.01106">
        <ele>1085</ele>
        <time>2021-06-26T13:36:27Z</time>
      </trkpt>
      <trkpt lat="44.78491" lon="6.01135">
        <ele>1083</ele>
        <time>2021-06-26T13:36:29Z</time>
      </trkpt>
      <trkpt lat="44.78482" lon="6.01163">
        <ele>1081.4</ele>
        <time>2021-06-26T13:36:31Z</time>
      </trkpt>
      <trkpt lat="44.78477" lon="6.01176">
        <ele>1079.6</ele>
        <time>2021-06-26T13:36:32Z</time>
      </trkpt>
      <trkpt lat="44.78471" lon="6.01188">
        <ele>1078.8</ele>
        <time>2021-06-26T13:36:33Z</time>
      </trkpt>
      <trkpt lat="44.78464" lon="6.01197">
        <ele>1077.8</ele>
        <time>2021-06-26T13:36:34Z</time>
      </trkpt>
      <trkpt lat="44.78456" lon="6.01205">
        <ele>1077.6</ele>
        <time>2021-06-26T13:36:35Z</time>
      </trkpt>
      <trkpt lat="44.78447" lon="6.01211">
        <ele>1076.8</ele>
        <time>2021-06-26T13:36:36Z</time>
      </trkpt>
      <trkpt lat="44.78435" lon="6.01214">
        <ele>1076.2</ele>
        <time>2021-06-26T13:36:37Z</time>
      </trkpt>
      <trkpt lat="44.78424" lon="6.01214">
        <ele>1075</ele>
        <time>2021-06-26T13:36:38Z</time>
      </trkpt>
      <trkpt lat="44.78412" lon="6.01213">
        <ele>1073.6</ele>
        <time>2021-06-26T13:36:39Z</time>
      </trkpt>
      <trkpt lat="44.78388" lon="6.0121">
        <ele>1071.8</ele>
        <time>2021-06-26T13:36:41Z</time>
      </trkpt>
      <trkpt lat="44.78375" lon="6.01209">
        <ele>1071.6</ele>
        <time>2021-06-26T13:36:42Z</time>
      </trkpt>
      <trkpt lat="44.7835" lon="6.01207">
        <ele>1070.8</ele>
        <time>2021-06-26T13:36:44Z</time>
      </trkpt>
      <trkpt lat="44.78338" lon="6.01208">
        <ele>1070</ele>
        <time>2021-06-26T13:36:45Z</time>
      </trkpt>
      <trkpt lat="44.78326" lon="6.01211">
        <ele>1069.2</ele>
        <time>2021-06-26T13:36:46Z</time>
      </trkpt>
      <trkpt lat="44.78295" lon="6.01229">
        <ele>1068.2</ele>
        <time>2021-06-26T13:36:49Z</time>
      </trkpt>
      <trkpt lat="44.78283" lon="6.01233">
        <ele>1067.8</ele>
        <time>2021-06-26T13:36:50Z</time>
      </trkpt>
      <trkpt lat="44.7826" lon="6.01236">
        <ele>1066.6</ele>
        <time>2021-06-26T13:36:52Z</time>
      </trkpt>
      <trkpt lat="44.78238" lon="6.01237">
        <ele>1066</ele>
        <time>2021-06-26T13:36:54Z</time>
      </trkpt>
      <trkpt lat="44.78227" lon="6.01237">
        <ele>1065.2</ele>
        <time>2021-06-26T13:36:55Z</time>
      </trkpt>
      <trkpt lat="44.78208" lon="6.01236">
        <ele>1064.4</ele>
        <time>2021-06-26T13:36:57Z</time>
      </trkpt>
      <trkpt lat="44.78197" lon="6.0124">
        <ele>1064</ele>
        <time>2021-06-26T13:36:58Z</time>
      </trkpt>
      <trkpt lat="44.78189" lon="6.01246">
        <ele>1063.6</ele>
        <time>2021-06-26T13:36:59Z</time>
      </trkpt>
      <trkpt lat="44.78182" lon="6.01254">
        <ele>1063.2</ele>
        <time>2021-06-26T13:37:00Z</time>
      </trkpt>
      <trkpt lat="44.78175" lon="6.01264">
        <ele>1063</ele>
        <time>2021-06-26T13:37:01Z</time>
      </trkpt>
      <trkpt lat="44.78162" lon="6.01286">
        <ele>1062.6</ele>
        <time>2021-06-26T13:37:03Z</time>
      </trkpt>
      <trkpt lat="44.78156" lon="6.01301">
        <ele>1061.8</ele>
        <time>2021-06-26T13:37:04Z</time>
      </trkpt>
      <trkpt lat="44.78152" lon="6.01317">
        <ele>1061.4</ele>
        <time>2021-06-26T13:37:05Z</time>
      </trkpt>
      <trkpt lat="44.78149" lon="6.01333">
        <ele>1060.4</ele>
        <time>2021-06-26T13:37:06Z</time>
      </trkpt>
      <trkpt lat="44.78148" lon="6.0135">
        <ele>1059</ele>
        <time>2021-06-26T13:37:07Z</time>
      </trkpt>
      <trkpt lat="44.78144" lon="6.01384">
        <ele>1057</ele>
        <time>2021-06-26T13:37:09Z</time>
      </trkpt>
      <trkpt lat="44.7814" lon="6.01401">
        <ele>1056.6</ele>
        <time>2021-06-26T13:37:10Z</time>
      </trkpt>
      <trkpt lat="44.78136" lon="6.01418">
        <ele>1055.6</ele>
        <time>2021-06-26T13:37:11Z</time>
      </trkpt>
      <trkpt lat="44.78124" lon="6.0145">
        <ele>1054.4</ele>
        <time>2021-06-26T13:37:13Z</time>
      </trkpt>
      <trkpt lat="44.78117" lon="6.01466">
        <ele>1053.2</ele>
        <time>2021-06-26T13:37:14Z</time>
      </trkpt>
      <trkpt lat="44.78111" lon="6.01482">
        <ele>1052.6</ele>
        <time>2021-06-26T13:37:15Z</time>
      </trkpt>
      <trkpt lat="44.78104" lon="6.01497">
        <ele>1050.8</ele>
        <time>2021-06-26T13:37:16Z</time>
      </trkpt>
      <trkpt lat="44.78097" lon="6.01512">
        <ele>1049.8</ele>
        <time>2021-06-26T13:37:17Z</time>
      </trkpt>
      <trkpt lat="44.78089" lon="6.01526">
        <ele>1048.4</ele>
        <time>2021-06-26T13:37:18Z</time>
      </trkpt>
      <trkpt lat="44.7808" lon="6.01538">
        <ele>1047.8</ele>
        <time>2021-06-26T13:37:19Z</time>
      </trkpt>
      <trkpt lat="44.78072" lon="6.01551">
        <ele>1046.2</ele>
        <time>2021-06-26T13:37:20Z</time>
      </trkpt>
      <trkpt lat="44.78064" lon="6.01564">
        <ele>1044.6</ele>
        <time>2021-06-26T13:37:21Z</time>
      </trkpt>
      <trkpt lat="44.78057" lon="6.01579">
        <ele>1043.6</ele>
        <time>2021-06-26T13:37:22Z</time>
      </trkpt>
      <trkpt lat="44.78051" lon="6.01594">
        <ele>1041.6</ele>
        <time>2021-06-26T13:37:23Z</time>
      </trkpt>
      <trkpt lat="44.78038" lon="6.01623">
        <ele>1039.4</ele>
        <time>2021-06-26T13:37:25Z</time>
      </trkpt>
      <trkpt lat="44.78026" lon="6.01651">
        <ele>1038</ele>
        <time>2021-06-26T13:37:27Z</time>
      </trkpt>
      <trkpt lat="44.78021" lon="6.01665">
        <ele>1036.2</ele>
        <time>2021-06-26T13:37:28Z</time>
      </trkpt>
      <trkpt lat="44.78014" lon="6.01696">
        <ele>1032.8</ele>
        <time>2021-06-26T13:37:30Z</time>
      </trkpt>
      <trkpt lat="44.78008" lon="6.01727">
        <ele>1030.4</ele>
        <time>2021-06-26T13:37:32Z</time>
      </trkpt>
      <trkpt lat="44.78007" lon="6.01743">
        <ele>1029</ele>
        <time>2021-06-26T13:37:33Z</time>
      </trkpt>
      <trkpt lat="44.78005" lon="6.01761">
        <ele>1028</ele>
        <time>2021-06-26T13:37:34Z</time>
      </trkpt>
      <trkpt lat="44.78006" lon="6.01772">
        <ele>1026.2</ele>
        <time>2021-06-26T13:37:35Z</time>
      </trkpt>
      <trkpt lat="44.78007" lon="6.01787">
        <ele>1025.6</ele>
        <time>2021-06-26T13:37:36Z</time>
      </trkpt>
      <trkpt lat="44.78011" lon="6.01801">
        <ele>1024.6</ele>
        <time>2021-06-26T13:37:37Z</time>
      </trkpt>
      <trkpt lat="44.78019" lon="6.01828">
        <ele>1023</ele>
        <time>2021-06-26T13:37:39Z</time>
      </trkpt>
      <trkpt lat="44.78024" lon="6.0184">
        <ele>1021.4</ele>
        <time>2021-06-26T13:37:40Z</time>
      </trkpt>
      <trkpt lat="44.78038" lon="6.01861">
        <ele>1019.4</ele>
        <time>2021-06-26T13:37:42Z</time>
      </trkpt>
      <trkpt lat="44.78054" lon="6.01879">
        <ele>1017.6</ele>
        <time>2021-06-26T13:37:44Z</time>
      </trkpt>
      <trkpt lat="44.78063" lon="6.01887">
        <ele>1016.8</ele>
        <time>2021-06-26T13:37:45Z</time>
      </trkpt>
      <trkpt lat="44.78072" lon="6.01894">
        <ele>1015.4</ele>
        <time>2021-06-26T13:37:46Z</time>
      </trkpt>
      <trkpt lat="44.78081" lon="6.01902">
        <ele>1014.2</ele>
        <time>2021-06-26T13:37:47Z</time>
      </trkpt>
      <trkpt lat="44.78099" lon="6.01918">
        <ele>1011.8</ele>
        <time>2021-06-26T13:37:49Z</time>
      </trkpt>
      <trkpt lat="44.78116" lon="6.01933">
        <ele>1010</ele>
        <time>2021-06-26T13:37:51Z</time>
      </trkpt>
      <trkpt lat="44.78124" lon="6.01942">
        <ele>1009</ele>
        <time>2021-06-26T13:37:52Z</time>
      </trkpt>
      <trkpt lat="44.78132" lon="6.01951">
        <ele>1007.8</ele>
        <time>2021-06-26T13:37:53Z</time>
      </trkpt>
      <trkpt lat="44.78139" lon="6.01962">
        <ele>1007</ele>
        <time>2021-06-26T13:37:54Z</time>
      </trkpt>
      <trkpt lat="44.78144" lon="6.01973">
        <ele>1006.4</ele>
        <time>2021-06-26T13:37:55Z</time>
      </trkpt>
      <trkpt lat="44.78149" lon="6.01986">
        <ele>1004.8</ele>
        <time>2021-06-26T13:37:56Z</time>
      </trkpt>
      <trkpt lat="44.78159" lon="6.02012">
        <ele>1002.6</ele>
        <time>2021-06-26T13:37:58Z</time>
      </trkpt>
      <trkpt lat="44.78168" lon="6.02034">
        <ele>1000.2</ele>
        <time>2021-06-26T13:38:00Z</time>
      </trkpt>
      <trkpt lat="44.78173" lon="6.02044">
        <ele>999.2</ele>
        <time>2021-06-26T13:38:01Z</time>
      </trkpt>
      <trkpt lat="44.7818" lon="6.02053">
        <ele>998.8</ele>
        <time>2021-06-26T13:38:02Z</time>
      </trkpt>
      <trkpt lat="44.78187" lon="6.0206">
        <ele>998.2</ele>
        <time>2021-06-26T13:38:03Z</time>
      </trkpt>
      <trkpt lat="44.78196" lon="6.02065">
        <ele>997.6</ele>
        <time>2021-06-26T13:38:04Z</time>
      </trkpt>
      <trkpt lat="44.78204" lon="6.0207">
        <ele>996.2</ele>
        <time>2021-06-26T13:38:05Z</time>
      </trkpt>
      <trkpt lat="44.7822" lon="6.02079">
        <ele>993.8</ele>
        <time>2021-06-26T13:38:07Z</time>
      </trkpt>
      <trkpt lat="44.78228" lon="6.02085">
        <ele>992.8</ele>
        <time>2021-06-26T13:38:08Z</time>
      </trkpt>
      <trkpt lat="44.78235" lon="6.02092">
        <ele>992.6</ele>
        <time>2021-06-26T13:38:09Z</time>
      </trkpt>
      <trkpt lat="44.7824" lon="6.021">
        <ele>990.6</ele>
        <time>2021-06-26T13:38:10Z</time>
      </trkpt>
      <trkpt lat="44.78249" lon="6.02122">
        <ele>988.6</ele>
        <time>2021-06-26T13:38:12Z</time>
      </trkpt>
      <trkpt lat="44.78253" lon="6.02147">
        <ele>986.4</ele>
        <time>2021-06-26T13:38:14Z</time>
      </trkpt>
      <trkpt lat="44.78254" lon="6.02161">
        <ele>984.6</ele>
        <time>2021-06-26T13:38:15Z</time>
      </trkpt>
      <trkpt lat="44.78254" lon="6.0217">
        <ele>984</ele>
        <time>2021-06-26T13:38:16Z</time>
      </trkpt>
      <trkpt lat="44.78253" lon="6.02181">
        <ele>983.2</ele>
        <time>2021-06-26T13:38:17Z</time>
      </trkpt>
      <trkpt lat="44.7825" lon="6.02201">
        <ele>981.8</ele>
        <time>2021-06-26T13:38:19Z</time>
      </trkpt>
      <trkpt lat="44.78248" lon="6.02211">
        <ele>981.4</ele>
        <time>2021-06-26T13:38:20Z</time>
      </trkpt>
      <trkpt lat="44.78246" lon="6.02221">
        <ele>980</ele>
        <time>2021-06-26T13:38:21Z</time>
      </trkpt>
      <trkpt lat="44.78244" lon="6.02232">
        <ele>978.6</ele>
        <time>2021-06-26T13:38:22Z</time>
      </trkpt>
      <trkpt lat="44.7824" lon="6.02254">
        <ele>976.4</ele>
        <time>2021-06-26T13:38:24Z</time>
      </trkpt>
      <trkpt lat="44.78235" lon="6.02275">
        <ele>974.6</ele>
        <time>2021-06-26T13:38:26Z</time>
      </trkpt>
      <trkpt lat="44.78229" lon="6.02298">
        <ele>972.8</ele>
        <time>2021-06-26T13:38:28Z</time>
      </trkpt>
      <trkpt lat="44.78226" lon="6.02309">
        <ele>971.6</ele>
        <time>2021-06-26T13:38:29Z</time>
      </trkpt>
      <trkpt lat="44.78222" lon="6.02319">
        <ele>970.8</ele>
        <time>2021-06-26T13:38:30Z</time>
      </trkpt>
      <trkpt lat="44.78219" lon="6.02328">
        <ele>969.2</ele>
        <time>2021-06-26T13:38:31Z</time>
      </trkpt>
      <trkpt lat="44.78214" lon="6.02337">
        <ele>968.4</ele>
        <time>2021-06-26T13:38:32Z</time>
      </trkpt>
      <trkpt lat="44.78209" lon="6.02346">
        <ele>967.4</ele>
        <time>2021-06-26T13:38:33Z</time>
      </trkpt>
      <trkpt lat="44.78204" lon="6.02352">
        <ele>967</ele>
        <time>2021-06-26T13:38:34Z</time>
      </trkpt>
      <trkpt lat="44.78199" lon="6.02359">
        <ele>966</ele>
        <time>2021-06-26T13:38:35Z</time>
      </trkpt>
      <trkpt lat="44.78193" lon="6.02365">
        <ele>964.6</ele>
        <time>2021-06-26T13:38:36Z</time>
      </trkpt>
      <trkpt lat="44.78182" lon="6.02377">
        <ele>963.4</ele>
        <time>2021-06-26T13:38:38Z</time>
      </trkpt>
      <trkpt lat="44.78171" lon="6.02388">
        <ele>962.6</ele>
        <time>2021-06-26T13:38:40Z</time>
      </trkpt>
      <trkpt lat="44.78166" lon="6.02392">
        <ele>961.8</ele>
        <time>2021-06-26T13:38:41Z</time>
      </trkpt>
      <trkpt lat="44.78161" lon="6.02396">
        <ele>960.8</ele>
        <time>2021-06-26T13:38:42Z</time>
      </trkpt>
      <trkpt lat="44.78156" lon="6.02399">
        <ele>959.4</ele>
        <time>2021-06-26T13:38:43Z</time>
      </trkpt>
      <trkpt lat="44.7815" lon="6.02402">
        <ele>958.4</ele>
        <time>2021-06-26T13:38:44Z</time>
      </trkpt>
      <trkpt lat="44.78144" lon="6.02403">
        <ele>957.2</ele>
        <time>2021-06-26T13:38:45Z</time>
      </trkpt>
      <trkpt lat="44.78131" lon="6.02405">
        <ele>955.8</ele>
        <time>2021-06-26T13:38:47Z</time>
      </trkpt>
      <trkpt lat="44.78124" lon="6.02406">
        <ele>955.2</ele>
        <time>2021-06-26T13:38:48Z</time>
      </trkpt>
      <trkpt lat="44.78118" lon="6.02409">
        <ele>954</ele>
        <time>2021-06-26T13:38:49Z</time>
      </trkpt>
      <trkpt lat="44.78114" lon="6.02414">
        <ele>953</ele>
        <time>2021-06-26T13:38:50Z</time>
      </trkpt>
      <trkpt lat="44.78111" lon="6.0242">
        <ele>952.4</ele>
        <time>2021-06-26T13:38:51Z</time>
      </trkpt>
      <trkpt lat="44.7811" lon="6.02428">
        <ele>951.2</ele>
        <time>2021-06-26T13:38:52Z</time>
      </trkpt>
      <trkpt lat="44.7811" lon="6.02445">
        <ele>950</ele>
        <time>2021-06-26T13:38:54Z</time>
      </trkpt>
      <trkpt lat="44.78109" lon="6.02477">
        <ele>949</ele>
        <time>2021-06-26T13:38:57Z</time>
      </trkpt>
      <trkpt lat="44.78109" lon="6.02488">
        <ele>948.8</ele>
        <time>2021-06-26T13:38:58Z</time>
      </trkpt>
      <trkpt lat="44.78108" lon="6.02511">
        <ele>947.8</ele>
        <time>2021-06-26T13:39:00Z</time>
      </trkpt>
      <trkpt lat="44.78104" lon="6.0253">
        <ele>947.2</ele>
        <time>2021-06-26T13:39:02Z</time>
      </trkpt>
      <trkpt lat="44.78091" lon="6.02539">
        <ele>946.6</ele>
        <time>2021-06-26T13:39:04Z</time>
      </trkpt>
      <trkpt lat="44.78084" lon="6.02539">
        <ele>946.4</ele>
        <time>2021-06-26T13:39:05Z</time>
      </trkpt>
      <trkpt lat="44.78076" lon="6.02539">
        <ele>945.2</ele>
        <time>2021-06-26T13:39:06Z</time>
      </trkpt>
      <trkpt lat="44.78067" lon="6.02537">
        <ele>944.8</ele>
        <time>2021-06-26T13:39:07Z</time>
      </trkpt>
      <trkpt lat="44.7806" lon="6.02534">
        <ele>943.6</ele>
        <time>2021-06-26T13:39:08Z</time>
      </trkpt>
      <trkpt lat="44.78053" lon="6.02532">
        <ele>943.2</ele>
        <time>2021-06-26T13:39:09Z</time>
      </trkpt>
      <trkpt lat="44.78048" lon="6.02528">
        <ele>942.4</ele>
        <time>2021-06-26T13:39:10Z</time>
      </trkpt>
      <trkpt lat="44.78043" lon="6.02528">
        <ele>941.2</ele>
        <time>2021-06-26T13:39:11Z</time>
      </trkpt>
      <trkpt lat="44.78039" lon="6.02532">
        <ele>940.6</ele>
        <time>2021-06-26T13:39:12Z</time>
      </trkpt>
      <trkpt lat="44.78039" lon="6.02537">
        <ele>940</ele>
        <time>2021-06-26T13:39:13Z</time>
      </trkpt>
      <trkpt lat="44.78042" lon="6.02541">
        <ele>939.6</ele>
        <time>2021-06-26T13:39:14Z</time>
      </trkpt>
      <trkpt lat="44.78054" lon="6.02553">
        <ele>938.4</ele>
        <time>2021-06-26T13:39:17Z</time>
      </trkpt>
      <trkpt lat="44.7806" lon="6.02557">
        <ele>937.6</ele>
        <time>2021-06-26T13:39:18Z</time>
      </trkpt>
      <trkpt lat="44.78066" lon="6.02562">
        <ele>937.2</ele>
        <time>2021-06-26T13:39:19Z</time>
      </trkpt>
      <trkpt lat="44.78084" lon="6.02573">
        <ele>936.4</ele>
        <time>2021-06-26T13:39:21Z</time>
      </trkpt>
      <trkpt lat="44.78092" lon="6.02579">
        <ele>935.6</ele>
        <time>2021-06-26T13:39:22Z</time>
      </trkpt>
      <trkpt lat="44.78103" lon="6.02589">
        <ele>934.2</ele>
        <time>2021-06-26T13:39:24Z</time>
      </trkpt>
      <trkpt lat="44.78107" lon="6.02594">
        <ele>933.4</ele>
        <time>2021-06-26T13:39:25Z</time>
      </trkpt>
      <trkpt lat="44.7811" lon="6.02601">
        <ele>932.8</ele>
        <time>2021-06-26T13:39:26Z</time>
      </trkpt>
      <trkpt lat="44.78113" lon="6.02608">
        <ele>932.2</ele>
        <time>2021-06-26T13:39:27Z</time>
      </trkpt>
      <trkpt lat="44.7812" lon="6.02621">
        <ele>931.6</ele>
        <time>2021-06-26T13:39:29Z</time>
      </trkpt>
      <trkpt lat="44.78124" lon="6.02627">
        <ele>931.6</ele>
        <time>2021-06-26T13:39:30Z</time>
      </trkpt>
      <trkpt lat="44.78132" lon="6.0264">
        <ele>931.2</ele>
        <time>2021-06-26T13:39:32Z</time>
      </trkpt>
      <trkpt lat="44.78139" lon="6.02652">
        <ele>930.4</ele>
        <time>2021-06-26T13:39:34Z</time>
      </trkpt>
      <trkpt lat="44.78141" lon="6.02662">
        <ele>929.8</ele>
        <time>2021-06-26T13:39:36Z</time>
      </trkpt>
      <trkpt lat="44.78139" lon="6.02674">
        <ele>929.2</ele>
        <time>2021-06-26T13:39:38Z</time>
      </trkpt>
      <trkpt lat="44.78138" lon="6.0268">
        <ele>928.6</ele>
        <time>2021-06-26T13:39:39Z</time>
      </trkpt>
      <trkpt lat="44.78141" lon="6.02691">
        <ele>927.4</ele>
        <time>2021-06-26T13:39:41Z</time>
      </trkpt>
      <trkpt lat="44.78147" lon="6.02703">
        <ele>926.6</ele>
        <time>2021-06-26T13:39:43Z</time>
      </trkpt>
      <trkpt lat="44.78151" lon="6.02709">
        <ele>926.4</ele>
        <time>2021-06-26T13:39:44Z</time>
      </trkpt>
      <trkpt lat="44.78155" lon="6.02715">
        <ele>926</ele>
        <time>2021-06-26T13:39:45Z</time>
      </trkpt>
      <trkpt lat="44.78159" lon="6.0272">
        <ele>925</ele>
        <time>2021-06-26T13:39:46Z</time>
      </trkpt>
      <trkpt lat="44.78166" lon="6.0273">
        <ele>924</ele>
        <time>2021-06-26T13:39:48Z</time>
      </trkpt>
      <trkpt lat="44.78168" lon="6.02735">
        <ele>923.8</ele>
        <time>2021-06-26T13:39:49Z</time>
      </trkpt>
      <trkpt lat="44.78169" lon="6.0274">
        <ele>923</ele>
        <time>2021-06-26T13:39:50Z</time>
      </trkpt>
      <trkpt lat="44.78171" lon="6.02745">
        <ele>922</ele>
        <time>2021-06-26T13:39:52Z</time>
      </trkpt>
      <trkpt lat="44.78172" lon="6.02749">
        <ele>921.2</ele>
        <time>2021-06-26T13:39:57Z</time>
      </trkpt>
      <trkpt lat="44.78172" lon="6.02749">
        <ele>921</ele>
        <time>2021-06-26T13:39:58Z</time>
      </trkpt>
      <trkpt lat="44.78172" lon="6.02757">
        <ele>919.6</ele>
        <time>2021-06-26T13:41:19Z</time>
      </trkpt>
      <trkpt lat="44.78175" lon="6.02766">
        <ele>919.6</ele>
        <time>2021-06-26T13:41:21Z</time>
      </trkpt>
      <trkpt lat="44.7818" lon="6.02793">
        <ele>919.4</ele>
        <time>2021-06-26T13:41:26Z</time>
      </trkpt>
      <trkpt lat="44.78182" lon="6.028">
        <ele>919.4</ele>
        <time>2021-06-26T13:41:29Z</time>
      </trkpt>
      <trkpt lat="44.78183" lon="6.02802">
        <ele>919.4</ele>
        <time>2021-06-26T13:41:30Z</time>
      </trkpt>
      <trkpt lat="44.78184" lon="6.02803">
        <ele>919.6</ele>
        <time>2021-06-26T13:41:31Z</time>
      </trkpt>
      <trkpt lat="44.78184" lon="6.02802">
        <ele>920.4</ele>
        <time>2021-06-26T13:41:33Z</time>
      </trkpt>
      <trkpt lat="44.78183" lon="6.02798">
        <ele>920.6</ele>
        <time>2021-06-26T13:41:35Z</time>
      </trkpt>
      <trkpt lat="44.78181" lon="6.02788">
        <ele>920.8</ele>
        <time>2021-06-26T13:41:37Z</time>
      </trkpt>
      <trkpt lat="44.7818" lon="6.02776">
        <ele>920.6</ele>
        <time>2021-06-26T13:41:39Z</time>
      </trkpt>
      <trkpt lat="44.78179" lon="6.02765">
        <ele>919.8</ele>
        <time>2021-06-26T13:41:41Z</time>
      </trkpt>
      <trkpt lat="44.78178" lon="6.0276">
        <ele>919.6</ele>
        <time>2021-06-26T13:41:42Z</time>
      </trkpt>
      <trkpt lat="44.78178" lon="6.02753">
        <ele>919.6</ele>
        <time>2021-06-26T13:41:44Z</time>
      </trkpt>
      <trkpt lat="44.78179" lon="6.02751">
        <ele>919.8</ele>
        <time>2021-06-26T13:41:45Z</time>
      </trkpt>
      <trkpt lat="44.78179" lon="6.0275">
        <ele>919.8</ele>
        <time>2021-06-26T13:41:46Z</time>
      </trkpt>
      <trkpt lat="44.78184" lon="6.02747">
        <ele>919.8</ele>
        <time>2021-06-26T13:41:50Z</time>
      </trkpt>
      <trkpt lat="44.78187" lon="6.02747">
        <ele>920.2</ele>
        <time>2021-06-26T13:41:52Z</time>
      </trkpt>
      <trkpt lat="44.78191" lon="6.02748">
        <ele>920.6</ele>
        <time>2021-06-26T13:41:55Z</time>
      </trkpt>
      <trkpt lat="44.78192" lon="6.02749">
        <ele>921</ele>
        <time>2021-06-26T13:41:56Z</time>
      </trkpt>
      <trkpt lat="44.78194" lon="6.02751">
        <ele>921.4</ele>
        <time>2021-06-26T13:41:58Z</time>
      </trkpt>
      <trkpt lat="44.78195" lon="6.02753">
        <ele>921.8</ele>
        <time>2021-06-26T13:42:00Z</time>
      </trkpt>
      <trkpt lat="44.78196" lon="6.02753">
        <ele>922.2</ele>
        <time>2021-06-26T13:42:01Z</time>
      </trkpt>
      <trkpt lat="44.78195" lon="6.02752">
        <ele>922.4</ele>
        <time>2021-06-26T13:42:02Z</time>
      </trkpt>
      <trkpt lat="44.78191" lon="6.0275">
        <ele>922.8</ele>
        <time>2021-06-26T13:42:04Z</time>
      </trkpt>
      <trkpt lat="44.7818" lon="6.02751">
        <ele>923</ele>
        <time>2021-06-26T13:42:08Z</time>
      </trkpt>
      <trkpt lat="44.78169" lon="6.02744">
        <ele>922.4</ele>
        <time>2021-06-26T13:42:11Z</time>
      </trkpt>
      <trkpt lat="44.78167" lon="6.02739">
        <ele>921.8</ele>
        <time>2021-06-26T13:42:12Z</time>
      </trkpt>
      <trkpt lat="44.78166" lon="6.02734">
        <ele>921.2</ele>
        <time>2021-06-26T13:42:13Z</time>
      </trkpt>
      <trkpt lat="44.78162" lon="6.02726">
        <ele>920.2</ele>
        <time>2021-06-26T13:42:16Z</time>
      </trkpt>
      <trkpt lat="44.7816" lon="6.02726">
        <ele>920</ele>
        <time>2021-06-26T13:42:17Z</time>
      </trkpt>
      <trkpt lat="44.78153" lon="6.02732">
        <ele>919.6</ele>
        <time>2021-06-26T13:42:21Z</time>
      </trkpt>
      <trkpt lat="44.78136" lon="6.02746">
        <ele>919</ele>
        <time>2021-06-26T13:42:26Z</time>
      </trkpt>
      <trkpt lat="44.78133" lon="6.02749">
        <ele>918.6</ele>
        <time>2021-06-26T13:42:27Z</time>
      </trkpt>
      <trkpt lat="44.78127" lon="6.02751">
        <ele>917.6</ele>
        <time>2021-06-26T13:42:29Z</time>
      </trkpt>
      <trkpt lat="44.78125" lon="6.0275">
        <ele>917.6</ele>
        <time>2021-06-26T13:42:30Z</time>
      </trkpt>
      <trkpt lat="44.78123" lon="6.02746">
        <ele>917.2</ele>
        <time>2021-06-26T13:42:32Z</time>
      </trkpt>
      <trkpt lat="44.78122" lon="6.02749">
        <ele>916.2</ele>
        <time>2021-06-26T13:42:34Z</time>
      </trkpt>
      <trkpt lat="44.78122" lon="6.02753">
        <ele>915.6</ele>
        <time>2021-06-26T13:42:38Z</time>
      </trkpt>
      <trkpt lat="44.78126" lon="6.02754">
        <ele>915.2</ele>
        <time>2021-06-26T13:43:07Z</time>
      </trkpt>
      <trkpt lat="44.78128" lon="6.02752">
        <ele>915.4</ele>
        <time>2021-06-26T13:43:09Z</time>
      </trkpt>
      <trkpt lat="44.78129" lon="6.0275">
        <ele>915.4</ele>
        <time>2021-06-26T13:43:10Z</time>
      </trkpt>
      <trkpt lat="44.78131" lon="6.02748">
        <ele>915.4</ele>
        <time>2021-06-26T13:43:12Z</time>
      </trkpt>
      <trkpt lat="44.78132" lon="6.02746">
        <ele>915.4</ele>
        <time>2021-06-26T13:43:14Z</time>
      </trkpt>
      <trkpt lat="44.78134" lon="6.02744">
        <ele>915.4</ele>
        <time>2021-06-26T13:43:16Z</time>
      </trkpt>
      <trkpt lat="44.78137" lon="6.02741">
        <ele>915.4</ele>
        <time>2021-06-26T13:43:19Z</time>
      </trkpt>
      <trkpt lat="44.78144" lon="6.02734">
        <ele>916</ele>
        <time>2021-06-26T13:43:26Z</time>
      </trkpt>
      <trkpt lat="44.78145" lon="6.02733">
        <ele>916.2</ele>
        <time>2021-06-26T13:43:27Z</time>
      </trkpt>
      <trkpt lat="44.78148" lon="6.02732">
        <ele>916.4</ele>
        <time>2021-06-26T13:43:29Z</time>
      </trkpt>
      <trkpt lat="44.78149" lon="6.0273">
        <ele>916.8</ele>
        <time>2021-06-26T13:43:30Z</time>
      </trkpt>
      <trkpt lat="44.7815" lon="6.02729">
        <ele>917</ele>
        <time>2021-06-26T13:43:31Z</time>
      </trkpt>
      <trkpt lat="44.78151" lon="6.02728">
        <ele>917.4</ele>
        <time>2021-06-26T13:43:32Z</time>
      </trkpt>
      <trkpt lat="44.78152" lon="6.02727">
        <ele>917.8</ele>
        <time>2021-06-26T13:43:33Z</time>
      </trkpt>
      <trkpt lat="44.78153" lon="6.02726">
        <ele>918</ele>
        <time>2021-06-26T13:43:35Z</time>
      </trkpt>
      <trkpt lat="44.78153" lon="6.02721">
        <ele>918.6</ele>
        <time>2021-06-26T13:43:39Z</time>
      </trkpt>
      <trkpt lat="44.78152" lon="6.02723">
        <ele>918.6</ele>
        <time>2021-06-26T13:43:40Z</time>
      </trkpt>
      <trkpt lat="44.78151" lon="6.02724">
        <ele>918.6</ele>
        <time>2021-06-26T13:43:41Z</time>
      </trkpt>
      <trkpt lat="44.78145" lon="6.02731">
        <ele>918.8</ele>
        <time>2021-06-26T13:43:44Z</time>
      </trkpt>
      <trkpt lat="44.78142" lon="6.02734">
        <ele>918.8</ele>
        <time>2021-06-26T13:43:45Z</time>
      </trkpt>
      <trkpt lat="44.78131" lon="6.02748">
        <ele>917.6</ele>
        <time>2021-06-26T13:43:51Z</time>
      </trkpt>
      <trkpt lat="44.7813" lon="6.0275">
        <ele>917.4</ele>
        <time>2021-06-26T13:43:52Z</time>
      </trkpt>
      <trkpt lat="44.78128" lon="6.0275">
        <ele>916.6</ele>
        <time>2021-06-26T13:43:55Z</time>
      </trkpt>
      <trkpt lat="44.78126" lon="6.02747">
        <ele>914.8</ele>
        <time>2021-06-26T13:44:21Z</time>
      </trkpt>
      <trkpt lat="44.78124" lon="6.02745">
        <ele>914.8</ele>
        <time>2021-06-26T13:44:23Z</time>
      </trkpt>
      <trkpt lat="44.7812" lon="6.02753">
        <ele>914.6</ele>
        <time>2021-06-26T13:44:27Z</time>
      </trkpt>
      <trkpt lat="44.78111" lon="6.02778">
        <ele>914.4</ele>
        <time>2021-06-26T13:44:32Z</time>
      </trkpt>
      <trkpt lat="44.7811" lon="6.02784">
        <ele>914.2</ele>
        <time>2021-06-26T13:44:33Z</time>
      </trkpt>
      <trkpt lat="44.78111" lon="6.02796">
        <ele>913.8</ele>
        <time>2021-06-26T13:44:35Z</time>
      </trkpt>
      <trkpt lat="44.78111" lon="6.02801">
        <ele>913.6</ele>
        <time>2021-06-26T13:44:36Z</time>
      </trkpt>
      <trkpt lat="44.78112" lon="6.02814">
        <ele>912.8</ele>
        <time>2021-06-26T13:44:38Z</time>
      </trkpt>
      <trkpt lat="44.78114" lon="6.02827">
        <ele>911.8</ele>
        <time>2021-06-26T13:44:40Z</time>
      </trkpt>
      <trkpt lat="44.78115" lon="6.02835">
        <ele>911.6</ele>
        <time>2021-06-26T13:44:41Z</time>
      </trkpt>
      <trkpt lat="44.78116" lon="6.02843">
        <ele>910.8</ele>
        <time>2021-06-26T13:44:42Z</time>
      </trkpt>
      <trkpt lat="44.78117" lon="6.02852">
        <ele>910.6</ele>
        <time>2021-06-26T13:44:43Z</time>
      </trkpt>
      <trkpt lat="44.7812" lon="6.02881">
        <ele>909.4</ele>
        <time>2021-06-26T13:44:46Z</time>
      </trkpt>
      <trkpt lat="44.7812" lon="6.02891">
        <ele>909</ele>
        <time>2021-06-26T13:44:47Z</time>
      </trkpt>
      <trkpt lat="44.78118" lon="6.02919">
        <ele>908.4</ele>
        <time>2021-06-26T13:44:50Z</time>
      </trkpt>
      <trkpt lat="44.78116" lon="6.02928">
        <ele>907.6</ele>
        <time>2021-06-26T13:44:51Z</time>
      </trkpt>
      <trkpt lat="44.78115" lon="6.02937">
        <ele>907</ele>
        <time>2021-06-26T13:44:52Z</time>
      </trkpt>
      <trkpt lat="44.78113" lon="6.02946">
        <ele>906</ele>
        <time>2021-06-26T13:44:53Z</time>
      </trkpt>
      <trkpt lat="44.7811" lon="6.02966">
        <ele>904.8</ele>
        <time>2021-06-26T13:44:55Z</time>
      </trkpt>
      <trkpt lat="44.78108" lon="6.02977">
        <ele>903.4</ele>
        <time>2021-06-26T13:44:56Z</time>
      </trkpt>
      <trkpt lat="44.78104" lon="6.02997">
        <ele>902.2</ele>
        <time>2021-06-26T13:44:58Z</time>
      </trkpt>
      <trkpt lat="44.781" lon="6.03023">
        <ele>901.2</ele>
        <time>2021-06-26T13:45:01Z</time>
      </trkpt>
      <trkpt lat="44.78099" lon="6.03034">
        <ele>900.8</ele>
        <time>2021-06-26T13:45:02Z</time>
      </trkpt>
      <trkpt lat="44.78099" lon="6.03043">
        <ele>900.2</ele>
        <time>2021-06-26T13:45:03Z</time>
      </trkpt>
      <trkpt lat="44.78099" lon="6.03053">
        <ele>900</ele>
        <time>2021-06-26T13:45:04Z</time>
      </trkpt>
      <trkpt lat="44.78097" lon="6.03098">
        <ele>899.2</ele>
        <time>2021-06-26T13:45:08Z</time>
      </trkpt>
      <trkpt lat="44.78095" lon="6.03109">
        <ele>899</ele>
        <time>2021-06-26T13:45:09Z</time>
      </trkpt>
      <trkpt lat="44.78092" lon="6.0312">
        <ele>898.8</ele>
        <time>2021-06-26T13:45:10Z</time>
      </trkpt>
      <trkpt lat="44.78085" lon="6.03138">
        <ele>898</ele>
        <time>2021-06-26T13:45:12Z</time>
      </trkpt>
      <trkpt lat="44.78068" lon="6.03166">
        <ele>896.8</ele>
        <time>2021-06-26T13:45:15Z</time>
      </trkpt>
      <trkpt lat="44.78053" lon="6.03192">
        <ele>896.4</ele>
        <time>2021-06-26T13:45:18Z</time>
      </trkpt>
      <trkpt lat="44.78034" lon="6.03243">
        <ele>896.4</ele>
        <time>2021-06-26T13:45:23Z</time>
      </trkpt>
      <trkpt lat="44.7802" lon="6.03288">
        <ele>896</ele>
        <time>2021-06-26T13:45:27Z</time>
      </trkpt>
      <trkpt lat="44.78012" lon="6.03316">
        <ele>895.4</ele>
        <time>2021-06-26T13:45:29Z</time>
      </trkpt>
      <trkpt lat="44.78007" lon="6.03327">
        <ele>895</ele>
        <time>2021-06-26T13:45:30Z</time>
      </trkpt>
      <trkpt lat="44.78002" lon="6.03335">
        <ele>894.4</ele>
        <time>2021-06-26T13:45:31Z</time>
      </trkpt>
      <trkpt lat="44.77994" lon="6.03345">
        <ele>894.2</ele>
        <time>2021-06-26T13:45:32Z</time>
      </trkpt>
      <trkpt lat="44.77974" lon="6.03363">
        <ele>892.4</ele>
        <time>2021-06-26T13:45:34Z</time>
      </trkpt>
      <trkpt lat="44.77954" lon="6.0338">
        <ele>891.4</ele>
        <time>2021-06-26T13:45:36Z</time>
      </trkpt>
      <trkpt lat="44.77947" lon="6.03388">
        <ele>891.2</ele>
        <time>2021-06-26T13:45:37Z</time>
      </trkpt>
      <trkpt lat="44.77938" lon="6.034">
        <ele>890</ele>
        <time>2021-06-26T13:45:38Z</time>
      </trkpt>
      <trkpt lat="44.77931" lon="6.03412">
        <ele>889.4</ele>
        <time>2021-06-26T13:45:39Z</time>
      </trkpt>
      <trkpt lat="44.77926" lon="6.03425">
        <ele>888.2</ele>
        <time>2021-06-26T13:45:40Z</time>
      </trkpt>
      <trkpt lat="44.77923" lon="6.03437">
        <ele>886.8</ele>
        <time>2021-06-26T13:45:41Z</time>
      </trkpt>
      <trkpt lat="44.77918" lon="6.03451">
        <ele>886</ele>
        <time>2021-06-26T13:45:42Z</time>
      </trkpt>
      <trkpt lat="44.77915" lon="6.03467">
        <ele>885.2</ele>
        <time>2021-06-26T13:45:43Z</time>
      </trkpt>
      <trkpt lat="44.77907" lon="6.03498">
        <ele>884</ele>
        <time>2021-06-26T13:45:45Z</time>
      </trkpt>
      <trkpt lat="44.779" lon="6.03526">
        <ele>882.4</ele>
        <time>2021-06-26T13:45:47Z</time>
      </trkpt>
      <trkpt lat="44.77895" lon="6.03538">
        <ele>880.8</ele>
        <time>2021-06-26T13:45:48Z</time>
      </trkpt>
      <trkpt lat="44.77888" lon="6.0355">
        <ele>880.2</ele>
        <time>2021-06-26T13:45:49Z</time>
      </trkpt>
      <trkpt lat="44.77882" lon="6.03554">
        <ele>879</ele>
        <time>2021-06-26T13:45:50Z</time>
      </trkpt>
      <trkpt lat="44.77875" lon="6.03556">
        <ele>878.6</ele>
        <time>2021-06-26T13:45:51Z</time>
      </trkpt>
      <trkpt lat="44.77867" lon="6.03553">
        <ele>877.8</ele>
        <time>2021-06-26T13:45:52Z</time>
      </trkpt>
      <trkpt lat="44.7786" lon="6.03546">
        <ele>877.2</ele>
        <time>2021-06-26T13:45:53Z</time>
      </trkpt>
      <trkpt lat="44.77854" lon="6.03535">
        <ele>876.6</ele>
        <time>2021-06-26T13:45:54Z</time>
      </trkpt>
      <trkpt lat="44.77835" lon="6.03491">
        <ele>875</ele>
        <time>2021-06-26T13:45:57Z</time>
      </trkpt>
      <trkpt lat="44.7782" lon="6.03463">
        <ele>872.6</ele>
        <time>2021-06-26T13:45:59Z</time>
      </trkpt>
      <trkpt lat="44.77813" lon="6.03449">
        <ele>872.2</ele>
        <time>2021-06-26T13:46:00Z</time>
      </trkpt>
      <trkpt lat="44.77808" lon="6.03436">
        <ele>870.8</ele>
        <time>2021-06-26T13:46:01Z</time>
      </trkpt>
      <trkpt lat="44.77801" lon="6.03405">
        <ele>869.6</ele>
        <time>2021-06-26T13:46:03Z</time>
      </trkpt>
      <trkpt lat="44.77799" lon="6.0339">
        <ele>868.2</ele>
        <time>2021-06-26T13:46:04Z</time>
      </trkpt>
      <trkpt lat="44.77797" lon="6.03377">
        <ele>867.8</ele>
        <time>2021-06-26T13:46:05Z</time>
      </trkpt>
      <trkpt lat="44.77795" lon="6.03365">
        <ele>867.2</ele>
        <time>2021-06-26T13:46:06Z</time>
      </trkpt>
      <trkpt lat="44.77785" lon="6.0335">
        <ele>865.8</ele>
        <time>2021-06-26T13:46:08Z</time>
      </trkpt>
      <trkpt lat="44.77771" lon="6.03347">
        <ele>864.2</ele>
        <time>2021-06-26T13:46:10Z</time>
      </trkpt>
      <trkpt lat="44.77763" lon="6.03354">
        <ele>863.2</ele>
        <time>2021-06-26T13:46:11Z</time>
      </trkpt>
      <trkpt lat="44.77756" lon="6.03365">
        <ele>862.8</ele>
        <time>2021-06-26T13:46:12Z</time>
      </trkpt>
      <trkpt lat="44.77752" lon="6.03375">
        <ele>862</ele>
        <time>2021-06-26T13:46:13Z</time>
      </trkpt>
      <trkpt lat="44.77743" lon="6.03398">
        <ele>860.8</ele>
        <time>2021-06-26T13:46:15Z</time>
      </trkpt>
      <trkpt lat="44.77738" lon="6.03408">
        <ele>860</ele>
        <time>2021-06-26T13:46:16Z</time>
      </trkpt>
      <trkpt lat="44.77732" lon="6.03417">
        <ele>859.8</ele>
        <time>2021-06-26T13:46:17Z</time>
      </trkpt>
      <trkpt lat="44.77727" lon="6.03425">
        <ele>859.2</ele>
        <time>2021-06-26T13:46:18Z</time>
      </trkpt>
      <trkpt lat="44.77708" lon="6.03442">
        <ele>858.6</ele>
        <time>2021-06-26T13:46:21Z</time>
      </trkpt>
      <trkpt lat="44.77702" lon="6.03446">
        <ele>858.6</ele>
        <time>2021-06-26T13:46:22Z</time>
      </trkpt>
      <trkpt lat="44.77683" lon="6.03457">
        <ele>858.8</ele>
        <time>2021-06-26T13:46:26Z</time>
      </trkpt>
      <trkpt lat="44.77666" lon="6.03465">
        <ele>859.8</ele>
        <time>2021-06-26T13:46:31Z</time>
      </trkpt>
      <trkpt lat="44.77659" lon="6.03469">
        <ele>860</ele>
        <time>2021-06-26T13:46:33Z</time>
      </trkpt>
      <trkpt lat="44.77646" lon="6.03475">
        <ele>860.2</ele>
        <time>2021-06-26T13:46:38Z</time>
      </trkpt>
      <trkpt lat="44.77628" lon="6.03479">
        <ele>860.2</ele>
        <time>2021-06-26T13:46:43Z</time>
      </trkpt>
      <trkpt lat="44.77614" lon="6.03481">
        <ele>860.6</ele>
        <time>2021-06-26T13:46:46Z</time>
      </trkpt>
      <trkpt lat="44.77606" lon="6.03486">
        <ele>860.4</ele>
        <time>2021-06-26T13:46:48Z</time>
      </trkpt>
      <trkpt lat="44.776" lon="6.03494">
        <ele>860.6</ele>
        <time>2021-06-26T13:46:50Z</time>
      </trkpt>
      <trkpt lat="44.77595" lon="6.03504">
        <ele>860.6</ele>
        <time>2021-06-26T13:46:52Z</time>
      </trkpt>
      <trkpt lat="44.77594" lon="6.03509">
        <ele>860.8</ele>
        <time>2021-06-26T13:46:53Z</time>
      </trkpt>
      <trkpt lat="44.77594" lon="6.03514">
        <ele>861</ele>
        <time>2021-06-26T13:46:54Z</time>
      </trkpt>
      <trkpt lat="44.7759" lon="6.03544">
        <ele>862.4</ele>
        <time>2021-06-26T13:47:00Z</time>
      </trkpt>
      <trkpt lat="44.77587" lon="6.03579">
        <ele>863.4</ele>
        <time>2021-06-26T13:47:07Z</time>
      </trkpt>
      <trkpt lat="44.77587" lon="6.03584">
        <ele>863.4</ele>
        <time>2021-06-26T13:47:08Z</time>
      </trkpt>
      <trkpt lat="44.77585" lon="6.03599">
        <ele>864.8</ele>
        <time>2021-06-26T13:47:12Z</time>
      </trkpt>
      <trkpt lat="44.77585" lon="6.0361">
        <ele>865.2</ele>
        <time>2021-06-26T13:47:15Z</time>
      </trkpt>
      <trkpt lat="44.77584" lon="6.03625">
        <ele>866</ele>
        <time>2021-06-26T13:47:19Z</time>
      </trkpt>
      <trkpt lat="44.77583" lon="6.03644">
        <ele>867</ele>
        <time>2021-06-26T13:47:24Z</time>
      </trkpt>
      <trkpt lat="44.77581" lon="6.03663">
        <ele>868.2</ele>
        <time>2021-06-26T13:47:29Z</time>
      </trkpt>
      <trkpt lat="44.7758" lon="6.0367">
        <ele>869</ele>
        <time>2021-06-26T13:47:31Z</time>
      </trkpt>
      <trkpt lat="44.77578" lon="6.03676">
        <ele>869.2</ele>
        <time>2021-06-26T13:47:33Z</time>
      </trkpt>
      <trkpt lat="44.77574" lon="6.03681">
        <ele>869.8</ele>
        <time>2021-06-26T13:47:36Z</time>
      </trkpt>
      <trkpt lat="44.77571" lon="6.03682">
        <ele>870.6</ele>
        <time>2021-06-26T13:47:38Z</time>
      </trkpt>
      <trkpt lat="44.77563" lon="6.03681">
        <ele>871.6</ele>
        <time>2021-06-26T13:47:42Z</time>
      </trkpt>
      <trkpt lat="44.7756" lon="6.03679">
        <ele>872</ele>
        <time>2021-06-26T13:47:44Z</time>
      </trkpt>
      <trkpt lat="44.77551" lon="6.03672">
        <ele>872.8</ele>
        <time>2021-06-26T13:47:48Z</time>
      </trkpt>
      <trkpt lat="44.77544" lon="6.03665">
        <ele>873.4</ele>
        <time>2021-06-26T13:47:51Z</time>
      </trkpt>
      <trkpt lat="44.7754" lon="6.0366">
        <ele>873.8</ele>
        <time>2021-06-26T13:47:53Z</time>
      </trkpt>
      <trkpt lat="44.77535" lon="6.03654">
        <ele>875.2</ele>
        <time>2021-06-26T13:47:56Z</time>
      </trkpt>
      <trkpt lat="44.77532" lon="6.03649">
        <ele>875.6</ele>
        <time>2021-06-26T13:47:58Z</time>
      </trkpt>
      <trkpt lat="44.77521" lon="6.03638">
        <ele>876.2</ele>
        <time>2021-06-26T13:48:04Z</time>
      </trkpt>
      <trkpt lat="44.77515" lon="6.0363">
        <ele>877.2</ele>
        <time>2021-06-26T13:48:08Z</time>
      </trkpt>
      <trkpt lat="44.77511" lon="6.03626">
        <ele>877.6</ele>
        <time>2021-06-26T13:48:10Z</time>
      </trkpt>
      <trkpt lat="44.77502" lon="6.03617">
        <ele>878.4</ele>
        <time>2021-06-26T13:48:15Z</time>
      </trkpt>
      <trkpt lat="44.77495" lon="6.03607">
        <ele>879.2</ele>
        <time>2021-06-26T13:48:19Z</time>
      </trkpt>
      <trkpt lat="44.77492" lon="6.03603">
        <ele>879.6</ele>
        <time>2021-06-26T13:48:21Z</time>
      </trkpt>
      <trkpt lat="44.77482" lon="6.03592">
        <ele>881.2</ele>
        <time>2021-06-26T13:48:26Z</time>
      </trkpt>
      <trkpt lat="44.77477" lon="6.03584">
        <ele>882</ele>
        <time>2021-06-26T13:48:29Z</time>
      </trkpt>
      <trkpt lat="44.77475" lon="6.03582">
        <ele>882.2</ele>
        <time>2021-06-26T13:48:30Z</time>
      </trkpt>
      <trkpt lat="44.77468" lon="6.03571">
        <ele>883.2</ele>
        <time>2021-06-26T13:48:35Z</time>
      </trkpt>
      <trkpt lat="44.77461" lon="6.03564">
        <ele>884.2</ele>
        <time>2021-06-26T13:48:39Z</time>
      </trkpt>
      <trkpt lat="44.77455" lon="6.0356">
        <ele>885.4</ele>
        <time>2021-06-26T13:48:44Z</time>
      </trkpt>
      <trkpt lat="44.77454" lon="6.0356">
        <ele>885.4</ele>
        <time>2021-06-26T13:48:45Z</time>
      </trkpt>
      <trkpt lat="44.77448" lon="6.03554">
        <ele>886</ele>
        <time>2021-06-26T13:48:51Z</time>
      </trkpt>
      <trkpt lat="44.77447" lon="6.0355">
        <ele>886.2</ele>
        <time>2021-06-26T13:48:53Z</time>
      </trkpt>
      <trkpt lat="44.77444" lon="6.03535">
        <ele>886.2</ele>
        <time>2021-06-26T13:48:57Z</time>
      </trkpt>
      <trkpt lat="44.77442" lon="6.03531">
        <ele>886.2</ele>
        <time>2021-06-26T13:48:58Z</time>
      </trkpt>
      <trkpt lat="44.77429" lon="6.035">
        <ele>886.4</ele>
        <time>2021-06-26T13:49:05Z</time>
      </trkpt>
      <trkpt lat="44.77417" lon="6.03473">
        <ele>886.4</ele>
        <time>2021-06-26T13:49:11Z</time>
      </trkpt>
      <trkpt lat="44.77412" lon="6.03449">
        <ele>886.2</ele>
        <time>2021-06-26T13:49:15Z</time>
      </trkpt>
      <trkpt lat="44.7741" lon="6.03437">
        <ele>886.2</ele>
        <time>2021-06-26T13:49:17Z</time>
      </trkpt>
      <trkpt lat="44.77405" lon="6.03407">
        <ele>886</ele>
        <time>2021-06-26T13:49:23Z</time>
      </trkpt>
      <trkpt lat="44.774" lon="6.03397">
        <ele>886.2</ele>
        <time>2021-06-26T13:49:28Z</time>
      </trkpt>
      <trkpt lat="44.77398" lon="6.03396">
        <ele>886.2</ele>
        <time>2021-06-26T13:49:29Z</time>
      </trkpt>
      <trkpt lat="44.77394" lon="6.034">
        <ele>886</ele>
        <time>2021-06-26T13:49:31Z</time>
      </trkpt>
      <trkpt lat="44.77394" lon="6.03408">
        <ele>886.8</ele>
        <time>2021-06-26T13:49:34Z</time>
      </trkpt>
      <trkpt lat="44.77395" lon="6.03414">
        <ele>887</ele>
        <time>2021-06-26T13:49:36Z</time>
      </trkpt>
      <trkpt lat="44.77395" lon="6.03431">
        <ele>888</ele>
        <time>2021-06-26T13:49:41Z</time>
      </trkpt>
      <trkpt lat="44.77395" lon="6.03435">
        <ele>888.2</ele>
        <time>2021-06-26T13:49:42Z</time>
      </trkpt>
      <trkpt lat="44.77392" lon="6.0345">
        <ele>889</ele>
        <time>2021-06-26T13:49:46Z</time>
      </trkpt>
      <trkpt lat="44.77389" lon="6.03461">
        <ele>889.6</ele>
        <time>2021-06-26T13:49:49Z</time>
      </trkpt>
      <trkpt lat="44.77387" lon="6.03468">
        <ele>890</ele>
        <time>2021-06-26T13:49:52Z</time>
      </trkpt>
      <trkpt lat="44.77386" lon="6.03474">
        <ele>890.2</ele>
        <time>2021-06-26T13:49:54Z</time>
      </trkpt>
      <trkpt lat="44.77384" lon="6.03491">
        <ele>891</ele>
        <time>2021-06-26T13:50:00Z</time>
      </trkpt>
      <trkpt lat="44.77384" lon="6.03492">
        <ele>891</ele>
        <time>2021-06-26T13:50:01Z</time>
      </trkpt>
      <trkpt lat="44.77385" lon="6.03494">
        <ele>891.4</ele>
        <time>2021-06-26T13:50:02Z</time>
      </trkpt>
      <trkpt lat="44.77386" lon="6.03493">
        <ele>891.6</ele>
        <time>2021-06-26T13:50:03Z</time>
      </trkpt>
      <trkpt lat="44.77387" lon="6.03488">
        <ele>891.8</ele>
        <time>2021-06-26T13:50:05Z</time>
      </trkpt>
      <trkpt lat="44.77387" lon="6.03482">
        <ele>891.8</ele>
        <time>2021-06-26T13:50:07Z</time>
      </trkpt>
      <trkpt lat="44.77392" lon="6.03466">
        <ele>891.6</ele>
        <time>2021-06-26T13:50:11Z</time>
      </trkpt>
      <trkpt lat="44.77396" lon="6.03452">
        <ele>891</ele>
        <time>2021-06-26T13:50:15Z</time>
      </trkpt>
      <trkpt lat="44.77396" lon="6.03448">
        <ele>890.4</ele>
        <time>2021-06-26T13:50:17Z</time>
      </trkpt>
      <trkpt lat="44.77397" lon="6.03443">
        <ele>890</ele>
        <time>2021-06-26T13:50:20Z</time>
      </trkpt>
      <trkpt lat="44.77397" lon="6.0344">
        <ele>889.2</ele>
        <time>2021-06-26T13:50:24Z</time>
      </trkpt>
      <trkpt lat="44.77397" lon="6.03443">
        <ele>889.2</ele>
        <time>2021-06-26T13:50:26Z</time>
      </trkpt>
      <trkpt lat="44.77396" lon="6.03448">
        <ele>889.2</ele>
        <time>2021-06-26T13:50:29Z</time>
      </trkpt>
      <trkpt lat="44.77393" lon="6.03452">
        <ele>889.6</ele>
        <time>2021-06-26T13:50:33Z</time>
      </trkpt>
      <trkpt lat="44.77393" lon="6.03454">
        <ele>889.6</ele>
        <time>2021-06-26T13:50:34Z</time>
      </trkpt>
      <trkpt lat="44.77392" lon="6.03458">
        <ele>890</ele>
        <time>2021-06-26T13:50:40Z</time>
      </trkpt>
      <trkpt lat="44.77388" lon="6.03465">
        <ele>889.6</ele>
        <time>2021-06-26T13:51:16Z</time>
      </trkpt>
      <trkpt lat="44.77387" lon="6.03471">
        <ele>889.6</ele>
        <time>2021-06-26T13:51:18Z</time>
      </trkpt>
      <trkpt lat="44.77385" lon="6.03485">
        <ele>890</ele>
        <time>2021-06-26T13:51:22Z</time>
      </trkpt>
      <trkpt lat="44.77386" lon="6.03495">
        <ele>890.4</ele>
        <time>2021-06-26T13:51:25Z</time>
      </trkpt>
      <trkpt lat="44.77387" lon="6.03498">
        <ele>890.6</ele>
        <time>2021-06-26T13:51:26Z</time>
      </trkpt>
      <trkpt lat="44.77396" lon="6.03521">
        <ele>891.4</ele>
        <time>2021-06-26T13:51:32Z</time>
      </trkpt>
      <trkpt lat="44.77397" lon="6.03525">
        <ele>891.6</ele>
        <time>2021-06-26T13:51:33Z</time>
      </trkpt>
      <trkpt lat="44.77398" lon="6.0355">
        <ele>892.8</ele>
        <time>2021-06-26T13:51:39Z</time>
      </trkpt>
      <trkpt lat="44.77398" lon="6.0356">
        <ele>893</ele>
        <time>2021-06-26T13:51:41Z</time>
      </trkpt>
      <trkpt lat="44.77396" lon="6.03591">
        <ele>893.4</ele>
        <time>2021-06-26T13:51:48Z</time>
      </trkpt>
      <trkpt lat="44.77394" lon="6.0361">
        <ele>894</ele>
        <time>2021-06-26T13:51:53Z</time>
      </trkpt>
      <trkpt lat="44.77393" lon="6.03613">
        <ele>894.2</ele>
        <time>2021-06-26T13:51:54Z</time>
      </trkpt>
      <trkpt lat="44.77393" lon="6.03628">
        <ele>895</ele>
        <time>2021-06-26T13:51:59Z</time>
      </trkpt>
      <trkpt lat="44.77392" lon="6.03635">
        <ele>895.4</ele>
        <time>2021-06-26T13:52:01Z</time>
      </trkpt>
      <trkpt lat="44.77391" lon="6.03643">
        <ele>896.2</ele>
        <time>2021-06-26T13:52:04Z</time>
      </trkpt>
      <trkpt lat="44.77389" lon="6.03654">
        <ele>897</ele>
        <time>2021-06-26T13:52:08Z</time>
      </trkpt>
      <trkpt lat="44.77388" lon="6.03659">
        <ele>897.2</ele>
        <time>2021-06-26T13:52:10Z</time>
      </trkpt>
      <trkpt lat="44.77385" lon="6.03673">
        <ele>898.4</ele>
        <time>2021-06-26T13:52:15Z</time>
      </trkpt>
      <trkpt lat="44.77384" lon="6.03675">
        <ele>898.6</ele>
        <time>2021-06-26T13:52:16Z</time>
      </trkpt>
      <trkpt lat="44.77382" lon="6.03683">
        <ele>899</ele>
        <time>2021-06-26T13:52:19Z</time>
      </trkpt>
      <trkpt lat="44.77379" lon="6.0369">
        <ele>899.6</ele>
        <time>2021-06-26T13:52:22Z</time>
      </trkpt>
      <trkpt lat="44.77376" lon="6.03699">
        <ele>900.8</ele>
        <time>2021-06-26T13:52:26Z</time>
      </trkpt>
      <trkpt lat="44.77374" lon="6.03706">
        <ele>901.8</ele>
        <time>2021-06-26T13:52:29Z</time>
      </trkpt>
      <trkpt lat="44.77372" lon="6.03714">
        <ele>902.6</ele>
        <time>2021-06-26T13:52:32Z</time>
      </trkpt>
      <trkpt lat="44.7737" lon="6.03718">
        <ele>903</ele>
        <time>2021-06-26T13:52:34Z</time>
      </trkpt>
      <trkpt lat="44.77367" lon="6.0373">
        <ele>903.8</ele>
        <time>2021-06-26T13:52:39Z</time>
      </trkpt>
      <trkpt lat="44.77365" lon="6.03735">
        <ele>904.4</ele>
        <time>2021-06-26T13:52:41Z</time>
      </trkpt>
      <trkpt lat="44.77363" lon="6.03743">
        <ele>905.4</ele>
        <time>2021-06-26T13:52:44Z</time>
      </trkpt>
      <trkpt lat="44.77358" lon="6.03754">
        <ele>906.6</ele>
        <time>2021-06-26T13:52:49Z</time>
      </trkpt>
      <trkpt lat="44.77355" lon="6.03762">
        <ele>907.8</ele>
        <time>2021-06-26T13:52:52Z</time>
      </trkpt>
      <trkpt lat="44.77351" lon="6.03774">
        <ele>908.8</ele>
        <time>2021-06-26T13:52:57Z</time>
      </trkpt>
      <trkpt lat="44.77349" lon="6.03781">
        <ele>910</ele>
        <time>2021-06-26T13:53:00Z</time>
      </trkpt>
      <trkpt lat="44.77344" lon="6.03789">
        <ele>911</ele>
        <time>2021-06-26T13:53:03Z</time>
      </trkpt>
      <trkpt lat="44.77343" lon="6.03792">
        <ele>911</ele>
        <time>2021-06-26T13:53:04Z</time>
      </trkpt>
      <trkpt lat="44.77339" lon="6.038">
        <ele>912.6</ele>
        <time>2021-06-26T13:53:07Z</time>
      </trkpt>
      <trkpt lat="44.77333" lon="6.03811">
        <ele>913.6</ele>
        <time>2021-06-26T13:53:11Z</time>
      </trkpt>
      <trkpt lat="44.77332" lon="6.0381">
        <ele>914</ele>
        <time>2021-06-26T13:53:12Z</time>
      </trkpt>
      <trkpt lat="44.77331" lon="6.03813">
        <ele>914.6</ele>
        <time>2021-06-26T13:53:14Z</time>
      </trkpt>
      <trkpt lat="44.77326" lon="6.03822">
        <ele>915.2</ele>
        <time>2021-06-26T13:53:17Z</time>
      </trkpt>
      <trkpt lat="44.77325" lon="6.0383">
        <ele>916</ele>
        <time>2021-06-26T13:53:20Z</time>
      </trkpt>
      <trkpt lat="44.77322" lon="6.03837">
        <ele>917</ele>
        <time>2021-06-26T13:53:23Z</time>
      </trkpt>
      <trkpt lat="44.77323" lon="6.03841">
        <ele>917.6</ele>
        <time>2021-06-26T13:53:25Z</time>
      </trkpt>
      <trkpt lat="44.77323" lon="6.03852">
        <ele>918.2</ele>
        <time>2021-06-26T13:53:28Z</time>
      </trkpt>
      <trkpt lat="44.77321" lon="6.03869">
        <ele>919.4</ele>
        <time>2021-06-26T13:53:33Z</time>
      </trkpt>
      <trkpt lat="44.7732" lon="6.03872">
        <ele>919.6</ele>
        <time>2021-06-26T13:53:34Z</time>
      </trkpt>
      <trkpt lat="44.77323" lon="6.03889">
        <ele>921</ele>
        <time>2021-06-26T13:53:40Z</time>
      </trkpt>
      <trkpt lat="44.77324" lon="6.03898">
        <ele>921.6</ele>
        <time>2021-06-26T13:53:43Z</time>
      </trkpt>
      <trkpt lat="44.77325" lon="6.03903">
        <ele>922</ele>
        <time>2021-06-26T13:53:45Z</time>
      </trkpt>
      <trkpt lat="44.77331" lon="6.03919">
        <ele>923.4</ele>
        <time>2021-06-26T13:53:51Z</time>
      </trkpt>
      <trkpt lat="44.77332" lon="6.03925">
        <ele>923.8</ele>
        <time>2021-06-26T13:53:53Z</time>
      </trkpt>
      <trkpt lat="44.77327" lon="6.03936">
        <ele>924.4</ele>
        <time>2021-06-26T13:53:57Z</time>
      </trkpt>
      <trkpt lat="44.77325" lon="6.03937">
        <ele>924.6</ele>
        <time>2021-06-26T13:53:58Z</time>
      </trkpt>
      <trkpt lat="44.77314" lon="6.03937">
        <ele>925.4</ele>
        <time>2021-06-26T13:54:03Z</time>
      </trkpt>
      <trkpt lat="44.77312" lon="6.03936">
        <ele>925.8</ele>
        <time>2021-06-26T13:54:04Z</time>
      </trkpt>
      <trkpt lat="44.773" lon="6.03926">
        <ele>926.6</ele>
        <time>2021-06-26T13:54:10Z</time>
      </trkpt>
      <trkpt lat="44.77297" lon="6.03922">
        <ele>927.2</ele>
        <time>2021-06-26T13:54:12Z</time>
      </trkpt>
      <trkpt lat="44.77295" lon="6.0392">
        <ele>927.8</ele>
        <time>2021-06-26T13:54:13Z</time>
      </trkpt>
      <trkpt lat="44.77287" lon="6.03913">
        <ele>928.8</ele>
        <time>2021-06-26T13:54:17Z</time>
      </trkpt>
      <trkpt lat="44.77278" lon="6.03903">
        <ele>929.2</ele>
        <time>2021-06-26T13:54:22Z</time>
      </trkpt>
      <trkpt lat="44.77272" lon="6.03897">
        <ele>930</ele>
        <time>2021-06-26T13:54:25Z</time>
      </trkpt>
      <trkpt lat="44.77265" lon="6.0389">
        <ele>931</ele>
        <time>2021-06-26T13:54:29Z</time>
      </trkpt>
      <trkpt lat="44.7726" lon="6.03884">
        <ele>932.2</ele>
        <time>2021-06-26T13:54:32Z</time>
      </trkpt>
      <trkpt lat="44.77258" lon="6.03881">
        <ele>932.8</ele>
        <time>2021-06-26T13:54:34Z</time>
      </trkpt>
      <trkpt lat="44.77255" lon="6.03877">
        <ele>933.2</ele>
        <time>2021-06-26T13:54:36Z</time>
      </trkpt>
      <trkpt lat="44.77246" lon="6.03869">
        <ele>934.6</ele>
        <time>2021-06-26T13:54:41Z</time>
      </trkpt>
      <trkpt lat="44.77245" lon="6.03867">
        <ele>934.8</ele>
        <time>2021-06-26T13:54:42Z</time>
      </trkpt>
      <trkpt lat="44.77242" lon="6.03863">
        <ele>935.2</ele>
        <time>2021-06-26T13:54:44Z</time>
      </trkpt>
      <trkpt lat="44.77239" lon="6.0386">
        <ele>935.6</ele>
        <time>2021-06-26T13:54:46Z</time>
      </trkpt>
      <trkpt lat="44.77237" lon="6.03857">
        <ele>935.8</ele>
        <time>2021-06-26T13:54:48Z</time>
      </trkpt>
      <trkpt lat="44.77231" lon="6.03847">
        <ele>937</ele>
        <time>2021-06-26T13:54:52Z</time>
      </trkpt>
      <trkpt lat="44.7722" lon="6.03832">
        <ele>937.8</ele>
        <time>2021-06-26T13:54:57Z</time>
      </trkpt>
      <trkpt lat="44.77213" lon="6.03819">
        <ele>939</ele>
        <time>2021-06-26T13:55:02Z</time>
      </trkpt>
      <trkpt lat="44.77212" lon="6.03817">
        <ele>939</ele>
        <time>2021-06-26T13:55:03Z</time>
      </trkpt>
      <trkpt lat="44.77205" lon="6.03805">
        <ele>940.2</ele>
        <time>2021-06-26T13:55:07Z</time>
      </trkpt>
      <trkpt lat="44.77202" lon="6.03797">
        <ele>941</ele>
        <time>2021-06-26T13:55:11Z</time>
      </trkpt>
      <trkpt lat="44.77201" lon="6.03795">
        <ele>941.4</ele>
        <time>2021-06-26T13:55:13Z</time>
      </trkpt>
      <trkpt lat="44.77195" lon="6.03785">
        <ele>942.4</ele>
        <time>2021-06-26T13:55:17Z</time>
      </trkpt>
      <trkpt lat="44.7719" lon="6.03774">
        <ele>943.8</ele>
        <time>2021-06-26T13:55:22Z</time>
      </trkpt>
      <trkpt lat="44.77189" lon="6.03773">
        <ele>944.2</ele>
        <time>2021-06-26T13:55:23Z</time>
      </trkpt>
      <trkpt lat="44.77182" lon="6.03764">
        <ele>944.8</ele>
        <time>2021-06-26T13:55:27Z</time>
      </trkpt>
      <trkpt lat="44.77181" lon="6.03763">
        <ele>945</ele>
        <time>2021-06-26T13:55:28Z</time>
      </trkpt>
      <trkpt lat="44.7717" lon="6.03751">
        <ele>946</ele>
        <time>2021-06-26T13:55:33Z</time>
      </trkpt>
      <trkpt lat="44.77169" lon="6.03749">
        <ele>946.2</ele>
        <time>2021-06-26T13:55:34Z</time>
      </trkpt>
      <trkpt lat="44.77158" lon="6.03736">
        <ele>947.2</ele>
        <time>2021-06-26T13:55:39Z</time>
      </trkpt>
      <trkpt lat="44.77154" lon="6.03731">
        <ele>947.8</ele>
        <time>2021-06-26T13:55:41Z</time>
      </trkpt>
      <trkpt lat="44.7715" lon="6.03726">
        <ele>948.2</ele>
        <time>2021-06-26T13:55:43Z</time>
      </trkpt>
      <trkpt lat="44.77141" lon="6.0371">
        <ele>949.2</ele>
        <time>2021-06-26T13:55:48Z</time>
      </trkpt>
      <trkpt lat="44.77139" lon="6.03707">
        <ele>949.6</ele>
        <time>2021-06-26T13:55:49Z</time>
      </trkpt>
      <trkpt lat="44.77128" lon="6.03693">
        <ele>950.6</ele>
        <time>2021-06-26T13:55:55Z</time>
      </trkpt>
      <trkpt lat="44.77124" lon="6.03688">
        <ele>951</ele>
        <time>2021-06-26T13:55:57Z</time>
      </trkpt>
      <trkpt lat="44.77119" lon="6.03682">
        <ele>951.8</ele>
        <time>2021-06-26T13:56:00Z</time>
      </trkpt>
      <trkpt lat="44.77109" lon="6.03674">
        <ele>952.6</ele>
        <time>2021-06-26T13:56:05Z</time>
      </trkpt>
      <trkpt lat="44.77107" lon="6.03673">
        <ele>952.8</ele>
        <time>2021-06-26T13:56:06Z</time>
      </trkpt>
      <trkpt lat="44.77097" lon="6.03667">
        <ele>953.8</ele>
        <time>2021-06-26T13:56:11Z</time>
      </trkpt>
      <trkpt lat="44.77087" lon="6.03662">
        <ele>954.6</ele>
        <time>2021-06-26T13:56:15Z</time>
      </trkpt>
      <trkpt lat="44.77083" lon="6.0366">
        <ele>955</ele>
        <time>2021-06-26T13:56:17Z</time>
      </trkpt>
      <trkpt lat="44.77072" lon="6.03655">
        <ele>955.4</ele>
        <time>2021-06-26T13:56:22Z</time>
      </trkpt>
      <trkpt lat="44.77067" lon="6.03653">
        <ele>956</ele>
        <time>2021-06-26T13:56:24Z</time>
      </trkpt>
      <trkpt lat="44.77063" lon="6.03651">
        <ele>956.4</ele>
        <time>2021-06-26T13:56:26Z</time>
      </trkpt>
      <trkpt lat="44.77052" lon="6.03647">
        <ele>957.4</ele>
        <time>2021-06-26T13:56:30Z</time>
      </trkpt>
      <trkpt lat="44.77047" lon="6.03644">
        <ele>957.8</ele>
        <time>2021-06-26T13:56:32Z</time>
      </trkpt>
      <trkpt lat="44.7704" lon="6.03641">
        <ele>958.4</ele>
        <time>2021-06-26T13:56:35Z</time>
      </trkpt>
      <trkpt lat="44.77034" lon="6.03644">
        <ele>959.2</ele>
        <time>2021-06-26T13:56:38Z</time>
      </trkpt>
      <trkpt lat="44.77032" lon="6.03645">
        <ele>959.4</ele>
        <time>2021-06-26T13:56:39Z</time>
      </trkpt>
      <trkpt lat="44.77031" lon="6.03645">
        <ele>959.6</ele>
        <time>2021-06-26T13:56:40Z</time>
      </trkpt>
      <trkpt lat="44.77021" lon="6.03646">
        <ele>960.6</ele>
        <time>2021-06-26T13:56:45Z</time>
      </trkpt>
      <trkpt lat="44.77016" lon="6.03646">
        <ele>961.4</ele>
        <time>2021-06-26T13:56:47Z</time>
      </trkpt>
      <trkpt lat="44.77011" lon="6.03646">
        <ele>961.8</ele>
        <time>2021-06-26T13:56:49Z</time>
      </trkpt>
      <trkpt lat="44.76987" lon="6.0365">
        <ele>963</ele>
        <time>2021-06-26T13:56:58Z</time>
      </trkpt>
      <trkpt lat="44.7697" lon="6.03653">
        <ele>964.2</ele>
        <time>2021-06-26T13:57:05Z</time>
      </trkpt>
      <trkpt lat="44.76962" lon="6.03654">
        <ele>965.2</ele>
        <time>2021-06-26T13:57:08Z</time>
      </trkpt>
      <trkpt lat="44.76948" lon="6.03657">
        <ele>966.2</ele>
        <time>2021-06-26T13:57:14Z</time>
      </trkpt>
      <trkpt lat="44.76937" lon="6.03659">
        <ele>966.8</ele>
        <time>2021-06-26T13:57:18Z</time>
      </trkpt>
      <trkpt lat="44.76929" lon="6.03659">
        <ele>967.4</ele>
        <time>2021-06-26T13:57:21Z</time>
      </trkpt>
      <trkpt lat="44.7692" lon="6.03658">
        <ele>968</ele>
        <time>2021-06-26T13:57:25Z</time>
      </trkpt>
      <trkpt lat="44.76913" lon="6.03655">
        <ele>968.4</ele>
        <time>2021-06-26T13:57:29Z</time>
      </trkpt>
      <trkpt lat="44.76903" lon="6.0365">
        <ele>969.6</ele>
        <time>2021-06-26T13:57:33Z</time>
      </trkpt>
      <trkpt lat="44.76902" lon="6.03649">
        <ele>969.8</ele>
        <time>2021-06-26T13:57:34Z</time>
      </trkpt>
      <trkpt lat="44.76896" lon="6.03643">
        <ele>970.6</ele>
        <time>2021-06-26T13:57:37Z</time>
      </trkpt>
      <trkpt lat="44.76888" lon="6.0363">
        <ele>971.4</ele>
        <time>2021-06-26T13:57:42Z</time>
      </trkpt>
      <trkpt lat="44.76886" lon="6.03624">
        <ele>971.8</ele>
        <time>2021-06-26T13:57:44Z</time>
      </trkpt>
      <trkpt lat="44.76885" lon="6.0361">
        <ele>972.4</ele>
        <time>2021-06-26T13:57:48Z</time>
      </trkpt>
      <trkpt lat="44.76886" lon="6.03604">
        <ele>972.8</ele>
        <time>2021-06-26T13:57:50Z</time>
      </trkpt>
      <trkpt lat="44.76889" lon="6.03585">
        <ele>973.8</ele>
        <time>2021-06-26T13:57:55Z</time>
      </trkpt>
      <trkpt lat="44.7689" lon="6.03582">
        <ele>974</ele>
        <time>2021-06-26T13:57:56Z</time>
      </trkpt>
      <trkpt lat="44.76895" lon="6.03569">
        <ele>975</ele>
        <time>2021-06-26T13:58:00Z</time>
      </trkpt>
      <trkpt lat="44.76898" lon="6.03562">
        <ele>975.2</ele>
        <time>2021-06-26T13:58:02Z</time>
      </trkpt>
      <trkpt lat="44.76903" lon="6.03552">
        <ele>976.2</ele>
        <time>2021-06-26T13:58:05Z</time>
      </trkpt>
      <trkpt lat="44.76911" lon="6.03533">
        <ele>977.2</ele>
        <time>2021-06-26T13:58:11Z</time>
      </trkpt>
      <trkpt lat="44.76913" lon="6.03523">
        <ele>978.2</ele>
        <time>2021-06-26T13:58:14Z</time>
      </trkpt>
      <trkpt lat="44.76915" lon="6.03515">
        <ele>978.8</ele>
        <time>2021-06-26T13:58:17Z</time>
      </trkpt>
      <trkpt lat="44.76915" lon="6.03512">
        <ele>979</ele>
        <time>2021-06-26T13:58:18Z</time>
      </trkpt>
      <trkpt lat="44.76915" lon="6.03509">
        <ele>979.4</ele>
        <time>2021-06-26T13:58:19Z</time>
      </trkpt>
      <trkpt lat="44.76915" lon="6.03497">
        <ele>980.4</ele>
        <time>2021-06-26T13:58:23Z</time>
      </trkpt>
      <trkpt lat="44.76915" lon="6.03492">
        <ele>981</ele>
        <time>2021-06-26T13:58:25Z</time>
      </trkpt>
      <trkpt lat="44.76916" lon="6.03484">
        <ele>981.8</ele>
        <time>2021-06-26T13:58:28Z</time>
      </trkpt>
      <trkpt lat="44.76917" lon="6.03472">
        <ele>982.8</ele>
        <time>2021-06-26T13:58:32Z</time>
      </trkpt>
      <trkpt lat="44.76917" lon="6.0346">
        <ele>984.2</ele>
        <time>2021-06-26T13:58:36Z</time>
      </trkpt>
      <trkpt lat="44.76917" lon="6.03449">
        <ele>985.4</ele>
        <time>2021-06-26T13:58:40Z</time>
      </trkpt>
      <trkpt lat="44.76917" lon="6.03436">
        <ele>986.4</ele>
        <time>2021-06-26T13:58:44Z</time>
      </trkpt>
      <trkpt lat="44.76917" lon="6.03426">
        <ele>987.4</ele>
        <time>2021-06-26T13:58:47Z</time>
      </trkpt>
      <trkpt lat="44.76917" lon="6.03424">
        <ele>987.6</ele>
        <time>2021-06-26T13:58:48Z</time>
      </trkpt>
      <trkpt lat="44.76918" lon="6.03411">
        <ele>988.6</ele>
        <time>2021-06-26T13:58:52Z</time>
      </trkpt>
      <trkpt lat="44.76919" lon="6.03406">
        <ele>989.2</ele>
        <time>2021-06-26T13:58:54Z</time>
      </trkpt>
      <trkpt lat="44.7692" lon="6.034">
        <ele>989.8</ele>
        <time>2021-06-26T13:58:56Z</time>
      </trkpt>
      <trkpt lat="44.76921" lon="6.03392">
        <ele>990.8</ele>
        <time>2021-06-26T13:58:59Z</time>
      </trkpt>
      <trkpt lat="44.76923" lon="6.03386">
        <ele>991.4</ele>
        <time>2021-06-26T13:59:01Z</time>
      </trkpt>
      <trkpt lat="44.76925" lon="6.03382">
        <ele>991.8</ele>
        <time>2021-06-26T13:59:03Z</time>
      </trkpt>
      <trkpt lat="44.76931" lon="6.03368">
        <ele>993</ele>
        <time>2021-06-26T13:59:08Z</time>
      </trkpt>
      <trkpt lat="44.76933" lon="6.03363">
        <ele>993.2</ele>
        <time>2021-06-26T13:59:09Z</time>
      </trkpt>
      <trkpt lat="44.76936" lon="6.03354">
        <ele>994</ele>
        <time>2021-06-26T13:59:12Z</time>
      </trkpt>
      <trkpt lat="44.76939" lon="6.03344">
        <ele>995</ele>
        <time>2021-06-26T13:59:15Z</time>
      </trkpt>
      <trkpt lat="44.7694" lon="6.03342">
        <ele>995.2</ele>
        <time>2021-06-26T13:59:16Z</time>
      </trkpt>
      <trkpt lat="44.76943" lon="6.0333">
        <ele>996</ele>
        <time>2021-06-26T13:59:20Z</time>
      </trkpt>
      <trkpt lat="44.76945" lon="6.03325">
        <ele>996.4</ele>
        <time>2021-06-26T13:59:22Z</time>
      </trkpt>
      <trkpt lat="44.76946" lon="6.03319">
        <ele>996.6</ele>
        <time>2021-06-26T13:59:24Z</time>
      </trkpt>
      <trkpt lat="44.76946" lon="6.03312">
        <ele>996.8</ele>
        <time>2021-06-26T13:59:26Z</time>
      </trkpt>
      <trkpt lat="44.76942" lon="6.03298">
        <ele>997.4</ele>
        <time>2021-06-26T13:59:30Z</time>
      </trkpt>
      <trkpt lat="44.76941" lon="6.03295">
        <ele>997.6</ele>
        <time>2021-06-26T13:59:31Z</time>
      </trkpt>
      <trkpt lat="44.76936" lon="6.03287">
        <ele>998</ele>
        <time>2021-06-26T13:59:35Z</time>
      </trkpt>
      <trkpt lat="44.76931" lon="6.03279">
        <ele>998.4</ele>
        <time>2021-06-26T13:59:40Z</time>
      </trkpt>
      <trkpt lat="44.76926" lon="6.03274">
        <ele>998.6</ele>
        <time>2021-06-26T13:59:44Z</time>
      </trkpt>
      <trkpt lat="44.76913" lon="6.03263">
        <ele>998.6</ele>
        <time>2021-06-26T13:59:52Z</time>
      </trkpt>
      <trkpt lat="44.76898" lon="6.03252">
        <ele>998.4</ele>
        <time>2021-06-26T13:59:58Z</time>
      </trkpt>
      <trkpt lat="44.7688" lon="6.03237">
        <ele>997.6</ele>
        <time>2021-06-26T14:00:03Z</time>
      </trkpt>
      <trkpt lat="44.76876" lon="6.03234">
        <ele>997.4</ele>
        <time>2021-06-26T14:00:04Z</time>
      </trkpt>
      <trkpt lat="44.76871" lon="6.03231">
        <ele>997.2</ele>
        <time>2021-06-26T14:00:05Z</time>
      </trkpt>
      <trkpt lat="44.76855" lon="6.03228">
        <ele>996.8</ele>
        <time>2021-06-26T14:00:08Z</time>
      </trkpt>
      <trkpt lat="44.76849" lon="6.03228">
        <ele>996.8</ele>
        <time>2021-06-26T14:00:09Z</time>
      </trkpt>
      <trkpt lat="44.7683" lon="6.0323">
        <ele>996.4</ele>
        <time>2021-06-26T14:00:12Z</time>
      </trkpt>
      <trkpt lat="44.76824" lon="6.03231">
        <ele>996.2</ele>
        <time>2021-06-26T14:00:13Z</time>
      </trkpt>
      <trkpt lat="44.76804" lon="6.03235">
        <ele>995</ele>
        <time>2021-06-26T14:00:16Z</time>
      </trkpt>
      <trkpt lat="44.76785" lon="6.03241">
        <ele>994.6</ele>
        <time>2021-06-26T14:00:19Z</time>
      </trkpt>
      <trkpt lat="44.76765" lon="6.03247">
        <ele>994.2</ele>
        <time>2021-06-26T14:00:22Z</time>
      </trkpt>
      <trkpt lat="44.76753" lon="6.03247">
        <ele>994</ele>
        <time>2021-06-26T14:00:24Z</time>
      </trkpt>
      <trkpt lat="44.76743" lon="6.03248">
        <ele>993.8</ele>
        <time>2021-06-26T14:00:26Z</time>
      </trkpt>
      <trkpt lat="44.76736" lon="6.03251">
        <ele>993.6</ele>
        <time>2021-06-26T14:00:28Z</time>
      </trkpt>
      <trkpt lat="44.76721" lon="6.03262">
        <ele>994</ele>
        <time>2021-06-26T14:00:32Z</time>
      </trkpt>
      <trkpt lat="44.76713" lon="6.03271">
        <ele>995</ele>
        <time>2021-06-26T14:00:36Z</time>
      </trkpt>
      <trkpt lat="44.76711" lon="6.03272">
        <ele>995.4</ele>
        <time>2021-06-26T14:00:37Z</time>
      </trkpt>
      <trkpt lat="44.76713" lon="6.03272">
        <ele>995.8</ele>
        <time>2021-06-26T14:00:39Z</time>
      </trkpt>
      <trkpt lat="44.76723" lon="6.03261">
        <ele>996</ele>
        <time>2021-06-26T14:00:44Z</time>
      </trkpt>
      <trkpt lat="44.76736" lon="6.03249">
        <ele>995.6</ele>
        <time>2021-06-26T14:00:48Z</time>
      </trkpt>
      <trkpt lat="44.76751" lon="6.03244">
        <ele>993.8</ele>
        <time>2021-06-26T14:00:53Z</time>
      </trkpt>
      <trkpt lat="44.76757" lon="6.03243">
        <ele>993.2</ele>
        <time>2021-06-26T14:00:57Z</time>
      </trkpt>
      <trkpt lat="44.76758" lon="6.03243">
        <ele>993.2</ele>
        <time>2021-06-26T14:00:58Z</time>
      </trkpt>
      <trkpt lat="44.7676" lon="6.03242">
        <ele>993.4</ele>
        <time>2021-06-26T14:00:59Z</time>
      </trkpt>
      <trkpt lat="44.76759" lon="6.03237">
        <ele>992.8</ele>
        <time>2021-06-26T14:01:01Z</time>
      </trkpt>
      <trkpt lat="44.76757" lon="6.03236">
        <ele>992.8</ele>
        <time>2021-06-26T14:01:02Z</time>
      </trkpt>
      <trkpt lat="44.76753" lon="6.03237">
        <ele>992.2</ele>
        <time>2021-06-26T14:01:04Z</time>
      </trkpt>
      <trkpt lat="44.76745" lon="6.0324">
        <ele>992.2</ele>
        <time>2021-06-26T14:01:08Z</time>
      </trkpt>
      <trkpt lat="44.76742" lon="6.03242">
        <ele>992.4</ele>
        <time>2021-06-26T14:01:10Z</time>
      </trkpt>
      <trkpt lat="44.76739" lon="6.03244">
        <ele>992.8</ele>
        <time>2021-06-26T14:01:12Z</time>
      </trkpt>
      <trkpt lat="44.76737" lon="6.03243">
        <ele>993.2</ele>
        <time>2021-06-26T14:01:14Z</time>
      </trkpt>
      <trkpt lat="44.76736" lon="6.03244">
        <ele>993.4</ele>
        <time>2021-06-26T14:01:15Z</time>
      </trkpt>
      <trkpt lat="44.76737" lon="6.03245">
        <ele>993.6</ele>
        <time>2021-06-26T14:01:18Z</time>
      </trkpt>
      <trkpt lat="44.76738" lon="6.03244">
        <ele>993.6</ele>
        <time>2021-06-26T14:01:19Z</time>
      </trkpt>
      <trkpt lat="44.76741" lon="6.03243">
        <ele>993.6</ele>
        <time>2021-06-26T14:01:21Z</time>
      </trkpt>
      <trkpt lat="44.76742" lon="6.03242">
        <ele>993.6</ele>
        <time>2021-06-26T14:01:22Z</time>
      </trkpt>
      <trkpt lat="44.76745" lon="6.03242">
        <ele>993.6</ele>
        <time>2021-06-26T14:01:27Z</time>
      </trkpt>
      <trkpt lat="44.76742" lon="6.03241">
        <ele>993</ele>
        <time>2021-06-26T14:02:56Z</time>
      </trkpt>
      <trkpt lat="44.76728" lon="6.03247">
        <ele>993</ele>
        <time>2021-06-26T14:03:02Z</time>
      </trkpt>
      <trkpt lat="44.76713" lon="6.03261">
        <ele>993.4</ele>
        <time>2021-06-26T14:03:09Z</time>
      </trkpt>
      <trkpt lat="44.76706" lon="6.03269">
        <ele>994</ele>
        <time>2021-06-26T14:03:12Z</time>
      </trkpt>
      <trkpt lat="44.76698" lon="6.03276">
        <ele>994.8</ele>
        <time>2021-06-26T14:03:15Z</time>
      </trkpt>
      <trkpt lat="44.76693" lon="6.03279">
        <ele>995</ele>
        <time>2021-06-26T14:03:17Z</time>
      </trkpt>
      <trkpt lat="44.7668" lon="6.03287">
        <ele>995.8</ele>
        <time>2021-06-26T14:03:21Z</time>
      </trkpt>
      <trkpt lat="44.76674" lon="6.03291">
        <ele>996.2</ele>
        <time>2021-06-26T14:03:23Z</time>
      </trkpt>
      <trkpt lat="44.76663" lon="6.033">
        <ele>996.8</ele>
        <time>2021-06-26T14:03:27Z</time>
      </trkpt>
      <trkpt lat="44.76658" lon="6.03304">
        <ele>997.2</ele>
        <time>2021-06-26T14:03:29Z</time>
      </trkpt>
      <trkpt lat="44.76646" lon="6.03312">
        <ele>997.8</ele>
        <time>2021-06-26T14:03:33Z</time>
      </trkpt>
      <trkpt lat="44.76642" lon="6.03314">
        <ele>998.2</ele>
        <time>2021-06-26T14:03:35Z</time>
      </trkpt>
      <trkpt lat="44.76628" lon="6.03322">
        <ele>999.2</ele>
        <time>2021-06-26T14:03:41Z</time>
      </trkpt>
      <trkpt lat="44.76626" lon="6.03324">
        <ele>999.2</ele>
        <time>2021-06-26T14:03:42Z</time>
      </trkpt>
      <trkpt lat="44.76611" lon="6.03331">
        <ele>1000.2</ele>
        <time>2021-06-26T14:03:48Z</time>
      </trkpt>
      <trkpt lat="44.76608" lon="6.03332">
        <ele>1000.4</ele>
        <time>2021-06-26T14:03:49Z</time>
      </trkpt>
      <trkpt lat="44.76593" lon="6.0334">
        <ele>1001.4</ele>
        <time>2021-06-26T14:03:55Z</time>
      </trkpt>
      <trkpt lat="44.76588" lon="6.03342">
        <ele>1001.8</ele>
        <time>2021-06-26T14:03:57Z</time>
      </trkpt>
      <trkpt lat="44.76581" lon="6.03344">
        <ele>1002.6</ele>
        <time>2021-06-26T14:04:00Z</time>
      </trkpt>
      <trkpt lat="44.76569" lon="6.0335">
        <ele>1003.4</ele>
        <time>2021-06-26T14:04:05Z</time>
      </trkpt>
      <trkpt lat="44.76564" lon="6.03352">
        <ele>1003.6</ele>
        <time>2021-06-26T14:04:07Z</time>
      </trkpt>
      <trkpt lat="44.7655" lon="6.03357">
        <ele>1005</ele>
        <time>2021-06-26T14:04:12Z</time>
      </trkpt>
      <trkpt lat="44.76536" lon="6.03361">
        <ele>1006</ele>
        <time>2021-06-26T14:04:17Z</time>
      </trkpt>
      <trkpt lat="44.76523" lon="6.03366">
        <ele>1007.2</ele>
        <time>2021-06-26T14:04:22Z</time>
      </trkpt>
      <trkpt lat="44.76506" lon="6.03371">
        <ele>1008.6</ele>
        <time>2021-06-26T14:04:28Z</time>
      </trkpt>
      <trkpt lat="44.7649" lon="6.03372">
        <ele>1009.6</ele>
        <time>2021-06-26T14:04:33Z</time>
      </trkpt>
      <trkpt lat="44.76468" lon="6.03366">
        <ele>1010.8</ele>
        <time>2021-06-26T14:04:40Z</time>
      </trkpt>
      <trkpt lat="44.76461" lon="6.03362">
        <ele>1011</ele>
        <time>2021-06-26T14:04:42Z</time>
      </trkpt>
      <trkpt lat="44.76448" lon="6.0335">
        <ele>1011.6</ele>
        <time>2021-06-26T14:04:47Z</time>
      </trkpt>
      <trkpt lat="44.76443" lon="6.03344">
        <ele>1012</ele>
        <time>2021-06-26T14:04:49Z</time>
      </trkpt>
      <trkpt lat="44.76436" lon="6.03331">
        <ele>1012.8</ele>
        <time>2021-06-26T14:04:53Z</time>
      </trkpt>
      <trkpt lat="44.76431" lon="6.0332">
        <ele>1013.4</ele>
        <time>2021-06-26T14:04:56Z</time>
      </trkpt>
      <trkpt lat="44.76427" lon="6.03308">
        <ele>1014</ele>
        <time>2021-06-26T14:04:59Z</time>
      </trkpt>
      <trkpt lat="44.7642" lon="6.03285">
        <ele>1015</ele>
        <time>2021-06-26T14:05:04Z</time>
      </trkpt>
      <trkpt lat="44.76418" lon="6.03281">
        <ele>1015.2</ele>
        <time>2021-06-26T14:05:05Z</time>
      </trkpt>
      <trkpt lat="44.76403" lon="6.03256">
        <ele>1016</ele>
        <time>2021-06-26T14:05:11Z</time>
      </trkpt>
      <trkpt lat="44.76399" lon="6.03249">
        <ele>1016.4</ele>
        <time>2021-06-26T14:05:13Z</time>
      </trkpt>
      <trkpt lat="44.76381" lon="6.03223">
        <ele>1017.4</ele>
        <time>2021-06-26T14:05:20Z</time>
      </trkpt>
      <trkpt lat="44.76376" lon="6.03217">
        <ele>1017.8</ele>
        <time>2021-06-26T14:05:22Z</time>
      </trkpt>
      <trkpt lat="44.76361" lon="6.03209">
        <ele>1018.6</ele>
        <time>2021-06-26T14:05:27Z</time>
      </trkpt>
      <trkpt lat="44.76358" lon="6.03208">
        <ele>1018.8</ele>
        <time>2021-06-26T14:05:28Z</time>
      </trkpt>
      <trkpt lat="44.76348" lon="6.03203">
        <ele>1020</ele>
        <time>2021-06-26T14:05:32Z</time>
      </trkpt>
      <trkpt lat="44.76339" lon="6.03198">
        <ele>1020.8</ele>
        <time>2021-06-26T14:05:35Z</time>
      </trkpt>
      <trkpt lat="44.76336" lon="6.03197">
        <ele>1021.2</ele>
        <time>2021-06-26T14:05:36Z</time>
      </trkpt>
      <trkpt lat="44.76327" lon="6.03192">
        <ele>1022.4</ele>
        <time>2021-06-26T14:05:39Z</time>
      </trkpt>
      <trkpt lat="44.76319" lon="6.03185">
        <ele>1022.8</ele>
        <time>2021-06-26T14:05:42Z</time>
      </trkpt>
      <trkpt lat="44.76313" lon="6.0318">
        <ele>1023</ele>
        <time>2021-06-26T14:05:44Z</time>
      </trkpt>
      <trkpt lat="44.76309" lon="6.03174">
        <ele>1023.4</ele>
        <time>2021-06-26T14:05:46Z</time>
      </trkpt>
      <trkpt lat="44.76302" lon="6.03167">
        <ele>1024.4</ele>
        <time>2021-06-26T14:05:49Z</time>
      </trkpt>
      <trkpt lat="44.763" lon="6.03165">
        <ele>1024.6</ele>
        <time>2021-06-26T14:05:50Z</time>
      </trkpt>
      <trkpt lat="44.7629" lon="6.03156">
        <ele>1025.6</ele>
        <time>2021-06-26T14:05:54Z</time>
      </trkpt>
      <trkpt lat="44.76283" lon="6.03151">
        <ele>1026.6</ele>
        <time>2021-06-26T14:05:57Z</time>
      </trkpt>
      <trkpt lat="44.76269" lon="6.03141">
        <ele>1027.8</ele>
        <time>2021-06-26T14:06:03Z</time>
      </trkpt>
      <trkpt lat="44.76263" lon="6.03138">
        <ele>1028.6</ele>
        <time>2021-06-26T14:06:05Z</time>
      </trkpt>
      <trkpt lat="44.7626" lon="6.03137">
        <ele>1029</ele>
        <time>2021-06-26T14:06:07Z</time>
      </trkpt>
      <trkpt lat="44.76253" lon="6.03134">
        <ele>1030</ele>
        <time>2021-06-26T14:06:11Z</time>
      </trkpt>
      <trkpt lat="44.76252" lon="6.03134">
        <ele>1030.2</ele>
        <time>2021-06-26T14:06:12Z</time>
      </trkpt>
      <trkpt lat="44.7625" lon="6.03134">
        <ele>1030.4</ele>
        <time>2021-06-26T14:06:14Z</time>
      </trkpt>
      <trkpt lat="44.76247" lon="6.03133">
        <ele>1030.8</ele>
        <time>2021-06-26T14:06:16Z</time>
      </trkpt>
      <trkpt lat="44.76246" lon="6.03133">
        <ele>1030.8</ele>
        <time>2021-06-26T14:06:17Z</time>
      </trkpt>
      <trkpt lat="44.76246" lon="6.03132">
        <ele>1031</ele>
        <time>2021-06-26T14:06:18Z</time>
      </trkpt>
      <trkpt lat="44.76244" lon="6.03129">
        <ele>1031.2</ele>
        <time>2021-06-26T14:06:23Z</time>
      </trkpt>
      <trkpt lat="44.76244" lon="6.03129">
        <ele>1031.2</ele>
        <time>2021-06-26T14:06:24Z</time>
      </trkpt>
      <trkpt lat="44.76243" lon="6.03126">
        <ele>1030.6</ele>
        <time>2021-06-26T14:08:27Z</time>
      </trkpt>
      <trkpt lat="44.76241" lon="6.03118">
        <ele>1030.6</ele>
        <time>2021-06-26T14:08:30Z</time>
      </trkpt>
      <trkpt lat="44.7624" lon="6.03106">
        <ele>1030.2</ele>
        <time>2021-06-26T14:08:34Z</time>
      </trkpt>
      <trkpt lat="44.7624" lon="6.03097">
        <ele>1029.8</ele>
        <time>2021-06-26T14:08:37Z</time>
      </trkpt>
      <trkpt lat="44.76239" lon="6.03095">
        <ele>1029.8</ele>
        <time>2021-06-26T14:08:38Z</time>
      </trkpt>
      <trkpt lat="44.76238" lon="6.03083">
        <ele>1029.8</ele>
        <time>2021-06-26T14:08:44Z</time>
      </trkpt>
      <trkpt lat="44.76239" lon="6.0308">
        <ele>1029.8</ele>
        <time>2021-06-26T14:08:46Z</time>
      </trkpt>
      <trkpt lat="44.76239" lon="6.03071">
        <ele>1030</ele>
        <time>2021-06-26T14:08:50Z</time>
      </trkpt>
      <trkpt lat="44.76238" lon="6.03063">
        <ele>1030.2</ele>
        <time>2021-06-26T14:08:54Z</time>
      </trkpt>
      <trkpt lat="44.76237" lon="6.03063">
        <ele>1030.4</ele>
        <time>2021-06-26T14:08:55Z</time>
      </trkpt>
      <trkpt lat="44.76236" lon="6.03073">
        <ele>1030.8</ele>
        <time>2021-06-26T14:08:59Z</time>
      </trkpt>
      <trkpt lat="44.76236" lon="6.03075">
        <ele>1030.8</ele>
        <time>2021-06-26T14:09:00Z</time>
      </trkpt>
      <trkpt lat="44.76237" lon="6.03079">
        <ele>1031</ele>
        <time>2021-06-26T14:09:03Z</time>
      </trkpt>
      <trkpt lat="44.76235" lon="6.03096">
        <ele>1030.8</ele>
        <time>2021-06-26T14:09:09Z</time>
      </trkpt>
      <trkpt lat="44.76235" lon="6.031">
        <ele>1030.4</ele>
        <time>2021-06-26T14:09:11Z</time>
      </trkpt>
      <trkpt lat="44.76236" lon="6.03102">
        <ele>1030.2</ele>
        <time>2021-06-26T14:09:14Z</time>
      </trkpt>
      <trkpt lat="44.76236" lon="6.03102">
        <ele>1030</ele>
        <time>2021-06-26T14:09:15Z</time>
      </trkpt>
      <trkpt lat="44.76238" lon="6.03108">
        <ele>1029.4</ele>
        <time>2021-06-26T14:09:28Z</time>
      </trkpt>
      <trkpt lat="44.76238" lon="6.03114">
        <ele>1029.4</ele>
        <time>2021-06-26T14:09:30Z</time>
      </trkpt>
      <trkpt lat="44.76243" lon="6.03127">
        <ele>1029.6</ele>
        <time>2021-06-26T14:09:36Z</time>
      </trkpt>
      <trkpt lat="44.76243" lon="6.03129">
        <ele>1029.8</ele>
        <time>2021-06-26T14:09:37Z</time>
      </trkpt>
      <trkpt lat="44.76244" lon="6.0313">
        <ele>1030</ele>
        <time>2021-06-26T14:09:39Z</time>
      </trkpt>
      <trkpt lat="44.76245" lon="6.03131">
        <ele>1030.2</ele>
        <time>2021-06-26T14:09:40Z</time>
      </trkpt>
      <trkpt lat="44.76246" lon="6.03132">
        <ele>1030.2</ele>
        <time>2021-06-26T14:09:41Z</time>
      </trkpt>
      <trkpt lat="44.76247" lon="6.03132">
        <ele>1030.4</ele>
        <time>2021-06-26T14:09:44Z</time>
      </trkpt>
      <trkpt lat="44.76243" lon="6.03125">
        <ele>1031</ele>
        <time>2021-06-26T14:10:51Z</time>
      </trkpt>
      <trkpt lat="44.7624" lon="6.03105">
        <ele>1030.6</ele>
        <time>2021-06-26T14:10:55Z</time>
      </trkpt>
      <trkpt lat="44.76236" lon="6.0306">
        <ele>1030</ele>
        <time>2021-06-26T14:11:03Z</time>
      </trkpt>
      <trkpt lat="44.76235" lon="6.03029">
        <ele>1030.2</ele>
        <time>2021-06-26T14:11:08Z</time>
      </trkpt>
      <trkpt lat="44.76234" lon="6.03021">
        <ele>1030.2</ele>
        <time>2021-06-26T14:11:09Z</time>
      </trkpt>
      <trkpt lat="44.76225" lon="6.02981">
        <ele>1029.8</ele>
        <time>2021-06-26T14:11:13Z</time>
      </trkpt>
      <trkpt lat="44.76215" lon="6.02946">
        <ele>1028.2</ele>
        <time>2021-06-26T14:11:16Z</time>
      </trkpt>
      <trkpt lat="44.7621" lon="6.02925">
        <ele>1026.8</ele>
        <time>2021-06-26T14:11:18Z</time>
      </trkpt>
      <trkpt lat="44.76208" lon="6.02914">
        <ele>1026.4</ele>
        <time>2021-06-26T14:11:19Z</time>
      </trkpt>
      <trkpt lat="44.76207" lon="6.02902">
        <ele>1026</ele>
        <time>2021-06-26T14:11:20Z</time>
      </trkpt>
      <trkpt lat="44.76207" lon="6.02891">
        <ele>1025.4</ele>
        <time>2021-06-26T14:11:21Z</time>
      </trkpt>
      <trkpt lat="44.76209" lon="6.02868">
        <ele>1025</ele>
        <time>2021-06-26T14:11:23Z</time>
      </trkpt>
      <trkpt lat="44.76209" lon="6.02846">
        <ele>1024.4</ele>
        <time>2021-06-26T14:11:25Z</time>
      </trkpt>
      <trkpt lat="44.76208" lon="6.02835">
        <ele>1024</ele>
        <time>2021-06-26T14:11:26Z</time>
      </trkpt>
      <trkpt lat="44.76205" lon="6.02813">
        <ele>1023.4</ele>
        <time>2021-06-26T14:11:28Z</time>
      </trkpt>
      <trkpt lat="44.76197" lon="6.02794">
        <ele>1023.2</ele>
        <time>2021-06-26T14:11:30Z</time>
      </trkpt>
      <trkpt lat="44.76184" lon="6.02765">
        <ele>1023</ele>
        <time>2021-06-26T14:11:33Z</time>
      </trkpt>
      <trkpt lat="44.76165" lon="6.02715">
        <ele>1022.2</ele>
        <time>2021-06-26T14:11:38Z</time>
      </trkpt>
      <trkpt lat="44.76157" lon="6.02693">
        <ele>1022</ele>
        <time>2021-06-26T14:11:40Z</time>
      </trkpt>
      <trkpt lat="44.76129" lon="6.02631">
        <ele>1021.6</ele>
        <time>2021-06-26T14:11:47Z</time>
      </trkpt>
      <trkpt lat="44.76113" lon="6.02609">
        <ele>1021.2</ele>
        <time>2021-06-26T14:11:50Z</time>
      </trkpt>
      <trkpt lat="44.76101" lon="6.02597">
        <ele>1021</ele>
        <time>2021-06-26T14:11:52Z</time>
      </trkpt>
      <trkpt lat="44.76075" lon="6.02559">
        <ele>1020.4</ele>
        <time>2021-06-26T14:11:57Z</time>
      </trkpt>
      <trkpt lat="44.76071" lon="6.0255">
        <ele>1020</ele>
        <time>2021-06-26T14:11:58Z</time>
      </trkpt>
      <trkpt lat="44.76059" lon="6.02518">
        <ele>1019.2</ele>
        <time>2021-06-26T14:12:01Z</time>
      </trkpt>
      <trkpt lat="44.76053" lon="6.02508">
        <ele>1019</ele>
        <time>2021-06-26T14:12:02Z</time>
      </trkpt>
      <trkpt lat="44.76048" lon="6.02502">
        <ele>1018.6</ele>
        <time>2021-06-26T14:12:03Z</time>
      </trkpt>
      <trkpt lat="44.76026" lon="6.02479">
        <ele>1018</ele>
        <time>2021-06-26T14:12:06Z</time>
      </trkpt>
      <trkpt lat="44.76021" lon="6.02472">
        <ele>1017.4</ele>
        <time>2021-06-26T14:12:07Z</time>
      </trkpt>
      <trkpt lat="44.76016" lon="6.02463">
        <ele>1017</ele>
        <time>2021-06-26T14:12:08Z</time>
      </trkpt>
      <trkpt lat="44.76007" lon="6.02442">
        <ele>1016</ele>
        <time>2021-06-26T14:12:10Z</time>
      </trkpt>
      <trkpt lat="44.75983" lon="6.024">
        <ele>1015</ele>
        <time>2021-06-26T14:12:14Z</time>
      </trkpt>
      <trkpt lat="44.75958" lon="6.02359">
        <ele>1014</ele>
        <time>2021-06-26T14:12:18Z</time>
      </trkpt>
      <trkpt lat="44.75951" lon="6.02351">
        <ele>1013.4</ele>
        <time>2021-06-26T14:12:19Z</time>
      </trkpt>
      <trkpt lat="44.75944" lon="6.02345">
        <ele>1013</ele>
        <time>2021-06-26T14:12:20Z</time>
      </trkpt>
      <trkpt lat="44.75936" lon="6.02341">
        <ele>1012.4</ele>
        <time>2021-06-26T14:12:21Z</time>
      </trkpt>
      <trkpt lat="44.75926" lon="6.02338">
        <ele>1012.2</ele>
        <time>2021-06-26T14:12:22Z</time>
      </trkpt>
      <trkpt lat="44.75907" lon="6.02333">
        <ele>1011.6</ele>
        <time>2021-06-26T14:12:24Z</time>
      </trkpt>
      <trkpt lat="44.759" lon="6.02329">
        <ele>1011.2</ele>
        <time>2021-06-26T14:12:25Z</time>
      </trkpt>
      <trkpt lat="44.75893" lon="6.02323">
        <ele>1010.6</ele>
        <time>2021-06-26T14:12:26Z</time>
      </trkpt>
      <trkpt lat="44.75882" lon="6.02308">
        <ele>1009.8</ele>
        <time>2021-06-26T14:12:28Z</time>
      </trkpt>
      <trkpt lat="44.75877" lon="6.02298">
        <ele>1009.4</ele>
        <time>2021-06-26T14:12:29Z</time>
      </trkpt>
      <trkpt lat="44.75873" lon="6.02288">
        <ele>1009.2</ele>
        <time>2021-06-26T14:12:30Z</time>
      </trkpt>
      <trkpt lat="44.75869" lon="6.02263">
        <ele>1008.8</ele>
        <time>2021-06-26T14:12:32Z</time>
      </trkpt>
      <trkpt lat="44.75865" lon="6.02235">
        <ele>1008.2</ele>
        <time>2021-06-26T14:12:34Z</time>
      </trkpt>
      <trkpt lat="44.7586" lon="6.02222">
        <ele>1007.2</ele>
        <time>2021-06-26T14:12:35Z</time>
      </trkpt>
      <trkpt lat="44.75849" lon="6.02201">
        <ele>1005.8</ele>
        <time>2021-06-26T14:12:37Z</time>
      </trkpt>
      <trkpt lat="44.75835" lon="6.0218">
        <ele>1004.8</ele>
        <time>2021-06-26T14:12:39Z</time>
      </trkpt>
      <trkpt lat="44.75824" lon="6.02163">
        <ele>1003.6</ele>
        <time>2021-06-26T14:12:41Z</time>
      </trkpt>
      <trkpt lat="44.75818" lon="6.02153">
        <ele>1003.2</ele>
        <time>2021-06-26T14:12:42Z</time>
      </trkpt>
      <trkpt lat="44.75812" lon="6.02141">
        <ele>1002.8</ele>
        <time>2021-06-26T14:12:43Z</time>
      </trkpt>
      <trkpt lat="44.75808" lon="6.0213">
        <ele>1002.4</ele>
        <time>2021-06-26T14:12:44Z</time>
      </trkpt>
      <trkpt lat="44.75783" lon="6.02076">
        <ele>1001.2</ele>
        <time>2021-06-26T14:12:49Z</time>
      </trkpt>
      <trkpt lat="44.75774" lon="6.02052">
        <ele>1000.6</ele>
        <time>2021-06-26T14:12:51Z</time>
      </trkpt>
      <trkpt lat="44.7577" lon="6.02043">
        <ele>1000.2</ele>
        <time>2021-06-26T14:12:52Z</time>
      </trkpt>
      <trkpt lat="44.75755" lon="6.02011">
        <ele>999.6</ele>
        <time>2021-06-26T14:12:55Z</time>
      </trkpt>
      <trkpt lat="44.75727" lon="6.01963">
        <ele>999</ele>
        <time>2021-06-26T14:13:00Z</time>
      </trkpt>
      <trkpt lat="44.7572" lon="6.01953">
        <ele>998.6</ele>
        <time>2021-06-26T14:13:01Z</time>
      </trkpt>
      <trkpt lat="44.75705" lon="6.01932">
        <ele>997.6</ele>
        <time>2021-06-26T14:13:03Z</time>
      </trkpt>
      <trkpt lat="44.75697" lon="6.01921">
        <ele>996</ele>
        <time>2021-06-26T14:13:04Z</time>
      </trkpt>
      <trkpt lat="44.75684" lon="6.01902">
        <ele>994.6</ele>
        <time>2021-06-26T14:13:06Z</time>
      </trkpt>
      <trkpt lat="44.75676" lon="6.01891">
        <ele>994.4</ele>
        <time>2021-06-26T14:13:07Z</time>
      </trkpt>
      <trkpt lat="44.75669" lon="6.01879">
        <ele>993</ele>
        <time>2021-06-26T14:13:08Z</time>
      </trkpt>
      <trkpt lat="44.75654" lon="6.01855">
        <ele>990.8</ele>
        <time>2021-06-26T14:13:10Z</time>
      </trkpt>
      <trkpt lat="44.75647" lon="6.01841">
        <ele>990</ele>
        <time>2021-06-26T14:13:11Z</time>
      </trkpt>
      <trkpt lat="44.75641" lon="6.01827">
        <ele>989.6</ele>
        <time>2021-06-26T14:13:12Z</time>
      </trkpt>
      <trkpt lat="44.75635" lon="6.01814">
        <ele>988.4</ele>
        <time>2021-06-26T14:13:13Z</time>
      </trkpt>
      <trkpt lat="44.75623" lon="6.01789">
        <ele>987.4</ele>
        <time>2021-06-26T14:13:15Z</time>
      </trkpt>
      <trkpt lat="44.7561" lon="6.01765">
        <ele>986.4</ele>
        <time>2021-06-26T14:13:17Z</time>
      </trkpt>
      <trkpt lat="44.75604" lon="6.01754">
        <ele>986</ele>
        <time>2021-06-26T14:13:18Z</time>
      </trkpt>
      <trkpt lat="44.75596" lon="6.01741">
        <ele>985.6</ele>
        <time>2021-06-26T14:13:19Z</time>
      </trkpt>
      <trkpt lat="44.75581" lon="6.01725">
        <ele>985.2</ele>
        <time>2021-06-26T14:13:21Z</time>
      </trkpt>
      <trkpt lat="44.75572" lon="6.01718">
        <ele>984.8</ele>
        <time>2021-06-26T14:13:22Z</time>
      </trkpt>
      <trkpt lat="44.75542" lon="6.01699">
        <ele>984</ele>
        <time>2021-06-26T14:13:25Z</time>
      </trkpt>
      <trkpt lat="44.75532" lon="6.01694">
        <ele>983.4</ele>
        <time>2021-06-26T14:13:26Z</time>
      </trkpt>
      <trkpt lat="44.75504" lon="6.01683">
        <ele>982</ele>
        <time>2021-06-26T14:13:29Z</time>
      </trkpt>
      <trkpt lat="44.75496" lon="6.0168">
        <ele>981.2</ele>
        <time>2021-06-26T14:13:30Z</time>
      </trkpt>
      <trkpt lat="44.75489" lon="6.01675">
        <ele>980.8</ele>
        <time>2021-06-26T14:13:31Z</time>
      </trkpt>
      <trkpt lat="44.75485" lon="6.01667">
        <ele>979.6</ele>
        <time>2021-06-26T14:13:32Z</time>
      </trkpt>
      <trkpt lat="44.75483" lon="6.01657">
        <ele>979.2</ele>
        <time>2021-06-26T14:13:33Z</time>
      </trkpt>
      <trkpt lat="44.75484" lon="6.01648">
        <ele>978.8</ele>
        <time>2021-06-26T14:13:34Z</time>
      </trkpt>
      <trkpt lat="44.75488" lon="6.01636">
        <ele>978.6</ele>
        <time>2021-06-26T14:13:35Z</time>
      </trkpt>
      <trkpt lat="44.75491" lon="6.01627">
        <ele>977.8</ele>
        <time>2021-06-26T14:13:36Z</time>
      </trkpt>
      <trkpt lat="44.75502" lon="6.01592">
        <ele>976.4</ele>
        <time>2021-06-26T14:13:39Z</time>
      </trkpt>
      <trkpt lat="44.75509" lon="6.01559">
        <ele>975.4</ele>
        <time>2021-06-26T14:13:42Z</time>
      </trkpt>
      <trkpt lat="44.75513" lon="6.01534">
        <ele>974.2</ele>
        <time>2021-06-26T14:13:44Z</time>
      </trkpt>
      <trkpt lat="44.75515" lon="6.01523">
        <ele>974</ele>
        <time>2021-06-26T14:13:45Z</time>
      </trkpt>
      <trkpt lat="44.75515" lon="6.01514">
        <ele>973.6</ele>
        <time>2021-06-26T14:13:46Z</time>
      </trkpt>
      <trkpt lat="44.7551" lon="6.01491">
        <ele>973</ele>
        <time>2021-06-26T14:13:48Z</time>
      </trkpt>
      <trkpt lat="44.75495" lon="6.01461">
        <ele>971.8</ele>
        <time>2021-06-26T14:13:51Z</time>
      </trkpt>
      <trkpt lat="44.75489" lon="6.0145">
        <ele>971.4</ele>
        <time>2021-06-26T14:13:52Z</time>
      </trkpt>
      <trkpt lat="44.75482" lon="6.01435">
        <ele>970.2</ele>
        <time>2021-06-26T14:13:53Z</time>
      </trkpt>
      <trkpt lat="44.75476" lon="6.01425">
        <ele>969.6</ele>
        <time>2021-06-26T14:13:54Z</time>
      </trkpt>
      <trkpt lat="44.75468" lon="6.01416">
        <ele>968.2</ele>
        <time>2021-06-26T14:13:55Z</time>
      </trkpt>
      <trkpt lat="44.75461" lon="6.01412">
        <ele>967.6</ele>
        <time>2021-06-26T14:13:56Z</time>
      </trkpt>
      <trkpt lat="44.75451" lon="6.0141">
        <ele>966.2</ele>
        <time>2021-06-26T14:13:57Z</time>
      </trkpt>
      <trkpt lat="44.75429" lon="6.01406">
        <ele>964.8</ele>
        <time>2021-06-26T14:13:59Z</time>
      </trkpt>
      <trkpt lat="44.75418" lon="6.01404">
        <ele>963.8</ele>
        <time>2021-06-26T14:14:00Z</time>
      </trkpt>
      <trkpt lat="44.75398" lon="6.01398">
        <ele>962.2</ele>
        <time>2021-06-26T14:14:02Z</time>
      </trkpt>
      <trkpt lat="44.75377" lon="6.01393">
        <ele>960.4</ele>
        <time>2021-06-26T14:14:04Z</time>
      </trkpt>
      <trkpt lat="44.75367" lon="6.01391">
        <ele>959</ele>
        <time>2021-06-26T14:14:05Z</time>
      </trkpt>
      <trkpt lat="44.7535" lon="6.01387">
        <ele>956.6</ele>
        <time>2021-06-26T14:14:07Z</time>
      </trkpt>
      <trkpt lat="44.75339" lon="6.01384">
        <ele>955.4</ele>
        <time>2021-06-26T14:14:08Z</time>
      </trkpt>
      <trkpt lat="44.75331" lon="6.01382">
        <ele>954.2</ele>
        <time>2021-06-26T14:14:09Z</time>
      </trkpt>
      <trkpt lat="44.75307" lon="6.01377">
        <ele>952.8</ele>
        <time>2021-06-26T14:14:12Z</time>
      </trkpt>
      <trkpt lat="44.75294" lon="6.0138">
        <ele>950.6</ele>
        <time>2021-06-26T14:14:14Z</time>
      </trkpt>
      <trkpt lat="44.75289" lon="6.01387">
        <ele>950.4</ele>
        <time>2021-06-26T14:14:15Z</time>
      </trkpt>
      <trkpt lat="44.75287" lon="6.01393">
        <ele>950</ele>
        <time>2021-06-26T14:14:16Z</time>
      </trkpt>
      <trkpt lat="44.7528" lon="6.01412">
        <ele>949.8</ele>
        <time>2021-06-26T14:14:19Z</time>
      </trkpt>
      <trkpt lat="44.75277" lon="6.01417">
        <ele>949.8</ele>
        <time>2021-06-26T14:14:20Z</time>
      </trkpt>
      <trkpt lat="44.75268" lon="6.01429">
        <ele>950</ele>
        <time>2021-06-26T14:14:23Z</time>
      </trkpt>
      <trkpt lat="44.75252" lon="6.01441">
        <ele>951.8</ele>
        <time>2021-06-26T14:14:28Z</time>
      </trkpt>
      <trkpt lat="44.75239" lon="6.01445">
        <ele>953</ele>
        <time>2021-06-26T14:14:32Z</time>
      </trkpt>
      <trkpt lat="44.75232" lon="6.01445">
        <ele>953.4</ele>
        <time>2021-06-26T14:14:34Z</time>
      </trkpt>
      <trkpt lat="44.75229" lon="6.01445">
        <ele>953.6</ele>
        <time>2021-06-26T14:14:35Z</time>
      </trkpt>
      <trkpt lat="44.75223" lon="6.01445">
        <ele>954.2</ele>
        <time>2021-06-26T14:14:37Z</time>
      </trkpt>
      <trkpt lat="44.75218" lon="6.01444">
        <ele>954.8</ele>
        <time>2021-06-26T14:14:39Z</time>
      </trkpt>
      <trkpt lat="44.75215" lon="6.01444">
        <ele>955.2</ele>
        <time>2021-06-26T14:14:40Z</time>
      </trkpt>
      <trkpt lat="44.75204" lon="6.01443">
        <ele>956.4</ele>
        <time>2021-06-26T14:14:44Z</time>
      </trkpt>
      <trkpt lat="44.75201" lon="6.01443">
        <ele>957</ele>
        <time>2021-06-26T14:14:45Z</time>
      </trkpt>
      <trkpt lat="44.75192" lon="6.01443">
        <ele>957.6</ele>
        <time>2021-06-26T14:14:48Z</time>
      </trkpt>
      <trkpt lat="44.75185" lon="6.01444">
        <ele>958.6</ele>
        <time>2021-06-26T14:14:51Z</time>
      </trkpt>
      <trkpt lat="44.75173" lon="6.01445">
        <ele>960</ele>
        <time>2021-06-26T14:14:55Z</time>
      </trkpt>
      <trkpt lat="44.75164" lon="6.01449">
        <ele>961</ele>
        <time>2021-06-26T14:14:58Z</time>
      </trkpt>
      <trkpt lat="44.75161" lon="6.01452">
        <ele>961.2</ele>
        <time>2021-06-26T14:14:59Z</time>
      </trkpt>
      <trkpt lat="44.75151" lon="6.01457">
        <ele>962.2</ele>
        <time>2021-06-26T14:15:03Z</time>
      </trkpt>
      <trkpt lat="44.75143" lon="6.01464">
        <ele>963</ele>
        <time>2021-06-26T14:15:07Z</time>
      </trkpt>
      <trkpt lat="44.75137" lon="6.01471">
        <ele>963.4</ele>
        <time>2021-06-26T14:15:10Z</time>
      </trkpt>
      <trkpt lat="44.75126" lon="6.01484">
        <ele>964.6</ele>
        <time>2021-06-26T14:15:16Z</time>
      </trkpt>
      <trkpt lat="44.75119" lon="6.01494">
        <ele>965.4</ele>
        <time>2021-06-26T14:15:20Z</time>
      </trkpt>
      <trkpt lat="44.75114" lon="6.015">
        <ele>965.6</ele>
        <time>2021-06-26T14:15:22Z</time>
      </trkpt>
      <trkpt lat="44.75113" lon="6.01503">
        <ele>965.8</ele>
        <time>2021-06-26T14:15:23Z</time>
      </trkpt>
      <trkpt lat="44.75102" lon="6.01518">
        <ele>967</ele>
        <time>2021-06-26T14:15:29Z</time>
      </trkpt>
      <trkpt lat="44.75096" lon="6.01526">
        <ele>967.6</ele>
        <time>2021-06-26T14:15:32Z</time>
      </trkpt>
      <trkpt lat="44.75092" lon="6.01531">
        <ele>968.2</ele>
        <time>2021-06-26T14:15:34Z</time>
      </trkpt>
      <trkpt lat="44.75082" lon="6.01545">
        <ele>969.8</ele>
        <time>2021-06-26T14:15:40Z</time>
      </trkpt>
      <trkpt lat="44.75077" lon="6.01553">
        <ele>970.6</ele>
        <time>2021-06-26T14:15:43Z</time>
      </trkpt>
      <trkpt lat="44.75075" lon="6.01556">
        <ele>970.8</ele>
        <time>2021-06-26T14:15:44Z</time>
      </trkpt>
      <trkpt lat="44.75066" lon="6.01567">
        <ele>972</ele>
        <time>2021-06-26T14:15:49Z</time>
      </trkpt>
      <trkpt lat="44.75065" lon="6.0157">
        <ele>972.2</ele>
        <time>2021-06-26T14:15:50Z</time>
      </trkpt>
      <trkpt lat="44.75059" lon="6.01577">
        <ele>973</ele>
        <time>2021-06-26T14:15:53Z</time>
      </trkpt>
      <trkpt lat="44.75048" lon="6.01592">
        <ele>974.2</ele>
        <time>2021-06-26T14:15:59Z</time>
      </trkpt>
      <trkpt lat="44.75043" lon="6.01597">
        <ele>974.6</ele>
        <time>2021-06-26T14:16:01Z</time>
      </trkpt>
      <trkpt lat="44.75039" lon="6.01601">
        <ele>975.2</ele>
        <time>2021-06-26T14:16:03Z</time>
      </trkpt>
      <trkpt lat="44.75031" lon="6.01606">
        <ele>976.2</ele>
        <time>2021-06-26T14:16:07Z</time>
      </trkpt>
      <trkpt lat="44.75029" lon="6.01607">
        <ele>976.4</ele>
        <time>2021-06-26T14:16:08Z</time>
      </trkpt>
      <trkpt lat="44.75022" lon="6.0161">
        <ele>977.6</ele>
        <time>2021-06-26T14:16:11Z</time>
      </trkpt>
      <trkpt lat="44.75015" lon="6.01613">
        <ele>978.4</ele>
        <time>2021-06-26T14:16:14Z</time>
      </trkpt>
      <trkpt lat="44.75013" lon="6.01614">
        <ele>978.8</ele>
        <time>2021-06-26T14:16:15Z</time>
      </trkpt>
      <trkpt lat="44.74997" lon="6.01619">
        <ele>979.6</ele>
        <time>2021-06-26T14:16:21Z</time>
      </trkpt>
      <trkpt lat="44.74992" lon="6.01621">
        <ele>980.2</ele>
        <time>2021-06-26T14:16:23Z</time>
      </trkpt>
      <trkpt lat="44.74979" lon="6.01625">
        <ele>981.2</ele>
        <time>2021-06-26T14:16:28Z</time>
      </trkpt>
      <trkpt lat="44.74969" lon="6.01626">
        <ele>982.2</ele>
        <time>2021-06-26T14:16:32Z</time>
      </trkpt>
      <trkpt lat="44.7496" lon="6.01629">
        <ele>983.2</ele>
        <time>2021-06-26T14:16:36Z</time>
      </trkpt>
      <trkpt lat="44.74957" lon="6.0163">
        <ele>983.6</ele>
        <time>2021-06-26T14:16:37Z</time>
      </trkpt>
      <trkpt lat="44.74949" lon="6.0163">
        <ele>984.6</ele>
        <time>2021-06-26T14:16:41Z</time>
      </trkpt>
      <trkpt lat="44.74941" lon="6.01628">
        <ele>985.2</ele>
        <time>2021-06-26T14:16:44Z</time>
      </trkpt>
      <trkpt lat="44.74933" lon="6.01628">
        <ele>985.6</ele>
        <time>2021-06-26T14:16:47Z</time>
      </trkpt>
      <trkpt lat="44.74925" lon="6.01628">
        <ele>986.6</ele>
        <time>2021-06-26T14:16:50Z</time>
      </trkpt>
      <trkpt lat="44.74922" lon="6.01627">
        <ele>987</ele>
        <time>2021-06-26T14:16:51Z</time>
      </trkpt>
      <trkpt lat="44.74912" lon="6.01626">
        <ele>987.6</ele>
        <time>2021-06-26T14:16:55Z</time>
      </trkpt>
      <trkpt lat="44.74904" lon="6.01625">
        <ele>988</ele>
        <time>2021-06-26T14:16:57Z</time>
      </trkpt>
      <trkpt lat="44.749" lon="6.01626">
        <ele>988.2</ele>
        <time>2021-06-26T14:16:58Z</time>
      </trkpt>
      <trkpt lat="44.74892" lon="6.01625">
        <ele>988.8</ele>
        <time>2021-06-26T14:17:01Z</time>
      </trkpt>
      <trkpt lat="44.74883" lon="6.01626">
        <ele>989.4</ele>
        <time>2021-06-26T14:17:04Z</time>
      </trkpt>
      <trkpt lat="44.74871" lon="6.01627">
        <ele>990.2</ele>
        <time>2021-06-26T14:17:07Z</time>
      </trkpt>
      <trkpt lat="44.74868" lon="6.01627">
        <ele>990.4</ele>
        <time>2021-06-26T14:17:08Z</time>
      </trkpt>
      <trkpt lat="44.74855" lon="6.01628">
        <ele>991.4</ele>
        <time>2021-06-26T14:17:13Z</time>
      </trkpt>
      <trkpt lat="44.7485" lon="6.01629">
        <ele>991.8</ele>
        <time>2021-06-26T14:17:15Z</time>
      </trkpt>
      <trkpt lat="44.74838" lon="6.01632">
        <ele>992.6</ele>
        <time>2021-06-26T14:17:18Z</time>
      </trkpt>
      <trkpt lat="44.74829" lon="6.01634">
        <ele>993.4</ele>
        <time>2021-06-26T14:17:21Z</time>
      </trkpt>
      <trkpt lat="44.74824" lon="6.01635">
        <ele>993.8</ele>
        <time>2021-06-26T14:17:23Z</time>
      </trkpt>
      <trkpt lat="44.74816" lon="6.01637">
        <ele>994.8</ele>
        <time>2021-06-26T14:17:26Z</time>
      </trkpt>
      <trkpt lat="44.74814" lon="6.01637">
        <ele>995</ele>
        <time>2021-06-26T14:17:27Z</time>
      </trkpt>
      <trkpt lat="44.74807" lon="6.01639">
        <ele>996</ele>
        <time>2021-06-26T14:17:30Z</time>
      </trkpt>
      <trkpt lat="44.74798" lon="6.01641">
        <ele>996.6</ele>
        <time>2021-06-26T14:17:33Z</time>
      </trkpt>
      <trkpt lat="44.74793" lon="6.01642">
        <ele>997</ele>
        <time>2021-06-26T14:17:35Z</time>
      </trkpt>
      <trkpt lat="44.7478" lon="6.01645">
        <ele>998.4</ele>
        <time>2021-06-26T14:17:40Z</time>
      </trkpt>
      <trkpt lat="44.74775" lon="6.01645">
        <ele>998.6</ele>
        <time>2021-06-26T14:17:42Z</time>
      </trkpt>
      <trkpt lat="44.74765" lon="6.01647">
        <ele>999.6</ele>
        <time>2021-06-26T14:17:46Z</time>
      </trkpt>
      <trkpt lat="44.74755" lon="6.01649">
        <ele>1000.6</ele>
        <time>2021-06-26T14:17:50Z</time>
      </trkpt>
      <trkpt lat="44.74739" lon="6.01653">
        <ele>1001.6</ele>
        <time>2021-06-26T14:17:56Z</time>
      </trkpt>
      <trkpt lat="44.74726" lon="6.01655">
        <ele>1002.6</ele>
        <time>2021-06-26T14:18:01Z</time>
      </trkpt>
      <trkpt lat="44.74723" lon="6.01656">
        <ele>1002.8</ele>
        <time>2021-06-26T14:18:02Z</time>
      </trkpt>
      <trkpt lat="44.74709" lon="6.01658">
        <ele>1003.8</ele>
        <time>2021-06-26T14:18:08Z</time>
      </trkpt>
      <trkpt lat="44.74704" lon="6.01659">
        <ele>1004.6</ele>
        <time>2021-06-26T14:18:10Z</time>
      </trkpt>
      <trkpt lat="44.74699" lon="6.0166">
        <ele>1005.2</ele>
        <time>2021-06-26T14:18:12Z</time>
      </trkpt>
      <trkpt lat="44.74684" lon="6.01665">
        <ele>1006.4</ele>
        <time>2021-06-26T14:18:17Z</time>
      </trkpt>
      <trkpt lat="44.74679" lon="6.01666">
        <ele>1006.8</ele>
        <time>2021-06-26T14:18:19Z</time>
      </trkpt>
      <trkpt lat="44.7467" lon="6.01668">
        <ele>1007.4</ele>
        <time>2021-06-26T14:18:22Z</time>
      </trkpt>
      <trkpt lat="44.74665" lon="6.0167">
        <ele>1008</ele>
        <time>2021-06-26T14:18:24Z</time>
      </trkpt>
      <trkpt lat="44.74657" lon="6.01672">
        <ele>1008.6</ele>
        <time>2021-06-26T14:18:27Z</time>
      </trkpt>
      <trkpt lat="44.74654" lon="6.01672">
        <ele>1008.8</ele>
        <time>2021-06-26T14:18:28Z</time>
      </trkpt>
      <trkpt lat="44.74642" lon="6.01674">
        <ele>1009.8</ele>
        <time>2021-06-26T14:18:33Z</time>
      </trkpt>
      <trkpt lat="44.74632" lon="6.01675">
        <ele>1010.4</ele>
        <time>2021-06-26T14:18:37Z</time>
      </trkpt>
      <trkpt lat="44.74628" lon="6.01676">
        <ele>1011.2</ele>
        <time>2021-06-26T14:18:39Z</time>
      </trkpt>
      <trkpt lat="44.7462" lon="6.01676">
        <ele>1011.8</ele>
        <time>2021-06-26T14:18:42Z</time>
      </trkpt>
      <trkpt lat="44.74613" lon="6.01677">
        <ele>1012.2</ele>
        <time>2021-06-26T14:18:45Z</time>
      </trkpt>
      <trkpt lat="44.74607" lon="6.01677">
        <ele>1012.8</ele>
        <time>2021-06-26T14:18:47Z</time>
      </trkpt>
      <trkpt lat="44.74605" lon="6.01676">
        <ele>1013.2</ele>
        <time>2021-06-26T14:18:48Z</time>
      </trkpt>
      <trkpt lat="44.74592" lon="6.01676">
        <ele>1014.4</ele>
        <time>2021-06-26T14:18:53Z</time>
      </trkpt>
      <trkpt lat="44.74588" lon="6.01675">
        <ele>1015</ele>
        <time>2021-06-26T14:18:55Z</time>
      </trkpt>
      <trkpt lat="44.74577" lon="6.01677">
        <ele>1015.6</ele>
        <time>2021-06-26T14:18:59Z</time>
      </trkpt>
      <trkpt lat="44.74571" lon="6.01678">
        <ele>1015.8</ele>
        <time>2021-06-26T14:19:01Z</time>
      </trkpt>
      <trkpt lat="44.74563" lon="6.0168">
        <ele>1016.8</ele>
        <time>2021-06-26T14:19:04Z</time>
      </trkpt>
      <trkpt lat="44.74549" lon="6.01681">
        <ele>1017.8</ele>
        <time>2021-06-26T14:19:09Z</time>
      </trkpt>
      <trkpt lat="44.74543" lon="6.01682">
        <ele>1018.2</ele>
        <time>2021-06-26T14:19:11Z</time>
      </trkpt>
      <trkpt lat="44.74535" lon="6.01684">
        <ele>1019</ele>
        <time>2021-06-26T14:19:14Z</time>
      </trkpt>
      <trkpt lat="44.74526" lon="6.01685">
        <ele>1020</ele>
        <time>2021-06-26T14:19:18Z</time>
      </trkpt>
      <trkpt lat="44.74516" lon="6.01688">
        <ele>1021.2</ele>
        <time>2021-06-26T14:19:22Z</time>
      </trkpt>
      <trkpt lat="44.74508" lon="6.0169">
        <ele>1021.8</ele>
        <time>2021-06-26T14:19:25Z</time>
      </trkpt>
      <trkpt lat="44.74502" lon="6.01691">
        <ele>1022.4</ele>
        <time>2021-06-26T14:19:27Z</time>
      </trkpt>
      <trkpt lat="44.74497" lon="6.01692">
        <ele>1022.8</ele>
        <time>2021-06-26T14:19:29Z</time>
      </trkpt>
      <trkpt lat="44.74489" lon="6.01695">
        <ele>1023.4</ele>
        <time>2021-06-26T14:19:32Z</time>
      </trkpt>
      <trkpt lat="44.74487" lon="6.01696">
        <ele>1023.4</ele>
        <time>2021-06-26T14:19:33Z</time>
      </trkpt>
      <trkpt lat="44.74473" lon="6.01702">
        <ele>1024.4</ele>
        <time>2021-06-26T14:19:38Z</time>
      </trkpt>
      <trkpt lat="44.74465" lon="6.01708">
        <ele>1025</ele>
        <time>2021-06-26T14:19:41Z</time>
      </trkpt>
      <trkpt lat="44.74452" lon="6.01717">
        <ele>1025.6</ele>
        <time>2021-06-26T14:19:45Z</time>
      </trkpt>
      <trkpt lat="44.74446" lon="6.01723">
        <ele>1026</ele>
        <time>2021-06-26T14:19:47Z</time>
      </trkpt>
      <trkpt lat="44.74435" lon="6.01734">
        <ele>1026.8</ele>
        <time>2021-06-26T14:19:52Z</time>
      </trkpt>
      <trkpt lat="44.74427" lon="6.01742">
        <ele>1027.6</ele>
        <time>2021-06-26T14:19:55Z</time>
      </trkpt>
      <trkpt lat="44.74424" lon="6.01744">
        <ele>1027.8</ele>
        <time>2021-06-26T14:19:56Z</time>
      </trkpt>
      <trkpt lat="44.74415" lon="6.01756">
        <ele>1028.8</ele>
        <time>2021-06-26T14:20:00Z</time>
      </trkpt>
      <trkpt lat="44.74408" lon="6.01764">
        <ele>1029.2</ele>
        <time>2021-06-26T14:20:03Z</time>
      </trkpt>
      <trkpt lat="44.74399" lon="6.01776">
        <ele>1030</ele>
        <time>2021-06-26T14:20:07Z</time>
      </trkpt>
      <trkpt lat="44.74383" lon="6.01795">
        <ele>1031</ele>
        <time>2021-06-26T14:20:13Z</time>
      </trkpt>
      <trkpt lat="44.74379" lon="6.01801">
        <ele>1031.4</ele>
        <time>2021-06-26T14:20:15Z</time>
      </trkpt>
      <trkpt lat="44.74375" lon="6.01805">
        <ele>1031.8</ele>
        <time>2021-06-26T14:20:17Z</time>
      </trkpt>
      <trkpt lat="44.7437" lon="6.01811">
        <ele>1032.2</ele>
        <time>2021-06-26T14:20:19Z</time>
      </trkpt>
      <trkpt lat="44.7436" lon="6.01821">
        <ele>1033</ele>
        <time>2021-06-26T14:20:23Z</time>
      </trkpt>
      <trkpt lat="44.74355" lon="6.01825">
        <ele>1033.4</ele>
        <time>2021-06-26T14:20:25Z</time>
      </trkpt>
      <trkpt lat="44.74345" lon="6.01831">
        <ele>1034.4</ele>
        <time>2021-06-26T14:20:29Z</time>
      </trkpt>
      <trkpt lat="44.74343" lon="6.01832">
        <ele>1034.8</ele>
        <time>2021-06-26T14:20:30Z</time>
      </trkpt>
      <trkpt lat="44.74332" lon="6.01837">
        <ele>1035.4</ele>
        <time>2021-06-26T14:20:34Z</time>
      </trkpt>
      <trkpt lat="44.74321" lon="6.0184">
        <ele>1036.4</ele>
        <time>2021-06-26T14:20:38Z</time>
      </trkpt>
      <trkpt lat="44.74318" lon="6.01841">
        <ele>1036.6</ele>
        <time>2021-06-26T14:20:39Z</time>
      </trkpt>
      <trkpt lat="44.74305" lon="6.01845">
        <ele>1037.8</ele>
        <time>2021-06-26T14:20:44Z</time>
      </trkpt>
      <trkpt lat="44.74288" lon="6.01849">
        <ele>1038.4</ele>
        <time>2021-06-26T14:20:50Z</time>
      </trkpt>
      <trkpt lat="44.74285" lon="6.0185">
        <ele>1038.6</ele>
        <time>2021-06-26T14:20:51Z</time>
      </trkpt>
      <trkpt lat="44.74271" lon="6.01855">
        <ele>1039.6</ele>
        <time>2021-06-26T14:20:57Z</time>
      </trkpt>
      <trkpt lat="44.74266" lon="6.01857">
        <ele>1040.2</ele>
        <time>2021-06-26T14:20:59Z</time>
      </trkpt>
      <trkpt lat="44.74261" lon="6.0186">
        <ele>1040.6</ele>
        <time>2021-06-26T14:21:01Z</time>
      </trkpt>
      <trkpt lat="44.74255" lon="6.01862">
        <ele>1041</ele>
        <time>2021-06-26T14:21:03Z</time>
      </trkpt>
      <trkpt lat="44.74246" lon="6.01868">
        <ele>1041.8</ele>
        <time>2021-06-26T14:21:07Z</time>
      </trkpt>
      <trkpt lat="44.74241" lon="6.01872">
        <ele>1042.6</ele>
        <time>2021-06-26T14:21:09Z</time>
      </trkpt>
      <trkpt lat="44.74239" lon="6.01873">
        <ele>1043</ele>
        <time>2021-06-26T14:21:10Z</time>
      </trkpt>
      <trkpt lat="44.74225" lon="6.01886">
        <ele>1044.2</ele>
        <time>2021-06-26T14:21:16Z</time>
      </trkpt>
      <trkpt lat="44.74221" lon="6.0189">
        <ele>1044.6</ele>
        <time>2021-06-26T14:21:18Z</time>
      </trkpt>
      <trkpt lat="44.74212" lon="6.019">
        <ele>1045.4</ele>
        <time>2021-06-26T14:21:22Z</time>
      </trkpt>
      <trkpt lat="44.74208" lon="6.01905">
        <ele>1046</ele>
        <time>2021-06-26T14:21:24Z</time>
      </trkpt>
      <trkpt lat="44.74204" lon="6.01911">
        <ele>1046.4</ele>
        <time>2021-06-26T14:21:26Z</time>
      </trkpt>
      <trkpt lat="44.7419" lon="6.01934">
        <ele>1047.8</ele>
        <time>2021-06-26T14:21:33Z</time>
      </trkpt>
      <trkpt lat="44.74189" lon="6.01938">
        <ele>1047.8</ele>
        <time>2021-06-26T14:21:34Z</time>
      </trkpt>
      <trkpt lat="44.74174" lon="6.01981">
        <ele>1048.8</ele>
        <time>2021-06-26T14:21:44Z</time>
      </trkpt>
      <trkpt lat="44.74168" lon="6.0201">
        <ele>1049.8</ele>
        <time>2021-06-26T14:21:50Z</time>
      </trkpt>
      <trkpt lat="44.74166" lon="6.02034">
        <ele>1050.4</ele>
        <time>2021-06-26T14:21:55Z</time>
      </trkpt>
      <trkpt lat="44.74166" lon="6.02043">
        <ele>1051.2</ele>
        <time>2021-06-26T14:21:57Z</time>
      </trkpt>
      <trkpt lat="44.74167" lon="6.02073">
        <ele>1052.2</ele>
        <time>2021-06-26T14:22:03Z</time>
      </trkpt>
      <trkpt lat="44.74171" lon="6.02099">
        <ele>1053.4</ele>
        <time>2021-06-26T14:22:08Z</time>
      </trkpt>
      <trkpt lat="44.74174" lon="6.02125">
        <ele>1054.6</ele>
        <time>2021-06-26T14:22:13Z</time>
      </trkpt>
      <trkpt lat="44.74179" lon="6.02163">
        <ele>1055.8</ele>
        <time>2021-06-26T14:22:20Z</time>
      </trkpt>
      <trkpt lat="44.74182" lon="6.02185">
        <ele>1056.2</ele>
        <time>2021-06-26T14:22:24Z</time>
      </trkpt>
      <trkpt lat="44.74185" lon="6.02208">
        <ele>1057</ele>
        <time>2021-06-26T14:22:28Z</time>
      </trkpt>
      <trkpt lat="44.74192" lon="6.02266">
        <ele>1057.6</ele>
        <time>2021-06-26T14:22:37Z</time>
      </trkpt>
      <trkpt lat="44.74199" lon="6.02313">
        <ele>1057.6</ele>
        <time>2021-06-26T14:22:44Z</time>
      </trkpt>
      <trkpt lat="44.742" lon="6.02318">
        <ele>1057.6</ele>
        <time>2021-06-26T14:22:45Z</time>
      </trkpt>
      <trkpt lat="44.74202" lon="6.02337">
        <ele>1058</ele>
        <time>2021-06-26T14:22:48Z</time>
      </trkpt>
      <trkpt lat="44.74207" lon="6.02377">
        <ele>1058.6</ele>
        <time>2021-06-26T14:22:54Z</time>
      </trkpt>
      <trkpt lat="44.74211" lon="6.02407">
        <ele>1059.2</ele>
        <time>2021-06-26T14:22:59Z</time>
      </trkpt>
      <trkpt lat="44.74213" lon="6.02422">
        <ele>1059.8</ele>
        <time>2021-06-26T14:23:02Z</time>
      </trkpt>
      <trkpt lat="44.74214" lon="6.02432">
        <ele>1060.4</ele>
        <time>2021-06-26T14:23:04Z</time>
      </trkpt>
      <trkpt lat="44.74218" lon="6.02453">
        <ele>1061.4</ele>
        <time>2021-06-26T14:23:08Z</time>
      </trkpt>
      <trkpt lat="44.74219" lon="6.02464">
        <ele>1062</ele>
        <time>2021-06-26T14:23:10Z</time>
      </trkpt>
      <trkpt lat="44.74222" lon="6.02484">
        <ele>1062.8</ele>
        <time>2021-06-26T14:23:14Z</time>
      </trkpt>
      <trkpt lat="44.74225" lon="6.02505">
        <ele>1063.8</ele>
        <time>2021-06-26T14:23:18Z</time>
      </trkpt>
      <trkpt lat="44.74226" lon="6.0251">
        <ele>1064</ele>
        <time>2021-06-26T14:23:19Z</time>
      </trkpt>
      <trkpt lat="44.74227" lon="6.02531">
        <ele>1065</ele>
        <time>2021-06-26T14:23:23Z</time>
      </trkpt>
      <trkpt lat="44.74228" lon="6.02558">
        <ele>1066.2</ele>
        <time>2021-06-26T14:23:28Z</time>
      </trkpt>
      <trkpt lat="44.74226" lon="6.02596">
        <ele>1067.2</ele>
        <time>2021-06-26T14:23:35Z</time>
      </trkpt>
      <trkpt lat="44.74226" lon="6.02607">
        <ele>1067.4</ele>
        <time>2021-06-26T14:23:37Z</time>
      </trkpt>
      <trkpt lat="44.74226" lon="6.02635">
        <ele>1068.4</ele>
        <time>2021-06-26T14:23:42Z</time>
      </trkpt>
      <trkpt lat="44.74228" lon="6.02659">
        <ele>1069</ele>
        <time>2021-06-26T14:23:46Z</time>
      </trkpt>
      <trkpt lat="44.7423" lon="6.02676">
        <ele>1069.6</ele>
        <time>2021-06-26T14:23:49Z</time>
      </trkpt>
      <trkpt lat="44.74237" lon="6.02715">
        <ele>1070.6</ele>
        <time>2021-06-26T14:23:56Z</time>
      </trkpt>
      <trkpt lat="44.74239" lon="6.02719">
        <ele>1070.6</ele>
        <time>2021-06-26T14:23:57Z</time>
      </trkpt>
      <trkpt lat="44.74249" lon="6.02752">
        <ele>1071.8</ele>
        <time>2021-06-26T14:24:04Z</time>
      </trkpt>
      <trkpt lat="44.74256" lon="6.0277">
        <ele>1072.8</ele>
        <time>2021-06-26T14:24:08Z</time>
      </trkpt>
      <trkpt lat="44.74265" lon="6.02788">
        <ele>1073.6</ele>
        <time>2021-06-26T14:24:12Z</time>
      </trkpt>
      <trkpt lat="44.74269" lon="6.02795">
        <ele>1074</ele>
        <time>2021-06-26T14:24:14Z</time>
      </trkpt>
      <trkpt lat="44.74277" lon="6.02812">
        <ele>1075.2</ele>
        <time>2021-06-26T14:24:18Z</time>
      </trkpt>
      <trkpt lat="44.74282" lon="6.02824">
        <ele>1075.8</ele>
        <time>2021-06-26T14:24:21Z</time>
      </trkpt>
      <trkpt lat="44.74286" lon="6.02832">
        <ele>1076.2</ele>
        <time>2021-06-26T14:24:23Z</time>
      </trkpt>
      <trkpt lat="44.74294" lon="6.02853">
        <ele>1077.4</ele>
        <time>2021-06-26T14:24:28Z</time>
      </trkpt>
      <trkpt lat="44.74298" lon="6.02865">
        <ele>1078.2</ele>
        <time>2021-06-26T14:24:31Z</time>
      </trkpt>
      <trkpt lat="44.743" lon="6.02875">
        <ele>1078.4</ele>
        <time>2021-06-26T14:24:33Z</time>
      </trkpt>
      <trkpt lat="44.74305" lon="6.02897">
        <ele>1079.8</ele>
        <time>2021-06-26T14:24:38Z</time>
      </trkpt>
      <trkpt lat="44.74306" lon="6.02907">
        <ele>1080</ele>
        <time>2021-06-26T14:24:40Z</time>
      </trkpt>
      <trkpt lat="44.74307" lon="6.02915">
        <ele>1080.4</ele>
        <time>2021-06-26T14:24:42Z</time>
      </trkpt>
      <trkpt lat="44.7431" lon="6.0293">
        <ele>1080.8</ele>
        <time>2021-06-26T14:24:45Z</time>
      </trkpt>
      <trkpt lat="44.74313" lon="6.02958">
        <ele>1082</ele>
        <time>2021-06-26T14:24:51Z</time>
      </trkpt>
      <trkpt lat="44.74315" lon="6.02969">
        <ele>1082.4</ele>
        <time>2021-06-26T14:24:53Z</time>
      </trkpt>
      <trkpt lat="44.74318" lon="6.02988">
        <ele>1083.2</ele>
        <time>2021-06-26T14:24:57Z</time>
      </trkpt>
      <trkpt lat="44.74325" lon="6.0302">
        <ele>1084.4</ele>
        <time>2021-06-26T14:25:03Z</time>
      </trkpt>
      <trkpt lat="44.74326" lon="6.03025">
        <ele>1084.4</ele>
        <time>2021-06-26T14:25:04Z</time>
      </trkpt>
      <trkpt lat="44.74343" lon="6.03072">
        <ele>1085</ele>
        <time>2021-06-26T14:25:13Z</time>
      </trkpt>
      <trkpt lat="44.74355" lon="6.03098">
        <ele>1085.4</ele>
        <time>2021-06-26T14:25:18Z</time>
      </trkpt>
      <trkpt lat="44.74365" lon="6.03119">
        <ele>1085.8</ele>
        <time>2021-06-26T14:25:22Z</time>
      </trkpt>
      <trkpt lat="44.74395" lon="6.03176">
        <ele>1086.2</ele>
        <time>2021-06-26T14:25:33Z</time>
      </trkpt>
      <trkpt lat="44.74397" lon="6.03181">
        <ele>1086.4</ele>
        <time>2021-06-26T14:25:34Z</time>
      </trkpt>
      <trkpt lat="44.74419" lon="6.03224">
        <ele>1087.6</ele>
        <time>2021-06-26T14:25:43Z</time>
      </trkpt>
      <trkpt lat="44.74424" lon="6.03234">
        <ele>1087.8</ele>
        <time>2021-06-26T14:25:45Z</time>
      </trkpt>
      <trkpt lat="44.74432" lon="6.03246">
        <ele>1088.4</ele>
        <time>2021-06-26T14:25:48Z</time>
      </trkpt>
      <trkpt lat="44.74441" lon="6.03256">
        <ele>1089</ele>
        <time>2021-06-26T14:25:51Z</time>
      </trkpt>
      <trkpt lat="44.74449" lon="6.03263">
        <ele>1089.4</ele>
        <time>2021-06-26T14:25:53Z</time>
      </trkpt>
      <trkpt lat="44.74462" lon="6.03273">
        <ele>1090.4</ele>
        <time>2021-06-26T14:25:57Z</time>
      </trkpt>
      <trkpt lat="44.74491" lon="6.03289">
        <ele>1091.2</ele>
        <time>2021-06-26T14:26:04Z</time>
      </trkpt>
      <trkpt lat="44.74503" lon="6.03296">
        <ele>1091.6</ele>
        <time>2021-06-26T14:26:07Z</time>
      </trkpt>
      <trkpt lat="44.74518" lon="6.03305">
        <ele>1092.2</ele>
        <time>2021-06-26T14:26:11Z</time>
      </trkpt>
      <trkpt lat="44.74523" lon="6.03308">
        <ele>1092.4</ele>
        <time>2021-06-26T14:26:12Z</time>
      </trkpt>
      <trkpt lat="44.74526" lon="6.03312">
        <ele>1092.6</ele>
        <time>2021-06-26T14:26:13Z</time>
      </trkpt>
      <trkpt lat="44.74534" lon="6.03319">
        <ele>1092.8</ele>
        <time>2021-06-26T14:26:15Z</time>
      </trkpt>
      <trkpt lat="44.74536" lon="6.03322">
        <ele>1092.8</ele>
        <time>2021-06-26T14:26:16Z</time>
      </trkpt>
      <trkpt lat="44.7454" lon="6.03327">
        <ele>1093</ele>
        <time>2021-06-26T14:26:17Z</time>
      </trkpt>
      <trkpt lat="44.74543" lon="6.03332">
        <ele>1093</ele>
        <time>2021-06-26T14:26:18Z</time>
      </trkpt>
      <trkpt lat="44.74545" lon="6.03338">
        <ele>1093</ele>
        <time>2021-06-26T14:26:19Z</time>
      </trkpt>
      <trkpt lat="44.74548" lon="6.03348">
        <ele>1093.4</ele>
        <time>2021-06-26T14:26:21Z</time>
      </trkpt>
      <trkpt lat="44.74549" lon="6.03355">
        <ele>1093.6</ele>
        <time>2021-06-26T14:26:22Z</time>
      </trkpt>
      <trkpt lat="44.74549" lon="6.03361">
        <ele>1094.4</ele>
        <time>2021-06-26T14:26:23Z</time>
      </trkpt>
      <trkpt lat="44.74548" lon="6.03379">
        <ele>1094.6</ele>
        <time>2021-06-26T14:26:26Z</time>
      </trkpt>
      <trkpt lat="44.74546" lon="6.03386">
        <ele>1094.8</ele>
        <time>2021-06-26T14:26:27Z</time>
      </trkpt>
      <trkpt lat="44.74543" lon="6.03391">
        <ele>1094.8</ele>
        <time>2021-06-26T14:26:28Z</time>
      </trkpt>
      <trkpt lat="44.74541" lon="6.03397">
        <ele>1095</ele>
        <time>2021-06-26T14:26:29Z</time>
      </trkpt>
      <trkpt lat="44.74535" lon="6.03406">
        <ele>1095</ele>
        <time>2021-06-26T14:26:31Z</time>
      </trkpt>
      <trkpt lat="44.74526" lon="6.03416">
        <ele>1095</ele>
        <time>2021-06-26T14:26:33Z</time>
      </trkpt>
      <trkpt lat="44.74496" lon="6.03433">
        <ele>1094.8</ele>
        <time>2021-06-26T14:26:39Z</time>
      </trkpt>
      <trkpt lat="44.7446" lon="6.03451">
        <ele>1094</ele>
        <time>2021-06-26T14:26:45Z</time>
      </trkpt>
      <trkpt lat="44.74445" lon="6.03459">
        <ele>1093.6</ele>
        <time>2021-06-26T14:26:47Z</time>
      </trkpt>
      <trkpt lat="44.74419" lon="6.03473">
        <ele>1092.2</ele>
        <time>2021-06-26T14:26:51Z</time>
      </trkpt>
      <trkpt lat="44.74412" lon="6.03477">
        <ele>1092.2</ele>
        <time>2021-06-26T14:26:52Z</time>
      </trkpt>
      <trkpt lat="44.74375" lon="6.03492">
        <ele>1091.2</ele>
        <time>2021-06-26T14:26:57Z</time>
      </trkpt>
      <trkpt lat="44.74368" lon="6.03495">
        <ele>1090.6</ele>
        <time>2021-06-26T14:26:58Z</time>
      </trkpt>
      <trkpt lat="44.74313" lon="6.03521">
        <ele>1090.4</ele>
        <time>2021-06-26T14:27:06Z</time>
      </trkpt>
      <trkpt lat="44.74307" lon="6.03525">
        <ele>1090.4</ele>
        <time>2021-06-26T14:27:07Z</time>
      </trkpt>
      <trkpt lat="44.74274" lon="6.03542">
        <ele>1090</ele>
        <time>2021-06-26T14:27:12Z</time>
      </trkpt>
      <trkpt lat="44.74261" lon="6.03549">
        <ele>1089.8</ele>
        <time>2021-06-26T14:27:14Z</time>
      </trkpt>
      <trkpt lat="44.74204" lon="6.03578">
        <ele>1089.4</ele>
        <time>2021-06-26T14:27:22Z</time>
      </trkpt>
      <trkpt lat="44.74198" lon="6.03581">
        <ele>1089.2</ele>
        <time>2021-06-26T14:27:23Z</time>
      </trkpt>
      <trkpt lat="44.74191" lon="6.03585">
        <ele>1089</ele>
        <time>2021-06-26T14:27:24Z</time>
      </trkpt>
      <trkpt lat="44.74153" lon="6.03605">
        <ele>1087.8</ele>
        <time>2021-06-26T14:27:29Z</time>
      </trkpt>
      <trkpt lat="44.74137" lon="6.03613">
        <ele>1087.2</ele>
        <time>2021-06-26T14:27:31Z</time>
      </trkpt>
      <trkpt lat="44.7413" lon="6.03617">
        <ele>1087.2</ele>
        <time>2021-06-26T14:27:32Z</time>
      </trkpt>
      <trkpt lat="44.74074" lon="6.03646">
        <ele>1086.8</ele>
        <time>2021-06-26T14:27:40Z</time>
      </trkpt>
      <trkpt lat="44.74061" lon="6.03654">
        <ele>1086.6</ele>
        <time>2021-06-26T14:27:42Z</time>
      </trkpt>
      <trkpt lat="44.74024" lon="6.03672">
        <ele>1085.6</ele>
        <time>2021-06-26T14:27:47Z</time>
      </trkpt>
      <trkpt lat="44.74011" lon="6.03678">
        <ele>1085.6</ele>
        <time>2021-06-26T14:27:49Z</time>
      </trkpt>
      <trkpt lat="44.73955" lon="6.03708">
        <ele>1086.2</ele>
        <time>2021-06-26T14:27:57Z</time>
      </trkpt>
      <trkpt lat="44.73928" lon="6.03722">
        <ele>1086</ele>
        <time>2021-06-26T14:28:01Z</time>
      </trkpt>
      <trkpt lat="44.73877" lon="6.03753">
        <ele>1085.4</ele>
        <time>2021-06-26T14:28:08Z</time>
      </trkpt>
      <trkpt lat="44.73856" lon="6.03765">
        <ele>1085</ele>
        <time>2021-06-26T14:28:11Z</time>
      </trkpt>
      <trkpt lat="44.73829" lon="6.03781">
        <ele>1084.6</ele>
        <time>2021-06-26T14:28:15Z</time>
      </trkpt>
      <trkpt lat="44.73804" lon="6.03797">
        <ele>1084.8</ele>
        <time>2021-06-26T14:28:19Z</time>
      </trkpt>
      <trkpt lat="44.73787" lon="6.03808">
        <ele>1085.6</ele>
        <time>2021-06-26T14:28:22Z</time>
      </trkpt>
      <trkpt lat="44.73755" lon="6.03827">
        <ele>1086.6</ele>
        <time>2021-06-26T14:28:27Z</time>
      </trkpt>
      <trkpt lat="44.73728" lon="6.03843">
        <ele>1087.2</ele>
        <time>2021-06-26T14:28:31Z</time>
      </trkpt>
      <trkpt lat="44.73676" lon="6.03875">
        <ele>1086.8</ele>
        <time>2021-06-26T14:28:39Z</time>
      </trkpt>
      <trkpt lat="44.73629" lon="6.03904">
        <ele>1086.6</ele>
        <time>2021-06-26T14:28:46Z</time>
      </trkpt>
      <trkpt lat="44.73617" lon="6.03911">
        <ele>1086.6</ele>
        <time>2021-06-26T14:28:48Z</time>
      </trkpt>
      <trkpt lat="44.73565" lon="6.03942">
        <ele>1087.2</ele>
        <time>2021-06-26T14:28:56Z</time>
      </trkpt>
      <trkpt lat="44.73559" lon="6.03946">
        <ele>1087.4</ele>
        <time>2021-06-26T14:28:57Z</time>
      </trkpt>
      <trkpt lat="44.73535" lon="6.03961">
        <ele>1087.8</ele>
        <time>2021-06-26T14:29:01Z</time>
      </trkpt>
      <trkpt lat="44.73496" lon="6.03984">
        <ele>1088.6</ele>
        <time>2021-06-26T14:29:08Z</time>
      </trkpt>
      <trkpt lat="44.73489" lon="6.03988">
        <ele>1089</ele>
        <time>2021-06-26T14:29:09Z</time>
      </trkpt>
      <trkpt lat="44.73472" lon="6.03995">
        <ele>1090.2</ele>
        <time>2021-06-26T14:29:12Z</time>
      </trkpt>
      <trkpt lat="44.73467" lon="6.03997">
        <ele>1090.4</ele>
        <time>2021-06-26T14:29:13Z</time>
      </trkpt>
      <trkpt lat="44.73438" lon="6.04003">
        <ele>1091.2</ele>
        <time>2021-06-26T14:29:18Z</time>
      </trkpt>
      <trkpt lat="44.7342" lon="6.04005">
        <ele>1091.6</ele>
        <time>2021-06-26T14:29:21Z</time>
      </trkpt>
      <trkpt lat="44.73397" lon="6.04007">
        <ele>1092.6</ele>
        <time>2021-06-26T14:29:25Z</time>
      </trkpt>
      <trkpt lat="44.7337" lon="6.04008">
        <ele>1093.4</ele>
        <time>2021-06-26T14:29:30Z</time>
      </trkpt>
      <trkpt lat="44.7336" lon="6.04009">
        <ele>1093.8</ele>
        <time>2021-06-26T14:29:32Z</time>
      </trkpt>
      <trkpt lat="44.73306" lon="6.04016">
        <ele>1094.4</ele>
        <time>2021-06-26T14:29:42Z</time>
      </trkpt>
      <trkpt lat="44.73289" lon="6.04022">
        <ele>1094.8</ele>
        <time>2021-06-26T14:29:45Z</time>
      </trkpt>
      <trkpt lat="44.73265" lon="6.04033">
        <ele>1095.2</ele>
        <time>2021-06-26T14:29:50Z</time>
      </trkpt>
      <trkpt lat="44.73249" lon="6.04042">
        <ele>1095.4</ele>
        <time>2021-06-26T14:29:53Z</time>
      </trkpt>
      <trkpt lat="44.7324" lon="6.04047">
        <ele>1095.8</ele>
        <time>2021-06-26T14:29:55Z</time>
      </trkpt>
      <trkpt lat="44.73222" lon="6.04056">
        <ele>1096</ele>
        <time>2021-06-26T14:29:58Z</time>
      </trkpt>
      <trkpt lat="44.73192" lon="6.04072">
        <ele>1097</ele>
        <time>2021-06-26T14:30:03Z</time>
      </trkpt>
      <trkpt lat="44.73175" lon="6.04084">
        <ele>1096.8</ele>
        <time>2021-06-26T14:30:06Z</time>
      </trkpt>
      <trkpt lat="44.73133" lon="6.04113">
        <ele>1096.6</ele>
        <time>2021-06-26T14:30:13Z</time>
      </trkpt>
      <trkpt lat="44.73122" lon="6.04122">
        <ele>1096.8</ele>
        <time>2021-06-26T14:30:15Z</time>
      </trkpt>
      <trkpt lat="44.73104" lon="6.04134">
        <ele>1097.4</ele>
        <time>2021-06-26T14:30:18Z</time>
      </trkpt>
      <trkpt lat="44.73087" lon="6.04148">
        <ele>1098</ele>
        <time>2021-06-26T14:30:21Z</time>
      </trkpt>
      <trkpt lat="44.7307" lon="6.0416">
        <ele>1098.4</ele>
        <time>2021-06-26T14:30:24Z</time>
      </trkpt>
      <trkpt lat="44.73032" lon="6.04189">
        <ele>1099</ele>
        <time>2021-06-26T14:30:31Z</time>
      </trkpt>
      <trkpt lat="44.73026" lon="6.04193">
        <ele>1099.2</ele>
        <time>2021-06-26T14:30:32Z</time>
      </trkpt>
      <trkpt lat="44.72988" lon="6.04224">
        <ele>1099.4</ele>
        <time>2021-06-26T14:30:39Z</time>
      </trkpt>
      <trkpt lat="44.72953" lon="6.0425">
        <ele>1100</ele>
        <time>2021-06-26T14:30:45Z</time>
      </trkpt>
      <trkpt lat="44.7294" lon="6.04258">
        <ele>1100</ele>
        <time>2021-06-26T14:30:47Z</time>
      </trkpt>
      <trkpt lat="44.72913" lon="6.04281">
        <ele>1100.2</ele>
        <time>2021-06-26T14:30:52Z</time>
      </trkpt>
      <trkpt lat="44.72903" lon="6.04289">
        <ele>1100.4</ele>
        <time>2021-06-26T14:30:54Z</time>
      </trkpt>
      <trkpt lat="44.72888" lon="6.04305">
        <ele>1100.4</ele>
        <time>2021-06-26T14:30:57Z</time>
      </trkpt>
      <trkpt lat="44.72875" lon="6.04323">
        <ele>1101.4</ele>
        <time>2021-06-26T14:31:00Z</time>
      </trkpt>
      <trkpt lat="44.72865" lon="6.04343">
        <ele>1101.8</ele>
        <time>2021-06-26T14:31:03Z</time>
      </trkpt>
      <trkpt lat="44.72859" lon="6.04357">
        <ele>1102</ele>
        <time>2021-06-26T14:31:05Z</time>
      </trkpt>
      <trkpt lat="44.72852" lon="6.04382">
        <ele>1102</ele>
        <time>2021-06-26T14:31:08Z</time>
      </trkpt>
      <trkpt lat="44.7285" lon="6.0439">
        <ele>1101.8</ele>
        <time>2021-06-26T14:31:09Z</time>
      </trkpt>
      <trkpt lat="44.72844" lon="6.0442">
        <ele>1101.2</ele>
        <time>2021-06-26T14:31:12Z</time>
      </trkpt>
      <trkpt lat="44.72829" lon="6.04483">
        <ele>1100.2</ele>
        <time>2021-06-26T14:31:18Z</time>
      </trkpt>
      <trkpt lat="44.72826" lon="6.0449">
        <ele>1100</ele>
        <time>2021-06-26T14:31:19Z</time>
      </trkpt>
      <trkpt lat="44.72814" lon="6.04523">
        <ele>1099.2</ele>
        <time>2021-06-26T14:31:22Z</time>
      </trkpt>
      <trkpt lat="44.72803" lon="6.04553">
        <ele>1097.8</ele>
        <time>2021-06-26T14:31:25Z</time>
      </trkpt>
      <trkpt lat="44.7279" lon="6.04587">
        <ele>1097.6</ele>
        <time>2021-06-26T14:31:28Z</time>
      </trkpt>
      <trkpt lat="44.72778" lon="6.04617">
        <ele>1096.8</ele>
        <time>2021-06-26T14:31:31Z</time>
      </trkpt>
      <trkpt lat="44.72768" lon="6.04647">
        <ele>1095.8</ele>
        <time>2021-06-26T14:31:34Z</time>
      </trkpt>
      <trkpt lat="44.72765" lon="6.04657">
        <ele>1095.6</ele>
        <time>2021-06-26T14:31:35Z</time>
      </trkpt>
      <trkpt lat="44.72758" lon="6.0471">
        <ele>1095.4</ele>
        <time>2021-06-26T14:31:40Z</time>
      </trkpt>
      <trkpt lat="44.72759" lon="6.0475">
        <ele>1095.6</ele>
        <time>2021-06-26T14:31:44Z</time>
      </trkpt>
      <trkpt lat="44.72761" lon="6.04762">
        <ele>1095.8</ele>
        <time>2021-06-26T14:31:45Z</time>
      </trkpt>
      <trkpt lat="44.72769" lon="6.04822">
        <ele>1096.8</ele>
        <time>2021-06-26T14:31:51Z</time>
      </trkpt>
      <trkpt lat="44.72771" lon="6.04832">
        <ele>1097</ele>
        <time>2021-06-26T14:31:52Z</time>
      </trkpt>
      <trkpt lat="44.72775" lon="6.04869">
        <ele>1097.8</ele>
        <time>2021-06-26T14:31:56Z</time>
      </trkpt>
      <trkpt lat="44.72776" lon="6.04906">
        <ele>1098.6</ele>
        <time>2021-06-26T14:32:00Z</time>
      </trkpt>
      <trkpt lat="44.72776" lon="6.04953">
        <ele>1098.8</ele>
        <time>2021-06-26T14:32:05Z</time>
      </trkpt>
      <trkpt lat="44.72775" lon="6.0499">
        <ele>1099</ele>
        <time>2021-06-26T14:32:09Z</time>
      </trkpt>
      <trkpt lat="44.72773" lon="6.05073">
        <ele>1099.4</ele>
        <time>2021-06-26T14:32:18Z</time>
      </trkpt>
      <trkpt lat="44.72774" lon="6.05149">
        <ele>1099.8</ele>
        <time>2021-06-26T14:32:26Z</time>
      </trkpt>
      <trkpt lat="44.72776" lon="6.05176">
        <ele>1099.8</ele>
        <time>2021-06-26T14:32:29Z</time>
      </trkpt>
      <trkpt lat="44.72777" lon="6.05187">
        <ele>1100</ele>
        <time>2021-06-26T14:32:30Z</time>
      </trkpt>
      <trkpt lat="44.72784" lon="6.05263">
        <ele>1100.4</ele>
        <time>2021-06-26T14:32:38Z</time>
      </trkpt>
      <trkpt lat="44.72785" lon="6.05273">
        <ele>1100.4</ele>
        <time>2021-06-26T14:32:39Z</time>
      </trkpt>
      <trkpt lat="44.72801" lon="6.0535">
        <ele>1100.6</ele>
        <time>2021-06-26T14:32:47Z</time>
      </trkpt>
      <trkpt lat="44.72804" lon="6.05366">
        <ele>1100.8</ele>
        <time>2021-06-26T14:32:49Z</time>
      </trkpt>
      <trkpt lat="44.72806" lon="6.05377">
        <ele>1101</ele>
        <time>2021-06-26T14:32:50Z</time>
      </trkpt>
      <trkpt lat="44.7282" lon="6.05435">
        <ele>1101.8</ele>
        <time>2021-06-26T14:32:57Z</time>
      </trkpt>
      <trkpt lat="44.72823" lon="6.05449">
        <ele>1102</ele>
        <time>2021-06-26T14:32:59Z</time>
      </trkpt>
      <trkpt lat="44.72837" lon="6.05515">
        <ele>1103</ele>
        <time>2021-06-26T14:33:07Z</time>
      </trkpt>
      <trkpt lat="44.72839" lon="6.05523">
        <ele>1103.2</ele>
        <time>2021-06-26T14:33:08Z</time>
      </trkpt>
      <trkpt lat="44.72846" lon="6.05555">
        <ele>1103.6</ele>
        <time>2021-06-26T14:33:12Z</time>
      </trkpt>
      <trkpt lat="44.72848" lon="6.05572">
        <ele>1103.8</ele>
        <time>2021-06-26T14:33:14Z</time>
      </trkpt>
      <trkpt lat="44.7285" lon="6.05589">
        <ele>1104</ele>
        <time>2021-06-26T14:33:16Z</time>
      </trkpt>
      <trkpt lat="44.7285" lon="6.05597">
        <ele>1104.2</ele>
        <time>2021-06-26T14:33:17Z</time>
      </trkpt>
      <trkpt lat="44.7285" lon="6.05649">
        <ele>1105</ele>
        <time>2021-06-26T14:33:23Z</time>
      </trkpt>
      <trkpt lat="44.72845" lon="6.05731">
        <ele>1104.8</ele>
        <time>2021-06-26T14:33:32Z</time>
      </trkpt>
      <trkpt lat="44.72841" lon="6.05749">
        <ele>1104.6</ele>
        <time>2021-06-26T14:33:34Z</time>
      </trkpt>
      <trkpt lat="44.72829" lon="6.05782">
        <ele>1104.2</ele>
        <time>2021-06-26T14:33:38Z</time>
      </trkpt>
      <trkpt lat="44.72808" lon="6.05814">
        <ele>1103.8</ele>
        <time>2021-06-26T14:33:42Z</time>
      </trkpt>
      <trkpt lat="44.72789" lon="6.05838">
        <ele>1103</ele>
        <time>2021-06-26T14:33:45Z</time>
      </trkpt>
      <trkpt lat="44.72758" lon="6.05873">
        <ele>1102</ele>
        <time>2021-06-26T14:33:50Z</time>
      </trkpt>
      <trkpt lat="44.72738" lon="6.05897">
        <ele>1100.8</ele>
        <time>2021-06-26T14:33:53Z</time>
      </trkpt>
      <trkpt lat="44.72716" lon="6.05923">
        <ele>1100.2</ele>
        <time>2021-06-26T14:33:56Z</time>
      </trkpt>
      <trkpt lat="44.727" lon="6.05942">
        <ele>1099.6</ele>
        <time>2021-06-26T14:33:58Z</time>
      </trkpt>
      <trkpt lat="44.72694" lon="6.05953">
        <ele>1099</ele>
        <time>2021-06-26T14:33:59Z</time>
      </trkpt>
      <trkpt lat="44.72688" lon="6.05964">
        <ele>1097.8</ele>
        <time>2021-06-26T14:34:00Z</time>
      </trkpt>
      <trkpt lat="44.72683" lon="6.05976">
        <ele>1097.2</ele>
        <time>2021-06-26T14:34:01Z</time>
      </trkpt>
      <trkpt lat="44.72679" lon="6.05989">
        <ele>1096.2</ele>
        <time>2021-06-26T14:34:02Z</time>
      </trkpt>
      <trkpt lat="44.72675" lon="6.06003">
        <ele>1095.8</ele>
        <time>2021-06-26T14:34:03Z</time>
      </trkpt>
      <trkpt lat="44.72672" lon="6.06017">
        <ele>1095.2</ele>
        <time>2021-06-26T14:34:04Z</time>
      </trkpt>
      <trkpt lat="44.72666" lon="6.06047">
        <ele>1094.4</ele>
        <time>2021-06-26T14:34:06Z</time>
      </trkpt>
      <trkpt lat="44.72665" lon="6.06062">
        <ele>1093.4</ele>
        <time>2021-06-26T14:34:07Z</time>
      </trkpt>
      <trkpt lat="44.72663" lon="6.06077">
        <ele>1093</ele>
        <time>2021-06-26T14:34:08Z</time>
      </trkpt>
      <trkpt lat="44.72662" lon="6.06092">
        <ele>1092.4</ele>
        <time>2021-06-26T14:34:09Z</time>
      </trkpt>
      <trkpt lat="44.72658" lon="6.06138">
        <ele>1091.2</ele>
        <time>2021-06-26T14:34:12Z</time>
      </trkpt>
      <trkpt lat="44.72655" lon="6.06163">
        <ele>1089.8</ele>
        <time>2021-06-26T14:34:14Z</time>
      </trkpt>
      <trkpt lat="44.72654" lon="6.06174">
        <ele>1089.6</ele>
        <time>2021-06-26T14:34:15Z</time>
      </trkpt>
      <trkpt lat="44.72651" lon="6.06184">
        <ele>1089.2</ele>
        <time>2021-06-26T14:34:16Z</time>
      </trkpt>
      <trkpt lat="44.72643" lon="6.06193">
        <ele>1088.4</ele>
        <time>2021-06-26T14:34:18Z</time>
      </trkpt>
      <trkpt lat="44.72636" lon="6.06183">
        <ele>1087.2</ele>
        <time>2021-06-26T14:34:20Z</time>
      </trkpt>
      <trkpt lat="44.72637" lon="6.06154">
        <ele>1085.8</ele>
        <time>2021-06-26T14:34:23Z</time>
      </trkpt>
      <trkpt lat="44.72637" lon="6.06129">
        <ele>1085.2</ele>
        <time>2021-06-26T14:34:25Z</time>
      </trkpt>
      <trkpt lat="44.72634" lon="6.06104">
        <ele>1084.2</ele>
        <time>2021-06-26T14:34:27Z</time>
      </trkpt>
      <trkpt lat="44.72625" lon="6.06079">
        <ele>1082.8</ele>
        <time>2021-06-26T14:34:29Z</time>
      </trkpt>
      <trkpt lat="44.72619" lon="6.06067">
        <ele>1081.8</ele>
        <time>2021-06-26T14:34:30Z</time>
      </trkpt>
      <trkpt lat="44.72613" lon="6.06058">
        <ele>1081.4</ele>
        <time>2021-06-26T14:34:31Z</time>
      </trkpt>
      <trkpt lat="44.72588" lon="6.06024">
        <ele>1080.2</ele>
        <time>2021-06-26T14:34:34Z</time>
      </trkpt>
      <trkpt lat="44.7258" lon="6.06014">
        <ele>1079.6</ele>
        <time>2021-06-26T14:34:35Z</time>
      </trkpt>
      <trkpt lat="44.72564" lon="6.05993">
        <ele>1078.8</ele>
        <time>2021-06-26T14:34:37Z</time>
      </trkpt>
      <trkpt lat="44.72547" lon="6.05972">
        <ele>1077.6</ele>
        <time>2021-06-26T14:34:39Z</time>
      </trkpt>
      <trkpt lat="44.72531" lon="6.05949">
        <ele>1076.2</ele>
        <time>2021-06-26T14:34:41Z</time>
      </trkpt>
      <trkpt lat="44.72514" lon="6.05929">
        <ele>1074.6</ele>
        <time>2021-06-26T14:34:43Z</time>
      </trkpt>
      <trkpt lat="44.72505" lon="6.05919">
        <ele>1073.4</ele>
        <time>2021-06-26T14:34:44Z</time>
      </trkpt>
      <trkpt lat="44.72487" lon="6.05905">
        <ele>1072</ele>
        <time>2021-06-26T14:34:46Z</time>
      </trkpt>
      <trkpt lat="44.72463" lon="6.05888">
        <ele>1070.4</ele>
        <time>2021-06-26T14:34:48Z</time>
      </trkpt>
      <trkpt lat="44.72432" lon="6.05865">
        <ele>1069</ele>
        <time>2021-06-26T14:34:51Z</time>
      </trkpt>
      <trkpt lat="44.7242" lon="6.05858">
        <ele>1068.6</ele>
        <time>2021-06-26T14:34:52Z</time>
      </trkpt>
      <trkpt lat="44.72396" lon="6.0585">
        <ele>1068</ele>
        <time>2021-06-26T14:34:54Z</time>
      </trkpt>
      <trkpt lat="44.72372" lon="6.05849">
        <ele>1067</ele>
        <time>2021-06-26T14:34:56Z</time>
      </trkpt>
      <trkpt lat="44.72361" lon="6.05848">
        <ele>1066.6</ele>
        <time>2021-06-26T14:34:57Z</time>
      </trkpt>
      <trkpt lat="44.72351" lon="6.05846">
        <ele>1065.6</ele>
        <time>2021-06-26T14:34:58Z</time>
      </trkpt>
      <trkpt lat="44.72332" lon="6.05839">
        <ele>1064.4</ele>
        <time>2021-06-26T14:35:00Z</time>
      </trkpt>
      <trkpt lat="44.72323" lon="6.05832">
        <ele>1063.6</ele>
        <time>2021-06-26T14:35:01Z</time>
      </trkpt>
      <trkpt lat="44.72315" lon="6.05821">
        <ele>1062.6</ele>
        <time>2021-06-26T14:35:02Z</time>
      </trkpt>
      <trkpt lat="44.72308" lon="6.05809">
        <ele>1061.2</ele>
        <time>2021-06-26T14:35:03Z</time>
      </trkpt>
      <trkpt lat="44.72304" lon="6.05796">
        <ele>1060.6</ele>
        <time>2021-06-26T14:35:04Z</time>
      </trkpt>
      <trkpt lat="44.723" lon="6.05783">
        <ele>1060</ele>
        <time>2021-06-26T14:35:05Z</time>
      </trkpt>
      <trkpt lat="44.72296" lon="6.05772">
        <ele>1059.4</ele>
        <time>2021-06-26T14:35:06Z</time>
      </trkpt>
      <trkpt lat="44.72292" lon="6.05764">
        <ele>1057.8</ele>
        <time>2021-06-26T14:35:07Z</time>
      </trkpt>
      <trkpt lat="44.72281" lon="6.05756">
        <ele>1056.2</ele>
        <time>2021-06-26T14:35:09Z</time>
      </trkpt>
      <trkpt lat="44.72271" lon="6.05769">
        <ele>1055.6</ele>
        <time>2021-06-26T14:35:11Z</time>
      </trkpt>
      <trkpt lat="44.72271" lon="6.0578">
        <ele>1055.2</ele>
        <time>2021-06-26T14:35:12Z</time>
      </trkpt>
      <trkpt lat="44.72274" lon="6.05806">
        <ele>1054</ele>
        <time>2021-06-26T14:35:14Z</time>
      </trkpt>
      <trkpt lat="44.72281" lon="6.05843">
        <ele>1052.4</ele>
        <time>2021-06-26T14:35:17Z</time>
      </trkpt>
      <trkpt lat="44.72287" lon="6.05869">
        <ele>1051</ele>
        <time>2021-06-26T14:35:19Z</time>
      </trkpt>
      <trkpt lat="44.72289" lon="6.05883">
        <ele>1050.4</ele>
        <time>2021-06-26T14:35:20Z</time>
      </trkpt>
      <trkpt lat="44.72289" lon="6.05896">
        <ele>1049.6</ele>
        <time>2021-06-26T14:35:21Z</time>
      </trkpt>
      <trkpt lat="44.72288" lon="6.0591">
        <ele>1049.4</ele>
        <time>2021-06-26T14:35:22Z</time>
      </trkpt>
      <trkpt lat="44.72285" lon="6.05923">
        <ele>1049</ele>
        <time>2021-06-26T14:35:23Z</time>
      </trkpt>
      <trkpt lat="44.72279" lon="6.05935">
        <ele>1048.6</ele>
        <time>2021-06-26T14:35:24Z</time>
      </trkpt>
      <trkpt lat="44.72271" lon="6.05945">
        <ele>1048.4</ele>
        <time>2021-06-26T14:35:25Z</time>
      </trkpt>
      <trkpt lat="44.72262" lon="6.05953">
        <ele>1047.8</ele>
        <time>2021-06-26T14:35:26Z</time>
      </trkpt>
      <trkpt lat="44.72253" lon="6.05957">
        <ele>1047.4</ele>
        <time>2021-06-26T14:35:27Z</time>
      </trkpt>
      <trkpt lat="44.72243" lon="6.05959">
        <ele>1047</ele>
        <time>2021-06-26T14:35:28Z</time>
      </trkpt>
      <trkpt lat="44.72215" lon="6.0595">
        <ele>1046.4</ele>
        <time>2021-06-26T14:35:31Z</time>
      </trkpt>
      <trkpt lat="44.72199" lon="6.05947">
        <ele>1046.4</ele>
        <time>2021-06-26T14:35:33Z</time>
      </trkpt>
      <trkpt lat="44.72177" lon="6.05941">
        <ele>1046.8</ele>
        <time>2021-06-26T14:35:36Z</time>
      </trkpt>
      <trkpt lat="44.72163" lon="6.0594">
        <ele>1047.8</ele>
        <time>2021-06-26T14:35:38Z</time>
      </trkpt>
      <trkpt lat="44.72145" lon="6.05938">
        <ele>1049</ele>
        <time>2021-06-26T14:35:41Z</time>
      </trkpt>
      <trkpt lat="44.72139" lon="6.05938">
        <ele>1049.8</ele>
        <time>2021-06-26T14:35:42Z</time>
      </trkpt>
      <trkpt lat="44.72133" lon="6.05937">
        <ele>1050.2</ele>
        <time>2021-06-26T14:35:43Z</time>
      </trkpt>
      <trkpt lat="44.7211" lon="6.05931">
        <ele>1051.4</ele>
        <time>2021-06-26T14:35:47Z</time>
      </trkpt>
      <trkpt lat="44.72105" lon="6.05928">
        <ele>1051.6</ele>
        <time>2021-06-26T14:35:48Z</time>
      </trkpt>
      <trkpt lat="44.72087" lon="6.0592">
        <ele>1052.6</ele>
        <time>2021-06-26T14:35:52Z</time>
      </trkpt>
      <trkpt lat="44.72083" lon="6.05917">
        <ele>1052.6</ele>
        <time>2021-06-26T14:35:53Z</time>
      </trkpt>
      <trkpt lat="44.72072" lon="6.05909">
        <ele>1053.8</ele>
        <time>2021-06-26T14:35:56Z</time>
      </trkpt>
      <trkpt lat="44.72064" lon="6.05903">
        <ele>1054.2</ele>
        <time>2021-06-26T14:35:58Z</time>
      </trkpt>
      <trkpt lat="44.72048" lon="6.05893">
        <ele>1055.2</ele>
        <time>2021-06-26T14:36:01Z</time>
      </trkpt>
      <trkpt lat="44.72032" lon="6.05886">
        <ele>1056.2</ele>
        <time>2021-06-26T14:36:04Z</time>
      </trkpt>
      <trkpt lat="44.71988" lon="6.05863">
        <ele>1057</ele>
        <time>2021-06-26T14:36:12Z</time>
      </trkpt>
      <trkpt lat="44.71978" lon="6.05857">
        <ele>1057.2</ele>
        <time>2021-06-26T14:36:14Z</time>
      </trkpt>
      <trkpt lat="44.71963" lon="6.05848">
        <ele>1057.8</ele>
        <time>2021-06-26T14:36:17Z</time>
      </trkpt>
      <trkpt lat="44.7195" lon="6.05842">
        <ele>1058</ele>
        <time>2021-06-26T14:36:19Z</time>
      </trkpt>
      <trkpt lat="44.7193" lon="6.05834">
        <ele>1058.4</ele>
        <time>2021-06-26T14:36:22Z</time>
      </trkpt>
      <trkpt lat="44.71924" lon="6.05834">
        <ele>1058.4</ele>
        <time>2021-06-26T14:36:23Z</time>
      </trkpt>
      <trkpt lat="44.71916" lon="6.05833">
        <ele>1058.8</ele>
        <time>2021-06-26T14:36:24Z</time>
      </trkpt>
      <trkpt lat="44.71909" lon="6.05832">
        <ele>1058.8</ele>
        <time>2021-06-26T14:36:25Z</time>
      </trkpt>
      <trkpt lat="44.7189" lon="6.05837">
        <ele>1059.4</ele>
        <time>2021-06-26T14:36:28Z</time>
      </trkpt>
      <trkpt lat="44.71856" lon="6.05854">
        <ele>1059.4</ele>
        <time>2021-06-26T14:36:33Z</time>
      </trkpt>
      <trkpt lat="44.71849" lon="6.05859">
        <ele>1059.6</ele>
        <time>2021-06-26T14:36:34Z</time>
      </trkpt>
      <trkpt lat="44.71822" lon="6.05883">
        <ele>1059.6</ele>
        <time>2021-06-26T14:36:38Z</time>
      </trkpt>
      <trkpt lat="44.7178" lon="6.05918">
        <ele>1059.2</ele>
        <time>2021-06-26T14:36:44Z</time>
      </trkpt>
      <trkpt lat="44.71728" lon="6.05946">
        <ele>1058.8</ele>
        <time>2021-06-26T14:36:51Z</time>
      </trkpt>
      <trkpt lat="44.71685" lon="6.05979">
        <ele>1058.2</ele>
        <time>2021-06-26T14:36:57Z</time>
      </trkpt>
      <trkpt lat="44.71677" lon="6.05986">
        <ele>1058</ele>
        <time>2021-06-26T14:36:58Z</time>
      </trkpt>
      <trkpt lat="44.71625" lon="6.06032">
        <ele>1057.2</ele>
        <time>2021-06-26T14:37:05Z</time>
      </trkpt>
      <trkpt lat="44.71573" lon="6.06059">
        <ele>1057</ele>
        <time>2021-06-26T14:37:11Z</time>
      </trkpt>
      <trkpt lat="44.7152" lon="6.06084">
        <ele>1056.8</ele>
        <time>2021-06-26T14:37:17Z</time>
      </trkpt>
      <trkpt lat="44.71502" lon="6.0609">
        <ele>1056.8</ele>
        <time>2021-06-26T14:37:19Z</time>
      </trkpt>
      <trkpt lat="44.71464" lon="6.06092">
        <ele>1056.2</ele>
        <time>2021-06-26T14:37:23Z</time>
      </trkpt>
      <trkpt lat="44.71454" lon="6.06092">
        <ele>1056.2</ele>
        <time>2021-06-26T14:37:24Z</time>
      </trkpt>
      <trkpt lat="44.71398" lon="6.06098">
        <ele>1056.2</ele>
        <time>2021-06-26T14:37:30Z</time>
      </trkpt>
      <trkpt lat="44.71379" lon="6.06103">
        <ele>1056.6</ele>
        <time>2021-06-26T14:37:32Z</time>
      </trkpt>
      <trkpt lat="44.71325" lon="6.06122">
        <ele>1056.6</ele>
        <time>2021-06-26T14:37:38Z</time>
      </trkpt>
      <trkpt lat="44.71287" lon="6.06135">
        <ele>1056.2</ele>
        <time>2021-06-26T14:37:42Z</time>
      </trkpt>
      <trkpt lat="44.71228" lon="6.06156">
        <ele>1055.6</ele>
        <time>2021-06-26T14:37:48Z</time>
      </trkpt>
      <trkpt lat="44.71217" lon="6.06164">
        <ele>1055.6</ele>
        <time>2021-06-26T14:37:49Z</time>
      </trkpt>
      <trkpt lat="44.71202" lon="6.06179">
        <ele>1055</ele>
        <time>2021-06-26T14:37:51Z</time>
      </trkpt>
      <trkpt lat="44.71178" lon="6.0621">
        <ele>1054.6</ele>
        <time>2021-06-26T14:37:54Z</time>
      </trkpt>
      <trkpt lat="44.71141" lon="6.06258">
        <ele>1054</ele>
        <time>2021-06-26T14:37:59Z</time>
      </trkpt>
      <trkpt lat="44.71128" lon="6.06275">
        <ele>1053.4</ele>
        <time>2021-06-26T14:38:01Z</time>
      </trkpt>
      <trkpt lat="44.71119" lon="6.06286">
        <ele>1053</ele>
        <time>2021-06-26T14:38:02Z</time>
      </trkpt>
      <trkpt lat="44.71074" lon="6.06345">
        <ele>1052.4</ele>
        <time>2021-06-26T14:38:08Z</time>
      </trkpt>
      <trkpt lat="44.71053" lon="6.06372">
        <ele>1052</ele>
        <time>2021-06-26T14:38:11Z</time>
      </trkpt>
      <trkpt lat="44.71008" lon="6.06432">
        <ele>1051.2</ele>
        <time>2021-06-26T14:38:17Z</time>
      </trkpt>
      <trkpt lat="44.70986" lon="6.0646">
        <ele>1050.8</ele>
        <time>2021-06-26T14:38:20Z</time>
      </trkpt>
      <trkpt lat="44.70941" lon="6.06519">
        <ele>1050.6</ele>
        <time>2021-06-26T14:38:26Z</time>
      </trkpt>
      <trkpt lat="44.70925" lon="6.06539">
        <ele>1050.2</ele>
        <time>2021-06-26T14:38:28Z</time>
      </trkpt>
      <trkpt lat="44.70883" lon="6.06594">
        <ele>1050.2</ele>
        <time>2021-06-26T14:38:34Z</time>
      </trkpt>
      <trkpt lat="44.70868" lon="6.06614">
        <ele>1050</ele>
        <time>2021-06-26T14:38:36Z</time>
      </trkpt>
      <trkpt lat="44.70845" lon="6.06654">
        <ele>1050</ele>
        <time>2021-06-26T14:38:40Z</time>
      </trkpt>
      <trkpt lat="44.70823" lon="6.06708">
        <ele>1050.2</ele>
        <time>2021-06-26T14:38:45Z</time>
      </trkpt>
      <trkpt lat="44.70816" lon="6.06731">
        <ele>1050.6</ele>
        <time>2021-06-26T14:38:47Z</time>
      </trkpt>
      <trkpt lat="44.70797" lon="6.06798">
        <ele>1052</ele>
        <time>2021-06-26T14:38:53Z</time>
      </trkpt>
      <trkpt lat="44.70775" lon="6.06877">
        <ele>1052.4</ele>
        <time>2021-06-26T14:39:00Z</time>
      </trkpt>
      <trkpt lat="44.70771" lon="6.06889">
        <ele>1052.4</ele>
        <time>2021-06-26T14:39:01Z</time>
      </trkpt>
      <trkpt lat="44.70751" lon="6.0696">
        <ele>1052</ele>
        <time>2021-06-26T14:39:07Z</time>
      </trkpt>
      <trkpt lat="44.70738" lon="6.06996">
        <ele>1052</ele>
        <time>2021-06-26T14:39:10Z</time>
      </trkpt>
      <trkpt lat="44.70731" lon="6.0701">
        <ele>1052</ele>
        <time>2021-06-26T14:39:11Z</time>
      </trkpt>
      <trkpt lat="44.70725" lon="6.07018">
        <ele>1051.8</ele>
        <time>2021-06-26T14:39:12Z</time>
      </trkpt>
      <trkpt lat="44.70707" lon="6.07032">
        <ele>1051.6</ele>
        <time>2021-06-26T14:39:14Z</time>
      </trkpt>
      <trkpt lat="44.70686" lon="6.07034">
        <ele>1051.4</ele>
        <time>2021-06-26T14:39:16Z</time>
      </trkpt>
      <trkpt lat="44.70676" lon="6.0703">
        <ele>1050.4</ele>
        <time>2021-06-26T14:39:17Z</time>
      </trkpt>
      <trkpt lat="44.70667" lon="6.07024">
        <ele>1050</ele>
        <time>2021-06-26T14:39:18Z</time>
      </trkpt>
      <trkpt lat="44.70658" lon="6.07014">
        <ele>1049.2</ele>
        <time>2021-06-26T14:39:19Z</time>
      </trkpt>
      <trkpt lat="44.70651" lon="6.07003">
        <ele>1049</ele>
        <time>2021-06-26T14:39:20Z</time>
      </trkpt>
      <trkpt lat="44.70638" lon="6.06973">
        <ele>1048.4</ele>
        <time>2021-06-26T14:39:22Z</time>
      </trkpt>
      <trkpt lat="44.70634" lon="6.06961">
        <ele>1048.2</ele>
        <time>2021-06-26T14:39:23Z</time>
      </trkpt>
      <trkpt lat="44.70612" lon="6.06899">
        <ele>1047</ele>
        <time>2021-06-26T14:39:27Z</time>
      </trkpt>
      <trkpt lat="44.70595" lon="6.06861">
        <ele>1046.2</ele>
        <time>2021-06-26T14:39:30Z</time>
      </trkpt>
      <trkpt lat="44.70587" lon="6.06849">
        <ele>1045.8</ele>
        <time>2021-06-26T14:39:31Z</time>
      </trkpt>
      <trkpt lat="44.70576" lon="6.06839">
        <ele>1045.6</ele>
        <time>2021-06-26T14:39:32Z</time>
      </trkpt>
      <trkpt lat="44.70558" lon="6.06832">
        <ele>1045.2</ele>
        <time>2021-06-26T14:39:34Z</time>
      </trkpt>
      <trkpt lat="44.70546" lon="6.06832">
        <ele>1045</ele>
        <time>2021-06-26T14:39:35Z</time>
      </trkpt>
      <trkpt lat="44.70538" lon="6.06834">
        <ele>1045</ele>
        <time>2021-06-26T14:39:36Z</time>
      </trkpt>
      <trkpt lat="44.70518" lon="6.06844">
        <ele>1044.8</ele>
        <time>2021-06-26T14:39:38Z</time>
      </trkpt>
      <trkpt lat="44.70469" lon="6.06876">
        <ele>1043.6</ele>
        <time>2021-06-26T14:39:43Z</time>
      </trkpt>
      <trkpt lat="44.70459" lon="6.06883">
        <ele>1043.2</ele>
        <time>2021-06-26T14:39:44Z</time>
      </trkpt>
      <trkpt lat="44.7043" lon="6.06902">
        <ele>1042.2</ele>
        <time>2021-06-26T14:39:47Z</time>
      </trkpt>
      <trkpt lat="44.70393" lon="6.06927">
        <ele>1041.2</ele>
        <time>2021-06-26T14:39:51Z</time>
      </trkpt>
      <trkpt lat="44.70383" lon="6.06933">
        <ele>1041.2</ele>
        <time>2021-06-26T14:39:52Z</time>
      </trkpt>
      <trkpt lat="44.70333" lon="6.06961">
        <ele>1041</ele>
        <time>2021-06-26T14:39:57Z</time>
      </trkpt>
      <trkpt lat="44.70315" lon="6.06963">
        <ele>1040</ele>
        <time>2021-06-26T14:39:59Z</time>
      </trkpt>
      <trkpt lat="44.70293" lon="6.06963">
        <ele>1039.8</ele>
        <time>2021-06-26T14:40:01Z</time>
      </trkpt>
      <trkpt lat="44.70243" lon="6.06959">
        <ele>1039.2</ele>
        <time>2021-06-26T14:40:06Z</time>
      </trkpt>
      <trkpt lat="44.70204" lon="6.06956">
        <ele>1039</ele>
        <time>2021-06-26T14:40:10Z</time>
      </trkpt>
      <trkpt lat="44.70165" lon="6.06961">
        <ele>1038.8</ele>
        <time>2021-06-26T14:40:14Z</time>
      </trkpt>
      <trkpt lat="44.70108" lon="6.06978">
        <ele>1037.4</ele>
        <time>2021-06-26T14:40:20Z</time>
      </trkpt>
      <trkpt lat="44.70099" lon="6.06982">
        <ele>1037.4</ele>
        <time>2021-06-26T14:40:21Z</time>
      </trkpt>
      <trkpt lat="44.7009" lon="6.06986">
        <ele>1037.6</ele>
        <time>2021-06-26T14:40:22Z</time>
      </trkpt>
      <trkpt lat="44.70073" lon="6.07">
        <ele>1037.2</ele>
        <time>2021-06-26T14:40:24Z</time>
      </trkpt>
      <trkpt lat="44.70045" lon="6.0704">
        <ele>1036.8</ele>
        <time>2021-06-26T14:40:28Z</time>
      </trkpt>
      <trkpt lat="44.70025" lon="6.07072">
        <ele>1036</ele>
        <time>2021-06-26T14:40:31Z</time>
      </trkpt>
      <trkpt lat="44.69992" lon="6.07122">
        <ele>1035.6</ele>
        <time>2021-06-26T14:40:36Z</time>
      </trkpt>
      <trkpt lat="44.69978" lon="6.07139">
        <ele>1035</ele>
        <time>2021-06-26T14:40:38Z</time>
      </trkpt>
      <trkpt lat="44.69942" lon="6.07177">
        <ele>1034.2</ele>
        <time>2021-06-26T14:40:43Z</time>
      </trkpt>
      <trkpt lat="44.69896" lon="6.07228">
        <ele>1034.4</ele>
        <time>2021-06-26T14:40:50Z</time>
      </trkpt>
      <trkpt lat="44.69884" lon="6.07239">
        <ele>1034.6</ele>
        <time>2021-06-26T14:40:52Z</time>
      </trkpt>
      <trkpt lat="44.69871" lon="6.07244">
        <ele>1034.8</ele>
        <time>2021-06-26T14:40:54Z</time>
      </trkpt>
      <trkpt lat="44.69865" lon="6.07245">
        <ele>1034.8</ele>
        <time>2021-06-26T14:40:55Z</time>
      </trkpt>
      <trkpt lat="44.69838" lon="6.07246">
        <ele>1035.4</ele>
        <time>2021-06-26T14:40:59Z</time>
      </trkpt>
      <trkpt lat="44.69816" lon="6.07246">
        <ele>1036</ele>
        <time>2021-06-26T14:41:02Z</time>
      </trkpt>
      <trkpt lat="44.69781" lon="6.07247">
        <ele>1036.2</ele>
        <time>2021-06-26T14:41:07Z</time>
      </trkpt>
      <trkpt lat="44.69733" lon="6.07248">
        <ele>1036.6</ele>
        <time>2021-06-26T14:41:14Z</time>
      </trkpt>
      <trkpt lat="44.6972" lon="6.07249">
        <ele>1037.2</ele>
        <time>2021-06-26T14:41:16Z</time>
      </trkpt>
      <trkpt lat="44.69699" lon="6.07249">
        <ele>1038.4</ele>
        <time>2021-06-26T14:41:19Z</time>
      </trkpt>
      <trkpt lat="44.69687" lon="6.07251">
        <ele>1039.2</ele>
        <time>2021-06-26T14:41:21Z</time>
      </trkpt>
      <trkpt lat="44.6968" lon="6.07253">
        <ele>1039.4</ele>
        <time>2021-06-26T14:41:22Z</time>
      </trkpt>
      <trkpt lat="44.69638" lon="6.07267">
        <ele>1040.2</ele>
        <time>2021-06-26T14:41:28Z</time>
      </trkpt>
      <trkpt lat="44.696" lon="6.07282">
        <ele>1040.6</ele>
        <time>2021-06-26T14:41:33Z</time>
      </trkpt>
      <trkpt lat="44.69587" lon="6.07288">
        <ele>1041</ele>
        <time>2021-06-26T14:41:35Z</time>
      </trkpt>
      <trkpt lat="44.69534" lon="6.07308">
        <ele>1041.6</ele>
        <time>2021-06-26T14:41:42Z</time>
      </trkpt>
      <trkpt lat="44.69515" lon="6.07316">
        <ele>1042.4</ele>
        <time>2021-06-26T14:41:45Z</time>
      </trkpt>
      <trkpt lat="44.69508" lon="6.07319">
        <ele>1042.6</ele>
        <time>2021-06-26T14:41:46Z</time>
      </trkpt>
      <trkpt lat="44.69467" lon="6.07334">
        <ele>1043.8</ele>
        <time>2021-06-26T14:41:52Z</time>
      </trkpt>
      <trkpt lat="44.69419" lon="6.07364">
        <ele>1044.4</ele>
        <time>2021-06-26T14:41:59Z</time>
      </trkpt>
      <trkpt lat="44.69367" lon="6.07394">
        <ele>1044.4</ele>
        <time>2021-06-26T14:42:06Z</time>
      </trkpt>
      <trkpt lat="44.69351" lon="6.074">
        <ele>1044.2</ele>
        <time>2021-06-26T14:42:08Z</time>
      </trkpt>
      <trkpt lat="44.69334" lon="6.07401">
        <ele>1044</ele>
        <time>2021-06-26T14:42:10Z</time>
      </trkpt>
      <trkpt lat="44.6928" lon="6.07395">
        <ele>1043</ele>
        <time>2021-06-26T14:42:16Z</time>
      </trkpt>
      <trkpt lat="44.6927" lon="6.07394">
        <ele>1042.6</ele>
        <time>2021-06-26T14:42:17Z</time>
      </trkpt>
      <trkpt lat="44.6925" lon="6.07391">
        <ele>1041.8</ele>
        <time>2021-06-26T14:42:19Z</time>
      </trkpt>
      <trkpt lat="44.69219" lon="6.07388">
        <ele>1040.2</ele>
        <time>2021-06-26T14:42:22Z</time>
      </trkpt>
      <trkpt lat="44.69209" lon="6.07387">
        <ele>1039</ele>
        <time>2021-06-26T14:42:23Z</time>
      </trkpt>
      <trkpt lat="44.69199" lon="6.07386">
        <ele>1038.6</ele>
        <time>2021-06-26T14:42:24Z</time>
      </trkpt>
      <trkpt lat="44.69177" lon="6.07386">
        <ele>1037.8</ele>
        <time>2021-06-26T14:42:26Z</time>
      </trkpt>
      <trkpt lat="44.69155" lon="6.07391">
        <ele>1037.2</ele>
        <time>2021-06-26T14:42:28Z</time>
      </trkpt>
      <trkpt lat="44.69113" lon="6.07415">
        <ele>1036.8</ele>
        <time>2021-06-26T14:42:32Z</time>
      </trkpt>
      <trkpt lat="44.69084" lon="6.07437">
        <ele>1035.8</ele>
        <time>2021-06-26T14:42:35Z</time>
      </trkpt>
      <trkpt lat="44.69054" lon="6.07459">
        <ele>1034.6</ele>
        <time>2021-06-26T14:42:38Z</time>
      </trkpt>
      <trkpt lat="44.69044" lon="6.07466">
        <ele>1033.6</ele>
        <time>2021-06-26T14:42:39Z</time>
      </trkpt>
      <trkpt lat="44.69034" lon="6.07474">
        <ele>1032.8</ele>
        <time>2021-06-26T14:42:40Z</time>
      </trkpt>
      <trkpt lat="44.69005" lon="6.07502">
        <ele>1031.8</ele>
        <time>2021-06-26T14:42:43Z</time>
      </trkpt>
      <trkpt lat="44.68988" lon="6.07522">
        <ele>1031.4</ele>
        <time>2021-06-26T14:42:45Z</time>
      </trkpt>
      <trkpt lat="44.6897" lon="6.07543">
        <ele>1030.2</ele>
        <time>2021-06-26T14:42:47Z</time>
      </trkpt>
      <trkpt lat="44.68952" lon="6.07564">
        <ele>1028.6</ele>
        <time>2021-06-26T14:42:49Z</time>
      </trkpt>
      <trkpt lat="44.68924" lon="6.07595">
        <ele>1027.6</ele>
        <time>2021-06-26T14:42:52Z</time>
      </trkpt>
      <trkpt lat="44.68915" lon="6.07606">
        <ele>1027</ele>
        <time>2021-06-26T14:42:53Z</time>
      </trkpt>
      <trkpt lat="44.68906" lon="6.07616">
        <ele>1026.4</ele>
        <time>2021-06-26T14:42:54Z</time>
      </trkpt>
      <trkpt lat="44.68895" lon="6.07626">
        <ele>1026</ele>
        <time>2021-06-26T14:42:55Z</time>
      </trkpt>
      <trkpt lat="44.68873" lon="6.07639">
        <ele>1025</ele>
        <time>2021-06-26T14:42:57Z</time>
      </trkpt>
      <trkpt lat="44.6885" lon="6.07643">
        <ele>1024.2</ele>
        <time>2021-06-26T14:42:59Z</time>
      </trkpt>
      <trkpt lat="44.68838" lon="6.07643">
        <ele>1024</ele>
        <time>2021-06-26T14:43:00Z</time>
      </trkpt>
      <trkpt lat="44.68782" lon="6.07645">
        <ele>1023.2</ele>
        <time>2021-06-26T14:43:05Z</time>
      </trkpt>
      <trkpt lat="44.68752" lon="6.07653">
        <ele>1023</ele>
        <time>2021-06-26T14:43:08Z</time>
      </trkpt>
      <trkpt lat="44.68744" lon="6.07656">
        <ele>1023</ele>
        <time>2021-06-26T14:43:09Z</time>
      </trkpt>
      <trkpt lat="44.68734" lon="6.07664">
        <ele>1023</ele>
        <time>2021-06-26T14:43:10Z</time>
      </trkpt>
      <trkpt lat="44.68726" lon="6.07672">
        <ele>1023</ele>
        <time>2021-06-26T14:43:11Z</time>
      </trkpt>
      <trkpt lat="44.68719" lon="6.07681">
        <ele>1023</ele>
        <time>2021-06-26T14:43:12Z</time>
      </trkpt>
      <trkpt lat="44.68677" lon="6.07743">
        <ele>1023.6</ele>
        <time>2021-06-26T14:43:19Z</time>
      </trkpt>
      <trkpt lat="44.68671" lon="6.07751">
        <ele>1023.8</ele>
        <time>2021-06-26T14:43:20Z</time>
      </trkpt>
      <trkpt lat="44.68663" lon="6.07757">
        <ele>1024</ele>
        <time>2021-06-26T14:43:21Z</time>
      </trkpt>
      <trkpt lat="44.68655" lon="6.0776">
        <ele>1024</ele>
        <time>2021-06-26T14:43:22Z</time>
      </trkpt>
      <trkpt lat="44.68638" lon="6.0776">
        <ele>1024.4</ele>
        <time>2021-06-26T14:43:24Z</time>
      </trkpt>
      <trkpt lat="44.6863" lon="6.07759">
        <ele>1024.4</ele>
        <time>2021-06-26T14:43:25Z</time>
      </trkpt>
      <trkpt lat="44.68603" lon="6.07752">
        <ele>1024.4</ele>
        <time>2021-06-26T14:43:28Z</time>
      </trkpt>
      <trkpt lat="44.68585" lon="6.07744">
        <ele>1024</ele>
        <time>2021-06-26T14:43:30Z</time>
      </trkpt>
      <trkpt lat="44.68569" lon="6.07731">
        <ele>1023.8</ele>
        <time>2021-06-26T14:43:32Z</time>
      </trkpt>
      <trkpt lat="44.68563" lon="6.07724">
        <ele>1023.6</ele>
        <time>2021-06-26T14:43:33Z</time>
      </trkpt>
      <trkpt lat="44.68558" lon="6.07716">
        <ele>1023.6</ele>
        <time>2021-06-26T14:43:34Z</time>
      </trkpt>
      <trkpt lat="44.68551" lon="6.07697">
        <ele>1023.6</ele>
        <time>2021-06-26T14:43:36Z</time>
      </trkpt>
      <trkpt lat="44.68542" lon="6.07662">
        <ele>1025</ele>
        <time>2021-06-26T14:43:39Z</time>
      </trkpt>
      <trkpt lat="44.68538" lon="6.07652">
        <ele>1025.8</ele>
        <time>2021-06-26T14:43:40Z</time>
      </trkpt>
      <trkpt lat="44.68532" lon="6.07642">
        <ele>1026.2</ele>
        <time>2021-06-26T14:43:41Z</time>
      </trkpt>
      <trkpt lat="44.6852" lon="6.07623">
        <ele>1027.2</ele>
        <time>2021-06-26T14:43:43Z</time>
      </trkpt>
      <trkpt lat="44.68513" lon="6.07614">
        <ele>1027.6</ele>
        <time>2021-06-26T14:43:44Z</time>
      </trkpt>
      <trkpt lat="44.68489" lon="6.07585">
        <ele>1028.4</ele>
        <time>2021-06-26T14:43:47Z</time>
      </trkpt>
      <trkpt lat="44.68483" lon="6.07577">
        <ele>1028.4</ele>
        <time>2021-06-26T14:43:48Z</time>
      </trkpt>
      <trkpt lat="44.68474" lon="6.07567">
        <ele>1028.2</ele>
        <time>2021-06-26T14:43:50Z</time>
      </trkpt>
      <trkpt lat="44.68472" lon="6.07563">
        <ele>1027.8</ele>
        <time>2021-06-26T14:43:51Z</time>
      </trkpt>
      <trkpt lat="44.6847" lon="6.0756">
        <ele>1027.4</ele>
        <time>2021-06-26T14:43:52Z</time>
      </trkpt>
      <trkpt lat="44.68468" lon="6.0756">
        <ele>1027.4</ele>
        <time>2021-06-26T14:43:53Z</time>
      </trkpt>
      <trkpt lat="44.68468" lon="6.07561">
        <ele>1027.2</ele>
        <time>2021-06-26T14:43:54Z</time>
      </trkpt>
      <trkpt lat="44.6847" lon="6.07563">
        <ele>1026.8</ele>
        <time>2021-06-26T14:43:56Z</time>
      </trkpt>
      <trkpt lat="44.68475" lon="6.07565">
        <ele>1026.6</ele>
        <time>2021-06-26T14:43:58Z</time>
      </trkpt>
      <trkpt lat="44.68478" lon="6.07567">
        <ele>1026.6</ele>
        <time>2021-06-26T14:43:59Z</time>
      </trkpt>
      <trkpt lat="44.68488" lon="6.07576">
        <ele>1026.6</ele>
        <time>2021-06-26T14:44:03Z</time>
      </trkpt>
      <trkpt lat="44.68506" lon="6.07595">
        <ele>1027.8</ele>
        <time>2021-06-26T14:44:10Z</time>
      </trkpt>
      <trkpt lat="44.68524" lon="6.07615">
        <ele>1028.4</ele>
        <time>2021-06-26T14:44:17Z</time>
      </trkpt>
      <trkpt lat="44.68525" lon="6.07619">
        <ele>1028.8</ele>
        <time>2021-06-26T14:44:18Z</time>
      </trkpt>
      <trkpt lat="44.68531" lon="6.07634">
        <ele>1029.4</ele>
        <time>2021-06-26T14:44:22Z</time>
      </trkpt>
      <trkpt lat="44.68533" lon="6.07644">
        <ele>1030.2</ele>
        <time>2021-06-26T14:44:25Z</time>
      </trkpt>
      <trkpt lat="44.68535" lon="6.07653">
        <ele>1030.8</ele>
        <time>2021-06-26T14:44:28Z</time>
      </trkpt>
      <trkpt lat="44.68536" lon="6.07662">
        <ele>1032.2</ele>
        <time>2021-06-26T14:44:31Z</time>
      </trkpt>
      <trkpt lat="44.68537" lon="6.07665">
        <ele>1032.6</ele>
        <time>2021-06-26T14:44:32Z</time>
      </trkpt>
      <trkpt lat="44.68536" lon="6.0767">
        <ele>1033.2</ele>
        <time>2021-06-26T14:44:34Z</time>
      </trkpt>
      <trkpt lat="44.68531" lon="6.07675">
        <ele>1034.4</ele>
        <time>2021-06-26T14:44:37Z</time>
      </trkpt>
      <trkpt lat="44.6853" lon="6.07675">
        <ele>1035</ele>
        <time>2021-06-26T14:44:38Z</time>
      </trkpt>
      <trkpt lat="44.68528" lon="6.07674">
        <ele>1035.2</ele>
        <time>2021-06-26T14:44:39Z</time>
      </trkpt>
      <trkpt lat="44.68527" lon="6.07672">
        <ele>1035.4</ele>
        <time>2021-06-26T14:44:40Z</time>
      </trkpt>
    </trkseg>
  </trk>
</gpx>